<?xml version="1.0" encoding="UTF-8" standalone="no" ?>
<gpx xmlns="http://www.topografix.com/GPX/1/1" xmlns:xsi="http://www.w3.org/2001/XMLSchema-instance" xsi:schemaLocation="http://www.topografix.com/GPX/1/1 http://www.topografix.com/GPX/1/1/gpx.xsd" version="1.1" creator="VisuGPX - https://www.visugpx.com">
  <metadata>
    <name>Sortie à Chatelans</name>
  </metadata>
  <trk>
    <name><![CDATA[Sortie à Chatelans_1]]></name>
    <trkseg>
      <trkpt lat="45.6296" lon="5.29031">
        <ele>218</ele>
        <time>2020-05-16T13:01:44.000Z</time>
      </trkpt>
      <trkpt lat="45.6296" lon="5.29031">
        <ele>218</ele>
        <time>2020-05-16T13:01:45.000Z</time>
      </trkpt>
      <trkpt lat="45.62965" lon="5.29037">
        <ele>219</ele>
        <time>2020-05-16T13:01:46.000Z</time>
      </trkpt>
      <trkpt lat="45.6297" lon="5.29044">
        <ele>219</ele>
        <time>2020-05-16T13:01:47.000Z</time>
      </trkpt>
      <trkpt lat="45.62976" lon="5.29051">
        <ele>219</ele>
        <time>2020-05-16T13:01:48.000Z</time>
      </trkpt>
      <trkpt lat="45.62981" lon="5.29058">
        <ele>219</ele>
        <time>2020-05-16T13:01:49.000Z</time>
      </trkpt>
      <trkpt lat="45.62987" lon="5.29065">
        <ele>219</ele>
        <time>2020-05-16T13:01:50.000Z</time>
      </trkpt>
      <trkpt lat="45.62992" lon="5.29072">
        <ele>219</ele>
        <time>2020-05-16T13:01:51.000Z</time>
      </trkpt>
      <trkpt lat="45.62998" lon="5.29079">
        <ele>219</ele>
        <time>2020-05-16T13:01:52.000Z</time>
      </trkpt>
      <trkpt lat="45.63003" lon="5.29086">
        <ele>219</ele>
        <time>2020-05-16T13:01:53.000Z</time>
      </trkpt>
      <trkpt lat="45.63008" lon="5.29093">
        <ele>218</ele>
        <time>2020-05-16T13:01:54.000Z</time>
      </trkpt>
      <trkpt lat="45.63014" lon="5.291">
        <ele>218</ele>
        <time>2020-05-16T13:01:55.000Z</time>
      </trkpt>
      <trkpt lat="45.6302" lon="5.29107">
        <ele>218</ele>
        <time>2020-05-16T13:01:56.000Z</time>
      </trkpt>
      <trkpt lat="45.63025" lon="5.29114">
        <ele>218</ele>
        <time>2020-05-16T13:01:57.000Z</time>
      </trkpt>
      <trkpt lat="45.63031" lon="5.29122">
        <ele>218</ele>
        <time>2020-05-16T13:01:58.000Z</time>
      </trkpt>
      <trkpt lat="45.63037" lon="5.29129">
        <ele>218</ele>
        <time>2020-05-16T13:01:59.000Z</time>
      </trkpt>
      <trkpt lat="45.63042" lon="5.29137">
        <ele>218</ele>
        <time>2020-05-16T13:02:00.000Z</time>
      </trkpt>
      <trkpt lat="45.63048" lon="5.29144">
        <ele>218</ele>
        <time>2020-05-16T13:02:01.000Z</time>
      </trkpt>
      <trkpt lat="45.63053" lon="5.29151">
        <ele>217</ele>
        <time>2020-05-16T13:02:02.000Z</time>
      </trkpt>
      <trkpt lat="45.63059" lon="5.29158">
        <ele>218</ele>
        <time>2020-05-16T13:02:03.000Z</time>
      </trkpt>
      <trkpt lat="45.63064" lon="5.29165">
        <ele>218</ele>
        <time>2020-05-16T13:02:04.000Z</time>
      </trkpt>
      <trkpt lat="45.6307" lon="5.29171">
        <ele>218</ele>
        <time>2020-05-16T13:02:05.000Z</time>
      </trkpt>
      <trkpt lat="45.63075" lon="5.29178">
        <ele>218</ele>
        <time>2020-05-16T13:02:06.000Z</time>
      </trkpt>
      <trkpt lat="45.6308" lon="5.29185">
        <ele>218</ele>
        <time>2020-05-16T13:02:07.000Z</time>
      </trkpt>
      <trkpt lat="45.63086" lon="5.29192">
        <ele>218</ele>
        <time>2020-05-16T13:02:08.000Z</time>
      </trkpt>
      <trkpt lat="45.63092" lon="5.29199">
        <ele>218</ele>
        <time>2020-05-16T13:02:09.000Z</time>
      </trkpt>
      <trkpt lat="45.63097" lon="5.29207">
        <ele>218</ele>
        <time>2020-05-16T13:02:10.000Z</time>
      </trkpt>
      <trkpt lat="45.63103" lon="5.29214">
        <ele>218</ele>
        <time>2020-05-16T13:02:11.000Z</time>
      </trkpt>
      <trkpt lat="45.63109" lon="5.29221">
        <ele>218</ele>
        <time>2020-05-16T13:02:12.000Z</time>
      </trkpt>
      <trkpt lat="45.63115" lon="5.29229">
        <ele>218</ele>
        <time>2020-05-16T13:02:13.000Z</time>
      </trkpt>
      <trkpt lat="45.63121" lon="5.29237">
        <ele>218</ele>
        <time>2020-05-16T13:02:14.000Z</time>
      </trkpt>
      <trkpt lat="45.63127" lon="5.29244">
        <ele>218</ele>
        <time>2020-05-16T13:02:15.000Z</time>
      </trkpt>
      <trkpt lat="45.63133" lon="5.29252">
        <ele>218</ele>
        <time>2020-05-16T13:02:16.000Z</time>
      </trkpt>
      <trkpt lat="45.63138" lon="5.29259">
        <ele>218</ele>
        <time>2020-05-16T13:02:17.000Z</time>
      </trkpt>
      <trkpt lat="45.63144" lon="5.29267">
        <ele>218</ele>
        <time>2020-05-16T13:02:18.000Z</time>
      </trkpt>
      <trkpt lat="45.6315" lon="5.29274">
        <ele>218</ele>
        <time>2020-05-16T13:02:19.000Z</time>
      </trkpt>
      <trkpt lat="45.63156" lon="5.29282">
        <ele>218</ele>
        <time>2020-05-16T13:02:20.000Z</time>
      </trkpt>
      <trkpt lat="45.63162" lon="5.29289">
        <ele>218</ele>
        <time>2020-05-16T13:02:21.000Z</time>
      </trkpt>
      <trkpt lat="45.63167" lon="5.29296">
        <ele>218</ele>
        <time>2020-05-16T13:02:22.000Z</time>
      </trkpt>
      <trkpt lat="45.63173" lon="5.29304">
        <ele>218</ele>
        <time>2020-05-16T13:02:23.000Z</time>
      </trkpt>
      <trkpt lat="45.63179" lon="5.29311">
        <ele>218</ele>
        <time>2020-05-16T13:02:24.000Z</time>
      </trkpt>
      <trkpt lat="45.63185" lon="5.29318">
        <ele>218</ele>
        <time>2020-05-16T13:02:25.000Z</time>
      </trkpt>
      <trkpt lat="45.6319" lon="5.29325">
        <ele>217</ele>
        <time>2020-05-16T13:02:26.000Z</time>
      </trkpt>
      <trkpt lat="45.63196" lon="5.29332">
        <ele>217</ele>
        <time>2020-05-16T13:02:27.000Z</time>
      </trkpt>
      <trkpt lat="45.63201" lon="5.29339">
        <ele>217</ele>
        <time>2020-05-16T13:02:28.000Z</time>
      </trkpt>
      <trkpt lat="45.63206" lon="5.29346">
        <ele>217</ele>
        <time>2020-05-16T13:02:29.000Z</time>
      </trkpt>
      <trkpt lat="45.63212" lon="5.29353">
        <ele>217</ele>
        <time>2020-05-16T13:02:30.000Z</time>
      </trkpt>
      <trkpt lat="45.63217" lon="5.2936">
        <ele>217</ele>
        <time>2020-05-16T13:02:31.000Z</time>
      </trkpt>
      <trkpt lat="45.63223" lon="5.29368">
        <ele>217</ele>
        <time>2020-05-16T13:02:32.000Z</time>
      </trkpt>
      <trkpt lat="45.63229" lon="5.29375">
        <ele>217</ele>
        <time>2020-05-16T13:02:33.000Z</time>
      </trkpt>
      <trkpt lat="45.63234" lon="5.29382">
        <ele>217</ele>
        <time>2020-05-16T13:02:34.000Z</time>
      </trkpt>
      <trkpt lat="45.6324" lon="5.29389">
        <ele>217</ele>
        <time>2020-05-16T13:02:35.000Z</time>
      </trkpt>
      <trkpt lat="45.63246" lon="5.29396">
        <ele>217</ele>
        <time>2020-05-16T13:02:36.000Z</time>
      </trkpt>
      <trkpt lat="45.63251" lon="5.29404">
        <ele>218</ele>
        <time>2020-05-16T13:02:37.000Z</time>
      </trkpt>
      <trkpt lat="45.63257" lon="5.29411">
        <ele>218</ele>
        <time>2020-05-16T13:02:38.000Z</time>
      </trkpt>
      <trkpt lat="45.63262" lon="5.29418">
        <ele>218</ele>
        <time>2020-05-16T13:02:39.000Z</time>
      </trkpt>
      <trkpt lat="45.63268" lon="5.29425">
        <ele>218</ele>
        <time>2020-05-16T13:02:40.000Z</time>
      </trkpt>
      <trkpt lat="45.63273" lon="5.29431">
        <ele>218</ele>
        <time>2020-05-16T13:02:41.000Z</time>
      </trkpt>
      <trkpt lat="45.63278" lon="5.29438">
        <ele>218</ele>
        <time>2020-05-16T13:02:42.000Z</time>
      </trkpt>
      <trkpt lat="45.63283" lon="5.29445">
        <ele>218</ele>
        <time>2020-05-16T13:02:43.000Z</time>
      </trkpt>
      <trkpt lat="45.63289" lon="5.29452">
        <ele>218</ele>
        <time>2020-05-16T13:02:44.000Z</time>
      </trkpt>
      <trkpt lat="45.63294" lon="5.29459">
        <ele>218</ele>
        <time>2020-05-16T13:02:45.000Z</time>
      </trkpt>
      <trkpt lat="45.633" lon="5.29466">
        <ele>218</ele>
        <time>2020-05-16T13:02:46.000Z</time>
      </trkpt>
      <trkpt lat="45.63305" lon="5.29473">
        <ele>218</ele>
        <time>2020-05-16T13:02:47.000Z</time>
      </trkpt>
      <trkpt lat="45.63311" lon="5.2948">
        <ele>219</ele>
        <time>2020-05-16T13:02:48.000Z</time>
      </trkpt>
      <trkpt lat="45.63317" lon="5.29487">
        <ele>219</ele>
        <time>2020-05-16T13:02:49.000Z</time>
      </trkpt>
      <trkpt lat="45.63322" lon="5.29494">
        <ele>219</ele>
        <time>2020-05-16T13:02:50.000Z</time>
      </trkpt>
      <trkpt lat="45.63328" lon="5.29501">
        <ele>219</ele>
        <time>2020-05-16T13:02:51.000Z</time>
      </trkpt>
      <trkpt lat="45.63333" lon="5.29508">
        <ele>218</ele>
        <time>2020-05-16T13:02:52.000Z</time>
      </trkpt>
      <trkpt lat="45.63339" lon="5.29514">
        <ele>219</ele>
        <time>2020-05-16T13:02:53.000Z</time>
      </trkpt>
      <trkpt lat="45.63346" lon="5.2952">
        <ele>219</ele>
        <time>2020-05-16T13:02:54.000Z</time>
      </trkpt>
      <trkpt lat="45.63352" lon="5.29526">
        <ele>219</ele>
        <time>2020-05-16T13:02:55.000Z</time>
      </trkpt>
      <trkpt lat="45.63359" lon="5.29532">
        <ele>219</ele>
        <time>2020-05-16T13:02:56.000Z</time>
      </trkpt>
      <trkpt lat="45.63366" lon="5.29538">
        <ele>219</ele>
        <time>2020-05-16T13:02:57.000Z</time>
      </trkpt>
      <trkpt lat="45.63373" lon="5.29544">
        <ele>219</ele>
        <time>2020-05-16T13:02:58.000Z</time>
      </trkpt>
      <trkpt lat="45.6338" lon="5.29549">
        <ele>219</ele>
        <time>2020-05-16T13:02:59.000Z</time>
      </trkpt>
      <trkpt lat="45.63387" lon="5.29554">
        <ele>219</ele>
        <time>2020-05-16T13:03:00.000Z</time>
      </trkpt>
      <trkpt lat="45.63394" lon="5.29558">
        <ele>219</ele>
        <time>2020-05-16T13:03:01.000Z</time>
      </trkpt>
      <trkpt lat="45.63401" lon="5.29562">
        <ele>219</ele>
        <time>2020-05-16T13:03:02.000Z</time>
      </trkpt>
      <trkpt lat="45.63408" lon="5.29565">
        <ele>219</ele>
        <time>2020-05-16T13:03:03.000Z</time>
      </trkpt>
      <trkpt lat="45.63415" lon="5.29568">
        <ele>219</ele>
        <time>2020-05-16T13:03:04.000Z</time>
      </trkpt>
      <trkpt lat="45.63422" lon="5.29571">
        <ele>219</ele>
        <time>2020-05-16T13:03:05.000Z</time>
      </trkpt>
      <trkpt lat="45.6343" lon="5.29574">
        <ele>219</ele>
        <time>2020-05-16T13:03:06.000Z</time>
      </trkpt>
      <trkpt lat="45.63437" lon="5.29576">
        <ele>219</ele>
        <time>2020-05-16T13:03:07.000Z</time>
      </trkpt>
      <trkpt lat="45.63444" lon="5.29577">
        <ele>219</ele>
        <time>2020-05-16T13:03:08.000Z</time>
      </trkpt>
      <trkpt lat="45.63452" lon="5.29579">
        <ele>219</ele>
        <time>2020-05-16T13:03:09.000Z</time>
      </trkpt>
      <trkpt lat="45.63459" lon="5.2958">
        <ele>219</ele>
        <time>2020-05-16T13:03:10.000Z</time>
      </trkpt>
      <trkpt lat="45.63466" lon="5.29582">
        <ele>219</ele>
        <time>2020-05-16T13:03:11.000Z</time>
      </trkpt>
      <trkpt lat="45.63474" lon="5.29583">
        <ele>219</ele>
        <time>2020-05-16T13:03:12.000Z</time>
      </trkpt>
      <trkpt lat="45.63481" lon="5.29584">
        <ele>219</ele>
        <time>2020-05-16T13:03:13.000Z</time>
      </trkpt>
      <trkpt lat="45.63488" lon="5.29586">
        <ele>219</ele>
        <time>2020-05-16T13:03:14.000Z</time>
      </trkpt>
      <trkpt lat="45.63495" lon="5.29587">
        <ele>219</ele>
        <time>2020-05-16T13:03:15.000Z</time>
      </trkpt>
      <trkpt lat="45.63503" lon="5.29588">
        <ele>219</ele>
        <time>2020-05-16T13:03:16.000Z</time>
      </trkpt>
      <trkpt lat="45.6351" lon="5.29589">
        <ele>219</ele>
        <time>2020-05-16T13:03:17.000Z</time>
      </trkpt>
      <trkpt lat="45.63517" lon="5.2959">
        <ele>219</ele>
        <time>2020-05-16T13:03:18.000Z</time>
      </trkpt>
      <trkpt lat="45.63524" lon="5.29591">
        <ele>219</ele>
        <time>2020-05-16T13:03:19.000Z</time>
      </trkpt>
      <trkpt lat="45.63531" lon="5.29592">
        <ele>220</ele>
        <time>2020-05-16T13:03:20.000Z</time>
      </trkpt>
      <trkpt lat="45.63539" lon="5.29594">
        <ele>220</ele>
        <time>2020-05-16T13:03:21.000Z</time>
      </trkpt>
      <trkpt lat="45.63546" lon="5.29595">
        <ele>220</ele>
        <time>2020-05-16T13:03:22.000Z</time>
      </trkpt>
      <trkpt lat="45.63553" lon="5.29596">
        <ele>220</ele>
        <time>2020-05-16T13:03:23.000Z</time>
      </trkpt>
      <trkpt lat="45.6356" lon="5.29597">
        <ele>220</ele>
        <time>2020-05-16T13:03:24.000Z</time>
      </trkpt>
      <trkpt lat="45.63567" lon="5.29598">
        <ele>220</ele>
        <time>2020-05-16T13:03:25.000Z</time>
      </trkpt>
      <trkpt lat="45.63574" lon="5.29599">
        <ele>220</ele>
        <time>2020-05-16T13:03:26.000Z</time>
      </trkpt>
      <trkpt lat="45.63581" lon="5.296">
        <ele>220</ele>
        <time>2020-05-16T13:03:27.000Z</time>
      </trkpt>
      <trkpt lat="45.63588" lon="5.29601">
        <ele>220</ele>
        <time>2020-05-16T13:03:28.000Z</time>
      </trkpt>
      <trkpt lat="45.63595" lon="5.29602">
        <ele>220</ele>
        <time>2020-05-16T13:03:29.000Z</time>
      </trkpt>
      <trkpt lat="45.63602" lon="5.29603">
        <ele>220</ele>
        <time>2020-05-16T13:03:30.000Z</time>
      </trkpt>
      <trkpt lat="45.63609" lon="5.29604">
        <ele>220</ele>
        <time>2020-05-16T13:03:31.000Z</time>
      </trkpt>
      <trkpt lat="45.63616" lon="5.29605">
        <ele>220</ele>
        <time>2020-05-16T13:03:32.000Z</time>
      </trkpt>
      <trkpt lat="45.63623" lon="5.29606">
        <ele>220</ele>
        <time>2020-05-16T13:03:33.000Z</time>
      </trkpt>
      <trkpt lat="45.63631" lon="5.29607">
        <ele>221</ele>
        <time>2020-05-16T13:03:34.000Z</time>
      </trkpt>
      <trkpt lat="45.63638" lon="5.29608">
        <ele>221</ele>
        <time>2020-05-16T13:03:35.000Z</time>
      </trkpt>
      <trkpt lat="45.63645" lon="5.29609">
        <ele>221</ele>
        <time>2020-05-16T13:03:36.000Z</time>
      </trkpt>
      <trkpt lat="45.63652" lon="5.2961">
        <ele>221</ele>
        <time>2020-05-16T13:03:37.000Z</time>
      </trkpt>
      <trkpt lat="45.6366" lon="5.29611">
        <ele>221</ele>
        <time>2020-05-16T13:03:38.000Z</time>
      </trkpt>
      <trkpt lat="45.63667" lon="5.29612">
        <ele>221</ele>
        <time>2020-05-16T13:03:39.000Z</time>
      </trkpt>
      <trkpt lat="45.63674" lon="5.29613">
        <ele>221</ele>
        <time>2020-05-16T13:03:40.000Z</time>
      </trkpt>
      <trkpt lat="45.63681" lon="5.29615">
        <ele>221</ele>
        <time>2020-05-16T13:03:41.000Z</time>
      </trkpt>
      <trkpt lat="45.63689" lon="5.29616">
        <ele>221</ele>
        <time>2020-05-16T13:03:42.000Z</time>
      </trkpt>
      <trkpt lat="45.63696" lon="5.29617">
        <ele>221</ele>
        <time>2020-05-16T13:03:43.000Z</time>
      </trkpt>
      <trkpt lat="45.63703" lon="5.29618">
        <ele>221</ele>
        <time>2020-05-16T13:03:44.000Z</time>
      </trkpt>
      <trkpt lat="45.6371" lon="5.29619">
        <ele>221</ele>
        <time>2020-05-16T13:03:45.000Z</time>
      </trkpt>
      <trkpt lat="45.63717" lon="5.2962">
        <ele>221</ele>
        <time>2020-05-16T13:03:46.000Z</time>
      </trkpt>
      <trkpt lat="45.63724" lon="5.29621">
        <ele>222</ele>
        <time>2020-05-16T13:03:47.000Z</time>
      </trkpt>
      <trkpt lat="45.63731" lon="5.29622">
        <ele>222</ele>
        <time>2020-05-16T13:03:48.000Z</time>
      </trkpt>
      <trkpt lat="45.63739" lon="5.29623">
        <ele>221</ele>
        <time>2020-05-16T13:03:49.000Z</time>
      </trkpt>
      <trkpt lat="45.63746" lon="5.29625">
        <ele>221</ele>
        <time>2020-05-16T13:03:50.000Z</time>
      </trkpt>
      <trkpt lat="45.63754" lon="5.29626">
        <ele>221</ele>
        <time>2020-05-16T13:03:51.000Z</time>
      </trkpt>
      <trkpt lat="45.63761" lon="5.29627">
        <ele>221</ele>
        <time>2020-05-16T13:03:52.000Z</time>
      </trkpt>
      <trkpt lat="45.63769" lon="5.29628">
        <ele>221</ele>
        <time>2020-05-16T13:03:53.000Z</time>
      </trkpt>
      <trkpt lat="45.63777" lon="5.29629">
        <ele>221</ele>
        <time>2020-05-16T13:03:54.000Z</time>
      </trkpt>
      <trkpt lat="45.63784" lon="5.2963">
        <ele>221</ele>
        <time>2020-05-16T13:03:55.000Z</time>
      </trkpt>
      <trkpt lat="45.63791" lon="5.29631">
        <ele>221</ele>
        <time>2020-05-16T13:03:56.000Z</time>
      </trkpt>
      <trkpt lat="45.63798" lon="5.29633">
        <ele>221</ele>
        <time>2020-05-16T13:03:57.000Z</time>
      </trkpt>
      <trkpt lat="45.63806" lon="5.29634">
        <ele>220</ele>
        <time>2020-05-16T13:03:58.000Z</time>
      </trkpt>
      <trkpt lat="45.63813" lon="5.29635">
        <ele>220</ele>
        <time>2020-05-16T13:03:59.000Z</time>
      </trkpt>
      <trkpt lat="45.63821" lon="5.29636">
        <ele>220</ele>
        <time>2020-05-16T13:04:00.000Z</time>
      </trkpt>
      <trkpt lat="45.63828" lon="5.29637">
        <ele>220</ele>
        <time>2020-05-16T13:04:01.000Z</time>
      </trkpt>
      <trkpt lat="45.63836" lon="5.29638">
        <ele>220</ele>
        <time>2020-05-16T13:04:02.000Z</time>
      </trkpt>
      <trkpt lat="45.63844" lon="5.2964">
        <ele>220</ele>
        <time>2020-05-16T13:04:03.000Z</time>
      </trkpt>
      <trkpt lat="45.63851" lon="5.29641">
        <ele>220</ele>
        <time>2020-05-16T13:04:04.000Z</time>
      </trkpt>
      <trkpt lat="45.63859" lon="5.29642">
        <ele>220</ele>
        <time>2020-05-16T13:04:05.000Z</time>
      </trkpt>
      <trkpt lat="45.63867" lon="5.29643">
        <ele>220</ele>
        <time>2020-05-16T13:04:06.000Z</time>
      </trkpt>
      <trkpt lat="45.63874" lon="5.29644">
        <ele>220</ele>
        <time>2020-05-16T13:04:07.000Z</time>
      </trkpt>
      <trkpt lat="45.63882" lon="5.29645">
        <ele>219</ele>
        <time>2020-05-16T13:04:08.000Z</time>
      </trkpt>
      <trkpt lat="45.6389" lon="5.29647">
        <ele>219</ele>
        <time>2020-05-16T13:04:09.000Z</time>
      </trkpt>
      <trkpt lat="45.63898" lon="5.29648">
        <ele>219</ele>
        <time>2020-05-16T13:04:10.000Z</time>
      </trkpt>
      <trkpt lat="45.63906" lon="5.29649">
        <ele>219</ele>
        <time>2020-05-16T13:04:11.000Z</time>
      </trkpt>
      <trkpt lat="45.63914" lon="5.29651">
        <ele>219</ele>
        <time>2020-05-16T13:04:12.000Z</time>
      </trkpt>
      <trkpt lat="45.63923" lon="5.29652">
        <ele>219</ele>
        <time>2020-05-16T13:04:13.000Z</time>
      </trkpt>
      <trkpt lat="45.63931" lon="5.29653">
        <ele>218</ele>
        <time>2020-05-16T13:04:14.000Z</time>
      </trkpt>
      <trkpt lat="45.63939" lon="5.29654">
        <ele>218</ele>
        <time>2020-05-16T13:04:15.000Z</time>
      </trkpt>
      <trkpt lat="45.63947" lon="5.29656">
        <ele>218</ele>
        <time>2020-05-16T13:04:16.000Z</time>
      </trkpt>
      <trkpt lat="45.63955" lon="5.29657">
        <ele>218</ele>
        <time>2020-05-16T13:04:17.000Z</time>
      </trkpt>
      <trkpt lat="45.63963" lon="5.29658">
        <ele>218</ele>
        <time>2020-05-16T13:04:18.000Z</time>
      </trkpt>
      <trkpt lat="45.6397" lon="5.29659">
        <ele>218</ele>
        <time>2020-05-16T13:04:19.000Z</time>
      </trkpt>
      <trkpt lat="45.63978" lon="5.2966">
        <ele>218</ele>
        <time>2020-05-16T13:04:20.000Z</time>
      </trkpt>
      <trkpt lat="45.63986" lon="5.29661">
        <ele>218</ele>
        <time>2020-05-16T13:04:21.000Z</time>
      </trkpt>
      <trkpt lat="45.63994" lon="5.29662">
        <ele>218</ele>
        <time>2020-05-16T13:04:22.000Z</time>
      </trkpt>
      <trkpt lat="45.64002" lon="5.29663">
        <ele>218</ele>
        <time>2020-05-16T13:04:23.000Z</time>
      </trkpt>
      <trkpt lat="45.64011" lon="5.29664">
        <ele>218</ele>
        <time>2020-05-16T13:04:24.000Z</time>
      </trkpt>
      <trkpt lat="45.64019" lon="5.29666">
        <ele>218</ele>
        <time>2020-05-16T13:04:25.000Z</time>
      </trkpt>
      <trkpt lat="45.64028" lon="5.29667">
        <ele>218</ele>
        <time>2020-05-16T13:04:26.000Z</time>
      </trkpt>
      <trkpt lat="45.64036" lon="5.29668">
        <ele>218</ele>
        <time>2020-05-16T13:04:27.000Z</time>
      </trkpt>
      <trkpt lat="45.64045" lon="5.2967">
        <ele>218</ele>
        <time>2020-05-16T13:04:28.000Z</time>
      </trkpt>
      <trkpt lat="45.64054" lon="5.29671">
        <ele>218</ele>
        <time>2020-05-16T13:04:29.000Z</time>
      </trkpt>
      <trkpt lat="45.64062" lon="5.29673">
        <ele>218</ele>
        <time>2020-05-16T13:04:30.000Z</time>
      </trkpt>
      <trkpt lat="45.64071" lon="5.29674">
        <ele>218</ele>
        <time>2020-05-16T13:04:31.000Z</time>
      </trkpt>
      <trkpt lat="45.64079" lon="5.29675">
        <ele>218</ele>
        <time>2020-05-16T13:04:32.000Z</time>
      </trkpt>
      <trkpt lat="45.64087" lon="5.29676">
        <ele>218</ele>
        <time>2020-05-16T13:04:33.000Z</time>
      </trkpt>
      <trkpt lat="45.64096" lon="5.29676">
        <ele>218</ele>
        <time>2020-05-16T13:04:34.000Z</time>
      </trkpt>
      <trkpt lat="45.64104" lon="5.29678">
        <ele>218</ele>
        <time>2020-05-16T13:04:35.000Z</time>
      </trkpt>
      <trkpt lat="45.64113" lon="5.29679">
        <ele>218</ele>
        <time>2020-05-16T13:04:36.000Z</time>
      </trkpt>
      <trkpt lat="45.64121" lon="5.2968">
        <ele>218</ele>
        <time>2020-05-16T13:04:37.000Z</time>
      </trkpt>
      <trkpt lat="45.64129" lon="5.29682">
        <ele>218</ele>
        <time>2020-05-16T13:04:38.000Z</time>
      </trkpt>
      <trkpt lat="45.64137" lon="5.29683">
        <ele>218</ele>
        <time>2020-05-16T13:04:39.000Z</time>
      </trkpt>
      <trkpt lat="45.64145" lon="5.29684">
        <ele>218</ele>
        <time>2020-05-16T13:04:40.000Z</time>
      </trkpt>
      <trkpt lat="45.64153" lon="5.29686">
        <ele>218</ele>
        <time>2020-05-16T13:04:41.000Z</time>
      </trkpt>
      <trkpt lat="45.64161" lon="5.29687">
        <ele>218</ele>
        <time>2020-05-16T13:04:42.000Z</time>
      </trkpt>
      <trkpt lat="45.64169" lon="5.29689">
        <ele>218</ele>
        <time>2020-05-16T13:04:43.000Z</time>
      </trkpt>
      <trkpt lat="45.64177" lon="5.29691">
        <ele>218</ele>
        <time>2020-05-16T13:04:44.000Z</time>
      </trkpt>
      <trkpt lat="45.64184" lon="5.29693">
        <ele>218</ele>
        <time>2020-05-16T13:04:45.000Z</time>
      </trkpt>
      <trkpt lat="45.64192" lon="5.29695">
        <ele>218</ele>
        <time>2020-05-16T13:04:46.000Z</time>
      </trkpt>
      <trkpt lat="45.64199" lon="5.29698">
        <ele>218</ele>
        <time>2020-05-16T13:04:47.000Z</time>
      </trkpt>
      <trkpt lat="45.64206" lon="5.29702">
        <ele>218</ele>
        <time>2020-05-16T13:04:48.000Z</time>
      </trkpt>
      <trkpt lat="45.64214" lon="5.29705">
        <ele>218</ele>
        <time>2020-05-16T13:04:49.000Z</time>
      </trkpt>
      <trkpt lat="45.64221" lon="5.29709">
        <ele>218</ele>
        <time>2020-05-16T13:04:50.000Z</time>
      </trkpt>
      <trkpt lat="45.64229" lon="5.29713">
        <ele>219</ele>
        <time>2020-05-16T13:04:51.000Z</time>
      </trkpt>
      <trkpt lat="45.64236" lon="5.29718">
        <ele>219</ele>
        <time>2020-05-16T13:04:52.000Z</time>
      </trkpt>
      <trkpt lat="45.64244" lon="5.29723">
        <ele>219</ele>
        <time>2020-05-16T13:04:53.000Z</time>
      </trkpt>
      <trkpt lat="45.64251" lon="5.29728">
        <ele>219</ele>
        <time>2020-05-16T13:04:54.000Z</time>
      </trkpt>
      <trkpt lat="45.64258" lon="5.29734">
        <ele>219</ele>
        <time>2020-05-16T13:04:55.000Z</time>
      </trkpt>
      <trkpt lat="45.64265" lon="5.2974">
        <ele>219</ele>
        <time>2020-05-16T13:04:56.000Z</time>
      </trkpt>
      <trkpt lat="45.64272" lon="5.29746">
        <ele>219</ele>
        <time>2020-05-16T13:04:57.000Z</time>
      </trkpt>
      <trkpt lat="45.64278" lon="5.29753">
        <ele>220</ele>
        <time>2020-05-16T13:04:58.000Z</time>
      </trkpt>
      <trkpt lat="45.64284" lon="5.2976">
        <ele>220</ele>
        <time>2020-05-16T13:04:59.000Z</time>
      </trkpt>
      <trkpt lat="45.6429" lon="5.29768">
        <ele>220</ele>
        <time>2020-05-16T13:05:00.000Z</time>
      </trkpt>
      <trkpt lat="45.64295" lon="5.29775">
        <ele>220</ele>
        <time>2020-05-16T13:05:01.000Z</time>
      </trkpt>
      <trkpt lat="45.64301" lon="5.29782">
        <ele>220</ele>
        <time>2020-05-16T13:05:02.000Z</time>
      </trkpt>
      <trkpt lat="45.64306" lon="5.2979">
        <ele>220</ele>
        <time>2020-05-16T13:05:03.000Z</time>
      </trkpt>
      <trkpt lat="45.64312" lon="5.29797">
        <ele>220</ele>
        <time>2020-05-16T13:05:04.000Z</time>
      </trkpt>
      <trkpt lat="45.64317" lon="5.29805">
        <ele>220</ele>
        <time>2020-05-16T13:05:05.000Z</time>
      </trkpt>
      <trkpt lat="45.64323" lon="5.29812">
        <ele>220</ele>
        <time>2020-05-16T13:05:06.000Z</time>
      </trkpt>
      <trkpt lat="45.64328" lon="5.2982">
        <ele>220</ele>
        <time>2020-05-16T13:05:07.000Z</time>
      </trkpt>
      <trkpt lat="45.64334" lon="5.29828">
        <ele>220</ele>
        <time>2020-05-16T13:05:08.000Z</time>
      </trkpt>
      <trkpt lat="45.64339" lon="5.29836">
        <ele>220</ele>
        <time>2020-05-16T13:05:09.000Z</time>
      </trkpt>
      <trkpt lat="45.64344" lon="5.29844">
        <ele>220</ele>
        <time>2020-05-16T13:05:10.000Z</time>
      </trkpt>
      <trkpt lat="45.6435" lon="5.29852">
        <ele>220</ele>
        <time>2020-05-16T13:05:11.000Z</time>
      </trkpt>
      <trkpt lat="45.64355" lon="5.2986">
        <ele>220</ele>
        <time>2020-05-16T13:05:12.000Z</time>
      </trkpt>
      <trkpt lat="45.64361" lon="5.29868">
        <ele>220</ele>
        <time>2020-05-16T13:05:13.000Z</time>
      </trkpt>
      <trkpt lat="45.64367" lon="5.29876">
        <ele>220</ele>
        <time>2020-05-16T13:05:14.000Z</time>
      </trkpt>
      <trkpt lat="45.64373" lon="5.29884">
        <ele>220</ele>
        <time>2020-05-16T13:05:15.000Z</time>
      </trkpt>
      <trkpt lat="45.64379" lon="5.29893">
        <ele>220</ele>
        <time>2020-05-16T13:05:16.000Z</time>
      </trkpt>
      <trkpt lat="45.64385" lon="5.29901">
        <ele>220</ele>
        <time>2020-05-16T13:05:17.000Z</time>
      </trkpt>
      <trkpt lat="45.64391" lon="5.29909">
        <ele>220</ele>
        <time>2020-05-16T13:05:18.000Z</time>
      </trkpt>
      <trkpt lat="45.64397" lon="5.29917">
        <ele>220</ele>
        <time>2020-05-16T13:05:19.000Z</time>
      </trkpt>
      <trkpt lat="45.64403" lon="5.29925">
        <ele>220</ele>
        <time>2020-05-16T13:05:20.000Z</time>
      </trkpt>
      <trkpt lat="45.64409" lon="5.29934">
        <ele>220</ele>
        <time>2020-05-16T13:05:21.000Z</time>
      </trkpt>
      <trkpt lat="45.64415" lon="5.29942">
        <ele>220</ele>
        <time>2020-05-16T13:05:22.000Z</time>
      </trkpt>
      <trkpt lat="45.64421" lon="5.2995">
        <ele>220</ele>
        <time>2020-05-16T13:05:23.000Z</time>
      </trkpt>
      <trkpt lat="45.64427" lon="5.29959">
        <ele>220</ele>
        <time>2020-05-16T13:05:24.000Z</time>
      </trkpt>
      <trkpt lat="45.64433" lon="5.29967">
        <ele>220</ele>
        <time>2020-05-16T13:05:25.000Z</time>
      </trkpt>
      <trkpt lat="45.64439" lon="5.29975">
        <ele>220</ele>
        <time>2020-05-16T13:05:26.000Z</time>
      </trkpt>
      <trkpt lat="45.64444" lon="5.29983">
        <ele>220</ele>
        <time>2020-05-16T13:05:27.000Z</time>
      </trkpt>
      <trkpt lat="45.6445" lon="5.29991">
        <ele>219</ele>
        <time>2020-05-16T13:05:28.000Z</time>
      </trkpt>
      <trkpt lat="45.64455" lon="5.29999">
        <ele>219</ele>
        <time>2020-05-16T13:05:29.000Z</time>
      </trkpt>
      <trkpt lat="45.6446" lon="5.30006">
        <ele>219</ele>
        <time>2020-05-16T13:05:30.000Z</time>
      </trkpt>
      <trkpt lat="45.64466" lon="5.30014">
        <ele>219</ele>
        <time>2020-05-16T13:05:31.000Z</time>
      </trkpt>
      <trkpt lat="45.64472" lon="5.30022">
        <ele>219</ele>
        <time>2020-05-16T13:05:32.000Z</time>
      </trkpt>
      <trkpt lat="45.64477" lon="5.3003">
        <ele>219</ele>
        <time>2020-05-16T13:05:33.000Z</time>
      </trkpt>
      <trkpt lat="45.64483" lon="5.30039">
        <ele>219</ele>
        <time>2020-05-16T13:05:34.000Z</time>
      </trkpt>
      <trkpt lat="45.64488" lon="5.30047">
        <ele>219</ele>
        <time>2020-05-16T13:05:35.000Z</time>
      </trkpt>
      <trkpt lat="45.64494" lon="5.30056">
        <ele>218</ele>
        <time>2020-05-16T13:05:36.000Z</time>
      </trkpt>
      <trkpt lat="45.64499" lon="5.30064">
        <ele>219</ele>
        <time>2020-05-16T13:05:37.000Z</time>
      </trkpt>
      <trkpt lat="45.64505" lon="5.30073">
        <ele>218</ele>
        <time>2020-05-16T13:05:38.000Z</time>
      </trkpt>
      <trkpt lat="45.64511" lon="5.30081">
        <ele>218</ele>
        <time>2020-05-16T13:05:39.000Z</time>
      </trkpt>
      <trkpt lat="45.64516" lon="5.30089">
        <ele>218</ele>
        <time>2020-05-16T13:05:40.000Z</time>
      </trkpt>
      <trkpt lat="45.64522" lon="5.30097">
        <ele>218</ele>
        <time>2020-05-16T13:05:41.000Z</time>
      </trkpt>
      <trkpt lat="45.64527" lon="5.30106">
        <ele>219</ele>
        <time>2020-05-16T13:05:42.000Z</time>
      </trkpt>
      <trkpt lat="45.64532" lon="5.30115">
        <ele>219</ele>
        <time>2020-05-16T13:05:43.000Z</time>
      </trkpt>
      <trkpt lat="45.64536" lon="5.30124">
        <ele>219</ele>
        <time>2020-05-16T13:05:44.000Z</time>
      </trkpt>
      <trkpt lat="45.64541" lon="5.30133">
        <ele>218</ele>
        <time>2020-05-16T13:05:45.000Z</time>
      </trkpt>
      <trkpt lat="45.64546" lon="5.30141">
        <ele>218</ele>
        <time>2020-05-16T13:05:46.000Z</time>
      </trkpt>
      <trkpt lat="45.64551" lon="5.30148">
        <ele>219</ele>
        <time>2020-05-16T13:05:47.000Z</time>
      </trkpt>
      <trkpt lat="45.64556" lon="5.30154">
        <ele>219</ele>
        <time>2020-05-16T13:05:48.000Z</time>
      </trkpt>
      <trkpt lat="45.64561" lon="5.30161">
        <ele>219</ele>
        <time>2020-05-16T13:05:49.000Z</time>
      </trkpt>
      <trkpt lat="45.64566" lon="5.30168">
        <ele>219</ele>
        <time>2020-05-16T13:05:50.000Z</time>
      </trkpt>
      <trkpt lat="45.64569" lon="5.30177">
        <ele>220</ele>
        <time>2020-05-16T13:05:51.000Z</time>
      </trkpt>
      <trkpt lat="45.6457" lon="5.30188">
        <ele>218</ele>
        <time>2020-05-16T13:05:52.000Z</time>
      </trkpt>
      <trkpt lat="45.6457" lon="5.30198">
        <ele>218</ele>
        <time>2020-05-16T13:05:53.000Z</time>
      </trkpt>
      <trkpt lat="45.6457" lon="5.30209">
        <ele>218</ele>
        <time>2020-05-16T13:05:54.000Z</time>
      </trkpt>
      <trkpt lat="45.64572" lon="5.30218">
        <ele>218</ele>
        <time>2020-05-16T13:05:55.000Z</time>
      </trkpt>
      <trkpt lat="45.64576" lon="5.30226">
        <ele>218</ele>
        <time>2020-05-16T13:05:56.000Z</time>
      </trkpt>
      <trkpt lat="45.64581" lon="5.30231">
        <ele>217</ele>
        <time>2020-05-16T13:05:57.000Z</time>
      </trkpt>
      <trkpt lat="45.64588" lon="5.30233">
        <ele>216</ele>
        <time>2020-05-16T13:05:58.000Z</time>
      </trkpt>
      <trkpt lat="45.64595" lon="5.30232">
        <ele>213</ele>
        <time>2020-05-16T13:05:59.000Z</time>
      </trkpt>
      <trkpt lat="45.64601" lon="5.30227">
        <ele>214</ele>
        <time>2020-05-16T13:06:00.000Z</time>
      </trkpt>
      <trkpt lat="45.64606" lon="5.3022">
        <ele>215</ele>
        <time>2020-05-16T13:06:01.000Z</time>
      </trkpt>
      <trkpt lat="45.6461" lon="5.30211">
        <ele>215</ele>
        <time>2020-05-16T13:06:02.000Z</time>
      </trkpt>
      <trkpt lat="45.64614" lon="5.30202">
        <ele>215</ele>
        <time>2020-05-16T13:06:03.000Z</time>
      </trkpt>
      <trkpt lat="45.64619" lon="5.30195">
        <ele>216</ele>
        <time>2020-05-16T13:06:04.000Z</time>
      </trkpt>
      <trkpt lat="45.64625" lon="5.30189">
        <ele>216</ele>
        <time>2020-05-16T13:06:05.000Z</time>
      </trkpt>
      <trkpt lat="45.64632" lon="5.30184">
        <ele>216</ele>
        <time>2020-05-16T13:06:06.000Z</time>
      </trkpt>
      <trkpt lat="45.64639" lon="5.30178">
        <ele>216</ele>
        <time>2020-05-16T13:06:07.000Z</time>
      </trkpt>
      <trkpt lat="45.64646" lon="5.30173">
        <ele>216</ele>
        <time>2020-05-16T13:06:08.000Z</time>
      </trkpt>
      <trkpt lat="45.64653" lon="5.30167">
        <ele>216</ele>
        <time>2020-05-16T13:06:09.000Z</time>
      </trkpt>
      <trkpt lat="45.6466" lon="5.30162">
        <ele>216</ele>
        <time>2020-05-16T13:06:10.000Z</time>
      </trkpt>
      <trkpt lat="45.64667" lon="5.30157">
        <ele>216</ele>
        <time>2020-05-16T13:06:11.000Z</time>
      </trkpt>
      <trkpt lat="45.64673" lon="5.30153">
        <ele>216</ele>
        <time>2020-05-16T13:06:12.000Z</time>
      </trkpt>
      <trkpt lat="45.6468" lon="5.30149">
        <ele>215</ele>
        <time>2020-05-16T13:06:13.000Z</time>
      </trkpt>
      <trkpt lat="45.64686" lon="5.30146">
        <ele>216</ele>
        <time>2020-05-16T13:06:14.000Z</time>
      </trkpt>
      <trkpt lat="45.64692" lon="5.30142">
        <ele>216</ele>
        <time>2020-05-16T13:06:15.000Z</time>
      </trkpt>
      <trkpt lat="45.64698" lon="5.30138">
        <ele>216</ele>
        <time>2020-05-16T13:06:16.000Z</time>
      </trkpt>
      <trkpt lat="45.64704" lon="5.30133">
        <ele>216</ele>
        <time>2020-05-16T13:06:17.000Z</time>
      </trkpt>
      <trkpt lat="45.6471" lon="5.30129">
        <ele>216</ele>
        <time>2020-05-16T13:06:18.000Z</time>
      </trkpt>
      <trkpt lat="45.64716" lon="5.30125">
        <ele>216</ele>
        <time>2020-05-16T13:06:19.000Z</time>
      </trkpt>
      <trkpt lat="45.64721" lon="5.30121">
        <ele>216</ele>
        <time>2020-05-16T13:06:20.000Z</time>
      </trkpt>
      <trkpt lat="45.64727" lon="5.30117">
        <ele>216</ele>
        <time>2020-05-16T13:06:21.000Z</time>
      </trkpt>
      <trkpt lat="45.64732" lon="5.30113">
        <ele>216</ele>
        <time>2020-05-16T13:06:22.000Z</time>
      </trkpt>
      <trkpt lat="45.64738" lon="5.30109">
        <ele>216</ele>
        <time>2020-05-16T13:06:23.000Z</time>
      </trkpt>
      <trkpt lat="45.64744" lon="5.30105">
        <ele>216</ele>
        <time>2020-05-16T13:06:24.000Z</time>
      </trkpt>
      <trkpt lat="45.64749" lon="5.30101">
        <ele>216</ele>
        <time>2020-05-16T13:06:25.000Z</time>
      </trkpt>
      <trkpt lat="45.64755" lon="5.30097">
        <ele>216</ele>
        <time>2020-05-16T13:06:26.000Z</time>
      </trkpt>
      <trkpt lat="45.64761" lon="5.30093">
        <ele>216</ele>
        <time>2020-05-16T13:06:27.000Z</time>
      </trkpt>
      <trkpt lat="45.64768" lon="5.30089">
        <ele>216</ele>
        <time>2020-05-16T13:06:28.000Z</time>
      </trkpt>
      <trkpt lat="45.64774" lon="5.30084">
        <ele>216</ele>
        <time>2020-05-16T13:06:29.000Z</time>
      </trkpt>
      <trkpt lat="45.6478" lon="5.3008">
        <ele>216</ele>
        <time>2020-05-16T13:06:30.000Z</time>
      </trkpt>
      <trkpt lat="45.64786" lon="5.30075">
        <ele>216</ele>
        <time>2020-05-16T13:06:31.000Z</time>
      </trkpt>
      <trkpt lat="45.64792" lon="5.30071">
        <ele>216</ele>
        <time>2020-05-16T13:06:32.000Z</time>
      </trkpt>
      <trkpt lat="45.64798" lon="5.30066">
        <ele>216</ele>
        <time>2020-05-16T13:06:33.000Z</time>
      </trkpt>
      <trkpt lat="45.64804" lon="5.30061">
        <ele>217</ele>
        <time>2020-05-16T13:06:34.000Z</time>
      </trkpt>
      <trkpt lat="45.64809" lon="5.30057">
        <ele>216</ele>
        <time>2020-05-16T13:06:35.000Z</time>
      </trkpt>
      <trkpt lat="45.64815" lon="5.30052">
        <ele>217</ele>
        <time>2020-05-16T13:06:36.000Z</time>
      </trkpt>
      <trkpt lat="45.64821" lon="5.30047">
        <ele>217</ele>
        <time>2020-05-16T13:06:37.000Z</time>
      </trkpt>
      <trkpt lat="45.64827" lon="5.30042">
        <ele>217</ele>
        <time>2020-05-16T13:06:38.000Z</time>
      </trkpt>
      <trkpt lat="45.64833" lon="5.30036">
        <ele>217</ele>
        <time>2020-05-16T13:06:39.000Z</time>
      </trkpt>
      <trkpt lat="45.64839" lon="5.3003">
        <ele>217</ele>
        <time>2020-05-16T13:06:40.000Z</time>
      </trkpt>
      <trkpt lat="45.64845" lon="5.30024">
        <ele>217</ele>
        <time>2020-05-16T13:06:41.000Z</time>
      </trkpt>
      <trkpt lat="45.64851" lon="5.30018">
        <ele>217</ele>
        <time>2020-05-16T13:06:42.000Z</time>
      </trkpt>
      <trkpt lat="45.64857" lon="5.30013">
        <ele>217</ele>
        <time>2020-05-16T13:06:43.000Z</time>
      </trkpt>
      <trkpt lat="45.64863" lon="5.30006">
        <ele>217</ele>
        <time>2020-05-16T13:06:44.000Z</time>
      </trkpt>
      <trkpt lat="45.64869" lon="5.29999">
        <ele>218</ele>
        <time>2020-05-16T13:06:45.000Z</time>
      </trkpt>
      <trkpt lat="45.64874" lon="5.29992">
        <ele>218</ele>
        <time>2020-05-16T13:06:46.000Z</time>
      </trkpt>
      <trkpt lat="45.6488" lon="5.29984">
        <ele>218</ele>
        <time>2020-05-16T13:06:47.000Z</time>
      </trkpt>
      <trkpt lat="45.64885" lon="5.29976">
        <ele>218</ele>
        <time>2020-05-16T13:06:48.000Z</time>
      </trkpt>
      <trkpt lat="45.6489" lon="5.29968">
        <ele>218</ele>
        <time>2020-05-16T13:06:49.000Z</time>
      </trkpt>
      <trkpt lat="45.64896" lon="5.29961">
        <ele>218</ele>
        <time>2020-05-16T13:06:50.000Z</time>
      </trkpt>
      <trkpt lat="45.64901" lon="5.29954">
        <ele>218</ele>
        <time>2020-05-16T13:06:51.000Z</time>
      </trkpt>
      <trkpt lat="45.64907" lon="5.29946">
        <ele>218</ele>
        <time>2020-05-16T13:06:52.000Z</time>
      </trkpt>
      <trkpt lat="45.64913" lon="5.29939">
        <ele>218</ele>
        <time>2020-05-16T13:06:53.000Z</time>
      </trkpt>
      <trkpt lat="45.64918" lon="5.29931">
        <ele>218</ele>
        <time>2020-05-16T13:06:54.000Z</time>
      </trkpt>
      <trkpt lat="45.64924" lon="5.29923">
        <ele>218</ele>
        <time>2020-05-16T13:06:55.000Z</time>
      </trkpt>
      <trkpt lat="45.6493" lon="5.29915">
        <ele>218</ele>
        <time>2020-05-16T13:06:56.000Z</time>
      </trkpt>
      <trkpt lat="45.64935" lon="5.29907">
        <ele>218</ele>
        <time>2020-05-16T13:06:57.000Z</time>
      </trkpt>
      <trkpt lat="45.64941" lon="5.29899">
        <ele>218</ele>
        <time>2020-05-16T13:06:58.000Z</time>
      </trkpt>
      <trkpt lat="45.64947" lon="5.29891">
        <ele>218</ele>
        <time>2020-05-16T13:06:59.000Z</time>
      </trkpt>
      <trkpt lat="45.64953" lon="5.29884">
        <ele>218</ele>
        <time>2020-05-16T13:07:00.000Z</time>
      </trkpt>
      <trkpt lat="45.64959" lon="5.29876">
        <ele>218</ele>
        <time>2020-05-16T13:07:01.000Z</time>
      </trkpt>
      <trkpt lat="45.64965" lon="5.29868">
        <ele>218</ele>
        <time>2020-05-16T13:07:02.000Z</time>
      </trkpt>
      <trkpt lat="45.64971" lon="5.2986">
        <ele>218</ele>
        <time>2020-05-16T13:07:03.000Z</time>
      </trkpt>
      <trkpt lat="45.64978" lon="5.29852">
        <ele>218</ele>
        <time>2020-05-16T13:07:04.000Z</time>
      </trkpt>
      <trkpt lat="45.64984" lon="5.29844">
        <ele>217</ele>
        <time>2020-05-16T13:07:05.000Z</time>
      </trkpt>
      <trkpt lat="45.6499" lon="5.29836">
        <ele>217</ele>
        <time>2020-05-16T13:07:06.000Z</time>
      </trkpt>
      <trkpt lat="45.64996" lon="5.29828">
        <ele>217</ele>
        <time>2020-05-16T13:07:07.000Z</time>
      </trkpt>
      <trkpt lat="45.65002" lon="5.2982">
        <ele>217</ele>
        <time>2020-05-16T13:07:08.000Z</time>
      </trkpt>
      <trkpt lat="45.65008" lon="5.29812">
        <ele>217</ele>
        <time>2020-05-16T13:07:09.000Z</time>
      </trkpt>
      <trkpt lat="45.65014" lon="5.29804">
        <ele>217</ele>
        <time>2020-05-16T13:07:10.000Z</time>
      </trkpt>
      <trkpt lat="45.6502" lon="5.29796">
        <ele>217</ele>
        <time>2020-05-16T13:07:11.000Z</time>
      </trkpt>
      <trkpt lat="45.65026" lon="5.29788">
        <ele>217</ele>
        <time>2020-05-16T13:07:12.000Z</time>
      </trkpt>
      <trkpt lat="45.65033" lon="5.29781">
        <ele>217</ele>
        <time>2020-05-16T13:07:13.000Z</time>
      </trkpt>
      <trkpt lat="45.65039" lon="5.29773">
        <ele>217</ele>
        <time>2020-05-16T13:07:14.000Z</time>
      </trkpt>
      <trkpt lat="45.65045" lon="5.29765">
        <ele>217</ele>
        <time>2020-05-16T13:07:15.000Z</time>
      </trkpt>
      <trkpt lat="45.65051" lon="5.29758">
        <ele>217</ele>
        <time>2020-05-16T13:07:16.000Z</time>
      </trkpt>
      <trkpt lat="45.65057" lon="5.2975">
        <ele>217</ele>
        <time>2020-05-16T13:07:17.000Z</time>
      </trkpt>
      <trkpt lat="45.65064" lon="5.29743">
        <ele>216</ele>
        <time>2020-05-16T13:07:18.000Z</time>
      </trkpt>
      <trkpt lat="45.6507" lon="5.29735">
        <ele>216</ele>
        <time>2020-05-16T13:07:19.000Z</time>
      </trkpt>
      <trkpt lat="45.65076" lon="5.29728">
        <ele>216</ele>
        <time>2020-05-16T13:07:20.000Z</time>
      </trkpt>
      <trkpt lat="45.65082" lon="5.29721">
        <ele>216</ele>
        <time>2020-05-16T13:07:21.000Z</time>
      </trkpt>
      <trkpt lat="45.65088" lon="5.29713">
        <ele>216</ele>
        <time>2020-05-16T13:07:22.000Z</time>
      </trkpt>
      <trkpt lat="45.65093" lon="5.29704">
        <ele>216</ele>
        <time>2020-05-16T13:07:23.000Z</time>
      </trkpt>
      <trkpt lat="45.65098" lon="5.29695">
        <ele>216</ele>
        <time>2020-05-16T13:07:24.000Z</time>
      </trkpt>
      <trkpt lat="45.65104" lon="5.29687">
        <ele>216</ele>
        <time>2020-05-16T13:07:25.000Z</time>
      </trkpt>
      <trkpt lat="45.65109" lon="5.2968">
        <ele>216</ele>
        <time>2020-05-16T13:07:26.000Z</time>
      </trkpt>
      <trkpt lat="45.65115" lon="5.29672">
        <ele>216</ele>
        <time>2020-05-16T13:07:27.000Z</time>
      </trkpt>
      <trkpt lat="45.65121" lon="5.29664">
        <ele>216</ele>
        <time>2020-05-16T13:07:28.000Z</time>
      </trkpt>
      <trkpt lat="45.65127" lon="5.29656">
        <ele>216</ele>
        <time>2020-05-16T13:07:29.000Z</time>
      </trkpt>
      <trkpt lat="45.65133" lon="5.29648">
        <ele>216</ele>
        <time>2020-05-16T13:07:30.000Z</time>
      </trkpt>
      <trkpt lat="45.65138" lon="5.29639">
        <ele>216</ele>
        <time>2020-05-16T13:07:31.000Z</time>
      </trkpt>
      <trkpt lat="45.65144" lon="5.29631">
        <ele>216</ele>
        <time>2020-05-16T13:07:32.000Z</time>
      </trkpt>
      <trkpt lat="45.65151" lon="5.29623">
        <ele>216</ele>
        <time>2020-05-16T13:07:33.000Z</time>
      </trkpt>
      <trkpt lat="45.65157" lon="5.29615">
        <ele>216</ele>
        <time>2020-05-16T13:07:34.000Z</time>
      </trkpt>
      <trkpt lat="45.65163" lon="5.29607">
        <ele>216</ele>
        <time>2020-05-16T13:07:35.000Z</time>
      </trkpt>
      <trkpt lat="45.6517" lon="5.296">
        <ele>216</ele>
        <time>2020-05-16T13:07:36.000Z</time>
      </trkpt>
      <trkpt lat="45.65176" lon="5.29592">
        <ele>216</ele>
        <time>2020-05-16T13:07:37.000Z</time>
      </trkpt>
      <trkpt lat="45.65183" lon="5.29585">
        <ele>216</ele>
        <time>2020-05-16T13:07:38.000Z</time>
      </trkpt>
      <trkpt lat="45.65189" lon="5.29577">
        <ele>216</ele>
        <time>2020-05-16T13:07:39.000Z</time>
      </trkpt>
      <trkpt lat="45.65195" lon="5.29569">
        <ele>215</ele>
        <time>2020-05-16T13:07:40.000Z</time>
      </trkpt>
      <trkpt lat="45.65201" lon="5.29561">
        <ele>216</ele>
        <time>2020-05-16T13:07:41.000Z</time>
      </trkpt>
      <trkpt lat="45.65207" lon="5.29553">
        <ele>215</ele>
        <time>2020-05-16T13:07:42.000Z</time>
      </trkpt>
      <trkpt lat="45.65213" lon="5.29545">
        <ele>215</ele>
        <time>2020-05-16T13:07:43.000Z</time>
      </trkpt>
      <trkpt lat="45.65219" lon="5.29536">
        <ele>215</ele>
        <time>2020-05-16T13:07:44.000Z</time>
      </trkpt>
      <trkpt lat="45.65224" lon="5.29528">
        <ele>215</ele>
        <time>2020-05-16T13:07:45.000Z</time>
      </trkpt>
      <trkpt lat="45.6523" lon="5.29519">
        <ele>215</ele>
        <time>2020-05-16T13:07:46.000Z</time>
      </trkpt>
      <trkpt lat="45.65236" lon="5.29511">
        <ele>215</ele>
        <time>2020-05-16T13:07:47.000Z</time>
      </trkpt>
      <trkpt lat="45.65242" lon="5.29503">
        <ele>215</ele>
        <time>2020-05-16T13:07:48.000Z</time>
      </trkpt>
      <trkpt lat="45.65248" lon="5.29494">
        <ele>215</ele>
        <time>2020-05-16T13:07:49.000Z</time>
      </trkpt>
      <trkpt lat="45.65254" lon="5.29486">
        <ele>215</ele>
        <time>2020-05-16T13:07:50.000Z</time>
      </trkpt>
      <trkpt lat="45.6526" lon="5.29478">
        <ele>215</ele>
        <time>2020-05-16T13:07:51.000Z</time>
      </trkpt>
      <trkpt lat="45.65265" lon="5.2947">
        <ele>215</ele>
        <time>2020-05-16T13:07:52.000Z</time>
      </trkpt>
      <trkpt lat="45.65271" lon="5.29462">
        <ele>216</ele>
        <time>2020-05-16T13:07:53.000Z</time>
      </trkpt>
      <trkpt lat="45.65276" lon="5.29454">
        <ele>216</ele>
        <time>2020-05-16T13:07:54.000Z</time>
      </trkpt>
      <trkpt lat="45.65282" lon="5.29446">
        <ele>216</ele>
        <time>2020-05-16T13:07:55.000Z</time>
      </trkpt>
      <trkpt lat="45.65288" lon="5.29438">
        <ele>216</ele>
        <time>2020-05-16T13:07:56.000Z</time>
      </trkpt>
      <trkpt lat="45.65294" lon="5.2943">
        <ele>216</ele>
        <time>2020-05-16T13:07:57.000Z</time>
      </trkpt>
      <trkpt lat="45.65299" lon="5.29423">
        <ele>216</ele>
        <time>2020-05-16T13:07:58.000Z</time>
      </trkpt>
      <trkpt lat="45.65305" lon="5.29415">
        <ele>216</ele>
        <time>2020-05-16T13:07:59.000Z</time>
      </trkpt>
      <trkpt lat="45.65311" lon="5.29408">
        <ele>216</ele>
        <time>2020-05-16T13:08:00.000Z</time>
      </trkpt>
      <trkpt lat="45.65317" lon="5.29401">
        <ele>216</ele>
        <time>2020-05-16T13:08:01.000Z</time>
      </trkpt>
      <trkpt lat="45.65322" lon="5.29394">
        <ele>216</ele>
        <time>2020-05-16T13:08:02.000Z</time>
      </trkpt>
      <trkpt lat="45.65328" lon="5.29387">
        <ele>216</ele>
        <time>2020-05-16T13:08:03.000Z</time>
      </trkpt>
      <trkpt lat="45.65334" lon="5.2938">
        <ele>216</ele>
        <time>2020-05-16T13:08:04.000Z</time>
      </trkpt>
      <trkpt lat="45.6534" lon="5.29373">
        <ele>216</ele>
        <time>2020-05-16T13:08:05.000Z</time>
      </trkpt>
      <trkpt lat="45.65346" lon="5.29366">
        <ele>216</ele>
        <time>2020-05-16T13:08:06.000Z</time>
      </trkpt>
      <trkpt lat="45.65352" lon="5.29359">
        <ele>216</ele>
        <time>2020-05-16T13:08:07.000Z</time>
      </trkpt>
      <trkpt lat="45.65357" lon="5.29352">
        <ele>217</ele>
        <time>2020-05-16T13:08:08.000Z</time>
      </trkpt>
      <trkpt lat="45.65363" lon="5.29345">
        <ele>217</ele>
        <time>2020-05-16T13:08:09.000Z</time>
      </trkpt>
      <trkpt lat="45.6537" lon="5.29338">
        <ele>217</ele>
        <time>2020-05-16T13:08:10.000Z</time>
      </trkpt>
      <trkpt lat="45.65376" lon="5.29331">
        <ele>217</ele>
        <time>2020-05-16T13:08:11.000Z</time>
      </trkpt>
      <trkpt lat="45.65382" lon="5.29324">
        <ele>217</ele>
        <time>2020-05-16T13:08:12.000Z</time>
      </trkpt>
      <trkpt lat="45.65388" lon="5.29317">
        <ele>217</ele>
        <time>2020-05-16T13:08:13.000Z</time>
      </trkpt>
      <trkpt lat="45.65394" lon="5.2931">
        <ele>217</ele>
        <time>2020-05-16T13:08:14.000Z</time>
      </trkpt>
      <trkpt lat="45.654" lon="5.29303">
        <ele>217</ele>
        <time>2020-05-16T13:08:15.000Z</time>
      </trkpt>
      <trkpt lat="45.65406" lon="5.29296">
        <ele>217</ele>
        <time>2020-05-16T13:08:16.000Z</time>
      </trkpt>
      <trkpt lat="45.65412" lon="5.29289">
        <ele>217</ele>
        <time>2020-05-16T13:08:17.000Z</time>
      </trkpt>
      <trkpt lat="45.65418" lon="5.29283">
        <ele>217</ele>
        <time>2020-05-16T13:08:18.000Z</time>
      </trkpt>
      <trkpt lat="45.65424" lon="5.29276">
        <ele>217</ele>
        <time>2020-05-16T13:08:19.000Z</time>
      </trkpt>
      <trkpt lat="45.6543" lon="5.29269">
        <ele>217</ele>
        <time>2020-05-16T13:08:20.000Z</time>
      </trkpt>
      <trkpt lat="45.65435" lon="5.29262">
        <ele>217</ele>
        <time>2020-05-16T13:08:21.000Z</time>
      </trkpt>
      <trkpt lat="45.65441" lon="5.29256">
        <ele>217</ele>
        <time>2020-05-16T13:08:22.000Z</time>
      </trkpt>
      <trkpt lat="45.65447" lon="5.29249">
        <ele>216</ele>
        <time>2020-05-16T13:08:23.000Z</time>
      </trkpt>
      <trkpt lat="45.65453" lon="5.29242">
        <ele>216</ele>
        <time>2020-05-16T13:08:24.000Z</time>
      </trkpt>
      <trkpt lat="45.65459" lon="5.29236">
        <ele>216</ele>
        <time>2020-05-16T13:08:25.000Z</time>
      </trkpt>
      <trkpt lat="45.65465" lon="5.29229">
        <ele>217</ele>
        <time>2020-05-16T13:08:26.000Z</time>
      </trkpt>
      <trkpt lat="45.65471" lon="5.29222">
        <ele>216</ele>
        <time>2020-05-16T13:08:27.000Z</time>
      </trkpt>
      <trkpt lat="45.65477" lon="5.29215">
        <ele>216</ele>
        <time>2020-05-16T13:08:28.000Z</time>
      </trkpt>
      <trkpt lat="45.65483" lon="5.29208">
        <ele>217</ele>
        <time>2020-05-16T13:08:29.000Z</time>
      </trkpt>
      <trkpt lat="45.6549" lon="5.29201">
        <ele>217</ele>
        <time>2020-05-16T13:08:30.000Z</time>
      </trkpt>
      <trkpt lat="45.65496" lon="5.29194">
        <ele>217</ele>
        <time>2020-05-16T13:08:31.000Z</time>
      </trkpt>
      <trkpt lat="45.65502" lon="5.29187">
        <ele>217</ele>
        <time>2020-05-16T13:08:32.000Z</time>
      </trkpt>
      <trkpt lat="45.65508" lon="5.2918">
        <ele>217</ele>
        <time>2020-05-16T13:08:33.000Z</time>
      </trkpt>
      <trkpt lat="45.65514" lon="5.29173">
        <ele>217</ele>
        <time>2020-05-16T13:08:34.000Z</time>
      </trkpt>
      <trkpt lat="45.6552" lon="5.29166">
        <ele>217</ele>
        <time>2020-05-16T13:08:35.000Z</time>
      </trkpt>
      <trkpt lat="45.65526" lon="5.29159">
        <ele>217</ele>
        <time>2020-05-16T13:08:36.000Z</time>
      </trkpt>
      <trkpt lat="45.65532" lon="5.29153">
        <ele>217</ele>
        <time>2020-05-16T13:08:37.000Z</time>
      </trkpt>
      <trkpt lat="45.65538" lon="5.29146">
        <ele>217</ele>
        <time>2020-05-16T13:08:38.000Z</time>
      </trkpt>
      <trkpt lat="45.65544" lon="5.2914">
        <ele>217</ele>
        <time>2020-05-16T13:08:39.000Z</time>
      </trkpt>
      <trkpt lat="45.6555" lon="5.29133">
        <ele>216</ele>
        <time>2020-05-16T13:08:40.000Z</time>
      </trkpt>
      <trkpt lat="45.65556" lon="5.29126">
        <ele>216</ele>
        <time>2020-05-16T13:08:41.000Z</time>
      </trkpt>
      <trkpt lat="45.65562" lon="5.29119">
        <ele>217</ele>
        <time>2020-05-16T13:08:42.000Z</time>
      </trkpt>
      <trkpt lat="45.65568" lon="5.29113">
        <ele>217</ele>
        <time>2020-05-16T13:08:43.000Z</time>
      </trkpt>
      <trkpt lat="45.65574" lon="5.29106">
        <ele>217</ele>
        <time>2020-05-16T13:08:44.000Z</time>
      </trkpt>
      <trkpt lat="45.6558" lon="5.29099">
        <ele>216</ele>
        <time>2020-05-16T13:08:45.000Z</time>
      </trkpt>
      <trkpt lat="45.65586" lon="5.29092">
        <ele>216</ele>
        <time>2020-05-16T13:08:46.000Z</time>
      </trkpt>
      <trkpt lat="45.65593" lon="5.29086">
        <ele>216</ele>
        <time>2020-05-16T13:08:47.000Z</time>
      </trkpt>
      <trkpt lat="45.65599" lon="5.29079">
        <ele>216</ele>
        <time>2020-05-16T13:08:48.000Z</time>
      </trkpt>
      <trkpt lat="45.65605" lon="5.29072">
        <ele>216</ele>
        <time>2020-05-16T13:08:49.000Z</time>
      </trkpt>
      <trkpt lat="45.65611" lon="5.29065">
        <ele>216</ele>
        <time>2020-05-16T13:08:50.000Z</time>
      </trkpt>
      <trkpt lat="45.65617" lon="5.29057">
        <ele>216</ele>
        <time>2020-05-16T13:08:51.000Z</time>
      </trkpt>
      <trkpt lat="45.65623" lon="5.2905">
        <ele>216</ele>
        <time>2020-05-16T13:08:52.000Z</time>
      </trkpt>
      <trkpt lat="45.6563" lon="5.29043">
        <ele>216</ele>
        <time>2020-05-16T13:08:53.000Z</time>
      </trkpt>
      <trkpt lat="45.65636" lon="5.29036">
        <ele>216</ele>
        <time>2020-05-16T13:08:54.000Z</time>
      </trkpt>
      <trkpt lat="45.65642" lon="5.29028">
        <ele>216</ele>
        <time>2020-05-16T13:08:55.000Z</time>
      </trkpt>
      <trkpt lat="45.65648" lon="5.29021">
        <ele>216</ele>
        <time>2020-05-16T13:08:56.000Z</time>
      </trkpt>
      <trkpt lat="45.65654" lon="5.29014">
        <ele>216</ele>
        <time>2020-05-16T13:08:57.000Z</time>
      </trkpt>
      <trkpt lat="45.6566" lon="5.29007">
        <ele>216</ele>
        <time>2020-05-16T13:08:58.000Z</time>
      </trkpt>
      <trkpt lat="45.65666" lon="5.29">
        <ele>217</ele>
        <time>2020-05-16T13:08:59.000Z</time>
      </trkpt>
      <trkpt lat="45.65672" lon="5.28994">
        <ele>217</ele>
        <time>2020-05-16T13:09:00.000Z</time>
      </trkpt>
      <trkpt lat="45.65678" lon="5.28987">
        <ele>217</ele>
        <time>2020-05-16T13:09:01.000Z</time>
      </trkpt>
      <trkpt lat="45.65684" lon="5.2898">
        <ele>216</ele>
        <time>2020-05-16T13:09:02.000Z</time>
      </trkpt>
      <trkpt lat="45.6569" lon="5.28973">
        <ele>217</ele>
        <time>2020-05-16T13:09:03.000Z</time>
      </trkpt>
      <trkpt lat="45.65697" lon="5.28966">
        <ele>217</ele>
        <time>2020-05-16T13:09:04.000Z</time>
      </trkpt>
      <trkpt lat="45.65703" lon="5.28959">
        <ele>218</ele>
        <time>2020-05-16T13:09:05.000Z</time>
      </trkpt>
      <trkpt lat="45.65709" lon="5.28952">
        <ele>217</ele>
        <time>2020-05-16T13:09:06.000Z</time>
      </trkpt>
      <trkpt lat="45.65715" lon="5.28946">
        <ele>217</ele>
        <time>2020-05-16T13:09:07.000Z</time>
      </trkpt>
      <trkpt lat="45.65721" lon="5.2894">
        <ele>218</ele>
        <time>2020-05-16T13:09:08.000Z</time>
      </trkpt>
      <trkpt lat="45.65728" lon="5.28934">
        <ele>218</ele>
        <time>2020-05-16T13:09:09.000Z</time>
      </trkpt>
      <trkpt lat="45.65734" lon="5.28929">
        <ele>218</ele>
        <time>2020-05-16T13:09:10.000Z</time>
      </trkpt>
      <trkpt lat="45.6574" lon="5.28923">
        <ele>217</ele>
        <time>2020-05-16T13:09:11.000Z</time>
      </trkpt>
      <trkpt lat="45.65746" lon="5.28916">
        <ele>218</ele>
        <time>2020-05-16T13:09:12.000Z</time>
      </trkpt>
      <trkpt lat="45.65751" lon="5.28909">
        <ele>218</ele>
        <time>2020-05-16T13:09:13.000Z</time>
      </trkpt>
      <trkpt lat="45.65756" lon="5.28901">
        <ele>218</ele>
        <time>2020-05-16T13:09:14.000Z</time>
      </trkpt>
      <trkpt lat="45.65762" lon="5.28893">
        <ele>218</ele>
        <time>2020-05-16T13:09:15.000Z</time>
      </trkpt>
      <trkpt lat="45.65767" lon="5.28886">
        <ele>218</ele>
        <time>2020-05-16T13:09:16.000Z</time>
      </trkpt>
      <trkpt lat="45.65773" lon="5.28878">
        <ele>218</ele>
        <time>2020-05-16T13:09:17.000Z</time>
      </trkpt>
      <trkpt lat="45.65778" lon="5.28871">
        <ele>218</ele>
        <time>2020-05-16T13:09:18.000Z</time>
      </trkpt>
      <trkpt lat="45.65784" lon="5.28865">
        <ele>218</ele>
        <time>2020-05-16T13:09:19.000Z</time>
      </trkpt>
      <trkpt lat="45.65789" lon="5.28859">
        <ele>219</ele>
        <time>2020-05-16T13:09:20.000Z</time>
      </trkpt>
      <trkpt lat="45.65795" lon="5.28853">
        <ele>219</ele>
        <time>2020-05-16T13:09:21.000Z</time>
      </trkpt>
      <trkpt lat="45.658" lon="5.28847">
        <ele>219</ele>
        <time>2020-05-16T13:09:22.000Z</time>
      </trkpt>
      <trkpt lat="45.65805" lon="5.28841">
        <ele>219</ele>
        <time>2020-05-16T13:09:23.000Z</time>
      </trkpt>
      <trkpt lat="45.6581" lon="5.28834">
        <ele>219</ele>
        <time>2020-05-16T13:09:24.000Z</time>
      </trkpt>
      <trkpt lat="45.65815" lon="5.28827">
        <ele>219</ele>
        <time>2020-05-16T13:09:25.000Z</time>
      </trkpt>
      <trkpt lat="45.65819" lon="5.28821">
        <ele>219</ele>
        <time>2020-05-16T13:09:26.000Z</time>
      </trkpt>
      <trkpt lat="45.65824" lon="5.28814">
        <ele>219</ele>
        <time>2020-05-16T13:09:27.000Z</time>
      </trkpt>
      <trkpt lat="45.65827" lon="5.28806">
        <ele>220</ele>
        <time>2020-05-16T13:09:28.000Z</time>
      </trkpt>
      <trkpt lat="45.65831" lon="5.28799">
        <ele>220</ele>
        <time>2020-05-16T13:09:29.000Z</time>
      </trkpt>
      <trkpt lat="45.65834" lon="5.28791">
        <ele>220</ele>
        <time>2020-05-16T13:09:30.000Z</time>
      </trkpt>
      <trkpt lat="45.65837" lon="5.28783">
        <ele>220</ele>
        <time>2020-05-16T13:09:31.000Z</time>
      </trkpt>
      <trkpt lat="45.6584" lon="5.28775">
        <ele>220</ele>
        <time>2020-05-16T13:09:32.000Z</time>
      </trkpt>
      <trkpt lat="45.65842" lon="5.28767">
        <ele>220</ele>
        <time>2020-05-16T13:09:33.000Z</time>
      </trkpt>
      <trkpt lat="45.65845" lon="5.28759">
        <ele>220</ele>
        <time>2020-05-16T13:09:34.000Z</time>
      </trkpt>
      <trkpt lat="45.65848" lon="5.28751">
        <ele>220</ele>
        <time>2020-05-16T13:09:35.000Z</time>
      </trkpt>
      <trkpt lat="45.65851" lon="5.28743">
        <ele>220</ele>
        <time>2020-05-16T13:09:36.000Z</time>
      </trkpt>
      <trkpt lat="45.65854" lon="5.28734">
        <ele>221</ele>
        <time>2020-05-16T13:09:37.000Z</time>
      </trkpt>
      <trkpt lat="45.65858" lon="5.28726">
        <ele>221</ele>
        <time>2020-05-16T13:09:38.000Z</time>
      </trkpt>
      <trkpt lat="45.65861" lon="5.28717">
        <ele>221</ele>
        <time>2020-05-16T13:09:39.000Z</time>
      </trkpt>
      <trkpt lat="45.65864" lon="5.28709">
        <ele>221</ele>
        <time>2020-05-16T13:09:40.000Z</time>
      </trkpt>
      <trkpt lat="45.65867" lon="5.287">
        <ele>221</ele>
        <time>2020-05-16T13:09:41.000Z</time>
      </trkpt>
      <trkpt lat="45.6587" lon="5.28692">
        <ele>221</ele>
        <time>2020-05-16T13:09:42.000Z</time>
      </trkpt>
      <trkpt lat="45.65873" lon="5.28684">
        <ele>221</ele>
        <time>2020-05-16T13:09:43.000Z</time>
      </trkpt>
      <trkpt lat="45.65876" lon="5.28676">
        <ele>221</ele>
        <time>2020-05-16T13:09:44.000Z</time>
      </trkpt>
      <trkpt lat="45.65879" lon="5.28668">
        <ele>221</ele>
        <time>2020-05-16T13:09:45.000Z</time>
      </trkpt>
      <trkpt lat="45.65882" lon="5.2866">
        <ele>221</ele>
        <time>2020-05-16T13:09:46.000Z</time>
      </trkpt>
      <trkpt lat="45.65885" lon="5.28652">
        <ele>221</ele>
        <time>2020-05-16T13:09:47.000Z</time>
      </trkpt>
      <trkpt lat="45.65888" lon="5.28644">
        <ele>221</ele>
        <time>2020-05-16T13:09:48.000Z</time>
      </trkpt>
      <trkpt lat="45.65892" lon="5.28636">
        <ele>221</ele>
        <time>2020-05-16T13:09:49.000Z</time>
      </trkpt>
      <trkpt lat="45.65895" lon="5.28628">
        <ele>221</ele>
        <time>2020-05-16T13:09:50.000Z</time>
      </trkpt>
      <trkpt lat="45.65898" lon="5.2862">
        <ele>221</ele>
        <time>2020-05-16T13:09:51.000Z</time>
      </trkpt>
      <trkpt lat="45.65901" lon="5.28612">
        <ele>221</ele>
        <time>2020-05-16T13:09:52.000Z</time>
      </trkpt>
      <trkpt lat="45.65904" lon="5.28605">
        <ele>221</ele>
        <time>2020-05-16T13:09:53.000Z</time>
      </trkpt>
      <trkpt lat="45.65907" lon="5.28597">
        <ele>221</ele>
        <time>2020-05-16T13:09:54.000Z</time>
      </trkpt>
      <trkpt lat="45.65909" lon="5.28589">
        <ele>221</ele>
        <time>2020-05-16T13:09:55.000Z</time>
      </trkpt>
      <trkpt lat="45.65913" lon="5.28581">
        <ele>221</ele>
        <time>2020-05-16T13:09:56.000Z</time>
      </trkpt>
      <trkpt lat="45.65916" lon="5.28574">
        <ele>221</ele>
        <time>2020-05-16T13:09:57.000Z</time>
      </trkpt>
      <trkpt lat="45.65919" lon="5.28566">
        <ele>221</ele>
        <time>2020-05-16T13:09:58.000Z</time>
      </trkpt>
      <trkpt lat="45.65922" lon="5.28558">
        <ele>221</ele>
        <time>2020-05-16T13:09:59.000Z</time>
      </trkpt>
      <trkpt lat="45.65925" lon="5.2855">
        <ele>221</ele>
        <time>2020-05-16T13:10:00.000Z</time>
      </trkpt>
      <trkpt lat="45.65928" lon="5.28543">
        <ele>221</ele>
        <time>2020-05-16T13:10:01.000Z</time>
      </trkpt>
      <trkpt lat="45.65931" lon="5.28535">
        <ele>221</ele>
        <time>2020-05-16T13:10:02.000Z</time>
      </trkpt>
      <trkpt lat="45.65933" lon="5.28527">
        <ele>221</ele>
        <time>2020-05-16T13:10:03.000Z</time>
      </trkpt>
      <trkpt lat="45.65936" lon="5.2852">
        <ele>221</ele>
        <time>2020-05-16T13:10:04.000Z</time>
      </trkpt>
      <trkpt lat="45.65939" lon="5.28512">
        <ele>221</ele>
        <time>2020-05-16T13:10:05.000Z</time>
      </trkpt>
      <trkpt lat="45.65942" lon="5.28505">
        <ele>221</ele>
        <time>2020-05-16T13:10:06.000Z</time>
      </trkpt>
      <trkpt lat="45.65945" lon="5.28498">
        <ele>221</ele>
        <time>2020-05-16T13:10:07.000Z</time>
      </trkpt>
      <trkpt lat="45.65948" lon="5.28491">
        <ele>222</ele>
        <time>2020-05-16T13:10:08.000Z</time>
      </trkpt>
      <trkpt lat="45.6595" lon="5.28483">
        <ele>222</ele>
        <time>2020-05-16T13:10:09.000Z</time>
      </trkpt>
      <trkpt lat="45.65953" lon="5.28476">
        <ele>222</ele>
        <time>2020-05-16T13:10:10.000Z</time>
      </trkpt>
      <trkpt lat="45.65956" lon="5.28469">
        <ele>222</ele>
        <time>2020-05-16T13:10:11.000Z</time>
      </trkpt>
      <trkpt lat="45.65958" lon="5.28462">
        <ele>222</ele>
        <time>2020-05-16T13:10:12.000Z</time>
      </trkpt>
      <trkpt lat="45.65961" lon="5.28455">
        <ele>222</ele>
        <time>2020-05-16T13:10:13.000Z</time>
      </trkpt>
      <trkpt lat="45.65964" lon="5.28447">
        <ele>223</ele>
        <time>2020-05-16T13:10:14.000Z</time>
      </trkpt>
      <trkpt lat="45.65966" lon="5.2844">
        <ele>223</ele>
        <time>2020-05-16T13:10:15.000Z</time>
      </trkpt>
      <trkpt lat="45.65969" lon="5.28433">
        <ele>223</ele>
        <time>2020-05-16T13:10:16.000Z</time>
      </trkpt>
      <trkpt lat="45.65972" lon="5.28426">
        <ele>223</ele>
        <time>2020-05-16T13:10:17.000Z</time>
      </trkpt>
      <trkpt lat="45.65975" lon="5.28419">
        <ele>223</ele>
        <time>2020-05-16T13:10:18.000Z</time>
      </trkpt>
      <trkpt lat="45.65977" lon="5.28412">
        <ele>223</ele>
        <time>2020-05-16T13:10:19.000Z</time>
      </trkpt>
      <trkpt lat="45.6598" lon="5.28405">
        <ele>223</ele>
        <time>2020-05-16T13:10:20.000Z</time>
      </trkpt>
      <trkpt lat="45.65983" lon="5.28398">
        <ele>223</ele>
        <time>2020-05-16T13:10:21.000Z</time>
      </trkpt>
      <trkpt lat="45.65985" lon="5.28391">
        <ele>223</ele>
        <time>2020-05-16T13:10:22.000Z</time>
      </trkpt>
      <trkpt lat="45.65988" lon="5.28384">
        <ele>223</ele>
        <time>2020-05-16T13:10:23.000Z</time>
      </trkpt>
      <trkpt lat="45.6599" lon="5.28377">
        <ele>224</ele>
        <time>2020-05-16T13:10:24.000Z</time>
      </trkpt>
      <trkpt lat="45.65993" lon="5.2837">
        <ele>224</ele>
        <time>2020-05-16T13:10:25.000Z</time>
      </trkpt>
      <trkpt lat="45.65996" lon="5.28363">
        <ele>224</ele>
        <time>2020-05-16T13:10:26.000Z</time>
      </trkpt>
      <trkpt lat="45.65998" lon="5.28356">
        <ele>224</ele>
        <time>2020-05-16T13:10:27.000Z</time>
      </trkpt>
      <trkpt lat="45.66001" lon="5.28349">
        <ele>224</ele>
        <time>2020-05-16T13:10:28.000Z</time>
      </trkpt>
      <trkpt lat="45.66004" lon="5.28342">
        <ele>224</ele>
        <time>2020-05-16T13:10:29.000Z</time>
      </trkpt>
      <trkpt lat="45.66006" lon="5.28336">
        <ele>224</ele>
        <time>2020-05-16T13:10:30.000Z</time>
      </trkpt>
      <trkpt lat="45.66009" lon="5.28329">
        <ele>224</ele>
        <time>2020-05-16T13:10:31.000Z</time>
      </trkpt>
      <trkpt lat="45.66011" lon="5.28322">
        <ele>225</ele>
        <time>2020-05-16T13:10:32.000Z</time>
      </trkpt>
      <trkpt lat="45.66013" lon="5.28316">
        <ele>225</ele>
        <time>2020-05-16T13:10:33.000Z</time>
      </trkpt>
      <trkpt lat="45.66016" lon="5.28309">
        <ele>225</ele>
        <time>2020-05-16T13:10:34.000Z</time>
      </trkpt>
      <trkpt lat="45.66019" lon="5.28303">
        <ele>225</ele>
        <time>2020-05-16T13:10:35.000Z</time>
      </trkpt>
      <trkpt lat="45.66021" lon="5.28296">
        <ele>225</ele>
        <time>2020-05-16T13:10:36.000Z</time>
      </trkpt>
      <trkpt lat="45.66024" lon="5.2829">
        <ele>225</ele>
        <time>2020-05-16T13:10:37.000Z</time>
      </trkpt>
      <trkpt lat="45.66026" lon="5.28283">
        <ele>225</ele>
        <time>2020-05-16T13:10:38.000Z</time>
      </trkpt>
      <trkpt lat="45.66029" lon="5.28277">
        <ele>225</ele>
        <time>2020-05-16T13:10:39.000Z</time>
      </trkpt>
      <trkpt lat="45.66031" lon="5.2827">
        <ele>225</ele>
        <time>2020-05-16T13:10:40.000Z</time>
      </trkpt>
      <trkpt lat="45.66034" lon="5.28263">
        <ele>226</ele>
        <time>2020-05-16T13:10:41.000Z</time>
      </trkpt>
      <trkpt lat="45.66036" lon="5.28257">
        <ele>226</ele>
        <time>2020-05-16T13:10:42.000Z</time>
      </trkpt>
      <trkpt lat="45.66039" lon="5.28251">
        <ele>226</ele>
        <time>2020-05-16T13:10:43.000Z</time>
      </trkpt>
      <trkpt lat="45.66041" lon="5.28244">
        <ele>226</ele>
        <time>2020-05-16T13:10:44.000Z</time>
      </trkpt>
      <trkpt lat="45.66044" lon="5.28237">
        <ele>226</ele>
        <time>2020-05-16T13:10:45.000Z</time>
      </trkpt>
      <trkpt lat="45.66046" lon="5.28231">
        <ele>227</ele>
        <time>2020-05-16T13:10:46.000Z</time>
      </trkpt>
      <trkpt lat="45.66048" lon="5.28224">
        <ele>227</ele>
        <time>2020-05-16T13:10:47.000Z</time>
      </trkpt>
      <trkpt lat="45.66051" lon="5.28218">
        <ele>227</ele>
        <time>2020-05-16T13:10:48.000Z</time>
      </trkpt>
      <trkpt lat="45.66053" lon="5.28211">
        <ele>227</ele>
        <time>2020-05-16T13:10:49.000Z</time>
      </trkpt>
      <trkpt lat="45.66056" lon="5.28205">
        <ele>227</ele>
        <time>2020-05-16T13:10:50.000Z</time>
      </trkpt>
      <trkpt lat="45.66058" lon="5.28198">
        <ele>227</ele>
        <time>2020-05-16T13:10:51.000Z</time>
      </trkpt>
      <trkpt lat="45.66061" lon="5.28191">
        <ele>227</ele>
        <time>2020-05-16T13:10:52.000Z</time>
      </trkpt>
      <trkpt lat="45.66063" lon="5.28185">
        <ele>227</ele>
        <time>2020-05-16T13:10:53.000Z</time>
      </trkpt>
      <trkpt lat="45.66066" lon="5.28179">
        <ele>227</ele>
        <time>2020-05-16T13:10:54.000Z</time>
      </trkpt>
      <trkpt lat="45.66069" lon="5.28172">
        <ele>227</ele>
        <time>2020-05-16T13:10:55.000Z</time>
      </trkpt>
      <trkpt lat="45.66072" lon="5.28166">
        <ele>227</ele>
        <time>2020-05-16T13:10:56.000Z</time>
      </trkpt>
      <trkpt lat="45.66075" lon="5.28159">
        <ele>228</ele>
        <time>2020-05-16T13:10:57.000Z</time>
      </trkpt>
      <trkpt lat="45.66078" lon="5.28153">
        <ele>228</ele>
        <time>2020-05-16T13:10:58.000Z</time>
      </trkpt>
      <trkpt lat="45.66081" lon="5.28147">
        <ele>228</ele>
        <time>2020-05-16T13:10:59.000Z</time>
      </trkpt>
      <trkpt lat="45.66084" lon="5.28141">
        <ele>228</ele>
        <time>2020-05-16T13:11:00.000Z</time>
      </trkpt>
      <trkpt lat="45.66087" lon="5.28135">
        <ele>229</ele>
        <time>2020-05-16T13:11:01.000Z</time>
      </trkpt>
      <trkpt lat="45.6609" lon="5.2813">
        <ele>229</ele>
        <time>2020-05-16T13:11:02.000Z</time>
      </trkpt>
      <trkpt lat="45.66093" lon="5.28125">
        <ele>230</ele>
        <time>2020-05-16T13:11:03.000Z</time>
      </trkpt>
      <trkpt lat="45.66098" lon="5.28122">
        <ele>229</ele>
        <time>2020-05-16T13:11:04.000Z</time>
      </trkpt>
      <trkpt lat="45.66103" lon="5.28121">
        <ele>231</ele>
        <time>2020-05-16T13:11:05.000Z</time>
      </trkpt>
      <trkpt lat="45.66109" lon="5.2812">
        <ele>232</ele>
        <time>2020-05-16T13:11:06.000Z</time>
      </trkpt>
      <trkpt lat="45.66115" lon="5.28119">
        <ele>232</ele>
        <time>2020-05-16T13:11:07.000Z</time>
      </trkpt>
      <trkpt lat="45.6612" lon="5.28116">
        <ele>233</ele>
        <time>2020-05-16T13:11:08.000Z</time>
      </trkpt>
      <trkpt lat="45.66125" lon="5.28114">
        <ele>233</ele>
        <time>2020-05-16T13:11:09.000Z</time>
      </trkpt>
      <trkpt lat="45.66129" lon="5.28111">
        <ele>234</ele>
        <time>2020-05-16T13:11:10.000Z</time>
      </trkpt>
      <trkpt lat="45.66134" lon="5.28109">
        <ele>234</ele>
        <time>2020-05-16T13:11:11.000Z</time>
      </trkpt>
      <trkpt lat="45.66139" lon="5.28107">
        <ele>234</ele>
        <time>2020-05-16T13:11:12.000Z</time>
      </trkpt>
      <trkpt lat="45.66143" lon="5.28105">
        <ele>234</ele>
        <time>2020-05-16T13:11:13.000Z</time>
      </trkpt>
      <trkpt lat="45.66148" lon="5.28103">
        <ele>235</ele>
        <time>2020-05-16T13:11:14.000Z</time>
      </trkpt>
      <trkpt lat="45.66152" lon="5.281">
        <ele>235</ele>
        <time>2020-05-16T13:11:15.000Z</time>
      </trkpt>
      <trkpt lat="45.66157" lon="5.28098">
        <ele>235</ele>
        <time>2020-05-16T13:11:16.000Z</time>
      </trkpt>
      <trkpt lat="45.66162" lon="5.28096">
        <ele>234</ele>
        <time>2020-05-16T13:11:17.000Z</time>
      </trkpt>
      <trkpt lat="45.66166" lon="5.28094">
        <ele>234</ele>
        <time>2020-05-16T13:11:18.000Z</time>
      </trkpt>
      <trkpt lat="45.6617" lon="5.28092">
        <ele>234</ele>
        <time>2020-05-16T13:11:19.000Z</time>
      </trkpt>
      <trkpt lat="45.66175" lon="5.2809">
        <ele>234</ele>
        <time>2020-05-16T13:11:20.000Z</time>
      </trkpt>
      <trkpt lat="45.66179" lon="5.28087">
        <ele>234</ele>
        <time>2020-05-16T13:11:21.000Z</time>
      </trkpt>
      <trkpt lat="45.66183" lon="5.28085">
        <ele>234</ele>
        <time>2020-05-16T13:11:22.000Z</time>
      </trkpt>
      <trkpt lat="45.66187" lon="5.28082">
        <ele>234</ele>
        <time>2020-05-16T13:11:23.000Z</time>
      </trkpt>
      <trkpt lat="45.6619" lon="5.28079">
        <ele>233</ele>
        <time>2020-05-16T13:11:24.000Z</time>
      </trkpt>
      <trkpt lat="45.66194" lon="5.28075">
        <ele>234</ele>
        <time>2020-05-16T13:11:25.000Z</time>
      </trkpt>
      <trkpt lat="45.66198" lon="5.2807">
        <ele>234</ele>
        <time>2020-05-16T13:11:26.000Z</time>
      </trkpt>
      <trkpt lat="45.66201" lon="5.28065">
        <ele>235</ele>
        <time>2020-05-16T13:11:27.000Z</time>
      </trkpt>
      <trkpt lat="45.66205" lon="5.28061">
        <ele>235</ele>
        <time>2020-05-16T13:11:28.000Z</time>
      </trkpt>
      <trkpt lat="45.66209" lon="5.28057">
        <ele>235</ele>
        <time>2020-05-16T13:11:29.000Z</time>
      </trkpt>
      <trkpt lat="45.66213" lon="5.28053">
        <ele>235</ele>
        <time>2020-05-16T13:11:30.000Z</time>
      </trkpt>
      <trkpt lat="45.66216" lon="5.28049">
        <ele>236</ele>
        <time>2020-05-16T13:11:31.000Z</time>
      </trkpt>
      <trkpt lat="45.6622" lon="5.28045">
        <ele>236</ele>
        <time>2020-05-16T13:11:32.000Z</time>
      </trkpt>
      <trkpt lat="45.66224" lon="5.28042">
        <ele>235</ele>
        <time>2020-05-16T13:11:33.000Z</time>
      </trkpt>
      <trkpt lat="45.66227" lon="5.28039">
        <ele>235</ele>
        <time>2020-05-16T13:11:34.000Z</time>
      </trkpt>
      <trkpt lat="45.66231" lon="5.28036">
        <ele>235</ele>
        <time>2020-05-16T13:11:35.000Z</time>
      </trkpt>
      <trkpt lat="45.66235" lon="5.28033">
        <ele>235</ele>
        <time>2020-05-16T13:11:36.000Z</time>
      </trkpt>
      <trkpt lat="45.66238" lon="5.28029">
        <ele>236</ele>
        <time>2020-05-16T13:11:37.000Z</time>
      </trkpt>
      <trkpt lat="45.66242" lon="5.28026">
        <ele>236</ele>
        <time>2020-05-16T13:11:38.000Z</time>
      </trkpt>
      <trkpt lat="45.66246" lon="5.28022">
        <ele>236</ele>
        <time>2020-05-16T13:11:39.000Z</time>
      </trkpt>
      <trkpt lat="45.6625" lon="5.28019">
        <ele>236</ele>
        <time>2020-05-16T13:11:40.000Z</time>
      </trkpt>
      <trkpt lat="45.66253" lon="5.28016">
        <ele>236</ele>
        <time>2020-05-16T13:11:41.000Z</time>
      </trkpt>
      <trkpt lat="45.66257" lon="5.28013">
        <ele>236</ele>
        <time>2020-05-16T13:11:42.000Z</time>
      </trkpt>
      <trkpt lat="45.66261" lon="5.2801">
        <ele>236</ele>
        <time>2020-05-16T13:11:43.000Z</time>
      </trkpt>
      <trkpt lat="45.66265" lon="5.28007">
        <ele>236</ele>
        <time>2020-05-16T13:11:44.000Z</time>
      </trkpt>
      <trkpt lat="45.66269" lon="5.28003">
        <ele>236</ele>
        <time>2020-05-16T13:11:45.000Z</time>
      </trkpt>
      <trkpt lat="45.66273" lon="5.28">
        <ele>236</ele>
        <time>2020-05-16T13:11:46.000Z</time>
      </trkpt>
      <trkpt lat="45.66276" lon="5.27997">
        <ele>236</ele>
        <time>2020-05-16T13:11:47.000Z</time>
      </trkpt>
      <trkpt lat="45.6628" lon="5.27994">
        <ele>236</ele>
        <time>2020-05-16T13:11:48.000Z</time>
      </trkpt>
      <trkpt lat="45.66284" lon="5.27991">
        <ele>236</ele>
        <time>2020-05-16T13:11:49.000Z</time>
      </trkpt>
      <trkpt lat="45.66288" lon="5.27988">
        <ele>236</ele>
        <time>2020-05-16T13:11:50.000Z</time>
      </trkpt>
      <trkpt lat="45.66292" lon="5.27985">
        <ele>236</ele>
        <time>2020-05-16T13:11:51.000Z</time>
      </trkpt>
      <trkpt lat="45.66296" lon="5.27983">
        <ele>236</ele>
        <time>2020-05-16T13:11:52.000Z</time>
      </trkpt>
      <trkpt lat="45.663" lon="5.2798">
        <ele>236</ele>
        <time>2020-05-16T13:11:53.000Z</time>
      </trkpt>
      <trkpt lat="45.66304" lon="5.27977">
        <ele>237</ele>
        <time>2020-05-16T13:11:54.000Z</time>
      </trkpt>
      <trkpt lat="45.66308" lon="5.27975">
        <ele>237</ele>
        <time>2020-05-16T13:11:55.000Z</time>
      </trkpt>
      <trkpt lat="45.66313" lon="5.27973">
        <ele>238</ele>
        <time>2020-05-16T13:11:56.000Z</time>
      </trkpt>
      <trkpt lat="45.66317" lon="5.27971">
        <ele>238</ele>
        <time>2020-05-16T13:11:57.000Z</time>
      </trkpt>
      <trkpt lat="45.66322" lon="5.2797">
        <ele>238</ele>
        <time>2020-05-16T13:11:58.000Z</time>
      </trkpt>
      <trkpt lat="45.66327" lon="5.27969">
        <ele>239</ele>
        <time>2020-05-16T13:11:59.000Z</time>
      </trkpt>
      <trkpt lat="45.66331" lon="5.27967">
        <ele>240</ele>
        <time>2020-05-16T13:12:00.000Z</time>
      </trkpt>
      <trkpt lat="45.66335" lon="5.27966">
        <ele>240</ele>
        <time>2020-05-16T13:12:01.000Z</time>
      </trkpt>
      <trkpt lat="45.6634" lon="5.27965">
        <ele>240</ele>
        <time>2020-05-16T13:12:02.000Z</time>
      </trkpt>
      <trkpt lat="45.66344" lon="5.27963">
        <ele>241</ele>
        <time>2020-05-16T13:12:03.000Z</time>
      </trkpt>
      <trkpt lat="45.66348" lon="5.27962">
        <ele>241</ele>
        <time>2020-05-16T13:12:04.000Z</time>
      </trkpt>
      <trkpt lat="45.66352" lon="5.27961">
        <ele>242</ele>
        <time>2020-05-16T13:12:05.000Z</time>
      </trkpt>
      <trkpt lat="45.66357" lon="5.2796">
        <ele>242</ele>
        <time>2020-05-16T13:12:06.000Z</time>
      </trkpt>
      <trkpt lat="45.66361" lon="5.27959">
        <ele>242</ele>
        <time>2020-05-16T13:12:07.000Z</time>
      </trkpt>
      <trkpt lat="45.66365" lon="5.27958">
        <ele>242</ele>
        <time>2020-05-16T13:12:08.000Z</time>
      </trkpt>
      <trkpt lat="45.66369" lon="5.27957">
        <ele>243</ele>
        <time>2020-05-16T13:12:09.000Z</time>
      </trkpt>
      <trkpt lat="45.66374" lon="5.27956">
        <ele>243</ele>
        <time>2020-05-16T13:12:10.000Z</time>
      </trkpt>
      <trkpt lat="45.66378" lon="5.27955">
        <ele>243</ele>
        <time>2020-05-16T13:12:11.000Z</time>
      </trkpt>
      <trkpt lat="45.66382" lon="5.27954">
        <ele>244</ele>
        <time>2020-05-16T13:12:12.000Z</time>
      </trkpt>
      <trkpt lat="45.66386" lon="5.27954">
        <ele>244</ele>
        <time>2020-05-16T13:12:13.000Z</time>
      </trkpt>
      <trkpt lat="45.6639" lon="5.27953">
        <ele>244</ele>
        <time>2020-05-16T13:12:14.000Z</time>
      </trkpt>
      <trkpt lat="45.66394" lon="5.27951">
        <ele>245</ele>
        <time>2020-05-16T13:12:15.000Z</time>
      </trkpt>
      <trkpt lat="45.66398" lon="5.2795">
        <ele>245</ele>
        <time>2020-05-16T13:12:16.000Z</time>
      </trkpt>
      <trkpt lat="45.66402" lon="5.27948">
        <ele>245</ele>
        <time>2020-05-16T13:12:17.000Z</time>
      </trkpt>
      <trkpt lat="45.66406" lon="5.27947">
        <ele>245</ele>
        <time>2020-05-16T13:12:18.000Z</time>
      </trkpt>
      <trkpt lat="45.6641" lon="5.27945">
        <ele>246</ele>
        <time>2020-05-16T13:12:19.000Z</time>
      </trkpt>
      <trkpt lat="45.66414" lon="5.27943">
        <ele>245</ele>
        <time>2020-05-16T13:12:20.000Z</time>
      </trkpt>
      <trkpt lat="45.66417" lon="5.27941">
        <ele>246</ele>
        <time>2020-05-16T13:12:21.000Z</time>
      </trkpt>
      <trkpt lat="45.66421" lon="5.27939">
        <ele>246</ele>
        <time>2020-05-16T13:12:22.000Z</time>
      </trkpt>
      <trkpt lat="45.66424" lon="5.27937">
        <ele>247</ele>
        <time>2020-05-16T13:12:23.000Z</time>
      </trkpt>
      <trkpt lat="45.66428" lon="5.27934">
        <ele>247</ele>
        <time>2020-05-16T13:12:24.000Z</time>
      </trkpt>
      <trkpt lat="45.66431" lon="5.27932">
        <ele>247</ele>
        <time>2020-05-16T13:12:25.000Z</time>
      </trkpt>
      <trkpt lat="45.66435" lon="5.27929">
        <ele>248</ele>
        <time>2020-05-16T13:12:26.000Z</time>
      </trkpt>
      <trkpt lat="45.66438" lon="5.27926">
        <ele>248</ele>
        <time>2020-05-16T13:12:27.000Z</time>
      </trkpt>
      <trkpt lat="45.66441" lon="5.27924">
        <ele>248</ele>
        <time>2020-05-16T13:12:28.000Z</time>
      </trkpt>
      <trkpt lat="45.66444" lon="5.27921">
        <ele>248</ele>
        <time>2020-05-16T13:12:29.000Z</time>
      </trkpt>
      <trkpt lat="45.66448" lon="5.27918">
        <ele>248</ele>
        <time>2020-05-16T13:12:30.000Z</time>
      </trkpt>
      <trkpt lat="45.66451" lon="5.27916">
        <ele>248</ele>
        <time>2020-05-16T13:12:31.000Z</time>
      </trkpt>
      <trkpt lat="45.66454" lon="5.27913">
        <ele>248</ele>
        <time>2020-05-16T13:12:32.000Z</time>
      </trkpt>
      <trkpt lat="45.66458" lon="5.27909">
        <ele>248</ele>
        <time>2020-05-16T13:12:33.000Z</time>
      </trkpt>
      <trkpt lat="45.66461" lon="5.27906">
        <ele>248</ele>
        <time>2020-05-16T13:12:34.000Z</time>
      </trkpt>
      <trkpt lat="45.66464" lon="5.27903">
        <ele>248</ele>
        <time>2020-05-16T13:12:35.000Z</time>
      </trkpt>
      <trkpt lat="45.66467" lon="5.279">
        <ele>249</ele>
        <time>2020-05-16T13:12:36.000Z</time>
      </trkpt>
      <trkpt lat="45.66471" lon="5.27896">
        <ele>250</ele>
        <time>2020-05-16T13:12:37.000Z</time>
      </trkpt>
      <trkpt lat="45.66474" lon="5.27891">
        <ele>251</ele>
        <time>2020-05-16T13:12:38.000Z</time>
      </trkpt>
      <trkpt lat="45.66477" lon="5.27887">
        <ele>251</ele>
        <time>2020-05-16T13:12:39.000Z</time>
      </trkpt>
      <trkpt lat="45.6648" lon="5.27884">
        <ele>251</ele>
        <time>2020-05-16T13:12:40.000Z</time>
      </trkpt>
      <trkpt lat="45.66484" lon="5.2788">
        <ele>252</ele>
        <time>2020-05-16T13:12:41.000Z</time>
      </trkpt>
      <trkpt lat="45.66487" lon="5.27877">
        <ele>252</ele>
        <time>2020-05-16T13:12:42.000Z</time>
      </trkpt>
      <trkpt lat="45.66491" lon="5.27874">
        <ele>252</ele>
        <time>2020-05-16T13:12:43.000Z</time>
      </trkpt>
      <trkpt lat="45.66494" lon="5.27871">
        <ele>252</ele>
        <time>2020-05-16T13:12:44.000Z</time>
      </trkpt>
      <trkpt lat="45.66498" lon="5.27868">
        <ele>253</ele>
        <time>2020-05-16T13:12:45.000Z</time>
      </trkpt>
      <trkpt lat="45.66501" lon="5.27866">
        <ele>253</ele>
        <time>2020-05-16T13:12:46.000Z</time>
      </trkpt>
      <trkpt lat="45.66505" lon="5.27863">
        <ele>254</ele>
        <time>2020-05-16T13:12:47.000Z</time>
      </trkpt>
      <trkpt lat="45.66509" lon="5.27861">
        <ele>254</ele>
        <time>2020-05-16T13:12:48.000Z</time>
      </trkpt>
      <trkpt lat="45.66512" lon="5.27859">
        <ele>254</ele>
        <time>2020-05-16T13:12:49.000Z</time>
      </trkpt>
      <trkpt lat="45.66517" lon="5.27857">
        <ele>254</ele>
        <time>2020-05-16T13:12:50.000Z</time>
      </trkpt>
      <trkpt lat="45.6652" lon="5.27856">
        <ele>254</ele>
        <time>2020-05-16T13:12:51.000Z</time>
      </trkpt>
      <trkpt lat="45.66525" lon="5.27855">
        <ele>254</ele>
        <time>2020-05-16T13:12:52.000Z</time>
      </trkpt>
      <trkpt lat="45.66528" lon="5.27854">
        <ele>254</ele>
        <time>2020-05-16T13:12:53.000Z</time>
      </trkpt>
      <trkpt lat="45.66532" lon="5.27853">
        <ele>254</ele>
        <time>2020-05-16T13:12:54.000Z</time>
      </trkpt>
      <trkpt lat="45.66536" lon="5.27853">
        <ele>253</ele>
        <time>2020-05-16T13:12:55.000Z</time>
      </trkpt>
      <trkpt lat="45.6654" lon="5.27852">
        <ele>253</ele>
        <time>2020-05-16T13:12:56.000Z</time>
      </trkpt>
      <trkpt lat="45.66544" lon="5.27852">
        <ele>252</ele>
        <time>2020-05-16T13:12:57.000Z</time>
      </trkpt>
      <trkpt lat="45.66548" lon="5.27852">
        <ele>252</ele>
        <time>2020-05-16T13:12:58.000Z</time>
      </trkpt>
      <trkpt lat="45.66553" lon="5.27852">
        <ele>252</ele>
        <time>2020-05-16T13:12:59.000Z</time>
      </trkpt>
      <trkpt lat="45.66557" lon="5.27852">
        <ele>251</ele>
        <time>2020-05-16T13:13:00.000Z</time>
      </trkpt>
      <trkpt lat="45.66561" lon="5.27851">
        <ele>252</ele>
        <time>2020-05-16T13:13:01.000Z</time>
      </trkpt>
      <trkpt lat="45.66565" lon="5.27851">
        <ele>252</ele>
        <time>2020-05-16T13:13:02.000Z</time>
      </trkpt>
      <trkpt lat="45.66569" lon="5.2785">
        <ele>252</ele>
        <time>2020-05-16T13:13:03.000Z</time>
      </trkpt>
      <trkpt lat="45.66573" lon="5.2785">
        <ele>252</ele>
        <time>2020-05-16T13:13:04.000Z</time>
      </trkpt>
      <trkpt lat="45.66577" lon="5.27849">
        <ele>252</ele>
        <time>2020-05-16T13:13:05.000Z</time>
      </trkpt>
      <trkpt lat="45.6658" lon="5.27848">
        <ele>253</ele>
        <time>2020-05-16T13:13:06.000Z</time>
      </trkpt>
      <trkpt lat="45.66584" lon="5.27848">
        <ele>253</ele>
        <time>2020-05-16T13:13:07.000Z</time>
      </trkpt>
      <trkpt lat="45.66589" lon="5.27847">
        <ele>254</ele>
        <time>2020-05-16T13:13:08.000Z</time>
      </trkpt>
      <trkpt lat="45.66593" lon="5.27847">
        <ele>254</ele>
        <time>2020-05-16T13:13:09.000Z</time>
      </trkpt>
      <trkpt lat="45.66597" lon="5.27847">
        <ele>254</ele>
        <time>2020-05-16T13:13:10.000Z</time>
      </trkpt>
      <trkpt lat="45.66602" lon="5.27847">
        <ele>255</ele>
        <time>2020-05-16T13:13:11.000Z</time>
      </trkpt>
      <trkpt lat="45.66607" lon="5.27847">
        <ele>254</ele>
        <time>2020-05-16T13:13:12.000Z</time>
      </trkpt>
      <trkpt lat="45.66611" lon="5.27848">
        <ele>255</ele>
        <time>2020-05-16T13:13:13.000Z</time>
      </trkpt>
      <trkpt lat="45.66616" lon="5.27848">
        <ele>255</ele>
        <time>2020-05-16T13:13:14.000Z</time>
      </trkpt>
      <trkpt lat="45.6662" lon="5.27849">
        <ele>255</ele>
        <time>2020-05-16T13:13:15.000Z</time>
      </trkpt>
      <trkpt lat="45.66625" lon="5.2785">
        <ele>255</ele>
        <time>2020-05-16T13:13:16.000Z</time>
      </trkpt>
      <trkpt lat="45.66629" lon="5.2785">
        <ele>256</ele>
        <time>2020-05-16T13:13:17.000Z</time>
      </trkpt>
      <trkpt lat="45.66634" lon="5.27851">
        <ele>256</ele>
        <time>2020-05-16T13:13:18.000Z</time>
      </trkpt>
      <trkpt lat="45.66638" lon="5.27851">
        <ele>256</ele>
        <time>2020-05-16T13:13:19.000Z</time>
      </trkpt>
      <trkpt lat="45.66643" lon="5.27852">
        <ele>256</ele>
        <time>2020-05-16T13:13:20.000Z</time>
      </trkpt>
      <trkpt lat="45.66648" lon="5.27852">
        <ele>256</ele>
        <time>2020-05-16T13:13:21.000Z</time>
      </trkpt>
      <trkpt lat="45.66652" lon="5.27853">
        <ele>257</ele>
        <time>2020-05-16T13:13:22.000Z</time>
      </trkpt>
      <trkpt lat="45.66657" lon="5.27854">
        <ele>257</ele>
        <time>2020-05-16T13:13:23.000Z</time>
      </trkpt>
      <trkpt lat="45.66662" lon="5.27854">
        <ele>258</ele>
        <time>2020-05-16T13:13:24.000Z</time>
      </trkpt>
      <trkpt lat="45.66666" lon="5.27855">
        <ele>258</ele>
        <time>2020-05-16T13:13:25.000Z</time>
      </trkpt>
      <trkpt lat="45.66671" lon="5.27856">
        <ele>259</ele>
        <time>2020-05-16T13:13:26.000Z</time>
      </trkpt>
      <trkpt lat="45.66675" lon="5.27857">
        <ele>259</ele>
        <time>2020-05-16T13:13:27.000Z</time>
      </trkpt>
      <trkpt lat="45.6668" lon="5.27858">
        <ele>259</ele>
        <time>2020-05-16T13:13:28.000Z</time>
      </trkpt>
      <trkpt lat="45.66684" lon="5.2786">
        <ele>260</ele>
        <time>2020-05-16T13:13:29.000Z</time>
      </trkpt>
      <trkpt lat="45.66689" lon="5.27862">
        <ele>261</ele>
        <time>2020-05-16T13:13:30.000Z</time>
      </trkpt>
      <trkpt lat="45.66693" lon="5.27863">
        <ele>262</ele>
        <time>2020-05-16T13:13:31.000Z</time>
      </trkpt>
      <trkpt lat="45.66697" lon="5.27865">
        <ele>262</ele>
        <time>2020-05-16T13:13:32.000Z</time>
      </trkpt>
      <trkpt lat="45.66701" lon="5.27867">
        <ele>263</ele>
        <time>2020-05-16T13:13:33.000Z</time>
      </trkpt>
      <trkpt lat="45.66705" lon="5.27869">
        <ele>264</ele>
        <time>2020-05-16T13:13:34.000Z</time>
      </trkpt>
      <trkpt lat="45.66709" lon="5.2787">
        <ele>265</ele>
        <time>2020-05-16T13:13:35.000Z</time>
      </trkpt>
      <trkpt lat="45.66713" lon="5.27872">
        <ele>267</ele>
        <time>2020-05-16T13:13:36.000Z</time>
      </trkpt>
      <trkpt lat="45.66716" lon="5.27873">
        <ele>268</ele>
        <time>2020-05-16T13:13:37.000Z</time>
      </trkpt>
      <trkpt lat="45.6672" lon="5.27875">
        <ele>270</ele>
        <time>2020-05-16T13:13:38.000Z</time>
      </trkpt>
      <trkpt lat="45.66723" lon="5.27876">
        <ele>271</ele>
        <time>2020-05-16T13:13:39.000Z</time>
      </trkpt>
      <trkpt lat="45.66726" lon="5.27877">
        <ele>272</ele>
        <time>2020-05-16T13:13:40.000Z</time>
      </trkpt>
      <trkpt lat="45.66729" lon="5.27878">
        <ele>274</ele>
        <time>2020-05-16T13:13:41.000Z</time>
      </trkpt>
      <trkpt lat="45.66732" lon="5.27879">
        <ele>276</ele>
        <time>2020-05-16T13:13:42.000Z</time>
      </trkpt>
      <trkpt lat="45.66735" lon="5.27879">
        <ele>278</ele>
        <time>2020-05-16T13:13:43.000Z</time>
      </trkpt>
      <trkpt lat="45.66737" lon="5.2788">
        <ele>279</ele>
        <time>2020-05-16T13:13:44.000Z</time>
      </trkpt>
      <trkpt lat="45.6674" lon="5.2788">
        <ele>281</ele>
        <time>2020-05-16T13:13:45.000Z</time>
      </trkpt>
      <trkpt lat="45.66743" lon="5.2788">
        <ele>282</ele>
        <time>2020-05-16T13:13:46.000Z</time>
      </trkpt>
      <trkpt lat="45.66747" lon="5.2788">
        <ele>284</ele>
        <time>2020-05-16T13:13:47.000Z</time>
      </trkpt>
      <trkpt lat="45.66751" lon="5.27881">
        <ele>285</ele>
        <time>2020-05-16T13:13:48.000Z</time>
      </trkpt>
      <trkpt lat="45.66755" lon="5.27882">
        <ele>285</ele>
        <time>2020-05-16T13:13:49.000Z</time>
      </trkpt>
      <trkpt lat="45.66758" lon="5.27883">
        <ele>286</ele>
        <time>2020-05-16T13:13:50.000Z</time>
      </trkpt>
      <trkpt lat="45.66762" lon="5.27883">
        <ele>287</ele>
        <time>2020-05-16T13:13:51.000Z</time>
      </trkpt>
      <trkpt lat="45.66766" lon="5.27884">
        <ele>288</ele>
        <time>2020-05-16T13:13:52.000Z</time>
      </trkpt>
      <trkpt lat="45.6677" lon="5.27883">
        <ele>288</ele>
        <time>2020-05-16T13:13:53.000Z</time>
      </trkpt>
      <trkpt lat="45.66774" lon="5.27883">
        <ele>288</ele>
        <time>2020-05-16T13:13:54.000Z</time>
      </trkpt>
      <trkpt lat="45.66779" lon="5.27883">
        <ele>286</ele>
        <time>2020-05-16T13:13:55.000Z</time>
      </trkpt>
      <trkpt lat="45.66783" lon="5.27883">
        <ele>285</ele>
        <time>2020-05-16T13:13:56.000Z</time>
      </trkpt>
      <trkpt lat="45.66787" lon="5.27882">
        <ele>285</ele>
        <time>2020-05-16T13:13:57.000Z</time>
      </trkpt>
      <trkpt lat="45.66792" lon="5.27881">
        <ele>284</ele>
        <time>2020-05-16T13:13:58.000Z</time>
      </trkpt>
      <trkpt lat="45.66796" lon="5.27879">
        <ele>283</ele>
        <time>2020-05-16T13:13:59.000Z</time>
      </trkpt>
      <trkpt lat="45.668" lon="5.27877">
        <ele>282</ele>
        <time>2020-05-16T13:14:00.000Z</time>
      </trkpt>
      <trkpt lat="45.66805" lon="5.27875">
        <ele>281</ele>
        <time>2020-05-16T13:14:01.000Z</time>
      </trkpt>
      <trkpt lat="45.66808" lon="5.27873">
        <ele>280</ele>
        <time>2020-05-16T13:14:02.000Z</time>
      </trkpt>
      <trkpt lat="45.66812" lon="5.2787">
        <ele>282</ele>
        <time>2020-05-16T13:14:03.000Z</time>
      </trkpt>
      <trkpt lat="45.66816" lon="5.27868">
        <ele>280</ele>
        <time>2020-05-16T13:14:04.000Z</time>
      </trkpt>
      <trkpt lat="45.6682" lon="5.27865">
        <ele>280</ele>
        <time>2020-05-16T13:14:05.000Z</time>
      </trkpt>
      <trkpt lat="45.66824" lon="5.27863">
        <ele>280</ele>
        <time>2020-05-16T13:14:06.000Z</time>
      </trkpt>
      <trkpt lat="45.66828" lon="5.2786">
        <ele>279</ele>
        <time>2020-05-16T13:14:07.000Z</time>
      </trkpt>
      <trkpt lat="45.66832" lon="5.27857">
        <ele>279</ele>
        <time>2020-05-16T13:14:08.000Z</time>
      </trkpt>
      <trkpt lat="45.66836" lon="5.27855">
        <ele>279</ele>
        <time>2020-05-16T13:14:09.000Z</time>
      </trkpt>
      <trkpt lat="45.66839" lon="5.27852">
        <ele>278</ele>
        <time>2020-05-16T13:14:10.000Z</time>
      </trkpt>
      <trkpt lat="45.66843" lon="5.27848">
        <ele>278</ele>
        <time>2020-05-16T13:14:11.000Z</time>
      </trkpt>
      <trkpt lat="45.66846" lon="5.27845">
        <ele>278</ele>
        <time>2020-05-16T13:14:12.000Z</time>
      </trkpt>
      <trkpt lat="45.66849" lon="5.27842">
        <ele>278</ele>
        <time>2020-05-16T13:14:13.000Z</time>
      </trkpt>
      <trkpt lat="45.66852" lon="5.27838">
        <ele>278</ele>
        <time>2020-05-16T13:14:14.000Z</time>
      </trkpt>
      <trkpt lat="45.66855" lon="5.27835">
        <ele>278</ele>
        <time>2020-05-16T13:14:15.000Z</time>
      </trkpt>
      <trkpt lat="45.66858" lon="5.27831">
        <ele>278</ele>
        <time>2020-05-16T13:14:16.000Z</time>
      </trkpt>
      <trkpt lat="45.6686" lon="5.27827">
        <ele>279</ele>
        <time>2020-05-16T13:14:17.000Z</time>
      </trkpt>
      <trkpt lat="45.66863" lon="5.27824">
        <ele>279</ele>
        <time>2020-05-16T13:14:18.000Z</time>
      </trkpt>
      <trkpt lat="45.66866" lon="5.27821">
        <ele>279</ele>
        <time>2020-05-16T13:14:19.000Z</time>
      </trkpt>
      <trkpt lat="45.66869" lon="5.27817">
        <ele>278</ele>
        <time>2020-05-16T13:14:20.000Z</time>
      </trkpt>
      <trkpt lat="45.66872" lon="5.27813">
        <ele>279</ele>
        <time>2020-05-16T13:14:21.000Z</time>
      </trkpt>
      <trkpt lat="45.66875" lon="5.2781">
        <ele>279</ele>
        <time>2020-05-16T13:14:22.000Z</time>
      </trkpt>
      <trkpt lat="45.66879" lon="5.27806">
        <ele>279</ele>
        <time>2020-05-16T13:14:23.000Z</time>
      </trkpt>
      <trkpt lat="45.66882" lon="5.27803">
        <ele>279</ele>
        <time>2020-05-16T13:14:24.000Z</time>
      </trkpt>
      <trkpt lat="45.66885" lon="5.27799">
        <ele>279</ele>
        <time>2020-05-16T13:14:25.000Z</time>
      </trkpt>
      <trkpt lat="45.66888" lon="5.27795">
        <ele>279</ele>
        <time>2020-05-16T13:14:26.000Z</time>
      </trkpt>
      <trkpt lat="45.66891" lon="5.27791">
        <ele>279</ele>
        <time>2020-05-16T13:14:27.000Z</time>
      </trkpt>
      <trkpt lat="45.66893" lon="5.27787">
        <ele>279</ele>
        <time>2020-05-16T13:14:28.000Z</time>
      </trkpt>
      <trkpt lat="45.66896" lon="5.27783">
        <ele>280</ele>
        <time>2020-05-16T13:14:29.000Z</time>
      </trkpt>
      <trkpt lat="45.66899" lon="5.2778">
        <ele>280</ele>
        <time>2020-05-16T13:14:30.000Z</time>
      </trkpt>
      <trkpt lat="45.66902" lon="5.27776">
        <ele>280</ele>
        <time>2020-05-16T13:14:31.000Z</time>
      </trkpt>
      <trkpt lat="45.66905" lon="5.27772">
        <ele>280</ele>
        <time>2020-05-16T13:14:32.000Z</time>
      </trkpt>
      <trkpt lat="45.66908" lon="5.27769">
        <ele>280</ele>
        <time>2020-05-16T13:14:33.000Z</time>
      </trkpt>
      <trkpt lat="45.6691" lon="5.27765">
        <ele>280</ele>
        <time>2020-05-16T13:14:34.000Z</time>
      </trkpt>
      <trkpt lat="45.66913" lon="5.27762">
        <ele>281</ele>
        <time>2020-05-16T13:14:35.000Z</time>
      </trkpt>
      <trkpt lat="45.66916" lon="5.27758">
        <ele>281</ele>
        <time>2020-05-16T13:14:36.000Z</time>
      </trkpt>
      <trkpt lat="45.66919" lon="5.27754">
        <ele>281</ele>
        <time>2020-05-16T13:14:37.000Z</time>
      </trkpt>
      <trkpt lat="45.66922" lon="5.27751">
        <ele>281</ele>
        <time>2020-05-16T13:14:38.000Z</time>
      </trkpt>
      <trkpt lat="45.66925" lon="5.27747">
        <ele>281</ele>
        <time>2020-05-16T13:14:39.000Z</time>
      </trkpt>
      <trkpt lat="45.66928" lon="5.27743">
        <ele>281</ele>
        <time>2020-05-16T13:14:40.000Z</time>
      </trkpt>
      <trkpt lat="45.66931" lon="5.27739">
        <ele>281</ele>
        <time>2020-05-16T13:14:41.000Z</time>
      </trkpt>
      <trkpt lat="45.66934" lon="5.27736">
        <ele>281</ele>
        <time>2020-05-16T13:14:42.000Z</time>
      </trkpt>
      <trkpt lat="45.66937" lon="5.27732">
        <ele>281</ele>
        <time>2020-05-16T13:14:43.000Z</time>
      </trkpt>
      <trkpt lat="45.6694" lon="5.27728">
        <ele>281</ele>
        <time>2020-05-16T13:14:44.000Z</time>
      </trkpt>
      <trkpt lat="45.66942" lon="5.27725">
        <ele>282</ele>
        <time>2020-05-16T13:14:45.000Z</time>
      </trkpt>
      <trkpt lat="45.66945" lon="5.2772">
        <ele>282</ele>
        <time>2020-05-16T13:14:46.000Z</time>
      </trkpt>
      <trkpt lat="45.66948" lon="5.27716">
        <ele>282</ele>
        <time>2020-05-16T13:14:47.000Z</time>
      </trkpt>
      <trkpt lat="45.6695" lon="5.27712">
        <ele>282</ele>
        <time>2020-05-16T13:14:48.000Z</time>
      </trkpt>
      <trkpt lat="45.66953" lon="5.27709">
        <ele>282</ele>
        <time>2020-05-16T13:14:49.000Z</time>
      </trkpt>
      <trkpt lat="45.66956" lon="5.27705">
        <ele>282</ele>
        <time>2020-05-16T13:14:50.000Z</time>
      </trkpt>
      <trkpt lat="45.66959" lon="5.27702">
        <ele>283</ele>
        <time>2020-05-16T13:14:51.000Z</time>
      </trkpt>
      <trkpt lat="45.66962" lon="5.27698">
        <ele>283</ele>
        <time>2020-05-16T13:14:52.000Z</time>
      </trkpt>
      <trkpt lat="45.66965" lon="5.27694">
        <ele>283</ele>
        <time>2020-05-16T13:14:53.000Z</time>
      </trkpt>
      <trkpt lat="45.66968" lon="5.2769">
        <ele>283</ele>
        <time>2020-05-16T13:14:54.000Z</time>
      </trkpt>
      <trkpt lat="45.66971" lon="5.27686">
        <ele>284</ele>
        <time>2020-05-16T13:14:55.000Z</time>
      </trkpt>
      <trkpt lat="45.66975" lon="5.27683">
        <ele>284</ele>
        <time>2020-05-16T13:14:56.000Z</time>
      </trkpt>
      <trkpt lat="45.66978" lon="5.27679">
        <ele>284</ele>
        <time>2020-05-16T13:14:57.000Z</time>
      </trkpt>
      <trkpt lat="45.66981" lon="5.27676">
        <ele>284</ele>
        <time>2020-05-16T13:14:58.000Z</time>
      </trkpt>
      <trkpt lat="45.66984" lon="5.27673">
        <ele>284</ele>
        <time>2020-05-16T13:14:59.000Z</time>
      </trkpt>
      <trkpt lat="45.66988" lon="5.27669">
        <ele>284</ele>
        <time>2020-05-16T13:15:00.000Z</time>
      </trkpt>
      <trkpt lat="45.66991" lon="5.27665">
        <ele>284</ele>
        <time>2020-05-16T13:15:01.000Z</time>
      </trkpt>
      <trkpt lat="45.66994" lon="5.27661">
        <ele>285</ele>
        <time>2020-05-16T13:15:02.000Z</time>
      </trkpt>
      <trkpt lat="45.66997" lon="5.27656">
        <ele>285</ele>
        <time>2020-05-16T13:15:03.000Z</time>
      </trkpt>
      <trkpt lat="45.67" lon="5.27652">
        <ele>285</ele>
        <time>2020-05-16T13:15:04.000Z</time>
      </trkpt>
      <trkpt lat="45.67003" lon="5.27648">
        <ele>286</ele>
        <time>2020-05-16T13:15:05.000Z</time>
      </trkpt>
      <trkpt lat="45.67006" lon="5.27644">
        <ele>286</ele>
        <time>2020-05-16T13:15:06.000Z</time>
      </trkpt>
      <trkpt lat="45.67009" lon="5.2764">
        <ele>286</ele>
        <time>2020-05-16T13:15:07.000Z</time>
      </trkpt>
      <trkpt lat="45.67012" lon="5.27636">
        <ele>286</ele>
        <time>2020-05-16T13:15:08.000Z</time>
      </trkpt>
      <trkpt lat="45.67015" lon="5.27632">
        <ele>286</ele>
        <time>2020-05-16T13:15:09.000Z</time>
      </trkpt>
      <trkpt lat="45.67018" lon="5.27628">
        <ele>287</ele>
        <time>2020-05-16T13:15:10.000Z</time>
      </trkpt>
      <trkpt lat="45.67022" lon="5.27625">
        <ele>287</ele>
        <time>2020-05-16T13:15:11.000Z</time>
      </trkpt>
      <trkpt lat="45.67025" lon="5.27621">
        <ele>287</ele>
        <time>2020-05-16T13:15:12.000Z</time>
      </trkpt>
      <trkpt lat="45.67029" lon="5.27617">
        <ele>288</ele>
        <time>2020-05-16T13:15:13.000Z</time>
      </trkpt>
      <trkpt lat="45.67033" lon="5.27614">
        <ele>288</ele>
        <time>2020-05-16T13:15:14.000Z</time>
      </trkpt>
      <trkpt lat="45.67036" lon="5.2761">
        <ele>288</ele>
        <time>2020-05-16T13:15:15.000Z</time>
      </trkpt>
      <trkpt lat="45.6704" lon="5.27606">
        <ele>289</ele>
        <time>2020-05-16T13:15:16.000Z</time>
      </trkpt>
      <trkpt lat="45.67043" lon="5.27603">
        <ele>289</ele>
        <time>2020-05-16T13:15:17.000Z</time>
      </trkpt>
      <trkpt lat="45.67047" lon="5.276">
        <ele>289</ele>
        <time>2020-05-16T13:15:18.000Z</time>
      </trkpt>
      <trkpt lat="45.67051" lon="5.27597">
        <ele>289</ele>
        <time>2020-05-16T13:15:19.000Z</time>
      </trkpt>
      <trkpt lat="45.67055" lon="5.27594">
        <ele>289</ele>
        <time>2020-05-16T13:15:20.000Z</time>
      </trkpt>
      <trkpt lat="45.67059" lon="5.27591">
        <ele>290</ele>
        <time>2020-05-16T13:15:21.000Z</time>
      </trkpt>
      <trkpt lat="45.67062" lon="5.27588">
        <ele>290</ele>
        <time>2020-05-16T13:15:22.000Z</time>
      </trkpt>
      <trkpt lat="45.67066" lon="5.27585">
        <ele>290</ele>
        <time>2020-05-16T13:15:23.000Z</time>
      </trkpt>
      <trkpt lat="45.6707" lon="5.27582">
        <ele>290</ele>
        <time>2020-05-16T13:15:24.000Z</time>
      </trkpt>
      <trkpt lat="45.67074" lon="5.27579">
        <ele>290</ele>
        <time>2020-05-16T13:15:25.000Z</time>
      </trkpt>
      <trkpt lat="45.67077" lon="5.27575">
        <ele>289</ele>
        <time>2020-05-16T13:15:26.000Z</time>
      </trkpt>
      <trkpt lat="45.67081" lon="5.27572">
        <ele>290</ele>
        <time>2020-05-16T13:15:27.000Z</time>
      </trkpt>
      <trkpt lat="45.67085" lon="5.27568">
        <ele>290</ele>
        <time>2020-05-16T13:15:28.000Z</time>
      </trkpt>
      <trkpt lat="45.67087" lon="5.27563">
        <ele>291</ele>
        <time>2020-05-16T13:15:29.000Z</time>
      </trkpt>
      <trkpt lat="45.6709" lon="5.27558">
        <ele>291</ele>
        <time>2020-05-16T13:15:30.000Z</time>
      </trkpt>
      <trkpt lat="45.67093" lon="5.27553">
        <ele>291</ele>
        <time>2020-05-16T13:15:31.000Z</time>
      </trkpt>
      <trkpt lat="45.67096" lon="5.27548">
        <ele>292</ele>
        <time>2020-05-16T13:15:32.000Z</time>
      </trkpt>
      <trkpt lat="45.67099" lon="5.27544">
        <ele>292</ele>
        <time>2020-05-16T13:15:33.000Z</time>
      </trkpt>
      <trkpt lat="45.67101" lon="5.27539">
        <ele>292</ele>
        <time>2020-05-16T13:15:34.000Z</time>
      </trkpt>
      <trkpt lat="45.67104" lon="5.27534">
        <ele>291</ele>
        <time>2020-05-16T13:15:35.000Z</time>
      </trkpt>
      <trkpt lat="45.67106" lon="5.27529">
        <ele>291</ele>
        <time>2020-05-16T13:15:36.000Z</time>
      </trkpt>
      <trkpt lat="45.67109" lon="5.27524">
        <ele>291</ele>
        <time>2020-05-16T13:15:37.000Z</time>
      </trkpt>
      <trkpt lat="45.67112" lon="5.27519">
        <ele>291</ele>
        <time>2020-05-16T13:15:38.000Z</time>
      </trkpt>
      <trkpt lat="45.67114" lon="5.27514">
        <ele>291</ele>
        <time>2020-05-16T13:15:39.000Z</time>
      </trkpt>
      <trkpt lat="45.67117" lon="5.27509">
        <ele>291</ele>
        <time>2020-05-16T13:15:40.000Z</time>
      </trkpt>
      <trkpt lat="45.67119" lon="5.27504">
        <ele>291</ele>
        <time>2020-05-16T13:15:41.000Z</time>
      </trkpt>
      <trkpt lat="45.67121" lon="5.27499">
        <ele>291</ele>
        <time>2020-05-16T13:15:42.000Z</time>
      </trkpt>
      <trkpt lat="45.67124" lon="5.27494">
        <ele>291</ele>
        <time>2020-05-16T13:15:43.000Z</time>
      </trkpt>
      <trkpt lat="45.67126" lon="5.27489">
        <ele>291</ele>
        <time>2020-05-16T13:15:44.000Z</time>
      </trkpt>
      <trkpt lat="45.67128" lon="5.27484">
        <ele>291</ele>
        <time>2020-05-16T13:15:45.000Z</time>
      </trkpt>
      <trkpt lat="45.6713" lon="5.27479">
        <ele>291</ele>
        <time>2020-05-16T13:15:46.000Z</time>
      </trkpt>
      <trkpt lat="45.67132" lon="5.27473">
        <ele>292</ele>
        <time>2020-05-16T13:15:47.000Z</time>
      </trkpt>
      <trkpt lat="45.67134" lon="5.27468">
        <ele>292</ele>
        <time>2020-05-16T13:15:48.000Z</time>
      </trkpt>
      <trkpt lat="45.67136" lon="5.27463">
        <ele>292</ele>
        <time>2020-05-16T13:15:49.000Z</time>
      </trkpt>
      <trkpt lat="45.67138" lon="5.27458">
        <ele>293</ele>
        <time>2020-05-16T13:15:50.000Z</time>
      </trkpt>
      <trkpt lat="45.6714" lon="5.27453">
        <ele>293</ele>
        <time>2020-05-16T13:15:51.000Z</time>
      </trkpt>
      <trkpt lat="45.67142" lon="5.27447">
        <ele>294</ele>
        <time>2020-05-16T13:15:52.000Z</time>
      </trkpt>
      <trkpt lat="45.67144" lon="5.27442">
        <ele>294</ele>
        <time>2020-05-16T13:15:53.000Z</time>
      </trkpt>
      <trkpt lat="45.67146" lon="5.27438">
        <ele>294</ele>
        <time>2020-05-16T13:15:54.000Z</time>
      </trkpt>
      <trkpt lat="45.67147" lon="5.27433">
        <ele>295</ele>
        <time>2020-05-16T13:15:55.000Z</time>
      </trkpt>
      <trkpt lat="45.67149" lon="5.27428">
        <ele>295</ele>
        <time>2020-05-16T13:15:56.000Z</time>
      </trkpt>
      <trkpt lat="45.67151" lon="5.27423">
        <ele>296</ele>
        <time>2020-05-16T13:15:57.000Z</time>
      </trkpt>
      <trkpt lat="45.67153" lon="5.27418">
        <ele>296</ele>
        <time>2020-05-16T13:15:58.000Z</time>
      </trkpt>
      <trkpt lat="45.67155" lon="5.27414">
        <ele>297</ele>
        <time>2020-05-16T13:15:59.000Z</time>
      </trkpt>
      <trkpt lat="45.67156" lon="5.27409">
        <ele>297</ele>
        <time>2020-05-16T13:16:00.000Z</time>
      </trkpt>
      <trkpt lat="45.67158" lon="5.27405">
        <ele>297</ele>
        <time>2020-05-16T13:16:01.000Z</time>
      </trkpt>
      <trkpt lat="45.6716" lon="5.274">
        <ele>297</ele>
        <time>2020-05-16T13:16:02.000Z</time>
      </trkpt>
      <trkpt lat="45.67161" lon="5.27396">
        <ele>297</ele>
        <time>2020-05-16T13:16:03.000Z</time>
      </trkpt>
      <trkpt lat="45.67163" lon="5.27391">
        <ele>298</ele>
        <time>2020-05-16T13:16:04.000Z</time>
      </trkpt>
      <trkpt lat="45.67165" lon="5.27387">
        <ele>298</ele>
        <time>2020-05-16T13:16:05.000Z</time>
      </trkpt>
      <trkpt lat="45.67167" lon="5.27382">
        <ele>298</ele>
        <time>2020-05-16T13:16:06.000Z</time>
      </trkpt>
      <trkpt lat="45.67169" lon="5.27377">
        <ele>299</ele>
        <time>2020-05-16T13:16:07.000Z</time>
      </trkpt>
      <trkpt lat="45.67171" lon="5.27373">
        <ele>299</ele>
        <time>2020-05-16T13:16:08.000Z</time>
      </trkpt>
      <trkpt lat="45.67173" lon="5.27368">
        <ele>300</ele>
        <time>2020-05-16T13:16:09.000Z</time>
      </trkpt>
      <trkpt lat="45.67175" lon="5.27363">
        <ele>300</ele>
        <time>2020-05-16T13:16:10.000Z</time>
      </trkpt>
      <trkpt lat="45.67177" lon="5.27358">
        <ele>300</ele>
        <time>2020-05-16T13:16:11.000Z</time>
      </trkpt>
      <trkpt lat="45.67179" lon="5.27354">
        <ele>301</ele>
        <time>2020-05-16T13:16:12.000Z</time>
      </trkpt>
      <trkpt lat="45.67182" lon="5.27349">
        <ele>301</ele>
        <time>2020-05-16T13:16:13.000Z</time>
      </trkpt>
      <trkpt lat="45.67184" lon="5.27344">
        <ele>301</ele>
        <time>2020-05-16T13:16:14.000Z</time>
      </trkpt>
      <trkpt lat="45.67187" lon="5.27339">
        <ele>302</ele>
        <time>2020-05-16T13:16:15.000Z</time>
      </trkpt>
      <trkpt lat="45.67189" lon="5.27334">
        <ele>302</ele>
        <time>2020-05-16T13:16:16.000Z</time>
      </trkpt>
      <trkpt lat="45.67192" lon="5.2733">
        <ele>302</ele>
        <time>2020-05-16T13:16:17.000Z</time>
      </trkpt>
      <trkpt lat="45.67194" lon="5.27326">
        <ele>302</ele>
        <time>2020-05-16T13:16:18.000Z</time>
      </trkpt>
      <trkpt lat="45.67197" lon="5.27322">
        <ele>303</ele>
        <time>2020-05-16T13:16:19.000Z</time>
      </trkpt>
      <trkpt lat="45.672" lon="5.27318">
        <ele>303</ele>
        <time>2020-05-16T13:16:20.000Z</time>
      </trkpt>
      <trkpt lat="45.67202" lon="5.27314">
        <ele>303</ele>
        <time>2020-05-16T13:16:21.000Z</time>
      </trkpt>
      <trkpt lat="45.67205" lon="5.2731">
        <ele>303</ele>
        <time>2020-05-16T13:16:22.000Z</time>
      </trkpt>
      <trkpt lat="45.67208" lon="5.27306">
        <ele>304</ele>
        <time>2020-05-16T13:16:23.000Z</time>
      </trkpt>
      <trkpt lat="45.67211" lon="5.27302">
        <ele>304</ele>
        <time>2020-05-16T13:16:24.000Z</time>
      </trkpt>
      <trkpt lat="45.67215" lon="5.27298">
        <ele>304</ele>
        <time>2020-05-16T13:16:25.000Z</time>
      </trkpt>
      <trkpt lat="45.67218" lon="5.27295">
        <ele>304</ele>
        <time>2020-05-16T13:16:26.000Z</time>
      </trkpt>
      <trkpt lat="45.67221" lon="5.27291">
        <ele>305</ele>
        <time>2020-05-16T13:16:27.000Z</time>
      </trkpt>
      <trkpt lat="45.67225" lon="5.27288">
        <ele>305</ele>
        <time>2020-05-16T13:16:28.000Z</time>
      </trkpt>
      <trkpt lat="45.67228" lon="5.27284">
        <ele>305</ele>
        <time>2020-05-16T13:16:29.000Z</time>
      </trkpt>
      <trkpt lat="45.67232" lon="5.27281">
        <ele>305</ele>
        <time>2020-05-16T13:16:30.000Z</time>
      </trkpt>
      <trkpt lat="45.67237" lon="5.27278">
        <ele>305</ele>
        <time>2020-05-16T13:16:31.000Z</time>
      </trkpt>
      <trkpt lat="45.67241" lon="5.27275">
        <ele>304</ele>
        <time>2020-05-16T13:16:32.000Z</time>
      </trkpt>
      <trkpt lat="45.67245" lon="5.27273">
        <ele>305</ele>
        <time>2020-05-16T13:16:33.000Z</time>
      </trkpt>
      <trkpt lat="45.67249" lon="5.2727">
        <ele>305</ele>
        <time>2020-05-16T13:16:34.000Z</time>
      </trkpt>
      <trkpt lat="45.67254" lon="5.27268">
        <ele>305</ele>
        <time>2020-05-16T13:16:35.000Z</time>
      </trkpt>
      <trkpt lat="45.67258" lon="5.27266">
        <ele>305</ele>
        <time>2020-05-16T13:16:36.000Z</time>
      </trkpt>
      <trkpt lat="45.67263" lon="5.27265">
        <ele>305</ele>
        <time>2020-05-16T13:16:37.000Z</time>
      </trkpt>
      <trkpt lat="45.67268" lon="5.27263">
        <ele>304</ele>
        <time>2020-05-16T13:16:38.000Z</time>
      </trkpt>
      <trkpt lat="45.67273" lon="5.27262">
        <ele>304</ele>
        <time>2020-05-16T13:16:39.000Z</time>
      </trkpt>
      <trkpt lat="45.67279" lon="5.2726">
        <ele>304</ele>
        <time>2020-05-16T13:16:40.000Z</time>
      </trkpt>
      <trkpt lat="45.67285" lon="5.27258">
        <ele>303</ele>
        <time>2020-05-16T13:16:41.000Z</time>
      </trkpt>
      <trkpt lat="45.67291" lon="5.27257">
        <ele>304</ele>
        <time>2020-05-16T13:16:42.000Z</time>
      </trkpt>
      <trkpt lat="45.67297" lon="5.27255">
        <ele>303</ele>
        <time>2020-05-16T13:16:43.000Z</time>
      </trkpt>
      <trkpt lat="45.67303" lon="5.27254">
        <ele>303</ele>
        <time>2020-05-16T13:16:44.000Z</time>
      </trkpt>
      <trkpt lat="45.67309" lon="5.27253">
        <ele>304</ele>
        <time>2020-05-16T13:16:45.000Z</time>
      </trkpt>
      <trkpt lat="45.67315" lon="5.27252">
        <ele>303</ele>
        <time>2020-05-16T13:16:46.000Z</time>
      </trkpt>
      <trkpt lat="45.67321" lon="5.27251">
        <ele>304</ele>
        <time>2020-05-16T13:16:47.000Z</time>
      </trkpt>
      <trkpt lat="45.67326" lon="5.27248">
        <ele>306</ele>
        <time>2020-05-16T13:16:48.000Z</time>
      </trkpt>
      <trkpt lat="45.67331" lon="5.27244">
        <ele>306</ele>
        <time>2020-05-16T13:16:49.000Z</time>
      </trkpt>
      <trkpt lat="45.67335" lon="5.27238">
        <ele>305</ele>
        <time>2020-05-16T13:16:50.000Z</time>
      </trkpt>
      <trkpt lat="45.67339" lon="5.27231">
        <ele>304</ele>
        <time>2020-05-16T13:16:51.000Z</time>
      </trkpt>
      <trkpt lat="45.67342" lon="5.27225">
        <ele>303</ele>
        <time>2020-05-16T13:16:52.000Z</time>
      </trkpt>
      <trkpt lat="45.67344" lon="5.27218">
        <ele>302</ele>
        <time>2020-05-16T13:16:53.000Z</time>
      </trkpt>
      <trkpt lat="45.67347" lon="5.27211">
        <ele>302</ele>
        <time>2020-05-16T13:16:54.000Z</time>
      </trkpt>
      <trkpt lat="45.6735" lon="5.27204">
        <ele>302</ele>
        <time>2020-05-16T13:16:55.000Z</time>
      </trkpt>
      <trkpt lat="45.67353" lon="5.27197">
        <ele>303</ele>
        <time>2020-05-16T13:16:56.000Z</time>
      </trkpt>
      <trkpt lat="45.67356" lon="5.27191">
        <ele>303</ele>
        <time>2020-05-16T13:16:57.000Z</time>
      </trkpt>
      <trkpt lat="45.67359" lon="5.27184">
        <ele>303</ele>
        <time>2020-05-16T13:16:58.000Z</time>
      </trkpt>
      <trkpt lat="45.67363" lon="5.27177">
        <ele>303</ele>
        <time>2020-05-16T13:16:59.000Z</time>
      </trkpt>
      <trkpt lat="45.67366" lon="5.27171">
        <ele>303</ele>
        <time>2020-05-16T13:17:00.000Z</time>
      </trkpt>
      <trkpt lat="45.67369" lon="5.27165">
        <ele>303</ele>
        <time>2020-05-16T13:17:01.000Z</time>
      </trkpt>
      <trkpt lat="45.67372" lon="5.27159">
        <ele>303</ele>
        <time>2020-05-16T13:17:02.000Z</time>
      </trkpt>
      <trkpt lat="45.67375" lon="5.27152">
        <ele>303</ele>
        <time>2020-05-16T13:17:03.000Z</time>
      </trkpt>
      <trkpt lat="45.67378" lon="5.27146">
        <ele>303</ele>
        <time>2020-05-16T13:17:04.000Z</time>
      </trkpt>
      <trkpt lat="45.6738" lon="5.2714">
        <ele>303</ele>
        <time>2020-05-16T13:17:05.000Z</time>
      </trkpt>
      <trkpt lat="45.67383" lon="5.27133">
        <ele>303</ele>
        <time>2020-05-16T13:17:06.000Z</time>
      </trkpt>
      <trkpt lat="45.67386" lon="5.27127">
        <ele>302</ele>
        <time>2020-05-16T13:17:07.000Z</time>
      </trkpt>
      <trkpt lat="45.67389" lon="5.27121">
        <ele>302</ele>
        <time>2020-05-16T13:17:08.000Z</time>
      </trkpt>
      <trkpt lat="45.67392" lon="5.27114">
        <ele>303</ele>
        <time>2020-05-16T13:17:09.000Z</time>
      </trkpt>
      <trkpt lat="45.67396" lon="5.27108">
        <ele>303</ele>
        <time>2020-05-16T13:17:10.000Z</time>
      </trkpt>
      <trkpt lat="45.67399" lon="5.27101">
        <ele>303</ele>
        <time>2020-05-16T13:17:11.000Z</time>
      </trkpt>
      <trkpt lat="45.67402" lon="5.27094">
        <ele>303</ele>
        <time>2020-05-16T13:17:12.000Z</time>
      </trkpt>
      <trkpt lat="45.67406" lon="5.27088">
        <ele>303</ele>
        <time>2020-05-16T13:17:13.000Z</time>
      </trkpt>
      <trkpt lat="45.67409" lon="5.27081">
        <ele>303</ele>
        <time>2020-05-16T13:17:14.000Z</time>
      </trkpt>
      <trkpt lat="45.67413" lon="5.27074">
        <ele>303</ele>
        <time>2020-05-16T13:17:15.000Z</time>
      </trkpt>
      <trkpt lat="45.67416" lon="5.27067">
        <ele>303</ele>
        <time>2020-05-16T13:17:16.000Z</time>
      </trkpt>
      <trkpt lat="45.67419" lon="5.27061">
        <ele>304</ele>
        <time>2020-05-16T13:17:17.000Z</time>
      </trkpt>
      <trkpt lat="45.67423" lon="5.27054">
        <ele>304</ele>
        <time>2020-05-16T13:17:18.000Z</time>
      </trkpt>
      <trkpt lat="45.67427" lon="5.27048">
        <ele>304</ele>
        <time>2020-05-16T13:17:19.000Z</time>
      </trkpt>
      <trkpt lat="45.6743" lon="5.27041">
        <ele>304</ele>
        <time>2020-05-16T13:17:20.000Z</time>
      </trkpt>
      <trkpt lat="45.67434" lon="5.27035">
        <ele>304</ele>
        <time>2020-05-16T13:17:21.000Z</time>
      </trkpt>
      <trkpt lat="45.67437" lon="5.27028">
        <ele>304</ele>
        <time>2020-05-16T13:17:22.000Z</time>
      </trkpt>
      <trkpt lat="45.67441" lon="5.27022">
        <ele>304</ele>
        <time>2020-05-16T13:17:23.000Z</time>
      </trkpt>
      <trkpt lat="45.67444" lon="5.27015">
        <ele>304</ele>
        <time>2020-05-16T13:17:24.000Z</time>
      </trkpt>
      <trkpt lat="45.67448" lon="5.27008">
        <ele>304</ele>
        <time>2020-05-16T13:17:25.000Z</time>
      </trkpt>
      <trkpt lat="45.67452" lon="5.27002">
        <ele>304</ele>
        <time>2020-05-16T13:17:26.000Z</time>
      </trkpt>
      <trkpt lat="45.67456" lon="5.26996">
        <ele>304</ele>
        <time>2020-05-16T13:17:27.000Z</time>
      </trkpt>
      <trkpt lat="45.6746" lon="5.2699">
        <ele>304</ele>
        <time>2020-05-16T13:17:28.000Z</time>
      </trkpt>
      <trkpt lat="45.67463" lon="5.26984">
        <ele>304</ele>
        <time>2020-05-16T13:17:29.000Z</time>
      </trkpt>
      <trkpt lat="45.67467" lon="5.26978">
        <ele>303</ele>
        <time>2020-05-16T13:17:30.000Z</time>
      </trkpt>
      <trkpt lat="45.67471" lon="5.26972">
        <ele>303</ele>
        <time>2020-05-16T13:17:31.000Z</time>
      </trkpt>
      <trkpt lat="45.67475" lon="5.26966">
        <ele>302</ele>
        <time>2020-05-16T13:17:32.000Z</time>
      </trkpt>
      <trkpt lat="45.67479" lon="5.26961">
        <ele>301</ele>
        <time>2020-05-16T13:17:33.000Z</time>
      </trkpt>
      <trkpt lat="45.67483" lon="5.26955">
        <ele>301</ele>
        <time>2020-05-16T13:17:34.000Z</time>
      </trkpt>
      <trkpt lat="45.67487" lon="5.2695">
        <ele>300</ele>
        <time>2020-05-16T13:17:35.000Z</time>
      </trkpt>
      <trkpt lat="45.67491" lon="5.26944">
        <ele>299</ele>
        <time>2020-05-16T13:17:36.000Z</time>
      </trkpt>
      <trkpt lat="45.67495" lon="5.26939">
        <ele>299</ele>
        <time>2020-05-16T13:17:37.000Z</time>
      </trkpt>
      <trkpt lat="45.67499" lon="5.26934">
        <ele>299</ele>
        <time>2020-05-16T13:17:38.000Z</time>
      </trkpt>
      <trkpt lat="45.67504" lon="5.26929">
        <ele>300</ele>
        <time>2020-05-16T13:17:39.000Z</time>
      </trkpt>
      <trkpt lat="45.67508" lon="5.26923">
        <ele>299</ele>
        <time>2020-05-16T13:17:40.000Z</time>
      </trkpt>
      <trkpt lat="45.67512" lon="5.26918">
        <ele>298</ele>
        <time>2020-05-16T13:17:41.000Z</time>
      </trkpt>
      <trkpt lat="45.67516" lon="5.26913">
        <ele>298</ele>
        <time>2020-05-16T13:17:42.000Z</time>
      </trkpt>
      <trkpt lat="45.6752" lon="5.26908">
        <ele>297</ele>
        <time>2020-05-16T13:17:43.000Z</time>
      </trkpt>
      <trkpt lat="45.67524" lon="5.26902">
        <ele>297</ele>
        <time>2020-05-16T13:17:44.000Z</time>
      </trkpt>
      <trkpt lat="45.67528" lon="5.26897">
        <ele>297</ele>
        <time>2020-05-16T13:17:45.000Z</time>
      </trkpt>
      <trkpt lat="45.67533" lon="5.26892">
        <ele>296</ele>
        <time>2020-05-16T13:17:46.000Z</time>
      </trkpt>
      <trkpt lat="45.67538" lon="5.26886">
        <ele>296</ele>
        <time>2020-05-16T13:17:47.000Z</time>
      </trkpt>
      <trkpt lat="45.67543" lon="5.26881">
        <ele>296</ele>
        <time>2020-05-16T13:17:48.000Z</time>
      </trkpt>
      <trkpt lat="45.67549" lon="5.26877">
        <ele>296</ele>
        <time>2020-05-16T13:17:49.000Z</time>
      </trkpt>
      <trkpt lat="45.67555" lon="5.26873">
        <ele>297</ele>
        <time>2020-05-16T13:17:50.000Z</time>
      </trkpt>
      <trkpt lat="45.67561" lon="5.26869">
        <ele>297</ele>
        <time>2020-05-16T13:17:51.000Z</time>
      </trkpt>
      <trkpt lat="45.67567" lon="5.26865">
        <ele>299</ele>
        <time>2020-05-16T13:17:52.000Z</time>
      </trkpt>
      <trkpt lat="45.67573" lon="5.26861">
        <ele>299</ele>
        <time>2020-05-16T13:17:53.000Z</time>
      </trkpt>
      <trkpt lat="45.67579" lon="5.26857">
        <ele>300</ele>
        <time>2020-05-16T13:17:54.000Z</time>
      </trkpt>
      <trkpt lat="45.67585" lon="5.26853">
        <ele>300</ele>
        <time>2020-05-16T13:17:55.000Z</time>
      </trkpt>
      <trkpt lat="45.67592" lon="5.26849">
        <ele>302</ele>
        <time>2020-05-16T13:17:56.000Z</time>
      </trkpt>
      <trkpt lat="45.67599" lon="5.26844">
        <ele>304</ele>
        <time>2020-05-16T13:17:57.000Z</time>
      </trkpt>
      <trkpt lat="45.67606" lon="5.2684">
        <ele>306</ele>
        <time>2020-05-16T13:17:58.000Z</time>
      </trkpt>
      <trkpt lat="45.67613" lon="5.26837">
        <ele>308</ele>
        <time>2020-05-16T13:17:59.000Z</time>
      </trkpt>
      <trkpt lat="45.67621" lon="5.26835">
        <ele>310</ele>
        <time>2020-05-16T13:18:00.000Z</time>
      </trkpt>
      <trkpt lat="45.67628" lon="5.26832">
        <ele>311</ele>
        <time>2020-05-16T13:18:01.000Z</time>
      </trkpt>
      <trkpt lat="45.67634" lon="5.26829">
        <ele>311</ele>
        <time>2020-05-16T13:18:02.000Z</time>
      </trkpt>
      <trkpt lat="45.6764" lon="5.26826">
        <ele>311</ele>
        <time>2020-05-16T13:18:03.000Z</time>
      </trkpt>
      <trkpt lat="45.67645" lon="5.26823">
        <ele>311</ele>
        <time>2020-05-16T13:18:04.000Z</time>
      </trkpt>
      <trkpt lat="45.6765" lon="5.2682">
        <ele>311</ele>
        <time>2020-05-16T13:18:05.000Z</time>
      </trkpt>
      <trkpt lat="45.67655" lon="5.26818">
        <ele>311</ele>
        <time>2020-05-16T13:18:06.000Z</time>
      </trkpt>
      <trkpt lat="45.67661" lon="5.26815">
        <ele>311</ele>
        <time>2020-05-16T13:18:07.000Z</time>
      </trkpt>
      <trkpt lat="45.67665" lon="5.26813">
        <ele>311</ele>
        <time>2020-05-16T13:18:08.000Z</time>
      </trkpt>
      <trkpt lat="45.6767" lon="5.2681">
        <ele>311</ele>
        <time>2020-05-16T13:18:09.000Z</time>
      </trkpt>
      <trkpt lat="45.67674" lon="5.26807">
        <ele>311</ele>
        <time>2020-05-16T13:18:10.000Z</time>
      </trkpt>
      <trkpt lat="45.67679" lon="5.26805">
        <ele>311</ele>
        <time>2020-05-16T13:18:11.000Z</time>
      </trkpt>
      <trkpt lat="45.67683" lon="5.26802">
        <ele>311</ele>
        <time>2020-05-16T13:18:12.000Z</time>
      </trkpt>
      <trkpt lat="45.67687" lon="5.26799">
        <ele>312</ele>
        <time>2020-05-16T13:18:13.000Z</time>
      </trkpt>
      <trkpt lat="45.67691" lon="5.26797">
        <ele>312</ele>
        <time>2020-05-16T13:18:14.000Z</time>
      </trkpt>
      <trkpt lat="45.67694" lon="5.26794">
        <ele>312</ele>
        <time>2020-05-16T13:18:15.000Z</time>
      </trkpt>
      <trkpt lat="45.67698" lon="5.26792">
        <ele>313</ele>
        <time>2020-05-16T13:18:16.000Z</time>
      </trkpt>
      <trkpt lat="45.67702" lon="5.26789">
        <ele>313</ele>
        <time>2020-05-16T13:18:17.000Z</time>
      </trkpt>
      <trkpt lat="45.67705" lon="5.26787">
        <ele>313</ele>
        <time>2020-05-16T13:18:18.000Z</time>
      </trkpt>
      <trkpt lat="45.67709" lon="5.26785">
        <ele>314</ele>
        <time>2020-05-16T13:18:19.000Z</time>
      </trkpt>
      <trkpt lat="45.67712" lon="5.26783">
        <ele>314</ele>
        <time>2020-05-16T13:18:20.000Z</time>
      </trkpt>
      <trkpt lat="45.67716" lon="5.2678">
        <ele>314</ele>
        <time>2020-05-16T13:18:21.000Z</time>
      </trkpt>
      <trkpt lat="45.67719" lon="5.26778">
        <ele>314</ele>
        <time>2020-05-16T13:18:22.000Z</time>
      </trkpt>
      <trkpt lat="45.67722" lon="5.26776">
        <ele>315</ele>
        <time>2020-05-16T13:18:23.000Z</time>
      </trkpt>
      <trkpt lat="45.67725" lon="5.26774">
        <ele>315</ele>
        <time>2020-05-16T13:18:24.000Z</time>
      </trkpt>
      <trkpt lat="45.67728" lon="5.26771">
        <ele>316</ele>
        <time>2020-05-16T13:18:25.000Z</time>
      </trkpt>
      <trkpt lat="45.67731" lon="5.26769">
        <ele>316</ele>
        <time>2020-05-16T13:18:26.000Z</time>
      </trkpt>
      <trkpt lat="45.67734" lon="5.26767">
        <ele>316</ele>
        <time>2020-05-16T13:18:27.000Z</time>
      </trkpt>
      <trkpt lat="45.67737" lon="5.26765">
        <ele>316</ele>
        <time>2020-05-16T13:18:28.000Z</time>
      </trkpt>
      <trkpt lat="45.6774" lon="5.26763">
        <ele>317</ele>
        <time>2020-05-16T13:18:29.000Z</time>
      </trkpt>
      <trkpt lat="45.67743" lon="5.26761">
        <ele>317</ele>
        <time>2020-05-16T13:18:30.000Z</time>
      </trkpt>
      <trkpt lat="45.67747" lon="5.26759">
        <ele>317</ele>
        <time>2020-05-16T13:18:31.000Z</time>
      </trkpt>
      <trkpt lat="45.6775" lon="5.26756">
        <ele>317</ele>
        <time>2020-05-16T13:18:32.000Z</time>
      </trkpt>
      <trkpt lat="45.67753" lon="5.26755">
        <ele>318</ele>
        <time>2020-05-16T13:18:33.000Z</time>
      </trkpt>
      <trkpt lat="45.67756" lon="5.26752">
        <ele>318</ele>
        <time>2020-05-16T13:18:34.000Z</time>
      </trkpt>
      <trkpt lat="45.67759" lon="5.2675">
        <ele>318</ele>
        <time>2020-05-16T13:18:35.000Z</time>
      </trkpt>
      <trkpt lat="45.67762" lon="5.26748">
        <ele>318</ele>
        <time>2020-05-16T13:18:36.000Z</time>
      </trkpt>
      <trkpt lat="45.67765" lon="5.26746">
        <ele>319</ele>
        <time>2020-05-16T13:18:37.000Z</time>
      </trkpt>
      <trkpt lat="45.67768" lon="5.26743">
        <ele>319</ele>
        <time>2020-05-16T13:18:38.000Z</time>
      </trkpt>
      <trkpt lat="45.67771" lon="5.26741">
        <ele>319</ele>
        <time>2020-05-16T13:18:39.000Z</time>
      </trkpt>
      <trkpt lat="45.67774" lon="5.26739">
        <ele>319</ele>
        <time>2020-05-16T13:18:40.000Z</time>
      </trkpt>
      <trkpt lat="45.67777" lon="5.26737">
        <ele>320</ele>
        <time>2020-05-16T13:18:41.000Z</time>
      </trkpt>
      <trkpt lat="45.6778" lon="5.26735">
        <ele>320</ele>
        <time>2020-05-16T13:18:42.000Z</time>
      </trkpt>
      <trkpt lat="45.67783" lon="5.26733">
        <ele>320</ele>
        <time>2020-05-16T13:18:43.000Z</time>
      </trkpt>
      <trkpt lat="45.67786" lon="5.26731">
        <ele>320</ele>
        <time>2020-05-16T13:18:44.000Z</time>
      </trkpt>
      <trkpt lat="45.67788" lon="5.26728">
        <ele>320</ele>
        <time>2020-05-16T13:18:45.000Z</time>
      </trkpt>
      <trkpt lat="45.67791" lon="5.26726">
        <ele>320</ele>
        <time>2020-05-16T13:18:46.000Z</time>
      </trkpt>
      <trkpt lat="45.67795" lon="5.26724">
        <ele>320</ele>
        <time>2020-05-16T13:18:47.000Z</time>
      </trkpt>
      <trkpt lat="45.67798" lon="5.26722">
        <ele>320</ele>
        <time>2020-05-16T13:18:48.000Z</time>
      </trkpt>
      <trkpt lat="45.67801" lon="5.26721">
        <ele>321</ele>
        <time>2020-05-16T13:18:49.000Z</time>
      </trkpt>
      <trkpt lat="45.67805" lon="5.26719">
        <ele>321</ele>
        <time>2020-05-16T13:18:50.000Z</time>
      </trkpt>
      <trkpt lat="45.67808" lon="5.26717">
        <ele>321</ele>
        <time>2020-05-16T13:18:51.000Z</time>
      </trkpt>
      <trkpt lat="45.67811" lon="5.26715">
        <ele>321</ele>
        <time>2020-05-16T13:18:52.000Z</time>
      </trkpt>
      <trkpt lat="45.67814" lon="5.26713">
        <ele>322</ele>
        <time>2020-05-16T13:18:53.000Z</time>
      </trkpt>
      <trkpt lat="45.67817" lon="5.26711">
        <ele>322</ele>
        <time>2020-05-16T13:18:54.000Z</time>
      </trkpt>
      <trkpt lat="45.6782" lon="5.2671">
        <ele>322</ele>
        <time>2020-05-16T13:18:55.000Z</time>
      </trkpt>
      <trkpt lat="45.67823" lon="5.26708">
        <ele>321</ele>
        <time>2020-05-16T13:18:56.000Z</time>
      </trkpt>
      <trkpt lat="45.67826" lon="5.26706">
        <ele>321</ele>
        <time>2020-05-16T13:18:57.000Z</time>
      </trkpt>
      <trkpt lat="45.67829" lon="5.26705">
        <ele>321</ele>
        <time>2020-05-16T13:18:58.000Z</time>
      </trkpt>
      <trkpt lat="45.67832" lon="5.26704">
        <ele>322</ele>
        <time>2020-05-16T13:18:59.000Z</time>
      </trkpt>
      <trkpt lat="45.67836" lon="5.26703">
        <ele>322</ele>
        <time>2020-05-16T13:19:00.000Z</time>
      </trkpt>
      <trkpt lat="45.67839" lon="5.26702">
        <ele>323</ele>
        <time>2020-05-16T13:19:01.000Z</time>
      </trkpt>
      <trkpt lat="45.67842" lon="5.267">
        <ele>323</ele>
        <time>2020-05-16T13:19:02.000Z</time>
      </trkpt>
      <trkpt lat="45.67845" lon="5.26699">
        <ele>324</ele>
        <time>2020-05-16T13:19:03.000Z</time>
      </trkpt>
      <trkpt lat="45.67848" lon="5.26698">
        <ele>325</ele>
        <time>2020-05-16T13:19:04.000Z</time>
      </trkpt>
      <trkpt lat="45.67851" lon="5.26697">
        <ele>324</ele>
        <time>2020-05-16T13:19:05.000Z</time>
      </trkpt>
      <trkpt lat="45.67853" lon="5.26696">
        <ele>324</ele>
        <time>2020-05-16T13:19:06.000Z</time>
      </trkpt>
      <trkpt lat="45.67856" lon="5.26695">
        <ele>325</ele>
        <time>2020-05-16T13:19:07.000Z</time>
      </trkpt>
      <trkpt lat="45.67859" lon="5.26694">
        <ele>324</ele>
        <time>2020-05-16T13:19:08.000Z</time>
      </trkpt>
      <trkpt lat="45.67862" lon="5.26693">
        <ele>325</ele>
        <time>2020-05-16T13:19:09.000Z</time>
      </trkpt>
      <trkpt lat="45.67866" lon="5.26691">
        <ele>326</ele>
        <time>2020-05-16T13:19:10.000Z</time>
      </trkpt>
      <trkpt lat="45.6787" lon="5.2669">
        <ele>328</ele>
        <time>2020-05-16T13:19:11.000Z</time>
      </trkpt>
      <trkpt lat="45.67874" lon="5.26689">
        <ele>329</ele>
        <time>2020-05-16T13:19:12.000Z</time>
      </trkpt>
      <trkpt lat="45.67877" lon="5.26688">
        <ele>330</ele>
        <time>2020-05-16T13:19:13.000Z</time>
      </trkpt>
      <trkpt lat="45.67881" lon="5.26686">
        <ele>330</ele>
        <time>2020-05-16T13:19:14.000Z</time>
      </trkpt>
      <trkpt lat="45.67886" lon="5.26683">
        <ele>330</ele>
        <time>2020-05-16T13:19:15.000Z</time>
      </trkpt>
      <trkpt lat="45.6789" lon="5.2668">
        <ele>329</ele>
        <time>2020-05-16T13:19:16.000Z</time>
      </trkpt>
      <trkpt lat="45.67894" lon="5.26677">
        <ele>330</ele>
        <time>2020-05-16T13:19:17.000Z</time>
      </trkpt>
      <trkpt lat="45.67897" lon="5.26674">
        <ele>331</ele>
        <time>2020-05-16T13:19:18.000Z</time>
      </trkpt>
      <trkpt lat="45.67901" lon="5.26672">
        <ele>332</ele>
        <time>2020-05-16T13:19:19.000Z</time>
      </trkpt>
      <trkpt lat="45.67905" lon="5.26669">
        <ele>333</ele>
        <time>2020-05-16T13:19:20.000Z</time>
      </trkpt>
      <trkpt lat="45.67909" lon="5.26667">
        <ele>334</ele>
        <time>2020-05-16T13:19:21.000Z</time>
      </trkpt>
      <trkpt lat="45.67913" lon="5.26664">
        <ele>334</ele>
        <time>2020-05-16T13:19:22.000Z</time>
      </trkpt>
      <trkpt lat="45.67916" lon="5.26662">
        <ele>334</ele>
        <time>2020-05-16T13:19:23.000Z</time>
      </trkpt>
      <trkpt lat="45.6792" lon="5.26659">
        <ele>334</ele>
        <time>2020-05-16T13:19:24.000Z</time>
      </trkpt>
      <trkpt lat="45.67923" lon="5.26657">
        <ele>334</ele>
        <time>2020-05-16T13:19:25.000Z</time>
      </trkpt>
      <trkpt lat="45.67927" lon="5.26654">
        <ele>335</ele>
        <time>2020-05-16T13:19:26.000Z</time>
      </trkpt>
      <trkpt lat="45.6793" lon="5.26651">
        <ele>335</ele>
        <time>2020-05-16T13:19:27.000Z</time>
      </trkpt>
      <trkpt lat="45.67933" lon="5.26648">
        <ele>335</ele>
        <time>2020-05-16T13:19:28.000Z</time>
      </trkpt>
      <trkpt lat="45.67936" lon="5.26644">
        <ele>335</ele>
        <time>2020-05-16T13:19:29.000Z</time>
      </trkpt>
      <trkpt lat="45.6794" lon="5.26641">
        <ele>335</ele>
        <time>2020-05-16T13:19:30.000Z</time>
      </trkpt>
      <trkpt lat="45.67943" lon="5.26637">
        <ele>334</ele>
        <time>2020-05-16T13:19:31.000Z</time>
      </trkpt>
      <trkpt lat="45.67946" lon="5.26634">
        <ele>335</ele>
        <time>2020-05-16T13:19:32.000Z</time>
      </trkpt>
      <trkpt lat="45.67949" lon="5.26631">
        <ele>335</ele>
        <time>2020-05-16T13:19:33.000Z</time>
      </trkpt>
      <trkpt lat="45.67952" lon="5.26629">
        <ele>335</ele>
        <time>2020-05-16T13:19:34.000Z</time>
      </trkpt>
      <trkpt lat="45.67955" lon="5.26626">
        <ele>335</ele>
        <time>2020-05-16T13:19:35.000Z</time>
      </trkpt>
      <trkpt lat="45.67958" lon="5.26624">
        <ele>335</ele>
        <time>2020-05-16T13:19:36.000Z</time>
      </trkpt>
      <trkpt lat="45.67961" lon="5.26621">
        <ele>336</ele>
        <time>2020-05-16T13:19:37.000Z</time>
      </trkpt>
      <trkpt lat="45.67964" lon="5.26617">
        <ele>336</ele>
        <time>2020-05-16T13:19:38.000Z</time>
      </trkpt>
      <trkpt lat="45.67967" lon="5.26614">
        <ele>337</ele>
        <time>2020-05-16T13:19:39.000Z</time>
      </trkpt>
      <trkpt lat="45.6797" lon="5.2661">
        <ele>336</ele>
        <time>2020-05-16T13:19:40.000Z</time>
      </trkpt>
      <trkpt lat="45.67973" lon="5.26607">
        <ele>336</ele>
        <time>2020-05-16T13:19:41.000Z</time>
      </trkpt>
      <trkpt lat="45.67976" lon="5.26603">
        <ele>336</ele>
        <time>2020-05-16T13:19:42.000Z</time>
      </trkpt>
      <trkpt lat="45.67979" lon="5.266">
        <ele>337</ele>
        <time>2020-05-16T13:19:43.000Z</time>
      </trkpt>
      <trkpt lat="45.67982" lon="5.26597">
        <ele>337</ele>
        <time>2020-05-16T13:19:44.000Z</time>
      </trkpt>
      <trkpt lat="45.67985" lon="5.26594">
        <ele>337</ele>
        <time>2020-05-16T13:19:45.000Z</time>
      </trkpt>
      <trkpt lat="45.67988" lon="5.26591">
        <ele>337</ele>
        <time>2020-05-16T13:19:46.000Z</time>
      </trkpt>
      <trkpt lat="45.67991" lon="5.26588">
        <ele>337</ele>
        <time>2020-05-16T13:19:47.000Z</time>
      </trkpt>
      <trkpt lat="45.67994" lon="5.26585">
        <ele>337</ele>
        <time>2020-05-16T13:19:48.000Z</time>
      </trkpt>
      <trkpt lat="45.67996" lon="5.26582">
        <ele>337</ele>
        <time>2020-05-16T13:19:49.000Z</time>
      </trkpt>
      <trkpt lat="45.67999" lon="5.26579">
        <ele>337</ele>
        <time>2020-05-16T13:19:50.000Z</time>
      </trkpt>
      <trkpt lat="45.68002" lon="5.26576">
        <ele>337</ele>
        <time>2020-05-16T13:19:51.000Z</time>
      </trkpt>
      <trkpt lat="45.68005" lon="5.26572">
        <ele>336</ele>
        <time>2020-05-16T13:19:52.000Z</time>
      </trkpt>
      <trkpt lat="45.68008" lon="5.26569">
        <ele>337</ele>
        <time>2020-05-16T13:19:53.000Z</time>
      </trkpt>
      <trkpt lat="45.68011" lon="5.26565">
        <ele>337</ele>
        <time>2020-05-16T13:19:54.000Z</time>
      </trkpt>
      <trkpt lat="45.68014" lon="5.26562">
        <ele>337</ele>
        <time>2020-05-16T13:19:55.000Z</time>
      </trkpt>
      <trkpt lat="45.68017" lon="5.26559">
        <ele>338</ele>
        <time>2020-05-16T13:19:56.000Z</time>
      </trkpt>
      <trkpt lat="45.6802" lon="5.26556">
        <ele>338</ele>
        <time>2020-05-16T13:19:57.000Z</time>
      </trkpt>
      <trkpt lat="45.68023" lon="5.26553">
        <ele>339</ele>
        <time>2020-05-16T13:19:58.000Z</time>
      </trkpt>
      <trkpt lat="45.68027" lon="5.26551">
        <ele>339</ele>
        <time>2020-05-16T13:19:59.000Z</time>
      </trkpt>
      <trkpt lat="45.6803" lon="5.26548">
        <ele>339</ele>
        <time>2020-05-16T13:20:00.000Z</time>
      </trkpt>
      <trkpt lat="45.68033" lon="5.26546">
        <ele>340</ele>
        <time>2020-05-16T13:20:01.000Z</time>
      </trkpt>
      <trkpt lat="45.68036" lon="5.26543">
        <ele>340</ele>
        <time>2020-05-16T13:20:02.000Z</time>
      </trkpt>
      <trkpt lat="45.6804" lon="5.2654">
        <ele>340</ele>
        <time>2020-05-16T13:20:03.000Z</time>
      </trkpt>
      <trkpt lat="45.68043" lon="5.26538">
        <ele>341</ele>
        <time>2020-05-16T13:20:04.000Z</time>
      </trkpt>
      <trkpt lat="45.68046" lon="5.26535">
        <ele>341</ele>
        <time>2020-05-16T13:20:05.000Z</time>
      </trkpt>
      <trkpt lat="45.68049" lon="5.26531">
        <ele>342</ele>
        <time>2020-05-16T13:20:06.000Z</time>
      </trkpt>
      <trkpt lat="45.68051" lon="5.26527">
        <ele>341</ele>
        <time>2020-05-16T13:20:07.000Z</time>
      </trkpt>
      <trkpt lat="45.68054" lon="5.26523">
        <ele>341</ele>
        <time>2020-05-16T13:20:08.000Z</time>
      </trkpt>
      <trkpt lat="45.68056" lon="5.26518">
        <ele>341</ele>
        <time>2020-05-16T13:20:09.000Z</time>
      </trkpt>
      <trkpt lat="45.68057" lon="5.26514">
        <ele>342</ele>
        <time>2020-05-16T13:20:10.000Z</time>
      </trkpt>
      <trkpt lat="45.68059" lon="5.26509">
        <ele>343</ele>
        <time>2020-05-16T13:20:11.000Z</time>
      </trkpt>
      <trkpt lat="45.6806" lon="5.26503">
        <ele>342</ele>
        <time>2020-05-16T13:20:12.000Z</time>
      </trkpt>
      <trkpt lat="45.68061" lon="5.26498">
        <ele>342</ele>
        <time>2020-05-16T13:20:13.000Z</time>
      </trkpt>
      <trkpt lat="45.68062" lon="5.26493">
        <ele>342</ele>
        <time>2020-05-16T13:20:14.000Z</time>
      </trkpt>
      <trkpt lat="45.68063" lon="5.26488">
        <ele>342</ele>
        <time>2020-05-16T13:20:15.000Z</time>
      </trkpt>
      <trkpt lat="45.68063" lon="5.26483">
        <ele>342</ele>
        <time>2020-05-16T13:20:16.000Z</time>
      </trkpt>
      <trkpt lat="45.68063" lon="5.26478">
        <ele>342</ele>
        <time>2020-05-16T13:20:17.000Z</time>
      </trkpt>
      <trkpt lat="45.68063" lon="5.26473">
        <ele>343</ele>
        <time>2020-05-16T13:20:18.000Z</time>
      </trkpt>
      <trkpt lat="45.68063" lon="5.26467">
        <ele>343</ele>
        <time>2020-05-16T13:20:19.000Z</time>
      </trkpt>
      <trkpt lat="45.68062" lon="5.26462">
        <ele>343</ele>
        <time>2020-05-16T13:20:20.000Z</time>
      </trkpt>
      <trkpt lat="45.68062" lon="5.26456">
        <ele>343</ele>
        <time>2020-05-16T13:20:21.000Z</time>
      </trkpt>
      <trkpt lat="45.68061" lon="5.26451">
        <ele>343</ele>
        <time>2020-05-16T13:20:22.000Z</time>
      </trkpt>
      <trkpt lat="45.68061" lon="5.26446">
        <ele>344</ele>
        <time>2020-05-16T13:20:23.000Z</time>
      </trkpt>
      <trkpt lat="45.6806" lon="5.2644">
        <ele>344</ele>
        <time>2020-05-16T13:20:24.000Z</time>
      </trkpt>
      <trkpt lat="45.6806" lon="5.26435">
        <ele>344</ele>
        <time>2020-05-16T13:20:25.000Z</time>
      </trkpt>
      <trkpt lat="45.6806" lon="5.26429">
        <ele>344</ele>
        <time>2020-05-16T13:20:26.000Z</time>
      </trkpt>
      <trkpt lat="45.68059" lon="5.26424">
        <ele>344</ele>
        <time>2020-05-16T13:20:27.000Z</time>
      </trkpt>
      <trkpt lat="45.68058" lon="5.26419">
        <ele>345</ele>
        <time>2020-05-16T13:20:28.000Z</time>
      </trkpt>
      <trkpt lat="45.68058" lon="5.26413">
        <ele>345</ele>
        <time>2020-05-16T13:20:29.000Z</time>
      </trkpt>
      <trkpt lat="45.68057" lon="5.26408">
        <ele>345</ele>
        <time>2020-05-16T13:20:30.000Z</time>
      </trkpt>
      <trkpt lat="45.68057" lon="5.26403">
        <ele>345</ele>
        <time>2020-05-16T13:20:31.000Z</time>
      </trkpt>
      <trkpt lat="45.68056" lon="5.26399">
        <ele>345</ele>
        <time>2020-05-16T13:20:32.000Z</time>
      </trkpt>
      <trkpt lat="45.68056" lon="5.26394">
        <ele>345</ele>
        <time>2020-05-16T13:20:33.000Z</time>
      </trkpt>
      <trkpt lat="45.68055" lon="5.26389">
        <ele>345</ele>
        <time>2020-05-16T13:20:34.000Z</time>
      </trkpt>
      <trkpt lat="45.68055" lon="5.26384">
        <ele>346</ele>
        <time>2020-05-16T13:20:35.000Z</time>
      </trkpt>
      <trkpt lat="45.68054" lon="5.2638">
        <ele>346</ele>
        <time>2020-05-16T13:20:36.000Z</time>
      </trkpt>
      <trkpt lat="45.68054" lon="5.26375">
        <ele>346</ele>
        <time>2020-05-16T13:20:37.000Z</time>
      </trkpt>
      <trkpt lat="45.68053" lon="5.2637">
        <ele>346</ele>
        <time>2020-05-16T13:20:38.000Z</time>
      </trkpt>
      <trkpt lat="45.68053" lon="5.26365">
        <ele>347</ele>
        <time>2020-05-16T13:20:39.000Z</time>
      </trkpt>
      <trkpt lat="45.68053" lon="5.2636">
        <ele>347</ele>
        <time>2020-05-16T13:20:40.000Z</time>
      </trkpt>
      <trkpt lat="45.68052" lon="5.26356">
        <ele>346</ele>
        <time>2020-05-16T13:20:41.000Z</time>
      </trkpt>
      <trkpt lat="45.68052" lon="5.26351">
        <ele>346</ele>
        <time>2020-05-16T13:20:42.000Z</time>
      </trkpt>
      <trkpt lat="45.68052" lon="5.26345">
        <ele>346</ele>
        <time>2020-05-16T13:20:43.000Z</time>
      </trkpt>
      <trkpt lat="45.68052" lon="5.2634">
        <ele>346</ele>
        <time>2020-05-16T13:20:44.000Z</time>
      </trkpt>
      <trkpt lat="45.68052" lon="5.26334">
        <ele>346</ele>
        <time>2020-05-16T13:20:45.000Z</time>
      </trkpt>
      <trkpt lat="45.68053" lon="5.26328">
        <ele>346</ele>
        <time>2020-05-16T13:20:46.000Z</time>
      </trkpt>
      <trkpt lat="45.68054" lon="5.26321">
        <ele>346</ele>
        <time>2020-05-16T13:20:47.000Z</time>
      </trkpt>
      <trkpt lat="45.68055" lon="5.26314">
        <ele>347</ele>
        <time>2020-05-16T13:20:48.000Z</time>
      </trkpt>
      <trkpt lat="45.68055" lon="5.26307">
        <ele>347</ele>
        <time>2020-05-16T13:20:49.000Z</time>
      </trkpt>
      <trkpt lat="45.68055" lon="5.26299">
        <ele>347</ele>
        <time>2020-05-16T13:20:50.000Z</time>
      </trkpt>
      <trkpt lat="45.68054" lon="5.26292">
        <ele>347</ele>
        <time>2020-05-16T13:20:51.000Z</time>
      </trkpt>
      <trkpt lat="45.68054" lon="5.26286">
        <ele>347</ele>
        <time>2020-05-16T13:20:52.000Z</time>
      </trkpt>
      <trkpt lat="45.68054" lon="5.26279">
        <ele>347</ele>
        <time>2020-05-16T13:20:53.000Z</time>
      </trkpt>
      <trkpt lat="45.68054" lon="5.26272">
        <ele>347</ele>
        <time>2020-05-16T13:20:54.000Z</time>
      </trkpt>
      <trkpt lat="45.68054" lon="5.26266">
        <ele>347</ele>
        <time>2020-05-16T13:20:55.000Z</time>
      </trkpt>
      <trkpt lat="45.68054" lon="5.26259">
        <ele>348</ele>
        <time>2020-05-16T13:20:56.000Z</time>
      </trkpt>
      <trkpt lat="45.68053" lon="5.26251">
        <ele>348</ele>
        <time>2020-05-16T13:20:57.000Z</time>
      </trkpt>
      <trkpt lat="45.68053" lon="5.26244">
        <ele>347</ele>
        <time>2020-05-16T13:20:58.000Z</time>
      </trkpt>
      <trkpt lat="45.68053" lon="5.26236">
        <ele>347</ele>
        <time>2020-05-16T13:20:59.000Z</time>
      </trkpt>
      <trkpt lat="45.68053" lon="5.26228">
        <ele>347</ele>
        <time>2020-05-16T13:21:00.000Z</time>
      </trkpt>
      <trkpt lat="45.68053" lon="5.2622">
        <ele>347</ele>
        <time>2020-05-16T13:21:01.000Z</time>
      </trkpt>
      <trkpt lat="45.68054" lon="5.26212">
        <ele>347</ele>
        <time>2020-05-16T13:21:02.000Z</time>
      </trkpt>
      <trkpt lat="45.68054" lon="5.26203">
        <ele>347</ele>
        <time>2020-05-16T13:21:03.000Z</time>
      </trkpt>
      <trkpt lat="45.68054" lon="5.26195">
        <ele>347</ele>
        <time>2020-05-16T13:21:04.000Z</time>
      </trkpt>
      <trkpt lat="45.68054" lon="5.26186">
        <ele>347</ele>
        <time>2020-05-16T13:21:05.000Z</time>
      </trkpt>
      <trkpt lat="45.68054" lon="5.26177">
        <ele>347</ele>
        <time>2020-05-16T13:21:06.000Z</time>
      </trkpt>
      <trkpt lat="45.68053" lon="5.26168">
        <ele>347</ele>
        <time>2020-05-16T13:21:07.000Z</time>
      </trkpt>
      <trkpt lat="45.68053" lon="5.26159">
        <ele>347</ele>
        <time>2020-05-16T13:21:08.000Z</time>
      </trkpt>
      <trkpt lat="45.68052" lon="5.2615">
        <ele>347</ele>
        <time>2020-05-16T13:21:09.000Z</time>
      </trkpt>
      <trkpt lat="45.68051" lon="5.26141">
        <ele>347</ele>
        <time>2020-05-16T13:21:10.000Z</time>
      </trkpt>
      <trkpt lat="45.6805" lon="5.26131">
        <ele>347</ele>
        <time>2020-05-16T13:21:11.000Z</time>
      </trkpt>
      <trkpt lat="45.68049" lon="5.26122">
        <ele>347</ele>
        <time>2020-05-16T13:21:12.000Z</time>
      </trkpt>
      <trkpt lat="45.68048" lon="5.26113">
        <ele>347</ele>
        <time>2020-05-16T13:21:13.000Z</time>
      </trkpt>
      <trkpt lat="45.68047" lon="5.26104">
        <ele>347</ele>
        <time>2020-05-16T13:21:14.000Z</time>
      </trkpt>
      <trkpt lat="45.68045" lon="5.26095">
        <ele>347</ele>
        <time>2020-05-16T13:21:15.000Z</time>
      </trkpt>
      <trkpt lat="45.68044" lon="5.26085">
        <ele>347</ele>
        <time>2020-05-16T13:21:16.000Z</time>
      </trkpt>
      <trkpt lat="45.68043" lon="5.26076">
        <ele>348</ele>
        <time>2020-05-16T13:21:17.000Z</time>
      </trkpt>
      <trkpt lat="45.68041" lon="5.26066">
        <ele>348</ele>
        <time>2020-05-16T13:21:18.000Z</time>
      </trkpt>
      <trkpt lat="45.6804" lon="5.26056">
        <ele>348</ele>
        <time>2020-05-16T13:21:19.000Z</time>
      </trkpt>
      <trkpt lat="45.68039" lon="5.26047">
        <ele>348</ele>
        <time>2020-05-16T13:21:20.000Z</time>
      </trkpt>
      <trkpt lat="45.68037" lon="5.26038">
        <ele>348</ele>
        <time>2020-05-16T13:21:21.000Z</time>
      </trkpt>
      <trkpt lat="45.68036" lon="5.26029">
        <ele>348</ele>
        <time>2020-05-16T13:21:22.000Z</time>
      </trkpt>
      <trkpt lat="45.68034" lon="5.26019">
        <ele>348</ele>
        <time>2020-05-16T13:21:23.000Z</time>
      </trkpt>
      <trkpt lat="45.68033" lon="5.2601">
        <ele>348</ele>
        <time>2020-05-16T13:21:24.000Z</time>
      </trkpt>
      <trkpt lat="45.68032" lon="5.26">
        <ele>347</ele>
        <time>2020-05-16T13:21:25.000Z</time>
      </trkpt>
      <trkpt lat="45.6803" lon="5.25991">
        <ele>347</ele>
        <time>2020-05-16T13:21:26.000Z</time>
      </trkpt>
      <trkpt lat="45.68028" lon="5.25981">
        <ele>347</ele>
        <time>2020-05-16T13:21:27.000Z</time>
      </trkpt>
      <trkpt lat="45.68027" lon="5.25971">
        <ele>347</ele>
        <time>2020-05-16T13:21:28.000Z</time>
      </trkpt>
      <trkpt lat="45.68025" lon="5.25961">
        <ele>347</ele>
        <time>2020-05-16T13:21:29.000Z</time>
      </trkpt>
      <trkpt lat="45.68023" lon="5.25951">
        <ele>346</ele>
        <time>2020-05-16T13:21:30.000Z</time>
      </trkpt>
      <trkpt lat="45.68022" lon="5.25941">
        <ele>346</ele>
        <time>2020-05-16T13:21:31.000Z</time>
      </trkpt>
      <trkpt lat="45.6802" lon="5.25931">
        <ele>346</ele>
        <time>2020-05-16T13:21:32.000Z</time>
      </trkpt>
      <trkpt lat="45.68018" lon="5.25921">
        <ele>346</ele>
        <time>2020-05-16T13:21:33.000Z</time>
      </trkpt>
      <trkpt lat="45.68016" lon="5.25911">
        <ele>346</ele>
        <time>2020-05-16T13:21:34.000Z</time>
      </trkpt>
      <trkpt lat="45.68014" lon="5.25901">
        <ele>346</ele>
        <time>2020-05-16T13:21:35.000Z</time>
      </trkpt>
      <trkpt lat="45.68012" lon="5.25891">
        <ele>346</ele>
        <time>2020-05-16T13:21:36.000Z</time>
      </trkpt>
      <trkpt lat="45.68011" lon="5.25882">
        <ele>346</ele>
        <time>2020-05-16T13:21:37.000Z</time>
      </trkpt>
      <trkpt lat="45.68009" lon="5.25872">
        <ele>346</ele>
        <time>2020-05-16T13:21:38.000Z</time>
      </trkpt>
      <trkpt lat="45.68007" lon="5.25862">
        <ele>346</ele>
        <time>2020-05-16T13:21:39.000Z</time>
      </trkpt>
      <trkpt lat="45.68006" lon="5.25853">
        <ele>345</ele>
        <time>2020-05-16T13:21:40.000Z</time>
      </trkpt>
      <trkpt lat="45.68004" lon="5.25843">
        <ele>345</ele>
        <time>2020-05-16T13:21:41.000Z</time>
      </trkpt>
      <trkpt lat="45.68002" lon="5.25834">
        <ele>345</ele>
        <time>2020-05-16T13:21:42.000Z</time>
      </trkpt>
      <trkpt lat="45.68001" lon="5.25825">
        <ele>345</ele>
        <time>2020-05-16T13:21:43.000Z</time>
      </trkpt>
      <trkpt lat="45.67999" lon="5.25816">
        <ele>345</ele>
        <time>2020-05-16T13:21:44.000Z</time>
      </trkpt>
      <trkpt lat="45.67997" lon="5.25807">
        <ele>345</ele>
        <time>2020-05-16T13:21:45.000Z</time>
      </trkpt>
      <trkpt lat="45.67996" lon="5.25799">
        <ele>345</ele>
        <time>2020-05-16T13:21:46.000Z</time>
      </trkpt>
      <trkpt lat="45.67994" lon="5.2579">
        <ele>346</ele>
        <time>2020-05-16T13:21:47.000Z</time>
      </trkpt>
      <trkpt lat="45.67993" lon="5.25782">
        <ele>346</ele>
        <time>2020-05-16T13:21:48.000Z</time>
      </trkpt>
      <trkpt lat="45.67991" lon="5.25773">
        <ele>346</ele>
        <time>2020-05-16T13:21:49.000Z</time>
      </trkpt>
      <trkpt lat="45.6799" lon="5.25765">
        <ele>346</ele>
        <time>2020-05-16T13:21:50.000Z</time>
      </trkpt>
      <trkpt lat="45.67989" lon="5.25756">
        <ele>346</ele>
        <time>2020-05-16T13:21:51.000Z</time>
      </trkpt>
      <trkpt lat="45.67988" lon="5.25748">
        <ele>347</ele>
        <time>2020-05-16T13:21:52.000Z</time>
      </trkpt>
      <trkpt lat="45.67988" lon="5.25739">
        <ele>347</ele>
        <time>2020-05-16T13:21:53.000Z</time>
      </trkpt>
      <trkpt lat="45.67988" lon="5.25731">
        <ele>348</ele>
        <time>2020-05-16T13:21:54.000Z</time>
      </trkpt>
      <trkpt lat="45.6799" lon="5.25722">
        <ele>349</ele>
        <time>2020-05-16T13:21:55.000Z</time>
      </trkpt>
      <trkpt lat="45.67993" lon="5.25715">
        <ele>349</ele>
        <time>2020-05-16T13:21:56.000Z</time>
      </trkpt>
      <trkpt lat="45.67996" lon="5.25709">
        <ele>350</ele>
        <time>2020-05-16T13:21:57.000Z</time>
      </trkpt>
      <trkpt lat="45.68" lon="5.25703">
        <ele>351</ele>
        <time>2020-05-16T13:21:58.000Z</time>
      </trkpt>
      <trkpt lat="45.68004" lon="5.25698">
        <ele>352</ele>
        <time>2020-05-16T13:21:59.000Z</time>
      </trkpt>
      <trkpt lat="45.68008" lon="5.25694">
        <ele>352</ele>
        <time>2020-05-16T13:22:00.000Z</time>
      </trkpt>
      <trkpt lat="45.68013" lon="5.2569">
        <ele>353</ele>
        <time>2020-05-16T13:22:01.000Z</time>
      </trkpt>
      <trkpt lat="45.68017" lon="5.25687">
        <ele>353</ele>
        <time>2020-05-16T13:22:02.000Z</time>
      </trkpt>
      <trkpt lat="45.68021" lon="5.25684">
        <ele>353</ele>
        <time>2020-05-16T13:22:03.000Z</time>
      </trkpt>
      <trkpt lat="45.68026" lon="5.25681">
        <ele>353</ele>
        <time>2020-05-16T13:22:04.000Z</time>
      </trkpt>
      <trkpt lat="45.6803" lon="5.25679">
        <ele>353</ele>
        <time>2020-05-16T13:22:05.000Z</time>
      </trkpt>
      <trkpt lat="45.68034" lon="5.25676">
        <ele>353</ele>
        <time>2020-05-16T13:22:06.000Z</time>
      </trkpt>
      <trkpt lat="45.68039" lon="5.25674">
        <ele>353</ele>
        <time>2020-05-16T13:22:07.000Z</time>
      </trkpt>
      <trkpt lat="45.68043" lon="5.25671">
        <ele>353</ele>
        <time>2020-05-16T13:22:08.000Z</time>
      </trkpt>
      <trkpt lat="45.68048" lon="5.25668">
        <ele>353</ele>
        <time>2020-05-16T13:22:09.000Z</time>
      </trkpt>
      <trkpt lat="45.68053" lon="5.25665">
        <ele>353</ele>
        <time>2020-05-16T13:22:10.000Z</time>
      </trkpt>
      <trkpt lat="45.68057" lon="5.25662">
        <ele>352</ele>
        <time>2020-05-16T13:22:11.000Z</time>
      </trkpt>
      <trkpt lat="45.68062" lon="5.25659">
        <ele>352</ele>
        <time>2020-05-16T13:22:12.000Z</time>
      </trkpt>
      <trkpt lat="45.68067" lon="5.25656">
        <ele>352</ele>
        <time>2020-05-16T13:22:13.000Z</time>
      </trkpt>
      <trkpt lat="45.68072" lon="5.25653">
        <ele>352</ele>
        <time>2020-05-16T13:22:14.000Z</time>
      </trkpt>
      <trkpt lat="45.68077" lon="5.2565">
        <ele>351</ele>
        <time>2020-05-16T13:22:15.000Z</time>
      </trkpt>
      <trkpt lat="45.68081" lon="5.25647">
        <ele>351</ele>
        <time>2020-05-16T13:22:16.000Z</time>
      </trkpt>
      <trkpt lat="45.68087" lon="5.25644">
        <ele>351</ele>
        <time>2020-05-16T13:22:17.000Z</time>
      </trkpt>
      <trkpt lat="45.68092" lon="5.25641">
        <ele>350</ele>
        <time>2020-05-16T13:22:18.000Z</time>
      </trkpt>
      <trkpt lat="45.68097" lon="5.25638">
        <ele>350</ele>
        <time>2020-05-16T13:22:19.000Z</time>
      </trkpt>
      <trkpt lat="45.68102" lon="5.25635">
        <ele>350</ele>
        <time>2020-05-16T13:22:20.000Z</time>
      </trkpt>
      <trkpt lat="45.68107" lon="5.25631">
        <ele>349</ele>
        <time>2020-05-16T13:22:21.000Z</time>
      </trkpt>
      <trkpt lat="45.68112" lon="5.25628">
        <ele>349</ele>
        <time>2020-05-16T13:22:22.000Z</time>
      </trkpt>
      <trkpt lat="45.68118" lon="5.25624">
        <ele>348</ele>
        <time>2020-05-16T13:22:23.000Z</time>
      </trkpt>
      <trkpt lat="45.68124" lon="5.2562">
        <ele>348</ele>
        <time>2020-05-16T13:22:24.000Z</time>
      </trkpt>
      <trkpt lat="45.6813" lon="5.25617">
        <ele>347</ele>
        <time>2020-05-16T13:22:25.000Z</time>
      </trkpt>
      <trkpt lat="45.68136" lon="5.25613">
        <ele>347</ele>
        <time>2020-05-16T13:22:26.000Z</time>
      </trkpt>
      <trkpt lat="45.68142" lon="5.25608">
        <ele>347</ele>
        <time>2020-05-16T13:22:27.000Z</time>
      </trkpt>
      <trkpt lat="45.68149" lon="5.25604">
        <ele>346</ele>
        <time>2020-05-16T13:22:28.000Z</time>
      </trkpt>
      <trkpt lat="45.68155" lon="5.25599">
        <ele>345</ele>
        <time>2020-05-16T13:22:29.000Z</time>
      </trkpt>
      <trkpt lat="45.68163" lon="5.25595">
        <ele>345</ele>
        <time>2020-05-16T13:22:30.000Z</time>
      </trkpt>
      <trkpt lat="45.6817" lon="5.2559">
        <ele>344</ele>
        <time>2020-05-16T13:22:31.000Z</time>
      </trkpt>
      <trkpt lat="45.68177" lon="5.25585">
        <ele>344</ele>
        <time>2020-05-16T13:22:32.000Z</time>
      </trkpt>
      <trkpt lat="45.68184" lon="5.2558">
        <ele>344</ele>
        <time>2020-05-16T13:22:33.000Z</time>
      </trkpt>
      <trkpt lat="45.68192" lon="5.25575">
        <ele>343</ele>
        <time>2020-05-16T13:22:34.000Z</time>
      </trkpt>
      <trkpt lat="45.68199" lon="5.25571">
        <ele>343</ele>
        <time>2020-05-16T13:22:35.000Z</time>
      </trkpt>
      <trkpt lat="45.68207" lon="5.25566">
        <ele>343</ele>
        <time>2020-05-16T13:22:36.000Z</time>
      </trkpt>
      <trkpt lat="45.68215" lon="5.25561">
        <ele>342</ele>
        <time>2020-05-16T13:22:37.000Z</time>
      </trkpt>
      <trkpt lat="45.68222" lon="5.25555">
        <ele>342</ele>
        <time>2020-05-16T13:22:38.000Z</time>
      </trkpt>
      <trkpt lat="45.6823" lon="5.2555">
        <ele>341</ele>
        <time>2020-05-16T13:22:39.000Z</time>
      </trkpt>
      <trkpt lat="45.68238" lon="5.25545">
        <ele>341</ele>
        <time>2020-05-16T13:22:40.000Z</time>
      </trkpt>
      <trkpt lat="45.68246" lon="5.2554">
        <ele>341</ele>
        <time>2020-05-16T13:22:41.000Z</time>
      </trkpt>
      <trkpt lat="45.68254" lon="5.25535">
        <ele>340</ele>
        <time>2020-05-16T13:22:42.000Z</time>
      </trkpt>
      <trkpt lat="45.68261" lon="5.25529">
        <ele>340</ele>
        <time>2020-05-16T13:22:43.000Z</time>
      </trkpt>
      <trkpt lat="45.68269" lon="5.25524">
        <ele>340</ele>
        <time>2020-05-16T13:22:44.000Z</time>
      </trkpt>
      <trkpt lat="45.68277" lon="5.25519">
        <ele>339</ele>
        <time>2020-05-16T13:22:45.000Z</time>
      </trkpt>
      <trkpt lat="45.68285" lon="5.25514">
        <ele>339</ele>
        <time>2020-05-16T13:22:46.000Z</time>
      </trkpt>
      <trkpt lat="45.68294" lon="5.25508">
        <ele>339</ele>
        <time>2020-05-16T13:22:47.000Z</time>
      </trkpt>
      <trkpt lat="45.68302" lon="5.25503">
        <ele>339</ele>
        <time>2020-05-16T13:22:48.000Z</time>
      </trkpt>
      <trkpt lat="45.68309" lon="5.25498">
        <ele>339</ele>
        <time>2020-05-16T13:22:49.000Z</time>
      </trkpt>
      <trkpt lat="45.68317" lon="5.25493">
        <ele>338</ele>
        <time>2020-05-16T13:22:50.000Z</time>
      </trkpt>
      <trkpt lat="45.68325" lon="5.25488">
        <ele>338</ele>
        <time>2020-05-16T13:22:51.000Z</time>
      </trkpt>
      <trkpt lat="45.68333" lon="5.25483">
        <ele>338</ele>
        <time>2020-05-16T13:22:52.000Z</time>
      </trkpt>
      <trkpt lat="45.6834" lon="5.25478">
        <ele>338</ele>
        <time>2020-05-16T13:22:53.000Z</time>
      </trkpt>
      <trkpt lat="45.68348" lon="5.25473">
        <ele>338</ele>
        <time>2020-05-16T13:22:54.000Z</time>
      </trkpt>
      <trkpt lat="45.68355" lon="5.25468">
        <ele>339</ele>
        <time>2020-05-16T13:22:55.000Z</time>
      </trkpt>
      <trkpt lat="45.68362" lon="5.25463">
        <ele>339</ele>
        <time>2020-05-16T13:22:56.000Z</time>
      </trkpt>
      <trkpt lat="45.68368" lon="5.25459">
        <ele>339</ele>
        <time>2020-05-16T13:22:57.000Z</time>
      </trkpt>
      <trkpt lat="45.68375" lon="5.25454">
        <ele>339</ele>
        <time>2020-05-16T13:22:58.000Z</time>
      </trkpt>
      <trkpt lat="45.68381" lon="5.2545">
        <ele>339</ele>
        <time>2020-05-16T13:22:59.000Z</time>
      </trkpt>
      <trkpt lat="45.68387" lon="5.25446">
        <ele>339</ele>
        <time>2020-05-16T13:23:00.000Z</time>
      </trkpt>
      <trkpt lat="45.68393" lon="5.25442">
        <ele>340</ele>
        <time>2020-05-16T13:23:01.000Z</time>
      </trkpt>
      <trkpt lat="45.68399" lon="5.25438">
        <ele>340</ele>
        <time>2020-05-16T13:23:02.000Z</time>
      </trkpt>
      <trkpt lat="45.68405" lon="5.25434">
        <ele>340</ele>
        <time>2020-05-16T13:23:03.000Z</time>
      </trkpt>
      <trkpt lat="45.68411" lon="5.2543">
        <ele>340</ele>
        <time>2020-05-16T13:23:04.000Z</time>
      </trkpt>
      <trkpt lat="45.68416" lon="5.25427">
        <ele>340</ele>
        <time>2020-05-16T13:23:05.000Z</time>
      </trkpt>
      <trkpt lat="45.68422" lon="5.25423">
        <ele>340</ele>
        <time>2020-05-16T13:23:06.000Z</time>
      </trkpt>
      <trkpt lat="45.68428" lon="5.25419">
        <ele>340</ele>
        <time>2020-05-16T13:23:07.000Z</time>
      </trkpt>
      <trkpt lat="45.68433" lon="5.25415">
        <ele>340</ele>
        <time>2020-05-16T13:23:08.000Z</time>
      </trkpt>
      <trkpt lat="45.68439" lon="5.25411">
        <ele>340</ele>
        <time>2020-05-16T13:23:09.000Z</time>
      </trkpt>
      <trkpt lat="45.68444" lon="5.25408">
        <ele>340</ele>
        <time>2020-05-16T13:23:10.000Z</time>
      </trkpt>
      <trkpt lat="45.6845" lon="5.25404">
        <ele>340</ele>
        <time>2020-05-16T13:23:11.000Z</time>
      </trkpt>
      <trkpt lat="45.68455" lon="5.254">
        <ele>341</ele>
        <time>2020-05-16T13:23:12.000Z</time>
      </trkpt>
      <trkpt lat="45.68461" lon="5.25396">
        <ele>341</ele>
        <time>2020-05-16T13:23:13.000Z</time>
      </trkpt>
      <trkpt lat="45.68466" lon="5.25393">
        <ele>341</ele>
        <time>2020-05-16T13:23:14.000Z</time>
      </trkpt>
      <trkpt lat="45.68472" lon="5.25389">
        <ele>341</ele>
        <time>2020-05-16T13:23:15.000Z</time>
      </trkpt>
      <trkpt lat="45.68477" lon="5.25386">
        <ele>341</ele>
        <time>2020-05-16T13:23:16.000Z</time>
      </trkpt>
      <trkpt lat="45.68482" lon="5.25382">
        <ele>341</ele>
        <time>2020-05-16T13:23:17.000Z</time>
      </trkpt>
      <trkpt lat="45.68487" lon="5.25379">
        <ele>341</ele>
        <time>2020-05-16T13:23:18.000Z</time>
      </trkpt>
      <trkpt lat="45.68492" lon="5.25375">
        <ele>341</ele>
        <time>2020-05-16T13:23:19.000Z</time>
      </trkpt>
      <trkpt lat="45.68497" lon="5.25372">
        <ele>342</ele>
        <time>2020-05-16T13:23:20.000Z</time>
      </trkpt>
      <trkpt lat="45.68502" lon="5.25368">
        <ele>342</ele>
        <time>2020-05-16T13:23:21.000Z</time>
      </trkpt>
      <trkpt lat="45.68507" lon="5.25365">
        <ele>342</ele>
        <time>2020-05-16T13:23:22.000Z</time>
      </trkpt>
      <trkpt lat="45.68513" lon="5.25362">
        <ele>342</ele>
        <time>2020-05-16T13:23:23.000Z</time>
      </trkpt>
      <trkpt lat="45.68518" lon="5.25359">
        <ele>343</ele>
        <time>2020-05-16T13:23:24.000Z</time>
      </trkpt>
      <trkpt lat="45.68523" lon="5.25356">
        <ele>343</ele>
        <time>2020-05-16T13:23:25.000Z</time>
      </trkpt>
      <trkpt lat="45.68528" lon="5.25352">
        <ele>343</ele>
        <time>2020-05-16T13:23:26.000Z</time>
      </trkpt>
      <trkpt lat="45.68533" lon="5.25349">
        <ele>343</ele>
        <time>2020-05-16T13:23:27.000Z</time>
      </trkpt>
      <trkpt lat="45.68537" lon="5.25346">
        <ele>343</ele>
        <time>2020-05-16T13:23:28.000Z</time>
      </trkpt>
      <trkpt lat="45.68542" lon="5.25343">
        <ele>344</ele>
        <time>2020-05-16T13:23:29.000Z</time>
      </trkpt>
      <trkpt lat="45.68547" lon="5.25339">
        <ele>345</ele>
        <time>2020-05-16T13:23:30.000Z</time>
      </trkpt>
      <trkpt lat="45.68552" lon="5.25336">
        <ele>345</ele>
        <time>2020-05-16T13:23:31.000Z</time>
      </trkpt>
      <trkpt lat="45.68556" lon="5.25333">
        <ele>345</ele>
        <time>2020-05-16T13:23:32.000Z</time>
      </trkpt>
      <trkpt lat="45.68561" lon="5.2533">
        <ele>345</ele>
        <time>2020-05-16T13:23:33.000Z</time>
      </trkpt>
      <trkpt lat="45.68565" lon="5.25326">
        <ele>345</ele>
        <time>2020-05-16T13:23:34.000Z</time>
      </trkpt>
      <trkpt lat="45.6857" lon="5.25323">
        <ele>345</ele>
        <time>2020-05-16T13:23:35.000Z</time>
      </trkpt>
      <trkpt lat="45.68574" lon="5.25319">
        <ele>345</ele>
        <time>2020-05-16T13:23:36.000Z</time>
      </trkpt>
      <trkpt lat="45.68579" lon="5.25316">
        <ele>346</ele>
        <time>2020-05-16T13:23:37.000Z</time>
      </trkpt>
      <trkpt lat="45.68583" lon="5.25312">
        <ele>346</ele>
        <time>2020-05-16T13:23:38.000Z</time>
      </trkpt>
      <trkpt lat="45.68587" lon="5.25308">
        <ele>346</ele>
        <time>2020-05-16T13:23:39.000Z</time>
      </trkpt>
      <trkpt lat="45.68592" lon="5.25305">
        <ele>346</ele>
        <time>2020-05-16T13:23:40.000Z</time>
      </trkpt>
      <trkpt lat="45.68597" lon="5.25303">
        <ele>346</ele>
        <time>2020-05-16T13:23:41.000Z</time>
      </trkpt>
      <trkpt lat="45.68602" lon="5.25302">
        <ele>346</ele>
        <time>2020-05-16T13:23:42.000Z</time>
      </trkpt>
      <trkpt lat="45.68607" lon="5.25301">
        <ele>346</ele>
        <time>2020-05-16T13:23:43.000Z</time>
      </trkpt>
      <trkpt lat="45.68613" lon="5.25301">
        <ele>346</ele>
        <time>2020-05-16T13:23:44.000Z</time>
      </trkpt>
      <trkpt lat="45.68618" lon="5.25301">
        <ele>346</ele>
        <time>2020-05-16T13:23:45.000Z</time>
      </trkpt>
      <trkpt lat="45.68623" lon="5.25303">
        <ele>346</ele>
        <time>2020-05-16T13:23:46.000Z</time>
      </trkpt>
      <trkpt lat="45.68628" lon="5.25304">
        <ele>346</ele>
        <time>2020-05-16T13:23:47.000Z</time>
      </trkpt>
      <trkpt lat="45.68633" lon="5.25306">
        <ele>346</ele>
        <time>2020-05-16T13:23:48.000Z</time>
      </trkpt>
      <trkpt lat="45.68638" lon="5.25307">
        <ele>346</ele>
        <time>2020-05-16T13:23:49.000Z</time>
      </trkpt>
      <trkpt lat="45.68643" lon="5.25309">
        <ele>346</ele>
        <time>2020-05-16T13:23:50.000Z</time>
      </trkpt>
      <trkpt lat="45.68649" lon="5.2531">
        <ele>347</ele>
        <time>2020-05-16T13:23:51.000Z</time>
      </trkpt>
      <trkpt lat="45.68653" lon="5.25312">
        <ele>347</ele>
        <time>2020-05-16T13:23:52.000Z</time>
      </trkpt>
      <trkpt lat="45.68658" lon="5.25313">
        <ele>347</ele>
        <time>2020-05-16T13:23:53.000Z</time>
      </trkpt>
      <trkpt lat="45.68663" lon="5.25314">
        <ele>348</ele>
        <time>2020-05-16T13:23:54.000Z</time>
      </trkpt>
      <trkpt lat="45.68668" lon="5.25315">
        <ele>348</ele>
        <time>2020-05-16T13:23:55.000Z</time>
      </trkpt>
      <trkpt lat="45.68674" lon="5.25315">
        <ele>348</ele>
        <time>2020-05-16T13:23:56.000Z</time>
      </trkpt>
      <trkpt lat="45.68679" lon="5.25316">
        <ele>348</ele>
        <time>2020-05-16T13:23:57.000Z</time>
      </trkpt>
      <trkpt lat="45.68684" lon="5.25317">
        <ele>349</ele>
        <time>2020-05-16T13:23:58.000Z</time>
      </trkpt>
      <trkpt lat="45.6869" lon="5.25318">
        <ele>349</ele>
        <time>2020-05-16T13:23:59.000Z</time>
      </trkpt>
      <trkpt lat="45.68695" lon="5.25318">
        <ele>349</ele>
        <time>2020-05-16T13:24:00.000Z</time>
      </trkpt>
      <trkpt lat="45.68701" lon="5.25319">
        <ele>349</ele>
        <time>2020-05-16T13:24:01.000Z</time>
      </trkpt>
      <trkpt lat="45.68706" lon="5.2532">
        <ele>350</ele>
        <time>2020-05-16T13:24:02.000Z</time>
      </trkpt>
      <trkpt lat="45.68711" lon="5.25321">
        <ele>350</ele>
        <time>2020-05-16T13:24:03.000Z</time>
      </trkpt>
      <trkpt lat="45.68716" lon="5.25322">
        <ele>350</ele>
        <time>2020-05-16T13:24:04.000Z</time>
      </trkpt>
      <trkpt lat="45.68721" lon="5.25324">
        <ele>351</ele>
        <time>2020-05-16T13:24:05.000Z</time>
      </trkpt>
      <trkpt lat="45.68726" lon="5.25326">
        <ele>351</ele>
        <time>2020-05-16T13:24:06.000Z</time>
      </trkpt>
      <trkpt lat="45.6873" lon="5.25329">
        <ele>351</ele>
        <time>2020-05-16T13:24:07.000Z</time>
      </trkpt>
      <trkpt lat="45.68734" lon="5.25332">
        <ele>351</ele>
        <time>2020-05-16T13:24:08.000Z</time>
      </trkpt>
      <trkpt lat="45.68738" lon="5.25334">
        <ele>352</ele>
        <time>2020-05-16T13:24:09.000Z</time>
      </trkpt>
      <trkpt lat="45.68742" lon="5.25337">
        <ele>352</ele>
        <time>2020-05-16T13:24:10.000Z</time>
      </trkpt>
      <trkpt lat="45.68746" lon="5.2534">
        <ele>353</ele>
        <time>2020-05-16T13:24:11.000Z</time>
      </trkpt>
      <trkpt lat="45.68749" lon="5.25343">
        <ele>353</ele>
        <time>2020-05-16T13:24:12.000Z</time>
      </trkpt>
      <trkpt lat="45.68752" lon="5.25345">
        <ele>353</ele>
        <time>2020-05-16T13:24:13.000Z</time>
      </trkpt>
      <trkpt lat="45.68755" lon="5.25347">
        <ele>353</ele>
        <time>2020-05-16T13:24:14.000Z</time>
      </trkpt>
      <trkpt lat="45.68758" lon="5.25349">
        <ele>354</ele>
        <time>2020-05-16T13:24:15.000Z</time>
      </trkpt>
      <trkpt lat="45.68762" lon="5.25352">
        <ele>354</ele>
        <time>2020-05-16T13:24:16.000Z</time>
      </trkpt>
      <trkpt lat="45.68765" lon="5.25354">
        <ele>355</ele>
        <time>2020-05-16T13:24:17.000Z</time>
      </trkpt>
      <trkpt lat="45.68769" lon="5.25357">
        <ele>355</ele>
        <time>2020-05-16T13:24:18.000Z</time>
      </trkpt>
      <trkpt lat="45.68772" lon="5.2536">
        <ele>355</ele>
        <time>2020-05-16T13:24:19.000Z</time>
      </trkpt>
      <trkpt lat="45.68776" lon="5.25363">
        <ele>356</ele>
        <time>2020-05-16T13:24:20.000Z</time>
      </trkpt>
      <trkpt lat="45.68779" lon="5.25365">
        <ele>356</ele>
        <time>2020-05-16T13:24:21.000Z</time>
      </trkpt>
      <trkpt lat="45.68782" lon="5.25368">
        <ele>356</ele>
        <time>2020-05-16T13:24:22.000Z</time>
      </trkpt>
      <trkpt lat="45.68786" lon="5.25371">
        <ele>357</ele>
        <time>2020-05-16T13:24:23.000Z</time>
      </trkpt>
      <trkpt lat="45.68789" lon="5.25373">
        <ele>357</ele>
        <time>2020-05-16T13:24:24.000Z</time>
      </trkpt>
      <trkpt lat="45.68792" lon="5.25376">
        <ele>357</ele>
        <time>2020-05-16T13:24:25.000Z</time>
      </trkpt>
      <trkpt lat="45.68796" lon="5.25379">
        <ele>357</ele>
        <time>2020-05-16T13:24:26.000Z</time>
      </trkpt>
      <trkpt lat="45.68799" lon="5.25382">
        <ele>357</ele>
        <time>2020-05-16T13:24:27.000Z</time>
      </trkpt>
      <trkpt lat="45.68803" lon="5.25385">
        <ele>358</ele>
        <time>2020-05-16T13:24:28.000Z</time>
      </trkpt>
      <trkpt lat="45.68806" lon="5.25388">
        <ele>358</ele>
        <time>2020-05-16T13:24:29.000Z</time>
      </trkpt>
      <trkpt lat="45.68809" lon="5.25391">
        <ele>358</ele>
        <time>2020-05-16T13:24:30.000Z</time>
      </trkpt>
      <trkpt lat="45.68812" lon="5.25395">
        <ele>359</ele>
        <time>2020-05-16T13:24:31.000Z</time>
      </trkpt>
      <trkpt lat="45.68815" lon="5.25399">
        <ele>359</ele>
        <time>2020-05-16T13:24:32.000Z</time>
      </trkpt>
      <trkpt lat="45.68818" lon="5.25403">
        <ele>360</ele>
        <time>2020-05-16T13:24:33.000Z</time>
      </trkpt>
      <trkpt lat="45.68821" lon="5.25407">
        <ele>360</ele>
        <time>2020-05-16T13:24:34.000Z</time>
      </trkpt>
      <trkpt lat="45.68823" lon="5.25411">
        <ele>360</ele>
        <time>2020-05-16T13:24:35.000Z</time>
      </trkpt>
      <trkpt lat="45.68825" lon="5.25415">
        <ele>361</ele>
        <time>2020-05-16T13:24:36.000Z</time>
      </trkpt>
      <trkpt lat="45.68828" lon="5.25418">
        <ele>361</ele>
        <time>2020-05-16T13:24:37.000Z</time>
      </trkpt>
      <trkpt lat="45.6883" lon="5.25422">
        <ele>361</ele>
        <time>2020-05-16T13:24:38.000Z</time>
      </trkpt>
      <trkpt lat="45.68833" lon="5.25426">
        <ele>362</ele>
        <time>2020-05-16T13:24:39.000Z</time>
      </trkpt>
      <trkpt lat="45.68835" lon="5.2543">
        <ele>361</ele>
        <time>2020-05-16T13:24:40.000Z</time>
      </trkpt>
      <trkpt lat="45.68838" lon="5.25433">
        <ele>362</ele>
        <time>2020-05-16T13:24:41.000Z</time>
      </trkpt>
      <trkpt lat="45.6884" lon="5.25438">
        <ele>362</ele>
        <time>2020-05-16T13:24:42.000Z</time>
      </trkpt>
      <trkpt lat="45.68842" lon="5.25442">
        <ele>362</ele>
        <time>2020-05-16T13:24:43.000Z</time>
      </trkpt>
      <trkpt lat="45.68845" lon="5.25447">
        <ele>362</ele>
        <time>2020-05-16T13:24:44.000Z</time>
      </trkpt>
      <trkpt lat="45.68848" lon="5.25451">
        <ele>361</ele>
        <time>2020-05-16T13:24:45.000Z</time>
      </trkpt>
      <trkpt lat="45.6885" lon="5.25455">
        <ele>361</ele>
        <time>2020-05-16T13:24:46.000Z</time>
      </trkpt>
      <trkpt lat="45.68853" lon="5.2546">
        <ele>361</ele>
        <time>2020-05-16T13:24:47.000Z</time>
      </trkpt>
      <trkpt lat="45.68855" lon="5.25465">
        <ele>362</ele>
        <time>2020-05-16T13:24:48.000Z</time>
      </trkpt>
      <trkpt lat="45.68857" lon="5.2547">
        <ele>361</ele>
        <time>2020-05-16T13:24:49.000Z</time>
      </trkpt>
      <trkpt lat="45.68859" lon="5.25476">
        <ele>362</ele>
        <time>2020-05-16T13:24:50.000Z</time>
      </trkpt>
      <trkpt lat="45.6886" lon="5.25483">
        <ele>360</ele>
        <time>2020-05-16T13:24:51.000Z</time>
      </trkpt>
      <trkpt lat="45.68861" lon="5.2549">
        <ele>360</ele>
        <time>2020-05-16T13:24:52.000Z</time>
      </trkpt>
      <trkpt lat="45.68861" lon="5.25498">
        <ele>360</ele>
        <time>2020-05-16T13:24:53.000Z</time>
      </trkpt>
      <trkpt lat="45.68862" lon="5.25506">
        <ele>360</ele>
        <time>2020-05-16T13:24:54.000Z</time>
      </trkpt>
      <trkpt lat="45.68863" lon="5.25514">
        <ele>360</ele>
        <time>2020-05-16T13:24:55.000Z</time>
      </trkpt>
      <trkpt lat="45.68863" lon="5.25522">
        <ele>359</ele>
        <time>2020-05-16T13:24:56.000Z</time>
      </trkpt>
      <trkpt lat="45.68864" lon="5.25531">
        <ele>359</ele>
        <time>2020-05-16T13:24:57.000Z</time>
      </trkpt>
      <trkpt lat="45.68863" lon="5.2554">
        <ele>358</ele>
        <time>2020-05-16T13:24:58.000Z</time>
      </trkpt>
      <trkpt lat="45.68863" lon="5.25549">
        <ele>357</ele>
        <time>2020-05-16T13:24:59.000Z</time>
      </trkpt>
      <trkpt lat="45.68863" lon="5.25558">
        <ele>357</ele>
        <time>2020-05-16T13:25:00.000Z</time>
      </trkpt>
      <trkpt lat="45.68862" lon="5.25568">
        <ele>357</ele>
        <time>2020-05-16T13:25:01.000Z</time>
      </trkpt>
      <trkpt lat="45.68861" lon="5.25578">
        <ele>356</ele>
        <time>2020-05-16T13:25:02.000Z</time>
      </trkpt>
      <trkpt lat="45.6886" lon="5.25587">
        <ele>355</ele>
        <time>2020-05-16T13:25:03.000Z</time>
      </trkpt>
      <trkpt lat="45.68858" lon="5.25597">
        <ele>355</ele>
        <time>2020-05-16T13:25:04.000Z</time>
      </trkpt>
      <trkpt lat="45.68855" lon="5.25606">
        <ele>355</ele>
        <time>2020-05-16T13:25:05.000Z</time>
      </trkpt>
      <trkpt lat="45.68852" lon="5.25615">
        <ele>355</ele>
        <time>2020-05-16T13:25:06.000Z</time>
      </trkpt>
      <trkpt lat="45.68848" lon="5.25622">
        <ele>354</ele>
        <time>2020-05-16T13:25:07.000Z</time>
      </trkpt>
      <trkpt lat="45.68844" lon="5.25631">
        <ele>354</ele>
        <time>2020-05-16T13:25:08.000Z</time>
      </trkpt>
      <trkpt lat="45.68839" lon="5.25639">
        <ele>354</ele>
        <time>2020-05-16T13:25:09.000Z</time>
      </trkpt>
      <trkpt lat="45.68835" lon="5.25647">
        <ele>353</ele>
        <time>2020-05-16T13:25:10.000Z</time>
      </trkpt>
      <trkpt lat="45.6883" lon="5.25655">
        <ele>353</ele>
        <time>2020-05-16T13:25:11.000Z</time>
      </trkpt>
      <trkpt lat="45.68825" lon="5.25664">
        <ele>352</ele>
        <time>2020-05-16T13:25:12.000Z</time>
      </trkpt>
      <trkpt lat="45.68821" lon="5.25673">
        <ele>351</ele>
        <time>2020-05-16T13:25:13.000Z</time>
      </trkpt>
      <trkpt lat="45.68816" lon="5.25682">
        <ele>351</ele>
        <time>2020-05-16T13:25:14.000Z</time>
      </trkpt>
      <trkpt lat="45.68811" lon="5.25692">
        <ele>350</ele>
        <time>2020-05-16T13:25:15.000Z</time>
      </trkpt>
      <trkpt lat="45.68807" lon="5.25701">
        <ele>350</ele>
        <time>2020-05-16T13:25:16.000Z</time>
      </trkpt>
      <trkpt lat="45.68802" lon="5.2571">
        <ele>350</ele>
        <time>2020-05-16T13:25:17.000Z</time>
      </trkpt>
      <trkpt lat="45.68798" lon="5.2572">
        <ele>350</ele>
        <time>2020-05-16T13:25:18.000Z</time>
      </trkpt>
      <trkpt lat="45.68794" lon="5.25729">
        <ele>350</ele>
        <time>2020-05-16T13:25:19.000Z</time>
      </trkpt>
      <trkpt lat="45.6879" lon="5.25739">
        <ele>349</ele>
        <time>2020-05-16T13:25:20.000Z</time>
      </trkpt>
      <trkpt lat="45.68786" lon="5.2575">
        <ele>349</ele>
        <time>2020-05-16T13:25:21.000Z</time>
      </trkpt>
      <trkpt lat="45.68781" lon="5.2576">
        <ele>348</ele>
        <time>2020-05-16T13:25:22.000Z</time>
      </trkpt>
      <trkpt lat="45.68777" lon="5.2577">
        <ele>347</ele>
        <time>2020-05-16T13:25:23.000Z</time>
      </trkpt>
      <trkpt lat="45.68773" lon="5.25781">
        <ele>347</ele>
        <time>2020-05-16T13:25:24.000Z</time>
      </trkpt>
      <trkpt lat="45.68769" lon="5.25792">
        <ele>347</ele>
        <time>2020-05-16T13:25:25.000Z</time>
      </trkpt>
      <trkpt lat="45.68765" lon="5.25803">
        <ele>346</ele>
        <time>2020-05-16T13:25:26.000Z</time>
      </trkpt>
      <trkpt lat="45.68762" lon="5.25814">
        <ele>345</ele>
        <time>2020-05-16T13:25:27.000Z</time>
      </trkpt>
      <trkpt lat="45.68758" lon="5.25826">
        <ele>344</ele>
        <time>2020-05-16T13:25:28.000Z</time>
      </trkpt>
      <trkpt lat="45.68755" lon="5.25838">
        <ele>342</ele>
        <time>2020-05-16T13:25:29.000Z</time>
      </trkpt>
      <trkpt lat="45.68754" lon="5.25851">
        <ele>344</ele>
        <time>2020-05-16T13:25:30.000Z</time>
      </trkpt>
      <trkpt lat="45.68754" lon="5.25864">
        <ele>346</ele>
        <time>2020-05-16T13:25:31.000Z</time>
      </trkpt>
      <trkpt lat="45.68754" lon="5.25877">
        <ele>346</ele>
        <time>2020-05-16T13:25:32.000Z</time>
      </trkpt>
      <trkpt lat="45.68755" lon="5.25889">
        <ele>346</ele>
        <time>2020-05-16T13:25:33.000Z</time>
      </trkpt>
      <trkpt lat="45.68755" lon="5.25901">
        <ele>345</ele>
        <time>2020-05-16T13:25:34.000Z</time>
      </trkpt>
      <trkpt lat="45.68754" lon="5.25913">
        <ele>346</ele>
        <time>2020-05-16T13:25:35.000Z</time>
      </trkpt>
      <trkpt lat="45.68754" lon="5.25924">
        <ele>346</ele>
        <time>2020-05-16T13:25:36.000Z</time>
      </trkpt>
      <trkpt lat="45.68753" lon="5.25936">
        <ele>347</ele>
        <time>2020-05-16T13:25:37.000Z</time>
      </trkpt>
      <trkpt lat="45.68752" lon="5.25946">
        <ele>346</ele>
        <time>2020-05-16T13:25:38.000Z</time>
      </trkpt>
      <trkpt lat="45.68751" lon="5.25957">
        <ele>346</ele>
        <time>2020-05-16T13:25:39.000Z</time>
      </trkpt>
      <trkpt lat="45.68749" lon="5.25967">
        <ele>346</ele>
        <time>2020-05-16T13:25:40.000Z</time>
      </trkpt>
      <trkpt lat="45.68747" lon="5.25976">
        <ele>346</ele>
        <time>2020-05-16T13:25:41.000Z</time>
      </trkpt>
      <trkpt lat="45.68745" lon="5.25986">
        <ele>346</ele>
        <time>2020-05-16T13:25:42.000Z</time>
      </trkpt>
      <trkpt lat="45.68743" lon="5.25996">
        <ele>346</ele>
        <time>2020-05-16T13:25:43.000Z</time>
      </trkpt>
      <trkpt lat="45.68742" lon="5.26005">
        <ele>346</ele>
        <time>2020-05-16T13:25:44.000Z</time>
      </trkpt>
      <trkpt lat="45.6874" lon="5.26014">
        <ele>346</ele>
        <time>2020-05-16T13:25:45.000Z</time>
      </trkpt>
      <trkpt lat="45.68738" lon="5.26023">
        <ele>346</ele>
        <time>2020-05-16T13:25:46.000Z</time>
      </trkpt>
      <trkpt lat="45.68736" lon="5.26031">
        <ele>346</ele>
        <time>2020-05-16T13:25:47.000Z</time>
      </trkpt>
      <trkpt lat="45.68733" lon="5.26039">
        <ele>346</ele>
        <time>2020-05-16T13:25:48.000Z</time>
      </trkpt>
      <trkpt lat="45.68731" lon="5.26047">
        <ele>346</ele>
        <time>2020-05-16T13:25:49.000Z</time>
      </trkpt>
      <trkpt lat="45.68728" lon="5.26055">
        <ele>346</ele>
        <time>2020-05-16T13:25:50.000Z</time>
      </trkpt>
      <trkpt lat="45.68725" lon="5.26063">
        <ele>345</ele>
        <time>2020-05-16T13:25:51.000Z</time>
      </trkpt>
      <trkpt lat="45.68723" lon="5.26071">
        <ele>346</ele>
        <time>2020-05-16T13:25:52.000Z</time>
      </trkpt>
      <trkpt lat="45.68721" lon="5.26079">
        <ele>346</ele>
        <time>2020-05-16T13:25:53.000Z</time>
      </trkpt>
      <trkpt lat="45.68718" lon="5.26088">
        <ele>346</ele>
        <time>2020-05-16T13:25:54.000Z</time>
      </trkpt>
      <trkpt lat="45.68716" lon="5.26096">
        <ele>346</ele>
        <time>2020-05-16T13:25:55.000Z</time>
      </trkpt>
      <trkpt lat="45.68715" lon="5.26104">
        <ele>346</ele>
        <time>2020-05-16T13:25:56.000Z</time>
      </trkpt>
      <trkpt lat="45.68713" lon="5.26113">
        <ele>346</ele>
        <time>2020-05-16T13:25:57.000Z</time>
      </trkpt>
      <trkpt lat="45.68712" lon="5.26122">
        <ele>346</ele>
        <time>2020-05-16T13:25:58.000Z</time>
      </trkpt>
      <trkpt lat="45.68711" lon="5.2613">
        <ele>346</ele>
        <time>2020-05-16T13:25:59.000Z</time>
      </trkpt>
      <trkpt lat="45.68711" lon="5.26139">
        <ele>346</ele>
        <time>2020-05-16T13:26:00.000Z</time>
      </trkpt>
      <trkpt lat="45.68712" lon="5.26148">
        <ele>346</ele>
        <time>2020-05-16T13:26:01.000Z</time>
      </trkpt>
      <trkpt lat="45.68713" lon="5.26156">
        <ele>346</ele>
        <time>2020-05-16T13:26:02.000Z</time>
      </trkpt>
      <trkpt lat="45.68713" lon="5.26164">
        <ele>346</ele>
        <time>2020-05-16T13:26:03.000Z</time>
      </trkpt>
      <trkpt lat="45.68715" lon="5.26172">
        <ele>347</ele>
        <time>2020-05-16T13:26:04.000Z</time>
      </trkpt>
      <trkpt lat="45.68718" lon="5.26179">
        <ele>347</ele>
        <time>2020-05-16T13:26:05.000Z</time>
      </trkpt>
      <trkpt lat="45.68721" lon="5.26185">
        <ele>348</ele>
        <time>2020-05-16T13:26:06.000Z</time>
      </trkpt>
      <trkpt lat="45.68724" lon="5.26191">
        <ele>348</ele>
        <time>2020-05-16T13:26:07.000Z</time>
      </trkpt>
      <trkpt lat="45.68728" lon="5.26197">
        <ele>349</ele>
        <time>2020-05-16T13:26:08.000Z</time>
      </trkpt>
      <trkpt lat="45.68731" lon="5.26204">
        <ele>349</ele>
        <time>2020-05-16T13:26:09.000Z</time>
      </trkpt>
      <trkpt lat="45.68734" lon="5.26211">
        <ele>349</ele>
        <time>2020-05-16T13:26:10.000Z</time>
      </trkpt>
      <trkpt lat="45.68737" lon="5.26217">
        <ele>349</ele>
        <time>2020-05-16T13:26:11.000Z</time>
      </trkpt>
      <trkpt lat="45.68741" lon="5.26223">
        <ele>349</ele>
        <time>2020-05-16T13:26:12.000Z</time>
      </trkpt>
      <trkpt lat="45.68744" lon="5.26229">
        <ele>350</ele>
        <time>2020-05-16T13:26:13.000Z</time>
      </trkpt>
      <trkpt lat="45.68748" lon="5.26235">
        <ele>350</ele>
        <time>2020-05-16T13:26:14.000Z</time>
      </trkpt>
      <trkpt lat="45.68752" lon="5.2624">
        <ele>350</ele>
        <time>2020-05-16T13:26:15.000Z</time>
      </trkpt>
      <trkpt lat="45.68757" lon="5.26244">
        <ele>350</ele>
        <time>2020-05-16T13:26:16.000Z</time>
      </trkpt>
      <trkpt lat="45.68762" lon="5.26248">
        <ele>350</ele>
        <time>2020-05-16T13:26:17.000Z</time>
      </trkpt>
      <trkpt lat="45.68767" lon="5.26252">
        <ele>350</ele>
        <time>2020-05-16T13:26:18.000Z</time>
      </trkpt>
      <trkpt lat="45.68772" lon="5.26256">
        <ele>351</ele>
        <time>2020-05-16T13:26:19.000Z</time>
      </trkpt>
      <trkpt lat="45.68778" lon="5.2626">
        <ele>351</ele>
        <time>2020-05-16T13:26:20.000Z</time>
      </trkpt>
      <trkpt lat="45.68783" lon="5.26263">
        <ele>351</ele>
        <time>2020-05-16T13:26:21.000Z</time>
      </trkpt>
      <trkpt lat="45.68789" lon="5.26267">
        <ele>350</ele>
        <time>2020-05-16T13:26:22.000Z</time>
      </trkpt>
      <trkpt lat="45.68794" lon="5.2627">
        <ele>350</ele>
        <time>2020-05-16T13:26:23.000Z</time>
      </trkpt>
      <trkpt lat="45.68799" lon="5.26273">
        <ele>350</ele>
        <time>2020-05-16T13:26:24.000Z</time>
      </trkpt>
      <trkpt lat="45.68806" lon="5.26276">
        <ele>349</ele>
        <time>2020-05-16T13:26:25.000Z</time>
      </trkpt>
      <trkpt lat="45.68812" lon="5.26278">
        <ele>349</ele>
        <time>2020-05-16T13:26:26.000Z</time>
      </trkpt>
      <trkpt lat="45.6882" lon="5.2628">
        <ele>349</ele>
        <time>2020-05-16T13:26:27.000Z</time>
      </trkpt>
      <trkpt lat="45.68827" lon="5.2628">
        <ele>348</ele>
        <time>2020-05-16T13:26:28.000Z</time>
      </trkpt>
      <trkpt lat="45.68835" lon="5.2628">
        <ele>346</ele>
        <time>2020-05-16T13:26:29.000Z</time>
      </trkpt>
      <trkpt lat="45.68843" lon="5.26279">
        <ele>345</ele>
        <time>2020-05-16T13:26:30.000Z</time>
      </trkpt>
      <trkpt lat="45.68852" lon="5.26277">
        <ele>343</ele>
        <time>2020-05-16T13:26:31.000Z</time>
      </trkpt>
      <trkpt lat="45.6886" lon="5.26275">
        <ele>342</ele>
        <time>2020-05-16T13:26:32.000Z</time>
      </trkpt>
      <trkpt lat="45.68869" lon="5.26272">
        <ele>341</ele>
        <time>2020-05-16T13:26:33.000Z</time>
      </trkpt>
      <trkpt lat="45.68878" lon="5.26269">
        <ele>340</ele>
        <time>2020-05-16T13:26:34.000Z</time>
      </trkpt>
      <trkpt lat="45.68887" lon="5.26266">
        <ele>340</ele>
        <time>2020-05-16T13:26:35.000Z</time>
      </trkpt>
      <trkpt lat="45.68896" lon="5.26262">
        <ele>340</ele>
        <time>2020-05-16T13:26:36.000Z</time>
      </trkpt>
      <trkpt lat="45.68906" lon="5.26259">
        <ele>340</ele>
        <time>2020-05-16T13:26:37.000Z</time>
      </trkpt>
      <trkpt lat="45.68916" lon="5.26256">
        <ele>340</ele>
        <time>2020-05-16T13:26:38.000Z</time>
      </trkpt>
      <trkpt lat="45.68926" lon="5.26253">
        <ele>339</ele>
        <time>2020-05-16T13:26:39.000Z</time>
      </trkpt>
      <trkpt lat="45.68935" lon="5.2625">
        <ele>339</ele>
        <time>2020-05-16T13:26:40.000Z</time>
      </trkpt>
      <trkpt lat="45.68945" lon="5.26247">
        <ele>340</ele>
        <time>2020-05-16T13:26:41.000Z</time>
      </trkpt>
      <trkpt lat="45.68954" lon="5.26244">
        <ele>339</ele>
        <time>2020-05-16T13:26:42.000Z</time>
      </trkpt>
      <trkpt lat="45.68963" lon="5.26241">
        <ele>339</ele>
        <time>2020-05-16T13:26:43.000Z</time>
      </trkpt>
      <trkpt lat="45.68972" lon="5.26238">
        <ele>340</ele>
        <time>2020-05-16T13:26:44.000Z</time>
      </trkpt>
      <trkpt lat="45.68981" lon="5.26236">
        <ele>340</ele>
        <time>2020-05-16T13:26:45.000Z</time>
      </trkpt>
      <trkpt lat="45.6899" lon="5.26234">
        <ele>340</ele>
        <time>2020-05-16T13:26:46.000Z</time>
      </trkpt>
      <trkpt lat="45.68998" lon="5.26232">
        <ele>340</ele>
        <time>2020-05-16T13:26:47.000Z</time>
      </trkpt>
      <trkpt lat="45.69005" lon="5.26231">
        <ele>341</ele>
        <time>2020-05-16T13:26:48.000Z</time>
      </trkpt>
      <trkpt lat="45.69012" lon="5.26231">
        <ele>341</ele>
        <time>2020-05-16T13:26:49.000Z</time>
      </trkpt>
      <trkpt lat="45.69018" lon="5.26231">
        <ele>341</ele>
        <time>2020-05-16T13:26:50.000Z</time>
      </trkpt>
      <trkpt lat="45.69025" lon="5.2623">
        <ele>341</ele>
        <time>2020-05-16T13:26:51.000Z</time>
      </trkpt>
      <trkpt lat="45.69031" lon="5.2623">
        <ele>342</ele>
        <time>2020-05-16T13:26:52.000Z</time>
      </trkpt>
      <trkpt lat="45.69036" lon="5.26229">
        <ele>342</ele>
        <time>2020-05-16T13:26:53.000Z</time>
      </trkpt>
      <trkpt lat="45.69042" lon="5.26228">
        <ele>343</ele>
        <time>2020-05-16T13:26:54.000Z</time>
      </trkpt>
      <trkpt lat="45.69048" lon="5.26226">
        <ele>343</ele>
        <time>2020-05-16T13:26:55.000Z</time>
      </trkpt>
      <trkpt lat="45.69053" lon="5.26225">
        <ele>343</ele>
        <time>2020-05-16T13:26:56.000Z</time>
      </trkpt>
      <trkpt lat="45.69059" lon="5.26223">
        <ele>343</ele>
        <time>2020-05-16T13:26:57.000Z</time>
      </trkpt>
      <trkpt lat="45.69064" lon="5.26222">
        <ele>343</ele>
        <time>2020-05-16T13:26:58.000Z</time>
      </trkpt>
      <trkpt lat="45.6907" lon="5.2622">
        <ele>343</ele>
        <time>2020-05-16T13:26:59.000Z</time>
      </trkpt>
      <trkpt lat="45.69075" lon="5.26219">
        <ele>343</ele>
        <time>2020-05-16T13:27:00.000Z</time>
      </trkpt>
      <trkpt lat="45.69081" lon="5.26217">
        <ele>343</ele>
        <time>2020-05-16T13:27:01.000Z</time>
      </trkpt>
      <trkpt lat="45.69086" lon="5.26215">
        <ele>344</ele>
        <time>2020-05-16T13:27:02.000Z</time>
      </trkpt>
      <trkpt lat="45.69092" lon="5.26214">
        <ele>344</ele>
        <time>2020-05-16T13:27:03.000Z</time>
      </trkpt>
      <trkpt lat="45.69097" lon="5.26212">
        <ele>343</ele>
        <time>2020-05-16T13:27:04.000Z</time>
      </trkpt>
      <trkpt lat="45.69102" lon="5.26211">
        <ele>343</ele>
        <time>2020-05-16T13:27:05.000Z</time>
      </trkpt>
      <trkpt lat="45.69107" lon="5.2621">
        <ele>342</ele>
        <time>2020-05-16T13:27:06.000Z</time>
      </trkpt>
      <trkpt lat="45.69112" lon="5.26209">
        <ele>342</ele>
        <time>2020-05-16T13:27:07.000Z</time>
      </trkpt>
      <trkpt lat="45.69118" lon="5.26208">
        <ele>342</ele>
        <time>2020-05-16T13:27:08.000Z</time>
      </trkpt>
      <trkpt lat="45.69123" lon="5.26208">
        <ele>341</ele>
        <time>2020-05-16T13:27:09.000Z</time>
      </trkpt>
      <trkpt lat="45.69128" lon="5.26207">
        <ele>340</ele>
        <time>2020-05-16T13:27:10.000Z</time>
      </trkpt>
      <trkpt lat="45.69134" lon="5.26207">
        <ele>340</ele>
        <time>2020-05-16T13:27:11.000Z</time>
      </trkpt>
      <trkpt lat="45.69139" lon="5.26207">
        <ele>339</ele>
        <time>2020-05-16T13:27:12.000Z</time>
      </trkpt>
      <trkpt lat="45.69145" lon="5.26207">
        <ele>339</ele>
        <time>2020-05-16T13:27:13.000Z</time>
      </trkpt>
      <trkpt lat="45.6915" lon="5.26208">
        <ele>339</ele>
        <time>2020-05-16T13:27:14.000Z</time>
      </trkpt>
      <trkpt lat="45.69157" lon="5.2621">
        <ele>341</ele>
        <time>2020-05-16T13:27:15.000Z</time>
      </trkpt>
      <trkpt lat="45.69165" lon="5.26212">
        <ele>342</ele>
        <time>2020-05-16T13:27:16.000Z</time>
      </trkpt>
      <trkpt lat="45.69171" lon="5.26215">
        <ele>342</ele>
        <time>2020-05-16T13:27:17.000Z</time>
      </trkpt>
      <trkpt lat="45.69177" lon="5.26217">
        <ele>342</ele>
        <time>2020-05-16T13:27:18.000Z</time>
      </trkpt>
      <trkpt lat="45.69183" lon="5.26221">
        <ele>342</ele>
        <time>2020-05-16T13:27:19.000Z</time>
      </trkpt>
      <trkpt lat="45.69188" lon="5.26226">
        <ele>339</ele>
        <time>2020-05-16T13:27:20.000Z</time>
      </trkpt>
      <trkpt lat="45.69194" lon="5.26232">
        <ele>338</ele>
        <time>2020-05-16T13:27:21.000Z</time>
      </trkpt>
      <trkpt lat="45.69199" lon="5.26239">
        <ele>337</ele>
        <time>2020-05-16T13:27:22.000Z</time>
      </trkpt>
      <trkpt lat="45.69203" lon="5.26247">
        <ele>339</ele>
        <time>2020-05-16T13:27:23.000Z</time>
      </trkpt>
      <trkpt lat="45.69205" lon="5.26257">
        <ele>339</ele>
        <time>2020-05-16T13:27:24.000Z</time>
      </trkpt>
      <trkpt lat="45.69207" lon="5.26267">
        <ele>339</ele>
        <time>2020-05-16T13:27:25.000Z</time>
      </trkpt>
      <trkpt lat="45.69209" lon="5.26276">
        <ele>339</ele>
        <time>2020-05-16T13:27:26.000Z</time>
      </trkpt>
      <trkpt lat="45.69211" lon="5.26285">
        <ele>339</ele>
        <time>2020-05-16T13:27:27.000Z</time>
      </trkpt>
      <trkpt lat="45.69212" lon="5.26295">
        <ele>340</ele>
        <time>2020-05-16T13:27:28.000Z</time>
      </trkpt>
      <trkpt lat="45.69214" lon="5.26304">
        <ele>339</ele>
        <time>2020-05-16T13:27:29.000Z</time>
      </trkpt>
      <trkpt lat="45.69215" lon="5.26314">
        <ele>340</ele>
        <time>2020-05-16T13:27:30.000Z</time>
      </trkpt>
      <trkpt lat="45.69217" lon="5.26323">
        <ele>340</ele>
        <time>2020-05-16T13:27:31.000Z</time>
      </trkpt>
      <trkpt lat="45.69218" lon="5.26332">
        <ele>340</ele>
        <time>2020-05-16T13:27:32.000Z</time>
      </trkpt>
      <trkpt lat="45.6922" lon="5.26341">
        <ele>340</ele>
        <time>2020-05-16T13:27:33.000Z</time>
      </trkpt>
      <trkpt lat="45.69221" lon="5.2635">
        <ele>340</ele>
        <time>2020-05-16T13:27:34.000Z</time>
      </trkpt>
      <trkpt lat="45.69223" lon="5.26359">
        <ele>340</ele>
        <time>2020-05-16T13:27:35.000Z</time>
      </trkpt>
      <trkpt lat="45.69224" lon="5.26368">
        <ele>340</ele>
        <time>2020-05-16T13:27:36.000Z</time>
      </trkpt>
      <trkpt lat="45.69225" lon="5.26377">
        <ele>340</ele>
        <time>2020-05-16T13:27:37.000Z</time>
      </trkpt>
      <trkpt lat="45.69227" lon="5.26386">
        <ele>339</ele>
        <time>2020-05-16T13:27:38.000Z</time>
      </trkpt>
      <trkpt lat="45.69228" lon="5.26395">
        <ele>339</ele>
        <time>2020-05-16T13:27:39.000Z</time>
      </trkpt>
      <trkpt lat="45.6923" lon="5.26404">
        <ele>339</ele>
        <time>2020-05-16T13:27:40.000Z</time>
      </trkpt>
      <trkpt lat="45.69232" lon="5.26412">
        <ele>339</ele>
        <time>2020-05-16T13:27:41.000Z</time>
      </trkpt>
      <trkpt lat="45.69234" lon="5.26421">
        <ele>339</ele>
        <time>2020-05-16T13:27:42.000Z</time>
      </trkpt>
      <trkpt lat="45.69236" lon="5.2643">
        <ele>339</ele>
        <time>2020-05-16T13:27:43.000Z</time>
      </trkpt>
      <trkpt lat="45.69239" lon="5.26439">
        <ele>339</ele>
        <time>2020-05-16T13:27:44.000Z</time>
      </trkpt>
      <trkpt lat="45.69241" lon="5.26448">
        <ele>339</ele>
        <time>2020-05-16T13:27:45.000Z</time>
      </trkpt>
      <trkpt lat="45.69243" lon="5.26457">
        <ele>340</ele>
        <time>2020-05-16T13:27:46.000Z</time>
      </trkpt>
      <trkpt lat="45.69245" lon="5.26465">
        <ele>340</ele>
        <time>2020-05-16T13:27:47.000Z</time>
      </trkpt>
      <trkpt lat="45.69248" lon="5.26473">
        <ele>340</ele>
        <time>2020-05-16T13:27:48.000Z</time>
      </trkpt>
      <trkpt lat="45.69251" lon="5.26481">
        <ele>340</ele>
        <time>2020-05-16T13:27:49.000Z</time>
      </trkpt>
      <trkpt lat="45.69254" lon="5.26489">
        <ele>339</ele>
        <time>2020-05-16T13:27:50.000Z</time>
      </trkpt>
      <trkpt lat="45.69258" lon="5.26495">
        <ele>340</ele>
        <time>2020-05-16T13:27:51.000Z</time>
      </trkpt>
      <trkpt lat="45.69264" lon="5.265">
        <ele>340</ele>
        <time>2020-05-16T13:27:52.000Z</time>
      </trkpt>
      <trkpt lat="45.6927" lon="5.26503">
        <ele>340</ele>
        <time>2020-05-16T13:27:53.000Z</time>
      </trkpt>
      <trkpt lat="45.69277" lon="5.26505">
        <ele>339</ele>
        <time>2020-05-16T13:27:54.000Z</time>
      </trkpt>
      <trkpt lat="45.69283" lon="5.26506">
        <ele>339</ele>
        <time>2020-05-16T13:27:55.000Z</time>
      </trkpt>
      <trkpt lat="45.69289" lon="5.26506">
        <ele>338</ele>
        <time>2020-05-16T13:27:56.000Z</time>
      </trkpt>
      <trkpt lat="45.69295" lon="5.26505">
        <ele>338</ele>
        <time>2020-05-16T13:27:57.000Z</time>
      </trkpt>
      <trkpt lat="45.693" lon="5.26504">
        <ele>338</ele>
        <time>2020-05-16T13:27:58.000Z</time>
      </trkpt>
      <trkpt lat="45.69306" lon="5.26502">
        <ele>338</ele>
        <time>2020-05-16T13:27:59.000Z</time>
      </trkpt>
      <trkpt lat="45.69311" lon="5.26501">
        <ele>338</ele>
        <time>2020-05-16T13:28:00.000Z</time>
      </trkpt>
      <trkpt lat="45.69317" lon="5.26499">
        <ele>338</ele>
        <time>2020-05-16T13:28:01.000Z</time>
      </trkpt>
      <trkpt lat="45.69322" lon="5.26497">
        <ele>339</ele>
        <time>2020-05-16T13:28:02.000Z</time>
      </trkpt>
      <trkpt lat="45.69327" lon="5.26495">
        <ele>339</ele>
        <time>2020-05-16T13:28:03.000Z</time>
      </trkpt>
      <trkpt lat="45.69333" lon="5.26494">
        <ele>339</ele>
        <time>2020-05-16T13:28:04.000Z</time>
      </trkpt>
      <trkpt lat="45.69338" lon="5.26492">
        <ele>340</ele>
        <time>2020-05-16T13:28:05.000Z</time>
      </trkpt>
      <trkpt lat="45.69342" lon="5.26491">
        <ele>341</ele>
        <time>2020-05-16T13:28:06.000Z</time>
      </trkpt>
      <trkpt lat="45.69347" lon="5.2649">
        <ele>341</ele>
        <time>2020-05-16T13:28:07.000Z</time>
      </trkpt>
      <trkpt lat="45.69352" lon="5.26488">
        <ele>341</ele>
        <time>2020-05-16T13:28:08.000Z</time>
      </trkpt>
      <trkpt lat="45.69356" lon="5.26487">
        <ele>341</ele>
        <time>2020-05-16T13:28:09.000Z</time>
      </trkpt>
      <trkpt lat="45.6936" lon="5.26487">
        <ele>342</ele>
        <time>2020-05-16T13:28:10.000Z</time>
      </trkpt>
      <trkpt lat="45.69365" lon="5.26486">
        <ele>342</ele>
        <time>2020-05-16T13:28:11.000Z</time>
      </trkpt>
      <trkpt lat="45.6937" lon="5.26485">
        <ele>342</ele>
        <time>2020-05-16T13:28:12.000Z</time>
      </trkpt>
      <trkpt lat="45.69374" lon="5.26484">
        <ele>342</ele>
        <time>2020-05-16T13:28:13.000Z</time>
      </trkpt>
      <trkpt lat="45.69379" lon="5.26482">
        <ele>342</ele>
        <time>2020-05-16T13:28:14.000Z</time>
      </trkpt>
      <trkpt lat="45.69384" lon="5.26481">
        <ele>342</ele>
        <time>2020-05-16T13:28:15.000Z</time>
      </trkpt>
      <trkpt lat="45.69389" lon="5.26479">
        <ele>343</ele>
        <time>2020-05-16T13:28:16.000Z</time>
      </trkpt>
      <trkpt lat="45.69395" lon="5.26478">
        <ele>343</ele>
        <time>2020-05-16T13:28:17.000Z</time>
      </trkpt>
      <trkpt lat="45.694" lon="5.26477">
        <ele>343</ele>
        <time>2020-05-16T13:28:18.000Z</time>
      </trkpt>
      <trkpt lat="45.69405" lon="5.26476">
        <ele>343</ele>
        <time>2020-05-16T13:28:19.000Z</time>
      </trkpt>
      <trkpt lat="45.6941" lon="5.26475">
        <ele>343</ele>
        <time>2020-05-16T13:28:20.000Z</time>
      </trkpt>
      <trkpt lat="45.69416" lon="5.26474">
        <ele>343</ele>
        <time>2020-05-16T13:28:21.000Z</time>
      </trkpt>
      <trkpt lat="45.69421" lon="5.26474">
        <ele>344</ele>
        <time>2020-05-16T13:28:22.000Z</time>
      </trkpt>
      <trkpt lat="45.69426" lon="5.26474">
        <ele>344</ele>
        <time>2020-05-16T13:28:23.000Z</time>
      </trkpt>
      <trkpt lat="45.69431" lon="5.26473">
        <ele>344</ele>
        <time>2020-05-16T13:28:24.000Z</time>
      </trkpt>
      <trkpt lat="45.69436" lon="5.26473">
        <ele>345</ele>
        <time>2020-05-16T13:28:25.000Z</time>
      </trkpt>
      <trkpt lat="45.69441" lon="5.26473">
        <ele>345</ele>
        <time>2020-05-16T13:28:26.000Z</time>
      </trkpt>
      <trkpt lat="45.69446" lon="5.26474">
        <ele>345</ele>
        <time>2020-05-16T13:28:27.000Z</time>
      </trkpt>
      <trkpt lat="45.69451" lon="5.26474">
        <ele>345</ele>
        <time>2020-05-16T13:28:28.000Z</time>
      </trkpt>
      <trkpt lat="45.69456" lon="5.26475">
        <ele>345</ele>
        <time>2020-05-16T13:28:29.000Z</time>
      </trkpt>
      <trkpt lat="45.69461" lon="5.26475">
        <ele>346</ele>
        <time>2020-05-16T13:28:30.000Z</time>
      </trkpt>
      <trkpt lat="45.69466" lon="5.26476">
        <ele>346</ele>
        <time>2020-05-16T13:28:31.000Z</time>
      </trkpt>
      <trkpt lat="45.69472" lon="5.26477">
        <ele>346</ele>
        <time>2020-05-16T13:28:32.000Z</time>
      </trkpt>
      <trkpt lat="45.69477" lon="5.26478">
        <ele>346</ele>
        <time>2020-05-16T13:28:33.000Z</time>
      </trkpt>
      <trkpt lat="45.69482" lon="5.26479">
        <ele>346</ele>
        <time>2020-05-16T13:28:34.000Z</time>
      </trkpt>
      <trkpt lat="45.69488" lon="5.26481">
        <ele>347</ele>
        <time>2020-05-16T13:28:35.000Z</time>
      </trkpt>
      <trkpt lat="45.69493" lon="5.26482">
        <ele>347</ele>
        <time>2020-05-16T13:28:36.000Z</time>
      </trkpt>
      <trkpt lat="45.69498" lon="5.26484">
        <ele>347</ele>
        <time>2020-05-16T13:28:37.000Z</time>
      </trkpt>
      <trkpt lat="45.69504" lon="5.26486">
        <ele>347</ele>
        <time>2020-05-16T13:28:38.000Z</time>
      </trkpt>
      <trkpt lat="45.69509" lon="5.26488">
        <ele>347</ele>
        <time>2020-05-16T13:28:39.000Z</time>
      </trkpt>
      <trkpt lat="45.69514" lon="5.26489">
        <ele>347</ele>
        <time>2020-05-16T13:28:40.000Z</time>
      </trkpt>
      <trkpt lat="45.69519" lon="5.26491">
        <ele>347</ele>
        <time>2020-05-16T13:28:41.000Z</time>
      </trkpt>
      <trkpt lat="45.69524" lon="5.26493">
        <ele>347</ele>
        <time>2020-05-16T13:28:42.000Z</time>
      </trkpt>
      <trkpt lat="45.69529" lon="5.26495">
        <ele>348</ele>
        <time>2020-05-16T13:28:43.000Z</time>
      </trkpt>
      <trkpt lat="45.69534" lon="5.26497">
        <ele>348</ele>
        <time>2020-05-16T13:28:44.000Z</time>
      </trkpt>
      <trkpt lat="45.6954" lon="5.26499">
        <ele>348</ele>
        <time>2020-05-16T13:28:45.000Z</time>
      </trkpt>
      <trkpt lat="45.69545" lon="5.26501">
        <ele>348</ele>
        <time>2020-05-16T13:28:46.000Z</time>
      </trkpt>
      <trkpt lat="45.6955" lon="5.26502">
        <ele>348</ele>
        <time>2020-05-16T13:28:47.000Z</time>
      </trkpt>
      <trkpt lat="45.69555" lon="5.26504">
        <ele>348</ele>
        <time>2020-05-16T13:28:48.000Z</time>
      </trkpt>
      <trkpt lat="45.6956" lon="5.26505">
        <ele>348</ele>
        <time>2020-05-16T13:28:49.000Z</time>
      </trkpt>
      <trkpt lat="45.69566" lon="5.26506">
        <ele>349</ele>
        <time>2020-05-16T13:28:50.000Z</time>
      </trkpt>
      <trkpt lat="45.69571" lon="5.26507">
        <ele>349</ele>
        <time>2020-05-16T13:28:51.000Z</time>
      </trkpt>
      <trkpt lat="45.69577" lon="5.26508">
        <ele>349</ele>
        <time>2020-05-16T13:28:52.000Z</time>
      </trkpt>
      <trkpt lat="45.69582" lon="5.2651">
        <ele>349</ele>
        <time>2020-05-16T13:28:53.000Z</time>
      </trkpt>
      <trkpt lat="45.69588" lon="5.2651">
        <ele>349</ele>
        <time>2020-05-16T13:28:54.000Z</time>
      </trkpt>
      <trkpt lat="45.69593" lon="5.26511">
        <ele>349</ele>
        <time>2020-05-16T13:28:55.000Z</time>
      </trkpt>
      <trkpt lat="45.69599" lon="5.26512">
        <ele>349</ele>
        <time>2020-05-16T13:28:56.000Z</time>
      </trkpt>
      <trkpt lat="45.69604" lon="5.26513">
        <ele>349</ele>
        <time>2020-05-16T13:28:57.000Z</time>
      </trkpt>
      <trkpt lat="45.69609" lon="5.26514">
        <ele>349</ele>
        <time>2020-05-16T13:28:58.000Z</time>
      </trkpt>
      <trkpt lat="45.69614" lon="5.26515">
        <ele>349</ele>
        <time>2020-05-16T13:28:59.000Z</time>
      </trkpt>
      <trkpt lat="45.69619" lon="5.26516">
        <ele>349</ele>
        <time>2020-05-16T13:29:00.000Z</time>
      </trkpt>
      <trkpt lat="45.69625" lon="5.26517">
        <ele>349</ele>
        <time>2020-05-16T13:29:01.000Z</time>
      </trkpt>
      <trkpt lat="45.6963" lon="5.26518">
        <ele>349</ele>
        <time>2020-05-16T13:29:02.000Z</time>
      </trkpt>
      <trkpt lat="45.69635" lon="5.26519">
        <ele>350</ele>
        <time>2020-05-16T13:29:03.000Z</time>
      </trkpt>
      <trkpt lat="45.69641" lon="5.2652">
        <ele>350</ele>
        <time>2020-05-16T13:29:04.000Z</time>
      </trkpt>
      <trkpt lat="45.69646" lon="5.26521">
        <ele>350</ele>
        <time>2020-05-16T13:29:05.000Z</time>
      </trkpt>
      <trkpt lat="45.69652" lon="5.26522">
        <ele>350</ele>
        <time>2020-05-16T13:29:06.000Z</time>
      </trkpt>
      <trkpt lat="45.69657" lon="5.26523">
        <ele>350</ele>
        <time>2020-05-16T13:29:07.000Z</time>
      </trkpt>
      <trkpt lat="45.69663" lon="5.26524">
        <ele>350</ele>
        <time>2020-05-16T13:29:08.000Z</time>
      </trkpt>
      <trkpt lat="45.69668" lon="5.26524">
        <ele>350</ele>
        <time>2020-05-16T13:29:09.000Z</time>
      </trkpt>
      <trkpt lat="45.69674" lon="5.26525">
        <ele>350</ele>
        <time>2020-05-16T13:29:10.000Z</time>
      </trkpt>
      <trkpt lat="45.69679" lon="5.26526">
        <ele>350</ele>
        <time>2020-05-16T13:29:11.000Z</time>
      </trkpt>
      <trkpt lat="45.69685" lon="5.26527">
        <ele>350</ele>
        <time>2020-05-16T13:29:12.000Z</time>
      </trkpt>
      <trkpt lat="45.6969" lon="5.26528">
        <ele>350</ele>
        <time>2020-05-16T13:29:13.000Z</time>
      </trkpt>
      <trkpt lat="45.69696" lon="5.26528">
        <ele>350</ele>
        <time>2020-05-16T13:29:14.000Z</time>
      </trkpt>
      <trkpt lat="45.69701" lon="5.26528">
        <ele>350</ele>
        <time>2020-05-16T13:29:15.000Z</time>
      </trkpt>
      <trkpt lat="45.69707" lon="5.26528">
        <ele>349</ele>
        <time>2020-05-16T13:29:16.000Z</time>
      </trkpt>
      <trkpt lat="45.69713" lon="5.26529">
        <ele>349</ele>
        <time>2020-05-16T13:29:17.000Z</time>
      </trkpt>
      <trkpt lat="45.69719" lon="5.2653">
        <ele>348</ele>
        <time>2020-05-16T13:29:18.000Z</time>
      </trkpt>
      <trkpt lat="45.69726" lon="5.26531">
        <ele>347</ele>
        <time>2020-05-16T13:29:19.000Z</time>
      </trkpt>
      <trkpt lat="45.69732" lon="5.26533">
        <ele>348</ele>
        <time>2020-05-16T13:29:20.000Z</time>
      </trkpt>
      <trkpt lat="45.69739" lon="5.26535">
        <ele>347</ele>
        <time>2020-05-16T13:29:21.000Z</time>
      </trkpt>
      <trkpt lat="45.69746" lon="5.26538">
        <ele>347</ele>
        <time>2020-05-16T13:29:22.000Z</time>
      </trkpt>
      <trkpt lat="45.69753" lon="5.26541">
        <ele>346</ele>
        <time>2020-05-16T13:29:23.000Z</time>
      </trkpt>
      <trkpt lat="45.69761" lon="5.26545">
        <ele>346</ele>
        <time>2020-05-16T13:29:24.000Z</time>
      </trkpt>
      <trkpt lat="45.69769" lon="5.26548">
        <ele>345</ele>
        <time>2020-05-16T13:29:25.000Z</time>
      </trkpt>
      <trkpt lat="45.69776" lon="5.26552">
        <ele>345</ele>
        <time>2020-05-16T13:29:26.000Z</time>
      </trkpt>
      <trkpt lat="45.69784" lon="5.26555">
        <ele>344</ele>
        <time>2020-05-16T13:29:27.000Z</time>
      </trkpt>
      <trkpt lat="45.69792" lon="5.26559">
        <ele>344</ele>
        <time>2020-05-16T13:29:28.000Z</time>
      </trkpt>
      <trkpt lat="45.69801" lon="5.26563">
        <ele>344</ele>
        <time>2020-05-16T13:29:29.000Z</time>
      </trkpt>
      <trkpt lat="45.69809" lon="5.26567">
        <ele>344</ele>
        <time>2020-05-16T13:29:30.000Z</time>
      </trkpt>
      <trkpt lat="45.69818" lon="5.26571">
        <ele>344</ele>
        <time>2020-05-16T13:29:31.000Z</time>
      </trkpt>
      <trkpt lat="45.69826" lon="5.26575">
        <ele>344</ele>
        <time>2020-05-16T13:29:32.000Z</time>
      </trkpt>
      <trkpt lat="45.69834" lon="5.26579">
        <ele>344</ele>
        <time>2020-05-16T13:29:33.000Z</time>
      </trkpt>
      <trkpt lat="45.69842" lon="5.26582">
        <ele>344</ele>
        <time>2020-05-16T13:29:34.000Z</time>
      </trkpt>
      <trkpt lat="45.6985" lon="5.26586">
        <ele>344</ele>
        <time>2020-05-16T13:29:35.000Z</time>
      </trkpt>
      <trkpt lat="45.69858" lon="5.26589">
        <ele>344</ele>
        <time>2020-05-16T13:29:36.000Z</time>
      </trkpt>
      <trkpt lat="45.69865" lon="5.26592">
        <ele>344</ele>
        <time>2020-05-16T13:29:37.000Z</time>
      </trkpt>
      <trkpt lat="45.69872" lon="5.26595">
        <ele>344</ele>
        <time>2020-05-16T13:29:38.000Z</time>
      </trkpt>
      <trkpt lat="45.69879" lon="5.26599">
        <ele>344</ele>
        <time>2020-05-16T13:29:39.000Z</time>
      </trkpt>
      <trkpt lat="45.69886" lon="5.26602">
        <ele>345</ele>
        <time>2020-05-16T13:29:40.000Z</time>
      </trkpt>
      <trkpt lat="45.69893" lon="5.26605">
        <ele>345</ele>
        <time>2020-05-16T13:29:41.000Z</time>
      </trkpt>
      <trkpt lat="45.69899" lon="5.26608">
        <ele>345</ele>
        <time>2020-05-16T13:29:42.000Z</time>
      </trkpt>
      <trkpt lat="45.69906" lon="5.2661">
        <ele>345</ele>
        <time>2020-05-16T13:29:43.000Z</time>
      </trkpt>
      <trkpt lat="45.69912" lon="5.26613">
        <ele>346</ele>
        <time>2020-05-16T13:29:44.000Z</time>
      </trkpt>
      <trkpt lat="45.69919" lon="5.26616">
        <ele>346</ele>
        <time>2020-05-16T13:29:45.000Z</time>
      </trkpt>
      <trkpt lat="45.69925" lon="5.26619">
        <ele>346</ele>
        <time>2020-05-16T13:29:46.000Z</time>
      </trkpt>
      <trkpt lat="45.69931" lon="5.26622">
        <ele>346</ele>
        <time>2020-05-16T13:29:47.000Z</time>
      </trkpt>
      <trkpt lat="45.69937" lon="5.26625">
        <ele>346</ele>
        <time>2020-05-16T13:29:48.000Z</time>
      </trkpt>
      <trkpt lat="45.69943" lon="5.26627">
        <ele>346</ele>
        <time>2020-05-16T13:29:49.000Z</time>
      </trkpt>
      <trkpt lat="45.69949" lon="5.2663">
        <ele>346</ele>
        <time>2020-05-16T13:29:50.000Z</time>
      </trkpt>
      <trkpt lat="45.69954" lon="5.26633">
        <ele>347</ele>
        <time>2020-05-16T13:29:51.000Z</time>
      </trkpt>
      <trkpt lat="45.6996" lon="5.26635">
        <ele>347</ele>
        <time>2020-05-16T13:29:52.000Z</time>
      </trkpt>
      <trkpt lat="45.69966" lon="5.26638">
        <ele>348</ele>
        <time>2020-05-16T13:29:53.000Z</time>
      </trkpt>
      <trkpt lat="45.69971" lon="5.2664">
        <ele>348</ele>
        <time>2020-05-16T13:29:54.000Z</time>
      </trkpt>
      <trkpt lat="45.69977" lon="5.26642">
        <ele>348</ele>
        <time>2020-05-16T13:29:55.000Z</time>
      </trkpt>
      <trkpt lat="45.69982" lon="5.26645">
        <ele>348</ele>
        <time>2020-05-16T13:29:56.000Z</time>
      </trkpt>
      <trkpt lat="45.69988" lon="5.26647">
        <ele>348</ele>
        <time>2020-05-16T13:29:57.000Z</time>
      </trkpt>
      <trkpt lat="45.69993" lon="5.26649">
        <ele>349</ele>
        <time>2020-05-16T13:29:58.000Z</time>
      </trkpt>
      <trkpt lat="45.69999" lon="5.2665">
        <ele>350</ele>
        <time>2020-05-16T13:29:59.000Z</time>
      </trkpt>
      <trkpt lat="45.70004" lon="5.26651">
        <ele>350</ele>
        <time>2020-05-16T13:30:00.000Z</time>
      </trkpt>
      <trkpt lat="45.7001" lon="5.26651">
        <ele>349</ele>
        <time>2020-05-16T13:30:01.000Z</time>
      </trkpt>
      <trkpt lat="45.70016" lon="5.26651">
        <ele>349</ele>
        <time>2020-05-16T13:30:02.000Z</time>
      </trkpt>
      <trkpt lat="45.70022" lon="5.2665">
        <ele>348</ele>
        <time>2020-05-16T13:30:03.000Z</time>
      </trkpt>
      <trkpt lat="45.70028" lon="5.26648">
        <ele>348</ele>
        <time>2020-05-16T13:30:04.000Z</time>
      </trkpt>
      <trkpt lat="45.70034" lon="5.26646">
        <ele>347</ele>
        <time>2020-05-16T13:30:05.000Z</time>
      </trkpt>
      <trkpt lat="45.7004" lon="5.26643">
        <ele>347</ele>
        <time>2020-05-16T13:30:06.000Z</time>
      </trkpt>
      <trkpt lat="45.70046" lon="5.2664">
        <ele>346</ele>
        <time>2020-05-16T13:30:07.000Z</time>
      </trkpt>
      <trkpt lat="45.70052" lon="5.26637">
        <ele>347</ele>
        <time>2020-05-16T13:30:08.000Z</time>
      </trkpt>
      <trkpt lat="45.70057" lon="5.26632">
        <ele>347</ele>
        <time>2020-05-16T13:30:09.000Z</time>
      </trkpt>
      <trkpt lat="45.70062" lon="5.26626">
        <ele>346</ele>
        <time>2020-05-16T13:30:10.000Z</time>
      </trkpt>
      <trkpt lat="45.70067" lon="5.26619">
        <ele>345</ele>
        <time>2020-05-16T13:30:11.000Z</time>
      </trkpt>
      <trkpt lat="45.70071" lon="5.26611">
        <ele>344</ele>
        <time>2020-05-16T13:30:12.000Z</time>
      </trkpt>
      <trkpt lat="45.70074" lon="5.26603">
        <ele>344</ele>
        <time>2020-05-16T13:30:13.000Z</time>
      </trkpt>
      <trkpt lat="45.70077" lon="5.26596">
        <ele>345</ele>
        <time>2020-05-16T13:30:14.000Z</time>
      </trkpt>
      <trkpt lat="45.7008" lon="5.26589">
        <ele>345</ele>
        <time>2020-05-16T13:30:15.000Z</time>
      </trkpt>
      <trkpt lat="45.70084" lon="5.26582">
        <ele>345</ele>
        <time>2020-05-16T13:30:16.000Z</time>
      </trkpt>
      <trkpt lat="45.70087" lon="5.26575">
        <ele>344</ele>
        <time>2020-05-16T13:30:17.000Z</time>
      </trkpt>
      <trkpt lat="45.7009" lon="5.26569">
        <ele>344</ele>
        <time>2020-05-16T13:30:18.000Z</time>
      </trkpt>
      <trkpt lat="45.70094" lon="5.26563">
        <ele>345</ele>
        <time>2020-05-16T13:30:19.000Z</time>
      </trkpt>
      <trkpt lat="45.70098" lon="5.26556">
        <ele>345</ele>
        <time>2020-05-16T13:30:20.000Z</time>
      </trkpt>
      <trkpt lat="45.70103" lon="5.26549">
        <ele>345</ele>
        <time>2020-05-16T13:30:21.000Z</time>
      </trkpt>
      <trkpt lat="45.70107" lon="5.26543">
        <ele>345</ele>
        <time>2020-05-16T13:30:22.000Z</time>
      </trkpt>
      <trkpt lat="45.70112" lon="5.26536">
        <ele>345</ele>
        <time>2020-05-16T13:30:23.000Z</time>
      </trkpt>
      <trkpt lat="45.70118" lon="5.2653">
        <ele>345</ele>
        <time>2020-05-16T13:30:24.000Z</time>
      </trkpt>
      <trkpt lat="45.70123" lon="5.26525">
        <ele>346</ele>
        <time>2020-05-16T13:30:25.000Z</time>
      </trkpt>
      <trkpt lat="45.70129" lon="5.2652">
        <ele>345</ele>
        <time>2020-05-16T13:30:26.000Z</time>
      </trkpt>
      <trkpt lat="45.70134" lon="5.26515">
        <ele>346</ele>
        <time>2020-05-16T13:30:27.000Z</time>
      </trkpt>
      <trkpt lat="45.7014" lon="5.26511">
        <ele>346</ele>
        <time>2020-05-16T13:30:28.000Z</time>
      </trkpt>
      <trkpt lat="45.70145" lon="5.26507">
        <ele>345</ele>
        <time>2020-05-16T13:30:29.000Z</time>
      </trkpt>
      <trkpt lat="45.70151" lon="5.26504">
        <ele>347</ele>
        <time>2020-05-16T13:30:30.000Z</time>
      </trkpt>
      <trkpt lat="45.70157" lon="5.265">
        <ele>348</ele>
        <time>2020-05-16T13:30:31.000Z</time>
      </trkpt>
      <trkpt lat="45.70163" lon="5.26497">
        <ele>349</ele>
        <time>2020-05-16T13:30:32.000Z</time>
      </trkpt>
      <trkpt lat="45.70169" lon="5.26495">
        <ele>350</ele>
        <time>2020-05-16T13:30:33.000Z</time>
      </trkpt>
      <trkpt lat="45.70176" lon="5.26493">
        <ele>351</ele>
        <time>2020-05-16T13:30:34.000Z</time>
      </trkpt>
      <trkpt lat="45.70182" lon="5.26491">
        <ele>351</ele>
        <time>2020-05-16T13:30:35.000Z</time>
      </trkpt>
      <trkpt lat="45.70188" lon="5.2649">
        <ele>351</ele>
        <time>2020-05-16T13:30:36.000Z</time>
      </trkpt>
      <trkpt lat="45.70195" lon="5.26488">
        <ele>351</ele>
        <time>2020-05-16T13:30:37.000Z</time>
      </trkpt>
      <trkpt lat="45.70201" lon="5.26486">
        <ele>351</ele>
        <time>2020-05-16T13:30:38.000Z</time>
      </trkpt>
      <trkpt lat="45.70208" lon="5.26484">
        <ele>351</ele>
        <time>2020-05-16T13:30:39.000Z</time>
      </trkpt>
      <trkpt lat="45.70214" lon="5.26481">
        <ele>351</ele>
        <time>2020-05-16T13:30:40.000Z</time>
      </trkpt>
      <trkpt lat="45.7022" lon="5.26477">
        <ele>350</ele>
        <time>2020-05-16T13:30:41.000Z</time>
      </trkpt>
      <trkpt lat="45.70227" lon="5.26473">
        <ele>349</ele>
        <time>2020-05-16T13:30:42.000Z</time>
      </trkpt>
      <trkpt lat="45.70233" lon="5.26469">
        <ele>348</ele>
        <time>2020-05-16T13:30:43.000Z</time>
      </trkpt>
      <trkpt lat="45.7024" lon="5.26465">
        <ele>347</ele>
        <time>2020-05-16T13:30:44.000Z</time>
      </trkpt>
      <trkpt lat="45.70247" lon="5.26462">
        <ele>347</ele>
        <time>2020-05-16T13:30:45.000Z</time>
      </trkpt>
      <trkpt lat="45.70253" lon="5.26458">
        <ele>347</ele>
        <time>2020-05-16T13:30:46.000Z</time>
      </trkpt>
      <trkpt lat="45.7026" lon="5.26454">
        <ele>347</ele>
        <time>2020-05-16T13:30:47.000Z</time>
      </trkpt>
      <trkpt lat="45.70266" lon="5.2645">
        <ele>347</ele>
        <time>2020-05-16T13:30:48.000Z</time>
      </trkpt>
      <trkpt lat="45.70273" lon="5.26446">
        <ele>346</ele>
        <time>2020-05-16T13:30:49.000Z</time>
      </trkpt>
      <trkpt lat="45.7028" lon="5.26442">
        <ele>347</ele>
        <time>2020-05-16T13:30:50.000Z</time>
      </trkpt>
      <trkpt lat="45.70287" lon="5.26438">
        <ele>346</ele>
        <time>2020-05-16T13:30:51.000Z</time>
      </trkpt>
      <trkpt lat="45.70294" lon="5.26435">
        <ele>346</ele>
        <time>2020-05-16T13:30:52.000Z</time>
      </trkpt>
      <trkpt lat="45.703" lon="5.26431">
        <ele>346</ele>
        <time>2020-05-16T13:30:53.000Z</time>
      </trkpt>
      <trkpt lat="45.70307" lon="5.26428">
        <ele>346</ele>
        <time>2020-05-16T13:30:54.000Z</time>
      </trkpt>
      <trkpt lat="45.70314" lon="5.26424">
        <ele>347</ele>
        <time>2020-05-16T13:30:55.000Z</time>
      </trkpt>
      <trkpt lat="45.70321" lon="5.2642">
        <ele>346</ele>
        <time>2020-05-16T13:30:56.000Z</time>
      </trkpt>
      <trkpt lat="45.70328" lon="5.26415">
        <ele>346</ele>
        <time>2020-05-16T13:30:57.000Z</time>
      </trkpt>
      <trkpt lat="45.70336" lon="5.26411">
        <ele>346</ele>
        <time>2020-05-16T13:30:58.000Z</time>
      </trkpt>
      <trkpt lat="45.70344" lon="5.26407">
        <ele>346</ele>
        <time>2020-05-16T13:30:59.000Z</time>
      </trkpt>
      <trkpt lat="45.70352" lon="5.26403">
        <ele>345</ele>
        <time>2020-05-16T13:31:00.000Z</time>
      </trkpt>
      <trkpt lat="45.70359" lon="5.26399">
        <ele>345</ele>
        <time>2020-05-16T13:31:01.000Z</time>
      </trkpt>
      <trkpt lat="45.70367" lon="5.26394">
        <ele>345</ele>
        <time>2020-05-16T13:31:02.000Z</time>
      </trkpt>
      <trkpt lat="45.70375" lon="5.26389">
        <ele>344</ele>
        <time>2020-05-16T13:31:03.000Z</time>
      </trkpt>
      <trkpt lat="45.70382" lon="5.26385">
        <ele>345</ele>
        <time>2020-05-16T13:31:04.000Z</time>
      </trkpt>
      <trkpt lat="45.7039" lon="5.2638">
        <ele>345</ele>
        <time>2020-05-16T13:31:05.000Z</time>
      </trkpt>
      <trkpt lat="45.70398" lon="5.26375">
        <ele>345</ele>
        <time>2020-05-16T13:31:06.000Z</time>
      </trkpt>
      <trkpt lat="45.70407" lon="5.26371">
        <ele>345</ele>
        <time>2020-05-16T13:31:07.000Z</time>
      </trkpt>
      <trkpt lat="45.70416" lon="5.26369">
        <ele>343</ele>
        <time>2020-05-16T13:31:08.000Z</time>
      </trkpt>
      <trkpt lat="45.70425" lon="5.26367">
        <ele>341</ele>
        <time>2020-05-16T13:31:09.000Z</time>
      </trkpt>
      <trkpt lat="45.70435" lon="5.26366">
        <ele>341</ele>
        <time>2020-05-16T13:31:10.000Z</time>
      </trkpt>
      <trkpt lat="45.70444" lon="5.26365">
        <ele>343</ele>
        <time>2020-05-16T13:31:11.000Z</time>
      </trkpt>
      <trkpt lat="45.70453" lon="5.26363">
        <ele>345</ele>
        <time>2020-05-16T13:31:12.000Z</time>
      </trkpt>
      <trkpt lat="45.70462" lon="5.26362">
        <ele>345</ele>
        <time>2020-05-16T13:31:13.000Z</time>
      </trkpt>
      <trkpt lat="45.70472" lon="5.2636">
        <ele>345</ele>
        <time>2020-05-16T13:31:14.000Z</time>
      </trkpt>
      <trkpt lat="45.70481" lon="5.2636">
        <ele>345</ele>
        <time>2020-05-16T13:31:15.000Z</time>
      </trkpt>
      <trkpt lat="45.70491" lon="5.26359">
        <ele>345</ele>
        <time>2020-05-16T13:31:16.000Z</time>
      </trkpt>
      <trkpt lat="45.70501" lon="5.26359">
        <ele>345</ele>
        <time>2020-05-16T13:31:17.000Z</time>
      </trkpt>
      <trkpt lat="45.70511" lon="5.26359">
        <ele>345</ele>
        <time>2020-05-16T13:31:18.000Z</time>
      </trkpt>
      <trkpt lat="45.7052" lon="5.2636">
        <ele>345</ele>
        <time>2020-05-16T13:31:19.000Z</time>
      </trkpt>
      <trkpt lat="45.7053" lon="5.26361">
        <ele>346</ele>
        <time>2020-05-16T13:31:20.000Z</time>
      </trkpt>
      <trkpt lat="45.7054" lon="5.26362">
        <ele>347</ele>
        <time>2020-05-16T13:31:21.000Z</time>
      </trkpt>
      <trkpt lat="45.7055" lon="5.26364">
        <ele>346</ele>
        <time>2020-05-16T13:31:22.000Z</time>
      </trkpt>
      <trkpt lat="45.7056" lon="5.26366">
        <ele>346</ele>
        <time>2020-05-16T13:31:23.000Z</time>
      </trkpt>
      <trkpt lat="45.7057" lon="5.26368">
        <ele>345</ele>
        <time>2020-05-16T13:31:24.000Z</time>
      </trkpt>
      <trkpt lat="45.70582" lon="5.26369">
        <ele>341</ele>
        <time>2020-05-16T13:31:25.000Z</time>
      </trkpt>
      <trkpt lat="45.70593" lon="5.26367">
        <ele>343</ele>
        <time>2020-05-16T13:31:26.000Z</time>
      </trkpt>
      <trkpt lat="45.70603" lon="5.26362">
        <ele>344</ele>
        <time>2020-05-16T13:31:27.000Z</time>
      </trkpt>
      <trkpt lat="45.70614" lon="5.26355">
        <ele>344</ele>
        <time>2020-05-16T13:31:28.000Z</time>
      </trkpt>
      <trkpt lat="45.70624" lon="5.26349">
        <ele>341</ele>
        <time>2020-05-16T13:31:29.000Z</time>
      </trkpt>
      <trkpt lat="45.70635" lon="5.26344">
        <ele>340</ele>
        <time>2020-05-16T13:31:30.000Z</time>
      </trkpt>
      <trkpt lat="45.70647" lon="5.26339">
        <ele>339</ele>
        <time>2020-05-16T13:31:31.000Z</time>
      </trkpt>
      <trkpt lat="45.70658" lon="5.26335">
        <ele>337</ele>
        <time>2020-05-16T13:31:32.000Z</time>
      </trkpt>
      <trkpt lat="45.70669" lon="5.2633">
        <ele>335</ele>
        <time>2020-05-16T13:31:33.000Z</time>
      </trkpt>
      <trkpt lat="45.7068" lon="5.26325">
        <ele>331</ele>
        <time>2020-05-16T13:31:34.000Z</time>
      </trkpt>
      <trkpt lat="45.70691" lon="5.26317">
        <ele>334</ele>
        <time>2020-05-16T13:31:35.000Z</time>
      </trkpt>
      <trkpt lat="45.707" lon="5.26304">
        <ele>334</ele>
        <time>2020-05-16T13:31:36.000Z</time>
      </trkpt>
      <trkpt lat="45.70707" lon="5.26288">
        <ele>329</ele>
        <time>2020-05-16T13:31:37.000Z</time>
      </trkpt>
      <trkpt lat="45.70713" lon="5.26272">
        <ele>324</ele>
        <time>2020-05-16T13:31:38.000Z</time>
      </trkpt>
      <trkpt lat="45.70718" lon="5.26255">
        <ele>323</ele>
        <time>2020-05-16T13:31:39.000Z</time>
      </trkpt>
      <trkpt lat="45.70719" lon="5.26237">
        <ele>323</ele>
        <time>2020-05-16T13:31:40.000Z</time>
      </trkpt>
      <trkpt lat="45.7072" lon="5.26219">
        <ele>321</ele>
        <time>2020-05-16T13:31:41.000Z</time>
      </trkpt>
      <trkpt lat="45.70721" lon="5.26202">
        <ele>320</ele>
        <time>2020-05-16T13:31:42.000Z</time>
      </trkpt>
      <trkpt lat="45.70725" lon="5.26187">
        <ele>319</ele>
        <time>2020-05-16T13:31:43.000Z</time>
      </trkpt>
      <trkpt lat="45.7073" lon="5.26173">
        <ele>319</ele>
        <time>2020-05-16T13:31:44.000Z</time>
      </trkpt>
      <trkpt lat="45.70737" lon="5.2616">
        <ele>319</ele>
        <time>2020-05-16T13:31:45.000Z</time>
      </trkpt>
      <trkpt lat="45.70745" lon="5.26148">
        <ele>317</ele>
        <time>2020-05-16T13:31:46.000Z</time>
      </trkpt>
      <trkpt lat="45.70753" lon="5.26136">
        <ele>316</ele>
        <time>2020-05-16T13:31:47.000Z</time>
      </trkpt>
      <trkpt lat="45.70762" lon="5.26125">
        <ele>316</ele>
        <time>2020-05-16T13:31:48.000Z</time>
      </trkpt>
      <trkpt lat="45.7077" lon="5.26113">
        <ele>315</ele>
        <time>2020-05-16T13:31:49.000Z</time>
      </trkpt>
      <trkpt lat="45.70778" lon="5.26101">
        <ele>314</ele>
        <time>2020-05-16T13:31:50.000Z</time>
      </trkpt>
      <trkpt lat="45.70786" lon="5.26089">
        <ele>314</ele>
        <time>2020-05-16T13:31:51.000Z</time>
      </trkpt>
      <trkpt lat="45.70795" lon="5.26078">
        <ele>313</ele>
        <time>2020-05-16T13:31:52.000Z</time>
      </trkpt>
      <trkpt lat="45.70803" lon="5.26066">
        <ele>313</ele>
        <time>2020-05-16T13:31:53.000Z</time>
      </trkpt>
      <trkpt lat="45.70811" lon="5.26055">
        <ele>313</ele>
        <time>2020-05-16T13:31:54.000Z</time>
      </trkpt>
      <trkpt lat="45.7082" lon="5.26044">
        <ele>312</ele>
        <time>2020-05-16T13:31:55.000Z</time>
      </trkpt>
      <trkpt lat="45.70829" lon="5.26034">
        <ele>312</ele>
        <time>2020-05-16T13:31:56.000Z</time>
      </trkpt>
      <trkpt lat="45.70838" lon="5.26024">
        <ele>312</ele>
        <time>2020-05-16T13:31:57.000Z</time>
      </trkpt>
      <trkpt lat="45.70848" lon="5.26016">
        <ele>312</ele>
        <time>2020-05-16T13:31:58.000Z</time>
      </trkpt>
      <trkpt lat="45.70858" lon="5.26009">
        <ele>311</ele>
        <time>2020-05-16T13:31:59.000Z</time>
      </trkpt>
      <trkpt lat="45.70868" lon="5.26003">
        <ele>311</ele>
        <time>2020-05-16T13:32:00.000Z</time>
      </trkpt>
      <trkpt lat="45.70878" lon="5.25999">
        <ele>311</ele>
        <time>2020-05-16T13:32:01.000Z</time>
      </trkpt>
      <trkpt lat="45.70888" lon="5.25995">
        <ele>313</ele>
        <time>2020-05-16T13:32:02.000Z</time>
      </trkpt>
      <trkpt lat="45.70899" lon="5.25993">
        <ele>313</ele>
        <time>2020-05-16T13:32:03.000Z</time>
      </trkpt>
      <trkpt lat="45.7091" lon="5.25993">
        <ele>313</ele>
        <time>2020-05-16T13:32:04.000Z</time>
      </trkpt>
      <trkpt lat="45.70922" lon="5.25995">
        <ele>312</ele>
        <time>2020-05-16T13:32:05.000Z</time>
      </trkpt>
      <trkpt lat="45.70933" lon="5.25999">
        <ele>313</ele>
        <time>2020-05-16T13:32:06.000Z</time>
      </trkpt>
      <trkpt lat="45.70943" lon="5.26006">
        <ele>313</ele>
        <time>2020-05-16T13:32:07.000Z</time>
      </trkpt>
      <trkpt lat="45.70954" lon="5.26015">
        <ele>310</ele>
        <time>2020-05-16T13:32:08.000Z</time>
      </trkpt>
      <trkpt lat="45.70964" lon="5.26024">
        <ele>309</ele>
        <time>2020-05-16T13:32:09.000Z</time>
      </trkpt>
      <trkpt lat="45.70974" lon="5.26033">
        <ele>308</ele>
        <time>2020-05-16T13:32:10.000Z</time>
      </trkpt>
      <trkpt lat="45.70985" lon="5.26042">
        <ele>306</ele>
        <time>2020-05-16T13:32:11.000Z</time>
      </trkpt>
      <trkpt lat="45.70995" lon="5.26052">
        <ele>304</ele>
        <time>2020-05-16T13:32:12.000Z</time>
      </trkpt>
      <trkpt lat="45.71005" lon="5.26063">
        <ele>303</ele>
        <time>2020-05-16T13:32:13.000Z</time>
      </trkpt>
      <trkpt lat="45.71014" lon="5.26072">
        <ele>303</ele>
        <time>2020-05-16T13:32:14.000Z</time>
      </trkpt>
      <trkpt lat="45.71023" lon="5.26081">
        <ele>302</ele>
        <time>2020-05-16T13:32:15.000Z</time>
      </trkpt>
      <trkpt lat="45.71031" lon="5.26089">
        <ele>302</ele>
        <time>2020-05-16T13:32:16.000Z</time>
      </trkpt>
      <trkpt lat="45.71039" lon="5.26098">
        <ele>301</ele>
        <time>2020-05-16T13:32:17.000Z</time>
      </trkpt>
      <trkpt lat="45.71047" lon="5.26106">
        <ele>301</ele>
        <time>2020-05-16T13:32:18.000Z</time>
      </trkpt>
      <trkpt lat="45.71055" lon="5.26115">
        <ele>301</ele>
        <time>2020-05-16T13:32:19.000Z</time>
      </trkpt>
      <trkpt lat="45.71063" lon="5.26123">
        <ele>300</ele>
        <time>2020-05-16T13:32:20.000Z</time>
      </trkpt>
      <trkpt lat="45.7107" lon="5.26132">
        <ele>299</ele>
        <time>2020-05-16T13:32:21.000Z</time>
      </trkpt>
      <trkpt lat="45.71077" lon="5.2614">
        <ele>299</ele>
        <time>2020-05-16T13:32:22.000Z</time>
      </trkpt>
      <trkpt lat="45.71083" lon="5.26148">
        <ele>298</ele>
        <time>2020-05-16T13:32:23.000Z</time>
      </trkpt>
      <trkpt lat="45.7109" lon="5.26157">
        <ele>297</ele>
        <time>2020-05-16T13:32:24.000Z</time>
      </trkpt>
      <trkpt lat="45.71097" lon="5.26164">
        <ele>296</ele>
        <time>2020-05-16T13:32:25.000Z</time>
      </trkpt>
      <trkpt lat="45.71105" lon="5.2617">
        <ele>296</ele>
        <time>2020-05-16T13:32:26.000Z</time>
      </trkpt>
      <trkpt lat="45.71114" lon="5.26173">
        <ele>295</ele>
        <time>2020-05-16T13:32:27.000Z</time>
      </trkpt>
      <trkpt lat="45.71123" lon="5.26172">
        <ele>294</ele>
        <time>2020-05-16T13:32:28.000Z</time>
      </trkpt>
      <trkpt lat="45.71131" lon="5.26167">
        <ele>296</ele>
        <time>2020-05-16T13:32:29.000Z</time>
      </trkpt>
      <trkpt lat="45.71138" lon="5.26159">
        <ele>296</ele>
        <time>2020-05-16T13:32:30.000Z</time>
      </trkpt>
      <trkpt lat="45.71146" lon="5.26149">
        <ele>295</ele>
        <time>2020-05-16T13:32:31.000Z</time>
      </trkpt>
      <trkpt lat="45.71154" lon="5.2614">
        <ele>293</ele>
        <time>2020-05-16T13:32:32.000Z</time>
      </trkpt>
      <trkpt lat="45.71162" lon="5.2613">
        <ele>293</ele>
        <time>2020-05-16T13:32:33.000Z</time>
      </trkpt>
      <trkpt lat="45.71171" lon="5.2612">
        <ele>292</ele>
        <time>2020-05-16T13:32:34.000Z</time>
      </trkpt>
      <trkpt lat="45.71179" lon="5.26111">
        <ele>291</ele>
        <time>2020-05-16T13:32:35.000Z</time>
      </trkpt>
      <trkpt lat="45.71187" lon="5.26101">
        <ele>290</ele>
        <time>2020-05-16T13:32:36.000Z</time>
      </trkpt>
      <trkpt lat="45.71196" lon="5.26093">
        <ele>290</ele>
        <time>2020-05-16T13:32:37.000Z</time>
      </trkpt>
      <trkpt lat="45.71204" lon="5.26084">
        <ele>289</ele>
        <time>2020-05-16T13:32:38.000Z</time>
      </trkpt>
      <trkpt lat="45.71212" lon="5.26076">
        <ele>288</ele>
        <time>2020-05-16T13:32:39.000Z</time>
      </trkpt>
      <trkpt lat="45.71219" lon="5.26069">
        <ele>288</ele>
        <time>2020-05-16T13:32:40.000Z</time>
      </trkpt>
      <trkpt lat="45.71226" lon="5.26064">
        <ele>288</ele>
        <time>2020-05-16T13:32:41.000Z</time>
      </trkpt>
      <trkpt lat="45.71233" lon="5.2606">
        <ele>287</ele>
        <time>2020-05-16T13:32:42.000Z</time>
      </trkpt>
      <trkpt lat="45.71242" lon="5.2606">
        <ele>284</ele>
        <time>2020-05-16T13:32:43.000Z</time>
      </trkpt>
      <trkpt lat="45.7125" lon="5.26063">
        <ele>281</ele>
        <time>2020-05-16T13:32:44.000Z</time>
      </trkpt>
      <trkpt lat="45.71257" lon="5.26072">
        <ele>274</ele>
        <time>2020-05-16T13:32:45.000Z</time>
      </trkpt>
      <trkpt lat="45.71262" lon="5.26081">
        <ele>271</ele>
        <time>2020-05-16T13:32:46.000Z</time>
      </trkpt>
      <trkpt lat="45.71263" lon="5.2609">
        <ele>261</ele>
        <time>2020-05-16T13:32:47.000Z</time>
      </trkpt>
      <trkpt lat="45.71261" lon="5.26096">
        <ele>261</ele>
        <time>2020-05-16T13:32:48.000Z</time>
      </trkpt>
      <trkpt lat="45.71257" lon="5.26103">
        <ele>261</ele>
        <time>2020-05-16T13:32:49.000Z</time>
      </trkpt>
      <trkpt lat="45.71256" lon="5.26112">
        <ele>259</ele>
        <time>2020-05-16T13:32:50.000Z</time>
      </trkpt>
      <trkpt lat="45.71254" lon="5.26122">
        <ele>259</ele>
        <time>2020-05-16T13:32:51.000Z</time>
      </trkpt>
      <trkpt lat="45.71249" lon="5.26134">
        <ele>257</ele>
        <time>2020-05-16T13:32:52.000Z</time>
      </trkpt>
      <trkpt lat="45.71243" lon="5.26147">
        <ele>255</ele>
        <time>2020-05-16T13:32:53.000Z</time>
      </trkpt>
      <trkpt lat="45.71237" lon="5.2616">
        <ele>254</ele>
        <time>2020-05-16T13:32:54.000Z</time>
      </trkpt>
      <trkpt lat="45.71234" lon="5.26174">
        <ele>254</ele>
        <time>2020-05-16T13:32:55.000Z</time>
      </trkpt>
      <trkpt lat="45.71232" lon="5.26188">
        <ele>253</ele>
        <time>2020-05-16T13:32:56.000Z</time>
      </trkpt>
      <trkpt lat="45.7123" lon="5.26202">
        <ele>252</ele>
        <time>2020-05-16T13:32:57.000Z</time>
      </trkpt>
      <trkpt lat="45.71228" lon="5.26216">
        <ele>251</ele>
        <time>2020-05-16T13:32:58.000Z</time>
      </trkpt>
      <trkpt lat="45.71228" lon="5.2623">
        <ele>251</ele>
        <time>2020-05-16T13:32:59.000Z</time>
      </trkpt>
      <trkpt lat="45.71228" lon="5.26243">
        <ele>249</ele>
        <time>2020-05-16T13:33:00.000Z</time>
      </trkpt>
      <trkpt lat="45.71229" lon="5.26256">
        <ele>249</ele>
        <time>2020-05-16T13:33:01.000Z</time>
      </trkpt>
      <trkpt lat="45.71233" lon="5.26265">
        <ele>241</ele>
        <time>2020-05-16T13:33:02.000Z</time>
      </trkpt>
      <trkpt lat="45.71243" lon="5.26268">
        <ele>231</ele>
        <time>2020-05-16T13:33:03.000Z</time>
      </trkpt>
      <trkpt lat="45.71255" lon="5.26269">
        <ele>229</ele>
        <time>2020-05-16T13:33:04.000Z</time>
      </trkpt>
      <trkpt lat="45.71267" lon="5.26271">
        <ele>228</ele>
        <time>2020-05-16T13:33:05.000Z</time>
      </trkpt>
      <trkpt lat="45.71277" lon="5.26275">
        <ele>229</ele>
        <time>2020-05-16T13:33:06.000Z</time>
      </trkpt>
      <trkpt lat="45.71289" lon="5.2628">
        <ele>237</ele>
        <time>2020-05-16T13:33:07.000Z</time>
      </trkpt>
      <trkpt lat="45.71302" lon="5.26284">
        <ele>243</ele>
        <time>2020-05-16T13:33:08.000Z</time>
      </trkpt>
      <trkpt lat="45.71316" lon="5.26289">
        <ele>245</ele>
        <time>2020-05-16T13:33:09.000Z</time>
      </trkpt>
      <trkpt lat="45.71328" lon="5.26293">
        <ele>247</ele>
        <time>2020-05-16T13:33:10.000Z</time>
      </trkpt>
      <trkpt lat="45.71339" lon="5.26296">
        <ele>248</ele>
        <time>2020-05-16T13:33:11.000Z</time>
      </trkpt>
      <trkpt lat="45.71349" lon="5.263">
        <ele>248</ele>
        <time>2020-05-16T13:33:12.000Z</time>
      </trkpt>
      <trkpt lat="45.71359" lon="5.26307">
        <ele>248</ele>
        <time>2020-05-16T13:33:13.000Z</time>
      </trkpt>
      <trkpt lat="45.71368" lon="5.26317">
        <ele>248</ele>
        <time>2020-05-16T13:33:14.000Z</time>
      </trkpt>
      <trkpt lat="45.71376" lon="5.26327">
        <ele>248</ele>
        <time>2020-05-16T13:33:15.000Z</time>
      </trkpt>
      <trkpt lat="45.71384" lon="5.26336">
        <ele>248</ele>
        <time>2020-05-16T13:33:16.000Z</time>
      </trkpt>
      <trkpt lat="45.71393" lon="5.26341">
        <ele>249</ele>
        <time>2020-05-16T13:33:17.000Z</time>
      </trkpt>
      <trkpt lat="45.71403" lon="5.26344">
        <ele>247</ele>
        <time>2020-05-16T13:33:18.000Z</time>
      </trkpt>
      <trkpt lat="45.71414" lon="5.26343">
        <ele>248</ele>
        <time>2020-05-16T13:33:19.000Z</time>
      </trkpt>
      <trkpt lat="45.71425" lon="5.26338">
        <ele>250</ele>
        <time>2020-05-16T13:33:20.000Z</time>
      </trkpt>
      <trkpt lat="45.71434" lon="5.26329">
        <ele>250</ele>
        <time>2020-05-16T13:33:21.000Z</time>
      </trkpt>
      <trkpt lat="45.71441" lon="5.26317">
        <ele>252</ele>
        <time>2020-05-16T13:33:22.000Z</time>
      </trkpt>
      <trkpt lat="45.71446" lon="5.26302">
        <ele>254</ele>
        <time>2020-05-16T13:33:23.000Z</time>
      </trkpt>
      <trkpt lat="45.71449" lon="5.26287">
        <ele>252</ele>
        <time>2020-05-16T13:33:24.000Z</time>
      </trkpt>
      <trkpt lat="45.71451" lon="5.26273">
        <ele>253</ele>
        <time>2020-05-16T13:33:25.000Z</time>
      </trkpt>
      <trkpt lat="45.71451" lon="5.26259">
        <ele>255</ele>
        <time>2020-05-16T13:33:26.000Z</time>
      </trkpt>
      <trkpt lat="45.71451" lon="5.26246">
        <ele>256</ele>
        <time>2020-05-16T13:33:27.000Z</time>
      </trkpt>
      <trkpt lat="45.71452" lon="5.26236">
        <ele>258</ele>
        <time>2020-05-16T13:33:28.000Z</time>
      </trkpt>
      <trkpt lat="45.71453" lon="5.26228">
        <ele>258</ele>
        <time>2020-05-16T13:33:29.000Z</time>
      </trkpt>
      <trkpt lat="45.71455" lon="5.26223">
        <ele>259</ele>
        <time>2020-05-16T13:33:30.000Z</time>
      </trkpt>
      <trkpt lat="45.71457" lon="5.26221">
        <ele>259</ele>
        <time>2020-05-16T13:33:31.000Z</time>
      </trkpt>
      <trkpt lat="45.71458" lon="5.26223">
        <ele>261</ele>
        <time>2020-05-16T13:33:32.000Z</time>
      </trkpt>
      <trkpt lat="45.71458" lon="5.26228">
        <ele>263</ele>
        <time>2020-05-16T13:33:33.000Z</time>
      </trkpt>
      <trkpt lat="45.71456" lon="5.26238">
        <ele>261</ele>
        <time>2020-05-16T13:33:34.000Z</time>
      </trkpt>
      <trkpt lat="45.71456" lon="5.26252">
        <ele>252</ele>
        <time>2020-05-16T13:33:35.000Z</time>
      </trkpt>
      <trkpt lat="45.71457" lon="5.26269">
        <ele>250</ele>
        <time>2020-05-16T13:33:36.000Z</time>
      </trkpt>
      <trkpt lat="45.71459" lon="5.26286">
        <ele>248</ele>
        <time>2020-05-16T13:33:37.000Z</time>
      </trkpt>
      <trkpt lat="45.71461" lon="5.263">
        <ele>247</ele>
        <time>2020-05-16T13:33:38.000Z</time>
      </trkpt>
      <trkpt lat="45.71465" lon="5.26312">
        <ele>246</ele>
        <time>2020-05-16T13:33:39.000Z</time>
      </trkpt>
      <trkpt lat="45.71469" lon="5.26322">
        <ele>242</ele>
        <time>2020-05-16T13:33:40.000Z</time>
      </trkpt>
      <trkpt lat="45.71476" lon="5.26331">
        <ele>241</ele>
        <time>2020-05-16T13:33:41.000Z</time>
      </trkpt>
      <trkpt lat="45.71486" lon="5.26338">
        <ele>244</ele>
        <time>2020-05-16T13:33:42.000Z</time>
      </trkpt>
      <trkpt lat="45.71499" lon="5.26344">
        <ele>243</ele>
        <time>2020-05-16T13:33:43.000Z</time>
      </trkpt>
      <trkpt lat="45.71512" lon="5.26347">
        <ele>240</ele>
        <time>2020-05-16T13:33:44.000Z</time>
      </trkpt>
      <trkpt lat="45.71523" lon="5.26348">
        <ele>237</ele>
        <time>2020-05-16T13:33:45.000Z</time>
      </trkpt>
      <trkpt lat="45.71531" lon="5.26345">
        <ele>233</ele>
        <time>2020-05-16T13:33:46.000Z</time>
      </trkpt>
      <trkpt lat="45.71538" lon="5.26339">
        <ele>231</ele>
        <time>2020-05-16T13:33:47.000Z</time>
      </trkpt>
      <trkpt lat="45.71544" lon="5.26331">
        <ele>229</ele>
        <time>2020-05-16T13:33:48.000Z</time>
      </trkpt>
      <trkpt lat="45.71546" lon="5.26318">
        <ele>237</ele>
        <time>2020-05-16T13:33:49.000Z</time>
      </trkpt>
      <trkpt lat="45.71544" lon="5.26304">
        <ele>238</ele>
        <time>2020-05-16T13:33:50.000Z</time>
      </trkpt>
      <trkpt lat="45.71541" lon="5.2629">
        <ele>240</ele>
        <time>2020-05-16T13:33:51.000Z</time>
      </trkpt>
      <trkpt lat="45.71539" lon="5.2628">
        <ele>241</ele>
        <time>2020-05-16T13:33:52.000Z</time>
      </trkpt>
      <trkpt lat="45.71539" lon="5.26272">
        <ele>242</ele>
        <time>2020-05-16T13:33:53.000Z</time>
      </trkpt>
      <trkpt lat="45.7154" lon="5.26266">
        <ele>243</ele>
        <time>2020-05-16T13:33:54.000Z</time>
      </trkpt>
      <trkpt lat="45.71543" lon="5.26261">
        <ele>242</ele>
        <time>2020-05-16T13:33:55.000Z</time>
      </trkpt>
      <trkpt lat="45.71545" lon="5.26256">
        <ele>242</ele>
        <time>2020-05-16T13:33:56.000Z</time>
      </trkpt>
      <trkpt lat="45.71548" lon="5.2625">
        <ele>242</ele>
        <time>2020-05-16T13:33:57.000Z</time>
      </trkpt>
      <trkpt lat="45.71551" lon="5.26243">
        <ele>241</ele>
        <time>2020-05-16T13:33:58.000Z</time>
      </trkpt>
      <trkpt lat="45.71553" lon="5.26236">
        <ele>241</ele>
        <time>2020-05-16T13:33:59.000Z</time>
      </trkpt>
      <trkpt lat="45.71555" lon="5.26227">
        <ele>241</ele>
        <time>2020-05-16T13:34:00.000Z</time>
      </trkpt>
      <trkpt lat="45.71557" lon="5.26218">
        <ele>241</ele>
        <time>2020-05-16T13:34:01.000Z</time>
      </trkpt>
      <trkpt lat="45.71559" lon="5.26209">
        <ele>241</ele>
        <time>2020-05-16T13:34:02.000Z</time>
      </trkpt>
      <trkpt lat="45.71562" lon="5.26199">
        <ele>241</ele>
        <time>2020-05-16T13:34:03.000Z</time>
      </trkpt>
      <trkpt lat="45.71564" lon="5.2619">
        <ele>241</ele>
        <time>2020-05-16T13:34:04.000Z</time>
      </trkpt>
      <trkpt lat="45.71567" lon="5.2618">
        <ele>241</ele>
        <time>2020-05-16T13:34:05.000Z</time>
      </trkpt>
      <trkpt lat="45.71569" lon="5.2617">
        <ele>241</ele>
        <time>2020-05-16T13:34:06.000Z</time>
      </trkpt>
      <trkpt lat="45.71571" lon="5.26159">
        <ele>240</ele>
        <time>2020-05-16T13:34:07.000Z</time>
      </trkpt>
      <trkpt lat="45.71574" lon="5.26148">
        <ele>240</ele>
        <time>2020-05-16T13:34:08.000Z</time>
      </trkpt>
      <trkpt lat="45.71577" lon="5.26137">
        <ele>239</ele>
        <time>2020-05-16T13:34:09.000Z</time>
      </trkpt>
      <trkpt lat="45.71579" lon="5.26126">
        <ele>239</ele>
        <time>2020-05-16T13:34:10.000Z</time>
      </trkpt>
      <trkpt lat="45.71581" lon="5.26115">
        <ele>239</ele>
        <time>2020-05-16T13:34:11.000Z</time>
      </trkpt>
      <trkpt lat="45.71584" lon="5.26104">
        <ele>239</ele>
        <time>2020-05-16T13:34:12.000Z</time>
      </trkpt>
      <trkpt lat="45.71587" lon="5.26093">
        <ele>238</ele>
        <time>2020-05-16T13:34:13.000Z</time>
      </trkpt>
      <trkpt lat="45.7159" lon="5.26081">
        <ele>238</ele>
        <time>2020-05-16T13:34:14.000Z</time>
      </trkpt>
      <trkpt lat="45.71593" lon="5.26069">
        <ele>238</ele>
        <time>2020-05-16T13:34:15.000Z</time>
      </trkpt>
      <trkpt lat="45.71597" lon="5.26057">
        <ele>237</ele>
        <time>2020-05-16T13:34:16.000Z</time>
      </trkpt>
      <trkpt lat="45.71602" lon="5.26045">
        <ele>237</ele>
        <time>2020-05-16T13:34:17.000Z</time>
      </trkpt>
      <trkpt lat="45.71607" lon="5.26034">
        <ele>237</ele>
        <time>2020-05-16T13:34:18.000Z</time>
      </trkpt>
      <trkpt lat="45.71612" lon="5.26022">
        <ele>237</ele>
        <time>2020-05-16T13:34:19.000Z</time>
      </trkpt>
      <trkpt lat="45.71617" lon="5.26011">
        <ele>237</ele>
        <time>2020-05-16T13:34:20.000Z</time>
      </trkpt>
      <trkpt lat="45.71622" lon="5.26">
        <ele>237</ele>
        <time>2020-05-16T13:34:21.000Z</time>
      </trkpt>
      <trkpt lat="45.71627" lon="5.2599">
        <ele>237</ele>
        <time>2020-05-16T13:34:22.000Z</time>
      </trkpt>
      <trkpt lat="45.71633" lon="5.2598">
        <ele>237</ele>
        <time>2020-05-16T13:34:23.000Z</time>
      </trkpt>
      <trkpt lat="45.71639" lon="5.2597">
        <ele>237</ele>
        <time>2020-05-16T13:34:24.000Z</time>
      </trkpt>
      <trkpt lat="45.71645" lon="5.2596">
        <ele>237</ele>
        <time>2020-05-16T13:34:25.000Z</time>
      </trkpt>
      <trkpt lat="45.7165" lon="5.25951">
        <ele>237</ele>
        <time>2020-05-16T13:34:26.000Z</time>
      </trkpt>
      <trkpt lat="45.71656" lon="5.25941">
        <ele>237</ele>
        <time>2020-05-16T13:34:27.000Z</time>
      </trkpt>
      <trkpt lat="45.71662" lon="5.25932">
        <ele>237</ele>
        <time>2020-05-16T13:34:28.000Z</time>
      </trkpt>
      <trkpt lat="45.71667" lon="5.25922">
        <ele>237</ele>
        <time>2020-05-16T13:34:29.000Z</time>
      </trkpt>
      <trkpt lat="45.71673" lon="5.25913">
        <ele>237</ele>
        <time>2020-05-16T13:34:30.000Z</time>
      </trkpt>
      <trkpt lat="45.71678" lon="5.25904">
        <ele>236</ele>
        <time>2020-05-16T13:34:31.000Z</time>
      </trkpt>
      <trkpt lat="45.71683" lon="5.25894">
        <ele>237</ele>
        <time>2020-05-16T13:34:32.000Z</time>
      </trkpt>
      <trkpt lat="45.71689" lon="5.25884">
        <ele>237</ele>
        <time>2020-05-16T13:34:33.000Z</time>
      </trkpt>
      <trkpt lat="45.71694" lon="5.25874">
        <ele>237</ele>
        <time>2020-05-16T13:34:34.000Z</time>
      </trkpt>
      <trkpt lat="45.71699" lon="5.25864">
        <ele>237</ele>
        <time>2020-05-16T13:34:35.000Z</time>
      </trkpt>
      <trkpt lat="45.71704" lon="5.25854">
        <ele>237</ele>
        <time>2020-05-16T13:34:36.000Z</time>
      </trkpt>
      <trkpt lat="45.71709" lon="5.25843">
        <ele>237</ele>
        <time>2020-05-16T13:34:37.000Z</time>
      </trkpt>
      <trkpt lat="45.71714" lon="5.25833">
        <ele>237</ele>
        <time>2020-05-16T13:34:38.000Z</time>
      </trkpt>
      <trkpt lat="45.7172" lon="5.25823">
        <ele>236</ele>
        <time>2020-05-16T13:34:39.000Z</time>
      </trkpt>
      <trkpt lat="45.71726" lon="5.25813">
        <ele>236</ele>
        <time>2020-05-16T13:34:40.000Z</time>
      </trkpt>
      <trkpt lat="45.71732" lon="5.25803">
        <ele>236</ele>
        <time>2020-05-16T13:34:41.000Z</time>
      </trkpt>
      <trkpt lat="45.71738" lon="5.25792">
        <ele>236</ele>
        <time>2020-05-16T13:34:42.000Z</time>
      </trkpt>
      <trkpt lat="45.71743" lon="5.25781">
        <ele>236</ele>
        <time>2020-05-16T13:34:43.000Z</time>
      </trkpt>
      <trkpt lat="45.71749" lon="5.25771">
        <ele>236</ele>
        <time>2020-05-16T13:34:44.000Z</time>
      </trkpt>
      <trkpt lat="45.71754" lon="5.2576">
        <ele>235</ele>
        <time>2020-05-16T13:34:45.000Z</time>
      </trkpt>
      <trkpt lat="45.71759" lon="5.25749">
        <ele>235</ele>
        <time>2020-05-16T13:34:46.000Z</time>
      </trkpt>
      <trkpt lat="45.71765" lon="5.25739">
        <ele>235</ele>
        <time>2020-05-16T13:34:47.000Z</time>
      </trkpt>
      <trkpt lat="45.7177" lon="5.25728">
        <ele>235</ele>
        <time>2020-05-16T13:34:48.000Z</time>
      </trkpt>
      <trkpt lat="45.71775" lon="5.25718">
        <ele>235</ele>
        <time>2020-05-16T13:34:49.000Z</time>
      </trkpt>
      <trkpt lat="45.71779" lon="5.25706">
        <ele>234</ele>
        <time>2020-05-16T13:34:50.000Z</time>
      </trkpt>
      <trkpt lat="45.71783" lon="5.25695">
        <ele>233</ele>
        <time>2020-05-16T13:34:51.000Z</time>
      </trkpt>
      <trkpt lat="45.71785" lon="5.25682">
        <ele>233</ele>
        <time>2020-05-16T13:34:52.000Z</time>
      </trkpt>
      <trkpt lat="45.71788" lon="5.2567">
        <ele>232</ele>
        <time>2020-05-16T13:34:53.000Z</time>
      </trkpt>
      <trkpt lat="45.71791" lon="5.25658">
        <ele>231</ele>
        <time>2020-05-16T13:34:54.000Z</time>
      </trkpt>
      <trkpt lat="45.71794" lon="5.25647">
        <ele>231</ele>
        <time>2020-05-16T13:34:55.000Z</time>
      </trkpt>
      <trkpt lat="45.71797" lon="5.25634">
        <ele>230</ele>
        <time>2020-05-16T13:34:56.000Z</time>
      </trkpt>
      <trkpt lat="45.71801" lon="5.25622">
        <ele>230</ele>
        <time>2020-05-16T13:34:57.000Z</time>
      </trkpt>
      <trkpt lat="45.71805" lon="5.25609">
        <ele>230</ele>
        <time>2020-05-16T13:34:58.000Z</time>
      </trkpt>
      <trkpt lat="45.71809" lon="5.25596">
        <ele>230</ele>
        <time>2020-05-16T13:34:59.000Z</time>
      </trkpt>
      <trkpt lat="45.71814" lon="5.25584">
        <ele>229</ele>
        <time>2020-05-16T13:35:00.000Z</time>
      </trkpt>
      <trkpt lat="45.71819" lon="5.25572">
        <ele>228</ele>
        <time>2020-05-16T13:35:01.000Z</time>
      </trkpt>
      <trkpt lat="45.71825" lon="5.25561">
        <ele>228</ele>
        <time>2020-05-16T13:35:02.000Z</time>
      </trkpt>
      <trkpt lat="45.71832" lon="5.25553">
        <ele>228</ele>
        <time>2020-05-16T13:35:03.000Z</time>
      </trkpt>
      <trkpt lat="45.71839" lon="5.25549">
        <ele>228</ele>
        <time>2020-05-16T13:35:04.000Z</time>
      </trkpt>
      <trkpt lat="45.71847" lon="5.25546">
        <ele>227</ele>
        <time>2020-05-16T13:35:05.000Z</time>
      </trkpt>
      <trkpt lat="45.71854" lon="5.25544">
        <ele>227</ele>
        <time>2020-05-16T13:35:06.000Z</time>
      </trkpt>
      <trkpt lat="45.7186" lon="5.25542">
        <ele>227</ele>
        <time>2020-05-16T13:35:07.000Z</time>
      </trkpt>
      <trkpt lat="45.71866" lon="5.25539">
        <ele>228</ele>
        <time>2020-05-16T13:35:08.000Z</time>
      </trkpt>
      <trkpt lat="45.71873" lon="5.25537">
        <ele>229</ele>
        <time>2020-05-16T13:35:09.000Z</time>
      </trkpt>
      <trkpt lat="45.71884" lon="5.25538">
        <ele>233</ele>
        <time>2020-05-16T13:35:10.000Z</time>
      </trkpt>
      <trkpt lat="45.71897" lon="5.2554">
        <ele>235</ele>
        <time>2020-05-16T13:35:11.000Z</time>
      </trkpt>
      <trkpt lat="45.7191" lon="5.25543">
        <ele>235</ele>
        <time>2020-05-16T13:35:12.000Z</time>
      </trkpt>
      <trkpt lat="45.7192" lon="5.25542">
        <ele>234</ele>
        <time>2020-05-16T13:35:13.000Z</time>
      </trkpt>
      <trkpt lat="45.7193" lon="5.2554">
        <ele>233</ele>
        <time>2020-05-16T13:35:14.000Z</time>
      </trkpt>
      <trkpt lat="45.71939" lon="5.25535">
        <ele>232</ele>
        <time>2020-05-16T13:35:15.000Z</time>
      </trkpt>
      <trkpt lat="45.71947" lon="5.25529">
        <ele>234</ele>
        <time>2020-05-16T13:35:16.000Z</time>
      </trkpt>
      <trkpt lat="45.71955" lon="5.25522">
        <ele>234</ele>
        <time>2020-05-16T13:35:17.000Z</time>
      </trkpt>
      <trkpt lat="45.71963" lon="5.25515">
        <ele>235</ele>
        <time>2020-05-16T13:35:18.000Z</time>
      </trkpt>
      <trkpt lat="45.71971" lon="5.25509">
        <ele>233</ele>
        <time>2020-05-16T13:35:19.000Z</time>
      </trkpt>
      <trkpt lat="45.71979" lon="5.25502">
        <ele>232</ele>
        <time>2020-05-16T13:35:20.000Z</time>
      </trkpt>
      <trkpt lat="45.71986" lon="5.25495">
        <ele>231</ele>
        <time>2020-05-16T13:35:21.000Z</time>
      </trkpt>
      <trkpt lat="45.71993" lon="5.25488">
        <ele>231</ele>
        <time>2020-05-16T13:35:22.000Z</time>
      </trkpt>
      <trkpt lat="45.71998" lon="5.25481">
        <ele>230</ele>
        <time>2020-05-16T13:35:23.000Z</time>
      </trkpt>
      <trkpt lat="45.72004" lon="5.25474">
        <ele>230</ele>
        <time>2020-05-16T13:35:24.000Z</time>
      </trkpt>
      <trkpt lat="45.72009" lon="5.25467">
        <ele>230</ele>
        <time>2020-05-16T13:35:25.000Z</time>
      </trkpt>
      <trkpt lat="45.72015" lon="5.2546">
        <ele>230</ele>
        <time>2020-05-16T13:35:26.000Z</time>
      </trkpt>
      <trkpt lat="45.7202" lon="5.25453">
        <ele>230</ele>
        <time>2020-05-16T13:35:27.000Z</time>
      </trkpt>
      <trkpt lat="45.72026" lon="5.25446">
        <ele>229</ele>
        <time>2020-05-16T13:35:28.000Z</time>
      </trkpt>
      <trkpt lat="45.72031" lon="5.25439">
        <ele>229</ele>
        <time>2020-05-16T13:35:29.000Z</time>
      </trkpt>
      <trkpt lat="45.72037" lon="5.25431">
        <ele>229</ele>
        <time>2020-05-16T13:35:30.000Z</time>
      </trkpt>
      <trkpt lat="45.72042" lon="5.25424">
        <ele>229</ele>
        <time>2020-05-16T13:35:31.000Z</time>
      </trkpt>
      <trkpt lat="45.72048" lon="5.25417">
        <ele>228</ele>
        <time>2020-05-16T13:35:32.000Z</time>
      </trkpt>
      <trkpt lat="45.72054" lon="5.2541">
        <ele>228</ele>
        <time>2020-05-16T13:35:33.000Z</time>
      </trkpt>
      <trkpt lat="45.7206" lon="5.25403">
        <ele>228</ele>
        <time>2020-05-16T13:35:34.000Z</time>
      </trkpt>
      <trkpt lat="45.72066" lon="5.25396">
        <ele>228</ele>
        <time>2020-05-16T13:35:35.000Z</time>
      </trkpt>
      <trkpt lat="45.72072" lon="5.25389">
        <ele>228</ele>
        <time>2020-05-16T13:35:36.000Z</time>
      </trkpt>
      <trkpt lat="45.72078" lon="5.25381">
        <ele>228</ele>
        <time>2020-05-16T13:35:37.000Z</time>
      </trkpt>
      <trkpt lat="45.72084" lon="5.25374">
        <ele>227</ele>
        <time>2020-05-16T13:35:38.000Z</time>
      </trkpt>
      <trkpt lat="45.7209" lon="5.25367">
        <ele>226</ele>
        <time>2020-05-16T13:35:39.000Z</time>
      </trkpt>
      <trkpt lat="45.72096" lon="5.25359">
        <ele>226</ele>
        <time>2020-05-16T13:35:40.000Z</time>
      </trkpt>
      <trkpt lat="45.72102" lon="5.25352">
        <ele>225</ele>
        <time>2020-05-16T13:35:41.000Z</time>
      </trkpt>
      <trkpt lat="45.72108" lon="5.25344">
        <ele>225</ele>
        <time>2020-05-16T13:35:42.000Z</time>
      </trkpt>
      <trkpt lat="45.72114" lon="5.25337">
        <ele>224</ele>
        <time>2020-05-16T13:35:43.000Z</time>
      </trkpt>
      <trkpt lat="45.7212" lon="5.25329">
        <ele>224</ele>
        <time>2020-05-16T13:35:44.000Z</time>
      </trkpt>
      <trkpt lat="45.72127" lon="5.25322">
        <ele>224</ele>
        <time>2020-05-16T13:35:45.000Z</time>
      </trkpt>
      <trkpt lat="45.72133" lon="5.25314">
        <ele>223</ele>
        <time>2020-05-16T13:35:46.000Z</time>
      </trkpt>
      <trkpt lat="45.7214" lon="5.25307">
        <ele>223</ele>
        <time>2020-05-16T13:35:47.000Z</time>
      </trkpt>
      <trkpt lat="45.72146" lon="5.253">
        <ele>224</ele>
        <time>2020-05-16T13:35:48.000Z</time>
      </trkpt>
      <trkpt lat="45.72153" lon="5.25293">
        <ele>224</ele>
        <time>2020-05-16T13:35:49.000Z</time>
      </trkpt>
      <trkpt lat="45.7216" lon="5.25288">
        <ele>224</ele>
        <time>2020-05-16T13:35:50.000Z</time>
      </trkpt>
      <trkpt lat="45.72167" lon="5.25283">
        <ele>224</ele>
        <time>2020-05-16T13:35:51.000Z</time>
      </trkpt>
      <trkpt lat="45.72173" lon="5.25279">
        <ele>224</ele>
        <time>2020-05-16T13:35:52.000Z</time>
      </trkpt>
      <trkpt lat="45.7218" lon="5.25277">
        <ele>223</ele>
        <time>2020-05-16T13:35:53.000Z</time>
      </trkpt>
      <trkpt lat="45.72188" lon="5.25277">
        <ele>224</ele>
        <time>2020-05-16T13:35:54.000Z</time>
      </trkpt>
      <trkpt lat="45.72195" lon="5.25277">
        <ele>225</ele>
        <time>2020-05-16T13:35:55.000Z</time>
      </trkpt>
      <trkpt lat="45.72202" lon="5.25277">
        <ele>225</ele>
        <time>2020-05-16T13:35:56.000Z</time>
      </trkpt>
      <trkpt lat="45.7221" lon="5.25279">
        <ele>223</ele>
        <time>2020-05-16T13:35:57.000Z</time>
      </trkpt>
      <trkpt lat="45.72217" lon="5.25281">
        <ele>222</ele>
        <time>2020-05-16T13:35:58.000Z</time>
      </trkpt>
      <trkpt lat="45.72226" lon="5.25285">
        <ele>221</ele>
        <time>2020-05-16T13:35:59.000Z</time>
      </trkpt>
      <trkpt lat="45.72233" lon="5.25288">
        <ele>221</ele>
        <time>2020-05-16T13:36:00.000Z</time>
      </trkpt>
      <trkpt lat="45.72241" lon="5.25291">
        <ele>220</ele>
        <time>2020-05-16T13:36:01.000Z</time>
      </trkpt>
      <trkpt lat="45.72248" lon="5.25294">
        <ele>220</ele>
        <time>2020-05-16T13:36:02.000Z</time>
      </trkpt>
      <trkpt lat="45.72254" lon="5.25297">
        <ele>221</ele>
        <time>2020-05-16T13:36:03.000Z</time>
      </trkpt>
      <trkpt lat="45.72261" lon="5.253">
        <ele>221</ele>
        <time>2020-05-16T13:36:04.000Z</time>
      </trkpt>
      <trkpt lat="45.72267" lon="5.25303">
        <ele>221</ele>
        <time>2020-05-16T13:36:05.000Z</time>
      </trkpt>
      <trkpt lat="45.72274" lon="5.25306">
        <ele>221</ele>
        <time>2020-05-16T13:36:06.000Z</time>
      </trkpt>
      <trkpt lat="45.7228" lon="5.25309">
        <ele>221</ele>
        <time>2020-05-16T13:36:07.000Z</time>
      </trkpt>
      <trkpt lat="45.72287" lon="5.25312">
        <ele>221</ele>
        <time>2020-05-16T13:36:08.000Z</time>
      </trkpt>
      <trkpt lat="45.72294" lon="5.25315">
        <ele>221</ele>
        <time>2020-05-16T13:36:09.000Z</time>
      </trkpt>
      <trkpt lat="45.72301" lon="5.25318">
        <ele>222</ele>
        <time>2020-05-16T13:36:10.000Z</time>
      </trkpt>
      <trkpt lat="45.72307" lon="5.25322">
        <ele>222</ele>
        <time>2020-05-16T13:36:11.000Z</time>
      </trkpt>
      <trkpt lat="45.72314" lon="5.25325">
        <ele>222</ele>
        <time>2020-05-16T13:36:12.000Z</time>
      </trkpt>
      <trkpt lat="45.72321" lon="5.25328">
        <ele>222</ele>
        <time>2020-05-16T13:36:13.000Z</time>
      </trkpt>
      <trkpt lat="45.72328" lon="5.25331">
        <ele>222</ele>
        <time>2020-05-16T13:36:14.000Z</time>
      </trkpt>
      <trkpt lat="45.72334" lon="5.25334">
        <ele>222</ele>
        <time>2020-05-16T13:36:15.000Z</time>
      </trkpt>
      <trkpt lat="45.72341" lon="5.25337">
        <ele>222</ele>
        <time>2020-05-16T13:36:16.000Z</time>
      </trkpt>
      <trkpt lat="45.72347" lon="5.2534">
        <ele>221</ele>
        <time>2020-05-16T13:36:17.000Z</time>
      </trkpt>
      <trkpt lat="45.72354" lon="5.25343">
        <ele>221</ele>
        <time>2020-05-16T13:36:18.000Z</time>
      </trkpt>
      <trkpt lat="45.72359" lon="5.25346">
        <ele>221</ele>
        <time>2020-05-16T13:36:19.000Z</time>
      </trkpt>
      <trkpt lat="45.72365" lon="5.25349">
        <ele>221</ele>
        <time>2020-05-16T13:36:20.000Z</time>
      </trkpt>
      <trkpt lat="45.72371" lon="5.25352">
        <ele>221</ele>
        <time>2020-05-16T13:36:21.000Z</time>
      </trkpt>
      <trkpt lat="45.72377" lon="5.25355">
        <ele>221</ele>
        <time>2020-05-16T13:36:22.000Z</time>
      </trkpt>
      <trkpt lat="45.72383" lon="5.25358">
        <ele>221</ele>
        <time>2020-05-16T13:36:23.000Z</time>
      </trkpt>
      <trkpt lat="45.72389" lon="5.25361">
        <ele>219</ele>
        <time>2020-05-16T13:36:24.000Z</time>
      </trkpt>
      <trkpt lat="45.72394" lon="5.25363">
        <ele>220</ele>
        <time>2020-05-16T13:36:25.000Z</time>
      </trkpt>
      <trkpt lat="45.724" lon="5.25366">
        <ele>220</ele>
        <time>2020-05-16T13:36:26.000Z</time>
      </trkpt>
      <trkpt lat="45.72406" lon="5.2537">
        <ele>220</ele>
        <time>2020-05-16T13:36:27.000Z</time>
      </trkpt>
      <trkpt lat="45.72411" lon="5.25374">
        <ele>220</ele>
        <time>2020-05-16T13:36:28.000Z</time>
      </trkpt>
      <trkpt lat="45.72417" lon="5.25378">
        <ele>220</ele>
        <time>2020-05-16T13:36:29.000Z</time>
      </trkpt>
      <trkpt lat="45.72423" lon="5.25381">
        <ele>221</ele>
        <time>2020-05-16T13:36:30.000Z</time>
      </trkpt>
      <trkpt lat="45.7243" lon="5.25384">
        <ele>222</ele>
        <time>2020-05-16T13:36:31.000Z</time>
      </trkpt>
      <trkpt lat="45.72436" lon="5.25386">
        <ele>222</ele>
        <time>2020-05-16T13:36:32.000Z</time>
      </trkpt>
      <trkpt lat="45.72443" lon="5.25388">
        <ele>222</ele>
        <time>2020-05-16T13:36:33.000Z</time>
      </trkpt>
      <trkpt lat="45.7245" lon="5.25391">
        <ele>221</ele>
        <time>2020-05-16T13:36:34.000Z</time>
      </trkpt>
      <trkpt lat="45.72457" lon="5.25394">
        <ele>222</ele>
        <time>2020-05-16T13:36:35.000Z</time>
      </trkpt>
      <trkpt lat="45.72463" lon="5.25397">
        <ele>225</ele>
        <time>2020-05-16T13:36:36.000Z</time>
      </trkpt>
      <trkpt lat="45.72468" lon="5.254">
        <ele>226</ele>
        <time>2020-05-16T13:36:37.000Z</time>
      </trkpt>
      <trkpt lat="45.72473" lon="5.25405">
        <ele>227</ele>
        <time>2020-05-16T13:36:38.000Z</time>
      </trkpt>
      <trkpt lat="45.72479" lon="5.2541">
        <ele>227</ele>
        <time>2020-05-16T13:36:39.000Z</time>
      </trkpt>
      <trkpt lat="45.72484" lon="5.25416">
        <ele>227</ele>
        <time>2020-05-16T13:36:40.000Z</time>
      </trkpt>
      <trkpt lat="45.7249" lon="5.25423">
        <ele>226</ele>
        <time>2020-05-16T13:36:41.000Z</time>
      </trkpt>
      <trkpt lat="45.72496" lon="5.25429">
        <ele>225</ele>
        <time>2020-05-16T13:36:42.000Z</time>
      </trkpt>
      <trkpt lat="45.72501" lon="5.25435">
        <ele>225</ele>
        <time>2020-05-16T13:36:43.000Z</time>
      </trkpt>
      <trkpt lat="45.72506" lon="5.2544">
        <ele>224</ele>
        <time>2020-05-16T13:36:44.000Z</time>
      </trkpt>
      <trkpt lat="45.7251" lon="5.25445">
        <ele>224</ele>
        <time>2020-05-16T13:36:45.000Z</time>
      </trkpt>
      <trkpt lat="45.72514" lon="5.25449">
        <ele>224</ele>
        <time>2020-05-16T13:36:46.000Z</time>
      </trkpt>
      <trkpt lat="45.72518" lon="5.25453">
        <ele>223</ele>
        <time>2020-05-16T13:36:47.000Z</time>
      </trkpt>
      <trkpt lat="45.72523" lon="5.25457">
        <ele>222</ele>
        <time>2020-05-16T13:36:48.000Z</time>
      </trkpt>
      <trkpt lat="45.72528" lon="5.25461">
        <ele>221</ele>
        <time>2020-05-16T13:36:49.000Z</time>
      </trkpt>
      <trkpt lat="45.72532" lon="5.25466">
        <ele>220</ele>
        <time>2020-05-16T13:36:50.000Z</time>
      </trkpt>
      <trkpt lat="45.72537" lon="5.25471">
        <ele>220</ele>
        <time>2020-05-16T13:36:51.000Z</time>
      </trkpt>
      <trkpt lat="45.72541" lon="5.25475">
        <ele>220</ele>
        <time>2020-05-16T13:36:52.000Z</time>
      </trkpt>
      <trkpt lat="45.72544" lon="5.2548">
        <ele>219</ele>
        <time>2020-05-16T13:36:53.000Z</time>
      </trkpt>
      <trkpt lat="45.72547" lon="5.25486">
        <ele>219</ele>
        <time>2020-05-16T13:36:54.000Z</time>
      </trkpt>
      <trkpt lat="45.7255" lon="5.25492">
        <ele>219</ele>
        <time>2020-05-16T13:36:55.000Z</time>
      </trkpt>
      <trkpt lat="45.72551" lon="5.25499">
        <ele>222</ele>
        <time>2020-05-16T13:36:56.000Z</time>
      </trkpt>
      <trkpt lat="45.72551" lon="5.25508">
        <ele>220</ele>
        <time>2020-05-16T13:36:57.000Z</time>
      </trkpt>
      <trkpt lat="45.72552" lon="5.25517">
        <ele>220</ele>
        <time>2020-05-16T13:36:58.000Z</time>
      </trkpt>
      <trkpt lat="45.72553" lon="5.25526">
        <ele>220</ele>
        <time>2020-05-16T13:36:59.000Z</time>
      </trkpt>
      <trkpt lat="45.72555" lon="5.25533">
        <ele>220</ele>
        <time>2020-05-16T13:37:00.000Z</time>
      </trkpt>
      <trkpt lat="45.72557" lon="5.2554">
        <ele>220</ele>
        <time>2020-05-16T13:37:01.000Z</time>
      </trkpt>
      <trkpt lat="45.72559" lon="5.25546">
        <ele>220</ele>
        <time>2020-05-16T13:37:02.000Z</time>
      </trkpt>
      <trkpt lat="45.72562" lon="5.25551">
        <ele>220</ele>
        <time>2020-05-16T13:37:03.000Z</time>
      </trkpt>
      <trkpt lat="45.72566" lon="5.25555">
        <ele>221</ele>
        <time>2020-05-16T13:37:04.000Z</time>
      </trkpt>
      <trkpt lat="45.7257" lon="5.25558">
        <ele>221</ele>
        <time>2020-05-16T13:37:05.000Z</time>
      </trkpt>
      <trkpt lat="45.72576" lon="5.25559">
        <ele>221</ele>
        <time>2020-05-16T13:37:06.000Z</time>
      </trkpt>
      <trkpt lat="45.72582" lon="5.25559">
        <ele>222</ele>
        <time>2020-05-16T13:37:07.000Z</time>
      </trkpt>
      <trkpt lat="45.7259" lon="5.25558">
        <ele>224</ele>
        <time>2020-05-16T13:37:08.000Z</time>
      </trkpt>
      <trkpt lat="45.72597" lon="5.25556">
        <ele>225</ele>
        <time>2020-05-16T13:37:09.000Z</time>
      </trkpt>
      <trkpt lat="45.72602" lon="5.25553">
        <ele>224</ele>
        <time>2020-05-16T13:37:10.000Z</time>
      </trkpt>
      <trkpt lat="45.72607" lon="5.2555">
        <ele>223</ele>
        <time>2020-05-16T13:37:11.000Z</time>
      </trkpt>
      <trkpt lat="45.72612" lon="5.25545">
        <ele>223</ele>
        <time>2020-05-16T13:37:12.000Z</time>
      </trkpt>
      <trkpt lat="45.72617" lon="5.25541">
        <ele>222</ele>
        <time>2020-05-16T13:37:13.000Z</time>
      </trkpt>
      <trkpt lat="45.72622" lon="5.25536">
        <ele>222</ele>
        <time>2020-05-16T13:37:14.000Z</time>
      </trkpt>
      <trkpt lat="45.72627" lon="5.25532">
        <ele>221</ele>
        <time>2020-05-16T13:37:15.000Z</time>
      </trkpt>
      <trkpt lat="45.72632" lon="5.25527">
        <ele>221</ele>
        <time>2020-05-16T13:37:16.000Z</time>
      </trkpt>
      <trkpt lat="45.72636" lon="5.25523">
        <ele>220</ele>
        <time>2020-05-16T13:37:17.000Z</time>
      </trkpt>
      <trkpt lat="45.72641" lon="5.25519">
        <ele>219</ele>
        <time>2020-05-16T13:37:18.000Z</time>
      </trkpt>
      <trkpt lat="45.72645" lon="5.25515">
        <ele>219</ele>
        <time>2020-05-16T13:37:19.000Z</time>
      </trkpt>
      <trkpt lat="45.72649" lon="5.25511">
        <ele>218</ele>
        <time>2020-05-16T13:37:20.000Z</time>
      </trkpt>
      <trkpt lat="45.72653" lon="5.25507">
        <ele>218</ele>
        <time>2020-05-16T13:37:21.000Z</time>
      </trkpt>
      <trkpt lat="45.72657" lon="5.25502">
        <ele>217</ele>
        <time>2020-05-16T13:37:22.000Z</time>
      </trkpt>
      <trkpt lat="45.72661" lon="5.25498">
        <ele>216</ele>
        <time>2020-05-16T13:37:23.000Z</time>
      </trkpt>
      <trkpt lat="45.72665" lon="5.25494">
        <ele>214</ele>
        <time>2020-05-16T13:37:24.000Z</time>
      </trkpt>
      <trkpt lat="45.72669" lon="5.2549">
        <ele>212</ele>
        <time>2020-05-16T13:37:25.000Z</time>
      </trkpt>
      <trkpt lat="45.72673" lon="5.25485">
        <ele>212</ele>
        <time>2020-05-16T13:37:26.000Z</time>
      </trkpt>
      <trkpt lat="45.72677" lon="5.2548">
        <ele>212</ele>
        <time>2020-05-16T13:37:27.000Z</time>
      </trkpt>
      <trkpt lat="45.72682" lon="5.25475">
        <ele>213</ele>
        <time>2020-05-16T13:37:28.000Z</time>
      </trkpt>
      <trkpt lat="45.72688" lon="5.25471">
        <ele>213</ele>
        <time>2020-05-16T13:37:29.000Z</time>
      </trkpt>
      <trkpt lat="45.72693" lon="5.25467">
        <ele>214</ele>
        <time>2020-05-16T13:37:30.000Z</time>
      </trkpt>
      <trkpt lat="45.72699" lon="5.25465">
        <ele>218</ele>
        <time>2020-05-16T13:37:31.000Z</time>
      </trkpt>
      <trkpt lat="45.72705" lon="5.25466">
        <ele>213</ele>
        <time>2020-05-16T13:37:32.000Z</time>
      </trkpt>
      <trkpt lat="45.72711" lon="5.2547">
        <ele>213</ele>
        <time>2020-05-16T13:37:33.000Z</time>
      </trkpt>
      <trkpt lat="45.72717" lon="5.25473">
        <ele>213</ele>
        <time>2020-05-16T13:37:34.000Z</time>
      </trkpt>
      <trkpt lat="45.72723" lon="5.25475">
        <ele>213</ele>
        <time>2020-05-16T13:37:35.000Z</time>
      </trkpt>
      <trkpt lat="45.72729" lon="5.25476">
        <ele>212</ele>
        <time>2020-05-16T13:37:36.000Z</time>
      </trkpt>
      <trkpt lat="45.72736" lon="5.25477">
        <ele>212</ele>
        <time>2020-05-16T13:37:37.000Z</time>
      </trkpt>
      <trkpt lat="45.72743" lon="5.25476">
        <ele>211</ele>
        <time>2020-05-16T13:37:38.000Z</time>
      </trkpt>
      <trkpt lat="45.7275" lon="5.25476">
        <ele>211</ele>
        <time>2020-05-16T13:37:39.000Z</time>
      </trkpt>
      <trkpt lat="45.72757" lon="5.25475">
        <ele>210</ele>
        <time>2020-05-16T13:37:40.000Z</time>
      </trkpt>
      <trkpt lat="45.72764" lon="5.25475">
        <ele>209</ele>
        <time>2020-05-16T13:37:41.000Z</time>
      </trkpt>
      <trkpt lat="45.72771" lon="5.25475">
        <ele>209</ele>
        <time>2020-05-16T13:37:42.000Z</time>
      </trkpt>
      <trkpt lat="45.72779" lon="5.25474">
        <ele>209</ele>
        <time>2020-05-16T13:37:43.000Z</time>
      </trkpt>
      <trkpt lat="45.72786" lon="5.25474">
        <ele>208</ele>
        <time>2020-05-16T13:37:44.000Z</time>
      </trkpt>
      <trkpt lat="45.72794" lon="5.25473">
        <ele>208</ele>
        <time>2020-05-16T13:37:45.000Z</time>
      </trkpt>
      <trkpt lat="45.72801" lon="5.25473">
        <ele>208</ele>
        <time>2020-05-16T13:37:46.000Z</time>
      </trkpt>
      <trkpt lat="45.72809" lon="5.25473">
        <ele>207</ele>
        <time>2020-05-16T13:37:47.000Z</time>
      </trkpt>
      <trkpt lat="45.72817" lon="5.25473">
        <ele>207</ele>
        <time>2020-05-16T13:37:48.000Z</time>
      </trkpt>
      <trkpt lat="45.72825" lon="5.25473">
        <ele>206</ele>
        <time>2020-05-16T13:37:49.000Z</time>
      </trkpt>
      <trkpt lat="45.72832" lon="5.25473">
        <ele>206</ele>
        <time>2020-05-16T13:37:50.000Z</time>
      </trkpt>
      <trkpt lat="45.7284" lon="5.25473">
        <ele>206</ele>
        <time>2020-05-16T13:37:51.000Z</time>
      </trkpt>
      <trkpt lat="45.72848" lon="5.25473">
        <ele>206</ele>
        <time>2020-05-16T13:37:52.000Z</time>
      </trkpt>
      <trkpt lat="45.72855" lon="5.25472">
        <ele>206</ele>
        <time>2020-05-16T13:37:53.000Z</time>
      </trkpt>
      <trkpt lat="45.72863" lon="5.25472">
        <ele>206</ele>
        <time>2020-05-16T13:37:54.000Z</time>
      </trkpt>
      <trkpt lat="45.7287" lon="5.25471">
        <ele>206</ele>
        <time>2020-05-16T13:37:55.000Z</time>
      </trkpt>
      <trkpt lat="45.72878" lon="5.2547">
        <ele>206</ele>
        <time>2020-05-16T13:37:56.000Z</time>
      </trkpt>
      <trkpt lat="45.72885" lon="5.25468">
        <ele>206</ele>
        <time>2020-05-16T13:37:57.000Z</time>
      </trkpt>
      <trkpt lat="45.72892" lon="5.25467">
        <ele>205</ele>
        <time>2020-05-16T13:37:58.000Z</time>
      </trkpt>
      <trkpt lat="45.72899" lon="5.25466">
        <ele>205</ele>
        <time>2020-05-16T13:37:59.000Z</time>
      </trkpt>
      <trkpt lat="45.72907" lon="5.25465">
        <ele>205</ele>
        <time>2020-05-16T13:38:00.000Z</time>
      </trkpt>
      <trkpt lat="45.72914" lon="5.25464">
        <ele>205</ele>
        <time>2020-05-16T13:38:01.000Z</time>
      </trkpt>
      <trkpt lat="45.72921" lon="5.25464">
        <ele>204</ele>
        <time>2020-05-16T13:38:02.000Z</time>
      </trkpt>
      <trkpt lat="45.72928" lon="5.25465">
        <ele>204</ele>
        <time>2020-05-16T13:38:03.000Z</time>
      </trkpt>
      <trkpt lat="45.72936" lon="5.25467">
        <ele>204</ele>
        <time>2020-05-16T13:38:04.000Z</time>
      </trkpt>
      <trkpt lat="45.72942" lon="5.2547">
        <ele>205</ele>
        <time>2020-05-16T13:38:05.000Z</time>
      </trkpt>
      <trkpt lat="45.72948" lon="5.25473">
        <ele>206</ele>
        <time>2020-05-16T13:38:06.000Z</time>
      </trkpt>
      <trkpt lat="45.72954" lon="5.25478">
        <ele>206</ele>
        <time>2020-05-16T13:38:07.000Z</time>
      </trkpt>
      <trkpt lat="45.72958" lon="5.25484">
        <ele>207</ele>
        <time>2020-05-16T13:38:08.000Z</time>
      </trkpt>
      <trkpt lat="45.72962" lon="5.25491">
        <ele>207</ele>
        <time>2020-05-16T13:38:09.000Z</time>
      </trkpt>
      <trkpt lat="45.72965" lon="5.25499">
        <ele>208</ele>
        <time>2020-05-16T13:38:10.000Z</time>
      </trkpt>
      <trkpt lat="45.72968" lon="5.25506">
        <ele>208</ele>
        <time>2020-05-16T13:38:11.000Z</time>
      </trkpt>
      <trkpt lat="45.7297" lon="5.25514">
        <ele>209</ele>
        <time>2020-05-16T13:38:12.000Z</time>
      </trkpt>
      <trkpt lat="45.72972" lon="5.25523">
        <ele>210</ele>
        <time>2020-05-16T13:38:13.000Z</time>
      </trkpt>
      <trkpt lat="45.72973" lon="5.25532">
        <ele>211</ele>
        <time>2020-05-16T13:38:14.000Z</time>
      </trkpt>
      <trkpt lat="45.72974" lon="5.2554">
        <ele>211</ele>
        <time>2020-05-16T13:38:15.000Z</time>
      </trkpt>
      <trkpt lat="45.72976" lon="5.2555">
        <ele>211</ele>
        <time>2020-05-16T13:38:16.000Z</time>
      </trkpt>
      <trkpt lat="45.72977" lon="5.25559">
        <ele>211</ele>
        <time>2020-05-16T13:38:17.000Z</time>
      </trkpt>
      <trkpt lat="45.72978" lon="5.25567">
        <ele>211</ele>
        <time>2020-05-16T13:38:18.000Z</time>
      </trkpt>
      <trkpt lat="45.72979" lon="5.25575">
        <ele>211</ele>
        <time>2020-05-16T13:38:19.000Z</time>
      </trkpt>
      <trkpt lat="45.7298" lon="5.25583">
        <ele>212</ele>
        <time>2020-05-16T13:38:20.000Z</time>
      </trkpt>
      <trkpt lat="45.72981" lon="5.25591">
        <ele>212</ele>
        <time>2020-05-16T13:38:21.000Z</time>
      </trkpt>
      <trkpt lat="45.72983" lon="5.25599">
        <ele>212</ele>
        <time>2020-05-16T13:38:22.000Z</time>
      </trkpt>
      <trkpt lat="45.72984" lon="5.25607">
        <ele>212</ele>
        <time>2020-05-16T13:38:23.000Z</time>
      </trkpt>
      <trkpt lat="45.72986" lon="5.25614">
        <ele>212</ele>
        <time>2020-05-16T13:38:24.000Z</time>
      </trkpt>
      <trkpt lat="45.72988" lon="5.25621">
        <ele>213</ele>
        <time>2020-05-16T13:38:25.000Z</time>
      </trkpt>
      <trkpt lat="45.72991" lon="5.25626">
        <ele>213</ele>
        <time>2020-05-16T13:38:26.000Z</time>
      </trkpt>
      <trkpt lat="45.72994" lon="5.2563">
        <ele>212</ele>
        <time>2020-05-16T13:38:27.000Z</time>
      </trkpt>
      <trkpt lat="45.72998" lon="5.25634">
        <ele>213</ele>
        <time>2020-05-16T13:38:28.000Z</time>
      </trkpt>
      <trkpt lat="45.73002" lon="5.25637">
        <ele>213</ele>
        <time>2020-05-16T13:38:29.000Z</time>
      </trkpt>
      <trkpt lat="45.73007" lon="5.2564">
        <ele>214</ele>
        <time>2020-05-16T13:38:30.000Z</time>
      </trkpt>
      <trkpt lat="45.73013" lon="5.25643">
        <ele>214</ele>
        <time>2020-05-16T13:38:31.000Z</time>
      </trkpt>
      <trkpt lat="45.73018" lon="5.25646">
        <ele>215</ele>
        <time>2020-05-16T13:38:32.000Z</time>
      </trkpt>
      <trkpt lat="45.73025" lon="5.25647">
        <ele>214</ele>
        <time>2020-05-16T13:38:33.000Z</time>
      </trkpt>
      <trkpt lat="45.73031" lon="5.25648">
        <ele>214</ele>
        <time>2020-05-16T13:38:34.000Z</time>
      </trkpt>
      <trkpt lat="45.73039" lon="5.25649">
        <ele>214</ele>
        <time>2020-05-16T13:38:35.000Z</time>
      </trkpt>
      <trkpt lat="45.73045" lon="5.25652">
        <ele>213</ele>
        <time>2020-05-16T13:38:36.000Z</time>
      </trkpt>
      <trkpt lat="45.73053" lon="5.25654">
        <ele>213</ele>
        <time>2020-05-16T13:38:37.000Z</time>
      </trkpt>
      <trkpt lat="45.7306" lon="5.25657">
        <ele>214</ele>
        <time>2020-05-16T13:38:38.000Z</time>
      </trkpt>
      <trkpt lat="45.73067" lon="5.2566">
        <ele>214</ele>
        <time>2020-05-16T13:38:39.000Z</time>
      </trkpt>
      <trkpt lat="45.73074" lon="5.25664">
        <ele>214</ele>
        <time>2020-05-16T13:38:40.000Z</time>
      </trkpt>
      <trkpt lat="45.7308" lon="5.25667">
        <ele>214</ele>
        <time>2020-05-16T13:38:41.000Z</time>
      </trkpt>
      <trkpt lat="45.73086" lon="5.25671">
        <ele>214</ele>
        <time>2020-05-16T13:38:42.000Z</time>
      </trkpt>
      <trkpt lat="45.73092" lon="5.25676">
        <ele>214</ele>
        <time>2020-05-16T13:38:43.000Z</time>
      </trkpt>
      <trkpt lat="45.73097" lon="5.25681">
        <ele>214</ele>
        <time>2020-05-16T13:38:44.000Z</time>
      </trkpt>
      <trkpt lat="45.73103" lon="5.25686">
        <ele>215</ele>
        <time>2020-05-16T13:38:45.000Z</time>
      </trkpt>
      <trkpt lat="45.73108" lon="5.25691">
        <ele>215</ele>
        <time>2020-05-16T13:38:46.000Z</time>
      </trkpt>
      <trkpt lat="45.73114" lon="5.25695">
        <ele>216</ele>
        <time>2020-05-16T13:38:47.000Z</time>
      </trkpt>
      <trkpt lat="45.73119" lon="5.257">
        <ele>216</ele>
        <time>2020-05-16T13:38:48.000Z</time>
      </trkpt>
      <trkpt lat="45.73125" lon="5.25705">
        <ele>216</ele>
        <time>2020-05-16T13:38:49.000Z</time>
      </trkpt>
      <trkpt lat="45.7313" lon="5.2571">
        <ele>217</ele>
        <time>2020-05-16T13:38:50.000Z</time>
      </trkpt>
      <trkpt lat="45.73136" lon="5.25715">
        <ele>217</ele>
        <time>2020-05-16T13:38:51.000Z</time>
      </trkpt>
      <trkpt lat="45.73141" lon="5.2572">
        <ele>216</ele>
        <time>2020-05-16T13:38:52.000Z</time>
      </trkpt>
      <trkpt lat="45.73146" lon="5.25726">
        <ele>217</ele>
        <time>2020-05-16T13:38:53.000Z</time>
      </trkpt>
      <trkpt lat="45.73151" lon="5.25732">
        <ele>217</ele>
        <time>2020-05-16T13:38:54.000Z</time>
      </trkpt>
      <trkpt lat="45.73156" lon="5.25737">
        <ele>217</ele>
        <time>2020-05-16T13:38:55.000Z</time>
      </trkpt>
      <trkpt lat="45.73161" lon="5.25743">
        <ele>217</ele>
        <time>2020-05-16T13:38:56.000Z</time>
      </trkpt>
      <trkpt lat="45.73166" lon="5.25748">
        <ele>217</ele>
        <time>2020-05-16T13:38:57.000Z</time>
      </trkpt>
      <trkpt lat="45.73171" lon="5.25754">
        <ele>217</ele>
        <time>2020-05-16T13:38:58.000Z</time>
      </trkpt>
      <trkpt lat="45.73177" lon="5.25759">
        <ele>217</ele>
        <time>2020-05-16T13:38:59.000Z</time>
      </trkpt>
      <trkpt lat="45.73182" lon="5.25765">
        <ele>217</ele>
        <time>2020-05-16T13:39:00.000Z</time>
      </trkpt>
      <trkpt lat="45.73187" lon="5.2577">
        <ele>217</ele>
        <time>2020-05-16T13:39:01.000Z</time>
      </trkpt>
      <trkpt lat="45.73192" lon="5.25775">
        <ele>217</ele>
        <time>2020-05-16T13:39:02.000Z</time>
      </trkpt>
      <trkpt lat="45.73196" lon="5.25779">
        <ele>217</ele>
        <time>2020-05-16T13:39:03.000Z</time>
      </trkpt>
      <trkpt lat="45.73201" lon="5.25784">
        <ele>217</ele>
        <time>2020-05-16T13:39:04.000Z</time>
      </trkpt>
      <trkpt lat="45.73206" lon="5.25789">
        <ele>217</ele>
        <time>2020-05-16T13:39:05.000Z</time>
      </trkpt>
      <trkpt lat="45.73211" lon="5.25794">
        <ele>217</ele>
        <time>2020-05-16T13:39:06.000Z</time>
      </trkpt>
      <trkpt lat="45.73215" lon="5.25798">
        <ele>217</ele>
        <time>2020-05-16T13:39:07.000Z</time>
      </trkpt>
      <trkpt lat="45.73219" lon="5.25803">
        <ele>218</ele>
        <time>2020-05-16T13:39:08.000Z</time>
      </trkpt>
      <trkpt lat="45.73222" lon="5.25808">
        <ele>218</ele>
        <time>2020-05-16T13:39:09.000Z</time>
      </trkpt>
      <trkpt lat="45.73225" lon="5.25814">
        <ele>218</ele>
        <time>2020-05-16T13:39:10.000Z</time>
      </trkpt>
      <trkpt lat="45.73227" lon="5.2582">
        <ele>218</ele>
        <time>2020-05-16T13:39:11.000Z</time>
      </trkpt>
      <trkpt lat="45.73229" lon="5.25827">
        <ele>218</ele>
        <time>2020-05-16T13:39:12.000Z</time>
      </trkpt>
      <trkpt lat="45.73231" lon="5.25834">
        <ele>218</ele>
        <time>2020-05-16T13:39:13.000Z</time>
      </trkpt>
      <trkpt lat="45.73233" lon="5.25841">
        <ele>219</ele>
        <time>2020-05-16T13:39:14.000Z</time>
      </trkpt>
      <trkpt lat="45.73235" lon="5.25848">
        <ele>219</ele>
        <time>2020-05-16T13:39:15.000Z</time>
      </trkpt>
      <trkpt lat="45.73236" lon="5.25855">
        <ele>219</ele>
        <time>2020-05-16T13:39:16.000Z</time>
      </trkpt>
      <trkpt lat="45.73238" lon="5.25861">
        <ele>219</ele>
        <time>2020-05-16T13:39:17.000Z</time>
      </trkpt>
      <trkpt lat="45.73239" lon="5.25867">
        <ele>219</ele>
        <time>2020-05-16T13:39:18.000Z</time>
      </trkpt>
      <trkpt lat="45.7324" lon="5.25872">
        <ele>219</ele>
        <time>2020-05-16T13:39:19.000Z</time>
      </trkpt>
      <trkpt lat="45.73241" lon="5.25877">
        <ele>219</ele>
        <time>2020-05-16T13:39:20.000Z</time>
      </trkpt>
      <trkpt lat="45.73242" lon="5.25883">
        <ele>219</ele>
        <time>2020-05-16T13:39:21.000Z</time>
      </trkpt>
      <trkpt lat="45.73243" lon="5.25889">
        <ele>220</ele>
        <time>2020-05-16T13:39:22.000Z</time>
      </trkpt>
      <trkpt lat="45.73245" lon="5.25895">
        <ele>220</ele>
        <time>2020-05-16T13:39:23.000Z</time>
      </trkpt>
      <trkpt lat="45.73246" lon="5.25902">
        <ele>220</ele>
        <time>2020-05-16T13:39:24.000Z</time>
      </trkpt>
      <trkpt lat="45.73247" lon="5.25909">
        <ele>220</ele>
        <time>2020-05-16T13:39:25.000Z</time>
      </trkpt>
      <trkpt lat="45.73249" lon="5.25916">
        <ele>220</ele>
        <time>2020-05-16T13:39:26.000Z</time>
      </trkpt>
      <trkpt lat="45.7325" lon="5.25923">
        <ele>220</ele>
        <time>2020-05-16T13:39:27.000Z</time>
      </trkpt>
      <trkpt lat="45.73251" lon="5.25931">
        <ele>220</ele>
        <time>2020-05-16T13:39:28.000Z</time>
      </trkpt>
      <trkpt lat="45.73253" lon="5.25938">
        <ele>221</ele>
        <time>2020-05-16T13:39:29.000Z</time>
      </trkpt>
      <trkpt lat="45.73254" lon="5.25946">
        <ele>221</ele>
        <time>2020-05-16T13:39:30.000Z</time>
      </trkpt>
      <trkpt lat="45.73256" lon="5.25953">
        <ele>221</ele>
        <time>2020-05-16T13:39:31.000Z</time>
      </trkpt>
      <trkpt lat="45.73257" lon="5.2596">
        <ele>221</ele>
        <time>2020-05-16T13:39:32.000Z</time>
      </trkpt>
      <trkpt lat="45.73258" lon="5.25967">
        <ele>221</ele>
        <time>2020-05-16T13:39:33.000Z</time>
      </trkpt>
      <trkpt lat="45.73259" lon="5.25974">
        <ele>221</ele>
        <time>2020-05-16T13:39:34.000Z</time>
      </trkpt>
      <trkpt lat="45.73261" lon="5.2598">
        <ele>222</ele>
        <time>2020-05-16T13:39:35.000Z</time>
      </trkpt>
      <trkpt lat="45.73262" lon="5.25987">
        <ele>222</ele>
        <time>2020-05-16T13:39:36.000Z</time>
      </trkpt>
      <trkpt lat="45.73263" lon="5.25994">
        <ele>222</ele>
        <time>2020-05-16T13:39:37.000Z</time>
      </trkpt>
      <trkpt lat="45.73265" lon="5.26001">
        <ele>222</ele>
        <time>2020-05-16T13:39:38.000Z</time>
      </trkpt>
      <trkpt lat="45.73266" lon="5.26008">
        <ele>223</ele>
        <time>2020-05-16T13:39:39.000Z</time>
      </trkpt>
      <trkpt lat="45.73267" lon="5.26015">
        <ele>223</ele>
        <time>2020-05-16T13:39:40.000Z</time>
      </trkpt>
      <trkpt lat="45.73269" lon="5.26022">
        <ele>223</ele>
        <time>2020-05-16T13:39:41.000Z</time>
      </trkpt>
      <trkpt lat="45.7327" lon="5.26029">
        <ele>223</ele>
        <time>2020-05-16T13:39:42.000Z</time>
      </trkpt>
      <trkpt lat="45.73271" lon="5.26036">
        <ele>223</ele>
        <time>2020-05-16T13:39:43.000Z</time>
      </trkpt>
      <trkpt lat="45.73273" lon="5.26043">
        <ele>223</ele>
        <time>2020-05-16T13:39:44.000Z</time>
      </trkpt>
      <trkpt lat="45.73274" lon="5.2605">
        <ele>224</ele>
        <time>2020-05-16T13:39:45.000Z</time>
      </trkpt>
      <trkpt lat="45.73275" lon="5.26057">
        <ele>224</ele>
        <time>2020-05-16T13:39:46.000Z</time>
      </trkpt>
      <trkpt lat="45.73277" lon="5.26064">
        <ele>224</ele>
        <time>2020-05-16T13:39:47.000Z</time>
      </trkpt>
      <trkpt lat="45.73278" lon="5.26071">
        <ele>224</ele>
        <time>2020-05-16T13:39:48.000Z</time>
      </trkpt>
      <trkpt lat="45.73279" lon="5.26077">
        <ele>224</ele>
        <time>2020-05-16T13:39:49.000Z</time>
      </trkpt>
      <trkpt lat="45.73281" lon="5.26084">
        <ele>224</ele>
        <time>2020-05-16T13:39:50.000Z</time>
      </trkpt>
      <trkpt lat="45.73282" lon="5.26091">
        <ele>224</ele>
        <time>2020-05-16T13:39:51.000Z</time>
      </trkpt>
      <trkpt lat="45.73283" lon="5.26099">
        <ele>225</ele>
        <time>2020-05-16T13:39:52.000Z</time>
      </trkpt>
      <trkpt lat="45.73285" lon="5.26106">
        <ele>225</ele>
        <time>2020-05-16T13:39:53.000Z</time>
      </trkpt>
      <trkpt lat="45.73286" lon="5.26113">
        <ele>225</ele>
        <time>2020-05-16T13:39:54.000Z</time>
      </trkpt>
      <trkpt lat="45.73287" lon="5.2612">
        <ele>225</ele>
        <time>2020-05-16T13:39:55.000Z</time>
      </trkpt>
      <trkpt lat="45.73289" lon="5.26127">
        <ele>225</ele>
        <time>2020-05-16T13:39:56.000Z</time>
      </trkpt>
      <trkpt lat="45.7329" lon="5.26134">
        <ele>225</ele>
        <time>2020-05-16T13:39:57.000Z</time>
      </trkpt>
      <trkpt lat="45.73291" lon="5.26141">
        <ele>226</ele>
        <time>2020-05-16T13:39:58.000Z</time>
      </trkpt>
      <trkpt lat="45.73293" lon="5.26148">
        <ele>226</ele>
        <time>2020-05-16T13:39:59.000Z</time>
      </trkpt>
      <trkpt lat="45.73294" lon="5.26155">
        <ele>226</ele>
        <time>2020-05-16T13:40:00.000Z</time>
      </trkpt>
      <trkpt lat="45.73296" lon="5.26162">
        <ele>226</ele>
        <time>2020-05-16T13:40:01.000Z</time>
      </trkpt>
      <trkpt lat="45.73297" lon="5.26169">
        <ele>226</ele>
        <time>2020-05-16T13:40:02.000Z</time>
      </trkpt>
      <trkpt lat="45.73299" lon="5.26176">
        <ele>226</ele>
        <time>2020-05-16T13:40:03.000Z</time>
      </trkpt>
      <trkpt lat="45.733" lon="5.26183">
        <ele>227</ele>
        <time>2020-05-16T13:40:04.000Z</time>
      </trkpt>
      <trkpt lat="45.73301" lon="5.2619">
        <ele>227</ele>
        <time>2020-05-16T13:40:05.000Z</time>
      </trkpt>
      <trkpt lat="45.73303" lon="5.26197">
        <ele>227</ele>
        <time>2020-05-16T13:40:06.000Z</time>
      </trkpt>
      <trkpt lat="45.73304" lon="5.26204">
        <ele>228</ele>
        <time>2020-05-16T13:40:07.000Z</time>
      </trkpt>
      <trkpt lat="45.73306" lon="5.2621">
        <ele>228</ele>
        <time>2020-05-16T13:40:08.000Z</time>
      </trkpt>
      <trkpt lat="45.73307" lon="5.26217">
        <ele>228</ele>
        <time>2020-05-16T13:40:09.000Z</time>
      </trkpt>
      <trkpt lat="45.73308" lon="5.26223">
        <ele>228</ele>
        <time>2020-05-16T13:40:10.000Z</time>
      </trkpt>
      <trkpt lat="45.73309" lon="5.2623">
        <ele>229</ele>
        <time>2020-05-16T13:40:11.000Z</time>
      </trkpt>
      <trkpt lat="45.7331" lon="5.26237">
        <ele>229</ele>
        <time>2020-05-16T13:40:12.000Z</time>
      </trkpt>
      <trkpt lat="45.73311" lon="5.26243">
        <ele>229</ele>
        <time>2020-05-16T13:40:13.000Z</time>
      </trkpt>
      <trkpt lat="45.73311" lon="5.2625">
        <ele>229</ele>
        <time>2020-05-16T13:40:14.000Z</time>
      </trkpt>
      <trkpt lat="45.73312" lon="5.26256">
        <ele>230</ele>
        <time>2020-05-16T13:40:15.000Z</time>
      </trkpt>
      <trkpt lat="45.73312" lon="5.26263">
        <ele>230</ele>
        <time>2020-05-16T13:40:16.000Z</time>
      </trkpt>
      <trkpt lat="45.73312" lon="5.26269">
        <ele>230</ele>
        <time>2020-05-16T13:40:17.000Z</time>
      </trkpt>
      <trkpt lat="45.73312" lon="5.26275">
        <ele>230</ele>
        <time>2020-05-16T13:40:18.000Z</time>
      </trkpt>
      <trkpt lat="45.73313" lon="5.26281">
        <ele>230</ele>
        <time>2020-05-16T13:40:19.000Z</time>
      </trkpt>
      <trkpt lat="45.73313" lon="5.26287">
        <ele>230</ele>
        <time>2020-05-16T13:40:20.000Z</time>
      </trkpt>
      <trkpt lat="45.73314" lon="5.26293">
        <ele>230</ele>
        <time>2020-05-16T13:40:21.000Z</time>
      </trkpt>
      <trkpt lat="45.73315" lon="5.26299">
        <ele>231</ele>
        <time>2020-05-16T13:40:22.000Z</time>
      </trkpt>
      <trkpt lat="45.73316" lon="5.26304">
        <ele>231</ele>
        <time>2020-05-16T13:40:23.000Z</time>
      </trkpt>
      <trkpt lat="45.73318" lon="5.2631">
        <ele>231</ele>
        <time>2020-05-16T13:40:24.000Z</time>
      </trkpt>
      <trkpt lat="45.7332" lon="5.26314">
        <ele>232</ele>
        <time>2020-05-16T13:40:25.000Z</time>
      </trkpt>
      <trkpt lat="45.73321" lon="5.26319">
        <ele>231</ele>
        <time>2020-05-16T13:40:26.000Z</time>
      </trkpt>
      <trkpt lat="45.73323" lon="5.26324">
        <ele>231</ele>
        <time>2020-05-16T13:40:27.000Z</time>
      </trkpt>
      <trkpt lat="45.73325" lon="5.26328">
        <ele>232</ele>
        <time>2020-05-16T13:40:28.000Z</time>
      </trkpt>
      <trkpt lat="45.73328" lon="5.26332">
        <ele>234</ele>
        <time>2020-05-16T13:40:29.000Z</time>
      </trkpt>
      <trkpt lat="45.73331" lon="5.26336">
        <ele>235</ele>
        <time>2020-05-16T13:40:30.000Z</time>
      </trkpt>
      <trkpt lat="45.73333" lon="5.2634">
        <ele>236</ele>
        <time>2020-05-16T13:40:31.000Z</time>
      </trkpt>
      <trkpt lat="45.73336" lon="5.26344">
        <ele>238</ele>
        <time>2020-05-16T13:40:32.000Z</time>
      </trkpt>
      <trkpt lat="45.73338" lon="5.26348">
        <ele>239</ele>
        <time>2020-05-16T13:40:33.000Z</time>
      </trkpt>
      <trkpt lat="45.7334" lon="5.26352">
        <ele>239</ele>
        <time>2020-05-16T13:40:34.000Z</time>
      </trkpt>
      <trkpt lat="45.73343" lon="5.26356">
        <ele>240</ele>
        <time>2020-05-16T13:40:35.000Z</time>
      </trkpt>
      <trkpt lat="45.73346" lon="5.26359">
        <ele>242</ele>
        <time>2020-05-16T13:40:36.000Z</time>
      </trkpt>
      <trkpt lat="45.73348" lon="5.26363">
        <ele>242</ele>
        <time>2020-05-16T13:40:37.000Z</time>
      </trkpt>
      <trkpt lat="45.73351" lon="5.26366">
        <ele>243</ele>
        <time>2020-05-16T13:40:38.000Z</time>
      </trkpt>
      <trkpt lat="45.73354" lon="5.2637">
        <ele>243</ele>
        <time>2020-05-16T13:40:39.000Z</time>
      </trkpt>
      <trkpt lat="45.73357" lon="5.26374">
        <ele>244</ele>
        <time>2020-05-16T13:40:40.000Z</time>
      </trkpt>
      <trkpt lat="45.7336" lon="5.26377">
        <ele>245</ele>
        <time>2020-05-16T13:40:41.000Z</time>
      </trkpt>
      <trkpt lat="45.73363" lon="5.2638">
        <ele>246</ele>
        <time>2020-05-16T13:40:42.000Z</time>
      </trkpt>
      <trkpt lat="45.73365" lon="5.26383">
        <ele>247</ele>
        <time>2020-05-16T13:40:43.000Z</time>
      </trkpt>
      <trkpt lat="45.73368" lon="5.26387">
        <ele>248</ele>
        <time>2020-05-16T13:40:44.000Z</time>
      </trkpt>
      <trkpt lat="45.7337" lon="5.2639">
        <ele>248</ele>
        <time>2020-05-16T13:40:45.000Z</time>
      </trkpt>
      <trkpt lat="45.73373" lon="5.26394">
        <ele>249</ele>
        <time>2020-05-16T13:40:46.000Z</time>
      </trkpt>
      <trkpt lat="45.73375" lon="5.26398">
        <ele>249</ele>
        <time>2020-05-16T13:40:47.000Z</time>
      </trkpt>
      <trkpt lat="45.73378" lon="5.26402">
        <ele>249</ele>
        <time>2020-05-16T13:40:48.000Z</time>
      </trkpt>
      <trkpt lat="45.73381" lon="5.26405">
        <ele>250</ele>
        <time>2020-05-16T13:40:49.000Z</time>
      </trkpt>
      <trkpt lat="45.73383" lon="5.26409">
        <ele>251</ele>
        <time>2020-05-16T13:40:50.000Z</time>
      </trkpt>
      <trkpt lat="45.73386" lon="5.26413">
        <ele>250</ele>
        <time>2020-05-16T13:40:51.000Z</time>
      </trkpt>
      <trkpt lat="45.73389" lon="5.26416">
        <ele>251</ele>
        <time>2020-05-16T13:40:52.000Z</time>
      </trkpt>
      <trkpt lat="45.73392" lon="5.2642">
        <ele>252</ele>
        <time>2020-05-16T13:40:53.000Z</time>
      </trkpt>
      <trkpt lat="45.73395" lon="5.26424">
        <ele>253</ele>
        <time>2020-05-16T13:40:54.000Z</time>
      </trkpt>
      <trkpt lat="45.73398" lon="5.26427">
        <ele>253</ele>
        <time>2020-05-16T13:40:55.000Z</time>
      </trkpt>
      <trkpt lat="45.73401" lon="5.26431">
        <ele>253</ele>
        <time>2020-05-16T13:40:56.000Z</time>
      </trkpt>
      <trkpt lat="45.73403" lon="5.26435">
        <ele>254</ele>
        <time>2020-05-16T13:40:57.000Z</time>
      </trkpt>
      <trkpt lat="45.73406" lon="5.26438">
        <ele>255</ele>
        <time>2020-05-16T13:40:58.000Z</time>
      </trkpt>
      <trkpt lat="45.73409" lon="5.26442">
        <ele>255</ele>
        <time>2020-05-16T13:40:59.000Z</time>
      </trkpt>
      <trkpt lat="45.73411" lon="5.26445">
        <ele>256</ele>
        <time>2020-05-16T13:41:00.000Z</time>
      </trkpt>
      <trkpt lat="45.73414" lon="5.26449">
        <ele>256</ele>
        <time>2020-05-16T13:41:01.000Z</time>
      </trkpt>
      <trkpt lat="45.73416" lon="5.26452">
        <ele>256</ele>
        <time>2020-05-16T13:41:02.000Z</time>
      </trkpt>
      <trkpt lat="45.73419" lon="5.26456">
        <ele>257</ele>
        <time>2020-05-16T13:41:03.000Z</time>
      </trkpt>
      <trkpt lat="45.73421" lon="5.26459">
        <ele>258</ele>
        <time>2020-05-16T13:41:04.000Z</time>
      </trkpt>
      <trkpt lat="45.73424" lon="5.26463">
        <ele>258</ele>
        <time>2020-05-16T13:41:05.000Z</time>
      </trkpt>
      <trkpt lat="45.73426" lon="5.26467">
        <ele>258</ele>
        <time>2020-05-16T13:41:06.000Z</time>
      </trkpt>
      <trkpt lat="45.73429" lon="5.26471">
        <ele>259</ele>
        <time>2020-05-16T13:41:07.000Z</time>
      </trkpt>
      <trkpt lat="45.73431" lon="5.26474">
        <ele>259</ele>
        <time>2020-05-16T13:41:08.000Z</time>
      </trkpt>
      <trkpt lat="45.73434" lon="5.26477">
        <ele>260</ele>
        <time>2020-05-16T13:41:09.000Z</time>
      </trkpt>
      <trkpt lat="45.73436" lon="5.2648">
        <ele>261</ele>
        <time>2020-05-16T13:41:10.000Z</time>
      </trkpt>
      <trkpt lat="45.73438" lon="5.26483">
        <ele>261</ele>
        <time>2020-05-16T13:41:11.000Z</time>
      </trkpt>
      <trkpt lat="45.7344" lon="5.26486">
        <ele>262</ele>
        <time>2020-05-16T13:41:12.000Z</time>
      </trkpt>
      <trkpt lat="45.73443" lon="5.26489">
        <ele>261</ele>
        <time>2020-05-16T13:41:13.000Z</time>
      </trkpt>
      <trkpt lat="45.73445" lon="5.26492">
        <ele>263</ele>
        <time>2020-05-16T13:41:14.000Z</time>
      </trkpt>
      <trkpt lat="45.73447" lon="5.26495">
        <ele>263</ele>
        <time>2020-05-16T13:41:15.000Z</time>
      </trkpt>
      <trkpt lat="45.7345" lon="5.26498">
        <ele>263</ele>
        <time>2020-05-16T13:41:16.000Z</time>
      </trkpt>
      <trkpt lat="45.73452" lon="5.26501">
        <ele>264</ele>
        <time>2020-05-16T13:41:17.000Z</time>
      </trkpt>
      <trkpt lat="45.73454" lon="5.26504">
        <ele>264</ele>
        <time>2020-05-16T13:41:18.000Z</time>
      </trkpt>
      <trkpt lat="45.73457" lon="5.26508">
        <ele>264</ele>
        <time>2020-05-16T13:41:19.000Z</time>
      </trkpt>
      <trkpt lat="45.73459" lon="5.26511">
        <ele>265</ele>
        <time>2020-05-16T13:41:20.000Z</time>
      </trkpt>
      <trkpt lat="45.73462" lon="5.26515">
        <ele>265</ele>
        <time>2020-05-16T13:41:21.000Z</time>
      </trkpt>
      <trkpt lat="45.73464" lon="5.26518">
        <ele>266</ele>
        <time>2020-05-16T13:41:22.000Z</time>
      </trkpt>
      <trkpt lat="45.73466" lon="5.26521">
        <ele>266</ele>
        <time>2020-05-16T13:41:23.000Z</time>
      </trkpt>
      <trkpt lat="45.73469" lon="5.26524">
        <ele>266</ele>
        <time>2020-05-16T13:41:24.000Z</time>
      </trkpt>
      <trkpt lat="45.73471" lon="5.26527">
        <ele>267</ele>
        <time>2020-05-16T13:41:25.000Z</time>
      </trkpt>
      <trkpt lat="45.73474" lon="5.2653">
        <ele>267</ele>
        <time>2020-05-16T13:41:26.000Z</time>
      </trkpt>
      <trkpt lat="45.73476" lon="5.26534">
        <ele>267</ele>
        <time>2020-05-16T13:41:27.000Z</time>
      </trkpt>
      <trkpt lat="45.73479" lon="5.26537">
        <ele>266</ele>
        <time>2020-05-16T13:41:28.000Z</time>
      </trkpt>
      <trkpt lat="45.73481" lon="5.26541">
        <ele>266</ele>
        <time>2020-05-16T13:41:29.000Z</time>
      </trkpt>
      <trkpt lat="45.73484" lon="5.26544">
        <ele>266</ele>
        <time>2020-05-16T13:41:30.000Z</time>
      </trkpt>
      <trkpt lat="45.73486" lon="5.26547">
        <ele>266</ele>
        <time>2020-05-16T13:41:31.000Z</time>
      </trkpt>
      <trkpt lat="45.73489" lon="5.2655">
        <ele>267</ele>
        <time>2020-05-16T13:41:32.000Z</time>
      </trkpt>
      <trkpt lat="45.73492" lon="5.26554">
        <ele>267</ele>
        <time>2020-05-16T13:41:33.000Z</time>
      </trkpt>
      <trkpt lat="45.73494" lon="5.26557">
        <ele>267</ele>
        <time>2020-05-16T13:41:34.000Z</time>
      </trkpt>
      <trkpt lat="45.73497" lon="5.2656">
        <ele>266</ele>
        <time>2020-05-16T13:41:35.000Z</time>
      </trkpt>
      <trkpt lat="45.735" lon="5.26563">
        <ele>267</ele>
        <time>2020-05-16T13:41:36.000Z</time>
      </trkpt>
      <trkpt lat="45.73503" lon="5.26567">
        <ele>267</ele>
        <time>2020-05-16T13:41:37.000Z</time>
      </trkpt>
      <trkpt lat="45.73505" lon="5.2657">
        <ele>267</ele>
        <time>2020-05-16T13:41:38.000Z</time>
      </trkpt>
      <trkpt lat="45.73508" lon="5.26573">
        <ele>267</ele>
        <time>2020-05-16T13:41:39.000Z</time>
      </trkpt>
      <trkpt lat="45.7351" lon="5.26576">
        <ele>267</ele>
        <time>2020-05-16T13:41:40.000Z</time>
      </trkpt>
      <trkpt lat="45.73513" lon="5.26579">
        <ele>267</ele>
        <time>2020-05-16T13:41:41.000Z</time>
      </trkpt>
      <trkpt lat="45.73516" lon="5.26582">
        <ele>267</ele>
        <time>2020-05-16T13:41:42.000Z</time>
      </trkpt>
      <trkpt lat="45.73518" lon="5.26586">
        <ele>267</ele>
        <time>2020-05-16T13:41:43.000Z</time>
      </trkpt>
      <trkpt lat="45.73521" lon="5.26589">
        <ele>266</ele>
        <time>2020-05-16T13:41:44.000Z</time>
      </trkpt>
      <trkpt lat="45.73524" lon="5.26592">
        <ele>267</ele>
        <time>2020-05-16T13:41:45.000Z</time>
      </trkpt>
      <trkpt lat="45.73527" lon="5.26596">
        <ele>266</ele>
        <time>2020-05-16T13:41:46.000Z</time>
      </trkpt>
      <trkpt lat="45.73529" lon="5.266">
        <ele>266</ele>
        <time>2020-05-16T13:41:47.000Z</time>
      </trkpt>
      <trkpt lat="45.73532" lon="5.26603">
        <ele>266</ele>
        <time>2020-05-16T13:41:48.000Z</time>
      </trkpt>
      <trkpt lat="45.73535" lon="5.26607">
        <ele>267</ele>
        <time>2020-05-16T13:41:49.000Z</time>
      </trkpt>
      <trkpt lat="45.73537" lon="5.26611">
        <ele>267</ele>
        <time>2020-05-16T13:41:50.000Z</time>
      </trkpt>
      <trkpt lat="45.7354" lon="5.26614">
        <ele>268</ele>
        <time>2020-05-16T13:41:51.000Z</time>
      </trkpt>
      <trkpt lat="45.73542" lon="5.26618">
        <ele>267</ele>
        <time>2020-05-16T13:41:52.000Z</time>
      </trkpt>
      <trkpt lat="45.73544" lon="5.26623">
        <ele>267</ele>
        <time>2020-05-16T13:41:53.000Z</time>
      </trkpt>
      <trkpt lat="45.73546" lon="5.26628">
        <ele>267</ele>
        <time>2020-05-16T13:41:54.000Z</time>
      </trkpt>
      <trkpt lat="45.73548" lon="5.26632">
        <ele>267</ele>
        <time>2020-05-16T13:41:55.000Z</time>
      </trkpt>
      <trkpt lat="45.7355" lon="5.26637">
        <ele>267</ele>
        <time>2020-05-16T13:41:56.000Z</time>
      </trkpt>
      <trkpt lat="45.73552" lon="5.26642">
        <ele>267</ele>
        <time>2020-05-16T13:41:57.000Z</time>
      </trkpt>
      <trkpt lat="45.73554" lon="5.26647">
        <ele>267</ele>
        <time>2020-05-16T13:41:58.000Z</time>
      </trkpt>
      <trkpt lat="45.73555" lon="5.26653">
        <ele>265</ele>
        <time>2020-05-16T13:41:59.000Z</time>
      </trkpt>
      <trkpt lat="45.73557" lon="5.26659">
        <ele>264</ele>
        <time>2020-05-16T13:42:00.000Z</time>
      </trkpt>
      <trkpt lat="45.73559" lon="5.26665">
        <ele>263</ele>
        <time>2020-05-16T13:42:01.000Z</time>
      </trkpt>
      <trkpt lat="45.7356" lon="5.2667">
        <ele>263</ele>
        <time>2020-05-16T13:42:02.000Z</time>
      </trkpt>
      <trkpt lat="45.73561" lon="5.26676">
        <ele>262</ele>
        <time>2020-05-16T13:42:03.000Z</time>
      </trkpt>
      <trkpt lat="45.73563" lon="5.26681">
        <ele>262</ele>
        <time>2020-05-16T13:42:04.000Z</time>
      </trkpt>
      <trkpt lat="45.73564" lon="5.26687">
        <ele>262</ele>
        <time>2020-05-16T13:42:05.000Z</time>
      </trkpt>
      <trkpt lat="45.73565" lon="5.26692">
        <ele>262</ele>
        <time>2020-05-16T13:42:06.000Z</time>
      </trkpt>
      <trkpt lat="45.73566" lon="5.26697">
        <ele>262</ele>
        <time>2020-05-16T13:42:07.000Z</time>
      </trkpt>
      <trkpt lat="45.73567" lon="5.26702">
        <ele>262</ele>
        <time>2020-05-16T13:42:08.000Z</time>
      </trkpt>
      <trkpt lat="45.73567" lon="5.26707">
        <ele>262</ele>
        <time>2020-05-16T13:42:09.000Z</time>
      </trkpt>
      <trkpt lat="45.73568" lon="5.26711">
        <ele>262</ele>
        <time>2020-05-16T13:42:10.000Z</time>
      </trkpt>
      <trkpt lat="45.73568" lon="5.26714">
        <ele>262</ele>
        <time>2020-05-16T13:42:11.000Z</time>
      </trkpt>
      <trkpt lat="45.73569" lon="5.26719">
        <ele>263</ele>
        <time>2020-05-16T13:42:12.000Z</time>
      </trkpt>
      <trkpt lat="45.73569" lon="5.26723">
        <ele>263</ele>
        <time>2020-05-16T13:42:13.000Z</time>
      </trkpt>
      <trkpt lat="45.7357" lon="5.26729">
        <ele>263</ele>
        <time>2020-05-16T13:42:14.000Z</time>
      </trkpt>
      <trkpt lat="45.73571" lon="5.26734">
        <ele>263</ele>
        <time>2020-05-16T13:42:15.000Z</time>
      </trkpt>
      <trkpt lat="45.73572" lon="5.26739">
        <ele>264</ele>
        <time>2020-05-16T13:42:16.000Z</time>
      </trkpt>
      <trkpt lat="45.73573" lon="5.26744">
        <ele>264</ele>
        <time>2020-05-16T13:42:17.000Z</time>
      </trkpt>
      <trkpt lat="45.73574" lon="5.2675">
        <ele>264</ele>
        <time>2020-05-16T13:42:18.000Z</time>
      </trkpt>
      <trkpt lat="45.73575" lon="5.26755">
        <ele>264</ele>
        <time>2020-05-16T13:42:19.000Z</time>
      </trkpt>
      <trkpt lat="45.73576" lon="5.2676">
        <ele>265</ele>
        <time>2020-05-16T13:42:20.000Z</time>
      </trkpt>
      <trkpt lat="45.73577" lon="5.26765">
        <ele>265</ele>
        <time>2020-05-16T13:42:21.000Z</time>
      </trkpt>
      <trkpt lat="45.73578" lon="5.2677">
        <ele>265</ele>
        <time>2020-05-16T13:42:22.000Z</time>
      </trkpt>
      <trkpt lat="45.73579" lon="5.26776">
        <ele>265</ele>
        <time>2020-05-16T13:42:23.000Z</time>
      </trkpt>
      <trkpt lat="45.7358" lon="5.26781">
        <ele>265</ele>
        <time>2020-05-16T13:42:24.000Z</time>
      </trkpt>
      <trkpt lat="45.73581" lon="5.26786">
        <ele>265</ele>
        <time>2020-05-16T13:42:25.000Z</time>
      </trkpt>
      <trkpt lat="45.73582" lon="5.26791">
        <ele>265</ele>
        <time>2020-05-16T13:42:26.000Z</time>
      </trkpt>
      <trkpt lat="45.73583" lon="5.26796">
        <ele>266</ele>
        <time>2020-05-16T13:42:27.000Z</time>
      </trkpt>
      <trkpt lat="45.73585" lon="5.26801">
        <ele>266</ele>
        <time>2020-05-16T13:42:28.000Z</time>
      </trkpt>
      <trkpt lat="45.73587" lon="5.26806">
        <ele>266</ele>
        <time>2020-05-16T13:42:29.000Z</time>
      </trkpt>
      <trkpt lat="45.73589" lon="5.2681">
        <ele>266</ele>
        <time>2020-05-16T13:42:30.000Z</time>
      </trkpt>
      <trkpt lat="45.73591" lon="5.26815">
        <ele>267</ele>
        <time>2020-05-16T13:42:31.000Z</time>
      </trkpt>
      <trkpt lat="45.73594" lon="5.2682">
        <ele>267</ele>
        <time>2020-05-16T13:42:32.000Z</time>
      </trkpt>
      <trkpt lat="45.73597" lon="5.26824">
        <ele>267</ele>
        <time>2020-05-16T13:42:33.000Z</time>
      </trkpt>
      <trkpt lat="45.73599" lon="5.26829">
        <ele>267</ele>
        <time>2020-05-16T13:42:34.000Z</time>
      </trkpt>
      <trkpt lat="45.73602" lon="5.26833">
        <ele>268</ele>
        <time>2020-05-16T13:42:35.000Z</time>
      </trkpt>
      <trkpt lat="45.73604" lon="5.26838">
        <ele>268</ele>
        <time>2020-05-16T13:42:36.000Z</time>
      </trkpt>
      <trkpt lat="45.73607" lon="5.26842">
        <ele>268</ele>
        <time>2020-05-16T13:42:37.000Z</time>
      </trkpt>
      <trkpt lat="45.73609" lon="5.26846">
        <ele>269</ele>
        <time>2020-05-16T13:42:38.000Z</time>
      </trkpt>
      <trkpt lat="45.73612" lon="5.2685">
        <ele>269</ele>
        <time>2020-05-16T13:42:39.000Z</time>
      </trkpt>
      <trkpt lat="45.73614" lon="5.26855">
        <ele>269</ele>
        <time>2020-05-16T13:42:40.000Z</time>
      </trkpt>
      <trkpt lat="45.73616" lon="5.26859">
        <ele>269</ele>
        <time>2020-05-16T13:42:41.000Z</time>
      </trkpt>
      <trkpt lat="45.73618" lon="5.26864">
        <ele>270</ele>
        <time>2020-05-16T13:42:42.000Z</time>
      </trkpt>
      <trkpt lat="45.73619" lon="5.26869">
        <ele>270</ele>
        <time>2020-05-16T13:42:43.000Z</time>
      </trkpt>
      <trkpt lat="45.7362" lon="5.26874">
        <ele>270</ele>
        <time>2020-05-16T13:42:44.000Z</time>
      </trkpt>
      <trkpt lat="45.73622" lon="5.26879">
        <ele>270</ele>
        <time>2020-05-16T13:42:45.000Z</time>
      </trkpt>
      <trkpt lat="45.73623" lon="5.26885">
        <ele>270</ele>
        <time>2020-05-16T13:42:46.000Z</time>
      </trkpt>
      <trkpt lat="45.73624" lon="5.26891">
        <ele>270</ele>
        <time>2020-05-16T13:42:47.000Z</time>
      </trkpt>
      <trkpt lat="45.73625" lon="5.26896">
        <ele>270</ele>
        <time>2020-05-16T13:42:48.000Z</time>
      </trkpt>
      <trkpt lat="45.73626" lon="5.26902">
        <ele>270</ele>
        <time>2020-05-16T13:42:49.000Z</time>
      </trkpt>
      <trkpt lat="45.73628" lon="5.26908">
        <ele>270</ele>
        <time>2020-05-16T13:42:50.000Z</time>
      </trkpt>
      <trkpt lat="45.73629" lon="5.26915">
        <ele>270</ele>
        <time>2020-05-16T13:42:51.000Z</time>
      </trkpt>
      <trkpt lat="45.73631" lon="5.26922">
        <ele>270</ele>
        <time>2020-05-16T13:42:52.000Z</time>
      </trkpt>
      <trkpt lat="45.73633" lon="5.26928">
        <ele>270</ele>
        <time>2020-05-16T13:42:53.000Z</time>
      </trkpt>
      <trkpt lat="45.73635" lon="5.26935">
        <ele>269</ele>
        <time>2020-05-16T13:42:54.000Z</time>
      </trkpt>
      <trkpt lat="45.73637" lon="5.26941">
        <ele>270</ele>
        <time>2020-05-16T13:42:55.000Z</time>
      </trkpt>
      <trkpt lat="45.73639" lon="5.26947">
        <ele>269</ele>
        <time>2020-05-16T13:42:56.000Z</time>
      </trkpt>
      <trkpt lat="45.73641" lon="5.26953">
        <ele>269</ele>
        <time>2020-05-16T13:42:57.000Z</time>
      </trkpt>
      <trkpt lat="45.73644" lon="5.26959">
        <ele>269</ele>
        <time>2020-05-16T13:42:58.000Z</time>
      </trkpt>
      <trkpt lat="45.73647" lon="5.26964">
        <ele>269</ele>
        <time>2020-05-16T13:42:59.000Z</time>
      </trkpt>
      <trkpt lat="45.73649" lon="5.26969">
        <ele>269</ele>
        <time>2020-05-16T13:43:00.000Z</time>
      </trkpt>
      <trkpt lat="45.73652" lon="5.26973">
        <ele>269</ele>
        <time>2020-05-16T13:43:01.000Z</time>
      </trkpt>
      <trkpt lat="45.73655" lon="5.26978">
        <ele>270</ele>
        <time>2020-05-16T13:43:02.000Z</time>
      </trkpt>
      <trkpt lat="45.73658" lon="5.26982">
        <ele>270</ele>
        <time>2020-05-16T13:43:03.000Z</time>
      </trkpt>
      <trkpt lat="45.73662" lon="5.26985">
        <ele>270</ele>
        <time>2020-05-16T13:43:04.000Z</time>
      </trkpt>
      <trkpt lat="45.73666" lon="5.26987">
        <ele>270</ele>
        <time>2020-05-16T13:43:05.000Z</time>
      </trkpt>
      <trkpt lat="45.73671" lon="5.26988">
        <ele>270</ele>
        <time>2020-05-16T13:43:06.000Z</time>
      </trkpt>
      <trkpt lat="45.73675" lon="5.26989">
        <ele>269</ele>
        <time>2020-05-16T13:43:07.000Z</time>
      </trkpt>
      <trkpt lat="45.7368" lon="5.26989">
        <ele>269</ele>
        <time>2020-05-16T13:43:08.000Z</time>
      </trkpt>
      <trkpt lat="45.73684" lon="5.26988">
        <ele>270</ele>
        <time>2020-05-16T13:43:09.000Z</time>
      </trkpt>
      <trkpt lat="45.73688" lon="5.26986">
        <ele>270</ele>
        <time>2020-05-16T13:43:10.000Z</time>
      </trkpt>
      <trkpt lat="45.73692" lon="5.26984">
        <ele>270</ele>
        <time>2020-05-16T13:43:11.000Z</time>
      </trkpt>
      <trkpt lat="45.73696" lon="5.26981">
        <ele>270</ele>
        <time>2020-05-16T13:43:12.000Z</time>
      </trkpt>
      <trkpt lat="45.737" lon="5.26979">
        <ele>270</ele>
        <time>2020-05-16T13:43:13.000Z</time>
      </trkpt>
      <trkpt lat="45.73703" lon="5.26976">
        <ele>270</ele>
        <time>2020-05-16T13:43:14.000Z</time>
      </trkpt>
      <trkpt lat="45.73707" lon="5.26973">
        <ele>270</ele>
        <time>2020-05-16T13:43:15.000Z</time>
      </trkpt>
      <trkpt lat="45.73711" lon="5.26971">
        <ele>269</ele>
        <time>2020-05-16T13:43:16.000Z</time>
      </trkpt>
      <trkpt lat="45.73714" lon="5.26968">
        <ele>269</ele>
        <time>2020-05-16T13:43:17.000Z</time>
      </trkpt>
      <trkpt lat="45.73718" lon="5.26966">
        <ele>269</ele>
        <time>2020-05-16T13:43:18.000Z</time>
      </trkpt>
      <trkpt lat="45.73721" lon="5.26963">
        <ele>269</ele>
        <time>2020-05-16T13:43:19.000Z</time>
      </trkpt>
      <trkpt lat="45.73725" lon="5.26961">
        <ele>269</ele>
        <time>2020-05-16T13:43:20.000Z</time>
      </trkpt>
      <trkpt lat="45.73728" lon="5.26959">
        <ele>268</ele>
        <time>2020-05-16T13:43:21.000Z</time>
      </trkpt>
      <trkpt lat="45.73731" lon="5.26956">
        <ele>268</ele>
        <time>2020-05-16T13:43:22.000Z</time>
      </trkpt>
      <trkpt lat="45.73735" lon="5.26953">
        <ele>268</ele>
        <time>2020-05-16T13:43:23.000Z</time>
      </trkpt>
      <trkpt lat="45.73738" lon="5.2695">
        <ele>268</ele>
        <time>2020-05-16T13:43:24.000Z</time>
      </trkpt>
      <trkpt lat="45.73742" lon="5.26947">
        <ele>268</ele>
        <time>2020-05-16T13:43:25.000Z</time>
      </trkpt>
      <trkpt lat="45.73745" lon="5.26945">
        <ele>268</ele>
        <time>2020-05-16T13:43:26.000Z</time>
      </trkpt>
      <trkpt lat="45.73748" lon="5.26942">
        <ele>268</ele>
        <time>2020-05-16T13:43:27.000Z</time>
      </trkpt>
      <trkpt lat="45.73752" lon="5.26939">
        <ele>269</ele>
        <time>2020-05-16T13:43:28.000Z</time>
      </trkpt>
      <trkpt lat="45.73755" lon="5.26936">
        <ele>270</ele>
        <time>2020-05-16T13:43:29.000Z</time>
      </trkpt>
      <trkpt lat="45.73759" lon="5.26933">
        <ele>270</ele>
        <time>2020-05-16T13:43:30.000Z</time>
      </trkpt>
      <trkpt lat="45.73762" lon="5.2693">
        <ele>271</ele>
        <time>2020-05-16T13:43:31.000Z</time>
      </trkpt>
      <trkpt lat="45.73766" lon="5.26928">
        <ele>271</ele>
        <time>2020-05-16T13:43:32.000Z</time>
      </trkpt>
      <trkpt lat="45.7377" lon="5.26925">
        <ele>271</ele>
        <time>2020-05-16T13:43:33.000Z</time>
      </trkpt>
      <trkpt lat="45.73773" lon="5.26923">
        <ele>272</ele>
        <time>2020-05-16T13:43:34.000Z</time>
      </trkpt>
      <trkpt lat="45.73777" lon="5.2692">
        <ele>272</ele>
        <time>2020-05-16T13:43:35.000Z</time>
      </trkpt>
      <trkpt lat="45.7378" lon="5.26918">
        <ele>272</ele>
        <time>2020-05-16T13:43:36.000Z</time>
      </trkpt>
      <trkpt lat="45.73784" lon="5.26915">
        <ele>273</ele>
        <time>2020-05-16T13:43:37.000Z</time>
      </trkpt>
      <trkpt lat="45.73788" lon="5.26913">
        <ele>273</ele>
        <time>2020-05-16T13:43:38.000Z</time>
      </trkpt>
      <trkpt lat="45.73792" lon="5.2691">
        <ele>273</ele>
        <time>2020-05-16T13:43:39.000Z</time>
      </trkpt>
      <trkpt lat="45.73795" lon="5.26908">
        <ele>274</ele>
        <time>2020-05-16T13:43:40.000Z</time>
      </trkpt>
      <trkpt lat="45.73799" lon="5.26905">
        <ele>274</ele>
        <time>2020-05-16T13:43:41.000Z</time>
      </trkpt>
      <trkpt lat="45.73803" lon="5.26902">
        <ele>274</ele>
        <time>2020-05-16T13:43:42.000Z</time>
      </trkpt>
      <trkpt lat="45.73806" lon="5.269">
        <ele>274</ele>
        <time>2020-05-16T13:43:43.000Z</time>
      </trkpt>
      <trkpt lat="45.7381" lon="5.26897">
        <ele>274</ele>
        <time>2020-05-16T13:43:44.000Z</time>
      </trkpt>
      <trkpt lat="45.73814" lon="5.26895">
        <ele>274</ele>
        <time>2020-05-16T13:43:45.000Z</time>
      </trkpt>
      <trkpt lat="45.73817" lon="5.26892">
        <ele>275</ele>
        <time>2020-05-16T13:43:46.000Z</time>
      </trkpt>
      <trkpt lat="45.73821" lon="5.26889">
        <ele>275</ele>
        <time>2020-05-16T13:43:47.000Z</time>
      </trkpt>
      <trkpt lat="45.73825" lon="5.26886">
        <ele>275</ele>
        <time>2020-05-16T13:43:48.000Z</time>
      </trkpt>
      <trkpt lat="45.73829" lon="5.26883">
        <ele>276</ele>
        <time>2020-05-16T13:43:49.000Z</time>
      </trkpt>
      <trkpt lat="45.73833" lon="5.26881">
        <ele>276</ele>
        <time>2020-05-16T13:43:50.000Z</time>
      </trkpt>
      <trkpt lat="45.73837" lon="5.26878">
        <ele>276</ele>
        <time>2020-05-16T13:43:51.000Z</time>
      </trkpt>
      <trkpt lat="45.73841" lon="5.26875">
        <ele>277</ele>
        <time>2020-05-16T13:43:52.000Z</time>
      </trkpt>
      <trkpt lat="45.73845" lon="5.26872">
        <ele>277</ele>
        <time>2020-05-16T13:43:53.000Z</time>
      </trkpt>
      <trkpt lat="45.73848" lon="5.26869">
        <ele>278</ele>
        <time>2020-05-16T13:43:54.000Z</time>
      </trkpt>
      <trkpt lat="45.73852" lon="5.26866">
        <ele>278</ele>
        <time>2020-05-16T13:43:55.000Z</time>
      </trkpt>
      <trkpt lat="45.73856" lon="5.26863">
        <ele>278</ele>
        <time>2020-05-16T13:43:56.000Z</time>
      </trkpt>
      <trkpt lat="45.7386" lon="5.2686">
        <ele>279</ele>
        <time>2020-05-16T13:43:57.000Z</time>
      </trkpt>
      <trkpt lat="45.73864" lon="5.26858">
        <ele>279</ele>
        <time>2020-05-16T13:43:58.000Z</time>
      </trkpt>
      <trkpt lat="45.73868" lon="5.26855">
        <ele>279</ele>
        <time>2020-05-16T13:43:59.000Z</time>
      </trkpt>
      <trkpt lat="45.73872" lon="5.26852">
        <ele>280</ele>
        <time>2020-05-16T13:44:00.000Z</time>
      </trkpt>
      <trkpt lat="45.73876" lon="5.2685">
        <ele>280</ele>
        <time>2020-05-16T13:44:01.000Z</time>
      </trkpt>
      <trkpt lat="45.7388" lon="5.26847">
        <ele>281</ele>
        <time>2020-05-16T13:44:02.000Z</time>
      </trkpt>
      <trkpt lat="45.73884" lon="5.26845">
        <ele>282</ele>
        <time>2020-05-16T13:44:03.000Z</time>
      </trkpt>
      <trkpt lat="45.73888" lon="5.26843">
        <ele>283</ele>
        <time>2020-05-16T13:44:04.000Z</time>
      </trkpt>
      <trkpt lat="45.73892" lon="5.26841">
        <ele>284</ele>
        <time>2020-05-16T13:44:05.000Z</time>
      </trkpt>
      <trkpt lat="45.73896" lon="5.2684">
        <ele>284</ele>
        <time>2020-05-16T13:44:06.000Z</time>
      </trkpt>
      <trkpt lat="45.739" lon="5.26839">
        <ele>285</ele>
        <time>2020-05-16T13:44:07.000Z</time>
      </trkpt>
      <trkpt lat="45.73904" lon="5.26837">
        <ele>285</ele>
        <time>2020-05-16T13:44:08.000Z</time>
      </trkpt>
      <trkpt lat="45.73908" lon="5.26836">
        <ele>285</ele>
        <time>2020-05-16T13:44:09.000Z</time>
      </trkpt>
      <trkpt lat="45.73912" lon="5.26835">
        <ele>286</ele>
        <time>2020-05-16T13:44:10.000Z</time>
      </trkpt>
      <trkpt lat="45.73917" lon="5.26834">
        <ele>286</ele>
        <time>2020-05-16T13:44:11.000Z</time>
      </trkpt>
      <trkpt lat="45.73921" lon="5.26834">
        <ele>285</ele>
        <time>2020-05-16T13:44:12.000Z</time>
      </trkpt>
      <trkpt lat="45.73925" lon="5.26833">
        <ele>286</ele>
        <time>2020-05-16T13:44:13.000Z</time>
      </trkpt>
      <trkpt lat="45.73929" lon="5.26833">
        <ele>286</ele>
        <time>2020-05-16T13:44:14.000Z</time>
      </trkpt>
      <trkpt lat="45.73933" lon="5.26832">
        <ele>287</ele>
        <time>2020-05-16T13:44:15.000Z</time>
      </trkpt>
      <trkpt lat="45.73938" lon="5.26831">
        <ele>287</ele>
        <time>2020-05-16T13:44:16.000Z</time>
      </trkpt>
      <trkpt lat="45.73942" lon="5.26831">
        <ele>288</ele>
        <time>2020-05-16T13:44:17.000Z</time>
      </trkpt>
      <trkpt lat="45.73946" lon="5.2683">
        <ele>288</ele>
        <time>2020-05-16T13:44:18.000Z</time>
      </trkpt>
      <trkpt lat="45.7395" lon="5.26831">
        <ele>288</ele>
        <time>2020-05-16T13:44:19.000Z</time>
      </trkpt>
      <trkpt lat="45.73954" lon="5.26831">
        <ele>288</ele>
        <time>2020-05-16T13:44:20.000Z</time>
      </trkpt>
      <trkpt lat="45.73958" lon="5.26832">
        <ele>288</ele>
        <time>2020-05-16T13:44:21.000Z</time>
      </trkpt>
      <trkpt lat="45.73962" lon="5.26832">
        <ele>287</ele>
        <time>2020-05-16T13:44:22.000Z</time>
      </trkpt>
      <trkpt lat="45.73967" lon="5.26833">
        <ele>287</ele>
        <time>2020-05-16T13:44:23.000Z</time>
      </trkpt>
      <trkpt lat="45.73971" lon="5.26834">
        <ele>287</ele>
        <time>2020-05-16T13:44:24.000Z</time>
      </trkpt>
      <trkpt lat="45.73975" lon="5.26836">
        <ele>288</ele>
        <time>2020-05-16T13:44:25.000Z</time>
      </trkpt>
      <trkpt lat="45.7398" lon="5.26837">
        <ele>288</ele>
        <time>2020-05-16T13:44:26.000Z</time>
      </trkpt>
      <trkpt lat="45.73984" lon="5.26839">
        <ele>288</ele>
        <time>2020-05-16T13:44:27.000Z</time>
      </trkpt>
      <trkpt lat="45.73988" lon="5.2684">
        <ele>288</ele>
        <time>2020-05-16T13:44:28.000Z</time>
      </trkpt>
      <trkpt lat="45.73992" lon="5.26842">
        <ele>288</ele>
        <time>2020-05-16T13:44:29.000Z</time>
      </trkpt>
      <trkpt lat="45.73996" lon="5.26844">
        <ele>288</ele>
        <time>2020-05-16T13:44:30.000Z</time>
      </trkpt>
      <trkpt lat="45.74" lon="5.26846">
        <ele>288</ele>
        <time>2020-05-16T13:44:31.000Z</time>
      </trkpt>
      <trkpt lat="45.74004" lon="5.26848">
        <ele>288</ele>
        <time>2020-05-16T13:44:32.000Z</time>
      </trkpt>
      <trkpt lat="45.74008" lon="5.26851">
        <ele>287</ele>
        <time>2020-05-16T13:44:33.000Z</time>
      </trkpt>
      <trkpt lat="45.74012" lon="5.26853">
        <ele>288</ele>
        <time>2020-05-16T13:44:34.000Z</time>
      </trkpt>
      <trkpt lat="45.74016" lon="5.26856">
        <ele>288</ele>
        <time>2020-05-16T13:44:35.000Z</time>
      </trkpt>
      <trkpt lat="45.7402" lon="5.26858">
        <ele>288</ele>
        <time>2020-05-16T13:44:36.000Z</time>
      </trkpt>
      <trkpt lat="45.74024" lon="5.26861">
        <ele>288</ele>
        <time>2020-05-16T13:44:37.000Z</time>
      </trkpt>
      <trkpt lat="45.74028" lon="5.26864">
        <ele>288</ele>
        <time>2020-05-16T13:44:38.000Z</time>
      </trkpt>
      <trkpt lat="45.74031" lon="5.26867">
        <ele>288</ele>
        <time>2020-05-16T13:44:39.000Z</time>
      </trkpt>
      <trkpt lat="45.74035" lon="5.2687">
        <ele>288</ele>
        <time>2020-05-16T13:44:40.000Z</time>
      </trkpt>
      <trkpt lat="45.74039" lon="5.26874">
        <ele>288</ele>
        <time>2020-05-16T13:44:41.000Z</time>
      </trkpt>
      <trkpt lat="45.74043" lon="5.26877">
        <ele>288</ele>
        <time>2020-05-16T13:44:42.000Z</time>
      </trkpt>
      <trkpt lat="45.74047" lon="5.26881">
        <ele>288</ele>
        <time>2020-05-16T13:44:43.000Z</time>
      </trkpt>
      <trkpt lat="45.7405" lon="5.26884">
        <ele>288</ele>
        <time>2020-05-16T13:44:44.000Z</time>
      </trkpt>
      <trkpt lat="45.74054" lon="5.26888">
        <ele>288</ele>
        <time>2020-05-16T13:44:45.000Z</time>
      </trkpt>
      <trkpt lat="45.74057" lon="5.26892">
        <ele>289</ele>
        <time>2020-05-16T13:44:46.000Z</time>
      </trkpt>
      <trkpt lat="45.74061" lon="5.26896">
        <ele>289</ele>
        <time>2020-05-16T13:44:47.000Z</time>
      </trkpt>
      <trkpt lat="45.74064" lon="5.269">
        <ele>289</ele>
        <time>2020-05-16T13:44:48.000Z</time>
      </trkpt>
      <trkpt lat="45.74067" lon="5.26904">
        <ele>289</ele>
        <time>2020-05-16T13:44:49.000Z</time>
      </trkpt>
      <trkpt lat="45.7407" lon="5.26907">
        <ele>290</ele>
        <time>2020-05-16T13:44:50.000Z</time>
      </trkpt>
      <trkpt lat="45.74073" lon="5.26911">
        <ele>290</ele>
        <time>2020-05-16T13:44:51.000Z</time>
      </trkpt>
      <trkpt lat="45.74076" lon="5.26915">
        <ele>290</ele>
        <time>2020-05-16T13:44:52.000Z</time>
      </trkpt>
      <trkpt lat="45.74079" lon="5.26919">
        <ele>291</ele>
        <time>2020-05-16T13:44:53.000Z</time>
      </trkpt>
      <trkpt lat="45.74082" lon="5.26923">
        <ele>291</ele>
        <time>2020-05-16T13:44:54.000Z</time>
      </trkpt>
      <trkpt lat="45.74085" lon="5.26927">
        <ele>291</ele>
        <time>2020-05-16T13:44:55.000Z</time>
      </trkpt>
      <trkpt lat="45.74089" lon="5.2693">
        <ele>291</ele>
        <time>2020-05-16T13:44:56.000Z</time>
      </trkpt>
      <trkpt lat="45.74092" lon="5.26934">
        <ele>292</ele>
        <time>2020-05-16T13:44:57.000Z</time>
      </trkpt>
      <trkpt lat="45.74095" lon="5.26938">
        <ele>292</ele>
        <time>2020-05-16T13:44:58.000Z</time>
      </trkpt>
      <trkpt lat="45.74098" lon="5.26941">
        <ele>293</ele>
        <time>2020-05-16T13:44:59.000Z</time>
      </trkpt>
      <trkpt lat="45.74101" lon="5.26945">
        <ele>293</ele>
        <time>2020-05-16T13:45:00.000Z</time>
      </trkpt>
      <trkpt lat="45.74104" lon="5.26948">
        <ele>293</ele>
        <time>2020-05-16T13:45:01.000Z</time>
      </trkpt>
      <trkpt lat="45.74107" lon="5.26951">
        <ele>294</ele>
        <time>2020-05-16T13:45:02.000Z</time>
      </trkpt>
      <trkpt lat="45.7411" lon="5.26954">
        <ele>294</ele>
        <time>2020-05-16T13:45:03.000Z</time>
      </trkpt>
      <trkpt lat="45.74113" lon="5.26957">
        <ele>294</ele>
        <time>2020-05-16T13:45:04.000Z</time>
      </trkpt>
      <trkpt lat="45.74116" lon="5.2696">
        <ele>295</ele>
        <time>2020-05-16T13:45:05.000Z</time>
      </trkpt>
      <trkpt lat="45.74119" lon="5.26963">
        <ele>296</ele>
        <time>2020-05-16T13:45:06.000Z</time>
      </trkpt>
      <trkpt lat="45.74122" lon="5.26965">
        <ele>296</ele>
        <time>2020-05-16T13:45:07.000Z</time>
      </trkpt>
      <trkpt lat="45.74126" lon="5.26968">
        <ele>297</ele>
        <time>2020-05-16T13:45:08.000Z</time>
      </trkpt>
      <trkpt lat="45.74129" lon="5.2697">
        <ele>297</ele>
        <time>2020-05-16T13:45:09.000Z</time>
      </trkpt>
      <trkpt lat="45.74132" lon="5.26972">
        <ele>298</ele>
        <time>2020-05-16T13:45:10.000Z</time>
      </trkpt>
      <trkpt lat="45.74135" lon="5.26973">
        <ele>298</ele>
        <time>2020-05-16T13:45:11.000Z</time>
      </trkpt>
      <trkpt lat="45.74139" lon="5.26975">
        <ele>299</ele>
        <time>2020-05-16T13:45:12.000Z</time>
      </trkpt>
      <trkpt lat="45.74143" lon="5.26976">
        <ele>299</ele>
        <time>2020-05-16T13:45:13.000Z</time>
      </trkpt>
      <trkpt lat="45.74147" lon="5.26976">
        <ele>300</ele>
        <time>2020-05-16T13:45:14.000Z</time>
      </trkpt>
      <trkpt lat="45.74151" lon="5.26975">
        <ele>299</ele>
        <time>2020-05-16T13:45:15.000Z</time>
      </trkpt>
      <trkpt lat="45.74155" lon="5.26975">
        <ele>299</ele>
        <time>2020-05-16T13:45:16.000Z</time>
      </trkpt>
      <trkpt lat="45.74159" lon="5.26974">
        <ele>300</ele>
        <time>2020-05-16T13:45:17.000Z</time>
      </trkpt>
      <trkpt lat="45.74163" lon="5.26973">
        <ele>300</ele>
        <time>2020-05-16T13:45:18.000Z</time>
      </trkpt>
      <trkpt lat="45.74167" lon="5.26972">
        <ele>301</ele>
        <time>2020-05-16T13:45:19.000Z</time>
      </trkpt>
      <trkpt lat="45.74171" lon="5.26971">
        <ele>301</ele>
        <time>2020-05-16T13:45:20.000Z</time>
      </trkpt>
      <trkpt lat="45.74176" lon="5.26969">
        <ele>301</ele>
        <time>2020-05-16T13:45:21.000Z</time>
      </trkpt>
      <trkpt lat="45.7418" lon="5.26968">
        <ele>301</ele>
        <time>2020-05-16T13:45:22.000Z</time>
      </trkpt>
      <trkpt lat="45.74185" lon="5.26966">
        <ele>301</ele>
        <time>2020-05-16T13:45:23.000Z</time>
      </trkpt>
      <trkpt lat="45.74189" lon="5.26965">
        <ele>302</ele>
        <time>2020-05-16T13:45:24.000Z</time>
      </trkpt>
      <trkpt lat="45.74194" lon="5.26965">
        <ele>302</ele>
        <time>2020-05-16T13:45:25.000Z</time>
      </trkpt>
      <trkpt lat="45.74199" lon="5.26964">
        <ele>301</ele>
        <time>2020-05-16T13:45:26.000Z</time>
      </trkpt>
      <trkpt lat="45.74203" lon="5.26965">
        <ele>301</ele>
        <time>2020-05-16T13:45:27.000Z</time>
      </trkpt>
      <trkpt lat="45.74208" lon="5.26966">
        <ele>300</ele>
        <time>2020-05-16T13:45:28.000Z</time>
      </trkpt>
      <trkpt lat="45.74213" lon="5.26968">
        <ele>300</ele>
        <time>2020-05-16T13:45:29.000Z</time>
      </trkpt>
      <trkpt lat="45.74218" lon="5.2697">
        <ele>300</ele>
        <time>2020-05-16T13:45:30.000Z</time>
      </trkpt>
      <trkpt lat="45.74224" lon="5.26973">
        <ele>300</ele>
        <time>2020-05-16T13:45:31.000Z</time>
      </trkpt>
      <trkpt lat="45.74229" lon="5.26977">
        <ele>300</ele>
        <time>2020-05-16T13:45:32.000Z</time>
      </trkpt>
      <trkpt lat="45.74234" lon="5.2698">
        <ele>301</ele>
        <time>2020-05-16T13:45:33.000Z</time>
      </trkpt>
      <trkpt lat="45.74239" lon="5.26983">
        <ele>301</ele>
        <time>2020-05-16T13:45:34.000Z</time>
      </trkpt>
      <trkpt lat="45.74243" lon="5.26986">
        <ele>301</ele>
        <time>2020-05-16T13:45:35.000Z</time>
      </trkpt>
      <trkpt lat="45.74248" lon="5.2699">
        <ele>301</ele>
        <time>2020-05-16T13:45:36.000Z</time>
      </trkpt>
      <trkpt lat="45.74253" lon="5.26993">
        <ele>301</ele>
        <time>2020-05-16T13:45:37.000Z</time>
      </trkpt>
      <trkpt lat="45.74257" lon="5.26997">
        <ele>301</ele>
        <time>2020-05-16T13:45:38.000Z</time>
      </trkpt>
      <trkpt lat="45.74262" lon="5.27">
        <ele>301</ele>
        <time>2020-05-16T13:45:39.000Z</time>
      </trkpt>
      <trkpt lat="45.74266" lon="5.27003">
        <ele>301</ele>
        <time>2020-05-16T13:45:40.000Z</time>
      </trkpt>
      <trkpt lat="45.74271" lon="5.27006">
        <ele>301</ele>
        <time>2020-05-16T13:45:41.000Z</time>
      </trkpt>
      <trkpt lat="45.74275" lon="5.2701">
        <ele>302</ele>
        <time>2020-05-16T13:45:42.000Z</time>
      </trkpt>
      <trkpt lat="45.7428" lon="5.27013">
        <ele>302</ele>
        <time>2020-05-16T13:45:43.000Z</time>
      </trkpt>
      <trkpt lat="45.74284" lon="5.27016">
        <ele>302</ele>
        <time>2020-05-16T13:45:44.000Z</time>
      </trkpt>
      <trkpt lat="45.74289" lon="5.27019">
        <ele>302</ele>
        <time>2020-05-16T13:45:45.000Z</time>
      </trkpt>
      <trkpt lat="45.74293" lon="5.27023">
        <ele>302</ele>
        <time>2020-05-16T13:45:46.000Z</time>
      </trkpt>
      <trkpt lat="45.74298" lon="5.27026">
        <ele>302</ele>
        <time>2020-05-16T13:45:47.000Z</time>
      </trkpt>
      <trkpt lat="45.74302" lon="5.27029">
        <ele>302</ele>
        <time>2020-05-16T13:45:48.000Z</time>
      </trkpt>
      <trkpt lat="45.74307" lon="5.27033">
        <ele>302</ele>
        <time>2020-05-16T13:45:49.000Z</time>
      </trkpt>
      <trkpt lat="45.74311" lon="5.27036">
        <ele>302</ele>
        <time>2020-05-16T13:45:50.000Z</time>
      </trkpt>
      <trkpt lat="45.74316" lon="5.2704">
        <ele>302</ele>
        <time>2020-05-16T13:45:51.000Z</time>
      </trkpt>
      <trkpt lat="45.7432" lon="5.27043">
        <ele>302</ele>
        <time>2020-05-16T13:45:52.000Z</time>
      </trkpt>
      <trkpt lat="45.74324" lon="5.27046">
        <ele>303</ele>
        <time>2020-05-16T13:45:53.000Z</time>
      </trkpt>
      <trkpt lat="45.74329" lon="5.2705">
        <ele>303</ele>
        <time>2020-05-16T13:45:54.000Z</time>
      </trkpt>
      <trkpt lat="45.74333" lon="5.27054">
        <ele>303</ele>
        <time>2020-05-16T13:45:55.000Z</time>
      </trkpt>
      <trkpt lat="45.74337" lon="5.27057">
        <ele>303</ele>
        <time>2020-05-16T13:45:56.000Z</time>
      </trkpt>
      <trkpt lat="45.74341" lon="5.27061">
        <ele>304</ele>
        <time>2020-05-16T13:45:57.000Z</time>
      </trkpt>
      <trkpt lat="45.74345" lon="5.27065">
        <ele>304</ele>
        <time>2020-05-16T13:45:58.000Z</time>
      </trkpt>
      <trkpt lat="45.74349" lon="5.27068">
        <ele>304</ele>
        <time>2020-05-16T13:45:59.000Z</time>
      </trkpt>
      <trkpt lat="45.74354" lon="5.27072">
        <ele>305</ele>
        <time>2020-05-16T13:46:00.000Z</time>
      </trkpt>
      <trkpt lat="45.74358" lon="5.27075">
        <ele>305</ele>
        <time>2020-05-16T13:46:01.000Z</time>
      </trkpt>
      <trkpt lat="45.74362" lon="5.27079">
        <ele>305</ele>
        <time>2020-05-16T13:46:02.000Z</time>
      </trkpt>
      <trkpt lat="45.74365" lon="5.27082">
        <ele>305</ele>
        <time>2020-05-16T13:46:03.000Z</time>
      </trkpt>
      <trkpt lat="45.74369" lon="5.27085">
        <ele>304</ele>
        <time>2020-05-16T13:46:04.000Z</time>
      </trkpt>
      <trkpt lat="45.74373" lon="5.27087">
        <ele>305</ele>
        <time>2020-05-16T13:46:05.000Z</time>
      </trkpt>
      <trkpt lat="45.74377" lon="5.2709">
        <ele>305</ele>
        <time>2020-05-16T13:46:06.000Z</time>
      </trkpt>
      <trkpt lat="45.7438" lon="5.27092">
        <ele>305</ele>
        <time>2020-05-16T13:46:07.000Z</time>
      </trkpt>
      <trkpt lat="45.74383" lon="5.27095">
        <ele>305</ele>
        <time>2020-05-16T13:46:08.000Z</time>
      </trkpt>
      <trkpt lat="45.74386" lon="5.27098">
        <ele>306</ele>
        <time>2020-05-16T13:46:09.000Z</time>
      </trkpt>
      <trkpt lat="45.74389" lon="5.271">
        <ele>306</ele>
        <time>2020-05-16T13:46:10.000Z</time>
      </trkpt>
      <trkpt lat="45.74393" lon="5.27102">
        <ele>306</ele>
        <time>2020-05-16T13:46:11.000Z</time>
      </trkpt>
      <trkpt lat="45.74396" lon="5.27104">
        <ele>306</ele>
        <time>2020-05-16T13:46:12.000Z</time>
      </trkpt>
      <trkpt lat="45.74399" lon="5.27106">
        <ele>306</ele>
        <time>2020-05-16T13:46:13.000Z</time>
      </trkpt>
      <trkpt lat="45.74402" lon="5.27109">
        <ele>306</ele>
        <time>2020-05-16T13:46:14.000Z</time>
      </trkpt>
      <trkpt lat="45.74404" lon="5.27112">
        <ele>306</ele>
        <time>2020-05-16T13:46:15.000Z</time>
      </trkpt>
      <trkpt lat="45.74407" lon="5.27114">
        <ele>306</ele>
        <time>2020-05-16T13:46:16.000Z</time>
      </trkpt>
      <trkpt lat="45.74409" lon="5.27116">
        <ele>306</ele>
        <time>2020-05-16T13:46:17.000Z</time>
      </trkpt>
      <trkpt lat="45.74412" lon="5.27118">
        <ele>306</ele>
        <time>2020-05-16T13:46:18.000Z</time>
      </trkpt>
      <trkpt lat="45.74415" lon="5.2712">
        <ele>306</ele>
        <time>2020-05-16T13:46:19.000Z</time>
      </trkpt>
      <trkpt lat="45.74418" lon="5.27122">
        <ele>306</ele>
        <time>2020-05-16T13:46:20.000Z</time>
      </trkpt>
      <trkpt lat="45.7442" lon="5.27124">
        <ele>306</ele>
        <time>2020-05-16T13:46:21.000Z</time>
      </trkpt>
      <trkpt lat="45.74423" lon="5.27126">
        <ele>306</ele>
        <time>2020-05-16T13:46:22.000Z</time>
      </trkpt>
      <trkpt lat="45.74426" lon="5.27128">
        <ele>307</ele>
        <time>2020-05-16T13:46:23.000Z</time>
      </trkpt>
      <trkpt lat="45.74429" lon="5.27129">
        <ele>306</ele>
        <time>2020-05-16T13:46:24.000Z</time>
      </trkpt>
      <trkpt lat="45.74432" lon="5.27131">
        <ele>306</ele>
        <time>2020-05-16T13:46:25.000Z</time>
      </trkpt>
      <trkpt lat="45.74435" lon="5.27133">
        <ele>306</ele>
        <time>2020-05-16T13:46:26.000Z</time>
      </trkpt>
      <trkpt lat="45.74438" lon="5.27135">
        <ele>306</ele>
        <time>2020-05-16T13:46:27.000Z</time>
      </trkpt>
      <trkpt lat="45.74442" lon="5.27137">
        <ele>308</ele>
        <time>2020-05-16T13:46:28.000Z</time>
      </trkpt>
      <trkpt lat="45.74446" lon="5.27139">
        <ele>309</ele>
        <time>2020-05-16T13:46:29.000Z</time>
      </trkpt>
      <trkpt lat="45.74451" lon="5.27141">
        <ele>310</ele>
        <time>2020-05-16T13:46:30.000Z</time>
      </trkpt>
      <trkpt lat="45.74455" lon="5.27144">
        <ele>309</ele>
        <time>2020-05-16T13:46:31.000Z</time>
      </trkpt>
      <trkpt lat="45.7446" lon="5.27146">
        <ele>309</ele>
        <time>2020-05-16T13:46:32.000Z</time>
      </trkpt>
      <trkpt lat="45.74465" lon="5.27149">
        <ele>310</ele>
        <time>2020-05-16T13:46:33.000Z</time>
      </trkpt>
      <trkpt lat="45.74469" lon="5.27152">
        <ele>310</ele>
        <time>2020-05-16T13:46:34.000Z</time>
      </trkpt>
      <trkpt lat="45.74474" lon="5.27154">
        <ele>311</ele>
        <time>2020-05-16T13:46:35.000Z</time>
      </trkpt>
      <trkpt lat="45.74479" lon="5.27156">
        <ele>311</ele>
        <time>2020-05-16T13:46:36.000Z</time>
      </trkpt>
      <trkpt lat="45.74484" lon="5.27159">
        <ele>311</ele>
        <time>2020-05-16T13:46:37.000Z</time>
      </trkpt>
      <trkpt lat="45.74489" lon="5.27161">
        <ele>312</ele>
        <time>2020-05-16T13:46:38.000Z</time>
      </trkpt>
      <trkpt lat="45.74493" lon="5.27163">
        <ele>312</ele>
        <time>2020-05-16T13:46:39.000Z</time>
      </trkpt>
      <trkpt lat="45.74498" lon="5.27166">
        <ele>312</ele>
        <time>2020-05-16T13:46:40.000Z</time>
      </trkpt>
      <trkpt lat="45.74503" lon="5.27168">
        <ele>313</ele>
        <time>2020-05-16T13:46:41.000Z</time>
      </trkpt>
      <trkpt lat="45.74507" lon="5.27171">
        <ele>313</ele>
        <time>2020-05-16T13:46:42.000Z</time>
      </trkpt>
      <trkpt lat="45.74512" lon="5.27174">
        <ele>313</ele>
        <time>2020-05-16T13:46:43.000Z</time>
      </trkpt>
      <trkpt lat="45.74516" lon="5.27176">
        <ele>314</ele>
        <time>2020-05-16T13:46:44.000Z</time>
      </trkpt>
      <trkpt lat="45.74521" lon="5.27178">
        <ele>314</ele>
        <time>2020-05-16T13:46:45.000Z</time>
      </trkpt>
      <trkpt lat="45.74525" lon="5.2718">
        <ele>314</ele>
        <time>2020-05-16T13:46:46.000Z</time>
      </trkpt>
      <trkpt lat="45.7453" lon="5.27183">
        <ele>315</ele>
        <time>2020-05-16T13:46:47.000Z</time>
      </trkpt>
      <trkpt lat="45.74534" lon="5.27185">
        <ele>315</ele>
        <time>2020-05-16T13:46:48.000Z</time>
      </trkpt>
      <trkpt lat="45.74539" lon="5.27187">
        <ele>315</ele>
        <time>2020-05-16T13:46:49.000Z</time>
      </trkpt>
      <trkpt lat="45.74543" lon="5.27189">
        <ele>316</ele>
        <time>2020-05-16T13:46:50.000Z</time>
      </trkpt>
      <trkpt lat="45.74548" lon="5.27191">
        <ele>316</ele>
        <time>2020-05-16T13:46:51.000Z</time>
      </trkpt>
      <trkpt lat="45.74552" lon="5.27193">
        <ele>316</ele>
        <time>2020-05-16T13:46:52.000Z</time>
      </trkpt>
      <trkpt lat="45.74556" lon="5.27194">
        <ele>316</ele>
        <time>2020-05-16T13:46:53.000Z</time>
      </trkpt>
      <trkpt lat="45.74561" lon="5.27196">
        <ele>317</ele>
        <time>2020-05-16T13:46:54.000Z</time>
      </trkpt>
      <trkpt lat="45.74565" lon="5.27198">
        <ele>317</ele>
        <time>2020-05-16T13:46:55.000Z</time>
      </trkpt>
      <trkpt lat="45.74569" lon="5.272">
        <ele>317</ele>
        <time>2020-05-16T13:46:56.000Z</time>
      </trkpt>
      <trkpt lat="45.74573" lon="5.27202">
        <ele>318</ele>
        <time>2020-05-16T13:46:57.000Z</time>
      </trkpt>
      <trkpt lat="45.74578" lon="5.27204">
        <ele>318</ele>
        <time>2020-05-16T13:46:58.000Z</time>
      </trkpt>
      <trkpt lat="45.74582" lon="5.27206">
        <ele>318</ele>
        <time>2020-05-16T13:46:59.000Z</time>
      </trkpt>
      <trkpt lat="45.74587" lon="5.27207">
        <ele>319</ele>
        <time>2020-05-16T13:47:00.000Z</time>
      </trkpt>
      <trkpt lat="45.74591" lon="5.27209">
        <ele>319</ele>
        <time>2020-05-16T13:47:01.000Z</time>
      </trkpt>
      <trkpt lat="45.74596" lon="5.27211">
        <ele>319</ele>
        <time>2020-05-16T13:47:02.000Z</time>
      </trkpt>
      <trkpt lat="45.746" lon="5.27212">
        <ele>319</ele>
        <time>2020-05-16T13:47:03.000Z</time>
      </trkpt>
      <trkpt lat="45.74605" lon="5.27214">
        <ele>319</ele>
        <time>2020-05-16T13:47:04.000Z</time>
      </trkpt>
      <trkpt lat="45.74609" lon="5.27216">
        <ele>319</ele>
        <time>2020-05-16T13:47:05.000Z</time>
      </trkpt>
      <trkpt lat="45.74613" lon="5.27218">
        <ele>319</ele>
        <time>2020-05-16T13:47:06.000Z</time>
      </trkpt>
      <trkpt lat="45.74618" lon="5.27219">
        <ele>320</ele>
        <time>2020-05-16T13:47:07.000Z</time>
      </trkpt>
      <trkpt lat="45.74622" lon="5.27221">
        <ele>320</ele>
        <time>2020-05-16T13:47:08.000Z</time>
      </trkpt>
      <trkpt lat="45.74626" lon="5.27223">
        <ele>320</ele>
        <time>2020-05-16T13:47:09.000Z</time>
      </trkpt>
      <trkpt lat="45.7463" lon="5.27225">
        <ele>320</ele>
        <time>2020-05-16T13:47:10.000Z</time>
      </trkpt>
      <trkpt lat="45.74634" lon="5.27227">
        <ele>320</ele>
        <time>2020-05-16T13:47:11.000Z</time>
      </trkpt>
      <trkpt lat="45.74637" lon="5.27229">
        <ele>320</ele>
        <time>2020-05-16T13:47:12.000Z</time>
      </trkpt>
      <trkpt lat="45.74641" lon="5.27231">
        <ele>320</ele>
        <time>2020-05-16T13:47:13.000Z</time>
      </trkpt>
      <trkpt lat="45.74645" lon="5.27233">
        <ele>321</ele>
        <time>2020-05-16T13:47:14.000Z</time>
      </trkpt>
      <trkpt lat="45.74649" lon="5.27235">
        <ele>321</ele>
        <time>2020-05-16T13:47:15.000Z</time>
      </trkpt>
      <trkpt lat="45.74652" lon="5.27238">
        <ele>322</ele>
        <time>2020-05-16T13:47:16.000Z</time>
      </trkpt>
      <trkpt lat="45.74656" lon="5.2724">
        <ele>322</ele>
        <time>2020-05-16T13:47:17.000Z</time>
      </trkpt>
      <trkpt lat="45.7466" lon="5.27242">
        <ele>322</ele>
        <time>2020-05-16T13:47:18.000Z</time>
      </trkpt>
      <trkpt lat="45.74664" lon="5.27244">
        <ele>323</ele>
        <time>2020-05-16T13:47:19.000Z</time>
      </trkpt>
      <trkpt lat="45.74667" lon="5.27246">
        <ele>323</ele>
        <time>2020-05-16T13:47:20.000Z</time>
      </trkpt>
      <trkpt lat="45.74671" lon="5.27248">
        <ele>323</ele>
        <time>2020-05-16T13:47:21.000Z</time>
      </trkpt>
      <trkpt lat="45.74674" lon="5.27251">
        <ele>324</ele>
        <time>2020-05-16T13:47:22.000Z</time>
      </trkpt>
      <trkpt lat="45.74678" lon="5.27253">
        <ele>324</ele>
        <time>2020-05-16T13:47:23.000Z</time>
      </trkpt>
      <trkpt lat="45.74681" lon="5.27256">
        <ele>325</ele>
        <time>2020-05-16T13:47:24.000Z</time>
      </trkpt>
      <trkpt lat="45.74685" lon="5.27259">
        <ele>325</ele>
        <time>2020-05-16T13:47:25.000Z</time>
      </trkpt>
      <trkpt lat="45.74689" lon="5.27261">
        <ele>326</ele>
        <time>2020-05-16T13:47:26.000Z</time>
      </trkpt>
      <trkpt lat="45.74692" lon="5.27264">
        <ele>326</ele>
        <time>2020-05-16T13:47:27.000Z</time>
      </trkpt>
      <trkpt lat="45.74696" lon="5.27266">
        <ele>326</ele>
        <time>2020-05-16T13:47:28.000Z</time>
      </trkpt>
      <trkpt lat="45.74699" lon="5.27268">
        <ele>326</ele>
        <time>2020-05-16T13:47:29.000Z</time>
      </trkpt>
      <trkpt lat="45.74703" lon="5.2727">
        <ele>327</ele>
        <time>2020-05-16T13:47:30.000Z</time>
      </trkpt>
      <trkpt lat="45.74708" lon="5.27272">
        <ele>327</ele>
        <time>2020-05-16T13:47:31.000Z</time>
      </trkpt>
      <trkpt lat="45.74712" lon="5.27274">
        <ele>328</ele>
        <time>2020-05-16T13:47:32.000Z</time>
      </trkpt>
      <trkpt lat="45.74716" lon="5.27275">
        <ele>328</ele>
        <time>2020-05-16T13:47:33.000Z</time>
      </trkpt>
      <trkpt lat="45.7472" lon="5.27276">
        <ele>329</ele>
        <time>2020-05-16T13:47:34.000Z</time>
      </trkpt>
      <trkpt lat="45.74725" lon="5.27277">
        <ele>329</ele>
        <time>2020-05-16T13:47:35.000Z</time>
      </trkpt>
      <trkpt lat="45.74729" lon="5.27278">
        <ele>330</ele>
        <time>2020-05-16T13:47:36.000Z</time>
      </trkpt>
      <trkpt lat="45.74734" lon="5.27278">
        <ele>330</ele>
        <time>2020-05-16T13:47:37.000Z</time>
      </trkpt>
      <trkpt lat="45.74738" lon="5.27279">
        <ele>330</ele>
        <time>2020-05-16T13:47:38.000Z</time>
      </trkpt>
      <trkpt lat="45.74743" lon="5.27279">
        <ele>330</ele>
        <time>2020-05-16T13:47:39.000Z</time>
      </trkpt>
      <trkpt lat="45.74748" lon="5.27279">
        <ele>330</ele>
        <time>2020-05-16T13:47:40.000Z</time>
      </trkpt>
      <trkpt lat="45.74752" lon="5.27279">
        <ele>331</ele>
        <time>2020-05-16T13:47:41.000Z</time>
      </trkpt>
      <trkpt lat="45.74756" lon="5.27279">
        <ele>331</ele>
        <time>2020-05-16T13:47:42.000Z</time>
      </trkpt>
      <trkpt lat="45.7476" lon="5.27279">
        <ele>331</ele>
        <time>2020-05-16T13:47:43.000Z</time>
      </trkpt>
      <trkpt lat="45.74764" lon="5.2728">
        <ele>331</ele>
        <time>2020-05-16T13:47:44.000Z</time>
      </trkpt>
      <trkpt lat="45.74768" lon="5.2728">
        <ele>331</ele>
        <time>2020-05-16T13:47:45.000Z</time>
      </trkpt>
      <trkpt lat="45.74772" lon="5.2728">
        <ele>331</ele>
        <time>2020-05-16T13:47:46.000Z</time>
      </trkpt>
      <trkpt lat="45.74776" lon="5.27281">
        <ele>332</ele>
        <time>2020-05-16T13:47:47.000Z</time>
      </trkpt>
      <trkpt lat="45.7478" lon="5.27281">
        <ele>332</ele>
        <time>2020-05-16T13:47:48.000Z</time>
      </trkpt>
      <trkpt lat="45.74784" lon="5.27281">
        <ele>332</ele>
        <time>2020-05-16T13:47:49.000Z</time>
      </trkpt>
      <trkpt lat="45.74787" lon="5.27281">
        <ele>332</ele>
        <time>2020-05-16T13:47:50.000Z</time>
      </trkpt>
      <trkpt lat="45.74791" lon="5.27282">
        <ele>332</ele>
        <time>2020-05-16T13:47:51.000Z</time>
      </trkpt>
      <trkpt lat="45.74795" lon="5.27282">
        <ele>332</ele>
        <time>2020-05-16T13:47:52.000Z</time>
      </trkpt>
      <trkpt lat="45.74798" lon="5.27282">
        <ele>333</ele>
        <time>2020-05-16T13:47:53.000Z</time>
      </trkpt>
      <trkpt lat="45.74802" lon="5.27283">
        <ele>333</ele>
        <time>2020-05-16T13:47:54.000Z</time>
      </trkpt>
      <trkpt lat="45.74805" lon="5.27283">
        <ele>333</ele>
        <time>2020-05-16T13:47:55.000Z</time>
      </trkpt>
      <trkpt lat="45.74809" lon="5.27282">
        <ele>334</ele>
        <time>2020-05-16T13:47:56.000Z</time>
      </trkpt>
      <trkpt lat="45.74813" lon="5.27282">
        <ele>334</ele>
        <time>2020-05-16T13:47:57.000Z</time>
      </trkpt>
      <trkpt lat="45.74817" lon="5.27282">
        <ele>334</ele>
        <time>2020-05-16T13:47:58.000Z</time>
      </trkpt>
      <trkpt lat="45.74821" lon="5.27282">
        <ele>334</ele>
        <time>2020-05-16T13:47:59.000Z</time>
      </trkpt>
      <trkpt lat="45.74825" lon="5.27282">
        <ele>335</ele>
        <time>2020-05-16T13:48:00.000Z</time>
      </trkpt>
      <trkpt lat="45.74829" lon="5.27282">
        <ele>335</ele>
        <time>2020-05-16T13:48:01.000Z</time>
      </trkpt>
      <trkpt lat="45.74833" lon="5.27282">
        <ele>334</ele>
        <time>2020-05-16T13:48:02.000Z</time>
      </trkpt>
      <trkpt lat="45.74836" lon="5.27282">
        <ele>335</ele>
        <time>2020-05-16T13:48:03.000Z</time>
      </trkpt>
      <trkpt lat="45.7484" lon="5.27283">
        <ele>335</ele>
        <time>2020-05-16T13:48:04.000Z</time>
      </trkpt>
      <trkpt lat="45.74844" lon="5.27283">
        <ele>335</ele>
        <time>2020-05-16T13:48:05.000Z</time>
      </trkpt>
      <trkpt lat="45.74848" lon="5.27284">
        <ele>335</ele>
        <time>2020-05-16T13:48:06.000Z</time>
      </trkpt>
      <trkpt lat="45.74853" lon="5.27284">
        <ele>335</ele>
        <time>2020-05-16T13:48:07.000Z</time>
      </trkpt>
      <trkpt lat="45.74857" lon="5.27284">
        <ele>336</ele>
        <time>2020-05-16T13:48:08.000Z</time>
      </trkpt>
      <trkpt lat="45.74861" lon="5.27285">
        <ele>335</ele>
        <time>2020-05-16T13:48:09.000Z</time>
      </trkpt>
      <trkpt lat="45.74865" lon="5.27287">
        <ele>335</ele>
        <time>2020-05-16T13:48:10.000Z</time>
      </trkpt>
      <trkpt lat="45.7487" lon="5.27288">
        <ele>334</ele>
        <time>2020-05-16T13:48:11.000Z</time>
      </trkpt>
      <trkpt lat="45.74873" lon="5.27289">
        <ele>335</ele>
        <time>2020-05-16T13:48:12.000Z</time>
      </trkpt>
      <trkpt lat="45.74878" lon="5.27291">
        <ele>335</ele>
        <time>2020-05-16T13:48:13.000Z</time>
      </trkpt>
      <trkpt lat="45.74882" lon="5.27292">
        <ele>336</ele>
        <time>2020-05-16T13:48:14.000Z</time>
      </trkpt>
      <trkpt lat="45.74887" lon="5.27294">
        <ele>337</ele>
        <time>2020-05-16T13:48:15.000Z</time>
      </trkpt>
      <trkpt lat="45.74891" lon="5.27296">
        <ele>336</ele>
        <time>2020-05-16T13:48:16.000Z</time>
      </trkpt>
      <trkpt lat="45.74895" lon="5.27298">
        <ele>338</ele>
        <time>2020-05-16T13:48:17.000Z</time>
      </trkpt>
      <trkpt lat="45.74899" lon="5.273">
        <ele>338</ele>
        <time>2020-05-16T13:48:18.000Z</time>
      </trkpt>
      <trkpt lat="45.74903" lon="5.27301">
        <ele>339</ele>
        <time>2020-05-16T13:48:19.000Z</time>
      </trkpt>
      <trkpt lat="45.74907" lon="5.27303">
        <ele>339</ele>
        <time>2020-05-16T13:48:20.000Z</time>
      </trkpt>
      <trkpt lat="45.74911" lon="5.27305">
        <ele>340</ele>
        <time>2020-05-16T13:48:21.000Z</time>
      </trkpt>
      <trkpt lat="45.74916" lon="5.27307">
        <ele>341</ele>
        <time>2020-05-16T13:48:22.000Z</time>
      </trkpt>
      <trkpt lat="45.7492" lon="5.27309">
        <ele>340</ele>
        <time>2020-05-16T13:48:23.000Z</time>
      </trkpt>
      <trkpt lat="45.74924" lon="5.27311">
        <ele>341</ele>
        <time>2020-05-16T13:48:24.000Z</time>
      </trkpt>
      <trkpt lat="45.74928" lon="5.27313">
        <ele>341</ele>
        <time>2020-05-16T13:48:25.000Z</time>
      </trkpt>
      <trkpt lat="45.74932" lon="5.27314">
        <ele>342</ele>
        <time>2020-05-16T13:48:26.000Z</time>
      </trkpt>
      <trkpt lat="45.74936" lon="5.27316">
        <ele>342</ele>
        <time>2020-05-16T13:48:27.000Z</time>
      </trkpt>
      <trkpt lat="45.74939" lon="5.27318">
        <ele>343</ele>
        <time>2020-05-16T13:48:28.000Z</time>
      </trkpt>
      <trkpt lat="45.74943" lon="5.2732">
        <ele>343</ele>
        <time>2020-05-16T13:48:29.000Z</time>
      </trkpt>
      <trkpt lat="45.74947" lon="5.27322">
        <ele>344</ele>
        <time>2020-05-16T13:48:30.000Z</time>
      </trkpt>
      <trkpt lat="45.74951" lon="5.27324">
        <ele>345</ele>
        <time>2020-05-16T13:48:31.000Z</time>
      </trkpt>
      <trkpt lat="45.74955" lon="5.27326">
        <ele>344</ele>
        <time>2020-05-16T13:48:32.000Z</time>
      </trkpt>
      <trkpt lat="45.74959" lon="5.27328">
        <ele>345</ele>
        <time>2020-05-16T13:48:33.000Z</time>
      </trkpt>
      <trkpt lat="45.74963" lon="5.27331">
        <ele>345</ele>
        <time>2020-05-16T13:48:34.000Z</time>
      </trkpt>
      <trkpt lat="45.74967" lon="5.27334">
        <ele>346</ele>
        <time>2020-05-16T13:48:35.000Z</time>
      </trkpt>
      <trkpt lat="45.7497" lon="5.27336">
        <ele>346</ele>
        <time>2020-05-16T13:48:36.000Z</time>
      </trkpt>
      <trkpt lat="45.74974" lon="5.27338">
        <ele>346</ele>
        <time>2020-05-16T13:48:37.000Z</time>
      </trkpt>
      <trkpt lat="45.74978" lon="5.2734">
        <ele>346</ele>
        <time>2020-05-16T13:48:38.000Z</time>
      </trkpt>
      <trkpt lat="45.74983" lon="5.27342">
        <ele>346</ele>
        <time>2020-05-16T13:48:39.000Z</time>
      </trkpt>
      <trkpt lat="45.74987" lon="5.27343">
        <ele>346</ele>
        <time>2020-05-16T13:48:40.000Z</time>
      </trkpt>
      <trkpt lat="45.74992" lon="5.27345">
        <ele>346</ele>
        <time>2020-05-16T13:48:41.000Z</time>
      </trkpt>
      <trkpt lat="45.74996" lon="5.27347">
        <ele>346</ele>
        <time>2020-05-16T13:48:42.000Z</time>
      </trkpt>
      <trkpt lat="45.75001" lon="5.27349">
        <ele>346</ele>
        <time>2020-05-16T13:48:43.000Z</time>
      </trkpt>
      <trkpt lat="45.75005" lon="5.2735">
        <ele>346</ele>
        <time>2020-05-16T13:48:44.000Z</time>
      </trkpt>
      <trkpt lat="45.75009" lon="5.27352">
        <ele>348</ele>
        <time>2020-05-16T13:48:45.000Z</time>
      </trkpt>
      <trkpt lat="45.75014" lon="5.27354">
        <ele>348</ele>
        <time>2020-05-16T13:48:46.000Z</time>
      </trkpt>
      <trkpt lat="45.75018" lon="5.27357">
        <ele>348</ele>
        <time>2020-05-16T13:48:47.000Z</time>
      </trkpt>
      <trkpt lat="45.75023" lon="5.27359">
        <ele>349</ele>
        <time>2020-05-16T13:48:48.000Z</time>
      </trkpt>
      <trkpt lat="45.75027" lon="5.27361">
        <ele>349</ele>
        <time>2020-05-16T13:48:49.000Z</time>
      </trkpt>
      <trkpt lat="45.75031" lon="5.27363">
        <ele>350</ele>
        <time>2020-05-16T13:48:50.000Z</time>
      </trkpt>
      <trkpt lat="45.75035" lon="5.27365">
        <ele>350</ele>
        <time>2020-05-16T13:48:51.000Z</time>
      </trkpt>
      <trkpt lat="45.75039" lon="5.27367">
        <ele>351</ele>
        <time>2020-05-16T13:48:52.000Z</time>
      </trkpt>
      <trkpt lat="45.75044" lon="5.27369">
        <ele>352</ele>
        <time>2020-05-16T13:48:53.000Z</time>
      </trkpt>
      <trkpt lat="45.75048" lon="5.27371">
        <ele>352</ele>
        <time>2020-05-16T13:48:54.000Z</time>
      </trkpt>
      <trkpt lat="45.75052" lon="5.27374">
        <ele>352</ele>
        <time>2020-05-16T13:48:55.000Z</time>
      </trkpt>
      <trkpt lat="45.75056" lon="5.27376">
        <ele>352</ele>
        <time>2020-05-16T13:48:56.000Z</time>
      </trkpt>
      <trkpt lat="45.75061" lon="5.27378">
        <ele>353</ele>
        <time>2020-05-16T13:48:57.000Z</time>
      </trkpt>
      <trkpt lat="45.75065" lon="5.2738">
        <ele>353</ele>
        <time>2020-05-16T13:48:58.000Z</time>
      </trkpt>
      <trkpt lat="45.7507" lon="5.27383">
        <ele>353</ele>
        <time>2020-05-16T13:48:59.000Z</time>
      </trkpt>
      <trkpt lat="45.75074" lon="5.27386">
        <ele>354</ele>
        <time>2020-05-16T13:49:00.000Z</time>
      </trkpt>
      <trkpt lat="45.75079" lon="5.2739">
        <ele>354</ele>
        <time>2020-05-16T13:49:01.000Z</time>
      </trkpt>
      <trkpt lat="45.75083" lon="5.27394">
        <ele>354</ele>
        <time>2020-05-16T13:49:02.000Z</time>
      </trkpt>
      <trkpt lat="45.75086" lon="5.27399">
        <ele>355</ele>
        <time>2020-05-16T13:49:03.000Z</time>
      </trkpt>
      <trkpt lat="45.7509" lon="5.27405">
        <ele>356</ele>
        <time>2020-05-16T13:49:04.000Z</time>
      </trkpt>
      <trkpt lat="45.75093" lon="5.27411">
        <ele>356</ele>
        <time>2020-05-16T13:49:05.000Z</time>
      </trkpt>
      <trkpt lat="45.75096" lon="5.27417">
        <ele>356</ele>
        <time>2020-05-16T13:49:06.000Z</time>
      </trkpt>
      <trkpt lat="45.75099" lon="5.27423">
        <ele>356</ele>
        <time>2020-05-16T13:49:07.000Z</time>
      </trkpt>
      <trkpt lat="45.75101" lon="5.2743">
        <ele>357</ele>
        <time>2020-05-16T13:49:08.000Z</time>
      </trkpt>
      <trkpt lat="45.75104" lon="5.27436">
        <ele>357</ele>
        <time>2020-05-16T13:49:09.000Z</time>
      </trkpt>
      <trkpt lat="45.75107" lon="5.27443">
        <ele>357</ele>
        <time>2020-05-16T13:49:10.000Z</time>
      </trkpt>
      <trkpt lat="45.75109" lon="5.2745">
        <ele>358</ele>
        <time>2020-05-16T13:49:11.000Z</time>
      </trkpt>
      <trkpt lat="45.75112" lon="5.27457">
        <ele>358</ele>
        <time>2020-05-16T13:49:12.000Z</time>
      </trkpt>
      <trkpt lat="45.75114" lon="5.27464">
        <ele>359</ele>
        <time>2020-05-16T13:49:13.000Z</time>
      </trkpt>
      <trkpt lat="45.75117" lon="5.27471">
        <ele>359</ele>
        <time>2020-05-16T13:49:14.000Z</time>
      </trkpt>
      <trkpt lat="45.7512" lon="5.27478">
        <ele>359</ele>
        <time>2020-05-16T13:49:15.000Z</time>
      </trkpt>
      <trkpt lat="45.75123" lon="5.27485">
        <ele>360</ele>
        <time>2020-05-16T13:49:16.000Z</time>
      </trkpt>
      <trkpt lat="45.75126" lon="5.27493">
        <ele>360</ele>
        <time>2020-05-16T13:49:17.000Z</time>
      </trkpt>
      <trkpt lat="45.75129" lon="5.275">
        <ele>360</ele>
        <time>2020-05-16T13:49:18.000Z</time>
      </trkpt>
      <trkpt lat="45.75131" lon="5.27507">
        <ele>360</ele>
        <time>2020-05-16T13:49:19.000Z</time>
      </trkpt>
      <trkpt lat="45.75134" lon="5.27515">
        <ele>360</ele>
        <time>2020-05-16T13:49:20.000Z</time>
      </trkpt>
      <trkpt lat="45.75137" lon="5.27523">
        <ele>360</ele>
        <time>2020-05-16T13:49:21.000Z</time>
      </trkpt>
      <trkpt lat="45.7514" lon="5.27531">
        <ele>360</ele>
        <time>2020-05-16T13:49:22.000Z</time>
      </trkpt>
      <trkpt lat="45.75142" lon="5.27539">
        <ele>361</ele>
        <time>2020-05-16T13:49:23.000Z</time>
      </trkpt>
      <trkpt lat="45.75145" lon="5.27547">
        <ele>361</ele>
        <time>2020-05-16T13:49:24.000Z</time>
      </trkpt>
      <trkpt lat="45.75148" lon="5.27555">
        <ele>360</ele>
        <time>2020-05-16T13:49:25.000Z</time>
      </trkpt>
      <trkpt lat="45.75151" lon="5.27564">
        <ele>361</ele>
        <time>2020-05-16T13:49:26.000Z</time>
      </trkpt>
      <trkpt lat="45.75154" lon="5.27573">
        <ele>361</ele>
        <time>2020-05-16T13:49:27.000Z</time>
      </trkpt>
      <trkpt lat="45.75157" lon="5.27582">
        <ele>361</ele>
        <time>2020-05-16T13:49:28.000Z</time>
      </trkpt>
      <trkpt lat="45.7516" lon="5.27591">
        <ele>361</ele>
        <time>2020-05-16T13:49:29.000Z</time>
      </trkpt>
      <trkpt lat="45.75164" lon="5.27601">
        <ele>361</ele>
        <time>2020-05-16T13:49:30.000Z</time>
      </trkpt>
      <trkpt lat="45.75167" lon="5.27611">
        <ele>361</ele>
        <time>2020-05-16T13:49:31.000Z</time>
      </trkpt>
      <trkpt lat="45.7517" lon="5.27621">
        <ele>362</ele>
        <time>2020-05-16T13:49:32.000Z</time>
      </trkpt>
      <trkpt lat="45.75174" lon="5.27631">
        <ele>362</ele>
        <time>2020-05-16T13:49:33.000Z</time>
      </trkpt>
      <trkpt lat="45.75177" lon="5.27641">
        <ele>362</ele>
        <time>2020-05-16T13:49:34.000Z</time>
      </trkpt>
      <trkpt lat="45.75181" lon="5.27651">
        <ele>362</ele>
        <time>2020-05-16T13:49:35.000Z</time>
      </trkpt>
      <trkpt lat="45.75184" lon="5.27661">
        <ele>362</ele>
        <time>2020-05-16T13:49:36.000Z</time>
      </trkpt>
      <trkpt lat="45.75187" lon="5.27671">
        <ele>362</ele>
        <time>2020-05-16T13:49:37.000Z</time>
      </trkpt>
      <trkpt lat="45.75191" lon="5.27681">
        <ele>362</ele>
        <time>2020-05-16T13:49:38.000Z</time>
      </trkpt>
      <trkpt lat="45.75195" lon="5.27691">
        <ele>362</ele>
        <time>2020-05-16T13:49:39.000Z</time>
      </trkpt>
      <trkpt lat="45.75198" lon="5.27701">
        <ele>363</ele>
        <time>2020-05-16T13:49:40.000Z</time>
      </trkpt>
      <trkpt lat="45.75202" lon="5.27711">
        <ele>363</ele>
        <time>2020-05-16T13:49:41.000Z</time>
      </trkpt>
      <trkpt lat="45.75206" lon="5.27721">
        <ele>363</ele>
        <time>2020-05-16T13:49:42.000Z</time>
      </trkpt>
      <trkpt lat="45.7521" lon="5.27731">
        <ele>363</ele>
        <time>2020-05-16T13:49:43.000Z</time>
      </trkpt>
      <trkpt lat="45.75214" lon="5.2774">
        <ele>363</ele>
        <time>2020-05-16T13:49:44.000Z</time>
      </trkpt>
      <trkpt lat="45.75219" lon="5.27748">
        <ele>363</ele>
        <time>2020-05-16T13:49:45.000Z</time>
      </trkpt>
      <trkpt lat="45.75223" lon="5.27756">
        <ele>363</ele>
        <time>2020-05-16T13:49:46.000Z</time>
      </trkpt>
      <trkpt lat="45.75228" lon="5.27764">
        <ele>363</ele>
        <time>2020-05-16T13:49:47.000Z</time>
      </trkpt>
      <trkpt lat="45.75232" lon="5.27772">
        <ele>363</ele>
        <time>2020-05-16T13:49:48.000Z</time>
      </trkpt>
      <trkpt lat="45.75237" lon="5.2778">
        <ele>363</ele>
        <time>2020-05-16T13:49:49.000Z</time>
      </trkpt>
      <trkpt lat="45.75241" lon="5.27788">
        <ele>363</ele>
        <time>2020-05-16T13:49:50.000Z</time>
      </trkpt>
      <trkpt lat="45.75246" lon="5.27796">
        <ele>363</ele>
        <time>2020-05-16T13:49:51.000Z</time>
      </trkpt>
      <trkpt lat="45.75251" lon="5.27805">
        <ele>364</ele>
        <time>2020-05-16T13:49:52.000Z</time>
      </trkpt>
      <trkpt lat="45.75255" lon="5.27813">
        <ele>364</ele>
        <time>2020-05-16T13:49:53.000Z</time>
      </trkpt>
      <trkpt lat="45.7526" lon="5.27822">
        <ele>364</ele>
        <time>2020-05-16T13:49:54.000Z</time>
      </trkpt>
      <trkpt lat="45.75265" lon="5.2783">
        <ele>365</ele>
        <time>2020-05-16T13:49:55.000Z</time>
      </trkpt>
      <trkpt lat="45.75269" lon="5.27838">
        <ele>365</ele>
        <time>2020-05-16T13:49:56.000Z</time>
      </trkpt>
      <trkpt lat="45.75274" lon="5.27846">
        <ele>365</ele>
        <time>2020-05-16T13:49:57.000Z</time>
      </trkpt>
      <trkpt lat="45.75279" lon="5.27854">
        <ele>365</ele>
        <time>2020-05-16T13:49:58.000Z</time>
      </trkpt>
      <trkpt lat="45.75284" lon="5.27861">
        <ele>365</ele>
        <time>2020-05-16T13:49:59.000Z</time>
      </trkpt>
      <trkpt lat="45.75289" lon="5.27869">
        <ele>366</ele>
        <time>2020-05-16T13:50:00.000Z</time>
      </trkpt>
      <trkpt lat="45.75294" lon="5.27876">
        <ele>366</ele>
        <time>2020-05-16T13:50:01.000Z</time>
      </trkpt>
      <trkpt lat="45.75299" lon="5.27883">
        <ele>366</ele>
        <time>2020-05-16T13:50:02.000Z</time>
      </trkpt>
      <trkpt lat="45.75305" lon="5.2789">
        <ele>366</ele>
        <time>2020-05-16T13:50:03.000Z</time>
      </trkpt>
      <trkpt lat="45.7531" lon="5.27898">
        <ele>366</ele>
        <time>2020-05-16T13:50:04.000Z</time>
      </trkpt>
      <trkpt lat="45.75315" lon="5.27905">
        <ele>366</ele>
        <time>2020-05-16T13:50:05.000Z</time>
      </trkpt>
      <trkpt lat="45.7532" lon="5.27913">
        <ele>366</ele>
        <time>2020-05-16T13:50:06.000Z</time>
      </trkpt>
      <trkpt lat="45.75325" lon="5.2792">
        <ele>367</ele>
        <time>2020-05-16T13:50:07.000Z</time>
      </trkpt>
      <trkpt lat="45.7533" lon="5.27928">
        <ele>367</ele>
        <time>2020-05-16T13:50:08.000Z</time>
      </trkpt>
      <trkpt lat="45.75334" lon="5.27937">
        <ele>367</ele>
        <time>2020-05-16T13:50:09.000Z</time>
      </trkpt>
      <trkpt lat="45.75338" lon="5.27945">
        <ele>368</ele>
        <time>2020-05-16T13:50:10.000Z</time>
      </trkpt>
      <trkpt lat="45.75341" lon="5.27954">
        <ele>368</ele>
        <time>2020-05-16T13:50:11.000Z</time>
      </trkpt>
      <trkpt lat="45.75344" lon="5.27962">
        <ele>369</ele>
        <time>2020-05-16T13:50:12.000Z</time>
      </trkpt>
      <trkpt lat="45.75347" lon="5.27971">
        <ele>369</ele>
        <time>2020-05-16T13:50:13.000Z</time>
      </trkpt>
      <trkpt lat="45.7535" lon="5.27979">
        <ele>369</ele>
        <time>2020-05-16T13:50:14.000Z</time>
      </trkpt>
      <trkpt lat="45.75352" lon="5.27987">
        <ele>370</ele>
        <time>2020-05-16T13:50:15.000Z</time>
      </trkpt>
      <trkpt lat="45.75355" lon="5.27994">
        <ele>370</ele>
        <time>2020-05-16T13:50:16.000Z</time>
      </trkpt>
      <trkpt lat="45.75358" lon="5.28002">
        <ele>370</ele>
        <time>2020-05-16T13:50:17.000Z</time>
      </trkpt>
      <trkpt lat="45.7536" lon="5.2801">
        <ele>371</ele>
        <time>2020-05-16T13:50:18.000Z</time>
      </trkpt>
      <trkpt lat="45.75363" lon="5.28017">
        <ele>371</ele>
        <time>2020-05-16T13:50:19.000Z</time>
      </trkpt>
      <trkpt lat="45.75365" lon="5.28025">
        <ele>371</ele>
        <time>2020-05-16T13:50:20.000Z</time>
      </trkpt>
      <trkpt lat="45.75367" lon="5.28033">
        <ele>372</ele>
        <time>2020-05-16T13:50:21.000Z</time>
      </trkpt>
      <trkpt lat="45.75369" lon="5.28042">
        <ele>372</ele>
        <time>2020-05-16T13:50:22.000Z</time>
      </trkpt>
      <trkpt lat="45.75371" lon="5.2805">
        <ele>372</ele>
        <time>2020-05-16T13:50:23.000Z</time>
      </trkpt>
      <trkpt lat="45.75372" lon="5.28059">
        <ele>373</ele>
        <time>2020-05-16T13:50:24.000Z</time>
      </trkpt>
      <trkpt lat="45.75374" lon="5.28067">
        <ele>373</ele>
        <time>2020-05-16T13:50:25.000Z</time>
      </trkpt>
      <trkpt lat="45.75375" lon="5.28076">
        <ele>374</ele>
        <time>2020-05-16T13:50:26.000Z</time>
      </trkpt>
      <trkpt lat="45.75375" lon="5.28084">
        <ele>374</ele>
        <time>2020-05-16T13:50:27.000Z</time>
      </trkpt>
      <trkpt lat="45.75375" lon="5.28093">
        <ele>375</ele>
        <time>2020-05-16T13:50:28.000Z</time>
      </trkpt>
      <trkpt lat="45.75375" lon="5.28102">
        <ele>375</ele>
        <time>2020-05-16T13:50:29.000Z</time>
      </trkpt>
      <trkpt lat="45.75375" lon="5.28111">
        <ele>375</ele>
        <time>2020-05-16T13:50:30.000Z</time>
      </trkpt>
      <trkpt lat="45.75375" lon="5.2812">
        <ele>375</ele>
        <time>2020-05-16T13:50:31.000Z</time>
      </trkpt>
      <trkpt lat="45.75375" lon="5.28129">
        <ele>376</ele>
        <time>2020-05-16T13:50:32.000Z</time>
      </trkpt>
      <trkpt lat="45.75375" lon="5.28137">
        <ele>376</ele>
        <time>2020-05-16T13:50:33.000Z</time>
      </trkpt>
      <trkpt lat="45.75374" lon="5.28146">
        <ele>376</ele>
        <time>2020-05-16T13:50:34.000Z</time>
      </trkpt>
      <trkpt lat="45.75374" lon="5.28156">
        <ele>376</ele>
        <time>2020-05-16T13:50:35.000Z</time>
      </trkpt>
      <trkpt lat="45.75374" lon="5.28165">
        <ele>376</ele>
        <time>2020-05-16T13:50:36.000Z</time>
      </trkpt>
      <trkpt lat="45.75374" lon="5.28174">
        <ele>376</ele>
        <time>2020-05-16T13:50:37.000Z</time>
      </trkpt>
      <trkpt lat="45.75374" lon="5.28184">
        <ele>376</ele>
        <time>2020-05-16T13:50:38.000Z</time>
      </trkpt>
      <trkpt lat="45.75374" lon="5.28193">
        <ele>376</ele>
        <time>2020-05-16T13:50:39.000Z</time>
      </trkpt>
      <trkpt lat="45.75373" lon="5.28203">
        <ele>376</ele>
        <time>2020-05-16T13:50:40.000Z</time>
      </trkpt>
      <trkpt lat="45.75373" lon="5.28213">
        <ele>377</ele>
        <time>2020-05-16T13:50:41.000Z</time>
      </trkpt>
      <trkpt lat="45.75372" lon="5.28223">
        <ele>377</ele>
        <time>2020-05-16T13:50:42.000Z</time>
      </trkpt>
      <trkpt lat="45.75372" lon="5.28233">
        <ele>377</ele>
        <time>2020-05-16T13:50:43.000Z</time>
      </trkpt>
      <trkpt lat="45.75371" lon="5.28243">
        <ele>376</ele>
        <time>2020-05-16T13:50:44.000Z</time>
      </trkpt>
      <trkpt lat="45.7537" lon="5.28253">
        <ele>376</ele>
        <time>2020-05-16T13:50:45.000Z</time>
      </trkpt>
      <trkpt lat="45.7537" lon="5.28264">
        <ele>376</ele>
        <time>2020-05-16T13:50:46.000Z</time>
      </trkpt>
      <trkpt lat="45.75369" lon="5.28275">
        <ele>376</ele>
        <time>2020-05-16T13:50:47.000Z</time>
      </trkpt>
      <trkpt lat="45.75369" lon="5.28286">
        <ele>376</ele>
        <time>2020-05-16T13:50:48.000Z</time>
      </trkpt>
      <trkpt lat="45.75368" lon="5.28297">
        <ele>375</ele>
        <time>2020-05-16T13:50:49.000Z</time>
      </trkpt>
      <trkpt lat="45.75367" lon="5.28308">
        <ele>375</ele>
        <time>2020-05-16T13:50:50.000Z</time>
      </trkpt>
      <trkpt lat="45.75367" lon="5.2832">
        <ele>375</ele>
        <time>2020-05-16T13:50:51.000Z</time>
      </trkpt>
      <trkpt lat="45.75366" lon="5.28331">
        <ele>375</ele>
        <time>2020-05-16T13:50:52.000Z</time>
      </trkpt>
      <trkpt lat="45.75365" lon="5.28343">
        <ele>375</ele>
        <time>2020-05-16T13:50:53.000Z</time>
      </trkpt>
      <trkpt lat="45.75364" lon="5.28355">
        <ele>375</ele>
        <time>2020-05-16T13:50:54.000Z</time>
      </trkpt>
      <trkpt lat="45.75363" lon="5.28367">
        <ele>375</ele>
        <time>2020-05-16T13:50:55.000Z</time>
      </trkpt>
      <trkpt lat="45.75361" lon="5.28379">
        <ele>374</ele>
        <time>2020-05-16T13:50:56.000Z</time>
      </trkpt>
      <trkpt lat="45.7536" lon="5.28391">
        <ele>374</ele>
        <time>2020-05-16T13:50:57.000Z</time>
      </trkpt>
      <trkpt lat="45.7536" lon="5.28403">
        <ele>374</ele>
        <time>2020-05-16T13:50:58.000Z</time>
      </trkpt>
      <trkpt lat="45.75359" lon="5.28416">
        <ele>374</ele>
        <time>2020-05-16T13:50:59.000Z</time>
      </trkpt>
      <trkpt lat="45.7536" lon="5.28429">
        <ele>374</ele>
        <time>2020-05-16T13:51:00.000Z</time>
      </trkpt>
      <trkpt lat="45.75362" lon="5.28441">
        <ele>374</ele>
        <time>2020-05-16T13:51:01.000Z</time>
      </trkpt>
      <trkpt lat="45.75364" lon="5.28454">
        <ele>374</ele>
        <time>2020-05-16T13:51:02.000Z</time>
      </trkpt>
      <trkpt lat="45.75367" lon="5.28466">
        <ele>374</ele>
        <time>2020-05-16T13:51:03.000Z</time>
      </trkpt>
      <trkpt lat="45.75369" lon="5.28478">
        <ele>374</ele>
        <time>2020-05-16T13:51:04.000Z</time>
      </trkpt>
      <trkpt lat="45.7537" lon="5.28491">
        <ele>374</ele>
        <time>2020-05-16T13:51:05.000Z</time>
      </trkpt>
      <trkpt lat="45.75372" lon="5.28503">
        <ele>374</ele>
        <time>2020-05-16T13:51:06.000Z</time>
      </trkpt>
      <trkpt lat="45.75373" lon="5.28516">
        <ele>374</ele>
        <time>2020-05-16T13:51:07.000Z</time>
      </trkpt>
      <trkpt lat="45.75373" lon="5.28528">
        <ele>374</ele>
        <time>2020-05-16T13:51:08.000Z</time>
      </trkpt>
      <trkpt lat="45.75372" lon="5.28541">
        <ele>373</ele>
        <time>2020-05-16T13:51:09.000Z</time>
      </trkpt>
      <trkpt lat="45.75371" lon="5.28553">
        <ele>373</ele>
        <time>2020-05-16T13:51:10.000Z</time>
      </trkpt>
      <trkpt lat="45.7537" lon="5.28565">
        <ele>373</ele>
        <time>2020-05-16T13:51:11.000Z</time>
      </trkpt>
      <trkpt lat="45.75367" lon="5.28577">
        <ele>373</ele>
        <time>2020-05-16T13:51:12.000Z</time>
      </trkpt>
      <trkpt lat="45.75365" lon="5.28589">
        <ele>372</ele>
        <time>2020-05-16T13:51:13.000Z</time>
      </trkpt>
      <trkpt lat="45.75362" lon="5.286">
        <ele>372</ele>
        <time>2020-05-16T13:51:14.000Z</time>
      </trkpt>
      <trkpt lat="45.75358" lon="5.28611">
        <ele>374</ele>
        <time>2020-05-16T13:51:15.000Z</time>
      </trkpt>
      <trkpt lat="45.75354" lon="5.28621">
        <ele>374</ele>
        <time>2020-05-16T13:51:16.000Z</time>
      </trkpt>
      <trkpt lat="45.7535" lon="5.28632">
        <ele>374</ele>
        <time>2020-05-16T13:51:17.000Z</time>
      </trkpt>
      <trkpt lat="45.75346" lon="5.28642">
        <ele>374</ele>
        <time>2020-05-16T13:51:18.000Z</time>
      </trkpt>
      <trkpt lat="45.75342" lon="5.28653">
        <ele>374</ele>
        <time>2020-05-16T13:51:19.000Z</time>
      </trkpt>
      <trkpt lat="45.75338" lon="5.28663">
        <ele>374</ele>
        <time>2020-05-16T13:51:20.000Z</time>
      </trkpt>
      <trkpt lat="45.75334" lon="5.28673">
        <ele>374</ele>
        <time>2020-05-16T13:51:21.000Z</time>
      </trkpt>
      <trkpt lat="45.7533" lon="5.28684">
        <ele>375</ele>
        <time>2020-05-16T13:51:22.000Z</time>
      </trkpt>
      <trkpt lat="45.75326" lon="5.28694">
        <ele>375</ele>
        <time>2020-05-16T13:51:23.000Z</time>
      </trkpt>
      <trkpt lat="45.75321" lon="5.28704">
        <ele>375</ele>
        <time>2020-05-16T13:51:24.000Z</time>
      </trkpt>
      <trkpt lat="45.75317" lon="5.28714">
        <ele>375</ele>
        <time>2020-05-16T13:51:25.000Z</time>
      </trkpt>
      <trkpt lat="45.75313" lon="5.28724">
        <ele>375</ele>
        <time>2020-05-16T13:51:26.000Z</time>
      </trkpt>
      <trkpt lat="45.75308" lon="5.28734">
        <ele>376</ele>
        <time>2020-05-16T13:51:27.000Z</time>
      </trkpt>
      <trkpt lat="45.75304" lon="5.28744">
        <ele>376</ele>
        <time>2020-05-16T13:51:28.000Z</time>
      </trkpt>
      <trkpt lat="45.753" lon="5.28754">
        <ele>376</ele>
        <time>2020-05-16T13:51:29.000Z</time>
      </trkpt>
      <trkpt lat="45.75296" lon="5.28764">
        <ele>376</ele>
        <time>2020-05-16T13:51:30.000Z</time>
      </trkpt>
      <trkpt lat="45.75291" lon="5.28774">
        <ele>376</ele>
        <time>2020-05-16T13:51:31.000Z</time>
      </trkpt>
      <trkpt lat="45.75287" lon="5.28784">
        <ele>376</ele>
        <time>2020-05-16T13:51:32.000Z</time>
      </trkpt>
      <trkpt lat="45.75283" lon="5.28794">
        <ele>377</ele>
        <time>2020-05-16T13:51:33.000Z</time>
      </trkpt>
      <trkpt lat="45.75279" lon="5.28804">
        <ele>377</ele>
        <time>2020-05-16T13:51:34.000Z</time>
      </trkpt>
      <trkpt lat="45.75275" lon="5.28813">
        <ele>377</ele>
        <time>2020-05-16T13:51:35.000Z</time>
      </trkpt>
      <trkpt lat="45.75271" lon="5.28822">
        <ele>377</ele>
        <time>2020-05-16T13:51:36.000Z</time>
      </trkpt>
      <trkpt lat="45.75267" lon="5.28832">
        <ele>378</ele>
        <time>2020-05-16T13:51:37.000Z</time>
      </trkpt>
      <trkpt lat="45.75264" lon="5.28841">
        <ele>378</ele>
        <time>2020-05-16T13:51:38.000Z</time>
      </trkpt>
      <trkpt lat="45.75261" lon="5.2885">
        <ele>378</ele>
        <time>2020-05-16T13:51:39.000Z</time>
      </trkpt>
      <trkpt lat="45.75258" lon="5.28859">
        <ele>378</ele>
        <time>2020-05-16T13:51:40.000Z</time>
      </trkpt>
      <trkpt lat="45.75256" lon="5.28869">
        <ele>378</ele>
        <time>2020-05-16T13:51:41.000Z</time>
      </trkpt>
      <trkpt lat="45.75255" lon="5.28879">
        <ele>378</ele>
        <time>2020-05-16T13:51:42.000Z</time>
      </trkpt>
      <trkpt lat="45.75254" lon="5.28889">
        <ele>379</ele>
        <time>2020-05-16T13:51:43.000Z</time>
      </trkpt>
      <trkpt lat="45.75253" lon="5.28899">
        <ele>379</ele>
        <time>2020-05-16T13:51:44.000Z</time>
      </trkpt>
      <trkpt lat="45.75253" lon="5.28909">
        <ele>380</ele>
        <time>2020-05-16T13:51:45.000Z</time>
      </trkpt>
      <trkpt lat="45.75252" lon="5.28918">
        <ele>381</ele>
        <time>2020-05-16T13:51:46.000Z</time>
      </trkpt>
      <trkpt lat="45.75251" lon="5.28928">
        <ele>381</ele>
        <time>2020-05-16T13:51:47.000Z</time>
      </trkpt>
      <trkpt lat="45.7525" lon="5.28937">
        <ele>382</ele>
        <time>2020-05-16T13:51:48.000Z</time>
      </trkpt>
      <trkpt lat="45.75248" lon="5.28946">
        <ele>383</ele>
        <time>2020-05-16T13:51:49.000Z</time>
      </trkpt>
      <trkpt lat="45.75247" lon="5.28955">
        <ele>383</ele>
        <time>2020-05-16T13:51:50.000Z</time>
      </trkpt>
      <trkpt lat="45.75246" lon="5.28964">
        <ele>384</ele>
        <time>2020-05-16T13:51:51.000Z</time>
      </trkpt>
      <trkpt lat="45.75245" lon="5.28972">
        <ele>385</ele>
        <time>2020-05-16T13:51:52.000Z</time>
      </trkpt>
      <trkpt lat="45.75244" lon="5.2898">
        <ele>385</ele>
        <time>2020-05-16T13:51:53.000Z</time>
      </trkpt>
      <trkpt lat="45.75244" lon="5.28988">
        <ele>386</ele>
        <time>2020-05-16T13:51:54.000Z</time>
      </trkpt>
      <trkpt lat="45.75245" lon="5.28996">
        <ele>387</ele>
        <time>2020-05-16T13:51:55.000Z</time>
      </trkpt>
      <trkpt lat="45.75246" lon="5.29003">
        <ele>387</ele>
        <time>2020-05-16T13:51:56.000Z</time>
      </trkpt>
      <trkpt lat="45.75247" lon="5.2901">
        <ele>388</ele>
        <time>2020-05-16T13:51:57.000Z</time>
      </trkpt>
      <trkpt lat="45.75249" lon="5.29015">
        <ele>388</ele>
        <time>2020-05-16T13:51:58.000Z</time>
      </trkpt>
      <trkpt lat="45.75252" lon="5.29021">
        <ele>389</ele>
        <time>2020-05-16T13:51:59.000Z</time>
      </trkpt>
      <trkpt lat="45.75255" lon="5.29026">
        <ele>389</ele>
        <time>2020-05-16T13:52:00.000Z</time>
      </trkpt>
      <trkpt lat="45.75258" lon="5.2903">
        <ele>389</ele>
        <time>2020-05-16T13:52:01.000Z</time>
      </trkpt>
      <trkpt lat="45.75262" lon="5.29034">
        <ele>390</ele>
        <time>2020-05-16T13:52:02.000Z</time>
      </trkpt>
      <trkpt lat="45.75267" lon="5.29037">
        <ele>390</ele>
        <time>2020-05-16T13:52:03.000Z</time>
      </trkpt>
      <trkpt lat="45.75272" lon="5.2904">
        <ele>391</ele>
        <time>2020-05-16T13:52:04.000Z</time>
      </trkpt>
      <trkpt lat="45.75277" lon="5.29042">
        <ele>391</ele>
        <time>2020-05-16T13:52:05.000Z</time>
      </trkpt>
      <trkpt lat="45.75283" lon="5.29044">
        <ele>390</ele>
        <time>2020-05-16T13:52:06.000Z</time>
      </trkpt>
      <trkpt lat="45.75289" lon="5.29046">
        <ele>391</ele>
        <time>2020-05-16T13:52:07.000Z</time>
      </trkpt>
      <trkpt lat="45.75296" lon="5.29048">
        <ele>391</ele>
        <time>2020-05-16T13:52:08.000Z</time>
      </trkpt>
      <trkpt lat="45.75303" lon="5.2905">
        <ele>391</ele>
        <time>2020-05-16T13:52:09.000Z</time>
      </trkpt>
      <trkpt lat="45.7531" lon="5.29051">
        <ele>391</ele>
        <time>2020-05-16T13:52:10.000Z</time>
      </trkpt>
      <trkpt lat="45.75317" lon="5.29053">
        <ele>391</ele>
        <time>2020-05-16T13:52:11.000Z</time>
      </trkpt>
      <trkpt lat="45.75324" lon="5.29055">
        <ele>391</ele>
        <time>2020-05-16T13:52:12.000Z</time>
      </trkpt>
      <trkpt lat="45.75332" lon="5.29055">
        <ele>391</ele>
        <time>2020-05-16T13:52:13.000Z</time>
      </trkpt>
      <trkpt lat="45.7534" lon="5.29055">
        <ele>391</ele>
        <time>2020-05-16T13:52:14.000Z</time>
      </trkpt>
      <trkpt lat="45.75348" lon="5.29054">
        <ele>391</ele>
        <time>2020-05-16T13:52:15.000Z</time>
      </trkpt>
      <trkpt lat="45.75356" lon="5.29052">
        <ele>391</ele>
        <time>2020-05-16T13:52:16.000Z</time>
      </trkpt>
      <trkpt lat="45.75364" lon="5.29051">
        <ele>390</ele>
        <time>2020-05-16T13:52:17.000Z</time>
      </trkpt>
      <trkpt lat="45.75373" lon="5.2905">
        <ele>389</ele>
        <time>2020-05-16T13:52:18.000Z</time>
      </trkpt>
      <trkpt lat="45.75382" lon="5.29051">
        <ele>389</ele>
        <time>2020-05-16T13:52:19.000Z</time>
      </trkpt>
      <trkpt lat="45.75391" lon="5.29054">
        <ele>388</ele>
        <time>2020-05-16T13:52:20.000Z</time>
      </trkpt>
      <trkpt lat="45.754" lon="5.29056">
        <ele>388</ele>
        <time>2020-05-16T13:52:21.000Z</time>
      </trkpt>
      <trkpt lat="45.75409" lon="5.29059">
        <ele>388</ele>
        <time>2020-05-16T13:52:22.000Z</time>
      </trkpt>
      <trkpt lat="45.75417" lon="5.29061">
        <ele>388</ele>
        <time>2020-05-16T13:52:23.000Z</time>
      </trkpt>
      <trkpt lat="45.75426" lon="5.29064">
        <ele>388</ele>
        <time>2020-05-16T13:52:24.000Z</time>
      </trkpt>
      <trkpt lat="45.75434" lon="5.29066">
        <ele>388</ele>
        <time>2020-05-16T13:52:25.000Z</time>
      </trkpt>
      <trkpt lat="45.75442" lon="5.29069">
        <ele>388</ele>
        <time>2020-05-16T13:52:26.000Z</time>
      </trkpt>
      <trkpt lat="45.7545" lon="5.29072">
        <ele>388</ele>
        <time>2020-05-16T13:52:27.000Z</time>
      </trkpt>
      <trkpt lat="45.75458" lon="5.29075">
        <ele>388</ele>
        <time>2020-05-16T13:52:28.000Z</time>
      </trkpt>
      <trkpt lat="45.75465" lon="5.29079">
        <ele>389</ele>
        <time>2020-05-16T13:52:29.000Z</time>
      </trkpt>
      <trkpt lat="45.75472" lon="5.29083">
        <ele>389</ele>
        <time>2020-05-16T13:52:30.000Z</time>
      </trkpt>
      <trkpt lat="45.7548" lon="5.29087">
        <ele>389</ele>
        <time>2020-05-16T13:52:31.000Z</time>
      </trkpt>
      <trkpt lat="45.75486" lon="5.29091">
        <ele>390</ele>
        <time>2020-05-16T13:52:32.000Z</time>
      </trkpt>
      <trkpt lat="45.75493" lon="5.29096">
        <ele>390</ele>
        <time>2020-05-16T13:52:33.000Z</time>
      </trkpt>
      <trkpt lat="45.755" lon="5.29101">
        <ele>390</ele>
        <time>2020-05-16T13:52:34.000Z</time>
      </trkpt>
      <trkpt lat="45.75507" lon="5.29105">
        <ele>390</ele>
        <time>2020-05-16T13:52:35.000Z</time>
      </trkpt>
      <trkpt lat="45.75514" lon="5.29109">
        <ele>391</ele>
        <time>2020-05-16T13:52:36.000Z</time>
      </trkpt>
      <trkpt lat="45.75521" lon="5.29114">
        <ele>391</ele>
        <time>2020-05-16T13:52:37.000Z</time>
      </trkpt>
      <trkpt lat="45.75528" lon="5.29119">
        <ele>391</ele>
        <time>2020-05-16T13:52:38.000Z</time>
      </trkpt>
      <trkpt lat="45.75535" lon="5.29124">
        <ele>391</ele>
        <time>2020-05-16T13:52:39.000Z</time>
      </trkpt>
      <trkpt lat="45.75541" lon="5.29129">
        <ele>390</ele>
        <time>2020-05-16T13:52:40.000Z</time>
      </trkpt>
      <trkpt lat="45.75547" lon="5.29135">
        <ele>390</ele>
        <time>2020-05-16T13:52:41.000Z</time>
      </trkpt>
      <trkpt lat="45.75553" lon="5.29141">
        <ele>391</ele>
        <time>2020-05-16T13:52:42.000Z</time>
      </trkpt>
      <trkpt lat="45.75558" lon="5.29148">
        <ele>392</ele>
        <time>2020-05-16T13:52:43.000Z</time>
      </trkpt>
      <trkpt lat="45.75562" lon="5.29154">
        <ele>392</ele>
        <time>2020-05-16T13:52:44.000Z</time>
      </trkpt>
      <trkpt lat="45.75566" lon="5.2916">
        <ele>393</ele>
        <time>2020-05-16T13:52:45.000Z</time>
      </trkpt>
      <trkpt lat="45.75569" lon="5.29166">
        <ele>393</ele>
        <time>2020-05-16T13:52:46.000Z</time>
      </trkpt>
      <trkpt lat="45.75572" lon="5.29171">
        <ele>393</ele>
        <time>2020-05-16T13:52:47.000Z</time>
      </trkpt>
      <trkpt lat="45.75575" lon="5.29177">
        <ele>394</ele>
        <time>2020-05-16T13:52:48.000Z</time>
      </trkpt>
      <trkpt lat="45.75578" lon="5.29182">
        <ele>394</ele>
        <time>2020-05-16T13:52:49.000Z</time>
      </trkpt>
      <trkpt lat="45.7558" lon="5.29187">
        <ele>395</ele>
        <time>2020-05-16T13:52:50.000Z</time>
      </trkpt>
      <trkpt lat="45.75582" lon="5.29192">
        <ele>395</ele>
        <time>2020-05-16T13:52:51.000Z</time>
      </trkpt>
      <trkpt lat="45.75584" lon="5.29197">
        <ele>396</ele>
        <time>2020-05-16T13:52:52.000Z</time>
      </trkpt>
      <trkpt lat="45.75586" lon="5.29201">
        <ele>396</ele>
        <time>2020-05-16T13:52:53.000Z</time>
      </trkpt>
      <trkpt lat="45.75588" lon="5.29206">
        <ele>397</ele>
        <time>2020-05-16T13:52:54.000Z</time>
      </trkpt>
      <trkpt lat="45.7559" lon="5.2921">
        <ele>397</ele>
        <time>2020-05-16T13:52:55.000Z</time>
      </trkpt>
      <trkpt lat="45.75593" lon="5.29214">
        <ele>397</ele>
        <time>2020-05-16T13:52:56.000Z</time>
      </trkpt>
      <trkpt lat="45.75595" lon="5.29218">
        <ele>397</ele>
        <time>2020-05-16T13:52:57.000Z</time>
      </trkpt>
      <trkpt lat="45.75598" lon="5.29221">
        <ele>397</ele>
        <time>2020-05-16T13:52:58.000Z</time>
      </trkpt>
      <trkpt lat="45.75601" lon="5.29225">
        <ele>398</ele>
        <time>2020-05-16T13:52:59.000Z</time>
      </trkpt>
      <trkpt lat="45.75604" lon="5.29228">
        <ele>399</ele>
        <time>2020-05-16T13:53:00.000Z</time>
      </trkpt>
      <trkpt lat="45.75607" lon="5.2923">
        <ele>399</ele>
        <time>2020-05-16T13:53:01.000Z</time>
      </trkpt>
      <trkpt lat="45.7561" lon="5.29233">
        <ele>399</ele>
        <time>2020-05-16T13:53:02.000Z</time>
      </trkpt>
      <trkpt lat="45.75614" lon="5.29235">
        <ele>400</ele>
        <time>2020-05-16T13:53:03.000Z</time>
      </trkpt>
      <trkpt lat="45.75617" lon="5.29237">
        <ele>400</ele>
        <time>2020-05-16T13:53:04.000Z</time>
      </trkpt>
      <trkpt lat="45.7562" lon="5.29239">
        <ele>400</ele>
        <time>2020-05-16T13:53:05.000Z</time>
      </trkpt>
      <trkpt lat="45.75623" lon="5.29242">
        <ele>401</ele>
        <time>2020-05-16T13:53:06.000Z</time>
      </trkpt>
      <trkpt lat="45.75626" lon="5.29244">
        <ele>401</ele>
        <time>2020-05-16T13:53:07.000Z</time>
      </trkpt>
      <trkpt lat="45.75629" lon="5.29246">
        <ele>401</ele>
        <time>2020-05-16T13:53:08.000Z</time>
      </trkpt>
      <trkpt lat="45.75632" lon="5.29249">
        <ele>401</ele>
        <time>2020-05-16T13:53:09.000Z</time>
      </trkpt>
      <trkpt lat="45.75635" lon="5.29251">
        <ele>402</ele>
        <time>2020-05-16T13:53:10.000Z</time>
      </trkpt>
      <trkpt lat="45.75638" lon="5.29254">
        <ele>402</ele>
        <time>2020-05-16T13:53:11.000Z</time>
      </trkpt>
      <trkpt lat="45.75641" lon="5.29256">
        <ele>402</ele>
        <time>2020-05-16T13:53:12.000Z</time>
      </trkpt>
      <trkpt lat="45.75644" lon="5.29258">
        <ele>403</ele>
        <time>2020-05-16T13:53:13.000Z</time>
      </trkpt>
      <trkpt lat="45.75646" lon="5.29261">
        <ele>403</ele>
        <time>2020-05-16T13:53:14.000Z</time>
      </trkpt>
      <trkpt lat="45.75649" lon="5.29263">
        <ele>404</ele>
        <time>2020-05-16T13:53:15.000Z</time>
      </trkpt>
      <trkpt lat="45.75652" lon="5.29266">
        <ele>404</ele>
        <time>2020-05-16T13:53:16.000Z</time>
      </trkpt>
      <trkpt lat="45.75655" lon="5.29268">
        <ele>405</ele>
        <time>2020-05-16T13:53:17.000Z</time>
      </trkpt>
      <trkpt lat="45.75658" lon="5.29271">
        <ele>405</ele>
        <time>2020-05-16T13:53:18.000Z</time>
      </trkpt>
      <trkpt lat="45.7566" lon="5.29273">
        <ele>406</ele>
        <time>2020-05-16T13:53:19.000Z</time>
      </trkpt>
      <trkpt lat="45.75663" lon="5.29276">
        <ele>406</ele>
        <time>2020-05-16T13:53:20.000Z</time>
      </trkpt>
      <trkpt lat="45.75665" lon="5.29279">
        <ele>407</ele>
        <time>2020-05-16T13:53:21.000Z</time>
      </trkpt>
      <trkpt lat="45.75668" lon="5.29281">
        <ele>407</ele>
        <time>2020-05-16T13:53:22.000Z</time>
      </trkpt>
      <trkpt lat="45.7567" lon="5.29284">
        <ele>408</ele>
        <time>2020-05-16T13:53:23.000Z</time>
      </trkpt>
      <trkpt lat="45.75673" lon="5.29286">
        <ele>408</ele>
        <time>2020-05-16T13:53:24.000Z</time>
      </trkpt>
      <trkpt lat="45.75675" lon="5.29288">
        <ele>408</ele>
        <time>2020-05-16T13:53:25.000Z</time>
      </trkpt>
      <trkpt lat="45.75678" lon="5.29291">
        <ele>409</ele>
        <time>2020-05-16T13:53:26.000Z</time>
      </trkpt>
      <trkpt lat="45.7568" lon="5.29293">
        <ele>409</ele>
        <time>2020-05-16T13:53:27.000Z</time>
      </trkpt>
      <trkpt lat="45.75683" lon="5.29295">
        <ele>409</ele>
        <time>2020-05-16T13:53:28.000Z</time>
      </trkpt>
      <trkpt lat="45.75686" lon="5.29296">
        <ele>410</ele>
        <time>2020-05-16T13:53:29.000Z</time>
      </trkpt>
      <trkpt lat="45.75689" lon="5.29298">
        <ele>410</ele>
        <time>2020-05-16T13:53:30.000Z</time>
      </trkpt>
      <trkpt lat="45.75692" lon="5.293">
        <ele>410</ele>
        <time>2020-05-16T13:53:31.000Z</time>
      </trkpt>
      <trkpt lat="45.75694" lon="5.29301">
        <ele>411</ele>
        <time>2020-05-16T13:53:32.000Z</time>
      </trkpt>
      <trkpt lat="45.75697" lon="5.29303">
        <ele>412</ele>
        <time>2020-05-16T13:53:33.000Z</time>
      </trkpt>
      <trkpt lat="45.75699" lon="5.29306">
        <ele>413</ele>
        <time>2020-05-16T13:53:34.000Z</time>
      </trkpt>
      <trkpt lat="45.75701" lon="5.29308">
        <ele>413</ele>
        <time>2020-05-16T13:53:35.000Z</time>
      </trkpt>
      <trkpt lat="45.75704" lon="5.2931">
        <ele>413</ele>
        <time>2020-05-16T13:53:36.000Z</time>
      </trkpt>
      <trkpt lat="45.75706" lon="5.29312">
        <ele>414</ele>
        <time>2020-05-16T13:53:37.000Z</time>
      </trkpt>
      <trkpt lat="45.75709" lon="5.29315">
        <ele>415</ele>
        <time>2020-05-16T13:53:38.000Z</time>
      </trkpt>
      <trkpt lat="45.75711" lon="5.29317">
        <ele>416</ele>
        <time>2020-05-16T13:53:39.000Z</time>
      </trkpt>
      <trkpt lat="45.75714" lon="5.29319">
        <ele>417</ele>
        <time>2020-05-16T13:53:40.000Z</time>
      </trkpt>
      <trkpt lat="45.75716" lon="5.29321">
        <ele>417</ele>
        <time>2020-05-16T13:53:41.000Z</time>
      </trkpt>
      <trkpt lat="45.75719" lon="5.29323">
        <ele>418</ele>
        <time>2020-05-16T13:53:42.000Z</time>
      </trkpt>
      <trkpt lat="45.75722" lon="5.29325">
        <ele>417</ele>
        <time>2020-05-16T13:53:43.000Z</time>
      </trkpt>
      <trkpt lat="45.75724" lon="5.29326">
        <ele>418</ele>
        <time>2020-05-16T13:53:44.000Z</time>
      </trkpt>
      <trkpt lat="45.75727" lon="5.29328">
        <ele>418</ele>
        <time>2020-05-16T13:53:45.000Z</time>
      </trkpt>
      <trkpt lat="45.7573" lon="5.29329">
        <ele>418</ele>
        <time>2020-05-16T13:53:46.000Z</time>
      </trkpt>
      <trkpt lat="45.75733" lon="5.2933">
        <ele>418</ele>
        <time>2020-05-16T13:53:47.000Z</time>
      </trkpt>
      <trkpt lat="45.75736" lon="5.29332">
        <ele>418</ele>
        <time>2020-05-16T13:53:48.000Z</time>
      </trkpt>
      <trkpt lat="45.7574" lon="5.29333">
        <ele>419</ele>
        <time>2020-05-16T13:53:49.000Z</time>
      </trkpt>
      <trkpt lat="45.75743" lon="5.29335">
        <ele>419</ele>
        <time>2020-05-16T13:53:50.000Z</time>
      </trkpt>
      <trkpt lat="45.75746" lon="5.29336">
        <ele>419</ele>
        <time>2020-05-16T13:53:51.000Z</time>
      </trkpt>
      <trkpt lat="45.75749" lon="5.29338">
        <ele>420</ele>
        <time>2020-05-16T13:53:52.000Z</time>
      </trkpt>
      <trkpt lat="45.75752" lon="5.2934">
        <ele>420</ele>
        <time>2020-05-16T13:53:53.000Z</time>
      </trkpt>
      <trkpt lat="45.75755" lon="5.29341">
        <ele>421</ele>
        <time>2020-05-16T13:53:54.000Z</time>
      </trkpt>
      <trkpt lat="45.75758" lon="5.29342">
        <ele>421</ele>
        <time>2020-05-16T13:53:55.000Z</time>
      </trkpt>
      <trkpt lat="45.75761" lon="5.29344">
        <ele>420</ele>
        <time>2020-05-16T13:53:56.000Z</time>
      </trkpt>
      <trkpt lat="45.75764" lon="5.29345">
        <ele>419</ele>
        <time>2020-05-16T13:53:57.000Z</time>
      </trkpt>
      <trkpt lat="45.75768" lon="5.29347">
        <ele>419</ele>
        <time>2020-05-16T13:53:58.000Z</time>
      </trkpt>
      <trkpt lat="45.75771" lon="5.29348">
        <ele>418</ele>
        <time>2020-05-16T13:53:59.000Z</time>
      </trkpt>
      <trkpt lat="45.75774" lon="5.2935">
        <ele>418</ele>
        <time>2020-05-16T13:54:00.000Z</time>
      </trkpt>
      <trkpt lat="45.75777" lon="5.29351">
        <ele>417</ele>
        <time>2020-05-16T13:54:01.000Z</time>
      </trkpt>
      <trkpt lat="45.7578" lon="5.29353">
        <ele>417</ele>
        <time>2020-05-16T13:54:02.000Z</time>
      </trkpt>
      <trkpt lat="45.75782" lon="5.29354">
        <ele>417</ele>
        <time>2020-05-16T13:54:03.000Z</time>
      </trkpt>
      <trkpt lat="45.75784" lon="5.29356">
        <ele>417</ele>
        <time>2020-05-16T13:54:04.000Z</time>
      </trkpt>
      <trkpt lat="45.75787" lon="5.29357">
        <ele>417</ele>
        <time>2020-05-16T13:54:05.000Z</time>
      </trkpt>
      <trkpt lat="45.75789" lon="5.29358">
        <ele>417</ele>
        <time>2020-05-16T13:54:06.000Z</time>
      </trkpt>
      <trkpt lat="45.75791" lon="5.29358">
        <ele>417</ele>
        <time>2020-05-16T13:54:07.000Z</time>
      </trkpt>
      <trkpt lat="45.75793" lon="5.29358">
        <ele>417</ele>
        <time>2020-05-16T13:54:08.000Z</time>
      </trkpt>
      <trkpt lat="45.75794" lon="5.29358">
        <ele>417</ele>
        <time>2020-05-16T13:54:09.000Z</time>
      </trkpt>
      <trkpt lat="45.75794" lon="5.29358">
        <ele>417</ele>
        <time>2020-05-16T13:54:10.000Z</time>
      </trkpt>
      <trkpt lat="45.75794" lon="5.29358">
        <ele>416</ele>
        <time>2020-05-16T13:54:11.000Z</time>
      </trkpt>
      <trkpt lat="45.75794" lon="5.29358">
        <ele>417</ele>
        <time>2020-05-16T13:54:12.000Z</time>
      </trkpt>
      <trkpt lat="45.75989" lon="5.29436">
        <ele>411</ele>
        <time>2020-05-16T13:54:13.063Z</time>
      </trkpt>
      <trkpt lat="45.75995" lon="5.2944">
        <ele>411</ele>
        <time>2020-05-16T13:54:14.063Z</time>
      </trkpt>
      <trkpt lat="45.76001" lon="5.29445">
        <ele>412</ele>
        <time>2020-05-16T13:54:15.063Z</time>
      </trkpt>
      <trkpt lat="45.76007" lon="5.2945">
        <ele>412</ele>
        <time>2020-05-16T13:54:16.063Z</time>
      </trkpt>
      <trkpt lat="45.76012" lon="5.29455">
        <ele>413</ele>
        <time>2020-05-16T13:54:17.063Z</time>
      </trkpt>
      <trkpt lat="45.76017" lon="5.2946">
        <ele>413</ele>
        <time>2020-05-16T13:54:18.063Z</time>
      </trkpt>
      <trkpt lat="45.76022" lon="5.29465">
        <ele>413</ele>
        <time>2020-05-16T13:54:19.063Z</time>
      </trkpt>
      <trkpt lat="45.76027" lon="5.29469">
        <ele>413</ele>
        <time>2020-05-16T13:54:20.063Z</time>
      </trkpt>
      <trkpt lat="45.76032" lon="5.29473">
        <ele>413</ele>
        <time>2020-05-16T13:54:21.063Z</time>
      </trkpt>
      <trkpt lat="45.76037" lon="5.29477">
        <ele>414</ele>
        <time>2020-05-16T13:54:22.063Z</time>
      </trkpt>
      <trkpt lat="45.76043" lon="5.2948">
        <ele>414</ele>
        <time>2020-05-16T13:54:23.063Z</time>
      </trkpt>
      <trkpt lat="45.76048" lon="5.29483">
        <ele>414</ele>
        <time>2020-05-16T13:54:24.063Z</time>
      </trkpt>
      <trkpt lat="45.76054" lon="5.29485">
        <ele>414</ele>
        <time>2020-05-16T13:54:25.063Z</time>
      </trkpt>
      <trkpt lat="45.76059" lon="5.29488">
        <ele>415</ele>
        <time>2020-05-16T13:54:26.063Z</time>
      </trkpt>
      <trkpt lat="45.76065" lon="5.2949">
        <ele>415</ele>
        <time>2020-05-16T13:54:27.063Z</time>
      </trkpt>
      <trkpt lat="45.7607" lon="5.29492">
        <ele>415</ele>
        <time>2020-05-16T13:54:28.063Z</time>
      </trkpt>
      <trkpt lat="45.76075" lon="5.29494">
        <ele>415</ele>
        <time>2020-05-16T13:54:29.063Z</time>
      </trkpt>
      <trkpt lat="45.7608" lon="5.29496">
        <ele>416</ele>
        <time>2020-05-16T13:54:30.063Z</time>
      </trkpt>
      <trkpt lat="45.76086" lon="5.29497">
        <ele>416</ele>
        <time>2020-05-16T13:54:31.063Z</time>
      </trkpt>
      <trkpt lat="45.76091" lon="5.29499">
        <ele>416</ele>
        <time>2020-05-16T13:54:32.063Z</time>
      </trkpt>
      <trkpt lat="45.76097" lon="5.29501">
        <ele>416</ele>
        <time>2020-05-16T13:54:33.063Z</time>
      </trkpt>
      <trkpt lat="45.76103" lon="5.29502">
        <ele>415</ele>
        <time>2020-05-16T13:54:34.063Z</time>
      </trkpt>
      <trkpt lat="45.7611" lon="5.29503">
        <ele>415</ele>
        <time>2020-05-16T13:54:35.063Z</time>
      </trkpt>
      <trkpt lat="45.76116" lon="5.29504">
        <ele>414</ele>
        <time>2020-05-16T13:54:36.063Z</time>
      </trkpt>
      <trkpt lat="45.76123" lon="5.29505">
        <ele>414</ele>
        <time>2020-05-16T13:54:37.063Z</time>
      </trkpt>
      <trkpt lat="45.76131" lon="5.29505">
        <ele>414</ele>
        <time>2020-05-16T13:54:38.063Z</time>
      </trkpt>
      <trkpt lat="45.76139" lon="5.29506">
        <ele>412</ele>
        <time>2020-05-16T13:54:39.063Z</time>
      </trkpt>
      <trkpt lat="45.76148" lon="5.29508">
        <ele>411</ele>
        <time>2020-05-16T13:54:40.063Z</time>
      </trkpt>
      <trkpt lat="45.76157" lon="5.2951">
        <ele>410</ele>
        <time>2020-05-16T13:54:41.063Z</time>
      </trkpt>
      <trkpt lat="45.76166" lon="5.29514">
        <ele>409</ele>
        <time>2020-05-16T13:54:42.063Z</time>
      </trkpt>
      <trkpt lat="45.76175" lon="5.29517">
        <ele>409</ele>
        <time>2020-05-16T13:54:43.063Z</time>
      </trkpt>
      <trkpt lat="45.76184" lon="5.29521">
        <ele>408</ele>
        <time>2020-05-16T13:54:44.063Z</time>
      </trkpt>
      <trkpt lat="45.76193" lon="5.29525">
        <ele>408</ele>
        <time>2020-05-16T13:54:45.063Z</time>
      </trkpt>
      <trkpt lat="45.76202" lon="5.29529">
        <ele>408</ele>
        <time>2020-05-16T13:54:46.063Z</time>
      </trkpt>
      <trkpt lat="45.76212" lon="5.29534">
        <ele>408</ele>
        <time>2020-05-16T13:54:47.063Z</time>
      </trkpt>
      <trkpt lat="45.76221" lon="5.29539">
        <ele>408</ele>
        <time>2020-05-16T13:54:48.063Z</time>
      </trkpt>
      <trkpt lat="45.76229" lon="5.29545">
        <ele>408</ele>
        <time>2020-05-16T13:54:49.063Z</time>
      </trkpt>
      <trkpt lat="45.76238" lon="5.29551">
        <ele>408</ele>
        <time>2020-05-16T13:54:50.063Z</time>
      </trkpt>
      <trkpt lat="45.76246" lon="5.29558">
        <ele>409</ele>
        <time>2020-05-16T13:54:51.063Z</time>
      </trkpt>
      <trkpt lat="45.76253" lon="5.29565">
        <ele>409</ele>
        <time>2020-05-16T13:54:52.063Z</time>
      </trkpt>
      <trkpt lat="45.76261" lon="5.29573">
        <ele>410</ele>
        <time>2020-05-16T13:54:53.063Z</time>
      </trkpt>
      <trkpt lat="45.76268" lon="5.2958">
        <ele>410</ele>
        <time>2020-05-16T13:54:54.063Z</time>
      </trkpt>
      <trkpt lat="45.76275" lon="5.29587">
        <ele>410</ele>
        <time>2020-05-16T13:54:55.063Z</time>
      </trkpt>
      <trkpt lat="45.76282" lon="5.29595">
        <ele>410</ele>
        <time>2020-05-16T13:54:56.063Z</time>
      </trkpt>
      <trkpt lat="45.76289" lon="5.29602">
        <ele>410</ele>
        <time>2020-05-16T13:54:57.063Z</time>
      </trkpt>
      <trkpt lat="45.76296" lon="5.29609">
        <ele>410</ele>
        <time>2020-05-16T13:54:58.063Z</time>
      </trkpt>
      <trkpt lat="45.76303" lon="5.29615">
        <ele>409</ele>
        <time>2020-05-16T13:54:59.063Z</time>
      </trkpt>
      <trkpt lat="45.76311" lon="5.29621">
        <ele>409</ele>
        <time>2020-05-16T13:55:00.063Z</time>
      </trkpt>
      <trkpt lat="45.76318" lon="5.29627">
        <ele>409</ele>
        <time>2020-05-16T13:55:01.063Z</time>
      </trkpt>
      <trkpt lat="45.76326" lon="5.29632">
        <ele>409</ele>
        <time>2020-05-16T13:55:02.063Z</time>
      </trkpt>
      <trkpt lat="45.76333" lon="5.29638">
        <ele>409</ele>
        <time>2020-05-16T13:55:03.063Z</time>
      </trkpt>
      <trkpt lat="45.7634" lon="5.29644">
        <ele>409</ele>
        <time>2020-05-16T13:55:04.063Z</time>
      </trkpt>
      <trkpt lat="45.76347" lon="5.29651">
        <ele>409</ele>
        <time>2020-05-16T13:55:05.063Z</time>
      </trkpt>
      <trkpt lat="45.76354" lon="5.29657">
        <ele>409</ele>
        <time>2020-05-16T13:55:06.063Z</time>
      </trkpt>
      <trkpt lat="45.76361" lon="5.29663">
        <ele>408</ele>
        <time>2020-05-16T13:55:07.063Z</time>
      </trkpt>
      <trkpt lat="45.76368" lon="5.29669">
        <ele>408</ele>
        <time>2020-05-16T13:55:08.063Z</time>
      </trkpt>
      <trkpt lat="45.76376" lon="5.29674">
        <ele>408</ele>
        <time>2020-05-16T13:55:09.063Z</time>
      </trkpt>
      <trkpt lat="45.76384" lon="5.29678">
        <ele>408</ele>
        <time>2020-05-16T13:55:10.063Z</time>
      </trkpt>
      <trkpt lat="45.76393" lon="5.29682">
        <ele>407</ele>
        <time>2020-05-16T13:55:11.063Z</time>
      </trkpt>
      <trkpt lat="45.76401" lon="5.29687">
        <ele>407</ele>
        <time>2020-05-16T13:55:12.063Z</time>
      </trkpt>
      <trkpt lat="45.7641" lon="5.29691">
        <ele>407</ele>
        <time>2020-05-16T13:55:13.063Z</time>
      </trkpt>
      <trkpt lat="45.76418" lon="5.29695">
        <ele>407</ele>
        <time>2020-05-16T13:55:14.063Z</time>
      </trkpt>
      <trkpt lat="45.76426" lon="5.29698">
        <ele>406</ele>
        <time>2020-05-16T13:55:15.063Z</time>
      </trkpt>
      <trkpt lat="45.76435" lon="5.29701">
        <ele>406</ele>
        <time>2020-05-16T13:55:16.063Z</time>
      </trkpt>
      <trkpt lat="45.76443" lon="5.29703">
        <ele>405</ele>
        <time>2020-05-16T13:55:17.063Z</time>
      </trkpt>
      <trkpt lat="45.76452" lon="5.29706">
        <ele>405</ele>
        <time>2020-05-16T13:55:18.063Z</time>
      </trkpt>
      <trkpt lat="45.76461" lon="5.2971">
        <ele>404</ele>
        <time>2020-05-16T13:55:19.063Z</time>
      </trkpt>
      <trkpt lat="45.7647" lon="5.29714">
        <ele>404</ele>
        <time>2020-05-16T13:55:20.063Z</time>
      </trkpt>
      <trkpt lat="45.76478" lon="5.29719">
        <ele>404</ele>
        <time>2020-05-16T13:55:21.063Z</time>
      </trkpt>
      <trkpt lat="45.76487" lon="5.29724">
        <ele>404</ele>
        <time>2020-05-16T13:55:22.063Z</time>
      </trkpt>
      <trkpt lat="45.76495" lon="5.29729">
        <ele>404</ele>
        <time>2020-05-16T13:55:23.063Z</time>
      </trkpt>
      <trkpt lat="45.76503" lon="5.29734">
        <ele>403</ele>
        <time>2020-05-16T13:55:24.063Z</time>
      </trkpt>
      <trkpt lat="45.76511" lon="5.2974">
        <ele>404</ele>
        <time>2020-05-16T13:55:25.063Z</time>
      </trkpt>
      <trkpt lat="45.76518" lon="5.29747">
        <ele>404</ele>
        <time>2020-05-16T13:55:26.063Z</time>
      </trkpt>
      <trkpt lat="45.76524" lon="5.29755">
        <ele>405</ele>
        <time>2020-05-16T13:55:27.063Z</time>
      </trkpt>
      <trkpt lat="45.7653" lon="5.29764">
        <ele>405</ele>
        <time>2020-05-16T13:55:28.063Z</time>
      </trkpt>
      <trkpt lat="45.76535" lon="5.29773">
        <ele>405</ele>
        <time>2020-05-16T13:55:29.063Z</time>
      </trkpt>
      <trkpt lat="45.76541" lon="5.29781">
        <ele>405</ele>
        <time>2020-05-16T13:55:30.063Z</time>
      </trkpt>
      <trkpt lat="45.76546" lon="5.29789">
        <ele>405</ele>
        <time>2020-05-16T13:55:31.063Z</time>
      </trkpt>
      <trkpt lat="45.76551" lon="5.29796">
        <ele>405</ele>
        <time>2020-05-16T13:55:32.063Z</time>
      </trkpt>
      <trkpt lat="45.76558" lon="5.29803">
        <ele>405</ele>
        <time>2020-05-16T13:55:33.063Z</time>
      </trkpt>
      <trkpt lat="45.76564" lon="5.29808">
        <ele>405</ele>
        <time>2020-05-16T13:55:34.063Z</time>
      </trkpt>
      <trkpt lat="45.76571" lon="5.29812">
        <ele>405</ele>
        <time>2020-05-16T13:55:35.063Z</time>
      </trkpt>
      <trkpt lat="45.76579" lon="5.29816">
        <ele>405</ele>
        <time>2020-05-16T13:55:36.063Z</time>
      </trkpt>
      <trkpt lat="45.76587" lon="5.29819">
        <ele>405</ele>
        <time>2020-05-16T13:55:37.063Z</time>
      </trkpt>
      <trkpt lat="45.76595" lon="5.29822">
        <ele>404</ele>
        <time>2020-05-16T13:55:38.063Z</time>
      </trkpt>
      <trkpt lat="45.76603" lon="5.29824">
        <ele>405</ele>
        <time>2020-05-16T13:55:39.063Z</time>
      </trkpt>
      <trkpt lat="45.76611" lon="5.29826">
        <ele>405</ele>
        <time>2020-05-16T13:55:40.063Z</time>
      </trkpt>
      <trkpt lat="45.76619" lon="5.29828">
        <ele>405</ele>
        <time>2020-05-16T13:55:41.063Z</time>
      </trkpt>
      <trkpt lat="45.76626" lon="5.29831">
        <ele>404</ele>
        <time>2020-05-16T13:55:42.063Z</time>
      </trkpt>
      <trkpt lat="45.76634" lon="5.29834">
        <ele>404</ele>
        <time>2020-05-16T13:55:43.063Z</time>
      </trkpt>
      <trkpt lat="45.76642" lon="5.29837">
        <ele>405</ele>
        <time>2020-05-16T13:55:44.063Z</time>
      </trkpt>
      <trkpt lat="45.76649" lon="5.2984">
        <ele>405</ele>
        <time>2020-05-16T13:55:45.063Z</time>
      </trkpt>
      <trkpt lat="45.76657" lon="5.29844">
        <ele>405</ele>
        <time>2020-05-16T13:55:46.063Z</time>
      </trkpt>
      <trkpt lat="45.76664" lon="5.29847">
        <ele>405</ele>
        <time>2020-05-16T13:55:47.063Z</time>
      </trkpt>
      <trkpt lat="45.76671" lon="5.2985">
        <ele>405</ele>
        <time>2020-05-16T13:55:48.063Z</time>
      </trkpt>
      <trkpt lat="45.76678" lon="5.29854">
        <ele>405</ele>
        <time>2020-05-16T13:55:49.063Z</time>
      </trkpt>
      <trkpt lat="45.76685" lon="5.29858">
        <ele>405</ele>
        <time>2020-05-16T13:55:50.063Z</time>
      </trkpt>
      <trkpt lat="45.76692" lon="5.29863">
        <ele>404</ele>
        <time>2020-05-16T13:55:51.063Z</time>
      </trkpt>
      <trkpt lat="45.76698" lon="5.29869">
        <ele>404</ele>
        <time>2020-05-16T13:55:52.063Z</time>
      </trkpt>
      <trkpt lat="45.76703" lon="5.29876">
        <ele>404</ele>
        <time>2020-05-16T13:55:53.063Z</time>
      </trkpt>
      <trkpt lat="45.76709" lon="5.29883">
        <ele>404</ele>
        <time>2020-05-16T13:55:54.063Z</time>
      </trkpt>
      <trkpt lat="45.76714" lon="5.2989">
        <ele>404</ele>
        <time>2020-05-16T13:55:55.063Z</time>
      </trkpt>
      <trkpt lat="45.76719" lon="5.29897">
        <ele>404</ele>
        <time>2020-05-16T13:55:56.063Z</time>
      </trkpt>
      <trkpt lat="45.76725" lon="5.29904">
        <ele>404</ele>
        <time>2020-05-16T13:55:57.063Z</time>
      </trkpt>
      <trkpt lat="45.7673" lon="5.29911">
        <ele>405</ele>
        <time>2020-05-16T13:55:58.063Z</time>
      </trkpt>
      <trkpt lat="45.76736" lon="5.29916">
        <ele>405</ele>
        <time>2020-05-16T13:55:59.063Z</time>
      </trkpt>
      <trkpt lat="45.76742" lon="5.29921">
        <ele>405</ele>
        <time>2020-05-16T13:56:00.063Z</time>
      </trkpt>
      <trkpt lat="45.76748" lon="5.29926">
        <ele>405</ele>
        <time>2020-05-16T13:56:01.063Z</time>
      </trkpt>
      <trkpt lat="45.76753" lon="5.29931">
        <ele>405</ele>
        <time>2020-05-16T13:56:02.063Z</time>
      </trkpt>
      <trkpt lat="45.76759" lon="5.29935">
        <ele>405</ele>
        <time>2020-05-16T13:56:03.063Z</time>
      </trkpt>
      <trkpt lat="45.76765" lon="5.29939">
        <ele>405</ele>
        <time>2020-05-16T13:56:04.063Z</time>
      </trkpt>
      <trkpt lat="45.76771" lon="5.29942">
        <ele>405</ele>
        <time>2020-05-16T13:56:05.063Z</time>
      </trkpt>
      <trkpt lat="45.76778" lon="5.29944">
        <ele>405</ele>
        <time>2020-05-16T13:56:06.063Z</time>
      </trkpt>
      <trkpt lat="45.76784" lon="5.29946">
        <ele>405</ele>
        <time>2020-05-16T13:56:07.063Z</time>
      </trkpt>
      <trkpt lat="45.76791" lon="5.29947">
        <ele>405</ele>
        <time>2020-05-16T13:56:08.063Z</time>
      </trkpt>
      <trkpt lat="45.76797" lon="5.29948">
        <ele>405</ele>
        <time>2020-05-16T13:56:09.063Z</time>
      </trkpt>
      <trkpt lat="45.76804" lon="5.29949">
        <ele>405</ele>
        <time>2020-05-16T13:56:10.063Z</time>
      </trkpt>
      <trkpt lat="45.7681" lon="5.2995">
        <ele>405</ele>
        <time>2020-05-16T13:56:11.063Z</time>
      </trkpt>
      <trkpt lat="45.76817" lon="5.29951">
        <ele>405</ele>
        <time>2020-05-16T13:56:12.063Z</time>
      </trkpt>
      <trkpt lat="45.76823" lon="5.29952">
        <ele>405</ele>
        <time>2020-05-16T13:56:13.063Z</time>
      </trkpt>
      <trkpt lat="45.76829" lon="5.29953">
        <ele>405</ele>
        <time>2020-05-16T13:56:14.063Z</time>
      </trkpt>
      <trkpt lat="45.76836" lon="5.29954">
        <ele>405</ele>
        <time>2020-05-16T13:56:15.063Z</time>
      </trkpt>
      <trkpt lat="45.76843" lon="5.29954">
        <ele>405</ele>
        <time>2020-05-16T13:56:16.063Z</time>
      </trkpt>
      <trkpt lat="45.76849" lon="5.29955">
        <ele>405</ele>
        <time>2020-05-16T13:56:17.063Z</time>
      </trkpt>
      <trkpt lat="45.76856" lon="5.29956">
        <ele>405</ele>
        <time>2020-05-16T13:56:18.063Z</time>
      </trkpt>
      <trkpt lat="45.76862" lon="5.29957">
        <ele>405</ele>
        <time>2020-05-16T13:56:19.063Z</time>
      </trkpt>
      <trkpt lat="45.76869" lon="5.29959">
        <ele>405</ele>
        <time>2020-05-16T13:56:20.063Z</time>
      </trkpt>
      <trkpt lat="45.76875" lon="5.2996">
        <ele>406</ele>
        <time>2020-05-16T13:56:21.063Z</time>
      </trkpt>
      <trkpt lat="45.76882" lon="5.2996">
        <ele>406</ele>
        <time>2020-05-16T13:56:22.063Z</time>
      </trkpt>
      <trkpt lat="45.76888" lon="5.29961">
        <ele>406</ele>
        <time>2020-05-16T13:56:23.063Z</time>
      </trkpt>
      <trkpt lat="45.76895" lon="5.29962">
        <ele>406</ele>
        <time>2020-05-16T13:56:24.063Z</time>
      </trkpt>
      <trkpt lat="45.76901" lon="5.29963">
        <ele>406</ele>
        <time>2020-05-16T13:56:25.063Z</time>
      </trkpt>
      <trkpt lat="45.76907" lon="5.29964">
        <ele>407</ele>
        <time>2020-05-16T13:56:26.063Z</time>
      </trkpt>
      <trkpt lat="45.76913" lon="5.29965">
        <ele>407</ele>
        <time>2020-05-16T13:56:27.063Z</time>
      </trkpt>
      <trkpt lat="45.76919" lon="5.29966">
        <ele>407</ele>
        <time>2020-05-16T13:56:28.063Z</time>
      </trkpt>
      <trkpt lat="45.76924" lon="5.29967">
        <ele>407</ele>
        <time>2020-05-16T13:56:29.063Z</time>
      </trkpt>
      <trkpt lat="45.7693" lon="5.29968">
        <ele>406</ele>
        <time>2020-05-16T13:56:30.063Z</time>
      </trkpt>
      <trkpt lat="45.76936" lon="5.2997">
        <ele>406</ele>
        <time>2020-05-16T13:56:31.063Z</time>
      </trkpt>
      <trkpt lat="45.76942" lon="5.29971">
        <ele>406</ele>
        <time>2020-05-16T13:56:32.063Z</time>
      </trkpt>
      <trkpt lat="45.76949" lon="5.29972">
        <ele>405</ele>
        <time>2020-05-16T13:56:33.063Z</time>
      </trkpt>
      <trkpt lat="45.76956" lon="5.29972">
        <ele>405</ele>
        <time>2020-05-16T13:56:34.063Z</time>
      </trkpt>
      <trkpt lat="45.76963" lon="5.29972">
        <ele>405</ele>
        <time>2020-05-16T13:56:35.063Z</time>
      </trkpt>
      <trkpt lat="45.7697" lon="5.29971">
        <ele>404</ele>
        <time>2020-05-16T13:56:36.063Z</time>
      </trkpt>
      <trkpt lat="45.76978" lon="5.2997">
        <ele>404</ele>
        <time>2020-05-16T13:56:37.063Z</time>
      </trkpt>
      <trkpt lat="45.76985" lon="5.29968">
        <ele>403</ele>
        <time>2020-05-16T13:56:38.063Z</time>
      </trkpt>
      <trkpt lat="45.76993" lon="5.29966">
        <ele>402</ele>
        <time>2020-05-16T13:56:39.063Z</time>
      </trkpt>
      <trkpt lat="45.77002" lon="5.29965">
        <ele>401</ele>
        <time>2020-05-16T13:56:40.063Z</time>
      </trkpt>
      <trkpt lat="45.7701" lon="5.29963">
        <ele>400</ele>
        <time>2020-05-16T13:56:41.063Z</time>
      </trkpt>
      <trkpt lat="45.77018" lon="5.29962">
        <ele>399</ele>
        <time>2020-05-16T13:56:42.063Z</time>
      </trkpt>
      <trkpt lat="45.77027" lon="5.29961">
        <ele>398</ele>
        <time>2020-05-16T13:56:43.063Z</time>
      </trkpt>
      <trkpt lat="45.77036" lon="5.29961">
        <ele>397</ele>
        <time>2020-05-16T13:56:44.063Z</time>
      </trkpt>
      <trkpt lat="45.77045" lon="5.29961">
        <ele>396</ele>
        <time>2020-05-16T13:56:45.063Z</time>
      </trkpt>
      <trkpt lat="45.77055" lon="5.29961">
        <ele>395</ele>
        <time>2020-05-16T13:56:46.063Z</time>
      </trkpt>
      <trkpt lat="45.77065" lon="5.29961">
        <ele>394</ele>
        <time>2020-05-16T13:56:47.063Z</time>
      </trkpt>
      <trkpt lat="45.77075" lon="5.29961">
        <ele>393</ele>
        <time>2020-05-16T13:56:48.063Z</time>
      </trkpt>
      <trkpt lat="45.77084" lon="5.29964">
        <ele>395</ele>
        <time>2020-05-16T13:56:49.063Z</time>
      </trkpt>
      <trkpt lat="45.77094" lon="5.29969">
        <ele>397</ele>
        <time>2020-05-16T13:56:50.063Z</time>
      </trkpt>
      <trkpt lat="45.77102" lon="5.29978">
        <ele>394</ele>
        <time>2020-05-16T13:56:51.063Z</time>
      </trkpt>
      <trkpt lat="45.77109" lon="5.29989">
        <ele>388</ele>
        <time>2020-05-16T13:56:52.063Z</time>
      </trkpt>
      <trkpt lat="45.77114" lon="5.30002">
        <ele>388</ele>
        <time>2020-05-16T13:56:53.063Z</time>
      </trkpt>
      <trkpt lat="45.77117" lon="5.30015">
        <ele>389</ele>
        <time>2020-05-16T13:56:54.063Z</time>
      </trkpt>
      <trkpt lat="45.77121" lon="5.30029">
        <ele>389</ele>
        <time>2020-05-16T13:56:55.063Z</time>
      </trkpt>
      <trkpt lat="45.77124" lon="5.30042">
        <ele>388</ele>
        <time>2020-05-16T13:56:56.063Z</time>
      </trkpt>
      <trkpt lat="45.77127" lon="5.30056">
        <ele>388</ele>
        <time>2020-05-16T13:56:57.063Z</time>
      </trkpt>
      <trkpt lat="45.77131" lon="5.3007">
        <ele>388</ele>
        <time>2020-05-16T13:56:58.063Z</time>
      </trkpt>
      <trkpt lat="45.77134" lon="5.30083">
        <ele>387</ele>
        <time>2020-05-16T13:56:59.063Z</time>
      </trkpt>
      <trkpt lat="45.77138" lon="5.30097">
        <ele>386</ele>
        <time>2020-05-16T13:57:00.063Z</time>
      </trkpt>
      <trkpt lat="45.77143" lon="5.3011">
        <ele>387</ele>
        <time>2020-05-16T13:57:01.063Z</time>
      </trkpt>
      <trkpt lat="45.77148" lon="5.30123">
        <ele>387</ele>
        <time>2020-05-16T13:57:02.063Z</time>
      </trkpt>
      <trkpt lat="45.77154" lon="5.30134">
        <ele>386</ele>
        <time>2020-05-16T13:57:03.063Z</time>
      </trkpt>
      <trkpt lat="45.77161" lon="5.30144">
        <ele>386</ele>
        <time>2020-05-16T13:57:04.063Z</time>
      </trkpt>
      <trkpt lat="45.77169" lon="5.30153">
        <ele>385</ele>
        <time>2020-05-16T13:57:05.063Z</time>
      </trkpt>
      <trkpt lat="45.77177" lon="5.30162">
        <ele>385</ele>
        <time>2020-05-16T13:57:06.063Z</time>
      </trkpt>
      <trkpt lat="45.77184" lon="5.30171">
        <ele>385</ele>
        <time>2020-05-16T13:57:07.063Z</time>
      </trkpt>
      <trkpt lat="45.77191" lon="5.3018">
        <ele>385</ele>
        <time>2020-05-16T13:57:08.063Z</time>
      </trkpt>
      <trkpt lat="45.77198" lon="5.30189">
        <ele>384</ele>
        <time>2020-05-16T13:57:09.063Z</time>
      </trkpt>
      <trkpt lat="45.77204" lon="5.30199">
        <ele>383</ele>
        <time>2020-05-16T13:57:10.063Z</time>
      </trkpt>
      <trkpt lat="45.77208" lon="5.30211">
        <ele>384</ele>
        <time>2020-05-16T13:57:11.063Z</time>
      </trkpt>
      <trkpt lat="45.77211" lon="5.30225">
        <ele>383</ele>
        <time>2020-05-16T13:57:12.063Z</time>
      </trkpt>
      <trkpt lat="45.77212" lon="5.30239">
        <ele>382</ele>
        <time>2020-05-16T13:57:13.063Z</time>
      </trkpt>
      <trkpt lat="45.77212" lon="5.30253">
        <ele>381</ele>
        <time>2020-05-16T13:57:14.063Z</time>
      </trkpt>
      <trkpt lat="45.77212" lon="5.30267">
        <ele>380</ele>
        <time>2020-05-16T13:57:15.063Z</time>
      </trkpt>
      <trkpt lat="45.77212" lon="5.30282">
        <ele>380</ele>
        <time>2020-05-16T13:57:16.063Z</time>
      </trkpt>
      <trkpt lat="45.77212" lon="5.30297">
        <ele>380</ele>
        <time>2020-05-16T13:57:17.063Z</time>
      </trkpt>
      <trkpt lat="45.77212" lon="5.30311">
        <ele>379</ele>
        <time>2020-05-16T13:57:18.063Z</time>
      </trkpt>
      <trkpt lat="45.77212" lon="5.30326">
        <ele>379</ele>
        <time>2020-05-16T13:57:19.063Z</time>
      </trkpt>
      <trkpt lat="45.77213" lon="5.3034">
        <ele>379</ele>
        <time>2020-05-16T13:57:20.063Z</time>
      </trkpt>
      <trkpt lat="45.77213" lon="5.30354">
        <ele>378</ele>
        <time>2020-05-16T13:57:21.063Z</time>
      </trkpt>
      <trkpt lat="45.77214" lon="5.30368">
        <ele>378</ele>
        <time>2020-05-16T13:57:22.063Z</time>
      </trkpt>
      <trkpt lat="45.77215" lon="5.30382">
        <ele>377</ele>
        <time>2020-05-16T13:57:23.063Z</time>
      </trkpt>
      <trkpt lat="45.77215" lon="5.30396">
        <ele>376</ele>
        <time>2020-05-16T13:57:24.063Z</time>
      </trkpt>
      <trkpt lat="45.77216" lon="5.3041">
        <ele>376</ele>
        <time>2020-05-16T13:57:25.063Z</time>
      </trkpt>
      <trkpt lat="45.77218" lon="5.30424">
        <ele>375</ele>
        <time>2020-05-16T13:57:26.063Z</time>
      </trkpt>
      <trkpt lat="45.77219" lon="5.30438">
        <ele>375</ele>
        <time>2020-05-16T13:57:27.063Z</time>
      </trkpt>
      <trkpt lat="45.7722" lon="5.3045">
        <ele>374</ele>
        <time>2020-05-16T13:57:28.063Z</time>
      </trkpt>
      <trkpt lat="45.77222" lon="5.30462">
        <ele>374</ele>
        <time>2020-05-16T13:57:29.063Z</time>
      </trkpt>
      <trkpt lat="45.77223" lon="5.30472">
        <ele>374</ele>
        <time>2020-05-16T13:57:30.063Z</time>
      </trkpt>
      <trkpt lat="45.77226" lon="5.30482">
        <ele>373</ele>
        <time>2020-05-16T13:57:31.063Z</time>
      </trkpt>
      <trkpt lat="45.7723" lon="5.30491">
        <ele>372</ele>
        <time>2020-05-16T13:57:32.063Z</time>
      </trkpt>
      <trkpt lat="45.77236" lon="5.30499">
        <ele>371</ele>
        <time>2020-05-16T13:57:33.063Z</time>
      </trkpt>
      <trkpt lat="45.77243" lon="5.30506">
        <ele>370</ele>
        <time>2020-05-16T13:57:34.063Z</time>
      </trkpt>
      <trkpt lat="45.77251" lon="5.30511">
        <ele>372</ele>
        <time>2020-05-16T13:57:35.063Z</time>
      </trkpt>
      <trkpt lat="45.7726" lon="5.30516">
        <ele>372</ele>
        <time>2020-05-16T13:57:36.063Z</time>
      </trkpt>
      <trkpt lat="45.77268" lon="5.3052">
        <ele>372</ele>
        <time>2020-05-16T13:57:37.063Z</time>
      </trkpt>
      <trkpt lat="45.77274" lon="5.30525">
        <ele>371</ele>
        <time>2020-05-16T13:57:38.063Z</time>
      </trkpt>
      <trkpt lat="45.7728" lon="5.30529">
        <ele>372</ele>
        <time>2020-05-16T13:57:39.063Z</time>
      </trkpt>
      <trkpt lat="45.77285" lon="5.30534">
        <ele>371</ele>
        <time>2020-05-16T13:57:40.063Z</time>
      </trkpt>
      <trkpt lat="45.7729" lon="5.30539">
        <ele>372</ele>
        <time>2020-05-16T13:57:41.063Z</time>
      </trkpt>
      <trkpt lat="45.77295" lon="5.30543">
        <ele>372</ele>
        <time>2020-05-16T13:57:42.063Z</time>
      </trkpt>
      <trkpt lat="45.77299" lon="5.30548">
        <ele>373</ele>
        <time>2020-05-16T13:57:43.063Z</time>
      </trkpt>
      <trkpt lat="45.77303" lon="5.30552">
        <ele>373</ele>
        <time>2020-05-16T13:57:44.063Z</time>
      </trkpt>
      <trkpt lat="45.77307" lon="5.30556">
        <ele>373</ele>
        <time>2020-05-16T13:57:45.063Z</time>
      </trkpt>
      <trkpt lat="45.77311" lon="5.3056">
        <ele>372</ele>
        <time>2020-05-16T13:57:46.063Z</time>
      </trkpt>
      <trkpt lat="45.77316" lon="5.30564">
        <ele>371</ele>
        <time>2020-05-16T13:57:47.063Z</time>
      </trkpt>
      <trkpt lat="45.7732" lon="5.30569">
        <ele>370</ele>
        <time>2020-05-16T13:57:48.063Z</time>
      </trkpt>
      <trkpt lat="45.77325" lon="5.30574">
        <ele>370</ele>
        <time>2020-05-16T13:57:49.063Z</time>
      </trkpt>
      <trkpt lat="45.7733" lon="5.30578">
        <ele>369</ele>
        <time>2020-05-16T13:57:50.063Z</time>
      </trkpt>
      <trkpt lat="45.77335" lon="5.30583">
        <ele>369</ele>
        <time>2020-05-16T13:57:51.063Z</time>
      </trkpt>
      <trkpt lat="45.77341" lon="5.30589">
        <ele>368</ele>
        <time>2020-05-16T13:57:52.063Z</time>
      </trkpt>
      <trkpt lat="45.77348" lon="5.30595">
        <ele>370</ele>
        <time>2020-05-16T13:57:53.063Z</time>
      </trkpt>
      <trkpt lat="45.77354" lon="5.30602">
        <ele>369</ele>
        <time>2020-05-16T13:57:54.063Z</time>
      </trkpt>
      <trkpt lat="45.77361" lon="5.3061">
        <ele>369</ele>
        <time>2020-05-16T13:57:55.063Z</time>
      </trkpt>
      <trkpt lat="45.77367" lon="5.30618">
        <ele>368</ele>
        <time>2020-05-16T13:57:56.063Z</time>
      </trkpt>
      <trkpt lat="45.77374" lon="5.30625">
        <ele>368</ele>
        <time>2020-05-16T13:57:57.063Z</time>
      </trkpt>
      <trkpt lat="45.7738" lon="5.30631">
        <ele>367</ele>
        <time>2020-05-16T13:57:58.063Z</time>
      </trkpt>
      <trkpt lat="45.77387" lon="5.30638">
        <ele>366</ele>
        <time>2020-05-16T13:57:59.063Z</time>
      </trkpt>
      <trkpt lat="45.77394" lon="5.30644">
        <ele>365</ele>
        <time>2020-05-16T13:58:00.063Z</time>
      </trkpt>
      <trkpt lat="45.774" lon="5.3065">
        <ele>364</ele>
        <time>2020-05-16T13:58:01.063Z</time>
      </trkpt>
      <trkpt lat="45.77406" lon="5.30656">
        <ele>363</ele>
        <time>2020-05-16T13:58:02.063Z</time>
      </trkpt>
      <trkpt lat="45.7741" lon="5.30664">
        <ele>363</ele>
        <time>2020-05-16T13:58:03.063Z</time>
      </trkpt>
      <trkpt lat="45.77412" lon="5.30673">
        <ele>359</ele>
        <time>2020-05-16T13:58:04.063Z</time>
      </trkpt>
      <trkpt lat="45.77412" lon="5.30683">
        <ele>357</ele>
        <time>2020-05-16T13:58:05.063Z</time>
      </trkpt>
      <trkpt lat="45.7741" lon="5.30694">
        <ele>356</ele>
        <time>2020-05-16T13:58:06.063Z</time>
      </trkpt>
      <trkpt lat="45.77409" lon="5.30705">
        <ele>355</ele>
        <time>2020-05-16T13:58:07.063Z</time>
      </trkpt>
      <trkpt lat="45.77409" lon="5.30717">
        <ele>355</ele>
        <time>2020-05-16T13:58:08.063Z</time>
      </trkpt>
      <trkpt lat="45.77409" lon="5.30729">
        <ele>354</ele>
        <time>2020-05-16T13:58:09.063Z</time>
      </trkpt>
      <trkpt lat="45.77412" lon="5.3074">
        <ele>352</ele>
        <time>2020-05-16T13:58:10.063Z</time>
      </trkpt>
      <trkpt lat="45.77415" lon="5.30751">
        <ele>351</ele>
        <time>2020-05-16T13:58:11.063Z</time>
      </trkpt>
      <trkpt lat="45.7742" lon="5.30761">
        <ele>350</ele>
        <time>2020-05-16T13:58:12.063Z</time>
      </trkpt>
      <trkpt lat="45.77426" lon="5.30771">
        <ele>350</ele>
        <time>2020-05-16T13:58:13.063Z</time>
      </trkpt>
      <trkpt lat="45.77432" lon="5.30782">
        <ele>350</ele>
        <time>2020-05-16T13:58:14.063Z</time>
      </trkpt>
      <trkpt lat="45.77436" lon="5.30793">
        <ele>349</ele>
        <time>2020-05-16T13:58:15.063Z</time>
      </trkpt>
      <trkpt lat="45.77439" lon="5.30804">
        <ele>349</ele>
        <time>2020-05-16T13:58:16.063Z</time>
      </trkpt>
      <trkpt lat="45.7744" lon="5.30815">
        <ele>349</ele>
        <time>2020-05-16T13:58:17.063Z</time>
      </trkpt>
      <trkpt lat="45.77439" lon="5.30826">
        <ele>346</ele>
        <time>2020-05-16T13:58:18.063Z</time>
      </trkpt>
      <trkpt lat="45.77435" lon="5.30835">
        <ele>346</ele>
        <time>2020-05-16T13:58:19.063Z</time>
      </trkpt>
      <trkpt lat="45.77432" lon="5.30844">
        <ele>345</ele>
        <time>2020-05-16T13:58:20.063Z</time>
      </trkpt>
      <trkpt lat="45.77428" lon="5.30851">
        <ele>347</ele>
        <time>2020-05-16T13:58:21.063Z</time>
      </trkpt>
      <trkpt lat="45.77423" lon="5.30858">
        <ele>345</ele>
        <time>2020-05-16T13:58:22.063Z</time>
      </trkpt>
      <trkpt lat="45.77418" lon="5.30865">
        <ele>345</ele>
        <time>2020-05-16T13:58:23.063Z</time>
      </trkpt>
      <trkpt lat="45.77413" lon="5.30872">
        <ele>345</ele>
        <time>2020-05-16T13:58:24.063Z</time>
      </trkpt>
      <trkpt lat="45.7741" lon="5.3088">
        <ele>343</ele>
        <time>2020-05-16T13:58:25.063Z</time>
      </trkpt>
      <trkpt lat="45.77407" lon="5.3089">
        <ele>344</ele>
        <time>2020-05-16T13:58:26.063Z</time>
      </trkpt>
      <trkpt lat="45.77404" lon="5.309">
        <ele>343</ele>
        <time>2020-05-16T13:58:27.063Z</time>
      </trkpt>
      <trkpt lat="45.77402" lon="5.30912">
        <ele>343</ele>
        <time>2020-05-16T13:58:28.063Z</time>
      </trkpt>
      <trkpt lat="45.77399" lon="5.30924">
        <ele>344</ele>
        <time>2020-05-16T13:58:29.063Z</time>
      </trkpt>
      <trkpt lat="45.77397" lon="5.30937">
        <ele>343</ele>
        <time>2020-05-16T13:58:30.063Z</time>
      </trkpt>
      <trkpt lat="45.77396" lon="5.30951">
        <ele>343</ele>
        <time>2020-05-16T13:58:31.063Z</time>
      </trkpt>
      <trkpt lat="45.77395" lon="5.30966">
        <ele>343</ele>
        <time>2020-05-16T13:58:32.063Z</time>
      </trkpt>
      <trkpt lat="45.77393" lon="5.30981">
        <ele>342</ele>
        <time>2020-05-16T13:58:33.063Z</time>
      </trkpt>
      <trkpt lat="45.77389" lon="5.30995">
        <ele>341</ele>
        <time>2020-05-16T13:58:34.063Z</time>
      </trkpt>
      <trkpt lat="45.77383" lon="5.31009">
        <ele>340</ele>
        <time>2020-05-16T13:58:35.063Z</time>
      </trkpt>
      <trkpt lat="45.77377" lon="5.31022">
        <ele>339</ele>
        <time>2020-05-16T13:58:36.063Z</time>
      </trkpt>
      <trkpt lat="45.77369" lon="5.31034">
        <ele>336</ele>
        <time>2020-05-16T13:58:37.063Z</time>
      </trkpt>
      <trkpt lat="45.77362" lon="5.31045">
        <ele>335</ele>
        <time>2020-05-16T13:58:38.063Z</time>
      </trkpt>
      <trkpt lat="45.77354" lon="5.31056">
        <ele>334</ele>
        <time>2020-05-16T13:58:39.063Z</time>
      </trkpt>
      <trkpt lat="45.77345" lon="5.31066">
        <ele>334</ele>
        <time>2020-05-16T13:58:40.063Z</time>
      </trkpt>
      <trkpt lat="45.77335" lon="5.31074">
        <ele>335</ele>
        <time>2020-05-16T13:58:41.063Z</time>
      </trkpt>
      <trkpt lat="45.77325" lon="5.31081">
        <ele>336</ele>
        <time>2020-05-16T13:58:42.063Z</time>
      </trkpt>
      <trkpt lat="45.77314" lon="5.31086">
        <ele>336</ele>
        <time>2020-05-16T13:58:43.063Z</time>
      </trkpt>
      <trkpt lat="45.77304" lon="5.31089">
        <ele>336</ele>
        <time>2020-05-16T13:58:44.063Z</time>
      </trkpt>
      <trkpt lat="45.77293" lon="5.3109">
        <ele>339</ele>
        <time>2020-05-16T13:58:45.063Z</time>
      </trkpt>
      <trkpt lat="45.77283" lon="5.31091">
        <ele>338</ele>
        <time>2020-05-16T13:58:46.063Z</time>
      </trkpt>
      <trkpt lat="45.77273" lon="5.31092">
        <ele>338</ele>
        <time>2020-05-16T13:58:47.063Z</time>
      </trkpt>
      <trkpt lat="45.77263" lon="5.31092">
        <ele>338</ele>
        <time>2020-05-16T13:58:48.063Z</time>
      </trkpt>
      <trkpt lat="45.77253" lon="5.31092">
        <ele>338</ele>
        <time>2020-05-16T13:58:49.063Z</time>
      </trkpt>
      <trkpt lat="45.77243" lon="5.31093">
        <ele>338</ele>
        <time>2020-05-16T13:58:50.063Z</time>
      </trkpt>
      <trkpt lat="45.77233" lon="5.31095">
        <ele>337</ele>
        <time>2020-05-16T13:58:51.063Z</time>
      </trkpt>
      <trkpt lat="45.77223" lon="5.31097">
        <ele>336</ele>
        <time>2020-05-16T13:58:52.063Z</time>
      </trkpt>
      <trkpt lat="45.77213" lon="5.31099">
        <ele>336</ele>
        <time>2020-05-16T13:58:53.063Z</time>
      </trkpt>
      <trkpt lat="45.77202" lon="5.31101">
        <ele>335</ele>
        <time>2020-05-16T13:58:54.063Z</time>
      </trkpt>
      <trkpt lat="45.77191" lon="5.31103">
        <ele>335</ele>
        <time>2020-05-16T13:58:55.063Z</time>
      </trkpt>
      <trkpt lat="45.77179" lon="5.31106">
        <ele>334</ele>
        <time>2020-05-16T13:58:56.063Z</time>
      </trkpt>
      <trkpt lat="45.77168" lon="5.31109">
        <ele>333</ele>
        <time>2020-05-16T13:58:57.063Z</time>
      </trkpt>
      <trkpt lat="45.77157" lon="5.31114">
        <ele>332</ele>
        <time>2020-05-16T13:58:58.063Z</time>
      </trkpt>
      <trkpt lat="45.77146" lon="5.31119">
        <ele>331</ele>
        <time>2020-05-16T13:58:59.063Z</time>
      </trkpt>
      <trkpt lat="45.77135" lon="5.31127">
        <ele>335</ele>
        <time>2020-05-16T13:59:00.063Z</time>
      </trkpt>
      <trkpt lat="45.77123" lon="5.31139">
        <ele>336</ele>
        <time>2020-05-16T13:59:01.063Z</time>
      </trkpt>
      <trkpt lat="45.77112" lon="5.31152">
        <ele>333</ele>
        <time>2020-05-16T13:59:02.063Z</time>
      </trkpt>
      <trkpt lat="45.77103" lon="5.31166">
        <ele>333</ele>
        <time>2020-05-16T13:59:03.063Z</time>
      </trkpt>
      <trkpt lat="45.77094" lon="5.31177">
        <ele>333</ele>
        <time>2020-05-16T13:59:04.063Z</time>
      </trkpt>
      <trkpt lat="45.77084" lon="5.31188">
        <ele>333</ele>
        <time>2020-05-16T13:59:05.063Z</time>
      </trkpt>
      <trkpt lat="45.77074" lon="5.31197">
        <ele>334</ele>
        <time>2020-05-16T13:59:06.063Z</time>
      </trkpt>
      <trkpt lat="45.77063" lon="5.31203">
        <ele>335</ele>
        <time>2020-05-16T13:59:07.063Z</time>
      </trkpt>
      <trkpt lat="45.77051" lon="5.31208">
        <ele>336</ele>
        <time>2020-05-16T13:59:08.063Z</time>
      </trkpt>
      <trkpt lat="45.7704" lon="5.31212">
        <ele>337</ele>
        <time>2020-05-16T13:59:09.063Z</time>
      </trkpt>
      <trkpt lat="45.77029" lon="5.31216">
        <ele>337</ele>
        <time>2020-05-16T13:59:10.063Z</time>
      </trkpt>
      <trkpt lat="45.77017" lon="5.31219">
        <ele>337</ele>
        <time>2020-05-16T13:59:11.063Z</time>
      </trkpt>
      <trkpt lat="45.77006" lon="5.31223">
        <ele>337</ele>
        <time>2020-05-16T13:59:12.063Z</time>
      </trkpt>
      <trkpt lat="45.76996" lon="5.31228">
        <ele>336</ele>
        <time>2020-05-16T13:59:13.063Z</time>
      </trkpt>
      <trkpt lat="45.76985" lon="5.31233">
        <ele>336</ele>
        <time>2020-05-16T13:59:14.063Z</time>
      </trkpt>
      <trkpt lat="45.76974" lon="5.31241">
        <ele>337</ele>
        <time>2020-05-16T13:59:15.063Z</time>
      </trkpt>
      <trkpt lat="45.76964" lon="5.31249">
        <ele>337</ele>
        <time>2020-05-16T13:59:16.063Z</time>
      </trkpt>
      <trkpt lat="45.76954" lon="5.31259">
        <ele>337</ele>
        <time>2020-05-16T13:59:17.063Z</time>
      </trkpt>
      <trkpt lat="45.76945" lon="5.3127">
        <ele>335</ele>
        <time>2020-05-16T13:59:18.063Z</time>
      </trkpt>
      <trkpt lat="45.76936" lon="5.31282">
        <ele>333</ele>
        <time>2020-05-16T13:59:19.063Z</time>
      </trkpt>
      <trkpt lat="45.76928" lon="5.31294">
        <ele>332</ele>
        <time>2020-05-16T13:59:20.063Z</time>
      </trkpt>
      <trkpt lat="45.76919" lon="5.31306">
        <ele>331</ele>
        <time>2020-05-16T13:59:21.063Z</time>
      </trkpt>
      <trkpt lat="45.7691" lon="5.31318">
        <ele>329</ele>
        <time>2020-05-16T13:59:22.063Z</time>
      </trkpt>
      <trkpt lat="45.76902" lon="5.3133">
        <ele>328</ele>
        <time>2020-05-16T13:59:23.063Z</time>
      </trkpt>
      <trkpt lat="45.76893" lon="5.31342">
        <ele>327</ele>
        <time>2020-05-16T13:59:24.063Z</time>
      </trkpt>
      <trkpt lat="45.76885" lon="5.31354">
        <ele>325</ele>
        <time>2020-05-16T13:59:25.063Z</time>
      </trkpt>
      <trkpt lat="45.76876" lon="5.31366">
        <ele>325</ele>
        <time>2020-05-16T13:59:26.063Z</time>
      </trkpt>
      <trkpt lat="45.76868" lon="5.31378">
        <ele>324</ele>
        <time>2020-05-16T13:59:27.063Z</time>
      </trkpt>
      <trkpt lat="45.7686" lon="5.31391">
        <ele>324</ele>
        <time>2020-05-16T13:59:28.063Z</time>
      </trkpt>
      <trkpt lat="45.76852" lon="5.31405">
        <ele>323</ele>
        <time>2020-05-16T13:59:29.063Z</time>
      </trkpt>
      <trkpt lat="45.76844" lon="5.3142">
        <ele>322</ele>
        <time>2020-05-16T13:59:30.063Z</time>
      </trkpt>
      <trkpt lat="45.76836" lon="5.31434">
        <ele>321</ele>
        <time>2020-05-16T13:59:31.063Z</time>
      </trkpt>
      <trkpt lat="45.76827" lon="5.31448">
        <ele>319</ele>
        <time>2020-05-16T13:59:32.063Z</time>
      </trkpt>
      <trkpt lat="45.76817" lon="5.31461">
        <ele>317</ele>
        <time>2020-05-16T13:59:33.063Z</time>
      </trkpt>
      <trkpt lat="45.76807" lon="5.31473">
        <ele>315</ele>
        <time>2020-05-16T13:59:34.063Z</time>
      </trkpt>
      <trkpt lat="45.76796" lon="5.31485">
        <ele>315</ele>
        <time>2020-05-16T13:59:35.063Z</time>
      </trkpt>
      <trkpt lat="45.76784" lon="5.31496">
        <ele>315</ele>
        <time>2020-05-16T13:59:36.063Z</time>
      </trkpt>
      <trkpt lat="45.76772" lon="5.31507">
        <ele>314</ele>
        <time>2020-05-16T13:59:37.063Z</time>
      </trkpt>
      <trkpt lat="45.76759" lon="5.31517">
        <ele>312</ele>
        <time>2020-05-16T13:59:38.063Z</time>
      </trkpt>
      <trkpt lat="45.76746" lon="5.31526">
        <ele>309</ele>
        <time>2020-05-16T13:59:39.063Z</time>
      </trkpt>
      <trkpt lat="45.76732" lon="5.31534">
        <ele>309</ele>
        <time>2020-05-16T13:59:40.063Z</time>
      </trkpt>
      <trkpt lat="45.76718" lon="5.31541">
        <ele>309</ele>
        <time>2020-05-16T13:59:41.063Z</time>
      </trkpt>
      <trkpt lat="45.76704" lon="5.31548">
        <ele>308</ele>
        <time>2020-05-16T13:59:42.063Z</time>
      </trkpt>
      <trkpt lat="45.7669" lon="5.31555">
        <ele>307</ele>
        <time>2020-05-16T13:59:43.063Z</time>
      </trkpt>
      <trkpt lat="45.76677" lon="5.31562">
        <ele>306</ele>
        <time>2020-05-16T13:59:44.063Z</time>
      </trkpt>
      <trkpt lat="45.76663" lon="5.31569">
        <ele>305</ele>
        <time>2020-05-16T13:59:45.063Z</time>
      </trkpt>
      <trkpt lat="45.7665" lon="5.31576">
        <ele>303</ele>
        <time>2020-05-16T13:59:46.063Z</time>
      </trkpt>
      <trkpt lat="45.76637" lon="5.31583">
        <ele>301</ele>
        <time>2020-05-16T13:59:47.063Z</time>
      </trkpt>
      <trkpt lat="45.76624" lon="5.31592">
        <ele>300</ele>
        <time>2020-05-16T13:59:48.063Z</time>
      </trkpt>
      <trkpt lat="45.76612" lon="5.31602">
        <ele>296</ele>
        <time>2020-05-16T13:59:49.063Z</time>
      </trkpt>
      <trkpt lat="45.76602" lon="5.31616">
        <ele>289</ele>
        <time>2020-05-16T13:59:50.063Z</time>
      </trkpt>
      <trkpt lat="45.76595" lon="5.31632">
        <ele>289</ele>
        <time>2020-05-16T13:59:51.063Z</time>
      </trkpt>
      <trkpt lat="45.76588" lon="5.3165">
        <ele>287</ele>
        <time>2020-05-16T13:59:52.063Z</time>
      </trkpt>
      <trkpt lat="45.7658" lon="5.31669">
        <ele>288</ele>
        <time>2020-05-16T13:59:53.063Z</time>
      </trkpt>
      <trkpt lat="45.76573" lon="5.31686">
        <ele>288</ele>
        <time>2020-05-16T13:59:54.063Z</time>
      </trkpt>
      <trkpt lat="45.76565" lon="5.31703">
        <ele>285</ele>
        <time>2020-05-16T13:59:55.063Z</time>
      </trkpt>
      <trkpt lat="45.76565" lon="5.31703">
        <ele>282</ele>
        <time>2020-05-16T14:00:00.063Z</time>
      </trkpt>
      <trkpt lat="45.76565" lon="5.31703">
        <ele>280</ele>
        <time>2020-05-16T14:00:01.063Z</time>
      </trkpt>
      <trkpt lat="45.76555" lon="5.31748">
        <ele>280</ele>
        <time>2020-05-16T14:00:02.063Z</time>
      </trkpt>
      <trkpt lat="45.76549" lon="5.31793">
        <ele>280</ele>
        <time>2020-05-16T14:00:03.063Z</time>
      </trkpt>
      <trkpt lat="45.76545" lon="5.31837">
        <ele>280</ele>
        <time>2020-05-16T14:00:04.063Z</time>
      </trkpt>
      <trkpt lat="45.76545" lon="5.31853">
        <ele>279</ele>
        <time>2020-05-16T14:00:05.063Z</time>
      </trkpt>
      <trkpt lat="45.76545" lon="5.31869">
        <ele>280</ele>
        <time>2020-05-16T14:00:06.063Z</time>
      </trkpt>
      <trkpt lat="45.76544" lon="5.31884">
        <ele>280</ele>
        <time>2020-05-16T14:00:07.063Z</time>
      </trkpt>
      <trkpt lat="45.76541" lon="5.31899">
        <ele>281</ele>
        <time>2020-05-16T14:00:08.063Z</time>
      </trkpt>
      <trkpt lat="45.76537" lon="5.31914">
        <ele>282</ele>
        <time>2020-05-16T14:00:09.063Z</time>
      </trkpt>
      <trkpt lat="45.76533" lon="5.31929">
        <ele>283</ele>
        <time>2020-05-16T14:00:10.063Z</time>
      </trkpt>
      <trkpt lat="45.76531" lon="5.31944">
        <ele>283</ele>
        <time>2020-05-16T14:00:11.063Z</time>
      </trkpt>
      <trkpt lat="45.76529" lon="5.31958">
        <ele>283</ele>
        <time>2020-05-16T14:00:12.063Z</time>
      </trkpt>
      <trkpt lat="45.76525" lon="5.31972">
        <ele>282</ele>
        <time>2020-05-16T14:00:13.063Z</time>
      </trkpt>
      <trkpt lat="45.76518" lon="5.31984">
        <ele>282</ele>
        <time>2020-05-16T14:00:14.063Z</time>
      </trkpt>
      <trkpt lat="45.76511" lon="5.31994">
        <ele>281</ele>
        <time>2020-05-16T14:00:15.063Z</time>
      </trkpt>
      <trkpt lat="45.76504" lon="5.32004">
        <ele>281</ele>
        <time>2020-05-16T14:00:16.063Z</time>
      </trkpt>
      <trkpt lat="45.76498" lon="5.32013">
        <ele>280</ele>
        <time>2020-05-16T14:00:17.063Z</time>
      </trkpt>
      <trkpt lat="45.76492" lon="5.32022">
        <ele>279</ele>
        <time>2020-05-16T14:00:18.063Z</time>
      </trkpt>
      <trkpt lat="45.76485" lon="5.32031">
        <ele>279</ele>
        <time>2020-05-16T14:00:19.063Z</time>
      </trkpt>
      <trkpt lat="45.76478" lon="5.3204">
        <ele>278</ele>
        <time>2020-05-16T14:00:20.063Z</time>
      </trkpt>
      <trkpt lat="45.76471" lon="5.32049">
        <ele>278</ele>
        <time>2020-05-16T14:00:21.063Z</time>
      </trkpt>
      <trkpt lat="45.76464" lon="5.32058">
        <ele>278</ele>
        <time>2020-05-16T14:00:22.063Z</time>
      </trkpt>
      <trkpt lat="45.76457" lon="5.32067">
        <ele>277</ele>
        <time>2020-05-16T14:00:23.063Z</time>
      </trkpt>
      <trkpt lat="45.76451" lon="5.32076">
        <ele>277</ele>
        <time>2020-05-16T14:00:24.063Z</time>
      </trkpt>
      <trkpt lat="45.76445" lon="5.32086">
        <ele>277</ele>
        <time>2020-05-16T14:00:25.063Z</time>
      </trkpt>
      <trkpt lat="45.76439" lon="5.32095">
        <ele>277</ele>
        <time>2020-05-16T14:00:26.063Z</time>
      </trkpt>
      <trkpt lat="45.76433" lon="5.32104">
        <ele>277</ele>
        <time>2020-05-16T14:00:27.063Z</time>
      </trkpt>
      <trkpt lat="45.76426" lon="5.32113">
        <ele>276</ele>
        <time>2020-05-16T14:00:28.063Z</time>
      </trkpt>
      <trkpt lat="45.76419" lon="5.32121">
        <ele>276</ele>
        <time>2020-05-16T14:00:29.063Z</time>
      </trkpt>
      <trkpt lat="45.76411" lon="5.32129">
        <ele>275</ele>
        <time>2020-05-16T14:00:30.063Z</time>
      </trkpt>
      <trkpt lat="45.76403" lon="5.32136">
        <ele>275</ele>
        <time>2020-05-16T14:00:31.063Z</time>
      </trkpt>
      <trkpt lat="45.76395" lon="5.32142">
        <ele>275</ele>
        <time>2020-05-16T14:00:32.063Z</time>
      </trkpt>
      <trkpt lat="45.76387" lon="5.32148">
        <ele>276</ele>
        <time>2020-05-16T14:00:33.063Z</time>
      </trkpt>
      <trkpt lat="45.7638" lon="5.32154">
        <ele>275</ele>
        <time>2020-05-16T14:00:34.063Z</time>
      </trkpt>
      <trkpt lat="45.76373" lon="5.3216">
        <ele>276</ele>
        <time>2020-05-16T14:00:35.063Z</time>
      </trkpt>
      <trkpt lat="45.76367" lon="5.32166">
        <ele>275</ele>
        <time>2020-05-16T14:00:36.063Z</time>
      </trkpt>
      <trkpt lat="45.76362" lon="5.32174">
        <ele>276</ele>
        <time>2020-05-16T14:00:37.063Z</time>
      </trkpt>
      <trkpt lat="45.76358" lon="5.32184">
        <ele>276</ele>
        <time>2020-05-16T14:00:38.063Z</time>
      </trkpt>
      <trkpt lat="45.76355" lon="5.32195">
        <ele>276</ele>
        <time>2020-05-16T14:00:39.063Z</time>
      </trkpt>
      <trkpt lat="45.76352" lon="5.32206">
        <ele>277</ele>
        <time>2020-05-16T14:00:40.063Z</time>
      </trkpt>
      <trkpt lat="45.7635" lon="5.32217">
        <ele>278</ele>
        <time>2020-05-16T14:00:41.063Z</time>
      </trkpt>
      <trkpt lat="45.76346" lon="5.32226">
        <ele>278</ele>
        <time>2020-05-16T14:00:42.063Z</time>
      </trkpt>
      <trkpt lat="45.76341" lon="5.32234">
        <ele>279</ele>
        <time>2020-05-16T14:00:43.063Z</time>
      </trkpt>
      <trkpt lat="45.76337" lon="5.32242">
        <ele>280</ele>
        <time>2020-05-16T14:00:44.063Z</time>
      </trkpt>
      <trkpt lat="45.76333" lon="5.3225">
        <ele>280</ele>
        <time>2020-05-16T14:00:45.063Z</time>
      </trkpt>
      <trkpt lat="45.76331" lon="5.32258">
        <ele>282</ele>
        <time>2020-05-16T14:00:46.063Z</time>
      </trkpt>
      <trkpt lat="45.7633" lon="5.32266">
        <ele>283</ele>
        <time>2020-05-16T14:00:47.063Z</time>
      </trkpt>
      <trkpt lat="45.76329" lon="5.32272">
        <ele>283</ele>
        <time>2020-05-16T14:00:48.063Z</time>
      </trkpt>
      <trkpt lat="45.76327" lon="5.32277">
        <ele>283</ele>
        <time>2020-05-16T14:00:49.063Z</time>
      </trkpt>
      <trkpt lat="45.76325" lon="5.3228">
        <ele>283</ele>
        <time>2020-05-16T14:00:50.063Z</time>
      </trkpt>
      <trkpt lat="45.76322" lon="5.32283">
        <ele>283</ele>
        <time>2020-05-16T14:00:51.063Z</time>
      </trkpt>
      <trkpt lat="45.76319" lon="5.32285">
        <ele>284</ele>
        <time>2020-05-16T14:00:52.063Z</time>
      </trkpt>
      <trkpt lat="45.76315" lon="5.32287">
        <ele>283</ele>
        <time>2020-05-16T14:00:53.063Z</time>
      </trkpt>
      <trkpt lat="45.76311" lon="5.3229">
        <ele>284</ele>
        <time>2020-05-16T14:00:54.063Z</time>
      </trkpt>
      <trkpt lat="45.76307" lon="5.32292">
        <ele>284</ele>
        <time>2020-05-16T14:00:55.063Z</time>
      </trkpt>
      <trkpt lat="45.76303" lon="5.32294">
        <ele>284</ele>
        <time>2020-05-16T14:00:56.063Z</time>
      </trkpt>
      <trkpt lat="45.76298" lon="5.32296">
        <ele>284</ele>
        <time>2020-05-16T14:00:57.063Z</time>
      </trkpt>
      <trkpt lat="45.76294" lon="5.32298">
        <ele>285</ele>
        <time>2020-05-16T14:00:58.063Z</time>
      </trkpt>
      <trkpt lat="45.7629" lon="5.32299">
        <ele>285</ele>
        <time>2020-05-16T14:00:59.063Z</time>
      </trkpt>
      <trkpt lat="45.76285" lon="5.323">
        <ele>284</ele>
        <time>2020-05-16T14:01:00.063Z</time>
      </trkpt>
      <trkpt lat="45.7628" lon="5.32302">
        <ele>284</ele>
        <time>2020-05-16T14:01:01.063Z</time>
      </trkpt>
      <trkpt lat="45.76275" lon="5.32303">
        <ele>284</ele>
        <time>2020-05-16T14:01:02.063Z</time>
      </trkpt>
      <trkpt lat="45.7627" lon="5.32305">
        <ele>283</ele>
        <time>2020-05-16T14:01:03.063Z</time>
      </trkpt>
      <trkpt lat="45.76264" lon="5.32307">
        <ele>283</ele>
        <time>2020-05-16T14:01:04.063Z</time>
      </trkpt>
      <trkpt lat="45.76259" lon="5.32309">
        <ele>283</ele>
        <time>2020-05-16T14:01:05.063Z</time>
      </trkpt>
      <trkpt lat="45.76253" lon="5.32311">
        <ele>283</ele>
        <time>2020-05-16T14:01:06.063Z</time>
      </trkpt>
      <trkpt lat="45.76247" lon="5.32313">
        <ele>283</ele>
        <time>2020-05-16T14:01:07.063Z</time>
      </trkpt>
      <trkpt lat="45.76241" lon="5.32316">
        <ele>283</ele>
        <time>2020-05-16T14:01:08.063Z</time>
      </trkpt>
      <trkpt lat="45.76234" lon="5.32319">
        <ele>283</ele>
        <time>2020-05-16T14:01:09.063Z</time>
      </trkpt>
      <trkpt lat="45.76228" lon="5.32322">
        <ele>283</ele>
        <time>2020-05-16T14:01:10.063Z</time>
      </trkpt>
      <trkpt lat="45.76222" lon="5.32326">
        <ele>283</ele>
        <time>2020-05-16T14:01:11.063Z</time>
      </trkpt>
      <trkpt lat="45.76216" lon="5.3233">
        <ele>282</ele>
        <time>2020-05-16T14:01:12.063Z</time>
      </trkpt>
      <trkpt lat="45.76209" lon="5.32334">
        <ele>282</ele>
        <time>2020-05-16T14:01:13.063Z</time>
      </trkpt>
      <trkpt lat="45.76203" lon="5.32339">
        <ele>282</ele>
        <time>2020-05-16T14:01:14.063Z</time>
      </trkpt>
      <trkpt lat="45.76197" lon="5.32343">
        <ele>282</ele>
        <time>2020-05-16T14:01:15.063Z</time>
      </trkpt>
      <trkpt lat="45.76191" lon="5.32349">
        <ele>282</ele>
        <time>2020-05-16T14:01:16.063Z</time>
      </trkpt>
      <trkpt lat="45.76186" lon="5.32355">
        <ele>282</ele>
        <time>2020-05-16T14:01:17.063Z</time>
      </trkpt>
      <trkpt lat="45.76181" lon="5.32361">
        <ele>282</ele>
        <time>2020-05-16T14:01:18.063Z</time>
      </trkpt>
      <trkpt lat="45.76176" lon="5.32368">
        <ele>281</ele>
        <time>2020-05-16T14:01:19.063Z</time>
      </trkpt>
      <trkpt lat="45.76172" lon="5.32375">
        <ele>282</ele>
        <time>2020-05-16T14:01:20.063Z</time>
      </trkpt>
      <trkpt lat="45.76168" lon="5.32383">
        <ele>281</ele>
        <time>2020-05-16T14:01:21.063Z</time>
      </trkpt>
      <trkpt lat="45.76164" lon="5.32391">
        <ele>281</ele>
        <time>2020-05-16T14:01:22.063Z</time>
      </trkpt>
      <trkpt lat="45.76161" lon="5.324">
        <ele>281</ele>
        <time>2020-05-16T14:01:23.063Z</time>
      </trkpt>
      <trkpt lat="45.76159" lon="5.32409">
        <ele>281</ele>
        <time>2020-05-16T14:01:24.063Z</time>
      </trkpt>
      <trkpt lat="45.76157" lon="5.32417">
        <ele>281</ele>
        <time>2020-05-16T14:01:25.063Z</time>
      </trkpt>
      <trkpt lat="45.76155" lon="5.32426">
        <ele>281</ele>
        <time>2020-05-16T14:01:26.063Z</time>
      </trkpt>
      <trkpt lat="45.76153" lon="5.32435">
        <ele>281</ele>
        <time>2020-05-16T14:01:27.063Z</time>
      </trkpt>
      <trkpt lat="45.76151" lon="5.32443">
        <ele>281</ele>
        <time>2020-05-16T14:01:28.063Z</time>
      </trkpt>
      <trkpt lat="45.76149" lon="5.32451">
        <ele>281</ele>
        <time>2020-05-16T14:01:29.063Z</time>
      </trkpt>
      <trkpt lat="45.76147" lon="5.32459">
        <ele>281</ele>
        <time>2020-05-16T14:01:30.063Z</time>
      </trkpt>
      <trkpt lat="45.76144" lon="5.32467">
        <ele>281</ele>
        <time>2020-05-16T14:01:31.063Z</time>
      </trkpt>
      <trkpt lat="45.7614" lon="5.32474">
        <ele>281</ele>
        <time>2020-05-16T14:01:32.063Z</time>
      </trkpt>
      <trkpt lat="45.76136" lon="5.3248">
        <ele>281</ele>
        <time>2020-05-16T14:01:33.063Z</time>
      </trkpt>
      <trkpt lat="45.76131" lon="5.32486">
        <ele>281</ele>
        <time>2020-05-16T14:01:34.063Z</time>
      </trkpt>
      <trkpt lat="45.76127" lon="5.32492">
        <ele>281</ele>
        <time>2020-05-16T14:01:35.063Z</time>
      </trkpt>
      <trkpt lat="45.76122" lon="5.32497">
        <ele>281</ele>
        <time>2020-05-16T14:01:36.063Z</time>
      </trkpt>
      <trkpt lat="45.76117" lon="5.32502">
        <ele>281</ele>
        <time>2020-05-16T14:01:37.063Z</time>
      </trkpt>
      <trkpt lat="45.76112" lon="5.32506">
        <ele>281</ele>
        <time>2020-05-16T14:01:38.063Z</time>
      </trkpt>
      <trkpt lat="45.76107" lon="5.3251">
        <ele>281</ele>
        <time>2020-05-16T14:01:39.063Z</time>
      </trkpt>
      <trkpt lat="45.76101" lon="5.32514">
        <ele>282</ele>
        <time>2020-05-16T14:01:40.063Z</time>
      </trkpt>
      <trkpt lat="45.76096" lon="5.32517">
        <ele>282</ele>
        <time>2020-05-16T14:01:41.063Z</time>
      </trkpt>
      <trkpt lat="45.7609" lon="5.32521">
        <ele>282</ele>
        <time>2020-05-16T14:01:42.063Z</time>
      </trkpt>
      <trkpt lat="45.76085" lon="5.32523">
        <ele>282</ele>
        <time>2020-05-16T14:01:43.063Z</time>
      </trkpt>
      <trkpt lat="45.76079" lon="5.32525">
        <ele>282</ele>
        <time>2020-05-16T14:01:44.063Z</time>
      </trkpt>
      <trkpt lat="45.76073" lon="5.32527">
        <ele>282</ele>
        <time>2020-05-16T14:01:45.063Z</time>
      </trkpt>
      <trkpt lat="45.76067" lon="5.32528">
        <ele>282</ele>
        <time>2020-05-16T14:01:46.063Z</time>
      </trkpt>
      <trkpt lat="45.76061" lon="5.32529">
        <ele>282</ele>
        <time>2020-05-16T14:01:47.063Z</time>
      </trkpt>
      <trkpt lat="45.76055" lon="5.32529">
        <ele>282</ele>
        <time>2020-05-16T14:01:48.063Z</time>
      </trkpt>
      <trkpt lat="45.76049" lon="5.32529">
        <ele>282</ele>
        <time>2020-05-16T14:01:49.063Z</time>
      </trkpt>
      <trkpt lat="45.76043" lon="5.32529">
        <ele>281</ele>
        <time>2020-05-16T14:01:50.063Z</time>
      </trkpt>
      <trkpt lat="45.76037" lon="5.3253">
        <ele>281</ele>
        <time>2020-05-16T14:01:51.063Z</time>
      </trkpt>
      <trkpt lat="45.76031" lon="5.32531">
        <ele>281</ele>
        <time>2020-05-16T14:01:52.063Z</time>
      </trkpt>
      <trkpt lat="45.76025" lon="5.32533">
        <ele>281</ele>
        <time>2020-05-16T14:01:53.063Z</time>
      </trkpt>
      <trkpt lat="45.76019" lon="5.32535">
        <ele>281</ele>
        <time>2020-05-16T14:01:54.063Z</time>
      </trkpt>
      <trkpt lat="45.76013" lon="5.32537">
        <ele>281</ele>
        <time>2020-05-16T14:01:55.063Z</time>
      </trkpt>
      <trkpt lat="45.76008" lon="5.32541">
        <ele>281</ele>
        <time>2020-05-16T14:01:56.063Z</time>
      </trkpt>
      <trkpt lat="45.76003" lon="5.32544">
        <ele>281</ele>
        <time>2020-05-16T14:01:57.063Z</time>
      </trkpt>
      <trkpt lat="45.75998" lon="5.32547">
        <ele>281</ele>
        <time>2020-05-16T14:01:58.063Z</time>
      </trkpt>
      <trkpt lat="45.75993" lon="5.32551">
        <ele>281</ele>
        <time>2020-05-16T14:01:59.063Z</time>
      </trkpt>
      <trkpt lat="45.75988" lon="5.32556">
        <ele>281</ele>
        <time>2020-05-16T14:02:00.063Z</time>
      </trkpt>
      <trkpt lat="45.75983" lon="5.32561">
        <ele>281</ele>
        <time>2020-05-16T14:02:01.063Z</time>
      </trkpt>
      <trkpt lat="45.75978" lon="5.32567">
        <ele>281</ele>
        <time>2020-05-16T14:02:02.063Z</time>
      </trkpt>
      <trkpt lat="45.75973" lon="5.32572">
        <ele>281</ele>
        <time>2020-05-16T14:02:03.063Z</time>
      </trkpt>
      <trkpt lat="45.75968" lon="5.32578">
        <ele>281</ele>
        <time>2020-05-16T14:02:04.063Z</time>
      </trkpt>
      <trkpt lat="45.75963" lon="5.32583">
        <ele>281</ele>
        <time>2020-05-16T14:02:05.063Z</time>
      </trkpt>
      <trkpt lat="45.75958" lon="5.32588">
        <ele>281</ele>
        <time>2020-05-16T14:02:06.063Z</time>
      </trkpt>
      <trkpt lat="45.75954" lon="5.32594">
        <ele>281</ele>
        <time>2020-05-16T14:02:07.063Z</time>
      </trkpt>
      <trkpt lat="45.75949" lon="5.32599">
        <ele>281</ele>
        <time>2020-05-16T14:02:08.063Z</time>
      </trkpt>
      <trkpt lat="45.75944" lon="5.32604">
        <ele>282</ele>
        <time>2020-05-16T14:02:09.063Z</time>
      </trkpt>
      <trkpt lat="45.75939" lon="5.32609">
        <ele>281</ele>
        <time>2020-05-16T14:02:10.063Z</time>
      </trkpt>
      <trkpt lat="45.75935" lon="5.32614">
        <ele>281</ele>
        <time>2020-05-16T14:02:11.063Z</time>
      </trkpt>
      <trkpt lat="45.7593" lon="5.32619">
        <ele>282</ele>
        <time>2020-05-16T14:02:12.063Z</time>
      </trkpt>
      <trkpt lat="45.75926" lon="5.32624">
        <ele>282</ele>
        <time>2020-05-16T14:02:13.063Z</time>
      </trkpt>
      <trkpt lat="45.75921" lon="5.32629">
        <ele>282</ele>
        <time>2020-05-16T14:02:14.063Z</time>
      </trkpt>
      <trkpt lat="45.75917" lon="5.32634">
        <ele>282</ele>
        <time>2020-05-16T14:02:15.063Z</time>
      </trkpt>
      <trkpt lat="45.75912" lon="5.32638">
        <ele>282</ele>
        <time>2020-05-16T14:02:16.063Z</time>
      </trkpt>
      <trkpt lat="45.75908" lon="5.32643">
        <ele>282</ele>
        <time>2020-05-16T14:02:17.063Z</time>
      </trkpt>
      <trkpt lat="45.75903" lon="5.32648">
        <ele>282</ele>
        <time>2020-05-16T14:02:18.063Z</time>
      </trkpt>
      <trkpt lat="45.75899" lon="5.32653">
        <ele>282</ele>
        <time>2020-05-16T14:02:19.063Z</time>
      </trkpt>
      <trkpt lat="45.75895" lon="5.32658">
        <ele>282</ele>
        <time>2020-05-16T14:02:20.063Z</time>
      </trkpt>
      <trkpt lat="45.7589" lon="5.32662">
        <ele>282</ele>
        <time>2020-05-16T14:02:21.063Z</time>
      </trkpt>
      <trkpt lat="45.75886" lon="5.32667">
        <ele>282</ele>
        <time>2020-05-16T14:02:22.063Z</time>
      </trkpt>
      <trkpt lat="45.75881" lon="5.32672">
        <ele>282</ele>
        <time>2020-05-16T14:02:23.063Z</time>
      </trkpt>
      <trkpt lat="45.75877" lon="5.32677">
        <ele>282</ele>
        <time>2020-05-16T14:02:24.063Z</time>
      </trkpt>
      <trkpt lat="45.75872" lon="5.32682">
        <ele>282</ele>
        <time>2020-05-16T14:02:25.063Z</time>
      </trkpt>
      <trkpt lat="45.75868" lon="5.32687">
        <ele>282</ele>
        <time>2020-05-16T14:02:26.063Z</time>
      </trkpt>
      <trkpt lat="45.75863" lon="5.32692">
        <ele>282</ele>
        <time>2020-05-16T14:02:27.063Z</time>
      </trkpt>
      <trkpt lat="45.75859" lon="5.32696">
        <ele>282</ele>
        <time>2020-05-16T14:02:28.063Z</time>
      </trkpt>
      <trkpt lat="45.75854" lon="5.32701">
        <ele>282</ele>
        <time>2020-05-16T14:02:29.063Z</time>
      </trkpt>
      <trkpt lat="45.75849" lon="5.32707">
        <ele>282</ele>
        <time>2020-05-16T14:02:30.063Z</time>
      </trkpt>
      <trkpt lat="45.75845" lon="5.32712">
        <ele>282</ele>
        <time>2020-05-16T14:02:31.063Z</time>
      </trkpt>
      <trkpt lat="45.7584" lon="5.32718">
        <ele>282</ele>
        <time>2020-05-16T14:02:32.063Z</time>
      </trkpt>
      <trkpt lat="45.75835" lon="5.32723">
        <ele>283</ele>
        <time>2020-05-16T14:02:33.063Z</time>
      </trkpt>
      <trkpt lat="45.7583" lon="5.32728">
        <ele>283</ele>
        <time>2020-05-16T14:02:34.063Z</time>
      </trkpt>
      <trkpt lat="45.75825" lon="5.32733">
        <ele>283</ele>
        <time>2020-05-16T14:02:35.063Z</time>
      </trkpt>
      <trkpt lat="45.7582" lon="5.32739">
        <ele>282</ele>
        <time>2020-05-16T14:02:36.063Z</time>
      </trkpt>
      <trkpt lat="45.75815" lon="5.32744">
        <ele>282</ele>
        <time>2020-05-16T14:02:37.063Z</time>
      </trkpt>
      <trkpt lat="45.7581" lon="5.32749">
        <ele>282</ele>
        <time>2020-05-16T14:02:38.063Z</time>
      </trkpt>
      <trkpt lat="45.75806" lon="5.32755">
        <ele>282</ele>
        <time>2020-05-16T14:02:39.063Z</time>
      </trkpt>
      <trkpt lat="45.75801" lon="5.3276">
        <ele>282</ele>
        <time>2020-05-16T14:02:40.063Z</time>
      </trkpt>
      <trkpt lat="45.75796" lon="5.32765">
        <ele>282</ele>
        <time>2020-05-16T14:02:41.063Z</time>
      </trkpt>
      <trkpt lat="45.75791" lon="5.3277">
        <ele>282</ele>
        <time>2020-05-16T14:02:42.063Z</time>
      </trkpt>
      <trkpt lat="45.75786" lon="5.32776">
        <ele>282</ele>
        <time>2020-05-16T14:02:43.063Z</time>
      </trkpt>
      <trkpt lat="45.7578" lon="5.32781">
        <ele>282</ele>
        <time>2020-05-16T14:02:44.063Z</time>
      </trkpt>
      <trkpt lat="45.75775" lon="5.32787">
        <ele>282</ele>
        <time>2020-05-16T14:02:45.063Z</time>
      </trkpt>
      <trkpt lat="45.7577" lon="5.32793">
        <ele>282</ele>
        <time>2020-05-16T14:02:46.063Z</time>
      </trkpt>
      <trkpt lat="45.75765" lon="5.32798">
        <ele>282</ele>
        <time>2020-05-16T14:02:47.063Z</time>
      </trkpt>
      <trkpt lat="45.7576" lon="5.32804">
        <ele>282</ele>
        <time>2020-05-16T14:02:48.063Z</time>
      </trkpt>
      <trkpt lat="45.75755" lon="5.32809">
        <ele>282</ele>
        <time>2020-05-16T14:02:49.063Z</time>
      </trkpt>
      <trkpt lat="45.7575" lon="5.32815">
        <ele>282</ele>
        <time>2020-05-16T14:02:50.063Z</time>
      </trkpt>
      <trkpt lat="45.75744" lon="5.3282">
        <ele>282</ele>
        <time>2020-05-16T14:02:51.063Z</time>
      </trkpt>
      <trkpt lat="45.75739" lon="5.32826">
        <ele>282</ele>
        <time>2020-05-16T14:02:52.063Z</time>
      </trkpt>
      <trkpt lat="45.75734" lon="5.32832">
        <ele>282</ele>
        <time>2020-05-16T14:02:53.063Z</time>
      </trkpt>
      <trkpt lat="45.75729" lon="5.32837">
        <ele>282</ele>
        <time>2020-05-16T14:02:54.063Z</time>
      </trkpt>
      <trkpt lat="45.75724" lon="5.32843">
        <ele>282</ele>
        <time>2020-05-16T14:02:55.063Z</time>
      </trkpt>
      <trkpt lat="45.75719" lon="5.32849">
        <ele>282</ele>
        <time>2020-05-16T14:02:56.063Z</time>
      </trkpt>
      <trkpt lat="45.75714" lon="5.32854">
        <ele>282</ele>
        <time>2020-05-16T14:02:57.063Z</time>
      </trkpt>
      <trkpt lat="45.75708" lon="5.3286">
        <ele>282</ele>
        <time>2020-05-16T14:02:58.063Z</time>
      </trkpt>
      <trkpt lat="45.75703" lon="5.32866">
        <ele>282</ele>
        <time>2020-05-16T14:02:59.063Z</time>
      </trkpt>
      <trkpt lat="45.75698" lon="5.32871">
        <ele>281</ele>
        <time>2020-05-16T14:03:00.063Z</time>
      </trkpt>
      <trkpt lat="45.75693" lon="5.32877">
        <ele>281</ele>
        <time>2020-05-16T14:03:01.063Z</time>
      </trkpt>
      <trkpt lat="45.75688" lon="5.32882">
        <ele>281</ele>
        <time>2020-05-16T14:03:02.063Z</time>
      </trkpt>
      <trkpt lat="45.75683" lon="5.32888">
        <ele>281</ele>
        <time>2020-05-16T14:03:03.063Z</time>
      </trkpt>
      <trkpt lat="45.75679" lon="5.32894">
        <ele>281</ele>
        <time>2020-05-16T14:03:04.063Z</time>
      </trkpt>
      <trkpt lat="45.75675" lon="5.329">
        <ele>281</ele>
        <time>2020-05-16T14:03:05.063Z</time>
      </trkpt>
      <trkpt lat="45.75671" lon="5.32905">
        <ele>281</ele>
        <time>2020-05-16T14:03:06.063Z</time>
      </trkpt>
      <trkpt lat="45.75667" lon="5.3291">
        <ele>281</ele>
        <time>2020-05-16T14:03:07.063Z</time>
      </trkpt>
      <trkpt lat="45.75662" lon="5.32913">
        <ele>281</ele>
        <time>2020-05-16T14:03:08.063Z</time>
      </trkpt>
      <trkpt lat="45.75657" lon="5.32915">
        <ele>281</ele>
        <time>2020-05-16T14:03:09.063Z</time>
      </trkpt>
      <trkpt lat="45.75651" lon="5.32916">
        <ele>281</ele>
        <time>2020-05-16T14:03:10.063Z</time>
      </trkpt>
      <trkpt lat="45.75645" lon="5.32917">
        <ele>281</ele>
        <time>2020-05-16T14:03:11.063Z</time>
      </trkpt>
      <trkpt lat="45.75639" lon="5.32919">
        <ele>281</ele>
        <time>2020-05-16T14:03:12.063Z</time>
      </trkpt>
      <trkpt lat="45.75633" lon="5.3292">
        <ele>281</ele>
        <time>2020-05-16T14:03:13.063Z</time>
      </trkpt>
      <trkpt lat="45.75627" lon="5.32922">
        <ele>281</ele>
        <time>2020-05-16T14:03:14.063Z</time>
      </trkpt>
      <trkpt lat="45.7562" lon="5.32923">
        <ele>281</ele>
        <time>2020-05-16T14:03:15.063Z</time>
      </trkpt>
      <trkpt lat="45.75614" lon="5.32926">
        <ele>281</ele>
        <time>2020-05-16T14:03:16.063Z</time>
      </trkpt>
      <trkpt lat="45.75608" lon="5.32927">
        <ele>281</ele>
        <time>2020-05-16T14:03:17.063Z</time>
      </trkpt>
      <trkpt lat="45.75602" lon="5.32929">
        <ele>281</ele>
        <time>2020-05-16T14:03:18.063Z</time>
      </trkpt>
      <trkpt lat="45.75595" lon="5.32931">
        <ele>282</ele>
        <time>2020-05-16T14:03:19.063Z</time>
      </trkpt>
      <trkpt lat="45.75589" lon="5.32933">
        <ele>282</ele>
        <time>2020-05-16T14:03:20.063Z</time>
      </trkpt>
      <trkpt lat="45.75583" lon="5.32935">
        <ele>281</ele>
        <time>2020-05-16T14:03:21.063Z</time>
      </trkpt>
      <trkpt lat="45.75577" lon="5.32936">
        <ele>281</ele>
        <time>2020-05-16T14:03:22.063Z</time>
      </trkpt>
      <trkpt lat="45.75571" lon="5.32938">
        <ele>282</ele>
        <time>2020-05-16T14:03:23.063Z</time>
      </trkpt>
      <trkpt lat="45.75564" lon="5.3294">
        <ele>282</ele>
        <time>2020-05-16T14:03:24.063Z</time>
      </trkpt>
      <trkpt lat="45.75558" lon="5.32942">
        <ele>282</ele>
        <time>2020-05-16T14:03:25.063Z</time>
      </trkpt>
      <trkpt lat="45.75553" lon="5.32944">
        <ele>282</ele>
        <time>2020-05-16T14:03:26.063Z</time>
      </trkpt>
      <trkpt lat="45.75547" lon="5.32945">
        <ele>283</ele>
        <time>2020-05-16T14:03:27.063Z</time>
      </trkpt>
      <trkpt lat="45.75541" lon="5.32947">
        <ele>283</ele>
        <time>2020-05-16T14:03:28.063Z</time>
      </trkpt>
      <trkpt lat="45.75536" lon="5.32949">
        <ele>283</ele>
        <time>2020-05-16T14:03:29.063Z</time>
      </trkpt>
      <trkpt lat="45.7553" lon="5.32951">
        <ele>283</ele>
        <time>2020-05-16T14:03:30.063Z</time>
      </trkpt>
      <trkpt lat="45.75524" lon="5.32953">
        <ele>283</ele>
        <time>2020-05-16T14:03:31.063Z</time>
      </trkpt>
      <trkpt lat="45.75519" lon="5.32955">
        <ele>283</ele>
        <time>2020-05-16T14:03:32.063Z</time>
      </trkpt>
      <trkpt lat="45.75513" lon="5.32956">
        <ele>284</ele>
        <time>2020-05-16T14:03:33.063Z</time>
      </trkpt>
      <trkpt lat="45.75508" lon="5.32958">
        <ele>284</ele>
        <time>2020-05-16T14:03:34.063Z</time>
      </trkpt>
      <trkpt lat="45.75503" lon="5.3296">
        <ele>284</ele>
        <time>2020-05-16T14:03:35.063Z</time>
      </trkpt>
      <trkpt lat="45.75498" lon="5.32961">
        <ele>284</ele>
        <time>2020-05-16T14:03:36.063Z</time>
      </trkpt>
      <trkpt lat="45.75493" lon="5.32962">
        <ele>284</ele>
        <time>2020-05-16T14:03:37.063Z</time>
      </trkpt>
      <trkpt lat="45.75488" lon="5.32963">
        <ele>284</ele>
        <time>2020-05-16T14:03:38.063Z</time>
      </trkpt>
      <trkpt lat="45.75483" lon="5.32964">
        <ele>284</ele>
        <time>2020-05-16T14:03:39.063Z</time>
      </trkpt>
      <trkpt lat="45.75478" lon="5.32966">
        <ele>284</ele>
        <time>2020-05-16T14:03:40.063Z</time>
      </trkpt>
      <trkpt lat="45.75473" lon="5.32967">
        <ele>284</ele>
        <time>2020-05-16T14:03:41.063Z</time>
      </trkpt>
      <trkpt lat="45.75468" lon="5.32968">
        <ele>284</ele>
        <time>2020-05-16T14:03:42.063Z</time>
      </trkpt>
      <trkpt lat="45.75463" lon="5.3297">
        <ele>284</ele>
        <time>2020-05-16T14:03:43.063Z</time>
      </trkpt>
      <trkpt lat="45.75457" lon="5.32971">
        <ele>284</ele>
        <time>2020-05-16T14:03:44.063Z</time>
      </trkpt>
      <trkpt lat="45.75452" lon="5.32973">
        <ele>284</ele>
        <time>2020-05-16T14:03:45.063Z</time>
      </trkpt>
      <trkpt lat="45.75446" lon="5.32975">
        <ele>284</ele>
        <time>2020-05-16T14:03:46.063Z</time>
      </trkpt>
      <trkpt lat="45.75441" lon="5.32977">
        <ele>284</ele>
        <time>2020-05-16T14:03:47.063Z</time>
      </trkpt>
      <trkpt lat="45.75435" lon="5.32978">
        <ele>284</ele>
        <time>2020-05-16T14:03:48.063Z</time>
      </trkpt>
      <trkpt lat="45.7543" lon="5.3298">
        <ele>284</ele>
        <time>2020-05-16T14:03:49.063Z</time>
      </trkpt>
      <trkpt lat="45.75424" lon="5.32982">
        <ele>285</ele>
        <time>2020-05-16T14:03:50.063Z</time>
      </trkpt>
      <trkpt lat="45.75419" lon="5.32985">
        <ele>285</ele>
        <time>2020-05-16T14:03:51.063Z</time>
      </trkpt>
      <trkpt lat="45.75413" lon="5.32987">
        <ele>285</ele>
        <time>2020-05-16T14:03:52.063Z</time>
      </trkpt>
      <trkpt lat="45.75408" lon="5.3299">
        <ele>285</ele>
        <time>2020-05-16T14:03:53.063Z</time>
      </trkpt>
      <trkpt lat="45.75403" lon="5.32992">
        <ele>285</ele>
        <time>2020-05-16T14:03:54.063Z</time>
      </trkpt>
      <trkpt lat="45.75397" lon="5.32995">
        <ele>285</ele>
        <time>2020-05-16T14:03:55.063Z</time>
      </trkpt>
      <trkpt lat="45.75392" lon="5.32997">
        <ele>284</ele>
        <time>2020-05-16T14:03:56.063Z</time>
      </trkpt>
      <trkpt lat="45.75386" lon="5.32998">
        <ele>284</ele>
        <time>2020-05-16T14:03:57.063Z</time>
      </trkpt>
      <trkpt lat="45.7538" lon="5.32999">
        <ele>285</ele>
        <time>2020-05-16T14:03:58.063Z</time>
      </trkpt>
      <trkpt lat="45.75375" lon="5.32999">
        <ele>285</ele>
        <time>2020-05-16T14:03:59.063Z</time>
      </trkpt>
      <trkpt lat="45.75369" lon="5.33">
        <ele>285</ele>
        <time>2020-05-16T14:04:00.063Z</time>
      </trkpt>
      <trkpt lat="45.75363" lon="5.33">
        <ele>285</ele>
        <time>2020-05-16T14:04:01.063Z</time>
      </trkpt>
      <trkpt lat="45.75357" lon="5.33">
        <ele>285</ele>
        <time>2020-05-16T14:04:02.063Z</time>
      </trkpt>
      <trkpt lat="45.75351" lon="5.33001">
        <ele>285</ele>
        <time>2020-05-16T14:04:03.063Z</time>
      </trkpt>
      <trkpt lat="45.75346" lon="5.33001">
        <ele>285</ele>
        <time>2020-05-16T14:04:04.063Z</time>
      </trkpt>
      <trkpt lat="45.7534" lon="5.33001">
        <ele>285</ele>
        <time>2020-05-16T14:04:05.063Z</time>
      </trkpt>
      <trkpt lat="45.75334" lon="5.33001">
        <ele>285</ele>
        <time>2020-05-16T14:04:06.063Z</time>
      </trkpt>
      <trkpt lat="45.75329" lon="5.33002">
        <ele>285</ele>
        <time>2020-05-16T14:04:07.063Z</time>
      </trkpt>
      <trkpt lat="45.75323" lon="5.33002">
        <ele>285</ele>
        <time>2020-05-16T14:04:08.063Z</time>
      </trkpt>
      <trkpt lat="45.75317" lon="5.33002">
        <ele>286</ele>
        <time>2020-05-16T14:04:09.063Z</time>
      </trkpt>
      <trkpt lat="45.75311" lon="5.33002">
        <ele>286</ele>
        <time>2020-05-16T14:04:10.063Z</time>
      </trkpt>
      <trkpt lat="45.75305" lon="5.33002">
        <ele>286</ele>
        <time>2020-05-16T14:04:11.063Z</time>
      </trkpt>
      <trkpt lat="45.75299" lon="5.33002">
        <ele>286</ele>
        <time>2020-05-16T14:04:12.063Z</time>
      </trkpt>
      <trkpt lat="45.75293" lon="5.33002">
        <ele>286</ele>
        <time>2020-05-16T14:04:13.063Z</time>
      </trkpt>
      <trkpt lat="45.75287" lon="5.33001">
        <ele>286</ele>
        <time>2020-05-16T14:04:14.063Z</time>
      </trkpt>
      <trkpt lat="45.75281" lon="5.33001">
        <ele>286</ele>
        <time>2020-05-16T14:04:15.063Z</time>
      </trkpt>
      <trkpt lat="45.75275" lon="5.33001">
        <ele>285</ele>
        <time>2020-05-16T14:04:16.063Z</time>
      </trkpt>
      <trkpt lat="45.75269" lon="5.33">
        <ele>285</ele>
        <time>2020-05-16T14:04:17.063Z</time>
      </trkpt>
      <trkpt lat="45.75263" lon="5.32999">
        <ele>285</ele>
        <time>2020-05-16T14:04:18.063Z</time>
      </trkpt>
      <trkpt lat="45.75257" lon="5.32997">
        <ele>284</ele>
        <time>2020-05-16T14:04:19.063Z</time>
      </trkpt>
      <trkpt lat="45.7525" lon="5.32994">
        <ele>284</ele>
        <time>2020-05-16T14:04:20.063Z</time>
      </trkpt>
      <trkpt lat="45.75244" lon="5.32991">
        <ele>284</ele>
        <time>2020-05-16T14:04:21.063Z</time>
      </trkpt>
      <trkpt lat="45.75237" lon="5.32987">
        <ele>283</ele>
        <time>2020-05-16T14:04:22.063Z</time>
      </trkpt>
      <trkpt lat="45.7523" lon="5.32984">
        <ele>283</ele>
        <time>2020-05-16T14:04:23.063Z</time>
      </trkpt>
      <trkpt lat="45.75223" lon="5.32981">
        <ele>284</ele>
        <time>2020-05-16T14:04:24.063Z</time>
      </trkpt>
      <trkpt lat="45.75216" lon="5.32978">
        <ele>284</ele>
        <time>2020-05-16T14:04:25.063Z</time>
      </trkpt>
      <trkpt lat="45.75209" lon="5.32975">
        <ele>284</ele>
        <time>2020-05-16T14:04:26.063Z</time>
      </trkpt>
      <trkpt lat="45.75202" lon="5.32972">
        <ele>284</ele>
        <time>2020-05-16T14:04:27.063Z</time>
      </trkpt>
      <trkpt lat="45.75195" lon="5.32969">
        <ele>284</ele>
        <time>2020-05-16T14:04:28.063Z</time>
      </trkpt>
      <trkpt lat="45.75188" lon="5.32966">
        <ele>284</ele>
        <time>2020-05-16T14:04:29.063Z</time>
      </trkpt>
      <trkpt lat="45.75182" lon="5.32963">
        <ele>285</ele>
        <time>2020-05-16T14:04:30.063Z</time>
      </trkpt>
      <trkpt lat="45.75175" lon="5.3296">
        <ele>285</ele>
        <time>2020-05-16T14:04:31.063Z</time>
      </trkpt>
      <trkpt lat="45.75169" lon="5.32958">
        <ele>284</ele>
        <time>2020-05-16T14:04:32.063Z</time>
      </trkpt>
      <trkpt lat="45.75162" lon="5.32955">
        <ele>285</ele>
        <time>2020-05-16T14:04:33.063Z</time>
      </trkpt>
      <trkpt lat="45.75156" lon="5.32953">
        <ele>285</ele>
        <time>2020-05-16T14:04:34.063Z</time>
      </trkpt>
      <trkpt lat="45.7515" lon="5.3295">
        <ele>285</ele>
        <time>2020-05-16T14:04:35.063Z</time>
      </trkpt>
      <trkpt lat="45.75144" lon="5.32948">
        <ele>285</ele>
        <time>2020-05-16T14:04:36.063Z</time>
      </trkpt>
      <trkpt lat="45.75137" lon="5.32945">
        <ele>285</ele>
        <time>2020-05-16T14:04:37.063Z</time>
      </trkpt>
      <trkpt lat="45.75131" lon="5.32943">
        <ele>285</ele>
        <time>2020-05-16T14:04:38.063Z</time>
      </trkpt>
      <trkpt lat="45.75126" lon="5.3294">
        <ele>285</ele>
        <time>2020-05-16T14:04:39.063Z</time>
      </trkpt>
      <trkpt lat="45.7512" lon="5.32938">
        <ele>286</ele>
        <time>2020-05-16T14:04:40.063Z</time>
      </trkpt>
      <trkpt lat="45.75115" lon="5.32935">
        <ele>286</ele>
        <time>2020-05-16T14:04:41.063Z</time>
      </trkpt>
      <trkpt lat="45.75109" lon="5.32933">
        <ele>286</ele>
        <time>2020-05-16T14:04:42.063Z</time>
      </trkpt>
      <trkpt lat="45.75103" lon="5.32931">
        <ele>286</ele>
        <time>2020-05-16T14:04:43.063Z</time>
      </trkpt>
      <trkpt lat="45.75098" lon="5.32929">
        <ele>286</ele>
        <time>2020-05-16T14:04:44.063Z</time>
      </trkpt>
      <trkpt lat="45.75092" lon="5.32927">
        <ele>286</ele>
        <time>2020-05-16T14:04:45.063Z</time>
      </trkpt>
      <trkpt lat="45.75086" lon="5.32926">
        <ele>286</ele>
        <time>2020-05-16T14:04:46.063Z</time>
      </trkpt>
      <trkpt lat="45.75081" lon="5.32924">
        <ele>286</ele>
        <time>2020-05-16T14:04:47.063Z</time>
      </trkpt>
      <trkpt lat="45.75075" lon="5.32923">
        <ele>287</ele>
        <time>2020-05-16T14:04:48.063Z</time>
      </trkpt>
      <trkpt lat="45.7507" lon="5.32922">
        <ele>287</ele>
        <time>2020-05-16T14:04:49.063Z</time>
      </trkpt>
      <trkpt lat="45.75065" lon="5.32921">
        <ele>287</ele>
        <time>2020-05-16T14:04:50.063Z</time>
      </trkpt>
      <trkpt lat="45.7506" lon="5.32921">
        <ele>287</ele>
        <time>2020-05-16T14:04:51.063Z</time>
      </trkpt>
      <trkpt lat="45.75056" lon="5.32921">
        <ele>287</ele>
        <time>2020-05-16T14:04:52.063Z</time>
      </trkpt>
      <trkpt lat="45.75052" lon="5.32922">
        <ele>288</ele>
        <time>2020-05-16T14:04:53.063Z</time>
      </trkpt>
      <trkpt lat="45.75048" lon="5.32923">
        <ele>288</ele>
        <time>2020-05-16T14:04:54.063Z</time>
      </trkpt>
      <trkpt lat="45.75044" lon="5.32923">
        <ele>289</ele>
        <time>2020-05-16T14:04:55.063Z</time>
      </trkpt>
      <trkpt lat="45.7504" lon="5.32923">
        <ele>290</ele>
        <time>2020-05-16T14:04:56.063Z</time>
      </trkpt>
      <trkpt lat="45.75036" lon="5.32924">
        <ele>291</ele>
        <time>2020-05-16T14:04:57.063Z</time>
      </trkpt>
      <trkpt lat="45.75032" lon="5.32924">
        <ele>291</ele>
        <time>2020-05-16T14:04:58.063Z</time>
      </trkpt>
      <trkpt lat="45.75027" lon="5.32923">
        <ele>289</ele>
        <time>2020-05-16T14:04:59.063Z</time>
      </trkpt>
      <trkpt lat="45.75023" lon="5.32922">
        <ele>290</ele>
        <time>2020-05-16T14:05:00.063Z</time>
      </trkpt>
      <trkpt lat="45.75019" lon="5.3292">
        <ele>290</ele>
        <time>2020-05-16T14:05:01.063Z</time>
      </trkpt>
      <trkpt lat="45.75016" lon="5.32919">
        <ele>289</ele>
        <time>2020-05-16T14:05:02.063Z</time>
      </trkpt>
      <trkpt lat="45.75014" lon="5.32919">
        <ele>289</ele>
        <time>2020-05-16T14:05:03.063Z</time>
      </trkpt>
      <trkpt lat="45.75012" lon="5.32919">
        <ele>290</ele>
        <time>2020-05-16T14:05:04.063Z</time>
      </trkpt>
      <trkpt lat="45.75011" lon="5.32919">
        <ele>290</ele>
        <time>2020-05-16T14:05:05.063Z</time>
      </trkpt>
      <trkpt lat="45.75009" lon="5.32919">
        <ele>291</ele>
        <time>2020-05-16T14:05:06.063Z</time>
      </trkpt>
      <trkpt lat="45.75008" lon="5.32918">
        <ele>291</ele>
        <time>2020-05-16T14:05:07.063Z</time>
      </trkpt>
      <trkpt lat="45.75007" lon="5.32917">
        <ele>291</ele>
        <time>2020-05-16T14:05:08.063Z</time>
      </trkpt>
      <trkpt lat="45.75005" lon="5.32916">
        <ele>291</ele>
        <time>2020-05-16T14:05:09.063Z</time>
      </trkpt>
      <trkpt lat="45.75004" lon="5.32915">
        <ele>291</ele>
        <time>2020-05-16T14:05:10.063Z</time>
      </trkpt>
      <trkpt lat="45.75002" lon="5.32913">
        <ele>291</ele>
        <time>2020-05-16T14:05:11.063Z</time>
      </trkpt>
      <trkpt lat="45.75" lon="5.32911">
        <ele>291</ele>
        <time>2020-05-16T14:05:12.063Z</time>
      </trkpt>
      <trkpt lat="45.74999" lon="5.32909">
        <ele>291</ele>
        <time>2020-05-16T14:05:13.063Z</time>
      </trkpt>
      <trkpt lat="45.74997" lon="5.32907">
        <ele>290</ele>
        <time>2020-05-16T14:05:14.063Z</time>
      </trkpt>
      <trkpt lat="45.74995" lon="5.32905">
        <ele>290</ele>
        <time>2020-05-16T14:05:15.063Z</time>
      </trkpt>
      <trkpt lat="45.74993" lon="5.32903">
        <ele>290</ele>
        <time>2020-05-16T14:05:16.063Z</time>
      </trkpt>
      <trkpt lat="45.7499" lon="5.32901">
        <ele>290</ele>
        <time>2020-05-16T14:05:17.063Z</time>
      </trkpt>
      <trkpt lat="45.74987" lon="5.32899">
        <ele>290</ele>
        <time>2020-05-16T14:05:18.063Z</time>
      </trkpt>
      <trkpt lat="45.74984" lon="5.32898">
        <ele>290</ele>
        <time>2020-05-16T14:05:19.063Z</time>
      </trkpt>
      <trkpt lat="45.7498" lon="5.32896">
        <ele>290</ele>
        <time>2020-05-16T14:05:20.063Z</time>
      </trkpt>
      <trkpt lat="45.74976" lon="5.32894">
        <ele>290</ele>
        <time>2020-05-16T14:05:21.063Z</time>
      </trkpt>
      <trkpt lat="45.74972" lon="5.32892">
        <ele>290</ele>
        <time>2020-05-16T14:05:22.063Z</time>
      </trkpt>
      <trkpt lat="45.74968" lon="5.3289">
        <ele>289</ele>
        <time>2020-05-16T14:05:23.063Z</time>
      </trkpt>
      <trkpt lat="45.74963" lon="5.32888">
        <ele>289</ele>
        <time>2020-05-16T14:05:24.063Z</time>
      </trkpt>
      <trkpt lat="45.74959" lon="5.32885">
        <ele>289</ele>
        <time>2020-05-16T14:05:25.063Z</time>
      </trkpt>
      <trkpt lat="45.74954" lon="5.32883">
        <ele>289</ele>
        <time>2020-05-16T14:05:26.063Z</time>
      </trkpt>
      <trkpt lat="45.7495" lon="5.32881">
        <ele>289</ele>
        <time>2020-05-16T14:05:27.063Z</time>
      </trkpt>
      <trkpt lat="45.74945" lon="5.32879">
        <ele>289</ele>
        <time>2020-05-16T14:05:28.063Z</time>
      </trkpt>
      <trkpt lat="45.7494" lon="5.32877">
        <ele>289</ele>
        <time>2020-05-16T14:05:29.063Z</time>
      </trkpt>
      <trkpt lat="45.74936" lon="5.32875">
        <ele>289</ele>
        <time>2020-05-16T14:05:30.063Z</time>
      </trkpt>
      <trkpt lat="45.74931" lon="5.32872">
        <ele>289</ele>
        <time>2020-05-16T14:05:31.063Z</time>
      </trkpt>
      <trkpt lat="45.74926" lon="5.3287">
        <ele>289</ele>
        <time>2020-05-16T14:05:32.063Z</time>
      </trkpt>
      <trkpt lat="45.74921" lon="5.32867">
        <ele>288</ele>
        <time>2020-05-16T14:05:33.063Z</time>
      </trkpt>
      <trkpt lat="45.74916" lon="5.32864">
        <ele>288</ele>
        <time>2020-05-16T14:05:34.063Z</time>
      </trkpt>
      <trkpt lat="45.74911" lon="5.3286">
        <ele>288</ele>
        <time>2020-05-16T14:05:35.063Z</time>
      </trkpt>
      <trkpt lat="45.74906" lon="5.32856">
        <ele>288</ele>
        <time>2020-05-16T14:05:36.063Z</time>
      </trkpt>
      <trkpt lat="45.74901" lon="5.32852">
        <ele>288</ele>
        <time>2020-05-16T14:05:37.063Z</time>
      </trkpt>
      <trkpt lat="45.74897" lon="5.32847">
        <ele>288</ele>
        <time>2020-05-16T14:05:38.063Z</time>
      </trkpt>
      <trkpt lat="45.74893" lon="5.32842">
        <ele>288</ele>
        <time>2020-05-16T14:05:39.063Z</time>
      </trkpt>
      <trkpt lat="45.74889" lon="5.32836">
        <ele>287</ele>
        <time>2020-05-16T14:05:40.063Z</time>
      </trkpt>
      <trkpt lat="45.74885" lon="5.32829">
        <ele>287</ele>
        <time>2020-05-16T14:05:41.063Z</time>
      </trkpt>
      <trkpt lat="45.74882" lon="5.32822">
        <ele>287</ele>
        <time>2020-05-16T14:05:42.063Z</time>
      </trkpt>
      <trkpt lat="45.7488" lon="5.32815">
        <ele>287</ele>
        <time>2020-05-16T14:05:43.063Z</time>
      </trkpt>
      <trkpt lat="45.74877" lon="5.32807">
        <ele>287</ele>
        <time>2020-05-16T14:05:44.063Z</time>
      </trkpt>
      <trkpt lat="45.74874" lon="5.32799">
        <ele>287</ele>
        <time>2020-05-16T14:05:45.063Z</time>
      </trkpt>
      <trkpt lat="45.74871" lon="5.32791">
        <ele>287</ele>
        <time>2020-05-16T14:05:46.063Z</time>
      </trkpt>
      <trkpt lat="45.74869" lon="5.32783">
        <ele>287</ele>
        <time>2020-05-16T14:05:47.063Z</time>
      </trkpt>
      <trkpt lat="45.74866" lon="5.32774">
        <ele>287</ele>
        <time>2020-05-16T14:05:48.063Z</time>
      </trkpt>
      <trkpt lat="45.74863" lon="5.32766">
        <ele>287</ele>
        <time>2020-05-16T14:05:49.063Z</time>
      </trkpt>
      <trkpt lat="45.7486" lon="5.32758">
        <ele>287</ele>
        <time>2020-05-16T14:05:50.063Z</time>
      </trkpt>
      <trkpt lat="45.74857" lon="5.3275">
        <ele>287</ele>
        <time>2020-05-16T14:05:51.063Z</time>
      </trkpt>
      <trkpt lat="45.74854" lon="5.32742">
        <ele>287</ele>
        <time>2020-05-16T14:05:52.063Z</time>
      </trkpt>
      <trkpt lat="45.74851" lon="5.32734">
        <ele>287</ele>
        <time>2020-05-16T14:05:53.063Z</time>
      </trkpt>
      <trkpt lat="45.74848" lon="5.32726">
        <ele>287</ele>
        <time>2020-05-16T14:05:54.063Z</time>
      </trkpt>
      <trkpt lat="45.74845" lon="5.32717">
        <ele>288</ele>
        <time>2020-05-16T14:05:55.063Z</time>
      </trkpt>
      <trkpt lat="45.74842" lon="5.32709">
        <ele>288</ele>
        <time>2020-05-16T14:05:56.063Z</time>
      </trkpt>
      <trkpt lat="45.74839" lon="5.32701">
        <ele>288</ele>
        <time>2020-05-16T14:05:57.063Z</time>
      </trkpt>
      <trkpt lat="45.74836" lon="5.32692">
        <ele>288</ele>
        <time>2020-05-16T14:05:58.063Z</time>
      </trkpt>
      <trkpt lat="45.74833" lon="5.32684">
        <ele>287</ele>
        <time>2020-05-16T14:05:59.063Z</time>
      </trkpt>
      <trkpt lat="45.74831" lon="5.32676">
        <ele>287</ele>
        <time>2020-05-16T14:06:00.063Z</time>
      </trkpt>
      <trkpt lat="45.74827" lon="5.32668">
        <ele>287</ele>
        <time>2020-05-16T14:06:01.063Z</time>
      </trkpt>
      <trkpt lat="45.74824" lon="5.3266">
        <ele>287</ele>
        <time>2020-05-16T14:06:02.063Z</time>
      </trkpt>
      <trkpt lat="45.74822" lon="5.32652">
        <ele>287</ele>
        <time>2020-05-16T14:06:03.063Z</time>
      </trkpt>
      <trkpt lat="45.74819" lon="5.32644">
        <ele>287</ele>
        <time>2020-05-16T14:06:04.063Z</time>
      </trkpt>
      <trkpt lat="45.74816" lon="5.32636">
        <ele>287</ele>
        <time>2020-05-16T14:06:05.063Z</time>
      </trkpt>
      <trkpt lat="45.74813" lon="5.32628">
        <ele>288</ele>
        <time>2020-05-16T14:06:06.063Z</time>
      </trkpt>
      <trkpt lat="45.7481" lon="5.3262">
        <ele>288</ele>
        <time>2020-05-16T14:06:07.063Z</time>
      </trkpt>
      <trkpt lat="45.74807" lon="5.32613">
        <ele>288</ele>
        <time>2020-05-16T14:06:08.063Z</time>
      </trkpt>
      <trkpt lat="45.74804" lon="5.32605">
        <ele>288</ele>
        <time>2020-05-16T14:06:09.063Z</time>
      </trkpt>
      <trkpt lat="45.74801" lon="5.32599">
        <ele>288</ele>
        <time>2020-05-16T14:06:10.063Z</time>
      </trkpt>
      <trkpt lat="45.74797" lon="5.32593">
        <ele>288</ele>
        <time>2020-05-16T14:06:11.063Z</time>
      </trkpt>
      <trkpt lat="45.74792" lon="5.32587">
        <ele>288</ele>
        <time>2020-05-16T14:06:12.063Z</time>
      </trkpt>
      <trkpt lat="45.74788" lon="5.32582">
        <ele>288</ele>
        <time>2020-05-16T14:06:13.063Z</time>
      </trkpt>
      <trkpt lat="45.74783" lon="5.32578">
        <ele>288</ele>
        <time>2020-05-16T14:06:14.063Z</time>
      </trkpt>
      <trkpt lat="45.74778" lon="5.32574">
        <ele>288</ele>
        <time>2020-05-16T14:06:15.063Z</time>
      </trkpt>
      <trkpt lat="45.74772" lon="5.3257">
        <ele>288</ele>
        <time>2020-05-16T14:06:16.063Z</time>
      </trkpt>
      <trkpt lat="45.74767" lon="5.32567">
        <ele>288</ele>
        <time>2020-05-16T14:06:17.063Z</time>
      </trkpt>
      <trkpt lat="45.74761" lon="5.32565">
        <ele>288</ele>
        <time>2020-05-16T14:06:18.063Z</time>
      </trkpt>
      <trkpt lat="45.74755" lon="5.32563">
        <ele>288</ele>
        <time>2020-05-16T14:06:19.063Z</time>
      </trkpt>
      <trkpt lat="45.74749" lon="5.32561">
        <ele>288</ele>
        <time>2020-05-16T14:06:20.063Z</time>
      </trkpt>
      <trkpt lat="45.74743" lon="5.32559">
        <ele>288</ele>
        <time>2020-05-16T14:06:21.063Z</time>
      </trkpt>
      <trkpt lat="45.74737" lon="5.32558">
        <ele>288</ele>
        <time>2020-05-16T14:06:22.063Z</time>
      </trkpt>
      <trkpt lat="45.74731" lon="5.32557">
        <ele>288</ele>
        <time>2020-05-16T14:06:23.063Z</time>
      </trkpt>
      <trkpt lat="45.74725" lon="5.32556">
        <ele>288</ele>
        <time>2020-05-16T14:06:24.063Z</time>
      </trkpt>
      <trkpt lat="45.74719" lon="5.32554">
        <ele>288</ele>
        <time>2020-05-16T14:06:25.063Z</time>
      </trkpt>
      <trkpt lat="45.74713" lon="5.32553">
        <ele>288</ele>
        <time>2020-05-16T14:06:26.063Z</time>
      </trkpt>
      <trkpt lat="45.74707" lon="5.32552">
        <ele>288</ele>
        <time>2020-05-16T14:06:27.063Z</time>
      </trkpt>
      <trkpt lat="45.74701" lon="5.3255">
        <ele>288</ele>
        <time>2020-05-16T14:06:28.063Z</time>
      </trkpt>
      <trkpt lat="45.74696" lon="5.32549">
        <ele>288</ele>
        <time>2020-05-16T14:06:29.063Z</time>
      </trkpt>
      <trkpt lat="45.7469" lon="5.32548">
        <ele>289</ele>
        <time>2020-05-16T14:06:30.063Z</time>
      </trkpt>
      <trkpt lat="45.74684" lon="5.32547">
        <ele>289</ele>
        <time>2020-05-16T14:06:31.063Z</time>
      </trkpt>
      <trkpt lat="45.74678" lon="5.32545">
        <ele>288</ele>
        <time>2020-05-16T14:06:32.063Z</time>
      </trkpt>
      <trkpt lat="45.74673" lon="5.32544">
        <ele>289</ele>
        <time>2020-05-16T14:06:33.063Z</time>
      </trkpt>
      <trkpt lat="45.74667" lon="5.32542">
        <ele>289</ele>
        <time>2020-05-16T14:06:34.063Z</time>
      </trkpt>
      <trkpt lat="45.74661" lon="5.32541">
        <ele>289</ele>
        <time>2020-05-16T14:06:35.063Z</time>
      </trkpt>
      <trkpt lat="45.74656" lon="5.3254">
        <ele>289</ele>
        <time>2020-05-16T14:06:36.063Z</time>
      </trkpt>
      <trkpt lat="45.7465" lon="5.32539">
        <ele>289</ele>
        <time>2020-05-16T14:06:37.063Z</time>
      </trkpt>
      <trkpt lat="45.74644" lon="5.32537">
        <ele>289</ele>
        <time>2020-05-16T14:06:38.063Z</time>
      </trkpt>
      <trkpt lat="45.74639" lon="5.32536">
        <ele>289</ele>
        <time>2020-05-16T14:06:39.063Z</time>
      </trkpt>
      <trkpt lat="45.74633" lon="5.32535">
        <ele>289</ele>
        <time>2020-05-16T14:06:40.063Z</time>
      </trkpt>
      <trkpt lat="45.74628" lon="5.32534">
        <ele>290</ele>
        <time>2020-05-16T14:06:41.063Z</time>
      </trkpt>
      <trkpt lat="45.74622" lon="5.32532">
        <ele>290</ele>
        <time>2020-05-16T14:06:42.063Z</time>
      </trkpt>
      <trkpt lat="45.74617" lon="5.32531">
        <ele>290</ele>
        <time>2020-05-16T14:06:43.063Z</time>
      </trkpt>
      <trkpt lat="45.74611" lon="5.3253">
        <ele>290</ele>
        <time>2020-05-16T14:06:44.063Z</time>
      </trkpt>
      <trkpt lat="45.74606" lon="5.32529">
        <ele>290</ele>
        <time>2020-05-16T14:06:45.063Z</time>
      </trkpt>
      <trkpt lat="45.74601" lon="5.32527">
        <ele>290</ele>
        <time>2020-05-16T14:06:46.063Z</time>
      </trkpt>
      <trkpt lat="45.74596" lon="5.32526">
        <ele>290</ele>
        <time>2020-05-16T14:06:47.063Z</time>
      </trkpt>
      <trkpt lat="45.74591" lon="5.32525">
        <ele>290</ele>
        <time>2020-05-16T14:06:48.063Z</time>
      </trkpt>
      <trkpt lat="45.74586" lon="5.32523">
        <ele>290</ele>
        <time>2020-05-16T14:06:49.063Z</time>
      </trkpt>
      <trkpt lat="45.74581" lon="5.32522">
        <ele>290</ele>
        <time>2020-05-16T14:06:50.063Z</time>
      </trkpt>
      <trkpt lat="45.74576" lon="5.32521">
        <ele>290</ele>
        <time>2020-05-16T14:06:51.063Z</time>
      </trkpt>
      <trkpt lat="45.74571" lon="5.3252">
        <ele>290</ele>
        <time>2020-05-16T14:06:52.063Z</time>
      </trkpt>
      <trkpt lat="45.74565" lon="5.32518">
        <ele>290</ele>
        <time>2020-05-16T14:06:53.063Z</time>
      </trkpt>
      <trkpt lat="45.7456" lon="5.32517">
        <ele>290</ele>
        <time>2020-05-16T14:06:54.063Z</time>
      </trkpt>
      <trkpt lat="45.74555" lon="5.32516">
        <ele>291</ele>
        <time>2020-05-16T14:06:55.063Z</time>
      </trkpt>
      <trkpt lat="45.7455" lon="5.32515">
        <ele>291</ele>
        <time>2020-05-16T14:06:56.063Z</time>
      </trkpt>
      <trkpt lat="45.74545" lon="5.32514">
        <ele>291</ele>
        <time>2020-05-16T14:06:57.063Z</time>
      </trkpt>
      <trkpt lat="45.7454" lon="5.32513">
        <ele>291</ele>
        <time>2020-05-16T14:06:58.063Z</time>
      </trkpt>
      <trkpt lat="45.74535" lon="5.32511">
        <ele>291</ele>
        <time>2020-05-16T14:06:59.063Z</time>
      </trkpt>
      <trkpt lat="45.7453" lon="5.3251">
        <ele>292</ele>
        <time>2020-05-16T14:07:00.063Z</time>
      </trkpt>
      <trkpt lat="45.74525" lon="5.32509">
        <ele>292</ele>
        <time>2020-05-16T14:07:01.063Z</time>
      </trkpt>
      <trkpt lat="45.7452" lon="5.32508">
        <ele>292</ele>
        <time>2020-05-16T14:07:02.063Z</time>
      </trkpt>
      <trkpt lat="45.74515" lon="5.32507">
        <ele>292</ele>
        <time>2020-05-16T14:07:03.063Z</time>
      </trkpt>
      <trkpt lat="45.7451" lon="5.32506">
        <ele>293</ele>
        <time>2020-05-16T14:07:04.063Z</time>
      </trkpt>
      <trkpt lat="45.74505" lon="5.32504">
        <ele>293</ele>
        <time>2020-05-16T14:07:05.063Z</time>
      </trkpt>
      <trkpt lat="45.745" lon="5.32503">
        <ele>293</ele>
        <time>2020-05-16T14:07:06.063Z</time>
      </trkpt>
      <trkpt lat="45.74495" lon="5.32502">
        <ele>293</ele>
        <time>2020-05-16T14:07:07.063Z</time>
      </trkpt>
      <trkpt lat="45.7449" lon="5.32501">
        <ele>293</ele>
        <time>2020-05-16T14:07:08.063Z</time>
      </trkpt>
      <trkpt lat="45.74485" lon="5.325">
        <ele>294</ele>
        <time>2020-05-16T14:07:09.063Z</time>
      </trkpt>
      <trkpt lat="45.7448" lon="5.32499">
        <ele>294</ele>
        <time>2020-05-16T14:07:10.063Z</time>
      </trkpt>
      <trkpt lat="45.74475" lon="5.32498">
        <ele>294</ele>
        <time>2020-05-16T14:07:11.063Z</time>
      </trkpt>
      <trkpt lat="45.7447" lon="5.32497">
        <ele>294</ele>
        <time>2020-05-16T14:07:12.063Z</time>
      </trkpt>
      <trkpt lat="45.74465" lon="5.32496">
        <ele>295</ele>
        <time>2020-05-16T14:07:13.063Z</time>
      </trkpt>
      <trkpt lat="45.7446" lon="5.32495">
        <ele>295</ele>
        <time>2020-05-16T14:07:14.063Z</time>
      </trkpt>
      <trkpt lat="45.74455" lon="5.32494">
        <ele>295</ele>
        <time>2020-05-16T14:07:15.063Z</time>
      </trkpt>
      <trkpt lat="45.7445" lon="5.32492">
        <ele>295</ele>
        <time>2020-05-16T14:07:16.063Z</time>
      </trkpt>
      <trkpt lat="45.74445" lon="5.32491">
        <ele>295</ele>
        <time>2020-05-16T14:07:17.063Z</time>
      </trkpt>
      <trkpt lat="45.7444" lon="5.3249">
        <ele>295</ele>
        <time>2020-05-16T14:07:18.063Z</time>
      </trkpt>
      <trkpt lat="45.74435" lon="5.32489">
        <ele>296</ele>
        <time>2020-05-16T14:07:19.063Z</time>
      </trkpt>
      <trkpt lat="45.7443" lon="5.32488">
        <ele>296</ele>
        <time>2020-05-16T14:07:20.063Z</time>
      </trkpt>
      <trkpt lat="45.74425" lon="5.32487">
        <ele>296</ele>
        <time>2020-05-16T14:07:21.063Z</time>
      </trkpt>
      <trkpt lat="45.74421" lon="5.32486">
        <ele>296</ele>
        <time>2020-05-16T14:07:22.063Z</time>
      </trkpt>
      <trkpt lat="45.74416" lon="5.32484">
        <ele>296</ele>
        <time>2020-05-16T14:07:23.063Z</time>
      </trkpt>
      <trkpt lat="45.74411" lon="5.32483">
        <ele>297</ele>
        <time>2020-05-16T14:07:24.063Z</time>
      </trkpt>
      <trkpt lat="45.74406" lon="5.32482">
        <ele>297</ele>
        <time>2020-05-16T14:07:25.063Z</time>
      </trkpt>
      <trkpt lat="45.74401" lon="5.32481">
        <ele>297</ele>
        <time>2020-05-16T14:07:26.063Z</time>
      </trkpt>
      <trkpt lat="45.74396" lon="5.3248">
        <ele>297</ele>
        <time>2020-05-16T14:07:27.063Z</time>
      </trkpt>
      <trkpt lat="45.74391" lon="5.32479">
        <ele>297</ele>
        <time>2020-05-16T14:07:28.063Z</time>
      </trkpt>
      <trkpt lat="45.74386" lon="5.32478">
        <ele>297</ele>
        <time>2020-05-16T14:07:29.063Z</time>
      </trkpt>
      <trkpt lat="45.74382" lon="5.32477">
        <ele>297</ele>
        <time>2020-05-16T14:07:30.063Z</time>
      </trkpt>
      <trkpt lat="45.74377" lon="5.32476">
        <ele>297</ele>
        <time>2020-05-16T14:07:31.063Z</time>
      </trkpt>
      <trkpt lat="45.74372" lon="5.32475">
        <ele>298</ele>
        <time>2020-05-16T14:07:32.063Z</time>
      </trkpt>
      <trkpt lat="45.74367" lon="5.32473">
        <ele>298</ele>
        <time>2020-05-16T14:07:33.063Z</time>
      </trkpt>
      <trkpt lat="45.74362" lon="5.32472">
        <ele>298</ele>
        <time>2020-05-16T14:07:34.063Z</time>
      </trkpt>
      <trkpt lat="45.74357" lon="5.32471">
        <ele>298</ele>
        <time>2020-05-16T14:07:35.063Z</time>
      </trkpt>
      <trkpt lat="45.74352" lon="5.3247">
        <ele>299</ele>
        <time>2020-05-16T14:07:36.063Z</time>
      </trkpt>
      <trkpt lat="45.74347" lon="5.32469">
        <ele>299</ele>
        <time>2020-05-16T14:07:37.063Z</time>
      </trkpt>
      <trkpt lat="45.74342" lon="5.32468">
        <ele>299</ele>
        <time>2020-05-16T14:07:38.063Z</time>
      </trkpt>
      <trkpt lat="45.74338" lon="5.32466">
        <ele>299</ele>
        <time>2020-05-16T14:07:39.063Z</time>
      </trkpt>
      <trkpt lat="45.74333" lon="5.32465">
        <ele>300</ele>
        <time>2020-05-16T14:07:40.063Z</time>
      </trkpt>
      <trkpt lat="45.74328" lon="5.32464">
        <ele>300</ele>
        <time>2020-05-16T14:07:41.063Z</time>
      </trkpt>
      <trkpt lat="45.74323" lon="5.32462">
        <ele>300</ele>
        <time>2020-05-16T14:07:42.063Z</time>
      </trkpt>
      <trkpt lat="45.74318" lon="5.3246">
        <ele>300</ele>
        <time>2020-05-16T14:07:43.063Z</time>
      </trkpt>
      <trkpt lat="45.74313" lon="5.32458">
        <ele>301</ele>
        <time>2020-05-16T14:07:44.063Z</time>
      </trkpt>
      <trkpt lat="45.74309" lon="5.32455">
        <ele>301</ele>
        <time>2020-05-16T14:07:45.063Z</time>
      </trkpt>
      <trkpt lat="45.74305" lon="5.32451">
        <ele>301</ele>
        <time>2020-05-16T14:07:46.063Z</time>
      </trkpt>
      <trkpt lat="45.74301" lon="5.32447">
        <ele>301</ele>
        <time>2020-05-16T14:07:47.063Z</time>
      </trkpt>
      <trkpt lat="45.74297" lon="5.32442">
        <ele>301</ele>
        <time>2020-05-16T14:07:48.063Z</time>
      </trkpt>
      <trkpt lat="45.74295" lon="5.32436">
        <ele>301</ele>
        <time>2020-05-16T14:07:49.063Z</time>
      </trkpt>
      <trkpt lat="45.74292" lon="5.3243">
        <ele>302</ele>
        <time>2020-05-16T14:07:50.063Z</time>
      </trkpt>
      <trkpt lat="45.74291" lon="5.32423">
        <ele>302</ele>
        <time>2020-05-16T14:07:51.063Z</time>
      </trkpt>
      <trkpt lat="45.7429" lon="5.32416">
        <ele>302</ele>
        <time>2020-05-16T14:07:52.063Z</time>
      </trkpt>
      <trkpt lat="45.7429" lon="5.32409">
        <ele>303</ele>
        <time>2020-05-16T14:07:53.063Z</time>
      </trkpt>
      <trkpt lat="45.7429" lon="5.32402">
        <ele>303</ele>
        <time>2020-05-16T14:07:54.063Z</time>
      </trkpt>
      <trkpt lat="45.7429" lon="5.32396">
        <ele>303</ele>
        <time>2020-05-16T14:07:55.063Z</time>
      </trkpt>
      <trkpt lat="45.74291" lon="5.32389">
        <ele>304</ele>
        <time>2020-05-16T14:07:56.063Z</time>
      </trkpt>
      <trkpt lat="45.74292" lon="5.32383">
        <ele>304</ele>
        <time>2020-05-16T14:07:57.063Z</time>
      </trkpt>
      <trkpt lat="45.74294" lon="5.32377">
        <ele>305</ele>
        <time>2020-05-16T14:07:58.063Z</time>
      </trkpt>
      <trkpt lat="45.74295" lon="5.32371">
        <ele>305</ele>
        <time>2020-05-16T14:07:59.063Z</time>
      </trkpt>
      <trkpt lat="45.74297" lon="5.32365">
        <ele>306</ele>
        <time>2020-05-16T14:08:00.063Z</time>
      </trkpt>
      <trkpt lat="45.74298" lon="5.3236">
        <ele>306</ele>
        <time>2020-05-16T14:08:01.063Z</time>
      </trkpt>
      <trkpt lat="45.743" lon="5.32354">
        <ele>307</ele>
        <time>2020-05-16T14:08:02.063Z</time>
      </trkpt>
      <trkpt lat="45.74301" lon="5.32349">
        <ele>307</ele>
        <time>2020-05-16T14:08:03.063Z</time>
      </trkpt>
      <trkpt lat="45.74303" lon="5.32344">
        <ele>308</ele>
        <time>2020-05-16T14:08:04.063Z</time>
      </trkpt>
      <trkpt lat="45.74304" lon="5.32339">
        <ele>308</ele>
        <time>2020-05-16T14:08:05.063Z</time>
      </trkpt>
      <trkpt lat="45.74305" lon="5.32333">
        <ele>308</ele>
        <time>2020-05-16T14:08:06.063Z</time>
      </trkpt>
      <trkpt lat="45.74306" lon="5.32328">
        <ele>308</ele>
        <time>2020-05-16T14:08:07.063Z</time>
      </trkpt>
      <trkpt lat="45.74307" lon="5.32322">
        <ele>309</ele>
        <time>2020-05-16T14:08:08.063Z</time>
      </trkpt>
      <trkpt lat="45.74307" lon="5.32316">
        <ele>309</ele>
        <time>2020-05-16T14:08:09.063Z</time>
      </trkpt>
      <trkpt lat="45.74307" lon="5.3231">
        <ele>310</ele>
        <time>2020-05-16T14:08:10.063Z</time>
      </trkpt>
      <trkpt lat="45.74306" lon="5.32304">
        <ele>310</ele>
        <time>2020-05-16T14:08:11.063Z</time>
      </trkpt>
      <trkpt lat="45.74305" lon="5.32299">
        <ele>310</ele>
        <time>2020-05-16T14:08:12.063Z</time>
      </trkpt>
      <trkpt lat="45.74304" lon="5.32293">
        <ele>310</ele>
        <time>2020-05-16T14:08:13.063Z</time>
      </trkpt>
      <trkpt lat="45.74302" lon="5.32288">
        <ele>309</ele>
        <time>2020-05-16T14:08:14.063Z</time>
      </trkpt>
      <trkpt lat="45.743" lon="5.32283">
        <ele>309</ele>
        <time>2020-05-16T14:08:15.063Z</time>
      </trkpt>
      <trkpt lat="45.74297" lon="5.32278">
        <ele>309</ele>
        <time>2020-05-16T14:08:16.063Z</time>
      </trkpt>
      <trkpt lat="45.74293" lon="5.32274">
        <ele>309</ele>
        <time>2020-05-16T14:08:17.063Z</time>
      </trkpt>
      <trkpt lat="45.7429" lon="5.3227">
        <ele>310</ele>
        <time>2020-05-16T14:08:18.063Z</time>
      </trkpt>
      <trkpt lat="45.74286" lon="5.32267">
        <ele>310</ele>
        <time>2020-05-16T14:08:19.063Z</time>
      </trkpt>
      <trkpt lat="45.74283" lon="5.32263">
        <ele>310</ele>
        <time>2020-05-16T14:08:20.063Z</time>
      </trkpt>
      <trkpt lat="45.74279" lon="5.3226">
        <ele>310</ele>
        <time>2020-05-16T14:08:21.063Z</time>
      </trkpt>
      <trkpt lat="45.74276" lon="5.32257">
        <ele>310</ele>
        <time>2020-05-16T14:08:22.063Z</time>
      </trkpt>
      <trkpt lat="45.74272" lon="5.32254">
        <ele>311</ele>
        <time>2020-05-16T14:08:23.063Z</time>
      </trkpt>
      <trkpt lat="45.74268" lon="5.32251">
        <ele>311</ele>
        <time>2020-05-16T14:08:24.063Z</time>
      </trkpt>
      <trkpt lat="45.74264" lon="5.32248">
        <ele>311</ele>
        <time>2020-05-16T14:08:25.063Z</time>
      </trkpt>
      <trkpt lat="45.7426" lon="5.32245">
        <ele>311</ele>
        <time>2020-05-16T14:08:26.063Z</time>
      </trkpt>
      <trkpt lat="45.74256" lon="5.32242">
        <ele>311</ele>
        <time>2020-05-16T14:08:27.063Z</time>
      </trkpt>
      <trkpt lat="45.74252" lon="5.32239">
        <ele>312</ele>
        <time>2020-05-16T14:08:28.063Z</time>
      </trkpt>
      <trkpt lat="45.74248" lon="5.32236">
        <ele>312</ele>
        <time>2020-05-16T14:08:29.063Z</time>
      </trkpt>
      <trkpt lat="45.74244" lon="5.32233">
        <ele>312</ele>
        <time>2020-05-16T14:08:30.063Z</time>
      </trkpt>
      <trkpt lat="45.7424" lon="5.32229">
        <ele>312</ele>
        <time>2020-05-16T14:08:31.063Z</time>
      </trkpt>
      <trkpt lat="45.74236" lon="5.32226">
        <ele>313</ele>
        <time>2020-05-16T14:08:32.063Z</time>
      </trkpt>
      <trkpt lat="45.74232" lon="5.32223">
        <ele>313</ele>
        <time>2020-05-16T14:08:33.063Z</time>
      </trkpt>
      <trkpt lat="45.74228" lon="5.3222">
        <ele>313</ele>
        <time>2020-05-16T14:08:34.063Z</time>
      </trkpt>
      <trkpt lat="45.74224" lon="5.32217">
        <ele>314</ele>
        <time>2020-05-16T14:08:35.063Z</time>
      </trkpt>
      <trkpt lat="45.74221" lon="5.32214">
        <ele>314</ele>
        <time>2020-05-16T14:08:36.063Z</time>
      </trkpt>
      <trkpt lat="45.74217" lon="5.32211">
        <ele>314</ele>
        <time>2020-05-16T14:08:37.063Z</time>
      </trkpt>
      <trkpt lat="45.74214" lon="5.32208">
        <ele>315</ele>
        <time>2020-05-16T14:08:38.063Z</time>
      </trkpt>
      <trkpt lat="45.7421" lon="5.32205">
        <ele>315</ele>
        <time>2020-05-16T14:08:39.063Z</time>
      </trkpt>
      <trkpt lat="45.74206" lon="5.32202">
        <ele>315</ele>
        <time>2020-05-16T14:08:40.063Z</time>
      </trkpt>
      <trkpt lat="45.74202" lon="5.32199">
        <ele>316</ele>
        <time>2020-05-16T14:08:41.063Z</time>
      </trkpt>
      <trkpt lat="45.74199" lon="5.32196">
        <ele>316</ele>
        <time>2020-05-16T14:08:42.063Z</time>
      </trkpt>
      <trkpt lat="45.74195" lon="5.32194">
        <ele>316</ele>
        <time>2020-05-16T14:08:43.063Z</time>
      </trkpt>
      <trkpt lat="45.74191" lon="5.32191">
        <ele>316</ele>
        <time>2020-05-16T14:08:44.063Z</time>
      </trkpt>
      <trkpt lat="45.74188" lon="5.32188">
        <ele>317</ele>
        <time>2020-05-16T14:08:45.063Z</time>
      </trkpt>
      <trkpt lat="45.74184" lon="5.32185">
        <ele>317</ele>
        <time>2020-05-16T14:08:46.063Z</time>
      </trkpt>
      <trkpt lat="45.7418" lon="5.32182">
        <ele>317</ele>
        <time>2020-05-16T14:08:47.063Z</time>
      </trkpt>
      <trkpt lat="45.74177" lon="5.32179">
        <ele>318</ele>
        <time>2020-05-16T14:08:48.063Z</time>
      </trkpt>
      <trkpt lat="45.74173" lon="5.32177">
        <ele>318</ele>
        <time>2020-05-16T14:08:49.063Z</time>
      </trkpt>
      <trkpt lat="45.74169" lon="5.32174">
        <ele>318</ele>
        <time>2020-05-16T14:08:50.063Z</time>
      </trkpt>
      <trkpt lat="45.74165" lon="5.32171">
        <ele>319</ele>
        <time>2020-05-16T14:08:51.063Z</time>
      </trkpt>
      <trkpt lat="45.74162" lon="5.32168">
        <ele>319</ele>
        <time>2020-05-16T14:08:52.063Z</time>
      </trkpt>
      <trkpt lat="45.74158" lon="5.32165">
        <ele>319</ele>
        <time>2020-05-16T14:08:53.063Z</time>
      </trkpt>
      <trkpt lat="45.74154" lon="5.32162">
        <ele>319</ele>
        <time>2020-05-16T14:08:54.063Z</time>
      </trkpt>
      <trkpt lat="45.74151" lon="5.32158">
        <ele>320</ele>
        <time>2020-05-16T14:08:55.063Z</time>
      </trkpt>
      <trkpt lat="45.74147" lon="5.32155">
        <ele>320</ele>
        <time>2020-05-16T14:08:56.063Z</time>
      </trkpt>
      <trkpt lat="45.74143" lon="5.32152">
        <ele>320</ele>
        <time>2020-05-16T14:08:57.063Z</time>
      </trkpt>
      <trkpt lat="45.74139" lon="5.32149">
        <ele>320</ele>
        <time>2020-05-16T14:08:58.063Z</time>
      </trkpt>
      <trkpt lat="45.74136" lon="5.32146">
        <ele>320</ele>
        <time>2020-05-16T14:08:59.063Z</time>
      </trkpt>
      <trkpt lat="45.74132" lon="5.32143">
        <ele>321</ele>
        <time>2020-05-16T14:09:00.063Z</time>
      </trkpt>
      <trkpt lat="45.74128" lon="5.3214">
        <ele>321</ele>
        <time>2020-05-16T14:09:01.063Z</time>
      </trkpt>
      <trkpt lat="45.74124" lon="5.32136">
        <ele>321</ele>
        <time>2020-05-16T14:09:02.063Z</time>
      </trkpt>
      <trkpt lat="45.7412" lon="5.32133">
        <ele>321</ele>
        <time>2020-05-16T14:09:03.063Z</time>
      </trkpt>
      <trkpt lat="45.74116" lon="5.3213">
        <ele>321</ele>
        <time>2020-05-16T14:09:04.063Z</time>
      </trkpt>
      <trkpt lat="45.74112" lon="5.32127">
        <ele>321</ele>
        <time>2020-05-16T14:09:05.063Z</time>
      </trkpt>
      <trkpt lat="45.74109" lon="5.32124">
        <ele>321</ele>
        <time>2020-05-16T14:09:06.063Z</time>
      </trkpt>
      <trkpt lat="45.74105" lon="5.32121">
        <ele>321</ele>
        <time>2020-05-16T14:09:07.063Z</time>
      </trkpt>
      <trkpt lat="45.74101" lon="5.32117">
        <ele>321</ele>
        <time>2020-05-16T14:09:08.063Z</time>
      </trkpt>
      <trkpt lat="45.74097" lon="5.32114">
        <ele>322</ele>
        <time>2020-05-16T14:09:09.063Z</time>
      </trkpt>
      <trkpt lat="45.74093" lon="5.32111">
        <ele>322</ele>
        <time>2020-05-16T14:09:10.063Z</time>
      </trkpt>
      <trkpt lat="45.74089" lon="5.32108">
        <ele>322</ele>
        <time>2020-05-16T14:09:11.063Z</time>
      </trkpt>
      <trkpt lat="45.74085" lon="5.32104">
        <ele>322</ele>
        <time>2020-05-16T14:09:12.063Z</time>
      </trkpt>
      <trkpt lat="45.74081" lon="5.32101">
        <ele>322</ele>
        <time>2020-05-16T14:09:13.063Z</time>
      </trkpt>
      <trkpt lat="45.74076" lon="5.32097">
        <ele>321</ele>
        <time>2020-05-16T14:09:14.063Z</time>
      </trkpt>
      <trkpt lat="45.74072" lon="5.32094">
        <ele>321</ele>
        <time>2020-05-16T14:09:15.063Z</time>
      </trkpt>
      <trkpt lat="45.74068" lon="5.32091">
        <ele>321</ele>
        <time>2020-05-16T14:09:16.063Z</time>
      </trkpt>
      <trkpt lat="45.74063" lon="5.32089">
        <ele>321</ele>
        <time>2020-05-16T14:09:17.063Z</time>
      </trkpt>
      <trkpt lat="45.74059" lon="5.32086">
        <ele>321</ele>
        <time>2020-05-16T14:09:18.063Z</time>
      </trkpt>
      <trkpt lat="45.74054" lon="5.32083">
        <ele>321</ele>
        <time>2020-05-16T14:09:19.063Z</time>
      </trkpt>
      <trkpt lat="45.7405" lon="5.3208">
        <ele>321</ele>
        <time>2020-05-16T14:09:20.063Z</time>
      </trkpt>
      <trkpt lat="45.74045" lon="5.32077">
        <ele>321</ele>
        <time>2020-05-16T14:09:21.063Z</time>
      </trkpt>
      <trkpt lat="45.7404" lon="5.32075">
        <ele>321</ele>
        <time>2020-05-16T14:09:22.063Z</time>
      </trkpt>
      <trkpt lat="45.74035" lon="5.32072">
        <ele>321</ele>
        <time>2020-05-16T14:09:23.063Z</time>
      </trkpt>
      <trkpt lat="45.74029" lon="5.3207">
        <ele>321</ele>
        <time>2020-05-16T14:09:24.063Z</time>
      </trkpt>
      <trkpt lat="45.74023" lon="5.32068">
        <ele>321</ele>
        <time>2020-05-16T14:09:25.063Z</time>
      </trkpt>
      <trkpt lat="45.74017" lon="5.32066">
        <ele>321</ele>
        <time>2020-05-16T14:09:26.063Z</time>
      </trkpt>
      <trkpt lat="45.74011" lon="5.32064">
        <ele>321</ele>
        <time>2020-05-16T14:09:27.063Z</time>
      </trkpt>
      <trkpt lat="45.74004" lon="5.32062">
        <ele>321</ele>
        <time>2020-05-16T14:09:28.063Z</time>
      </trkpt>
      <trkpt lat="45.73998" lon="5.3206">
        <ele>321</ele>
        <time>2020-05-16T14:09:29.063Z</time>
      </trkpt>
      <trkpt lat="45.73992" lon="5.32058">
        <ele>321</ele>
        <time>2020-05-16T14:09:30.063Z</time>
      </trkpt>
      <trkpt lat="45.73986" lon="5.32055">
        <ele>321</ele>
        <time>2020-05-16T14:09:31.063Z</time>
      </trkpt>
      <trkpt lat="45.7398" lon="5.32052">
        <ele>321</ele>
        <time>2020-05-16T14:09:32.063Z</time>
      </trkpt>
      <trkpt lat="45.73975" lon="5.32046">
        <ele>322</ele>
        <time>2020-05-16T14:09:33.063Z</time>
      </trkpt>
      <trkpt lat="45.7397" lon="5.3204">
        <ele>322</ele>
        <time>2020-05-16T14:09:34.063Z</time>
      </trkpt>
      <trkpt lat="45.73967" lon="5.32032">
        <ele>322</ele>
        <time>2020-05-16T14:09:35.063Z</time>
      </trkpt>
      <trkpt lat="45.73963" lon="5.32024">
        <ele>322</ele>
        <time>2020-05-16T14:09:36.063Z</time>
      </trkpt>
      <trkpt lat="45.7396" lon="5.32016">
        <ele>323</ele>
        <time>2020-05-16T14:09:37.063Z</time>
      </trkpt>
      <trkpt lat="45.73958" lon="5.32009">
        <ele>323</ele>
        <time>2020-05-16T14:09:38.063Z</time>
      </trkpt>
      <trkpt lat="45.73955" lon="5.32003">
        <ele>323</ele>
        <time>2020-05-16T14:09:39.063Z</time>
      </trkpt>
      <trkpt lat="45.73953" lon="5.31996">
        <ele>324</ele>
        <time>2020-05-16T14:09:40.063Z</time>
      </trkpt>
      <trkpt lat="45.7395" lon="5.3199">
        <ele>324</ele>
        <time>2020-05-16T14:09:41.063Z</time>
      </trkpt>
      <trkpt lat="45.73948" lon="5.31984">
        <ele>324</ele>
        <time>2020-05-16T14:09:42.063Z</time>
      </trkpt>
      <trkpt lat="45.73946" lon="5.31978">
        <ele>324</ele>
        <time>2020-05-16T14:09:43.063Z</time>
      </trkpt>
      <trkpt lat="45.73943" lon="5.31973">
        <ele>325</ele>
        <time>2020-05-16T14:09:44.063Z</time>
      </trkpt>
      <trkpt lat="45.7394" lon="5.31968">
        <ele>325</ele>
        <time>2020-05-16T14:09:45.063Z</time>
      </trkpt>
      <trkpt lat="45.73937" lon="5.31964">
        <ele>325</ele>
        <time>2020-05-16T14:09:46.063Z</time>
      </trkpt>
      <trkpt lat="45.73934" lon="5.3196">
        <ele>326</ele>
        <time>2020-05-16T14:09:47.063Z</time>
      </trkpt>
      <trkpt lat="45.7393" lon="5.31956">
        <ele>326</ele>
        <time>2020-05-16T14:09:48.063Z</time>
      </trkpt>
      <trkpt lat="45.73926" lon="5.31952">
        <ele>327</ele>
        <time>2020-05-16T14:09:49.063Z</time>
      </trkpt>
      <trkpt lat="45.73922" lon="5.3195">
        <ele>327</ele>
        <time>2020-05-16T14:09:50.063Z</time>
      </trkpt>
      <trkpt lat="45.73917" lon="5.31947">
        <ele>327</ele>
        <time>2020-05-16T14:09:51.063Z</time>
      </trkpt>
      <trkpt lat="45.73913" lon="5.31946">
        <ele>327</ele>
        <time>2020-05-16T14:09:52.063Z</time>
      </trkpt>
      <trkpt lat="45.73908" lon="5.31944">
        <ele>328</ele>
        <time>2020-05-16T14:09:53.063Z</time>
      </trkpt>
      <trkpt lat="45.73904" lon="5.31942">
        <ele>327</ele>
        <time>2020-05-16T14:09:54.063Z</time>
      </trkpt>
      <trkpt lat="45.73899" lon="5.31941">
        <ele>327</ele>
        <time>2020-05-16T14:09:55.063Z</time>
      </trkpt>
      <trkpt lat="45.73894" lon="5.3194">
        <ele>327</ele>
        <time>2020-05-16T14:09:56.063Z</time>
      </trkpt>
      <trkpt lat="45.73889" lon="5.31939">
        <ele>327</ele>
        <time>2020-05-16T14:09:57.063Z</time>
      </trkpt>
      <trkpt lat="45.73884" lon="5.31937">
        <ele>328</ele>
        <time>2020-05-16T14:09:58.063Z</time>
      </trkpt>
      <trkpt lat="45.7388" lon="5.31936">
        <ele>328</ele>
        <time>2020-05-16T14:09:59.063Z</time>
      </trkpt>
      <trkpt lat="45.73875" lon="5.31935">
        <ele>328</ele>
        <time>2020-05-16T14:10:00.063Z</time>
      </trkpt>
      <trkpt lat="45.7387" lon="5.31934">
        <ele>329</ele>
        <time>2020-05-16T14:10:01.063Z</time>
      </trkpt>
      <trkpt lat="45.73865" lon="5.31934">
        <ele>329</ele>
        <time>2020-05-16T14:10:02.063Z</time>
      </trkpt>
      <trkpt lat="45.73861" lon="5.31933">
        <ele>329</ele>
        <time>2020-05-16T14:10:03.063Z</time>
      </trkpt>
      <trkpt lat="45.73856" lon="5.31932">
        <ele>330</ele>
        <time>2020-05-16T14:10:04.063Z</time>
      </trkpt>
      <trkpt lat="45.73851" lon="5.31931">
        <ele>331</ele>
        <time>2020-05-16T14:10:05.063Z</time>
      </trkpt>
      <trkpt lat="45.73847" lon="5.3193">
        <ele>331</ele>
        <time>2020-05-16T14:10:06.063Z</time>
      </trkpt>
      <trkpt lat="45.73842" lon="5.3193">
        <ele>331</ele>
        <time>2020-05-16T14:10:07.063Z</time>
      </trkpt>
      <trkpt lat="45.73837" lon="5.31929">
        <ele>331</ele>
        <time>2020-05-16T14:10:08.063Z</time>
      </trkpt>
      <trkpt lat="45.73833" lon="5.31928">
        <ele>332</ele>
        <time>2020-05-16T14:10:09.063Z</time>
      </trkpt>
      <trkpt lat="45.73828" lon="5.31927">
        <ele>332</ele>
        <time>2020-05-16T14:10:10.063Z</time>
      </trkpt>
      <trkpt lat="45.73824" lon="5.31926">
        <ele>332</ele>
        <time>2020-05-16T14:10:11.063Z</time>
      </trkpt>
      <trkpt lat="45.73819" lon="5.31925">
        <ele>332</ele>
        <time>2020-05-16T14:10:12.063Z</time>
      </trkpt>
      <trkpt lat="45.73814" lon="5.31924">
        <ele>333</ele>
        <time>2020-05-16T14:10:13.063Z</time>
      </trkpt>
      <trkpt lat="45.73809" lon="5.31922">
        <ele>333</ele>
        <time>2020-05-16T14:10:14.063Z</time>
      </trkpt>
      <trkpt lat="45.73805" lon="5.3192">
        <ele>333</ele>
        <time>2020-05-16T14:10:15.063Z</time>
      </trkpt>
      <trkpt lat="45.738" lon="5.31918">
        <ele>333</ele>
        <time>2020-05-16T14:10:16.063Z</time>
      </trkpt>
      <trkpt lat="45.73796" lon="5.31915">
        <ele>334</ele>
        <time>2020-05-16T14:10:17.063Z</time>
      </trkpt>
      <trkpt lat="45.73792" lon="5.31911">
        <ele>334</ele>
        <time>2020-05-16T14:10:18.063Z</time>
      </trkpt>
      <trkpt lat="45.73788" lon="5.31907">
        <ele>334</ele>
        <time>2020-05-16T14:10:19.063Z</time>
      </trkpt>
      <trkpt lat="45.73784" lon="5.31902">
        <ele>335</ele>
        <time>2020-05-16T14:10:20.063Z</time>
      </trkpt>
      <trkpt lat="45.7378" lon="5.31897">
        <ele>335</ele>
        <time>2020-05-16T14:10:21.063Z</time>
      </trkpt>
      <trkpt lat="45.73777" lon="5.31892">
        <ele>335</ele>
        <time>2020-05-16T14:10:22.063Z</time>
      </trkpt>
      <trkpt lat="45.73774" lon="5.31886">
        <ele>335</ele>
        <time>2020-05-16T14:10:23.063Z</time>
      </trkpt>
      <trkpt lat="45.73772" lon="5.3188">
        <ele>336</ele>
        <time>2020-05-16T14:10:24.063Z</time>
      </trkpt>
      <trkpt lat="45.73769" lon="5.31875">
        <ele>336</ele>
        <time>2020-05-16T14:10:25.063Z</time>
      </trkpt>
      <trkpt lat="45.73766" lon="5.31869">
        <ele>336</ele>
        <time>2020-05-16T14:10:26.063Z</time>
      </trkpt>
      <trkpt lat="45.73763" lon="5.31863">
        <ele>337</ele>
        <time>2020-05-16T14:10:27.063Z</time>
      </trkpt>
      <trkpt lat="45.73761" lon="5.31857">
        <ele>337</ele>
        <time>2020-05-16T14:10:28.063Z</time>
      </trkpt>
      <trkpt lat="45.73758" lon="5.31851">
        <ele>337</ele>
        <time>2020-05-16T14:10:29.063Z</time>
      </trkpt>
      <trkpt lat="45.73755" lon="5.31845">
        <ele>338</ele>
        <time>2020-05-16T14:10:30.063Z</time>
      </trkpt>
      <trkpt lat="45.73752" lon="5.31838">
        <ele>338</ele>
        <time>2020-05-16T14:10:31.063Z</time>
      </trkpt>
      <trkpt lat="45.73749" lon="5.31832">
        <ele>338</ele>
        <time>2020-05-16T14:10:32.063Z</time>
      </trkpt>
      <trkpt lat="45.73746" lon="5.31826">
        <ele>338</ele>
        <time>2020-05-16T14:10:33.063Z</time>
      </trkpt>
      <trkpt lat="45.73743" lon="5.3182">
        <ele>339</ele>
        <time>2020-05-16T14:10:34.063Z</time>
      </trkpt>
      <trkpt lat="45.73739" lon="5.31815">
        <ele>339</ele>
        <time>2020-05-16T14:10:35.063Z</time>
      </trkpt>
      <trkpt lat="45.73735" lon="5.3181">
        <ele>339</ele>
        <time>2020-05-16T14:10:36.063Z</time>
      </trkpt>
      <trkpt lat="45.73731" lon="5.31805">
        <ele>339</ele>
        <time>2020-05-16T14:10:37.063Z</time>
      </trkpt>
      <trkpt lat="45.73727" lon="5.31801">
        <ele>340</ele>
        <time>2020-05-16T14:10:38.063Z</time>
      </trkpt>
      <trkpt lat="45.73723" lon="5.31797">
        <ele>340</ele>
        <time>2020-05-16T14:10:39.063Z</time>
      </trkpt>
      <trkpt lat="45.73718" lon="5.31794">
        <ele>340</ele>
        <time>2020-05-16T14:10:40.063Z</time>
      </trkpt>
      <trkpt lat="45.73713" lon="5.31791">
        <ele>341</ele>
        <time>2020-05-16T14:10:41.063Z</time>
      </trkpt>
      <trkpt lat="45.73709" lon="5.31789">
        <ele>341</ele>
        <time>2020-05-16T14:10:42.063Z</time>
      </trkpt>
      <trkpt lat="45.73704" lon="5.31786">
        <ele>341</ele>
        <time>2020-05-16T14:10:43.063Z</time>
      </trkpt>
      <trkpt lat="45.73698" lon="5.31784">
        <ele>341</ele>
        <time>2020-05-16T14:10:44.063Z</time>
      </trkpt>
      <trkpt lat="45.73693" lon="5.31782">
        <ele>341</ele>
        <time>2020-05-16T14:10:45.063Z</time>
      </trkpt>
      <trkpt lat="45.73688" lon="5.3178">
        <ele>342</ele>
        <time>2020-05-16T14:10:46.063Z</time>
      </trkpt>
      <trkpt lat="45.73683" lon="5.31778">
        <ele>342</ele>
        <time>2020-05-16T14:10:47.063Z</time>
      </trkpt>
      <trkpt lat="45.73678" lon="5.31776">
        <ele>342</ele>
        <time>2020-05-16T14:10:48.063Z</time>
      </trkpt>
      <trkpt lat="45.73673" lon="5.31775">
        <ele>342</ele>
        <time>2020-05-16T14:10:49.063Z</time>
      </trkpt>
      <trkpt lat="45.73668" lon="5.31773">
        <ele>342</ele>
        <time>2020-05-16T14:10:50.063Z</time>
      </trkpt>
      <trkpt lat="45.73663" lon="5.31772">
        <ele>342</ele>
        <time>2020-05-16T14:10:51.063Z</time>
      </trkpt>
      <trkpt lat="45.73658" lon="5.3177">
        <ele>343</ele>
        <time>2020-05-16T14:10:52.063Z</time>
      </trkpt>
      <trkpt lat="45.73653" lon="5.31768">
        <ele>343</ele>
        <time>2020-05-16T14:10:53.063Z</time>
      </trkpt>
      <trkpt lat="45.73648" lon="5.31766">
        <ele>343</ele>
        <time>2020-05-16T14:10:54.063Z</time>
      </trkpt>
      <trkpt lat="45.73642" lon="5.31763">
        <ele>343</ele>
        <time>2020-05-16T14:10:55.063Z</time>
      </trkpt>
      <trkpt lat="45.73637" lon="5.3176">
        <ele>344</ele>
        <time>2020-05-16T14:10:56.063Z</time>
      </trkpt>
      <trkpt lat="45.73632" lon="5.31757">
        <ele>344</ele>
        <time>2020-05-16T14:10:57.063Z</time>
      </trkpt>
      <trkpt lat="45.73627" lon="5.31754">
        <ele>344</ele>
        <time>2020-05-16T14:10:58.063Z</time>
      </trkpt>
      <trkpt lat="45.73622" lon="5.31751">
        <ele>345</ele>
        <time>2020-05-16T14:10:59.063Z</time>
      </trkpt>
      <trkpt lat="45.73617" lon="5.31748">
        <ele>345</ele>
        <time>2020-05-16T14:11:00.063Z</time>
      </trkpt>
      <trkpt lat="45.73612" lon="5.31744">
        <ele>346</ele>
        <time>2020-05-16T14:11:01.063Z</time>
      </trkpt>
      <trkpt lat="45.73607" lon="5.3174">
        <ele>346</ele>
        <time>2020-05-16T14:11:02.063Z</time>
      </trkpt>
      <trkpt lat="45.73602" lon="5.31735">
        <ele>347</ele>
        <time>2020-05-16T14:11:03.063Z</time>
      </trkpt>
      <trkpt lat="45.73597" lon="5.3173">
        <ele>347</ele>
        <time>2020-05-16T14:11:04.063Z</time>
      </trkpt>
      <trkpt lat="45.73592" lon="5.31725">
        <ele>347</ele>
        <time>2020-05-16T14:11:05.063Z</time>
      </trkpt>
      <trkpt lat="45.73587" lon="5.3172">
        <ele>347</ele>
        <time>2020-05-16T14:11:06.063Z</time>
      </trkpt>
      <trkpt lat="45.73582" lon="5.31715">
        <ele>348</ele>
        <time>2020-05-16T14:11:07.063Z</time>
      </trkpt>
      <trkpt lat="45.73577" lon="5.3171">
        <ele>348</ele>
        <time>2020-05-16T14:11:08.063Z</time>
      </trkpt>
      <trkpt lat="45.73572" lon="5.31705">
        <ele>348</ele>
        <time>2020-05-16T14:11:09.063Z</time>
      </trkpt>
      <trkpt lat="45.73568" lon="5.317">
        <ele>348</ele>
        <time>2020-05-16T14:11:10.063Z</time>
      </trkpt>
      <trkpt lat="45.73563" lon="5.31695">
        <ele>348</ele>
        <time>2020-05-16T14:11:11.063Z</time>
      </trkpt>
      <trkpt lat="45.73558" lon="5.31691">
        <ele>348</ele>
        <time>2020-05-16T14:11:12.063Z</time>
      </trkpt>
      <trkpt lat="45.73554" lon="5.31687">
        <ele>348</ele>
        <time>2020-05-16T14:11:13.063Z</time>
      </trkpt>
      <trkpt lat="45.73549" lon="5.31683">
        <ele>348</ele>
        <time>2020-05-16T14:11:14.063Z</time>
      </trkpt>
      <trkpt lat="45.73544" lon="5.31679">
        <ele>348</ele>
        <time>2020-05-16T14:11:15.063Z</time>
      </trkpt>
      <trkpt lat="45.73539" lon="5.31676">
        <ele>348</ele>
        <time>2020-05-16T14:11:16.063Z</time>
      </trkpt>
      <trkpt lat="45.73533" lon="5.31673">
        <ele>348</ele>
        <time>2020-05-16T14:11:17.063Z</time>
      </trkpt>
      <trkpt lat="45.73527" lon="5.31671">
        <ele>347</ele>
        <time>2020-05-16T14:11:18.063Z</time>
      </trkpt>
      <trkpt lat="45.73521" lon="5.31668">
        <ele>347</ele>
        <time>2020-05-16T14:11:19.063Z</time>
      </trkpt>
      <trkpt lat="45.73515" lon="5.31666">
        <ele>347</ele>
        <time>2020-05-16T14:11:20.063Z</time>
      </trkpt>
      <trkpt lat="45.73508" lon="5.31664">
        <ele>347</ele>
        <time>2020-05-16T14:11:21.063Z</time>
      </trkpt>
      <trkpt lat="45.73502" lon="5.31661">
        <ele>347</ele>
        <time>2020-05-16T14:11:22.063Z</time>
      </trkpt>
      <trkpt lat="45.73495" lon="5.31658">
        <ele>347</ele>
        <time>2020-05-16T14:11:23.063Z</time>
      </trkpt>
      <trkpt lat="45.73489" lon="5.31655">
        <ele>347</ele>
        <time>2020-05-16T14:11:24.063Z</time>
      </trkpt>
      <trkpt lat="45.73482" lon="5.31652">
        <ele>347</ele>
        <time>2020-05-16T14:11:25.063Z</time>
      </trkpt>
      <trkpt lat="45.73476" lon="5.31649">
        <ele>347</ele>
        <time>2020-05-16T14:11:26.063Z</time>
      </trkpt>
      <trkpt lat="45.73469" lon="5.31646">
        <ele>347</ele>
        <time>2020-05-16T14:11:27.063Z</time>
      </trkpt>
      <trkpt lat="45.73463" lon="5.31643">
        <ele>347</ele>
        <time>2020-05-16T14:11:28.063Z</time>
      </trkpt>
      <trkpt lat="45.73458" lon="5.31639">
        <ele>347</ele>
        <time>2020-05-16T14:11:29.063Z</time>
      </trkpt>
      <trkpt lat="45.73453" lon="5.31634">
        <ele>347</ele>
        <time>2020-05-16T14:11:30.063Z</time>
      </trkpt>
      <trkpt lat="45.73448" lon="5.31628">
        <ele>347</ele>
        <time>2020-05-16T14:11:31.063Z</time>
      </trkpt>
      <trkpt lat="45.73444" lon="5.31622">
        <ele>347</ele>
        <time>2020-05-16T14:11:32.063Z</time>
      </trkpt>
      <trkpt lat="45.73439" lon="5.31616">
        <ele>347</ele>
        <time>2020-05-16T14:11:33.063Z</time>
      </trkpt>
      <trkpt lat="45.73434" lon="5.3161">
        <ele>346</ele>
        <time>2020-05-16T14:11:34.063Z</time>
      </trkpt>
      <trkpt lat="45.73428" lon="5.31604">
        <ele>346</ele>
        <time>2020-05-16T14:11:35.063Z</time>
      </trkpt>
      <trkpt lat="45.73422" lon="5.31598">
        <ele>346</ele>
        <time>2020-05-16T14:11:36.063Z</time>
      </trkpt>
      <trkpt lat="45.73416" lon="5.31593">
        <ele>346</ele>
        <time>2020-05-16T14:11:37.063Z</time>
      </trkpt>
      <trkpt lat="45.7341" lon="5.31587">
        <ele>345</ele>
        <time>2020-05-16T14:11:38.063Z</time>
      </trkpt>
      <trkpt lat="45.73403" lon="5.31582">
        <ele>345</ele>
        <time>2020-05-16T14:11:39.063Z</time>
      </trkpt>
      <trkpt lat="45.73396" lon="5.31577">
        <ele>345</ele>
        <time>2020-05-16T14:11:40.063Z</time>
      </trkpt>
      <trkpt lat="45.73389" lon="5.31573">
        <ele>344</ele>
        <time>2020-05-16T14:11:41.063Z</time>
      </trkpt>
      <trkpt lat="45.73382" lon="5.31568">
        <ele>344</ele>
        <time>2020-05-16T14:11:42.063Z</time>
      </trkpt>
      <trkpt lat="45.73374" lon="5.31563">
        <ele>344</ele>
        <time>2020-05-16T14:11:43.063Z</time>
      </trkpt>
      <trkpt lat="45.73367" lon="5.31558">
        <ele>343</ele>
        <time>2020-05-16T14:11:44.063Z</time>
      </trkpt>
      <trkpt lat="45.7336" lon="5.31553">
        <ele>343</ele>
        <time>2020-05-16T14:11:45.063Z</time>
      </trkpt>
      <trkpt lat="45.73352" lon="5.31549">
        <ele>343</ele>
        <time>2020-05-16T14:11:46.063Z</time>
      </trkpt>
      <trkpt lat="45.73345" lon="5.31545">
        <ele>343</ele>
        <time>2020-05-16T14:11:47.063Z</time>
      </trkpt>
      <trkpt lat="45.73338" lon="5.31541">
        <ele>343</ele>
        <time>2020-05-16T14:11:48.063Z</time>
      </trkpt>
      <trkpt lat="45.73331" lon="5.31537">
        <ele>343</ele>
        <time>2020-05-16T14:11:49.063Z</time>
      </trkpt>
      <trkpt lat="45.73324" lon="5.31533">
        <ele>343</ele>
        <time>2020-05-16T14:11:50.063Z</time>
      </trkpt>
      <trkpt lat="45.73317" lon="5.3153">
        <ele>342</ele>
        <time>2020-05-16T14:11:51.063Z</time>
      </trkpt>
      <trkpt lat="45.73309" lon="5.31527">
        <ele>342</ele>
        <time>2020-05-16T14:11:52.063Z</time>
      </trkpt>
      <trkpt lat="45.73302" lon="5.31523">
        <ele>342</ele>
        <time>2020-05-16T14:11:53.063Z</time>
      </trkpt>
      <trkpt lat="45.73294" lon="5.3152">
        <ele>341</ele>
        <time>2020-05-16T14:11:54.063Z</time>
      </trkpt>
      <trkpt lat="45.73286" lon="5.31517">
        <ele>341</ele>
        <time>2020-05-16T14:11:55.063Z</time>
      </trkpt>
      <trkpt lat="45.73278" lon="5.31514">
        <ele>340</ele>
        <time>2020-05-16T14:11:56.063Z</time>
      </trkpt>
      <trkpt lat="45.73271" lon="5.31511">
        <ele>340</ele>
        <time>2020-05-16T14:11:57.063Z</time>
      </trkpt>
      <trkpt lat="45.73263" lon="5.31509">
        <ele>339</ele>
        <time>2020-05-16T14:11:58.063Z</time>
      </trkpt>
      <trkpt lat="45.73255" lon="5.31507">
        <ele>338</ele>
        <time>2020-05-16T14:11:59.063Z</time>
      </trkpt>
      <trkpt lat="45.73246" lon="5.31506">
        <ele>338</ele>
        <time>2020-05-16T14:12:00.063Z</time>
      </trkpt>
      <trkpt lat="45.73238" lon="5.31506">
        <ele>338</ele>
        <time>2020-05-16T14:12:01.063Z</time>
      </trkpt>
      <trkpt lat="45.7323" lon="5.31507">
        <ele>338</ele>
        <time>2020-05-16T14:12:02.063Z</time>
      </trkpt>
      <trkpt lat="45.73221" lon="5.31509">
        <ele>336</ele>
        <time>2020-05-16T14:12:03.063Z</time>
      </trkpt>
      <trkpt lat="45.73214" lon="5.31513">
        <ele>335</ele>
        <time>2020-05-16T14:12:04.063Z</time>
      </trkpt>
      <trkpt lat="45.73206" lon="5.31518">
        <ele>334</ele>
        <time>2020-05-16T14:12:05.063Z</time>
      </trkpt>
      <trkpt lat="45.73198" lon="5.31524">
        <ele>334</ele>
        <time>2020-05-16T14:12:06.063Z</time>
      </trkpt>
      <trkpt lat="45.7319" lon="5.3153">
        <ele>334</ele>
        <time>2020-05-16T14:12:07.063Z</time>
      </trkpt>
      <trkpt lat="45.73182" lon="5.31537">
        <ele>333</ele>
        <time>2020-05-16T14:12:08.063Z</time>
      </trkpt>
      <trkpt lat="45.73174" lon="5.31544">
        <ele>333</ele>
        <time>2020-05-16T14:12:09.063Z</time>
      </trkpt>
      <trkpt lat="45.73166" lon="5.31551">
        <ele>332</ele>
        <time>2020-05-16T14:12:10.063Z</time>
      </trkpt>
      <trkpt lat="45.73158" lon="5.31558">
        <ele>331</ele>
        <time>2020-05-16T14:12:11.063Z</time>
      </trkpt>
      <trkpt lat="45.7315" lon="5.31566">
        <ele>329</ele>
        <time>2020-05-16T14:12:12.063Z</time>
      </trkpt>
      <trkpt lat="45.73141" lon="5.31574">
        <ele>329</ele>
        <time>2020-05-16T14:12:13.063Z</time>
      </trkpt>
      <trkpt lat="45.73132" lon="5.31582">
        <ele>329</ele>
        <time>2020-05-16T14:12:14.063Z</time>
      </trkpt>
      <trkpt lat="45.73122" lon="5.31589">
        <ele>329</ele>
        <time>2020-05-16T14:12:15.063Z</time>
      </trkpt>
      <trkpt lat="45.73112" lon="5.31597">
        <ele>330</ele>
        <time>2020-05-16T14:12:16.063Z</time>
      </trkpt>
      <trkpt lat="45.73103" lon="5.31604">
        <ele>329</ele>
        <time>2020-05-16T14:12:17.063Z</time>
      </trkpt>
      <trkpt lat="45.73093" lon="5.31612">
        <ele>330</ele>
        <time>2020-05-16T14:12:18.063Z</time>
      </trkpt>
      <trkpt lat="45.73084" lon="5.31619">
        <ele>330</ele>
        <time>2020-05-16T14:12:19.063Z</time>
      </trkpt>
      <trkpt lat="45.73074" lon="5.31626">
        <ele>330</ele>
        <time>2020-05-16T14:12:20.063Z</time>
      </trkpt>
      <trkpt lat="45.73066" lon="5.31633">
        <ele>330</ele>
        <time>2020-05-16T14:12:21.063Z</time>
      </trkpt>
      <trkpt lat="45.73059" lon="5.31641">
        <ele>330</ele>
        <time>2020-05-16T14:12:22.063Z</time>
      </trkpt>
      <trkpt lat="45.73053" lon="5.31648">
        <ele>331</ele>
        <time>2020-05-16T14:12:23.063Z</time>
      </trkpt>
      <trkpt lat="45.73048" lon="5.31656">
        <ele>333</ele>
        <time>2020-05-16T14:12:24.063Z</time>
      </trkpt>
      <trkpt lat="45.73044" lon="5.31662">
        <ele>335</ele>
        <time>2020-05-16T14:12:25.063Z</time>
      </trkpt>
      <trkpt lat="45.7304" lon="5.31669">
        <ele>336</ele>
        <time>2020-05-16T14:12:26.063Z</time>
      </trkpt>
      <trkpt lat="45.73035" lon="5.31675">
        <ele>336</ele>
        <time>2020-05-16T14:12:27.063Z</time>
      </trkpt>
      <trkpt lat="45.7303" lon="5.31681">
        <ele>337</ele>
        <time>2020-05-16T14:12:28.063Z</time>
      </trkpt>
      <trkpt lat="45.73025" lon="5.31686">
        <ele>337</ele>
        <time>2020-05-16T14:12:29.063Z</time>
      </trkpt>
      <trkpt lat="45.7302" lon="5.31691">
        <ele>337</ele>
        <time>2020-05-16T14:12:30.063Z</time>
      </trkpt>
      <trkpt lat="45.73015" lon="5.31696">
        <ele>337</ele>
        <time>2020-05-16T14:12:31.063Z</time>
      </trkpt>
      <trkpt lat="45.7301" lon="5.317">
        <ele>337</ele>
        <time>2020-05-16T14:12:32.063Z</time>
      </trkpt>
      <trkpt lat="45.73005" lon="5.31705">
        <ele>337</ele>
        <time>2020-05-16T14:12:33.063Z</time>
      </trkpt>
      <trkpt lat="45.73" lon="5.31709">
        <ele>338</ele>
        <time>2020-05-16T14:12:34.063Z</time>
      </trkpt>
      <trkpt lat="45.72995" lon="5.31713">
        <ele>338</ele>
        <time>2020-05-16T14:12:35.063Z</time>
      </trkpt>
      <trkpt lat="45.7299" lon="5.31718">
        <ele>339</ele>
        <time>2020-05-16T14:12:36.063Z</time>
      </trkpt>
      <trkpt lat="45.72985" lon="5.31722">
        <ele>339</ele>
        <time>2020-05-16T14:12:37.063Z</time>
      </trkpt>
      <trkpt lat="45.7298" lon="5.31726">
        <ele>340</ele>
        <time>2020-05-16T14:12:38.063Z</time>
      </trkpt>
      <trkpt lat="45.72974" lon="5.31731">
        <ele>340</ele>
        <time>2020-05-16T14:12:39.063Z</time>
      </trkpt>
      <trkpt lat="45.72969" lon="5.31736">
        <ele>341</ele>
        <time>2020-05-16T14:12:40.063Z</time>
      </trkpt>
      <trkpt lat="45.72964" lon="5.31741">
        <ele>340</ele>
        <time>2020-05-16T14:12:41.063Z</time>
      </trkpt>
      <trkpt lat="45.72957" lon="5.31745">
        <ele>340</ele>
        <time>2020-05-16T14:12:42.063Z</time>
      </trkpt>
      <trkpt lat="45.72951" lon="5.3175">
        <ele>341</ele>
        <time>2020-05-16T14:12:43.063Z</time>
      </trkpt>
      <trkpt lat="45.72945" lon="5.31754">
        <ele>342</ele>
        <time>2020-05-16T14:12:44.063Z</time>
      </trkpt>
      <trkpt lat="45.72939" lon="5.31759">
        <ele>342</ele>
        <time>2020-05-16T14:12:45.063Z</time>
      </trkpt>
      <trkpt lat="45.72933" lon="5.31764">
        <ele>343</ele>
        <time>2020-05-16T14:12:46.063Z</time>
      </trkpt>
      <trkpt lat="45.72927" lon="5.31769">
        <ele>345</ele>
        <time>2020-05-16T14:12:47.063Z</time>
      </trkpt>
      <trkpt lat="45.72921" lon="5.31773">
        <ele>346</ele>
        <time>2020-05-16T14:12:48.063Z</time>
      </trkpt>
      <trkpt lat="45.72914" lon="5.31777">
        <ele>345</ele>
        <time>2020-05-16T14:12:49.063Z</time>
      </trkpt>
      <trkpt lat="45.72908" lon="5.31781">
        <ele>345</ele>
        <time>2020-05-16T14:12:50.063Z</time>
      </trkpt>
      <trkpt lat="45.72902" lon="5.31784">
        <ele>345</ele>
        <time>2020-05-16T14:12:51.063Z</time>
      </trkpt>
      <trkpt lat="45.72896" lon="5.31787">
        <ele>346</ele>
        <time>2020-05-16T14:12:52.063Z</time>
      </trkpt>
      <trkpt lat="45.72889" lon="5.31789">
        <ele>346</ele>
        <time>2020-05-16T14:12:53.063Z</time>
      </trkpt>
      <trkpt lat="45.72883" lon="5.31791">
        <ele>346</ele>
        <time>2020-05-16T14:12:54.063Z</time>
      </trkpt>
      <trkpt lat="45.72875" lon="5.31793">
        <ele>346</ele>
        <time>2020-05-16T14:12:55.063Z</time>
      </trkpt>
      <trkpt lat="45.72868" lon="5.31795">
        <ele>346</ele>
        <time>2020-05-16T14:12:56.063Z</time>
      </trkpt>
      <trkpt lat="45.72861" lon="5.31796">
        <ele>345</ele>
        <time>2020-05-16T14:12:57.063Z</time>
      </trkpt>
      <trkpt lat="45.72854" lon="5.31798">
        <ele>345</ele>
        <time>2020-05-16T14:12:58.063Z</time>
      </trkpt>
      <trkpt lat="45.72846" lon="5.31799">
        <ele>345</ele>
        <time>2020-05-16T14:12:59.063Z</time>
      </trkpt>
      <trkpt lat="45.72838" lon="5.318">
        <ele>345</ele>
        <time>2020-05-16T14:13:00.063Z</time>
      </trkpt>
      <trkpt lat="45.7283" lon="5.31801">
        <ele>345</ele>
        <time>2020-05-16T14:13:01.063Z</time>
      </trkpt>
      <trkpt lat="45.72821" lon="5.31802">
        <ele>344</ele>
        <time>2020-05-16T14:13:02.063Z</time>
      </trkpt>
      <trkpt lat="45.72813" lon="5.31803">
        <ele>344</ele>
        <time>2020-05-16T14:13:03.063Z</time>
      </trkpt>
      <trkpt lat="45.72804" lon="5.31804">
        <ele>344</ele>
        <time>2020-05-16T14:13:04.063Z</time>
      </trkpt>
      <trkpt lat="45.72795" lon="5.31806">
        <ele>344</ele>
        <time>2020-05-16T14:13:05.063Z</time>
      </trkpt>
      <trkpt lat="45.72787" lon="5.31807">
        <ele>344</ele>
        <time>2020-05-16T14:13:06.063Z</time>
      </trkpt>
      <trkpt lat="45.72778" lon="5.31808">
        <ele>345</ele>
        <time>2020-05-16T14:13:07.063Z</time>
      </trkpt>
      <trkpt lat="45.72769" lon="5.31809">
        <ele>345</ele>
        <time>2020-05-16T14:13:08.063Z</time>
      </trkpt>
      <trkpt lat="45.7276" lon="5.31811">
        <ele>345</ele>
        <time>2020-05-16T14:13:09.063Z</time>
      </trkpt>
      <trkpt lat="45.72751" lon="5.31812">
        <ele>345</ele>
        <time>2020-05-16T14:13:10.063Z</time>
      </trkpt>
      <trkpt lat="45.72743" lon="5.31814">
        <ele>345</ele>
        <time>2020-05-16T14:13:11.063Z</time>
      </trkpt>
      <trkpt lat="45.72734" lon="5.31815">
        <ele>345</ele>
        <time>2020-05-16T14:13:12.063Z</time>
      </trkpt>
      <trkpt lat="45.72726" lon="5.31817">
        <ele>344</ele>
        <time>2020-05-16T14:13:13.063Z</time>
      </trkpt>
      <trkpt lat="45.72717" lon="5.31818">
        <ele>344</ele>
        <time>2020-05-16T14:13:14.063Z</time>
      </trkpt>
      <trkpt lat="45.72708" lon="5.3182">
        <ele>344</ele>
        <time>2020-05-16T14:13:15.063Z</time>
      </trkpt>
      <trkpt lat="45.72699" lon="5.31821">
        <ele>344</ele>
        <time>2020-05-16T14:13:16.063Z</time>
      </trkpt>
      <trkpt lat="45.7269" lon="5.31822">
        <ele>344</ele>
        <time>2020-05-16T14:13:17.063Z</time>
      </trkpt>
      <trkpt lat="45.7268" lon="5.31823">
        <ele>344</ele>
        <time>2020-05-16T14:13:18.063Z</time>
      </trkpt>
      <trkpt lat="45.72671" lon="5.31822">
        <ele>344</ele>
        <time>2020-05-16T14:13:19.063Z</time>
      </trkpt>
      <trkpt lat="45.72661" lon="5.3182">
        <ele>344</ele>
        <time>2020-05-16T14:13:20.063Z</time>
      </trkpt>
      <trkpt lat="45.72651" lon="5.31818">
        <ele>345</ele>
        <time>2020-05-16T14:13:21.063Z</time>
      </trkpt>
      <trkpt lat="45.72641" lon="5.31816">
        <ele>345</ele>
        <time>2020-05-16T14:13:22.063Z</time>
      </trkpt>
      <trkpt lat="45.72632" lon="5.31814">
        <ele>345</ele>
        <time>2020-05-16T14:13:23.063Z</time>
      </trkpt>
      <trkpt lat="45.72622" lon="5.31813">
        <ele>345</ele>
        <time>2020-05-16T14:13:24.063Z</time>
      </trkpt>
      <trkpt lat="45.72612" lon="5.31813">
        <ele>346</ele>
        <time>2020-05-16T14:13:25.063Z</time>
      </trkpt>
      <trkpt lat="45.72603" lon="5.31814">
        <ele>346</ele>
        <time>2020-05-16T14:13:26.063Z</time>
      </trkpt>
      <trkpt lat="45.72594" lon="5.31816">
        <ele>345</ele>
        <time>2020-05-16T14:13:27.063Z</time>
      </trkpt>
      <trkpt lat="45.72586" lon="5.31818">
        <ele>345</ele>
        <time>2020-05-16T14:13:28.063Z</time>
      </trkpt>
      <trkpt lat="45.72577" lon="5.3182">
        <ele>345</ele>
        <time>2020-05-16T14:13:29.063Z</time>
      </trkpt>
      <trkpt lat="45.72567" lon="5.31821">
        <ele>345</ele>
        <time>2020-05-16T14:13:30.063Z</time>
      </trkpt>
      <trkpt lat="45.72558" lon="5.31822">
        <ele>345</ele>
        <time>2020-05-16T14:13:31.063Z</time>
      </trkpt>
      <trkpt lat="45.72549" lon="5.31823">
        <ele>345</ele>
        <time>2020-05-16T14:13:32.063Z</time>
      </trkpt>
      <trkpt lat="45.7254" lon="5.31824">
        <ele>345</ele>
        <time>2020-05-16T14:13:33.063Z</time>
      </trkpt>
      <trkpt lat="45.72531" lon="5.31825">
        <ele>345</ele>
        <time>2020-05-16T14:13:34.063Z</time>
      </trkpt>
      <trkpt lat="45.72522" lon="5.31825">
        <ele>344</ele>
        <time>2020-05-16T14:13:35.063Z</time>
      </trkpt>
      <trkpt lat="45.72513" lon="5.31826">
        <ele>344</ele>
        <time>2020-05-16T14:13:36.063Z</time>
      </trkpt>
      <trkpt lat="45.72504" lon="5.31827">
        <ele>344</ele>
        <time>2020-05-16T14:13:37.063Z</time>
      </trkpt>
      <trkpt lat="45.72494" lon="5.31828">
        <ele>344</ele>
        <time>2020-05-16T14:13:38.063Z</time>
      </trkpt>
      <trkpt lat="45.72484" lon="5.3183">
        <ele>344</ele>
        <time>2020-05-16T14:13:39.063Z</time>
      </trkpt>
      <trkpt lat="45.72475" lon="5.31831">
        <ele>344</ele>
        <time>2020-05-16T14:13:40.063Z</time>
      </trkpt>
      <trkpt lat="45.72465" lon="5.31832">
        <ele>344</ele>
        <time>2020-05-16T14:13:41.063Z</time>
      </trkpt>
      <trkpt lat="45.72455" lon="5.31833">
        <ele>343</ele>
        <time>2020-05-16T14:13:42.063Z</time>
      </trkpt>
      <trkpt lat="45.72444" lon="5.31833">
        <ele>343</ele>
        <time>2020-05-16T14:13:43.063Z</time>
      </trkpt>
      <trkpt lat="45.72434" lon="5.31834">
        <ele>343</ele>
        <time>2020-05-16T14:13:44.063Z</time>
      </trkpt>
      <trkpt lat="45.72423" lon="5.31835">
        <ele>343</ele>
        <time>2020-05-16T14:13:45.063Z</time>
      </trkpt>
      <trkpt lat="45.72413" lon="5.31836">
        <ele>343</ele>
        <time>2020-05-16T14:13:46.063Z</time>
      </trkpt>
      <trkpt lat="45.72402" lon="5.31837">
        <ele>342</ele>
        <time>2020-05-16T14:13:47.063Z</time>
      </trkpt>
      <trkpt lat="45.72391" lon="5.31839">
        <ele>342</ele>
        <time>2020-05-16T14:13:48.063Z</time>
      </trkpt>
      <trkpt lat="45.7238" lon="5.31841">
        <ele>341</ele>
        <time>2020-05-16T14:13:49.063Z</time>
      </trkpt>
      <trkpt lat="45.72369" lon="5.31842">
        <ele>341</ele>
        <time>2020-05-16T14:13:50.063Z</time>
      </trkpt>
      <trkpt lat="45.72358" lon="5.31844">
        <ele>340</ele>
        <time>2020-05-16T14:13:51.063Z</time>
      </trkpt>
      <trkpt lat="45.72347" lon="5.31845">
        <ele>340</ele>
        <time>2020-05-16T14:13:52.063Z</time>
      </trkpt>
      <trkpt lat="45.72335" lon="5.31847">
        <ele>339</ele>
        <time>2020-05-16T14:13:53.063Z</time>
      </trkpt>
      <trkpt lat="45.72324" lon="5.31849">
        <ele>339</ele>
        <time>2020-05-16T14:13:54.063Z</time>
      </trkpt>
      <trkpt lat="45.72312" lon="5.31851">
        <ele>338</ele>
        <time>2020-05-16T14:13:55.063Z</time>
      </trkpt>
      <trkpt lat="45.72301" lon="5.31853">
        <ele>338</ele>
        <time>2020-05-16T14:13:56.063Z</time>
      </trkpt>
      <trkpt lat="45.72289" lon="5.31856">
        <ele>338</ele>
        <time>2020-05-16T14:13:57.063Z</time>
      </trkpt>
      <trkpt lat="45.72277" lon="5.31858">
        <ele>337</ele>
        <time>2020-05-16T14:13:58.063Z</time>
      </trkpt>
      <trkpt lat="45.72265" lon="5.3186">
        <ele>336</ele>
        <time>2020-05-16T14:13:59.063Z</time>
      </trkpt>
      <trkpt lat="45.72253" lon="5.31862">
        <ele>336</ele>
        <time>2020-05-16T14:14:00.063Z</time>
      </trkpt>
      <trkpt lat="45.72241" lon="5.31865">
        <ele>335</ele>
        <time>2020-05-16T14:14:01.063Z</time>
      </trkpt>
      <trkpt lat="45.72229" lon="5.31867">
        <ele>335</ele>
        <time>2020-05-16T14:14:02.063Z</time>
      </trkpt>
      <trkpt lat="45.72216" lon="5.31869">
        <ele>334</ele>
        <time>2020-05-16T14:14:03.063Z</time>
      </trkpt>
      <trkpt lat="45.72203" lon="5.3187">
        <ele>334</ele>
        <time>2020-05-16T14:14:04.063Z</time>
      </trkpt>
      <trkpt lat="45.72191" lon="5.31871">
        <ele>334</ele>
        <time>2020-05-16T14:14:05.063Z</time>
      </trkpt>
      <trkpt lat="45.72178" lon="5.31872">
        <ele>333</ele>
        <time>2020-05-16T14:14:06.063Z</time>
      </trkpt>
      <trkpt lat="45.72166" lon="5.31874">
        <ele>333</ele>
        <time>2020-05-16T14:14:07.063Z</time>
      </trkpt>
      <trkpt lat="45.72153" lon="5.31875">
        <ele>333</ele>
        <time>2020-05-16T14:14:08.063Z</time>
      </trkpt>
      <trkpt lat="45.72141" lon="5.31876">
        <ele>332</ele>
        <time>2020-05-16T14:14:09.063Z</time>
      </trkpt>
      <trkpt lat="45.7213" lon="5.31877">
        <ele>332</ele>
        <time>2020-05-16T14:14:10.063Z</time>
      </trkpt>
      <trkpt lat="45.72118" lon="5.31878">
        <ele>332</ele>
        <time>2020-05-16T14:14:11.063Z</time>
      </trkpt>
      <trkpt lat="45.72107" lon="5.31878">
        <ele>332</ele>
        <time>2020-05-16T14:14:12.063Z</time>
      </trkpt>
      <trkpt lat="45.72096" lon="5.31878">
        <ele>332</ele>
        <time>2020-05-16T14:14:13.063Z</time>
      </trkpt>
      <trkpt lat="45.72085" lon="5.31878">
        <ele>331</ele>
        <time>2020-05-16T14:14:14.063Z</time>
      </trkpt>
      <trkpt lat="45.72075" lon="5.31878">
        <ele>331</ele>
        <time>2020-05-16T14:14:15.063Z</time>
      </trkpt>
      <trkpt lat="45.72064" lon="5.31878">
        <ele>331</ele>
        <time>2020-05-16T14:14:16.063Z</time>
      </trkpt>
      <trkpt lat="45.72054" lon="5.31878">
        <ele>331</ele>
        <time>2020-05-16T14:14:17.063Z</time>
      </trkpt>
      <trkpt lat="45.72044" lon="5.31878">
        <ele>332</ele>
        <time>2020-05-16T14:14:18.063Z</time>
      </trkpt>
      <trkpt lat="45.72034" lon="5.31877">
        <ele>331</ele>
        <time>2020-05-16T14:14:19.063Z</time>
      </trkpt>
      <trkpt lat="45.72024" lon="5.31876">
        <ele>331</ele>
        <time>2020-05-16T14:14:20.063Z</time>
      </trkpt>
      <trkpt lat="45.72015" lon="5.31873">
        <ele>331</ele>
        <time>2020-05-16T14:14:21.063Z</time>
      </trkpt>
      <trkpt lat="45.72006" lon="5.31871">
        <ele>331</ele>
        <time>2020-05-16T14:14:22.063Z</time>
      </trkpt>
      <trkpt lat="45.71997" lon="5.31869">
        <ele>331</ele>
        <time>2020-05-16T14:14:23.063Z</time>
      </trkpt>
      <trkpt lat="45.71988" lon="5.31868">
        <ele>331</ele>
        <time>2020-05-16T14:14:24.063Z</time>
      </trkpt>
      <trkpt lat="45.7198" lon="5.31868">
        <ele>330</ele>
        <time>2020-05-16T14:14:25.063Z</time>
      </trkpt>
      <trkpt lat="45.71971" lon="5.31869">
        <ele>330</ele>
        <time>2020-05-16T14:14:26.063Z</time>
      </trkpt>
      <trkpt lat="45.71963" lon="5.3187">
        <ele>330</ele>
        <time>2020-05-16T14:14:27.063Z</time>
      </trkpt>
      <trkpt lat="45.71955" lon="5.31872">
        <ele>329</ele>
        <time>2020-05-16T14:14:28.063Z</time>
      </trkpt>
      <trkpt lat="45.71947" lon="5.31874">
        <ele>329</ele>
        <time>2020-05-16T14:14:29.063Z</time>
      </trkpt>
      <trkpt lat="45.71939" lon="5.31876">
        <ele>329</ele>
        <time>2020-05-16T14:14:30.063Z</time>
      </trkpt>
      <trkpt lat="45.7193" lon="5.31879">
        <ele>328</ele>
        <time>2020-05-16T14:14:31.063Z</time>
      </trkpt>
      <trkpt lat="45.71921" lon="5.31881">
        <ele>328</ele>
        <time>2020-05-16T14:14:32.063Z</time>
      </trkpt>
      <trkpt lat="45.71912" lon="5.31883">
        <ele>328</ele>
        <time>2020-05-16T14:14:33.063Z</time>
      </trkpt>
      <trkpt lat="45.71904" lon="5.31884">
        <ele>328</ele>
        <time>2020-05-16T14:14:34.063Z</time>
      </trkpt>
      <trkpt lat="45.71895" lon="5.31886">
        <ele>328</ele>
        <time>2020-05-16T14:14:35.063Z</time>
      </trkpt>
      <trkpt lat="45.71888" lon="5.31888">
        <ele>328</ele>
        <time>2020-05-16T14:14:36.063Z</time>
      </trkpt>
      <trkpt lat="45.7188" lon="5.3189">
        <ele>328</ele>
        <time>2020-05-16T14:14:37.063Z</time>
      </trkpt>
      <trkpt lat="45.71873" lon="5.31892">
        <ele>328</ele>
        <time>2020-05-16T14:14:38.063Z</time>
      </trkpt>
      <trkpt lat="45.71865" lon="5.31893">
        <ele>329</ele>
        <time>2020-05-16T14:14:39.063Z</time>
      </trkpt>
      <trkpt lat="45.71856" lon="5.31893">
        <ele>331</ele>
        <time>2020-05-16T14:14:40.063Z</time>
      </trkpt>
      <trkpt lat="45.71847" lon="5.31893">
        <ele>331</ele>
        <time>2020-05-16T14:14:41.063Z</time>
      </trkpt>
      <trkpt lat="45.71839" lon="5.31892">
        <ele>331</ele>
        <time>2020-05-16T14:14:42.063Z</time>
      </trkpt>
      <trkpt lat="45.7183" lon="5.3189">
        <ele>331</ele>
        <time>2020-05-16T14:14:43.063Z</time>
      </trkpt>
      <trkpt lat="45.71821" lon="5.31889">
        <ele>330</ele>
        <time>2020-05-16T14:14:44.063Z</time>
      </trkpt>
      <trkpt lat="45.71812" lon="5.31887">
        <ele>330</ele>
        <time>2020-05-16T14:14:45.063Z</time>
      </trkpt>
      <trkpt lat="45.71803" lon="5.31886">
        <ele>329</ele>
        <time>2020-05-16T14:14:46.063Z</time>
      </trkpt>
      <trkpt lat="45.71794" lon="5.31885">
        <ele>329</ele>
        <time>2020-05-16T14:14:47.063Z</time>
      </trkpt>
      <trkpt lat="45.71784" lon="5.31884">
        <ele>329</ele>
        <time>2020-05-16T14:14:48.063Z</time>
      </trkpt>
      <trkpt lat="45.71775" lon="5.31882">
        <ele>328</ele>
        <time>2020-05-16T14:14:49.063Z</time>
      </trkpt>
      <trkpt lat="45.71766" lon="5.31881">
        <ele>328</ele>
        <time>2020-05-16T14:14:50.063Z</time>
      </trkpt>
      <trkpt lat="45.71757" lon="5.3188">
        <ele>327</ele>
        <time>2020-05-16T14:14:51.063Z</time>
      </trkpt>
      <trkpt lat="45.71748" lon="5.31879">
        <ele>327</ele>
        <time>2020-05-16T14:14:52.063Z</time>
      </trkpt>
      <trkpt lat="45.71738" lon="5.31878">
        <ele>327</ele>
        <time>2020-05-16T14:14:53.063Z</time>
      </trkpt>
      <trkpt lat="45.7173" lon="5.31878">
        <ele>327</ele>
        <time>2020-05-16T14:14:54.063Z</time>
      </trkpt>
      <trkpt lat="45.71721" lon="5.31878">
        <ele>327</ele>
        <time>2020-05-16T14:14:55.063Z</time>
      </trkpt>
      <trkpt lat="45.71713" lon="5.3188">
        <ele>326</ele>
        <time>2020-05-16T14:14:56.063Z</time>
      </trkpt>
      <trkpt lat="45.71706" lon="5.31883">
        <ele>325</ele>
        <time>2020-05-16T14:14:57.063Z</time>
      </trkpt>
      <trkpt lat="45.71698" lon="5.31887">
        <ele>325</ele>
        <time>2020-05-16T14:14:58.063Z</time>
      </trkpt>
      <trkpt lat="45.71691" lon="5.31892">
        <ele>325</ele>
        <time>2020-05-16T14:14:59.063Z</time>
      </trkpt>
      <trkpt lat="45.71683" lon="5.31897">
        <ele>325</ele>
        <time>2020-05-16T14:15:00.063Z</time>
      </trkpt>
      <trkpt lat="45.71676" lon="5.31902">
        <ele>324</ele>
        <time>2020-05-16T14:15:01.063Z</time>
      </trkpt>
      <trkpt lat="45.7167" lon="5.31909">
        <ele>324</ele>
        <time>2020-05-16T14:15:02.063Z</time>
      </trkpt>
      <trkpt lat="45.71663" lon="5.31915">
        <ele>323</ele>
        <time>2020-05-16T14:15:03.063Z</time>
      </trkpt>
      <trkpt lat="45.71657" lon="5.31923">
        <ele>323</ele>
        <time>2020-05-16T14:15:04.063Z</time>
      </trkpt>
      <trkpt lat="45.7165" lon="5.3193">
        <ele>323</ele>
        <time>2020-05-16T14:15:05.063Z</time>
      </trkpt>
      <trkpt lat="45.71643" lon="5.31939">
        <ele>322</ele>
        <time>2020-05-16T14:15:06.063Z</time>
      </trkpt>
      <trkpt lat="45.71636" lon="5.31947">
        <ele>322</ele>
        <time>2020-05-16T14:15:07.063Z</time>
      </trkpt>
      <trkpt lat="45.71629" lon="5.31956">
        <ele>321</ele>
        <time>2020-05-16T14:15:08.063Z</time>
      </trkpt>
      <trkpt lat="45.71622" lon="5.31965">
        <ele>320</ele>
        <time>2020-05-16T14:15:09.063Z</time>
      </trkpt>
      <trkpt lat="45.71615" lon="5.31974">
        <ele>319</ele>
        <time>2020-05-16T14:15:10.063Z</time>
      </trkpt>
      <trkpt lat="45.71607" lon="5.31983">
        <ele>319</ele>
        <time>2020-05-16T14:15:11.063Z</time>
      </trkpt>
      <trkpt lat="45.71599" lon="5.31993">
        <ele>318</ele>
        <time>2020-05-16T14:15:12.063Z</time>
      </trkpt>
      <trkpt lat="45.71592" lon="5.32002">
        <ele>317</ele>
        <time>2020-05-16T14:15:13.063Z</time>
      </trkpt>
      <trkpt lat="45.71584" lon="5.32012">
        <ele>317</ele>
        <time>2020-05-16T14:15:14.063Z</time>
      </trkpt>
      <trkpt lat="45.71577" lon="5.32023">
        <ele>316</ele>
        <time>2020-05-16T14:15:15.063Z</time>
      </trkpt>
      <trkpt lat="45.71569" lon="5.32033">
        <ele>315</ele>
        <time>2020-05-16T14:15:16.063Z</time>
      </trkpt>
      <trkpt lat="45.71561" lon="5.32044">
        <ele>314</ele>
        <time>2020-05-16T14:15:17.063Z</time>
      </trkpt>
      <trkpt lat="45.71553" lon="5.32055">
        <ele>313</ele>
        <time>2020-05-16T14:15:18.063Z</time>
      </trkpt>
      <trkpt lat="45.71545" lon="5.32065">
        <ele>312</ele>
        <time>2020-05-16T14:15:19.063Z</time>
      </trkpt>
      <trkpt lat="45.71536" lon="5.32074">
        <ele>312</ele>
        <time>2020-05-16T14:15:20.063Z</time>
      </trkpt>
      <trkpt lat="45.71526" lon="5.32083">
        <ele>311</ele>
        <time>2020-05-16T14:15:21.063Z</time>
      </trkpt>
      <trkpt lat="45.71516" lon="5.32092">
        <ele>310</ele>
        <time>2020-05-16T14:15:22.063Z</time>
      </trkpt>
      <trkpt lat="45.71506" lon="5.321">
        <ele>309</ele>
        <time>2020-05-16T14:15:23.063Z</time>
      </trkpt>
      <trkpt lat="45.71495" lon="5.32107">
        <ele>309</ele>
        <time>2020-05-16T14:15:24.063Z</time>
      </trkpt>
      <trkpt lat="45.71485" lon="5.32114">
        <ele>308</ele>
        <time>2020-05-16T14:15:25.063Z</time>
      </trkpt>
      <trkpt lat="45.71474" lon="5.32121">
        <ele>308</ele>
        <time>2020-05-16T14:15:26.063Z</time>
      </trkpt>
      <trkpt lat="45.71464" lon="5.32127">
        <ele>307</ele>
        <time>2020-05-16T14:15:27.063Z</time>
      </trkpt>
      <trkpt lat="45.71454" lon="5.32132">
        <ele>307</ele>
        <time>2020-05-16T14:15:28.063Z</time>
      </trkpt>
      <trkpt lat="45.71445" lon="5.32137">
        <ele>306</ele>
        <time>2020-05-16T14:15:29.063Z</time>
      </trkpt>
      <trkpt lat="45.71437" lon="5.32141">
        <ele>306</ele>
        <time>2020-05-16T14:15:30.063Z</time>
      </trkpt>
      <trkpt lat="45.71428" lon="5.32145">
        <ele>305</ele>
        <time>2020-05-16T14:15:31.063Z</time>
      </trkpt>
      <trkpt lat="45.7142" lon="5.32149">
        <ele>305</ele>
        <time>2020-05-16T14:15:32.063Z</time>
      </trkpt>
      <trkpt lat="45.71411" lon="5.32153">
        <ele>305</ele>
        <time>2020-05-16T14:15:33.063Z</time>
      </trkpt>
      <trkpt lat="45.71403" lon="5.32157">
        <ele>305</ele>
        <time>2020-05-16T14:15:34.063Z</time>
      </trkpt>
      <trkpt lat="45.71395" lon="5.32162">
        <ele>304</ele>
        <time>2020-05-16T14:15:35.063Z</time>
      </trkpt>
      <trkpt lat="45.71388" lon="5.32167">
        <ele>304</ele>
        <time>2020-05-16T14:15:36.063Z</time>
      </trkpt>
      <trkpt lat="45.71381" lon="5.32171">
        <ele>304</ele>
        <time>2020-05-16T14:15:37.063Z</time>
      </trkpt>
      <trkpt lat="45.71375" lon="5.32175">
        <ele>304</ele>
        <time>2020-05-16T14:15:38.063Z</time>
      </trkpt>
      <trkpt lat="45.71369" lon="5.32178">
        <ele>304</ele>
        <time>2020-05-16T14:15:39.063Z</time>
      </trkpt>
      <trkpt lat="45.71365" lon="5.32181">
        <ele>303</ele>
        <time>2020-05-16T14:15:40.063Z</time>
      </trkpt>
      <trkpt lat="45.71361" lon="5.32183">
        <ele>303</ele>
        <time>2020-05-16T14:15:41.063Z</time>
      </trkpt>
      <trkpt lat="45.71358" lon="5.32185">
        <ele>303</ele>
        <time>2020-05-16T14:15:42.063Z</time>
      </trkpt>
      <trkpt lat="45.71356" lon="5.32186">
        <ele>303</ele>
        <time>2020-05-16T14:15:43.063Z</time>
      </trkpt>
      <trkpt lat="45.71356" lon="5.32186">
        <ele>303</ele>
        <time>2020-05-16T14:15:44.063Z</time>
      </trkpt>
      <trkpt lat="45.71355" lon="5.32186">
        <ele>303</ele>
        <time>2020-05-16T14:15:45.063Z</time>
      </trkpt>
      <trkpt lat="45.71355" lon="5.32186">
        <ele>303</ele>
        <time>2020-05-16T14:15:46.063Z</time>
      </trkpt>
      <trkpt lat="45.71355" lon="5.32186">
        <ele>303</ele>
        <time>2020-05-16T14:15:47.063Z</time>
      </trkpt>
      <trkpt lat="45.71355" lon="5.32186">
        <ele>303</ele>
        <time>2020-05-16T14:15:48.063Z</time>
      </trkpt>
      <trkpt lat="45.71355" lon="5.32186">
        <ele>303</ele>
        <time>2020-05-16T14:15:49.063Z</time>
      </trkpt>
      <trkpt lat="45.71355" lon="5.32186">
        <ele>303</ele>
        <time>2020-05-16T14:15:50.063Z</time>
      </trkpt>
      <trkpt lat="45.71355" lon="5.32186">
        <ele>303</ele>
        <time>2020-05-16T14:15:51.063Z</time>
      </trkpt>
      <trkpt lat="45.71355" lon="5.32186">
        <ele>303</ele>
        <time>2020-05-16T14:15:52.063Z</time>
      </trkpt>
      <trkpt lat="45.71355" lon="5.32186">
        <ele>302</ele>
        <time>2020-05-16T14:15:53.063Z</time>
      </trkpt>
      <trkpt lat="45.71355" lon="5.32187">
        <ele>302</ele>
        <time>2020-05-16T14:15:54.063Z</time>
      </trkpt>
      <trkpt lat="45.71354" lon="5.32189">
        <ele>302</ele>
        <time>2020-05-16T14:15:55.063Z</time>
      </trkpt>
      <trkpt lat="45.71352" lon="5.32191">
        <ele>302</ele>
        <time>2020-05-16T14:15:56.063Z</time>
      </trkpt>
      <trkpt lat="45.7135" lon="5.32193">
        <ele>302</ele>
        <time>2020-05-16T14:15:57.063Z</time>
      </trkpt>
      <trkpt lat="45.71347" lon="5.32195">
        <ele>302</ele>
        <time>2020-05-16T14:15:58.063Z</time>
      </trkpt>
      <trkpt lat="45.71345" lon="5.32197">
        <ele>301</ele>
        <time>2020-05-16T14:15:59.063Z</time>
      </trkpt>
      <trkpt lat="45.71341" lon="5.32199">
        <ele>301</ele>
        <time>2020-05-16T14:16:00.063Z</time>
      </trkpt>
      <trkpt lat="45.71338" lon="5.32202">
        <ele>301</ele>
        <time>2020-05-16T14:16:01.063Z</time>
      </trkpt>
      <trkpt lat="45.71335" lon="5.32206">
        <ele>301</ele>
        <time>2020-05-16T14:16:02.063Z</time>
      </trkpt>
      <trkpt lat="45.71331" lon="5.32209">
        <ele>301</ele>
        <time>2020-05-16T14:16:03.063Z</time>
      </trkpt>
      <trkpt lat="45.71327" lon="5.32212">
        <ele>301</ele>
        <time>2020-05-16T14:16:04.063Z</time>
      </trkpt>
      <trkpt lat="45.71323" lon="5.32215">
        <ele>301</ele>
        <time>2020-05-16T14:16:05.063Z</time>
      </trkpt>
      <trkpt lat="45.71319" lon="5.3222">
        <ele>301</ele>
        <time>2020-05-16T14:16:06.063Z</time>
      </trkpt>
      <trkpt lat="45.71315" lon="5.32225">
        <ele>301</ele>
        <time>2020-05-16T14:16:07.063Z</time>
      </trkpt>
      <trkpt lat="45.7131" lon="5.3223">
        <ele>301</ele>
        <time>2020-05-16T14:16:08.063Z</time>
      </trkpt>
      <trkpt lat="45.71305" lon="5.32234">
        <ele>300</ele>
        <time>2020-05-16T14:16:09.063Z</time>
      </trkpt>
      <trkpt lat="45.71301" lon="5.32239">
        <ele>300</ele>
        <time>2020-05-16T14:16:10.063Z</time>
      </trkpt>
      <trkpt lat="45.71296" lon="5.32243">
        <ele>300</ele>
        <time>2020-05-16T14:16:11.063Z</time>
      </trkpt>
      <trkpt lat="45.71291" lon="5.32248">
        <ele>300</ele>
        <time>2020-05-16T14:16:12.063Z</time>
      </trkpt>
      <trkpt lat="45.71286" lon="5.32252">
        <ele>299</ele>
        <time>2020-05-16T14:16:13.063Z</time>
      </trkpt>
      <trkpt lat="45.7128" lon="5.32257">
        <ele>299</ele>
        <time>2020-05-16T14:16:14.063Z</time>
      </trkpt>
      <trkpt lat="45.71275" lon="5.32261">
        <ele>299</ele>
        <time>2020-05-16T14:16:15.063Z</time>
      </trkpt>
      <trkpt lat="45.71269" lon="5.32265">
        <ele>299</ele>
        <time>2020-05-16T14:16:16.063Z</time>
      </trkpt>
      <trkpt lat="45.71264" lon="5.3227">
        <ele>298</ele>
        <time>2020-05-16T14:16:17.063Z</time>
      </trkpt>
      <trkpt lat="45.71258" lon="5.32275">
        <ele>298</ele>
        <time>2020-05-16T14:16:18.063Z</time>
      </trkpt>
      <trkpt lat="45.71252" lon="5.32279">
        <ele>297</ele>
        <time>2020-05-16T14:16:19.063Z</time>
      </trkpt>
      <trkpt lat="45.71245" lon="5.32284">
        <ele>297</ele>
        <time>2020-05-16T14:16:20.063Z</time>
      </trkpt>
      <trkpt lat="45.71239" lon="5.32289">
        <ele>296</ele>
        <time>2020-05-16T14:16:21.063Z</time>
      </trkpt>
      <trkpt lat="45.71233" lon="5.32295">
        <ele>296</ele>
        <time>2020-05-16T14:16:22.063Z</time>
      </trkpt>
      <trkpt lat="45.71226" lon="5.323">
        <ele>296</ele>
        <time>2020-05-16T14:16:23.063Z</time>
      </trkpt>
      <trkpt lat="45.71219" lon="5.32306">
        <ele>295</ele>
        <time>2020-05-16T14:16:24.063Z</time>
      </trkpt>
      <trkpt lat="45.71212" lon="5.32312">
        <ele>295</ele>
        <time>2020-05-16T14:16:25.063Z</time>
      </trkpt>
      <trkpt lat="45.71205" lon="5.32317">
        <ele>295</ele>
        <time>2020-05-16T14:16:26.063Z</time>
      </trkpt>
      <trkpt lat="45.71197" lon="5.32323">
        <ele>294</ele>
        <time>2020-05-16T14:16:27.063Z</time>
      </trkpt>
      <trkpt lat="45.71189" lon="5.3233">
        <ele>294</ele>
        <time>2020-05-16T14:16:28.063Z</time>
      </trkpt>
      <trkpt lat="45.71181" lon="5.32336">
        <ele>293</ele>
        <time>2020-05-16T14:16:29.063Z</time>
      </trkpt>
      <trkpt lat="45.71172" lon="5.32343">
        <ele>293</ele>
        <time>2020-05-16T14:16:30.063Z</time>
      </trkpt>
      <trkpt lat="45.71164" lon="5.3235">
        <ele>293</ele>
        <time>2020-05-16T14:16:31.063Z</time>
      </trkpt>
      <trkpt lat="45.71155" lon="5.32357">
        <ele>292</ele>
        <time>2020-05-16T14:16:32.063Z</time>
      </trkpt>
      <trkpt lat="45.71146" lon="5.32364">
        <ele>292</ele>
        <time>2020-05-16T14:16:33.063Z</time>
      </trkpt>
      <trkpt lat="45.71137" lon="5.32371">
        <ele>292</ele>
        <time>2020-05-16T14:16:34.063Z</time>
      </trkpt>
      <trkpt lat="45.71127" lon="5.32379">
        <ele>291</ele>
        <time>2020-05-16T14:16:35.063Z</time>
      </trkpt>
      <trkpt lat="45.71116" lon="5.32386">
        <ele>291</ele>
        <time>2020-05-16T14:16:36.063Z</time>
      </trkpt>
      <trkpt lat="45.71106" lon="5.32394">
        <ele>291</ele>
        <time>2020-05-16T14:16:37.063Z</time>
      </trkpt>
      <trkpt lat="45.71096" lon="5.32402">
        <ele>291</ele>
        <time>2020-05-16T14:16:38.063Z</time>
      </trkpt>
      <trkpt lat="45.71086" lon="5.3241">
        <ele>291</ele>
        <time>2020-05-16T14:16:39.063Z</time>
      </trkpt>
      <trkpt lat="45.71076" lon="5.32419">
        <ele>290</ele>
        <time>2020-05-16T14:16:40.063Z</time>
      </trkpt>
      <trkpt lat="45.71066" lon="5.32427">
        <ele>290</ele>
        <time>2020-05-16T14:16:41.063Z</time>
      </trkpt>
      <trkpt lat="45.71057" lon="5.32435">
        <ele>290</ele>
        <time>2020-05-16T14:16:42.063Z</time>
      </trkpt>
      <trkpt lat="45.71048" lon="5.32443">
        <ele>290</ele>
        <time>2020-05-16T14:16:43.063Z</time>
      </trkpt>
      <trkpt lat="45.71039" lon="5.32452">
        <ele>289</ele>
        <time>2020-05-16T14:16:44.063Z</time>
      </trkpt>
      <trkpt lat="45.7103" lon="5.3246">
        <ele>289</ele>
        <time>2020-05-16T14:16:45.063Z</time>
      </trkpt>
      <trkpt lat="45.71021" lon="5.32469">
        <ele>289</ele>
        <time>2020-05-16T14:16:46.063Z</time>
      </trkpt>
      <trkpt lat="45.71012" lon="5.32478">
        <ele>288</ele>
        <time>2020-05-16T14:16:47.063Z</time>
      </trkpt>
      <trkpt lat="45.71003" lon="5.32487">
        <ele>288</ele>
        <time>2020-05-16T14:16:48.063Z</time>
      </trkpt>
      <trkpt lat="45.70994" lon="5.32496">
        <ele>288</ele>
        <time>2020-05-16T14:16:49.063Z</time>
      </trkpt>
      <trkpt lat="45.70985" lon="5.32505">
        <ele>288</ele>
        <time>2020-05-16T14:16:50.063Z</time>
      </trkpt>
      <trkpt lat="45.70976" lon="5.32513">
        <ele>287</ele>
        <time>2020-05-16T14:16:51.063Z</time>
      </trkpt>
      <trkpt lat="45.70968" lon="5.32522">
        <ele>287</ele>
        <time>2020-05-16T14:16:52.063Z</time>
      </trkpt>
      <trkpt lat="45.70959" lon="5.32531">
        <ele>287</ele>
        <time>2020-05-16T14:16:53.063Z</time>
      </trkpt>
      <trkpt lat="45.70951" lon="5.32539">
        <ele>287</ele>
        <time>2020-05-16T14:16:54.063Z</time>
      </trkpt>
      <trkpt lat="45.70943" lon="5.32547">
        <ele>287</ele>
        <time>2020-05-16T14:16:55.063Z</time>
      </trkpt>
      <trkpt lat="45.70935" lon="5.32556">
        <ele>287</ele>
        <time>2020-05-16T14:16:56.063Z</time>
      </trkpt>
      <trkpt lat="45.70927" lon="5.32564">
        <ele>287</ele>
        <time>2020-05-16T14:16:57.063Z</time>
      </trkpt>
      <trkpt lat="45.70919" lon="5.32572">
        <ele>287</ele>
        <time>2020-05-16T14:16:58.063Z</time>
      </trkpt>
      <trkpt lat="45.70912" lon="5.3258">
        <ele>287</ele>
        <time>2020-05-16T14:16:59.063Z</time>
      </trkpt>
      <trkpt lat="45.70904" lon="5.32587">
        <ele>287</ele>
        <time>2020-05-16T14:17:00.063Z</time>
      </trkpt>
      <trkpt lat="45.70896" lon="5.32595">
        <ele>287</ele>
        <time>2020-05-16T14:17:01.063Z</time>
      </trkpt>
      <trkpt lat="45.70888" lon="5.32603">
        <ele>287</ele>
        <time>2020-05-16T14:17:02.063Z</time>
      </trkpt>
      <trkpt lat="45.7088" lon="5.32611">
        <ele>287</ele>
        <time>2020-05-16T14:17:03.063Z</time>
      </trkpt>
      <trkpt lat="45.70873" lon="5.32619">
        <ele>287</ele>
        <time>2020-05-16T14:17:04.063Z</time>
      </trkpt>
      <trkpt lat="45.70865" lon="5.32627">
        <ele>287</ele>
        <time>2020-05-16T14:17:05.063Z</time>
      </trkpt>
      <trkpt lat="45.70858" lon="5.32634">
        <ele>287</ele>
        <time>2020-05-16T14:17:06.063Z</time>
      </trkpt>
      <trkpt lat="45.7085" lon="5.32642">
        <ele>288</ele>
        <time>2020-05-16T14:17:07.063Z</time>
      </trkpt>
      <trkpt lat="45.70843" lon="5.32649">
        <ele>288</ele>
        <time>2020-05-16T14:17:08.063Z</time>
      </trkpt>
      <trkpt lat="45.70836" lon="5.32657">
        <ele>288</ele>
        <time>2020-05-16T14:17:09.063Z</time>
      </trkpt>
      <trkpt lat="45.70828" lon="5.32664">
        <ele>288</ele>
        <time>2020-05-16T14:17:10.063Z</time>
      </trkpt>
      <trkpt lat="45.70821" lon="5.32671">
        <ele>288</ele>
        <time>2020-05-16T14:17:11.063Z</time>
      </trkpt>
      <trkpt lat="45.70814" lon="5.32678">
        <ele>288</ele>
        <time>2020-05-16T14:17:12.063Z</time>
      </trkpt>
      <trkpt lat="45.70806" lon="5.32685">
        <ele>288</ele>
        <time>2020-05-16T14:17:13.063Z</time>
      </trkpt>
      <trkpt lat="45.70798" lon="5.32692">
        <ele>287</ele>
        <time>2020-05-16T14:17:14.063Z</time>
      </trkpt>
      <trkpt lat="45.70791" lon="5.32699">
        <ele>287</ele>
        <time>2020-05-16T14:17:15.063Z</time>
      </trkpt>
      <trkpt lat="45.70783" lon="5.32706">
        <ele>287</ele>
        <time>2020-05-16T14:17:16.063Z</time>
      </trkpt>
      <trkpt lat="45.70775" lon="5.32712">
        <ele>287</ele>
        <time>2020-05-16T14:17:17.063Z</time>
      </trkpt>
      <trkpt lat="45.70767" lon="5.32717">
        <ele>287</ele>
        <time>2020-05-16T14:17:18.063Z</time>
      </trkpt>
      <trkpt lat="45.70758" lon="5.32722">
        <ele>287</ele>
        <time>2020-05-16T14:17:19.063Z</time>
      </trkpt>
      <trkpt lat="45.70749" lon="5.32726">
        <ele>287</ele>
        <time>2020-05-16T14:17:20.063Z</time>
      </trkpt>
      <trkpt lat="45.70741" lon="5.32731">
        <ele>287</ele>
        <time>2020-05-16T14:17:21.063Z</time>
      </trkpt>
      <trkpt lat="45.70732" lon="5.32735">
        <ele>287</ele>
        <time>2020-05-16T14:17:22.063Z</time>
      </trkpt>
      <trkpt lat="45.70723" lon="5.32738">
        <ele>286</ele>
        <time>2020-05-16T14:17:23.063Z</time>
      </trkpt>
      <trkpt lat="45.70714" lon="5.32742">
        <ele>286</ele>
        <time>2020-05-16T14:17:24.063Z</time>
      </trkpt>
      <trkpt lat="45.70705" lon="5.32745">
        <ele>286</ele>
        <time>2020-05-16T14:17:25.063Z</time>
      </trkpt>
      <trkpt lat="45.70696" lon="5.32749">
        <ele>286</ele>
        <time>2020-05-16T14:17:26.063Z</time>
      </trkpt>
      <trkpt lat="45.70687" lon="5.32752">
        <ele>285</ele>
        <time>2020-05-16T14:17:27.063Z</time>
      </trkpt>
      <trkpt lat="45.70678" lon="5.32756">
        <ele>284</ele>
        <time>2020-05-16T14:17:28.063Z</time>
      </trkpt>
      <trkpt lat="45.7067" lon="5.32759">
        <ele>283</ele>
        <time>2020-05-16T14:17:29.063Z</time>
      </trkpt>
      <trkpt lat="45.7066" lon="5.32763">
        <ele>283</ele>
        <time>2020-05-16T14:17:30.063Z</time>
      </trkpt>
      <trkpt lat="45.70651" lon="5.32766">
        <ele>283</ele>
        <time>2020-05-16T14:17:31.063Z</time>
      </trkpt>
      <trkpt lat="45.70642" lon="5.3277">
        <ele>282</ele>
        <time>2020-05-16T14:17:32.063Z</time>
      </trkpt>
      <trkpt lat="45.70633" lon="5.32773">
        <ele>282</ele>
        <time>2020-05-16T14:17:33.063Z</time>
      </trkpt>
      <trkpt lat="45.70624" lon="5.32777">
        <ele>282</ele>
        <time>2020-05-16T14:17:34.063Z</time>
      </trkpt>
      <trkpt lat="45.70615" lon="5.32781">
        <ele>281</ele>
        <time>2020-05-16T14:17:35.063Z</time>
      </trkpt>
      <trkpt lat="45.70606" lon="5.32784">
        <ele>281</ele>
        <time>2020-05-16T14:17:36.063Z</time>
      </trkpt>
      <trkpt lat="45.70597" lon="5.32788">
        <ele>281</ele>
        <time>2020-05-16T14:17:37.063Z</time>
      </trkpt>
      <trkpt lat="45.70589" lon="5.32791">
        <ele>281</ele>
        <time>2020-05-16T14:17:38.063Z</time>
      </trkpt>
      <trkpt lat="45.70581" lon="5.32795">
        <ele>281</ele>
        <time>2020-05-16T14:17:39.063Z</time>
      </trkpt>
      <trkpt lat="45.70573" lon="5.32799">
        <ele>281</ele>
        <time>2020-05-16T14:17:40.063Z</time>
      </trkpt>
      <trkpt lat="45.70565" lon="5.32804">
        <ele>280</ele>
        <time>2020-05-16T14:17:41.063Z</time>
      </trkpt>
      <trkpt lat="45.70557" lon="5.32808">
        <ele>279</ele>
        <time>2020-05-16T14:17:42.063Z</time>
      </trkpt>
      <trkpt lat="45.7055" lon="5.32813">
        <ele>279</ele>
        <time>2020-05-16T14:17:43.063Z</time>
      </trkpt>
      <trkpt lat="45.70542" lon="5.32818">
        <ele>279</ele>
        <time>2020-05-16T14:17:44.063Z</time>
      </trkpt>
      <trkpt lat="45.70534" lon="5.32822">
        <ele>279</ele>
        <time>2020-05-16T14:17:45.063Z</time>
      </trkpt>
      <trkpt lat="45.70526" lon="5.32827">
        <ele>278</ele>
        <time>2020-05-16T14:17:46.063Z</time>
      </trkpt>
      <trkpt lat="45.70517" lon="5.32831">
        <ele>277</ele>
        <time>2020-05-16T14:17:47.063Z</time>
      </trkpt>
      <trkpt lat="45.70509" lon="5.32835">
        <ele>277</ele>
        <time>2020-05-16T14:17:48.063Z</time>
      </trkpt>
      <trkpt lat="45.705" lon="5.32839">
        <ele>277</ele>
        <time>2020-05-16T14:17:49.063Z</time>
      </trkpt>
      <trkpt lat="45.70491" lon="5.32843">
        <ele>276</ele>
        <time>2020-05-16T14:17:50.063Z</time>
      </trkpt>
      <trkpt lat="45.70482" lon="5.32847">
        <ele>276</ele>
        <time>2020-05-16T14:17:51.063Z</time>
      </trkpt>
      <trkpt lat="45.70472" lon="5.32851">
        <ele>276</ele>
        <time>2020-05-16T14:17:52.063Z</time>
      </trkpt>
      <trkpt lat="45.70463" lon="5.32856">
        <ele>275</ele>
        <time>2020-05-16T14:17:53.063Z</time>
      </trkpt>
      <trkpt lat="45.70454" lon="5.3286">
        <ele>275</ele>
        <time>2020-05-16T14:17:54.063Z</time>
      </trkpt>
      <trkpt lat="45.70444" lon="5.32865">
        <ele>274</ele>
        <time>2020-05-16T14:17:55.063Z</time>
      </trkpt>
      <trkpt lat="45.70435" lon="5.32869">
        <ele>274</ele>
        <time>2020-05-16T14:17:56.063Z</time>
      </trkpt>
      <trkpt lat="45.70425" lon="5.32873">
        <ele>274</ele>
        <time>2020-05-16T14:17:57.063Z</time>
      </trkpt>
      <trkpt lat="45.70416" lon="5.32876">
        <ele>273</ele>
        <time>2020-05-16T14:17:58.063Z</time>
      </trkpt>
      <trkpt lat="45.70407" lon="5.32878">
        <ele>273</ele>
        <time>2020-05-16T14:17:59.063Z</time>
      </trkpt>
      <trkpt lat="45.70397" lon="5.3288">
        <ele>273</ele>
        <time>2020-05-16T14:18:00.063Z</time>
      </trkpt>
      <trkpt lat="45.70388" lon="5.3288">
        <ele>273</ele>
        <time>2020-05-16T14:18:01.063Z</time>
      </trkpt>
      <trkpt lat="45.70378" lon="5.32881">
        <ele>273</ele>
        <time>2020-05-16T14:18:02.063Z</time>
      </trkpt>
      <trkpt lat="45.70369" lon="5.32881">
        <ele>273</ele>
        <time>2020-05-16T14:18:03.063Z</time>
      </trkpt>
      <trkpt lat="45.70359" lon="5.32881">
        <ele>274</ele>
        <time>2020-05-16T14:18:04.063Z</time>
      </trkpt>
      <trkpt lat="45.70349" lon="5.32882">
        <ele>273</ele>
        <time>2020-05-16T14:18:05.063Z</time>
      </trkpt>
      <trkpt lat="45.70339" lon="5.32882">
        <ele>274</ele>
        <time>2020-05-16T14:18:06.063Z</time>
      </trkpt>
      <trkpt lat="45.7033" lon="5.32882">
        <ele>274</ele>
        <time>2020-05-16T14:18:07.063Z</time>
      </trkpt>
      <trkpt lat="45.7032" lon="5.32882">
        <ele>274</ele>
        <time>2020-05-16T14:18:08.063Z</time>
      </trkpt>
      <trkpt lat="45.70311" lon="5.32883">
        <ele>274</ele>
        <time>2020-05-16T14:18:09.063Z</time>
      </trkpt>
      <trkpt lat="45.70301" lon="5.32883">
        <ele>274</ele>
        <time>2020-05-16T14:18:10.063Z</time>
      </trkpt>
      <trkpt lat="45.70292" lon="5.32883">
        <ele>273</ele>
        <time>2020-05-16T14:18:11.063Z</time>
      </trkpt>
      <trkpt lat="45.70283" lon="5.32883">
        <ele>273</ele>
        <time>2020-05-16T14:18:12.063Z</time>
      </trkpt>
      <trkpt lat="45.70274" lon="5.32883">
        <ele>273</ele>
        <time>2020-05-16T14:18:13.063Z</time>
      </trkpt>
      <trkpt lat="45.70264" lon="5.32883">
        <ele>272</ele>
        <time>2020-05-16T14:18:14.063Z</time>
      </trkpt>
      <trkpt lat="45.70255" lon="5.32883">
        <ele>272</ele>
        <time>2020-05-16T14:18:15.063Z</time>
      </trkpt>
      <trkpt lat="45.70246" lon="5.32883">
        <ele>272</ele>
        <time>2020-05-16T14:18:16.063Z</time>
      </trkpt>
      <trkpt lat="45.70237" lon="5.32883">
        <ele>273</ele>
        <time>2020-05-16T14:18:17.063Z</time>
      </trkpt>
      <trkpt lat="45.70228" lon="5.32883">
        <ele>273</ele>
        <time>2020-05-16T14:18:18.063Z</time>
      </trkpt>
      <trkpt lat="45.7022" lon="5.32882">
        <ele>273</ele>
        <time>2020-05-16T14:18:19.063Z</time>
      </trkpt>
      <trkpt lat="45.70212" lon="5.32882">
        <ele>273</ele>
        <time>2020-05-16T14:18:20.063Z</time>
      </trkpt>
      <trkpt lat="45.70204" lon="5.32881">
        <ele>273</ele>
        <time>2020-05-16T14:18:21.063Z</time>
      </trkpt>
      <trkpt lat="45.70196" lon="5.32881">
        <ele>273</ele>
        <time>2020-05-16T14:18:22.063Z</time>
      </trkpt>
      <trkpt lat="45.70189" lon="5.3288">
        <ele>274</ele>
        <time>2020-05-16T14:18:23.063Z</time>
      </trkpt>
      <trkpt lat="45.70182" lon="5.3288">
        <ele>275</ele>
        <time>2020-05-16T14:18:24.063Z</time>
      </trkpt>
      <trkpt lat="45.70176" lon="5.32879">
        <ele>275</ele>
        <time>2020-05-16T14:18:25.063Z</time>
      </trkpt>
      <trkpt lat="45.70169" lon="5.32878">
        <ele>275</ele>
        <time>2020-05-16T14:18:26.063Z</time>
      </trkpt>
      <trkpt lat="45.70163" lon="5.32878">
        <ele>276</ele>
        <time>2020-05-16T14:18:27.063Z</time>
      </trkpt>
      <trkpt lat="45.70157" lon="5.32877">
        <ele>276</ele>
        <time>2020-05-16T14:18:28.063Z</time>
      </trkpt>
      <trkpt lat="45.70151" lon="5.32877">
        <ele>276</ele>
        <time>2020-05-16T14:18:29.063Z</time>
      </trkpt>
      <trkpt lat="45.70145" lon="5.32878">
        <ele>276</ele>
        <time>2020-05-16T14:18:30.063Z</time>
      </trkpt>
      <trkpt lat="45.7014" lon="5.32879">
        <ele>277</ele>
        <time>2020-05-16T14:18:31.063Z</time>
      </trkpt>
      <trkpt lat="45.70134" lon="5.3288">
        <ele>277</ele>
        <time>2020-05-16T14:18:32.063Z</time>
      </trkpt>
      <trkpt lat="45.70128" lon="5.32881">
        <ele>277</ele>
        <time>2020-05-16T14:18:33.063Z</time>
      </trkpt>
      <trkpt lat="45.70122" lon="5.32882">
        <ele>278</ele>
        <time>2020-05-16T14:18:34.063Z</time>
      </trkpt>
      <trkpt lat="45.70116" lon="5.32884">
        <ele>278</ele>
        <time>2020-05-16T14:18:35.063Z</time>
      </trkpt>
      <trkpt lat="45.70109" lon="5.32885">
        <ele>278</ele>
        <time>2020-05-16T14:18:36.063Z</time>
      </trkpt>
      <trkpt lat="45.70103" lon="5.32886">
        <ele>278</ele>
        <time>2020-05-16T14:18:37.063Z</time>
      </trkpt>
      <trkpt lat="45.70096" lon="5.32888">
        <ele>278</ele>
        <time>2020-05-16T14:18:38.063Z</time>
      </trkpt>
      <trkpt lat="45.7009" lon="5.3289">
        <ele>277</ele>
        <time>2020-05-16T14:18:39.063Z</time>
      </trkpt>
      <trkpt lat="45.70084" lon="5.32892">
        <ele>278</ele>
        <time>2020-05-16T14:18:40.063Z</time>
      </trkpt>
      <trkpt lat="45.70077" lon="5.32893">
        <ele>279</ele>
        <time>2020-05-16T14:18:41.063Z</time>
      </trkpt>
      <trkpt lat="45.70071" lon="5.32895">
        <ele>280</ele>
        <time>2020-05-16T14:18:42.063Z</time>
      </trkpt>
      <trkpt lat="45.70064" lon="5.32897">
        <ele>280</ele>
        <time>2020-05-16T14:18:43.063Z</time>
      </trkpt>
      <trkpt lat="45.70057" lon="5.32898">
        <ele>281</ele>
        <time>2020-05-16T14:18:44.063Z</time>
      </trkpt>
      <trkpt lat="45.70051" lon="5.32898">
        <ele>281</ele>
        <time>2020-05-16T14:18:45.063Z</time>
      </trkpt>
      <trkpt lat="45.70045" lon="5.32897">
        <ele>280</ele>
        <time>2020-05-16T14:18:46.063Z</time>
      </trkpt>
      <trkpt lat="45.70038" lon="5.32895">
        <ele>279</ele>
        <time>2020-05-16T14:18:47.063Z</time>
      </trkpt>
      <trkpt lat="45.70032" lon="5.32892">
        <ele>279</ele>
        <time>2020-05-16T14:18:48.063Z</time>
      </trkpt>
      <trkpt lat="45.70025" lon="5.3289">
        <ele>279</ele>
        <time>2020-05-16T14:18:49.063Z</time>
      </trkpt>
      <trkpt lat="45.70019" lon="5.32887">
        <ele>278</ele>
        <time>2020-05-16T14:18:50.063Z</time>
      </trkpt>
      <trkpt lat="45.70012" lon="5.32883">
        <ele>278</ele>
        <time>2020-05-16T14:18:51.063Z</time>
      </trkpt>
      <trkpt lat="45.70006" lon="5.32878">
        <ele>278</ele>
        <time>2020-05-16T14:18:52.063Z</time>
      </trkpt>
      <trkpt lat="45.70001" lon="5.32872">
        <ele>278</ele>
        <time>2020-05-16T14:18:53.063Z</time>
      </trkpt>
      <trkpt lat="45.69997" lon="5.32864">
        <ele>278</ele>
        <time>2020-05-16T14:18:54.063Z</time>
      </trkpt>
      <trkpt lat="45.69993" lon="5.32856">
        <ele>278</ele>
        <time>2020-05-16T14:18:55.063Z</time>
      </trkpt>
      <trkpt lat="45.69991" lon="5.32847">
        <ele>278</ele>
        <time>2020-05-16T14:18:56.063Z</time>
      </trkpt>
      <trkpt lat="45.6999" lon="5.32838">
        <ele>277</ele>
        <time>2020-05-16T14:18:57.063Z</time>
      </trkpt>
      <trkpt lat="45.69989" lon="5.32829">
        <ele>278</ele>
        <time>2020-05-16T14:18:58.063Z</time>
      </trkpt>
      <trkpt lat="45.69989" lon="5.3282">
        <ele>279</ele>
        <time>2020-05-16T14:18:59.063Z</time>
      </trkpt>
      <trkpt lat="45.69989" lon="5.32811">
        <ele>279</ele>
        <time>2020-05-16T14:19:00.063Z</time>
      </trkpt>
      <trkpt lat="45.69989" lon="5.32803">
        <ele>280</ele>
        <time>2020-05-16T14:19:01.063Z</time>
      </trkpt>
      <trkpt lat="45.69988" lon="5.32795">
        <ele>281</ele>
        <time>2020-05-16T14:19:02.063Z</time>
      </trkpt>
      <trkpt lat="45.69987" lon="5.32786">
        <ele>281</ele>
        <time>2020-05-16T14:19:03.063Z</time>
      </trkpt>
      <trkpt lat="45.69985" lon="5.32779">
        <ele>282</ele>
        <time>2020-05-16T14:19:04.063Z</time>
      </trkpt>
      <trkpt lat="45.69982" lon="5.32772">
        <ele>282</ele>
        <time>2020-05-16T14:19:05.063Z</time>
      </trkpt>
      <trkpt lat="45.69979" lon="5.32766">
        <ele>282</ele>
        <time>2020-05-16T14:19:06.063Z</time>
      </trkpt>
      <trkpt lat="45.69975" lon="5.3276">
        <ele>281</ele>
        <time>2020-05-16T14:19:07.063Z</time>
      </trkpt>
      <trkpt lat="45.6997" lon="5.32754">
        <ele>281</ele>
        <time>2020-05-16T14:19:08.063Z</time>
      </trkpt>
      <trkpt lat="45.69965" lon="5.32749">
        <ele>282</ele>
        <time>2020-05-16T14:19:09.063Z</time>
      </trkpt>
      <trkpt lat="45.69961" lon="5.32743">
        <ele>282</ele>
        <time>2020-05-16T14:19:10.063Z</time>
      </trkpt>
      <trkpt lat="45.69956" lon="5.32738">
        <ele>282</ele>
        <time>2020-05-16T14:19:11.063Z</time>
      </trkpt>
      <trkpt lat="45.69951" lon="5.32733">
        <ele>282</ele>
        <time>2020-05-16T14:19:12.063Z</time>
      </trkpt>
      <trkpt lat="45.69947" lon="5.32729">
        <ele>282</ele>
        <time>2020-05-16T14:19:13.063Z</time>
      </trkpt>
      <trkpt lat="45.69943" lon="5.32724">
        <ele>282</ele>
        <time>2020-05-16T14:19:14.063Z</time>
      </trkpt>
      <trkpt lat="45.69938" lon="5.3272">
        <ele>282</ele>
        <time>2020-05-16T14:19:15.063Z</time>
      </trkpt>
      <trkpt lat="45.69933" lon="5.32716">
        <ele>283</ele>
        <time>2020-05-16T14:19:16.063Z</time>
      </trkpt>
      <trkpt lat="45.69928" lon="5.32711">
        <ele>283</ele>
        <time>2020-05-16T14:19:17.063Z</time>
      </trkpt>
      <trkpt lat="45.69923" lon="5.32707">
        <ele>282</ele>
        <time>2020-05-16T14:19:18.063Z</time>
      </trkpt>
      <trkpt lat="45.69918" lon="5.32703">
        <ele>282</ele>
        <time>2020-05-16T14:19:19.063Z</time>
      </trkpt>
      <trkpt lat="45.69912" lon="5.327">
        <ele>282</ele>
        <time>2020-05-16T14:19:20.063Z</time>
      </trkpt>
      <trkpt lat="45.69906" lon="5.32696">
        <ele>282</ele>
        <time>2020-05-16T14:19:21.063Z</time>
      </trkpt>
      <trkpt lat="45.699" lon="5.32693">
        <ele>282</ele>
        <time>2020-05-16T14:19:22.063Z</time>
      </trkpt>
      <trkpt lat="45.69894" lon="5.32689">
        <ele>282</ele>
        <time>2020-05-16T14:19:23.063Z</time>
      </trkpt>
      <trkpt lat="45.69887" lon="5.32685">
        <ele>281</ele>
        <time>2020-05-16T14:19:24.063Z</time>
      </trkpt>
      <trkpt lat="45.69881" lon="5.3268">
        <ele>282</ele>
        <time>2020-05-16T14:19:25.063Z</time>
      </trkpt>
      <trkpt lat="45.69874" lon="5.32675">
        <ele>282</ele>
        <time>2020-05-16T14:19:26.063Z</time>
      </trkpt>
      <trkpt lat="45.69868" lon="5.32668">
        <ele>281</ele>
        <time>2020-05-16T14:19:27.063Z</time>
      </trkpt>
      <trkpt lat="45.69862" lon="5.3266">
        <ele>281</ele>
        <time>2020-05-16T14:19:28.063Z</time>
      </trkpt>
      <trkpt lat="45.69856" lon="5.32652">
        <ele>281</ele>
        <time>2020-05-16T14:19:29.063Z</time>
      </trkpt>
      <trkpt lat="45.6985" lon="5.32645">
        <ele>281</ele>
        <time>2020-05-16T14:19:30.063Z</time>
      </trkpt>
      <trkpt lat="45.69844" lon="5.32637">
        <ele>280</ele>
        <time>2020-05-16T14:19:31.063Z</time>
      </trkpt>
      <trkpt lat="45.69838" lon="5.3263">
        <ele>280</ele>
        <time>2020-05-16T14:19:32.063Z</time>
      </trkpt>
      <trkpt lat="45.69832" lon="5.32624">
        <ele>280</ele>
        <time>2020-05-16T14:19:33.063Z</time>
      </trkpt>
      <trkpt lat="45.69825" lon="5.32619">
        <ele>280</ele>
        <time>2020-05-16T14:19:34.063Z</time>
      </trkpt>
      <trkpt lat="45.69819" lon="5.32616">
        <ele>279</ele>
        <time>2020-05-16T14:19:35.063Z</time>
      </trkpt>
      <trkpt lat="45.69812" lon="5.32612">
        <ele>279</ele>
        <time>2020-05-16T14:19:36.063Z</time>
      </trkpt>
      <trkpt lat="45.69806" lon="5.3261">
        <ele>279</ele>
        <time>2020-05-16T14:19:37.063Z</time>
      </trkpt>
      <trkpt lat="45.698" lon="5.32608">
        <ele>279</ele>
        <time>2020-05-16T14:19:38.063Z</time>
      </trkpt>
      <trkpt lat="45.69795" lon="5.32606">
        <ele>279</ele>
        <time>2020-05-16T14:19:39.063Z</time>
      </trkpt>
      <trkpt lat="45.69789" lon="5.32605">
        <ele>279</ele>
        <time>2020-05-16T14:19:40.063Z</time>
      </trkpt>
      <trkpt lat="45.69783" lon="5.32604">
        <ele>279</ele>
        <time>2020-05-16T14:19:41.063Z</time>
      </trkpt>
      <trkpt lat="45.69778" lon="5.32603">
        <ele>280</ele>
        <time>2020-05-16T14:19:42.063Z</time>
      </trkpt>
      <trkpt lat="45.69772" lon="5.32602">
        <ele>280</ele>
        <time>2020-05-16T14:19:43.063Z</time>
      </trkpt>
      <trkpt lat="45.69766" lon="5.32601">
        <ele>280</ele>
        <time>2020-05-16T14:19:44.063Z</time>
      </trkpt>
      <trkpt lat="45.69761" lon="5.32601">
        <ele>281</ele>
        <time>2020-05-16T14:19:45.063Z</time>
      </trkpt>
      <trkpt lat="45.69755" lon="5.326">
        <ele>281</ele>
        <time>2020-05-16T14:19:46.063Z</time>
      </trkpt>
      <trkpt lat="45.6975" lon="5.32599">
        <ele>281</ele>
        <time>2020-05-16T14:19:47.063Z</time>
      </trkpt>
      <trkpt lat="45.69745" lon="5.32597">
        <ele>282</ele>
        <time>2020-05-16T14:19:48.063Z</time>
      </trkpt>
      <trkpt lat="45.6974" lon="5.32596">
        <ele>282</ele>
        <time>2020-05-16T14:19:49.063Z</time>
      </trkpt>
      <trkpt lat="45.69735" lon="5.32594">
        <ele>282</ele>
        <time>2020-05-16T14:19:50.063Z</time>
      </trkpt>
      <trkpt lat="45.69731" lon="5.32592">
        <ele>282</ele>
        <time>2020-05-16T14:19:51.063Z</time>
      </trkpt>
      <trkpt lat="45.69726" lon="5.3259">
        <ele>283</ele>
        <time>2020-05-16T14:19:52.063Z</time>
      </trkpt>
      <trkpt lat="45.69721" lon="5.32588">
        <ele>283</ele>
        <time>2020-05-16T14:19:53.063Z</time>
      </trkpt>
      <trkpt lat="45.69717" lon="5.32586">
        <ele>284</ele>
        <time>2020-05-16T14:19:54.063Z</time>
      </trkpt>
      <trkpt lat="45.69713" lon="5.32583">
        <ele>284</ele>
        <time>2020-05-16T14:19:55.063Z</time>
      </trkpt>
      <trkpt lat="45.69709" lon="5.3258">
        <ele>285</ele>
        <time>2020-05-16T14:19:56.063Z</time>
      </trkpt>
      <trkpt lat="45.69704" lon="5.32577">
        <ele>286</ele>
        <time>2020-05-16T14:19:57.063Z</time>
      </trkpt>
      <trkpt lat="45.697" lon="5.32575">
        <ele>286</ele>
        <time>2020-05-16T14:19:58.063Z</time>
      </trkpt>
      <trkpt lat="45.69696" lon="5.32572">
        <ele>287</ele>
        <time>2020-05-16T14:19:59.063Z</time>
      </trkpt>
      <trkpt lat="45.69691" lon="5.3257">
        <ele>287</ele>
        <time>2020-05-16T14:20:00.063Z</time>
      </trkpt>
      <trkpt lat="45.69687" lon="5.32567">
        <ele>288</ele>
        <time>2020-05-16T14:20:01.063Z</time>
      </trkpt>
      <trkpt lat="45.69683" lon="5.32564">
        <ele>288</ele>
        <time>2020-05-16T14:20:02.063Z</time>
      </trkpt>
      <trkpt lat="45.69678" lon="5.32562">
        <ele>288</ele>
        <time>2020-05-16T14:20:03.063Z</time>
      </trkpt>
      <trkpt lat="45.69674" lon="5.3256">
        <ele>289</ele>
        <time>2020-05-16T14:20:04.063Z</time>
      </trkpt>
      <trkpt lat="45.69669" lon="5.32557">
        <ele>290</ele>
        <time>2020-05-16T14:20:05.063Z</time>
      </trkpt>
      <trkpt lat="45.69664" lon="5.32555">
        <ele>290</ele>
        <time>2020-05-16T14:20:06.063Z</time>
      </trkpt>
      <trkpt lat="45.69659" lon="5.32553">
        <ele>290</ele>
        <time>2020-05-16T14:20:07.063Z</time>
      </trkpt>
      <trkpt lat="45.69654" lon="5.32551">
        <ele>290</ele>
        <time>2020-05-16T14:20:08.063Z</time>
      </trkpt>
      <trkpt lat="45.69649" lon="5.32549">
        <ele>290</ele>
        <time>2020-05-16T14:20:09.063Z</time>
      </trkpt>
      <trkpt lat="45.69644" lon="5.32547">
        <ele>291</ele>
        <time>2020-05-16T14:20:10.063Z</time>
      </trkpt>
      <trkpt lat="45.69639" lon="5.32544">
        <ele>291</ele>
        <time>2020-05-16T14:20:11.063Z</time>
      </trkpt>
      <trkpt lat="45.69634" lon="5.32542">
        <ele>291</ele>
        <time>2020-05-16T14:20:12.063Z</time>
      </trkpt>
      <trkpt lat="45.69629" lon="5.3254">
        <ele>291</ele>
        <time>2020-05-16T14:20:13.063Z</time>
      </trkpt>
      <trkpt lat="45.69624" lon="5.32537">
        <ele>292</ele>
        <time>2020-05-16T14:20:14.063Z</time>
      </trkpt>
      <trkpt lat="45.69618" lon="5.32535">
        <ele>292</ele>
        <time>2020-05-16T14:20:15.063Z</time>
      </trkpt>
      <trkpt lat="45.69613" lon="5.32533">
        <ele>292</ele>
        <time>2020-05-16T14:20:16.063Z</time>
      </trkpt>
      <trkpt lat="45.69608" lon="5.32531">
        <ele>292</ele>
        <time>2020-05-16T14:20:17.063Z</time>
      </trkpt>
      <trkpt lat="45.69602" lon="5.32528">
        <ele>292</ele>
        <time>2020-05-16T14:20:18.063Z</time>
      </trkpt>
      <trkpt lat="45.69597" lon="5.32525">
        <ele>292</ele>
        <time>2020-05-16T14:20:19.063Z</time>
      </trkpt>
      <trkpt lat="45.69591" lon="5.32523">
        <ele>292</ele>
        <time>2020-05-16T14:20:20.063Z</time>
      </trkpt>
      <trkpt lat="45.69585" lon="5.3252">
        <ele>292</ele>
        <time>2020-05-16T14:20:21.063Z</time>
      </trkpt>
      <trkpt lat="45.6958" lon="5.32518">
        <ele>292</ele>
        <time>2020-05-16T14:20:22.063Z</time>
      </trkpt>
      <trkpt lat="45.69574" lon="5.32515">
        <ele>292</ele>
        <time>2020-05-16T14:20:23.063Z</time>
      </trkpt>
      <trkpt lat="45.69568" lon="5.32512">
        <ele>292</ele>
        <time>2020-05-16T14:20:24.063Z</time>
      </trkpt>
      <trkpt lat="45.69563" lon="5.3251">
        <ele>292</ele>
        <time>2020-05-16T14:20:25.063Z</time>
      </trkpt>
      <trkpt lat="45.69557" lon="5.32507">
        <ele>292</ele>
        <time>2020-05-16T14:20:26.063Z</time>
      </trkpt>
      <trkpt lat="45.69551" lon="5.32504">
        <ele>292</ele>
        <time>2020-05-16T14:20:27.063Z</time>
      </trkpt>
      <trkpt lat="45.69545" lon="5.32501">
        <ele>292</ele>
        <time>2020-05-16T14:20:28.063Z</time>
      </trkpt>
      <trkpt lat="45.69539" lon="5.32498">
        <ele>292</ele>
        <time>2020-05-16T14:20:29.063Z</time>
      </trkpt>
      <trkpt lat="45.69533" lon="5.32495">
        <ele>292</ele>
        <time>2020-05-16T14:20:30.063Z</time>
      </trkpt>
      <trkpt lat="45.69527" lon="5.32493">
        <ele>292</ele>
        <time>2020-05-16T14:20:31.063Z</time>
      </trkpt>
      <trkpt lat="45.69521" lon="5.3249">
        <ele>292</ele>
        <time>2020-05-16T14:20:32.063Z</time>
      </trkpt>
      <trkpt lat="45.69515" lon="5.32487">
        <ele>292</ele>
        <time>2020-05-16T14:20:33.063Z</time>
      </trkpt>
      <trkpt lat="45.6951" lon="5.32485">
        <ele>292</ele>
        <time>2020-05-16T14:20:34.063Z</time>
      </trkpt>
      <trkpt lat="45.69503" lon="5.32482">
        <ele>292</ele>
        <time>2020-05-16T14:20:35.063Z</time>
      </trkpt>
      <trkpt lat="45.69497" lon="5.3248">
        <ele>292</ele>
        <time>2020-05-16T14:20:36.063Z</time>
      </trkpt>
      <trkpt lat="45.69491" lon="5.32477">
        <ele>292</ele>
        <time>2020-05-16T14:20:37.063Z</time>
      </trkpt>
      <trkpt lat="45.69485" lon="5.32475">
        <ele>292</ele>
        <time>2020-05-16T14:20:38.063Z</time>
      </trkpt>
      <trkpt lat="45.69479" lon="5.32472">
        <ele>292</ele>
        <time>2020-05-16T14:20:39.063Z</time>
      </trkpt>
      <trkpt lat="45.69472" lon="5.3247">
        <ele>292</ele>
        <time>2020-05-16T14:20:40.063Z</time>
      </trkpt>
      <trkpt lat="45.69466" lon="5.32467">
        <ele>292</ele>
        <time>2020-05-16T14:20:41.063Z</time>
      </trkpt>
      <trkpt lat="45.6946" lon="5.32464">
        <ele>292</ele>
        <time>2020-05-16T14:20:42.063Z</time>
      </trkpt>
      <trkpt lat="45.69453" lon="5.32461">
        <ele>292</ele>
        <time>2020-05-16T14:20:43.063Z</time>
      </trkpt>
      <trkpt lat="45.69446" lon="5.32458">
        <ele>292</ele>
        <time>2020-05-16T14:20:44.063Z</time>
      </trkpt>
      <trkpt lat="45.69439" lon="5.32455">
        <ele>292</ele>
        <time>2020-05-16T14:20:45.063Z</time>
      </trkpt>
      <trkpt lat="45.69432" lon="5.32451">
        <ele>292</ele>
        <time>2020-05-16T14:20:46.063Z</time>
      </trkpt>
      <trkpt lat="45.69425" lon="5.32447">
        <ele>291</ele>
        <time>2020-05-16T14:20:47.063Z</time>
      </trkpt>
      <trkpt lat="45.69418" lon="5.32443">
        <ele>291</ele>
        <time>2020-05-16T14:20:48.063Z</time>
      </trkpt>
      <trkpt lat="45.69411" lon="5.3244">
        <ele>291</ele>
        <time>2020-05-16T14:20:49.063Z</time>
      </trkpt>
      <trkpt lat="45.69403" lon="5.32436">
        <ele>291</ele>
        <time>2020-05-16T14:20:50.063Z</time>
      </trkpt>
      <trkpt lat="45.69395" lon="5.32433">
        <ele>291</ele>
        <time>2020-05-16T14:20:51.063Z</time>
      </trkpt>
      <trkpt lat="45.69388" lon="5.3243">
        <ele>290</ele>
        <time>2020-05-16T14:20:52.063Z</time>
      </trkpt>
      <trkpt lat="45.6938" lon="5.32427">
        <ele>289</ele>
        <time>2020-05-16T14:20:53.063Z</time>
      </trkpt>
      <trkpt lat="45.69372" lon="5.32424">
        <ele>289</ele>
        <time>2020-05-16T14:20:54.063Z</time>
      </trkpt>
      <trkpt lat="45.69364" lon="5.32422">
        <ele>288</ele>
        <time>2020-05-16T14:20:55.063Z</time>
      </trkpt>
      <trkpt lat="45.69355" lon="5.32421">
        <ele>288</ele>
        <time>2020-05-16T14:20:56.063Z</time>
      </trkpt>
      <trkpt lat="45.69347" lon="5.3242">
        <ele>288</ele>
        <time>2020-05-16T14:20:57.063Z</time>
      </trkpt>
      <trkpt lat="45.69338" lon="5.3242">
        <ele>288</ele>
        <time>2020-05-16T14:20:58.063Z</time>
      </trkpt>
      <trkpt lat="45.69329" lon="5.32419">
        <ele>288</ele>
        <time>2020-05-16T14:20:59.063Z</time>
      </trkpt>
      <trkpt lat="45.6932" lon="5.32419">
        <ele>287</ele>
        <time>2020-05-16T14:21:00.063Z</time>
      </trkpt>
      <trkpt lat="45.69311" lon="5.32419">
        <ele>287</ele>
        <time>2020-05-16T14:21:01.063Z</time>
      </trkpt>
      <trkpt lat="45.69302" lon="5.32418">
        <ele>287</ele>
        <time>2020-05-16T14:21:02.063Z</time>
      </trkpt>
      <trkpt lat="45.69294" lon="5.32417">
        <ele>287</ele>
        <time>2020-05-16T14:21:03.063Z</time>
      </trkpt>
      <trkpt lat="45.69285" lon="5.32416">
        <ele>286</ele>
        <time>2020-05-16T14:21:04.063Z</time>
      </trkpt>
      <trkpt lat="45.69276" lon="5.32415">
        <ele>286</ele>
        <time>2020-05-16T14:21:05.063Z</time>
      </trkpt>
      <trkpt lat="45.69268" lon="5.32413">
        <ele>286</ele>
        <time>2020-05-16T14:21:06.063Z</time>
      </trkpt>
      <trkpt lat="45.69259" lon="5.3241">
        <ele>285</ele>
        <time>2020-05-16T14:21:07.063Z</time>
      </trkpt>
      <trkpt lat="45.69251" lon="5.32406">
        <ele>285</ele>
        <time>2020-05-16T14:21:08.063Z</time>
      </trkpt>
      <trkpt lat="45.69243" lon="5.32402">
        <ele>286</ele>
        <time>2020-05-16T14:21:09.063Z</time>
      </trkpt>
      <trkpt lat="45.69235" lon="5.32398">
        <ele>285</ele>
        <time>2020-05-16T14:21:10.063Z</time>
      </trkpt>
      <trkpt lat="45.69227" lon="5.32394">
        <ele>286</ele>
        <time>2020-05-16T14:21:11.063Z</time>
      </trkpt>
      <trkpt lat="45.69219" lon="5.3239">
        <ele>286</ele>
        <time>2020-05-16T14:21:12.063Z</time>
      </trkpt>
      <trkpt lat="45.69211" lon="5.32385">
        <ele>286</ele>
        <time>2020-05-16T14:21:13.063Z</time>
      </trkpt>
      <trkpt lat="45.69204" lon="5.3238">
        <ele>286</ele>
        <time>2020-05-16T14:21:14.063Z</time>
      </trkpt>
      <trkpt lat="45.69197" lon="5.32375">
        <ele>286</ele>
        <time>2020-05-16T14:21:15.063Z</time>
      </trkpt>
      <trkpt lat="45.69189" lon="5.3237">
        <ele>286</ele>
        <time>2020-05-16T14:21:16.063Z</time>
      </trkpt>
      <trkpt lat="45.69182" lon="5.32365">
        <ele>286</ele>
        <time>2020-05-16T14:21:17.063Z</time>
      </trkpt>
      <trkpt lat="45.69175" lon="5.3236">
        <ele>286</ele>
        <time>2020-05-16T14:21:18.063Z</time>
      </trkpt>
      <trkpt lat="45.69167" lon="5.32356">
        <ele>286</ele>
        <time>2020-05-16T14:21:19.063Z</time>
      </trkpt>
      <trkpt lat="45.6916" lon="5.32351">
        <ele>286</ele>
        <time>2020-05-16T14:21:20.063Z</time>
      </trkpt>
      <trkpt lat="45.69153" lon="5.32346">
        <ele>286</ele>
        <time>2020-05-16T14:21:21.063Z</time>
      </trkpt>
      <trkpt lat="45.69145" lon="5.32341">
        <ele>286</ele>
        <time>2020-05-16T14:21:22.063Z</time>
      </trkpt>
      <trkpt lat="45.69137" lon="5.32337">
        <ele>286</ele>
        <time>2020-05-16T14:21:23.063Z</time>
      </trkpt>
      <trkpt lat="45.6913" lon="5.32332">
        <ele>286</ele>
        <time>2020-05-16T14:21:24.063Z</time>
      </trkpt>
      <trkpt lat="45.69122" lon="5.32328">
        <ele>288</ele>
        <time>2020-05-16T14:21:25.063Z</time>
      </trkpt>
      <trkpt lat="45.69116" lon="5.32322">
        <ele>287</ele>
        <time>2020-05-16T14:21:26.063Z</time>
      </trkpt>
      <trkpt lat="45.69109" lon="5.32315">
        <ele>287</ele>
        <time>2020-05-16T14:21:27.063Z</time>
      </trkpt>
      <trkpt lat="45.69103" lon="5.32309">
        <ele>285</ele>
        <time>2020-05-16T14:21:28.063Z</time>
      </trkpt>
      <trkpt lat="45.69095" lon="5.32305">
        <ele>285</ele>
        <time>2020-05-16T14:21:29.063Z</time>
      </trkpt>
      <trkpt lat="45.69088" lon="5.32302">
        <ele>284</ele>
        <time>2020-05-16T14:21:30.063Z</time>
      </trkpt>
      <trkpt lat="45.6908" lon="5.32301">
        <ele>284</ele>
        <time>2020-05-16T14:21:31.063Z</time>
      </trkpt>
      <trkpt lat="45.69072" lon="5.323">
        <ele>284</ele>
        <time>2020-05-16T14:21:32.063Z</time>
      </trkpt>
      <trkpt lat="45.69064" lon="5.32298">
        <ele>283</ele>
        <time>2020-05-16T14:21:33.063Z</time>
      </trkpt>
      <trkpt lat="45.69056" lon="5.32296">
        <ele>283</ele>
        <time>2020-05-16T14:21:34.063Z</time>
      </trkpt>
      <trkpt lat="45.69048" lon="5.32295">
        <ele>282</ele>
        <time>2020-05-16T14:21:35.063Z</time>
      </trkpt>
      <trkpt lat="45.6904" lon="5.32293">
        <ele>282</ele>
        <time>2020-05-16T14:21:36.063Z</time>
      </trkpt>
      <trkpt lat="45.69032" lon="5.32291">
        <ele>282</ele>
        <time>2020-05-16T14:21:37.063Z</time>
      </trkpt>
      <trkpt lat="45.69024" lon="5.32288">
        <ele>282</ele>
        <time>2020-05-16T14:21:38.063Z</time>
      </trkpt>
      <trkpt lat="45.69016" lon="5.32286">
        <ele>282</ele>
        <time>2020-05-16T14:21:39.063Z</time>
      </trkpt>
      <trkpt lat="45.69008" lon="5.32283">
        <ele>281</ele>
        <time>2020-05-16T14:21:40.063Z</time>
      </trkpt>
      <trkpt lat="45.69001" lon="5.3228">
        <ele>281</ele>
        <time>2020-05-16T14:21:41.063Z</time>
      </trkpt>
      <trkpt lat="45.68993" lon="5.32274">
        <ele>279</ele>
        <time>2020-05-16T14:21:42.063Z</time>
      </trkpt>
      <trkpt lat="45.68986" lon="5.32268">
        <ele>278</ele>
        <time>2020-05-16T14:21:43.063Z</time>
      </trkpt>
      <trkpt lat="45.68979" lon="5.32262">
        <ele>278</ele>
        <time>2020-05-16T14:21:44.063Z</time>
      </trkpt>
      <trkpt lat="45.68972" lon="5.32256">
        <ele>279</ele>
        <time>2020-05-16T14:21:45.063Z</time>
      </trkpt>
      <trkpt lat="45.68966" lon="5.32249">
        <ele>280</ele>
        <time>2020-05-16T14:21:46.063Z</time>
      </trkpt>
      <trkpt lat="45.6896" lon="5.32242">
        <ele>280</ele>
        <time>2020-05-16T14:21:47.063Z</time>
      </trkpt>
      <trkpt lat="45.68954" lon="5.32234">
        <ele>279</ele>
        <time>2020-05-16T14:21:48.063Z</time>
      </trkpt>
      <trkpt lat="45.68949" lon="5.32226">
        <ele>279</ele>
        <time>2020-05-16T14:21:49.063Z</time>
      </trkpt>
      <trkpt lat="45.68943" lon="5.32219">
        <ele>279</ele>
        <time>2020-05-16T14:21:50.063Z</time>
      </trkpt>
      <trkpt lat="45.68937" lon="5.32211">
        <ele>279</ele>
        <time>2020-05-16T14:21:51.063Z</time>
      </trkpt>
      <trkpt lat="45.68931" lon="5.32204">
        <ele>278</ele>
        <time>2020-05-16T14:21:52.063Z</time>
      </trkpt>
      <trkpt lat="45.68925" lon="5.32197">
        <ele>279</ele>
        <time>2020-05-16T14:21:53.063Z</time>
      </trkpt>
      <trkpt lat="45.68918" lon="5.3219">
        <ele>279</ele>
        <time>2020-05-16T14:21:54.063Z</time>
      </trkpt>
      <trkpt lat="45.68911" lon="5.32184">
        <ele>279</ele>
        <time>2020-05-16T14:21:55.063Z</time>
      </trkpt>
      <trkpt lat="45.68904" lon="5.32179">
        <ele>279</ele>
        <time>2020-05-16T14:21:56.063Z</time>
      </trkpt>
      <trkpt lat="45.68896" lon="5.32174">
        <ele>280</ele>
        <time>2020-05-16T14:21:57.063Z</time>
      </trkpt>
      <trkpt lat="45.68888" lon="5.32171">
        <ele>281</ele>
        <time>2020-05-16T14:21:58.063Z</time>
      </trkpt>
      <trkpt lat="45.6888" lon="5.32168">
        <ele>280</ele>
        <time>2020-05-16T14:21:59.063Z</time>
      </trkpt>
      <trkpt lat="45.68871" lon="5.32164">
        <ele>279</ele>
        <time>2020-05-16T14:22:00.063Z</time>
      </trkpt>
      <trkpt lat="45.68863" lon="5.32161">
        <ele>279</ele>
        <time>2020-05-16T14:22:01.063Z</time>
      </trkpt>
      <trkpt lat="45.68854" lon="5.32158">
        <ele>278</ele>
        <time>2020-05-16T14:22:02.063Z</time>
      </trkpt>
      <trkpt lat="45.68846" lon="5.32156">
        <ele>278</ele>
        <time>2020-05-16T14:22:03.063Z</time>
      </trkpt>
      <trkpt lat="45.68837" lon="5.32155">
        <ele>279</ele>
        <time>2020-05-16T14:22:04.063Z</time>
      </trkpt>
      <trkpt lat="45.68829" lon="5.32153">
        <ele>279</ele>
        <time>2020-05-16T14:22:05.063Z</time>
      </trkpt>
      <trkpt lat="45.6882" lon="5.32152">
        <ele>279</ele>
        <time>2020-05-16T14:22:06.063Z</time>
      </trkpt>
      <trkpt lat="45.68812" lon="5.3215">
        <ele>279</ele>
        <time>2020-05-16T14:22:07.063Z</time>
      </trkpt>
      <trkpt lat="45.68804" lon="5.32149">
        <ele>279</ele>
        <time>2020-05-16T14:22:08.063Z</time>
      </trkpt>
      <trkpt lat="45.68796" lon="5.32148">
        <ele>279</ele>
        <time>2020-05-16T14:22:09.063Z</time>
      </trkpt>
      <trkpt lat="45.68788" lon="5.32147">
        <ele>279</ele>
        <time>2020-05-16T14:22:10.063Z</time>
      </trkpt>
      <trkpt lat="45.6878" lon="5.32145">
        <ele>279</ele>
        <time>2020-05-16T14:22:11.063Z</time>
      </trkpt>
      <trkpt lat="45.68772" lon="5.32144">
        <ele>280</ele>
        <time>2020-05-16T14:22:12.063Z</time>
      </trkpt>
      <trkpt lat="45.68764" lon="5.32142">
        <ele>279</ele>
        <time>2020-05-16T14:22:13.063Z</time>
      </trkpt>
      <trkpt lat="45.68756" lon="5.32141">
        <ele>280</ele>
        <time>2020-05-16T14:22:14.063Z</time>
      </trkpt>
      <trkpt lat="45.68748" lon="5.32141">
        <ele>284</ele>
        <time>2020-05-16T14:22:15.063Z</time>
      </trkpt>
      <trkpt lat="45.6874" lon="5.3214">
        <ele>284</ele>
        <time>2020-05-16T14:22:16.063Z</time>
      </trkpt>
      <trkpt lat="45.68732" lon="5.3214">
        <ele>285</ele>
        <time>2020-05-16T14:22:17.063Z</time>
      </trkpt>
      <trkpt lat="45.68724" lon="5.32138">
        <ele>285</ele>
        <time>2020-05-16T14:22:18.063Z</time>
      </trkpt>
      <trkpt lat="45.68717" lon="5.32136">
        <ele>285</ele>
        <time>2020-05-16T14:22:19.063Z</time>
      </trkpt>
      <trkpt lat="45.6871" lon="5.32134">
        <ele>286</ele>
        <time>2020-05-16T14:22:20.063Z</time>
      </trkpt>
      <trkpt lat="45.68704" lon="5.32132">
        <ele>286</ele>
        <time>2020-05-16T14:22:21.063Z</time>
      </trkpt>
      <trkpt lat="45.68698" lon="5.32129">
        <ele>287</ele>
        <time>2020-05-16T14:22:22.063Z</time>
      </trkpt>
      <trkpt lat="45.68693" lon="5.32126">
        <ele>287</ele>
        <time>2020-05-16T14:22:23.063Z</time>
      </trkpt>
      <trkpt lat="45.68688" lon="5.32124">
        <ele>286</ele>
        <time>2020-05-16T14:22:24.063Z</time>
      </trkpt>
      <trkpt lat="45.68685" lon="5.32121">
        <ele>288</ele>
        <time>2020-05-16T14:22:25.063Z</time>
      </trkpt>
      <trkpt lat="45.68683" lon="5.32117">
        <ele>293</ele>
        <time>2020-05-16T14:22:26.063Z</time>
      </trkpt>
      <trkpt lat="45.68682" lon="5.32112">
        <ele>285</ele>
        <time>2020-05-16T14:22:27.063Z</time>
      </trkpt>
      <trkpt lat="45.68683" lon="5.32105">
        <ele>283</ele>
        <time>2020-05-16T14:22:28.063Z</time>
      </trkpt>
      <trkpt lat="45.68684" lon="5.32098">
        <ele>281</ele>
        <time>2020-05-16T14:22:29.063Z</time>
      </trkpt>
      <trkpt lat="45.68686" lon="5.32091">
        <ele>280</ele>
        <time>2020-05-16T14:22:30.063Z</time>
      </trkpt>
      <trkpt lat="45.68688" lon="5.32083">
        <ele>280</ele>
        <time>2020-05-16T14:22:31.063Z</time>
      </trkpt>
      <trkpt lat="45.6869" lon="5.32075">
        <ele>280</ele>
        <time>2020-05-16T14:22:32.063Z</time>
      </trkpt>
      <trkpt lat="45.68693" lon="5.32066">
        <ele>280</ele>
        <time>2020-05-16T14:22:33.063Z</time>
      </trkpt>
      <trkpt lat="45.68696" lon="5.32057">
        <ele>280</ele>
        <time>2020-05-16T14:22:34.063Z</time>
      </trkpt>
      <trkpt lat="45.68699" lon="5.32047">
        <ele>280</ele>
        <time>2020-05-16T14:22:35.063Z</time>
      </trkpt>
      <trkpt lat="45.68701" lon="5.32037">
        <ele>280</ele>
        <time>2020-05-16T14:22:36.063Z</time>
      </trkpt>
      <trkpt lat="45.68703" lon="5.32026">
        <ele>279</ele>
        <time>2020-05-16T14:22:37.063Z</time>
      </trkpt>
      <trkpt lat="45.68704" lon="5.32016">
        <ele>279</ele>
        <time>2020-05-16T14:22:38.063Z</time>
      </trkpt>
      <trkpt lat="45.68705" lon="5.32005">
        <ele>278</ele>
        <time>2020-05-16T14:22:39.063Z</time>
      </trkpt>
      <trkpt lat="45.68706" lon="5.31995">
        <ele>278</ele>
        <time>2020-05-16T14:22:40.063Z</time>
      </trkpt>
      <trkpt lat="45.68706" lon="5.31985">
        <ele>279</ele>
        <time>2020-05-16T14:22:41.063Z</time>
      </trkpt>
      <trkpt lat="45.68705" lon="5.31975">
        <ele>278</ele>
        <time>2020-05-16T14:22:42.063Z</time>
      </trkpt>
      <trkpt lat="45.68704" lon="5.31966">
        <ele>278</ele>
        <time>2020-05-16T14:22:43.063Z</time>
      </trkpt>
      <trkpt lat="45.68702" lon="5.31957">
        <ele>278</ele>
        <time>2020-05-16T14:22:44.063Z</time>
      </trkpt>
      <trkpt lat="45.687" lon="5.31947">
        <ele>277</ele>
        <time>2020-05-16T14:22:45.063Z</time>
      </trkpt>
      <trkpt lat="45.68697" lon="5.31938">
        <ele>276</ele>
        <time>2020-05-16T14:22:46.063Z</time>
      </trkpt>
      <trkpt lat="45.68694" lon="5.3193">
        <ele>276</ele>
        <time>2020-05-16T14:22:47.063Z</time>
      </trkpt>
      <trkpt lat="45.68691" lon="5.31922">
        <ele>275</ele>
        <time>2020-05-16T14:22:48.063Z</time>
      </trkpt>
      <trkpt lat="45.68688" lon="5.31914">
        <ele>274</ele>
        <time>2020-05-16T14:22:49.063Z</time>
      </trkpt>
      <trkpt lat="45.68684" lon="5.31906">
        <ele>274</ele>
        <time>2020-05-16T14:22:50.063Z</time>
      </trkpt>
      <trkpt lat="45.68681" lon="5.31899">
        <ele>274</ele>
        <time>2020-05-16T14:22:51.063Z</time>
      </trkpt>
      <trkpt lat="45.68678" lon="5.31891">
        <ele>274</ele>
        <time>2020-05-16T14:22:52.063Z</time>
      </trkpt>
      <trkpt lat="45.68674" lon="5.31884">
        <ele>274</ele>
        <time>2020-05-16T14:22:53.063Z</time>
      </trkpt>
      <trkpt lat="45.68671" lon="5.31878">
        <ele>276</ele>
        <time>2020-05-16T14:22:54.063Z</time>
      </trkpt>
      <trkpt lat="45.68667" lon="5.31873">
        <ele>277</ele>
        <time>2020-05-16T14:22:55.063Z</time>
      </trkpt>
      <trkpt lat="45.68663" lon="5.31867">
        <ele>278</ele>
        <time>2020-05-16T14:22:56.063Z</time>
      </trkpt>
      <trkpt lat="45.6866" lon="5.31862">
        <ele>278</ele>
        <time>2020-05-16T14:22:57.063Z</time>
      </trkpt>
      <trkpt lat="45.68657" lon="5.31857">
        <ele>278</ele>
        <time>2020-05-16T14:22:58.063Z</time>
      </trkpt>
      <trkpt lat="45.68653" lon="5.31852">
        <ele>276</ele>
        <time>2020-05-16T14:22:59.063Z</time>
      </trkpt>
      <trkpt lat="45.68648" lon="5.31848">
        <ele>276</ele>
        <time>2020-05-16T14:23:00.063Z</time>
      </trkpt>
      <trkpt lat="45.68643" lon="5.31845">
        <ele>277</ele>
        <time>2020-05-16T14:23:01.063Z</time>
      </trkpt>
      <trkpt lat="45.68637" lon="5.31842">
        <ele>275</ele>
        <time>2020-05-16T14:23:02.063Z</time>
      </trkpt>
      <trkpt lat="45.68631" lon="5.31838">
        <ele>274</ele>
        <time>2020-05-16T14:23:03.063Z</time>
      </trkpt>
      <trkpt lat="45.68623" lon="5.31835">
        <ele>275</ele>
        <time>2020-05-16T14:23:04.063Z</time>
      </trkpt>
      <trkpt lat="45.68616" lon="5.31832">
        <ele>273</ele>
        <time>2020-05-16T14:23:05.063Z</time>
      </trkpt>
      <trkpt lat="45.68608" lon="5.31828">
        <ele>272</ele>
        <time>2020-05-16T14:23:06.063Z</time>
      </trkpt>
      <trkpt lat="45.686" lon="5.31825">
        <ele>272</ele>
        <time>2020-05-16T14:23:07.063Z</time>
      </trkpt>
      <trkpt lat="45.68592" lon="5.31821">
        <ele>272</ele>
        <time>2020-05-16T14:23:08.063Z</time>
      </trkpt>
      <trkpt lat="45.68584" lon="5.31817">
        <ele>271</ele>
        <time>2020-05-16T14:23:09.063Z</time>
      </trkpt>
      <trkpt lat="45.68575" lon="5.31813">
        <ele>271</ele>
        <time>2020-05-16T14:23:10.063Z</time>
      </trkpt>
      <trkpt lat="45.68567" lon="5.3181">
        <ele>270</ele>
        <time>2020-05-16T14:23:11.063Z</time>
      </trkpt>
      <trkpt lat="45.68559" lon="5.31806">
        <ele>270</ele>
        <time>2020-05-16T14:23:12.063Z</time>
      </trkpt>
      <trkpt lat="45.68551" lon="5.31803">
        <ele>269</ele>
        <time>2020-05-16T14:23:13.063Z</time>
      </trkpt>
      <trkpt lat="45.68542" lon="5.318">
        <ele>268</ele>
        <time>2020-05-16T14:23:14.063Z</time>
      </trkpt>
      <trkpt lat="45.68533" lon="5.31796">
        <ele>267</ele>
        <time>2020-05-16T14:23:15.063Z</time>
      </trkpt>
      <trkpt lat="45.68525" lon="5.31792">
        <ele>266</ele>
        <time>2020-05-16T14:23:16.063Z</time>
      </trkpt>
      <trkpt lat="45.68516" lon="5.31788">
        <ele>266</ele>
        <time>2020-05-16T14:23:17.063Z</time>
      </trkpt>
      <trkpt lat="45.68508" lon="5.31783">
        <ele>265</ele>
        <time>2020-05-16T14:23:18.063Z</time>
      </trkpt>
      <trkpt lat="45.685" lon="5.3178">
        <ele>265</ele>
        <time>2020-05-16T14:23:19.063Z</time>
      </trkpt>
      <trkpt lat="45.68492" lon="5.31776">
        <ele>264</ele>
        <time>2020-05-16T14:23:20.063Z</time>
      </trkpt>
      <trkpt lat="45.68485" lon="5.31773">
        <ele>264</ele>
        <time>2020-05-16T14:23:21.063Z</time>
      </trkpt>
      <trkpt lat="45.68477" lon="5.3177">
        <ele>263</ele>
        <time>2020-05-16T14:23:22.063Z</time>
      </trkpt>
      <trkpt lat="45.68469" lon="5.31767">
        <ele>262</ele>
        <time>2020-05-16T14:23:23.063Z</time>
      </trkpt>
      <trkpt lat="45.68461" lon="5.31763">
        <ele>262</ele>
        <time>2020-05-16T14:23:24.063Z</time>
      </trkpt>
      <trkpt lat="45.68453" lon="5.3176">
        <ele>261</ele>
        <time>2020-05-16T14:23:25.063Z</time>
      </trkpt>
      <trkpt lat="45.68444" lon="5.31756">
        <ele>260</ele>
        <time>2020-05-16T14:23:26.063Z</time>
      </trkpt>
      <trkpt lat="45.68436" lon="5.31751">
        <ele>260</ele>
        <time>2020-05-16T14:23:27.063Z</time>
      </trkpt>
      <trkpt lat="45.68427" lon="5.31747">
        <ele>259</ele>
        <time>2020-05-16T14:23:28.063Z</time>
      </trkpt>
      <trkpt lat="45.68418" lon="5.31743">
        <ele>259</ele>
        <time>2020-05-16T14:23:29.063Z</time>
      </trkpt>
      <trkpt lat="45.68409" lon="5.31739">
        <ele>258</ele>
        <time>2020-05-16T14:23:30.063Z</time>
      </trkpt>
      <trkpt lat="45.684" lon="5.31735">
        <ele>258</ele>
        <time>2020-05-16T14:23:31.063Z</time>
      </trkpt>
      <trkpt lat="45.6839" lon="5.3173">
        <ele>257</ele>
        <time>2020-05-16T14:23:32.063Z</time>
      </trkpt>
      <trkpt lat="45.68381" lon="5.31726">
        <ele>257</ele>
        <time>2020-05-16T14:23:33.063Z</time>
      </trkpt>
      <trkpt lat="45.68371" lon="5.31722">
        <ele>257</ele>
        <time>2020-05-16T14:23:34.063Z</time>
      </trkpt>
      <trkpt lat="45.68361" lon="5.31717">
        <ele>256</ele>
        <time>2020-05-16T14:23:35.063Z</time>
      </trkpt>
      <trkpt lat="45.68351" lon="5.31713">
        <ele>256</ele>
        <time>2020-05-16T14:23:36.063Z</time>
      </trkpt>
      <trkpt lat="45.68341" lon="5.31709">
        <ele>255</ele>
        <time>2020-05-16T14:23:37.063Z</time>
      </trkpt>
      <trkpt lat="45.6833" lon="5.31704">
        <ele>255</ele>
        <time>2020-05-16T14:23:38.063Z</time>
      </trkpt>
      <trkpt lat="45.6832" lon="5.317">
        <ele>254</ele>
        <time>2020-05-16T14:23:39.063Z</time>
      </trkpt>
      <trkpt lat="45.6831" lon="5.31695">
        <ele>254</ele>
        <time>2020-05-16T14:23:40.063Z</time>
      </trkpt>
      <trkpt lat="45.68301" lon="5.31691">
        <ele>254</ele>
        <time>2020-05-16T14:23:41.063Z</time>
      </trkpt>
      <trkpt lat="45.68292" lon="5.31687">
        <ele>253</ele>
        <time>2020-05-16T14:23:42.063Z</time>
      </trkpt>
      <trkpt lat="45.68283" lon="5.31683">
        <ele>253</ele>
        <time>2020-05-16T14:23:43.063Z</time>
      </trkpt>
      <trkpt lat="45.68274" lon="5.31679">
        <ele>253</ele>
        <time>2020-05-16T14:23:44.063Z</time>
      </trkpt>
      <trkpt lat="45.68265" lon="5.31675">
        <ele>253</ele>
        <time>2020-05-16T14:23:45.063Z</time>
      </trkpt>
      <trkpt lat="45.68256" lon="5.31671">
        <ele>252</ele>
        <time>2020-05-16T14:23:46.063Z</time>
      </trkpt>
      <trkpt lat="45.68248" lon="5.31667">
        <ele>252</ele>
        <time>2020-05-16T14:23:47.063Z</time>
      </trkpt>
      <trkpt lat="45.68239" lon="5.31663">
        <ele>251</ele>
        <time>2020-05-16T14:23:48.063Z</time>
      </trkpt>
      <trkpt lat="45.6823" lon="5.3166">
        <ele>252</ele>
        <time>2020-05-16T14:23:49.063Z</time>
      </trkpt>
      <trkpt lat="45.68221" lon="5.31657">
        <ele>252</ele>
        <time>2020-05-16T14:23:50.063Z</time>
      </trkpt>
      <trkpt lat="45.68212" lon="5.31654">
        <ele>251</ele>
        <time>2020-05-16T14:23:51.063Z</time>
      </trkpt>
      <trkpt lat="45.68203" lon="5.31652">
        <ele>251</ele>
        <time>2020-05-16T14:23:52.063Z</time>
      </trkpt>
      <trkpt lat="45.68194" lon="5.31649">
        <ele>251</ele>
        <time>2020-05-16T14:23:53.063Z</time>
      </trkpt>
      <trkpt lat="45.68186" lon="5.31646">
        <ele>251</ele>
        <time>2020-05-16T14:23:54.063Z</time>
      </trkpt>
      <trkpt lat="45.68177" lon="5.31643">
        <ele>250</ele>
        <time>2020-05-16T14:23:55.063Z</time>
      </trkpt>
      <trkpt lat="45.68169" lon="5.3164">
        <ele>250</ele>
        <time>2020-05-16T14:23:56.063Z</time>
      </trkpt>
      <trkpt lat="45.68161" lon="5.31638">
        <ele>249</ele>
        <time>2020-05-16T14:23:57.063Z</time>
      </trkpt>
      <trkpt lat="45.68153" lon="5.31636">
        <ele>248</ele>
        <time>2020-05-16T14:23:58.063Z</time>
      </trkpt>
      <trkpt lat="45.68144" lon="5.31634">
        <ele>249</ele>
        <time>2020-05-16T14:23:59.063Z</time>
      </trkpt>
      <trkpt lat="45.68136" lon="5.31633">
        <ele>248</ele>
        <time>2020-05-16T14:24:00.063Z</time>
      </trkpt>
      <trkpt lat="45.68128" lon="5.31631">
        <ele>248</ele>
        <time>2020-05-16T14:24:01.063Z</time>
      </trkpt>
      <trkpt lat="45.68119" lon="5.3163">
        <ele>248</ele>
        <time>2020-05-16T14:24:02.063Z</time>
      </trkpt>
      <trkpt lat="45.68111" lon="5.31628">
        <ele>248</ele>
        <time>2020-05-16T14:24:03.063Z</time>
      </trkpt>
      <trkpt lat="45.68102" lon="5.31626">
        <ele>247</ele>
        <time>2020-05-16T14:24:04.063Z</time>
      </trkpt>
      <trkpt lat="45.68094" lon="5.31623">
        <ele>246</ele>
        <time>2020-05-16T14:24:05.063Z</time>
      </trkpt>
      <trkpt lat="45.68087" lon="5.31617">
        <ele>247</ele>
        <time>2020-05-16T14:24:06.063Z</time>
      </trkpt>
      <trkpt lat="45.6808" lon="5.3161">
        <ele>246</ele>
        <time>2020-05-16T14:24:07.063Z</time>
      </trkpt>
      <trkpt lat="45.68073" lon="5.31601">
        <ele>245</ele>
        <time>2020-05-16T14:24:08.063Z</time>
      </trkpt>
      <trkpt lat="45.68067" lon="5.31592">
        <ele>244</ele>
        <time>2020-05-16T14:24:09.063Z</time>
      </trkpt>
      <trkpt lat="45.68061" lon="5.31582">
        <ele>244</ele>
        <time>2020-05-16T14:24:10.063Z</time>
      </trkpt>
      <trkpt lat="45.68056" lon="5.31572">
        <ele>244</ele>
        <time>2020-05-16T14:24:11.063Z</time>
      </trkpt>
      <trkpt lat="45.6805" lon="5.31561">
        <ele>245</ele>
        <time>2020-05-16T14:24:12.063Z</time>
      </trkpt>
      <trkpt lat="45.68044" lon="5.31551">
        <ele>245</ele>
        <time>2020-05-16T14:24:13.063Z</time>
      </trkpt>
      <trkpt lat="45.68039" lon="5.3154">
        <ele>245</ele>
        <time>2020-05-16T14:24:14.063Z</time>
      </trkpt>
      <trkpt lat="45.68033" lon="5.31529">
        <ele>245</ele>
        <time>2020-05-16T14:24:15.063Z</time>
      </trkpt>
      <trkpt lat="45.68027" lon="5.31518">
        <ele>245</ele>
        <time>2020-05-16T14:24:16.063Z</time>
      </trkpt>
      <trkpt lat="45.68022" lon="5.31508">
        <ele>246</ele>
        <time>2020-05-16T14:24:17.063Z</time>
      </trkpt>
      <trkpt lat="45.68017" lon="5.31497">
        <ele>246</ele>
        <time>2020-05-16T14:24:18.063Z</time>
      </trkpt>
      <trkpt lat="45.68012" lon="5.31486">
        <ele>247</ele>
        <time>2020-05-16T14:24:19.063Z</time>
      </trkpt>
      <trkpt lat="45.68007" lon="5.31475">
        <ele>248</ele>
        <time>2020-05-16T14:24:20.063Z</time>
      </trkpt>
      <trkpt lat="45.68002" lon="5.31464">
        <ele>248</ele>
        <time>2020-05-16T14:24:21.063Z</time>
      </trkpt>
      <trkpt lat="45.67997" lon="5.31452">
        <ele>249</ele>
        <time>2020-05-16T14:24:22.063Z</time>
      </trkpt>
      <trkpt lat="45.67992" lon="5.31441">
        <ele>249</ele>
        <time>2020-05-16T14:24:23.063Z</time>
      </trkpt>
      <trkpt lat="45.67987" lon="5.31429">
        <ele>250</ele>
        <time>2020-05-16T14:24:24.063Z</time>
      </trkpt>
      <trkpt lat="45.67982" lon="5.31418">
        <ele>250</ele>
        <time>2020-05-16T14:24:25.063Z</time>
      </trkpt>
      <trkpt lat="45.67976" lon="5.31407">
        <ele>251</ele>
        <time>2020-05-16T14:24:26.063Z</time>
      </trkpt>
      <trkpt lat="45.67971" lon="5.31395">
        <ele>251</ele>
        <time>2020-05-16T14:24:27.063Z</time>
      </trkpt>
      <trkpt lat="45.67966" lon="5.31384">
        <ele>252</ele>
        <time>2020-05-16T14:24:28.063Z</time>
      </trkpt>
      <trkpt lat="45.6796" lon="5.31372">
        <ele>252</ele>
        <time>2020-05-16T14:24:29.063Z</time>
      </trkpt>
      <trkpt lat="45.67955" lon="5.31361">
        <ele>252</ele>
        <time>2020-05-16T14:24:30.063Z</time>
      </trkpt>
      <trkpt lat="45.6795" lon="5.3135">
        <ele>252</ele>
        <time>2020-05-16T14:24:31.063Z</time>
      </trkpt>
      <trkpt lat="45.67945" lon="5.31339">
        <ele>252</ele>
        <time>2020-05-16T14:24:32.063Z</time>
      </trkpt>
      <trkpt lat="45.6794" lon="5.31328">
        <ele>252</ele>
        <time>2020-05-16T14:24:33.063Z</time>
      </trkpt>
      <trkpt lat="45.67935" lon="5.31318">
        <ele>252</ele>
        <time>2020-05-16T14:24:34.063Z</time>
      </trkpt>
      <trkpt lat="45.6793" lon="5.31307">
        <ele>252</ele>
        <time>2020-05-16T14:24:35.063Z</time>
      </trkpt>
      <trkpt lat="45.67926" lon="5.31296">
        <ele>252</ele>
        <time>2020-05-16T14:24:36.063Z</time>
      </trkpt>
      <trkpt lat="45.67922" lon="5.31286">
        <ele>252</ele>
        <time>2020-05-16T14:24:37.063Z</time>
      </trkpt>
      <trkpt lat="45.67918" lon="5.31275">
        <ele>251</ele>
        <time>2020-05-16T14:24:38.063Z</time>
      </trkpt>
      <trkpt lat="45.67914" lon="5.31264">
        <ele>251</ele>
        <time>2020-05-16T14:24:39.063Z</time>
      </trkpt>
      <trkpt lat="45.6791" lon="5.31254">
        <ele>252</ele>
        <time>2020-05-16T14:24:40.063Z</time>
      </trkpt>
      <trkpt lat="45.67905" lon="5.31244">
        <ele>253</ele>
        <time>2020-05-16T14:24:41.063Z</time>
      </trkpt>
      <trkpt lat="45.67901" lon="5.31234">
        <ele>252</ele>
        <time>2020-05-16T14:24:42.063Z</time>
      </trkpt>
      <trkpt lat="45.67895" lon="5.31225">
        <ele>252</ele>
        <time>2020-05-16T14:24:43.063Z</time>
      </trkpt>
      <trkpt lat="45.6789" lon="5.31217">
        <ele>252</ele>
        <time>2020-05-16T14:24:44.063Z</time>
      </trkpt>
      <trkpt lat="45.67885" lon="5.31209">
        <ele>251</ele>
        <time>2020-05-16T14:24:45.063Z</time>
      </trkpt>
      <trkpt lat="45.67879" lon="5.31203">
        <ele>252</ele>
        <time>2020-05-16T14:24:46.063Z</time>
      </trkpt>
      <trkpt lat="45.67872" lon="5.31196">
        <ele>252</ele>
        <time>2020-05-16T14:24:47.063Z</time>
      </trkpt>
      <trkpt lat="45.67866" lon="5.3119">
        <ele>252</ele>
        <time>2020-05-16T14:24:48.063Z</time>
      </trkpt>
      <trkpt lat="45.67859" lon="5.31184">
        <ele>251</ele>
        <time>2020-05-16T14:24:49.063Z</time>
      </trkpt>
      <trkpt lat="45.67853" lon="5.31178">
        <ele>250</ele>
        <time>2020-05-16T14:24:50.063Z</time>
      </trkpt>
      <trkpt lat="45.67846" lon="5.31172">
        <ele>250</ele>
        <time>2020-05-16T14:24:51.063Z</time>
      </trkpt>
      <trkpt lat="45.6784" lon="5.31166">
        <ele>249</ele>
        <time>2020-05-16T14:24:52.063Z</time>
      </trkpt>
      <trkpt lat="45.67833" lon="5.3116">
        <ele>250</ele>
        <time>2020-05-16T14:24:53.063Z</time>
      </trkpt>
      <trkpt lat="45.67826" lon="5.31156">
        <ele>250</ele>
        <time>2020-05-16T14:24:54.063Z</time>
      </trkpt>
      <trkpt lat="45.6782" lon="5.31152">
        <ele>251</ele>
        <time>2020-05-16T14:24:55.063Z</time>
      </trkpt>
      <trkpt lat="45.67813" lon="5.31149">
        <ele>251</ele>
        <time>2020-05-16T14:24:56.063Z</time>
      </trkpt>
      <trkpt lat="45.67807" lon="5.31146">
        <ele>250</ele>
        <time>2020-05-16T14:24:57.063Z</time>
      </trkpt>
      <trkpt lat="45.67801" lon="5.31144">
        <ele>250</ele>
        <time>2020-05-16T14:24:58.063Z</time>
      </trkpt>
      <trkpt lat="45.67796" lon="5.31143">
        <ele>249</ele>
        <time>2020-05-16T14:24:59.063Z</time>
      </trkpt>
      <trkpt lat="45.6779" lon="5.31142">
        <ele>249</ele>
        <time>2020-05-16T14:25:00.063Z</time>
      </trkpt>
      <trkpt lat="45.67784" lon="5.31143">
        <ele>248</ele>
        <time>2020-05-16T14:25:01.063Z</time>
      </trkpt>
      <trkpt lat="45.67778" lon="5.31145">
        <ele>250</ele>
        <time>2020-05-16T14:25:02.063Z</time>
      </trkpt>
      <trkpt lat="45.67772" lon="5.31147">
        <ele>250</ele>
        <time>2020-05-16T14:25:03.063Z</time>
      </trkpt>
      <trkpt lat="45.67765" lon="5.31151">
        <ele>249</ele>
        <time>2020-05-16T14:25:04.063Z</time>
      </trkpt>
      <trkpt lat="45.67758" lon="5.31154">
        <ele>248</ele>
        <time>2020-05-16T14:25:05.063Z</time>
      </trkpt>
      <trkpt lat="45.67752" lon="5.31156">
        <ele>248</ele>
        <time>2020-05-16T14:25:06.063Z</time>
      </trkpt>
      <trkpt lat="45.67744" lon="5.31159">
        <ele>247</ele>
        <time>2020-05-16T14:25:07.063Z</time>
      </trkpt>
      <trkpt lat="45.67737" lon="5.31161">
        <ele>247</ele>
        <time>2020-05-16T14:25:08.063Z</time>
      </trkpt>
      <trkpt lat="45.67729" lon="5.31162">
        <ele>247</ele>
        <time>2020-05-16T14:25:09.063Z</time>
      </trkpt>
      <trkpt lat="45.67721" lon="5.31163">
        <ele>246</ele>
        <time>2020-05-16T14:25:10.063Z</time>
      </trkpt>
      <trkpt lat="45.67713" lon="5.31164">
        <ele>246</ele>
        <time>2020-05-16T14:25:11.063Z</time>
      </trkpt>
      <trkpt lat="45.67704" lon="5.31164">
        <ele>245</ele>
        <time>2020-05-16T14:25:12.063Z</time>
      </trkpt>
      <trkpt lat="45.67695" lon="5.31165">
        <ele>245</ele>
        <time>2020-05-16T14:25:13.063Z</time>
      </trkpt>
      <trkpt lat="45.67686" lon="5.31165">
        <ele>244</ele>
        <time>2020-05-16T14:25:14.063Z</time>
      </trkpt>
      <trkpt lat="45.67676" lon="5.31166">
        <ele>244</ele>
        <time>2020-05-16T14:25:15.063Z</time>
      </trkpt>
      <trkpt lat="45.67666" lon="5.31167">
        <ele>243</ele>
        <time>2020-05-16T14:25:16.063Z</time>
      </trkpt>
      <trkpt lat="45.67656" lon="5.31167">
        <ele>243</ele>
        <time>2020-05-16T14:25:17.063Z</time>
      </trkpt>
      <trkpt lat="45.67646" lon="5.31167">
        <ele>242</ele>
        <time>2020-05-16T14:25:18.063Z</time>
      </trkpt>
      <trkpt lat="45.67636" lon="5.31165">
        <ele>239</ele>
        <time>2020-05-16T14:25:19.063Z</time>
      </trkpt>
      <trkpt lat="45.67627" lon="5.31161">
        <ele>239</ele>
        <time>2020-05-16T14:25:20.063Z</time>
      </trkpt>
      <trkpt lat="45.67618" lon="5.31156">
        <ele>239</ele>
        <time>2020-05-16T14:25:21.063Z</time>
      </trkpt>
      <trkpt lat="45.67609" lon="5.3115">
        <ele>239</ele>
        <time>2020-05-16T14:25:22.063Z</time>
      </trkpt>
      <trkpt lat="45.67601" lon="5.31144">
        <ele>239</ele>
        <time>2020-05-16T14:25:23.063Z</time>
      </trkpt>
      <trkpt lat="45.67593" lon="5.31137">
        <ele>240</ele>
        <time>2020-05-16T14:25:24.063Z</time>
      </trkpt>
      <trkpt lat="45.67585" lon="5.3113">
        <ele>240</ele>
        <time>2020-05-16T14:25:25.063Z</time>
      </trkpt>
      <trkpt lat="45.67578" lon="5.31123">
        <ele>240</ele>
        <time>2020-05-16T14:25:26.063Z</time>
      </trkpt>
      <trkpt lat="45.67571" lon="5.31117">
        <ele>240</ele>
        <time>2020-05-16T14:25:27.063Z</time>
      </trkpt>
      <trkpt lat="45.67564" lon="5.31109">
        <ele>239</ele>
        <time>2020-05-16T14:25:28.063Z</time>
      </trkpt>
      <trkpt lat="45.67557" lon="5.31102">
        <ele>239</ele>
        <time>2020-05-16T14:25:29.063Z</time>
      </trkpt>
      <trkpt lat="45.67551" lon="5.31095">
        <ele>239</ele>
        <time>2020-05-16T14:25:30.063Z</time>
      </trkpt>
      <trkpt lat="45.67544" lon="5.31087">
        <ele>239</ele>
        <time>2020-05-16T14:25:31.063Z</time>
      </trkpt>
      <trkpt lat="45.67538" lon="5.31079">
        <ele>239</ele>
        <time>2020-05-16T14:25:32.063Z</time>
      </trkpt>
      <trkpt lat="45.67531" lon="5.31072">
        <ele>239</ele>
        <time>2020-05-16T14:25:33.063Z</time>
      </trkpt>
      <trkpt lat="45.67525" lon="5.31064">
        <ele>239</ele>
        <time>2020-05-16T14:25:34.063Z</time>
      </trkpt>
      <trkpt lat="45.67519" lon="5.31056">
        <ele>238</ele>
        <time>2020-05-16T14:25:35.063Z</time>
      </trkpt>
      <trkpt lat="45.67512" lon="5.31049">
        <ele>238</ele>
        <time>2020-05-16T14:25:36.063Z</time>
      </trkpt>
      <trkpt lat="45.67506" lon="5.31042">
        <ele>237</ele>
        <time>2020-05-16T14:25:37.063Z</time>
      </trkpt>
      <trkpt lat="45.67499" lon="5.31035">
        <ele>238</ele>
        <time>2020-05-16T14:25:38.063Z</time>
      </trkpt>
      <trkpt lat="45.67492" lon="5.31028">
        <ele>238</ele>
        <time>2020-05-16T14:25:39.063Z</time>
      </trkpt>
      <trkpt lat="45.67485" lon="5.31022">
        <ele>237</ele>
        <time>2020-05-16T14:25:40.063Z</time>
      </trkpt>
      <trkpt lat="45.67478" lon="5.31015">
        <ele>237</ele>
        <time>2020-05-16T14:25:41.063Z</time>
      </trkpt>
      <trkpt lat="45.67471" lon="5.31008">
        <ele>237</ele>
        <time>2020-05-16T14:25:42.063Z</time>
      </trkpt>
      <trkpt lat="45.67463" lon="5.31001">
        <ele>236</ele>
        <time>2020-05-16T14:25:43.063Z</time>
      </trkpt>
      <trkpt lat="45.67456" lon="5.30994">
        <ele>236</ele>
        <time>2020-05-16T14:25:44.063Z</time>
      </trkpt>
      <trkpt lat="45.67448" lon="5.30986">
        <ele>236</ele>
        <time>2020-05-16T14:25:45.063Z</time>
      </trkpt>
      <trkpt lat="45.67441" lon="5.30978">
        <ele>235</ele>
        <time>2020-05-16T14:25:46.063Z</time>
      </trkpt>
      <trkpt lat="45.67433" lon="5.30969">
        <ele>235</ele>
        <time>2020-05-16T14:25:47.063Z</time>
      </trkpt>
      <trkpt lat="45.67426" lon="5.30959">
        <ele>234</ele>
        <time>2020-05-16T14:25:48.063Z</time>
      </trkpt>
      <trkpt lat="45.6742" lon="5.30949">
        <ele>234</ele>
        <time>2020-05-16T14:25:49.063Z</time>
      </trkpt>
      <trkpt lat="45.67413" lon="5.3094">
        <ele>234</ele>
        <time>2020-05-16T14:25:50.063Z</time>
      </trkpt>
      <trkpt lat="45.67406" lon="5.3093">
        <ele>234</ele>
        <time>2020-05-16T14:25:51.063Z</time>
      </trkpt>
      <trkpt lat="45.67399" lon="5.3092">
        <ele>234</ele>
        <time>2020-05-16T14:25:52.063Z</time>
      </trkpt>
      <trkpt lat="45.67393" lon="5.30911">
        <ele>234</ele>
        <time>2020-05-16T14:25:53.063Z</time>
      </trkpt>
      <trkpt lat="45.67387" lon="5.30901">
        <ele>233</ele>
        <time>2020-05-16T14:25:54.063Z</time>
      </trkpt>
      <trkpt lat="45.6738" lon="5.30891">
        <ele>233</ele>
        <time>2020-05-16T14:25:55.063Z</time>
      </trkpt>
      <trkpt lat="45.67374" lon="5.30881">
        <ele>233</ele>
        <time>2020-05-16T14:25:56.063Z</time>
      </trkpt>
      <trkpt lat="45.67367" lon="5.30873">
        <ele>233</ele>
        <time>2020-05-16T14:25:57.063Z</time>
      </trkpt>
      <trkpt lat="45.6736" lon="5.30865">
        <ele>233</ele>
        <time>2020-05-16T14:25:58.063Z</time>
      </trkpt>
      <trkpt lat="45.67352" lon="5.30858">
        <ele>233</ele>
        <time>2020-05-16T14:25:59.063Z</time>
      </trkpt>
      <trkpt lat="45.67343" lon="5.30853">
        <ele>234</ele>
        <time>2020-05-16T14:26:00.063Z</time>
      </trkpt>
      <trkpt lat="45.67335" lon="5.30849">
        <ele>233</ele>
        <time>2020-05-16T14:26:01.063Z</time>
      </trkpt>
      <trkpt lat="45.67326" lon="5.30844">
        <ele>233</ele>
        <time>2020-05-16T14:26:02.063Z</time>
      </trkpt>
      <trkpt lat="45.67317" lon="5.3084">
        <ele>233</ele>
        <time>2020-05-16T14:26:03.063Z</time>
      </trkpt>
      <trkpt lat="45.67308" lon="5.30835">
        <ele>234</ele>
        <time>2020-05-16T14:26:04.063Z</time>
      </trkpt>
      <trkpt lat="45.673" lon="5.3083">
        <ele>234</ele>
        <time>2020-05-16T14:26:05.063Z</time>
      </trkpt>
      <trkpt lat="45.67292" lon="5.30825">
        <ele>234</ele>
        <time>2020-05-16T14:26:06.063Z</time>
      </trkpt>
      <trkpt lat="45.67285" lon="5.30819">
        <ele>234</ele>
        <time>2020-05-16T14:26:07.063Z</time>
      </trkpt>
      <trkpt lat="45.67277" lon="5.30812">
        <ele>234</ele>
        <time>2020-05-16T14:26:08.063Z</time>
      </trkpt>
      <trkpt lat="45.6727" lon="5.30806">
        <ele>234</ele>
        <time>2020-05-16T14:26:09.063Z</time>
      </trkpt>
      <trkpt lat="45.67264" lon="5.30799">
        <ele>234</ele>
        <time>2020-05-16T14:26:10.063Z</time>
      </trkpt>
      <trkpt lat="45.67258" lon="5.30792">
        <ele>234</ele>
        <time>2020-05-16T14:26:11.063Z</time>
      </trkpt>
      <trkpt lat="45.67252" lon="5.30785">
        <ele>234</ele>
        <time>2020-05-16T14:26:12.063Z</time>
      </trkpt>
      <trkpt lat="45.67246" lon="5.30777">
        <ele>234</ele>
        <time>2020-05-16T14:26:13.063Z</time>
      </trkpt>
      <trkpt lat="45.67241" lon="5.3077">
        <ele>234</ele>
        <time>2020-05-16T14:26:14.063Z</time>
      </trkpt>
      <trkpt lat="45.67237" lon="5.30762">
        <ele>234</ele>
        <time>2020-05-16T14:26:15.063Z</time>
      </trkpt>
      <trkpt lat="45.67232" lon="5.30755">
        <ele>234</ele>
        <time>2020-05-16T14:26:16.063Z</time>
      </trkpt>
      <trkpt lat="45.67228" lon="5.30747">
        <ele>234</ele>
        <time>2020-05-16T14:26:17.063Z</time>
      </trkpt>
      <trkpt lat="45.67223" lon="5.3074">
        <ele>235</ele>
        <time>2020-05-16T14:26:18.063Z</time>
      </trkpt>
      <trkpt lat="45.67218" lon="5.30732">
        <ele>235</ele>
        <time>2020-05-16T14:26:19.063Z</time>
      </trkpt>
      <trkpt lat="45.67213" lon="5.30725">
        <ele>235</ele>
        <time>2020-05-16T14:26:20.063Z</time>
      </trkpt>
      <trkpt lat="45.67208" lon="5.30719">
        <ele>235</ele>
        <time>2020-05-16T14:26:21.063Z</time>
      </trkpt>
      <trkpt lat="45.67203" lon="5.30712">
        <ele>235</ele>
        <time>2020-05-16T14:26:22.063Z</time>
      </trkpt>
      <trkpt lat="45.67198" lon="5.30706">
        <ele>235</ele>
        <time>2020-05-16T14:26:23.063Z</time>
      </trkpt>
      <trkpt lat="45.67193" lon="5.307">
        <ele>235</ele>
        <time>2020-05-16T14:26:24.063Z</time>
      </trkpt>
      <trkpt lat="45.67188" lon="5.30695">
        <ele>236</ele>
        <time>2020-05-16T14:26:25.063Z</time>
      </trkpt>
      <trkpt lat="45.67183" lon="5.3069">
        <ele>235</ele>
        <time>2020-05-16T14:26:26.063Z</time>
      </trkpt>
      <trkpt lat="45.67178" lon="5.30684">
        <ele>236</ele>
        <time>2020-05-16T14:26:27.063Z</time>
      </trkpt>
      <trkpt lat="45.67172" lon="5.3068">
        <ele>236</ele>
        <time>2020-05-16T14:26:28.063Z</time>
      </trkpt>
      <trkpt lat="45.67167" lon="5.30675">
        <ele>236</ele>
        <time>2020-05-16T14:26:29.063Z</time>
      </trkpt>
      <trkpt lat="45.67161" lon="5.3067">
        <ele>236</ele>
        <time>2020-05-16T14:26:30.063Z</time>
      </trkpt>
      <trkpt lat="45.67156" lon="5.30665">
        <ele>237</ele>
        <time>2020-05-16T14:26:31.063Z</time>
      </trkpt>
      <trkpt lat="45.67151" lon="5.3066">
        <ele>237</ele>
        <time>2020-05-16T14:26:32.063Z</time>
      </trkpt>
      <trkpt lat="45.67145" lon="5.30653">
        <ele>236</ele>
        <time>2020-05-16T14:26:33.063Z</time>
      </trkpt>
      <trkpt lat="45.6714" lon="5.30646">
        <ele>235</ele>
        <time>2020-05-16T14:26:34.063Z</time>
      </trkpt>
      <trkpt lat="45.67134" lon="5.30638">
        <ele>235</ele>
        <time>2020-05-16T14:26:35.063Z</time>
      </trkpt>
      <trkpt lat="45.67129" lon="5.30629">
        <ele>234</ele>
        <time>2020-05-16T14:26:36.063Z</time>
      </trkpt>
      <trkpt lat="45.67123" lon="5.30621">
        <ele>233</ele>
        <time>2020-05-16T14:26:37.063Z</time>
      </trkpt>
      <trkpt lat="45.67117" lon="5.30612">
        <ele>233</ele>
        <time>2020-05-16T14:26:38.063Z</time>
      </trkpt>
      <trkpt lat="45.6711" lon="5.30603">
        <ele>233</ele>
        <time>2020-05-16T14:26:39.063Z</time>
      </trkpt>
      <trkpt lat="45.67104" lon="5.30594">
        <ele>232</ele>
        <time>2020-05-16T14:26:40.063Z</time>
      </trkpt>
      <trkpt lat="45.67098" lon="5.30585">
        <ele>232</ele>
        <time>2020-05-16T14:26:41.063Z</time>
      </trkpt>
      <trkpt lat="45.67092" lon="5.30576">
        <ele>232</ele>
        <time>2020-05-16T14:26:42.063Z</time>
      </trkpt>
      <trkpt lat="45.67086" lon="5.30567">
        <ele>232</ele>
        <time>2020-05-16T14:26:43.063Z</time>
      </trkpt>
      <trkpt lat="45.6708" lon="5.30558">
        <ele>232</ele>
        <time>2020-05-16T14:26:44.063Z</time>
      </trkpt>
      <trkpt lat="45.67074" lon="5.30548">
        <ele>231</ele>
        <time>2020-05-16T14:26:45.063Z</time>
      </trkpt>
      <trkpt lat="45.67068" lon="5.30539">
        <ele>231</ele>
        <time>2020-05-16T14:26:46.063Z</time>
      </trkpt>
      <trkpt lat="45.67062" lon="5.30529">
        <ele>230</ele>
        <time>2020-05-16T14:26:47.063Z</time>
      </trkpt>
      <trkpt lat="45.67056" lon="5.30519">
        <ele>230</ele>
        <time>2020-05-16T14:26:48.063Z</time>
      </trkpt>
      <trkpt lat="45.6705" lon="5.30508">
        <ele>230</ele>
        <time>2020-05-16T14:26:49.063Z</time>
      </trkpt>
      <trkpt lat="45.67043" lon="5.30497">
        <ele>230</ele>
        <time>2020-05-16T14:26:50.063Z</time>
      </trkpt>
      <trkpt lat="45.67037" lon="5.30486">
        <ele>229</ele>
        <time>2020-05-16T14:26:51.063Z</time>
      </trkpt>
      <trkpt lat="45.6703" lon="5.30474">
        <ele>228</ele>
        <time>2020-05-16T14:26:52.063Z</time>
      </trkpt>
      <trkpt lat="45.67023" lon="5.30462">
        <ele>227</ele>
        <time>2020-05-16T14:26:53.063Z</time>
      </trkpt>
      <trkpt lat="45.67016" lon="5.30449">
        <ele>226</ele>
        <time>2020-05-16T14:26:54.063Z</time>
      </trkpt>
      <trkpt lat="45.67009" lon="5.30437">
        <ele>226</ele>
        <time>2020-05-16T14:26:55.063Z</time>
      </trkpt>
      <trkpt lat="45.67002" lon="5.30424">
        <ele>225</ele>
        <time>2020-05-16T14:26:56.063Z</time>
      </trkpt>
      <trkpt lat="45.66995" lon="5.30412">
        <ele>225</ele>
        <time>2020-05-16T14:26:57.063Z</time>
      </trkpt>
      <trkpt lat="45.66988" lon="5.30399">
        <ele>224</ele>
        <time>2020-05-16T14:26:58.063Z</time>
      </trkpt>
      <trkpt lat="45.66981" lon="5.30386">
        <ele>223</ele>
        <time>2020-05-16T14:26:59.063Z</time>
      </trkpt>
      <trkpt lat="45.66974" lon="5.30374">
        <ele>223</ele>
        <time>2020-05-16T14:27:00.063Z</time>
      </trkpt>
      <trkpt lat="45.66966" lon="5.30361">
        <ele>223</ele>
        <time>2020-05-16T14:27:01.063Z</time>
      </trkpt>
      <trkpt lat="45.66959" lon="5.30348">
        <ele>223</ele>
        <time>2020-05-16T14:27:02.063Z</time>
      </trkpt>
      <trkpt lat="45.66952" lon="5.30336">
        <ele>222</ele>
        <time>2020-05-16T14:27:03.063Z</time>
      </trkpt>
      <trkpt lat="45.66945" lon="5.30324">
        <ele>222</ele>
        <time>2020-05-16T14:27:04.063Z</time>
      </trkpt>
      <trkpt lat="45.66938" lon="5.30312">
        <ele>222</ele>
        <time>2020-05-16T14:27:05.063Z</time>
      </trkpt>
      <trkpt lat="45.6693" lon="5.30301">
        <ele>222</ele>
        <time>2020-05-16T14:27:06.063Z</time>
      </trkpt>
      <trkpt lat="45.66923" lon="5.3029">
        <ele>222</ele>
        <time>2020-05-16T14:27:07.063Z</time>
      </trkpt>
      <trkpt lat="45.66915" lon="5.30281">
        <ele>221</ele>
        <time>2020-05-16T14:27:08.063Z</time>
      </trkpt>
      <trkpt lat="45.66908" lon="5.30272">
        <ele>221</ele>
        <time>2020-05-16T14:27:09.063Z</time>
      </trkpt>
      <trkpt lat="45.66901" lon="5.30263">
        <ele>221</ele>
        <time>2020-05-16T14:27:10.063Z</time>
      </trkpt>
      <trkpt lat="45.66896" lon="5.30253">
        <ele>221</ele>
        <time>2020-05-16T14:27:11.063Z</time>
      </trkpt>
      <trkpt lat="45.6689" lon="5.30243">
        <ele>220</ele>
        <time>2020-05-16T14:27:12.063Z</time>
      </trkpt>
      <trkpt lat="45.66886" lon="5.30233">
        <ele>219</ele>
        <time>2020-05-16T14:27:13.063Z</time>
      </trkpt>
      <trkpt lat="45.66882" lon="5.30222">
        <ele>219</ele>
        <time>2020-05-16T14:27:14.063Z</time>
      </trkpt>
      <trkpt lat="45.66879" lon="5.30212">
        <ele>219</ele>
        <time>2020-05-16T14:27:15.063Z</time>
      </trkpt>
      <trkpt lat="45.66875" lon="5.30202">
        <ele>219</ele>
        <time>2020-05-16T14:27:16.063Z</time>
      </trkpt>
      <trkpt lat="45.66872" lon="5.30193">
        <ele>220</ele>
        <time>2020-05-16T14:27:17.063Z</time>
      </trkpt>
      <trkpt lat="45.66868" lon="5.30184">
        <ele>219</ele>
        <time>2020-05-16T14:27:18.063Z</time>
      </trkpt>
      <trkpt lat="45.66865" lon="5.30175">
        <ele>220</ele>
        <time>2020-05-16T14:27:19.063Z</time>
      </trkpt>
      <trkpt lat="45.66861" lon="5.30167">
        <ele>219</ele>
        <time>2020-05-16T14:27:20.063Z</time>
      </trkpt>
      <trkpt lat="45.66856" lon="5.3016">
        <ele>219</ele>
        <time>2020-05-16T14:27:21.063Z</time>
      </trkpt>
      <trkpt lat="45.66851" lon="5.30153">
        <ele>218</ele>
        <time>2020-05-16T14:27:22.063Z</time>
      </trkpt>
      <trkpt lat="45.66847" lon="5.30147">
        <ele>218</ele>
        <time>2020-05-16T14:27:23.063Z</time>
      </trkpt>
      <trkpt lat="45.66842" lon="5.3014">
        <ele>218</ele>
        <time>2020-05-16T14:27:24.063Z</time>
      </trkpt>
      <trkpt lat="45.66838" lon="5.30133">
        <ele>218</ele>
        <time>2020-05-16T14:27:25.063Z</time>
      </trkpt>
      <trkpt lat="45.66833" lon="5.30126">
        <ele>218</ele>
        <time>2020-05-16T14:27:26.063Z</time>
      </trkpt>
      <trkpt lat="45.66829" lon="5.30118">
        <ele>218</ele>
        <time>2020-05-16T14:27:27.063Z</time>
      </trkpt>
      <trkpt lat="45.66826" lon="5.3011">
        <ele>218</ele>
        <time>2020-05-16T14:27:28.063Z</time>
      </trkpt>
      <trkpt lat="45.66823" lon="5.30101">
        <ele>219</ele>
        <time>2020-05-16T14:27:29.063Z</time>
      </trkpt>
      <trkpt lat="45.66821" lon="5.30092">
        <ele>219</ele>
        <time>2020-05-16T14:27:30.063Z</time>
      </trkpt>
      <trkpt lat="45.6682" lon="5.30082">
        <ele>220</ele>
        <time>2020-05-16T14:27:31.063Z</time>
      </trkpt>
      <trkpt lat="45.6682" lon="5.30073">
        <ele>220</ele>
        <time>2020-05-16T14:27:32.063Z</time>
      </trkpt>
      <trkpt lat="45.66821" lon="5.30063">
        <ele>220</ele>
        <time>2020-05-16T14:27:33.063Z</time>
      </trkpt>
      <trkpt lat="45.66822" lon="5.30053">
        <ele>219</ele>
        <time>2020-05-16T14:27:34.063Z</time>
      </trkpt>
      <trkpt lat="45.66824" lon="5.30043">
        <ele>220</ele>
        <time>2020-05-16T14:27:35.063Z</time>
      </trkpt>
      <trkpt lat="45.66825" lon="5.30033">
        <ele>220</ele>
        <time>2020-05-16T14:27:36.063Z</time>
      </trkpt>
      <trkpt lat="45.66827" lon="5.30022">
        <ele>221</ele>
        <time>2020-05-16T14:27:37.063Z</time>
      </trkpt>
      <trkpt lat="45.66829" lon="5.30012">
        <ele>221</ele>
        <time>2020-05-16T14:27:38.063Z</time>
      </trkpt>
      <trkpt lat="45.66832" lon="5.30002">
        <ele>222</ele>
        <time>2020-05-16T14:27:39.063Z</time>
      </trkpt>
      <trkpt lat="45.66834" lon="5.29993">
        <ele>222</ele>
        <time>2020-05-16T14:27:40.063Z</time>
      </trkpt>
      <trkpt lat="45.66837" lon="5.29984">
        <ele>222</ele>
        <time>2020-05-16T14:27:41.063Z</time>
      </trkpt>
      <trkpt lat="45.66839" lon="5.29975">
        <ele>223</ele>
        <time>2020-05-16T14:27:42.063Z</time>
      </trkpt>
      <trkpt lat="45.66842" lon="5.29966">
        <ele>223</ele>
        <time>2020-05-16T14:27:43.063Z</time>
      </trkpt>
      <trkpt lat="45.66844" lon="5.29958">
        <ele>223</ele>
        <time>2020-05-16T14:27:44.063Z</time>
      </trkpt>
      <trkpt lat="45.66846" lon="5.2995">
        <ele>223</ele>
        <time>2020-05-16T14:27:45.063Z</time>
      </trkpt>
      <trkpt lat="45.66848" lon="5.29942">
        <ele>223</ele>
        <time>2020-05-16T14:27:46.063Z</time>
      </trkpt>
      <trkpt lat="45.6685" lon="5.29935">
        <ele>224</ele>
        <time>2020-05-16T14:27:47.063Z</time>
      </trkpt>
      <trkpt lat="45.66852" lon="5.29928">
        <ele>224</ele>
        <time>2020-05-16T14:27:48.063Z</time>
      </trkpt>
      <trkpt lat="45.66854" lon="5.29921">
        <ele>224</ele>
        <time>2020-05-16T14:27:49.063Z</time>
      </trkpt>
      <trkpt lat="45.66856" lon="5.29914">
        <ele>224</ele>
        <time>2020-05-16T14:27:50.063Z</time>
      </trkpt>
      <trkpt lat="45.66858" lon="5.29907">
        <ele>225</ele>
        <time>2020-05-16T14:27:51.063Z</time>
      </trkpt>
      <trkpt lat="45.6686" lon="5.29901">
        <ele>225</ele>
        <time>2020-05-16T14:27:52.063Z</time>
      </trkpt>
      <trkpt lat="45.66862" lon="5.29894">
        <ele>225</ele>
        <time>2020-05-16T14:27:53.063Z</time>
      </trkpt>
      <trkpt lat="45.66864" lon="5.29888">
        <ele>225</ele>
        <time>2020-05-16T14:27:54.063Z</time>
      </trkpt>
      <trkpt lat="45.66866" lon="5.29884">
        <ele>225</ele>
        <time>2020-05-16T14:27:55.063Z</time>
      </trkpt>
      <trkpt lat="45.66868" lon="5.2988">
        <ele>224</ele>
        <time>2020-05-16T14:27:56.063Z</time>
      </trkpt>
      <trkpt lat="45.6687" lon="5.29876">
        <ele>224</ele>
        <time>2020-05-16T14:27:57.063Z</time>
      </trkpt>
      <trkpt lat="45.66871" lon="5.29873">
        <ele>224</ele>
        <time>2020-05-16T14:27:58.063Z</time>
      </trkpt>
      <trkpt lat="45.66872" lon="5.2987">
        <ele>224</ele>
        <time>2020-05-16T14:27:59.063Z</time>
      </trkpt>
      <trkpt lat="45.66873" lon="5.29868">
        <ele>224</ele>
        <time>2020-05-16T14:28:00.063Z</time>
      </trkpt>
      <trkpt lat="45.66874" lon="5.29866">
        <ele>225</ele>
        <time>2020-05-16T14:28:01.063Z</time>
      </trkpt>
      <trkpt lat="45.66874" lon="5.29865">
        <ele>225</ele>
        <time>2020-05-16T14:28:02.063Z</time>
      </trkpt>
      <trkpt lat="45.66874" lon="5.29866">
        <ele>225</ele>
        <time>2020-05-16T14:28:03.063Z</time>
      </trkpt>
      <trkpt lat="45.66875" lon="5.29866">
        <ele>225</ele>
        <time>2020-05-16T14:28:04.063Z</time>
      </trkpt>
      <trkpt lat="45.66875" lon="5.29866">
        <ele>225</ele>
        <time>2020-05-16T14:28:05.063Z</time>
      </trkpt>
      <trkpt lat="45.66875" lon="5.29866">
        <ele>226</ele>
        <time>2020-05-16T14:28:06.063Z</time>
      </trkpt>
      <trkpt lat="45.66875" lon="5.29867">
        <ele>226</ele>
        <time>2020-05-16T14:28:07.063Z</time>
      </trkpt>
      <trkpt lat="45.66875" lon="5.29867">
        <ele>225</ele>
        <time>2020-05-16T14:28:08.012Z</time>
      </trkpt>
      <trkpt lat="45.66875" lon="5.29866">
        <ele>225</ele>
        <time>2020-05-16T14:28:09.012Z</time>
      </trkpt>
      <trkpt lat="45.66876" lon="5.29866">
        <ele>224</ele>
        <time>2020-05-16T14:28:10.012Z</time>
      </trkpt>
      <trkpt lat="45.66876" lon="5.29865">
        <ele>225</ele>
        <time>2020-05-16T14:28:11.012Z</time>
      </trkpt>
      <trkpt lat="45.66877" lon="5.29864">
        <ele>225</ele>
        <time>2020-05-16T14:28:12.012Z</time>
      </trkpt>
      <trkpt lat="45.66877" lon="5.29862">
        <ele>225</ele>
        <time>2020-05-16T14:28:13.012Z</time>
      </trkpt>
      <trkpt lat="45.66877" lon="5.29861">
        <ele>225</ele>
        <time>2020-05-16T14:28:14.012Z</time>
      </trkpt>
      <trkpt lat="45.66877" lon="5.29859">
        <ele>225</ele>
        <time>2020-05-16T14:28:15.012Z</time>
      </trkpt>
      <trkpt lat="45.66876" lon="5.29856">
        <ele>225</ele>
        <time>2020-05-16T14:28:16.012Z</time>
      </trkpt>
      <trkpt lat="45.66875" lon="5.29853">
        <ele>224</ele>
        <time>2020-05-16T14:28:17.012Z</time>
      </trkpt>
      <trkpt lat="45.66873" lon="5.29851">
        <ele>224</ele>
        <time>2020-05-16T14:28:18.012Z</time>
      </trkpt>
      <trkpt lat="45.66871" lon="5.29848">
        <ele>223</ele>
        <time>2020-05-16T14:28:19.012Z</time>
      </trkpt>
      <trkpt lat="45.66869" lon="5.29845">
        <ele>223</ele>
        <time>2020-05-16T14:28:20.012Z</time>
      </trkpt>
      <trkpt lat="45.66867" lon="5.29843">
        <ele>223</ele>
        <time>2020-05-16T14:28:21.012Z</time>
      </trkpt>
      <trkpt lat="45.66865" lon="5.2984">
        <ele>223</ele>
        <time>2020-05-16T14:28:22.012Z</time>
      </trkpt>
      <trkpt lat="45.66863" lon="5.29837">
        <ele>223</ele>
        <time>2020-05-16T14:28:23.012Z</time>
      </trkpt>
      <trkpt lat="45.66861" lon="5.29834">
        <ele>223</ele>
        <time>2020-05-16T14:28:24.012Z</time>
      </trkpt>
      <trkpt lat="45.66858" lon="5.29832">
        <ele>223</ele>
        <time>2020-05-16T14:28:25.012Z</time>
      </trkpt>
      <trkpt lat="45.66856" lon="5.29829">
        <ele>224</ele>
        <time>2020-05-16T14:28:26.012Z</time>
      </trkpt>
      <trkpt lat="45.66853" lon="5.29826">
        <ele>224</ele>
        <time>2020-05-16T14:28:27.012Z</time>
      </trkpt>
      <trkpt lat="45.66851" lon="5.29823">
        <ele>225</ele>
        <time>2020-05-16T14:28:28.012Z</time>
      </trkpt>
      <trkpt lat="45.66848" lon="5.2982">
        <ele>225</ele>
        <time>2020-05-16T14:28:29.012Z</time>
      </trkpt>
      <trkpt lat="45.66845" lon="5.29817">
        <ele>225</ele>
        <time>2020-05-16T14:28:30.012Z</time>
      </trkpt>
      <trkpt lat="45.66843" lon="5.29815">
        <ele>226</ele>
        <time>2020-05-16T14:28:31.012Z</time>
      </trkpt>
      <trkpt lat="45.6684" lon="5.29812">
        <ele>226</ele>
        <time>2020-05-16T14:28:32.012Z</time>
      </trkpt>
      <trkpt lat="45.66837" lon="5.29809">
        <ele>226</ele>
        <time>2020-05-16T14:28:33.012Z</time>
      </trkpt>
      <trkpt lat="45.66835" lon="5.29806">
        <ele>227</ele>
        <time>2020-05-16T14:28:34.012Z</time>
      </trkpt>
      <trkpt lat="45.66832" lon="5.29804">
        <ele>227</ele>
        <time>2020-05-16T14:28:35.012Z</time>
      </trkpt>
      <trkpt lat="45.6683" lon="5.29801">
        <ele>227</ele>
        <time>2020-05-16T14:28:36.012Z</time>
      </trkpt>
      <trkpt lat="45.66828" lon="5.29799">
        <ele>228</ele>
        <time>2020-05-16T14:28:37.012Z</time>
      </trkpt>
      <trkpt lat="45.66825" lon="5.29797">
        <ele>228</ele>
        <time>2020-05-16T14:28:38.012Z</time>
      </trkpt>
      <trkpt lat="45.66823" lon="5.29794">
        <ele>228</ele>
        <time>2020-05-16T14:28:39.012Z</time>
      </trkpt>
      <trkpt lat="45.66821" lon="5.29792">
        <ele>228</ele>
        <time>2020-05-16T14:28:40.012Z</time>
      </trkpt>
      <trkpt lat="45.66819" lon="5.29789">
        <ele>229</ele>
        <time>2020-05-16T14:28:41.012Z</time>
      </trkpt>
      <trkpt lat="45.66816" lon="5.29786">
        <ele>229</ele>
        <time>2020-05-16T14:28:42.012Z</time>
      </trkpt>
      <trkpt lat="45.66814" lon="5.29784">
        <ele>229</ele>
        <time>2020-05-16T14:28:43.012Z</time>
      </trkpt>
      <trkpt lat="45.66811" lon="5.29781">
        <ele>230</ele>
        <time>2020-05-16T14:28:44.012Z</time>
      </trkpt>
      <trkpt lat="45.66809" lon="5.29779">
        <ele>230</ele>
        <time>2020-05-16T14:28:45.012Z</time>
      </trkpt>
      <trkpt lat="45.66806" lon="5.29776">
        <ele>230</ele>
        <time>2020-05-16T14:28:46.012Z</time>
      </trkpt>
      <trkpt lat="45.66804" lon="5.29774">
        <ele>230</ele>
        <time>2020-05-16T14:28:47.012Z</time>
      </trkpt>
      <trkpt lat="45.66802" lon="5.29771">
        <ele>231</ele>
        <time>2020-05-16T14:28:48.012Z</time>
      </trkpt>
      <trkpt lat="45.66799" lon="5.29768">
        <ele>231</ele>
        <time>2020-05-16T14:28:49.012Z</time>
      </trkpt>
      <trkpt lat="45.66797" lon="5.29766">
        <ele>231</ele>
        <time>2020-05-16T14:28:50.012Z</time>
      </trkpt>
      <trkpt lat="45.66794" lon="5.29763">
        <ele>232</ele>
        <time>2020-05-16T14:28:51.012Z</time>
      </trkpt>
      <trkpt lat="45.66791" lon="5.29761">
        <ele>232</ele>
        <time>2020-05-16T14:28:52.012Z</time>
      </trkpt>
      <trkpt lat="45.66789" lon="5.29758">
        <ele>233</ele>
        <time>2020-05-16T14:28:53.012Z</time>
      </trkpt>
      <trkpt lat="45.66786" lon="5.29755">
        <ele>233</ele>
        <time>2020-05-16T14:28:54.012Z</time>
      </trkpt>
      <trkpt lat="45.66783" lon="5.29753">
        <ele>233</ele>
        <time>2020-05-16T14:28:55.012Z</time>
      </trkpt>
      <trkpt lat="45.66781" lon="5.29751">
        <ele>233</ele>
        <time>2020-05-16T14:28:56.012Z</time>
      </trkpt>
      <trkpt lat="45.66778" lon="5.29749">
        <ele>234</ele>
        <time>2020-05-16T14:28:57.012Z</time>
      </trkpt>
      <trkpt lat="45.66775" lon="5.29746">
        <ele>234</ele>
        <time>2020-05-16T14:28:58.012Z</time>
      </trkpt>
      <trkpt lat="45.66773" lon="5.29744">
        <ele>234</ele>
        <time>2020-05-16T14:28:59.012Z</time>
      </trkpt>
      <trkpt lat="45.6677" lon="5.29741">
        <ele>234</ele>
        <time>2020-05-16T14:29:00.012Z</time>
      </trkpt>
      <trkpt lat="45.66767" lon="5.29739">
        <ele>235</ele>
        <time>2020-05-16T14:29:01.012Z</time>
      </trkpt>
      <trkpt lat="45.66764" lon="5.29736">
        <ele>234</ele>
        <time>2020-05-16T14:29:02.012Z</time>
      </trkpt>
      <trkpt lat="45.66762" lon="5.29733">
        <ele>235</ele>
        <time>2020-05-16T14:29:03.012Z</time>
      </trkpt>
      <trkpt lat="45.66759" lon="5.2973">
        <ele>234</ele>
        <time>2020-05-16T14:29:04.012Z</time>
      </trkpt>
      <trkpt lat="45.66756" lon="5.29727">
        <ele>234</ele>
        <time>2020-05-16T14:29:05.012Z</time>
      </trkpt>
      <trkpt lat="45.66754" lon="5.29724">
        <ele>234</ele>
        <time>2020-05-16T14:29:06.012Z</time>
      </trkpt>
      <trkpt lat="45.66752" lon="5.29721">
        <ele>234</ele>
        <time>2020-05-16T14:29:07.012Z</time>
      </trkpt>
      <trkpt lat="45.66749" lon="5.29717">
        <ele>235</ele>
        <time>2020-05-16T14:29:08.012Z</time>
      </trkpt>
      <trkpt lat="45.66747" lon="5.29714">
        <ele>236</ele>
        <time>2020-05-16T14:29:09.012Z</time>
      </trkpt>
      <trkpt lat="45.66744" lon="5.29711">
        <ele>236</ele>
        <time>2020-05-16T14:29:10.012Z</time>
      </trkpt>
      <trkpt lat="45.66742" lon="5.29707">
        <ele>236</ele>
        <time>2020-05-16T14:29:11.012Z</time>
      </trkpt>
      <trkpt lat="45.6674" lon="5.29704">
        <ele>237</ele>
        <time>2020-05-16T14:29:12.012Z</time>
      </trkpt>
      <trkpt lat="45.66738" lon="5.297">
        <ele>237</ele>
        <time>2020-05-16T14:29:13.012Z</time>
      </trkpt>
      <trkpt lat="45.66736" lon="5.29697">
        <ele>237</ele>
        <time>2020-05-16T14:29:14.012Z</time>
      </trkpt>
      <trkpt lat="45.66734" lon="5.29694">
        <ele>238</ele>
        <time>2020-05-16T14:29:15.012Z</time>
      </trkpt>
      <trkpt lat="45.66733" lon="5.2969">
        <ele>237</ele>
        <time>2020-05-16T14:29:16.012Z</time>
      </trkpt>
      <trkpt lat="45.66731" lon="5.29686">
        <ele>237</ele>
        <time>2020-05-16T14:29:17.012Z</time>
      </trkpt>
      <trkpt lat="45.6673" lon="5.29682">
        <ele>238</ele>
        <time>2020-05-16T14:29:18.012Z</time>
      </trkpt>
      <trkpt lat="45.66729" lon="5.29678">
        <ele>239</ele>
        <time>2020-05-16T14:29:19.012Z</time>
      </trkpt>
      <trkpt lat="45.66728" lon="5.29675">
        <ele>240</ele>
        <time>2020-05-16T14:29:20.012Z</time>
      </trkpt>
      <trkpt lat="45.66727" lon="5.29671">
        <ele>240</ele>
        <time>2020-05-16T14:29:21.012Z</time>
      </trkpt>
      <trkpt lat="45.66726" lon="5.29668">
        <ele>241</ele>
        <time>2020-05-16T14:29:22.012Z</time>
      </trkpt>
      <trkpt lat="45.66725" lon="5.29664">
        <ele>241</ele>
        <time>2020-05-16T14:29:23.012Z</time>
      </trkpt>
      <trkpt lat="45.66724" lon="5.2966">
        <ele>241</ele>
        <time>2020-05-16T14:29:24.012Z</time>
      </trkpt>
      <trkpt lat="45.66724" lon="5.29657">
        <ele>242</ele>
        <time>2020-05-16T14:29:25.012Z</time>
      </trkpt>
      <trkpt lat="45.66723" lon="5.29653">
        <ele>242</ele>
        <time>2020-05-16T14:29:26.012Z</time>
      </trkpt>
      <trkpt lat="45.66723" lon="5.2965">
        <ele>242</ele>
        <time>2020-05-16T14:29:27.012Z</time>
      </trkpt>
      <trkpt lat="45.66722" lon="5.29646">
        <ele>242</ele>
        <time>2020-05-16T14:29:28.012Z</time>
      </trkpt>
      <trkpt lat="45.66722" lon="5.29643">
        <ele>243</ele>
        <time>2020-05-16T14:29:29.012Z</time>
      </trkpt>
      <trkpt lat="45.66721" lon="5.2964">
        <ele>243</ele>
        <time>2020-05-16T14:29:30.012Z</time>
      </trkpt>
      <trkpt lat="45.6672" lon="5.29636">
        <ele>243</ele>
        <time>2020-05-16T14:29:31.012Z</time>
      </trkpt>
      <trkpt lat="45.66719" lon="5.29633">
        <ele>243</ele>
        <time>2020-05-16T14:29:32.012Z</time>
      </trkpt>
      <trkpt lat="45.66718" lon="5.2963">
        <ele>243</ele>
        <time>2020-05-16T14:29:33.012Z</time>
      </trkpt>
      <trkpt lat="45.66716" lon="5.29626">
        <ele>243</ele>
        <time>2020-05-16T14:29:34.012Z</time>
      </trkpt>
      <trkpt lat="45.66715" lon="5.29623">
        <ele>243</ele>
        <time>2020-05-16T14:29:35.012Z</time>
      </trkpt>
      <trkpt lat="45.66713" lon="5.2962">
        <ele>243</ele>
        <time>2020-05-16T14:29:36.012Z</time>
      </trkpt>
      <trkpt lat="45.66711" lon="5.29618">
        <ele>244</ele>
        <time>2020-05-16T14:29:37.012Z</time>
      </trkpt>
      <trkpt lat="45.66709" lon="5.29615">
        <ele>244</ele>
        <time>2020-05-16T14:29:38.012Z</time>
      </trkpt>
      <trkpt lat="45.66707" lon="5.29612">
        <ele>244</ele>
        <time>2020-05-16T14:29:39.012Z</time>
      </trkpt>
      <trkpt lat="45.66705" lon="5.29609">
        <ele>244</ele>
        <time>2020-05-16T14:29:40.012Z</time>
      </trkpt>
      <trkpt lat="45.66703" lon="5.29607">
        <ele>244</ele>
        <time>2020-05-16T14:29:41.012Z</time>
      </trkpt>
      <trkpt lat="45.667" lon="5.29605">
        <ele>244</ele>
        <time>2020-05-16T14:29:42.012Z</time>
      </trkpt>
      <trkpt lat="45.66698" lon="5.29603">
        <ele>245</ele>
        <time>2020-05-16T14:29:43.012Z</time>
      </trkpt>
      <trkpt lat="45.66696" lon="5.29601">
        <ele>246</ele>
        <time>2020-05-16T14:29:44.012Z</time>
      </trkpt>
      <trkpt lat="45.66694" lon="5.29598">
        <ele>246</ele>
        <time>2020-05-16T14:29:45.012Z</time>
      </trkpt>
      <trkpt lat="45.66692" lon="5.29596">
        <ele>247</ele>
        <time>2020-05-16T14:29:46.012Z</time>
      </trkpt>
      <trkpt lat="45.6669" lon="5.29593">
        <ele>248</ele>
        <time>2020-05-16T14:29:47.012Z</time>
      </trkpt>
      <trkpt lat="45.66688" lon="5.29591">
        <ele>249</ele>
        <time>2020-05-16T14:29:48.012Z</time>
      </trkpt>
      <trkpt lat="45.66687" lon="5.29588">
        <ele>251</ele>
        <time>2020-05-16T14:29:49.012Z</time>
      </trkpt>
      <trkpt lat="45.66686" lon="5.29584">
        <ele>252</ele>
        <time>2020-05-16T14:29:50.012Z</time>
      </trkpt>
      <trkpt lat="45.66685" lon="5.29581">
        <ele>253</ele>
        <time>2020-05-16T14:29:51.012Z</time>
      </trkpt>
      <trkpt lat="45.66684" lon="5.29578">
        <ele>255</ele>
        <time>2020-05-16T14:29:52.012Z</time>
      </trkpt>
      <trkpt lat="45.66683" lon="5.29574">
        <ele>255</ele>
        <time>2020-05-16T14:29:53.012Z</time>
      </trkpt>
      <trkpt lat="45.66682" lon="5.29569">
        <ele>255</ele>
        <time>2020-05-16T14:29:54.012Z</time>
      </trkpt>
      <trkpt lat="45.66682" lon="5.29565">
        <ele>255</ele>
        <time>2020-05-16T14:29:55.012Z</time>
      </trkpt>
      <trkpt lat="45.66681" lon="5.2956">
        <ele>255</ele>
        <time>2020-05-16T14:29:56.012Z</time>
      </trkpt>
      <trkpt lat="45.66681" lon="5.29556">
        <ele>256</ele>
        <time>2020-05-16T14:29:57.012Z</time>
      </trkpt>
      <trkpt lat="45.66681" lon="5.29552">
        <ele>256</ele>
        <time>2020-05-16T14:29:58.012Z</time>
      </trkpt>
      <trkpt lat="45.6668" lon="5.29548">
        <ele>256</ele>
        <time>2020-05-16T14:29:59.012Z</time>
      </trkpt>
      <trkpt lat="45.6668" lon="5.29544">
        <ele>257</ele>
        <time>2020-05-16T14:30:00.012Z</time>
      </trkpt>
      <trkpt lat="45.6668" lon="5.29539">
        <ele>257</ele>
        <time>2020-05-16T14:30:01.012Z</time>
      </trkpt>
      <trkpt lat="45.6668" lon="5.29535">
        <ele>257</ele>
        <time>2020-05-16T14:30:02.012Z</time>
      </trkpt>
      <trkpt lat="45.6668" lon="5.2953">
        <ele>257</ele>
        <time>2020-05-16T14:30:03.012Z</time>
      </trkpt>
      <trkpt lat="45.6668" lon="5.29526">
        <ele>258</ele>
        <time>2020-05-16T14:30:04.012Z</time>
      </trkpt>
      <trkpt lat="45.6668" lon="5.29521">
        <ele>258</ele>
        <time>2020-05-16T14:30:05.012Z</time>
      </trkpt>
      <trkpt lat="45.6668" lon="5.29516">
        <ele>258</ele>
        <time>2020-05-16T14:30:06.012Z</time>
      </trkpt>
      <trkpt lat="45.6668" lon="5.29512">
        <ele>258</ele>
        <time>2020-05-16T14:30:07.012Z</time>
      </trkpt>
      <trkpt lat="45.6668" lon="5.29507">
        <ele>258</ele>
        <time>2020-05-16T14:30:08.012Z</time>
      </trkpt>
      <trkpt lat="45.66681" lon="5.29503">
        <ele>258</ele>
        <time>2020-05-16T14:30:09.012Z</time>
      </trkpt>
      <trkpt lat="45.66681" lon="5.29498">
        <ele>258</ele>
        <time>2020-05-16T14:30:10.012Z</time>
      </trkpt>
      <trkpt lat="45.66681" lon="5.29494">
        <ele>258</ele>
        <time>2020-05-16T14:30:11.012Z</time>
      </trkpt>
      <trkpt lat="45.66681" lon="5.2949">
        <ele>259</ele>
        <time>2020-05-16T14:30:12.012Z</time>
      </trkpt>
      <trkpt lat="45.66681" lon="5.29485">
        <ele>259</ele>
        <time>2020-05-16T14:30:13.012Z</time>
      </trkpt>
      <trkpt lat="45.66681" lon="5.29481">
        <ele>259</ele>
        <time>2020-05-16T14:30:14.012Z</time>
      </trkpt>
      <trkpt lat="45.66681" lon="5.29476">
        <ele>259</ele>
        <time>2020-05-16T14:30:15.012Z</time>
      </trkpt>
      <trkpt lat="45.66681" lon="5.29472">
        <ele>260</ele>
        <time>2020-05-16T14:30:16.012Z</time>
      </trkpt>
      <trkpt lat="45.66681" lon="5.29467">
        <ele>260</ele>
        <time>2020-05-16T14:30:17.012Z</time>
      </trkpt>
      <trkpt lat="45.66681" lon="5.29463">
        <ele>260</ele>
        <time>2020-05-16T14:30:18.012Z</time>
      </trkpt>
      <trkpt lat="45.6668" lon="5.29458">
        <ele>261</ele>
        <time>2020-05-16T14:30:19.012Z</time>
      </trkpt>
      <trkpt lat="45.66679" lon="5.29454">
        <ele>261</ele>
        <time>2020-05-16T14:30:20.012Z</time>
      </trkpt>
      <trkpt lat="45.66679" lon="5.29449">
        <ele>261</ele>
        <time>2020-05-16T14:30:21.012Z</time>
      </trkpt>
      <trkpt lat="45.66678" lon="5.29444">
        <ele>261</ele>
        <time>2020-05-16T14:30:22.012Z</time>
      </trkpt>
      <trkpt lat="45.66677" lon="5.2944">
        <ele>262</ele>
        <time>2020-05-16T14:30:23.012Z</time>
      </trkpt>
      <trkpt lat="45.66677" lon="5.29435">
        <ele>262</ele>
        <time>2020-05-16T14:30:24.012Z</time>
      </trkpt>
      <trkpt lat="45.66676" lon="5.2943">
        <ele>262</ele>
        <time>2020-05-16T14:30:25.012Z</time>
      </trkpt>
      <trkpt lat="45.66675" lon="5.29426">
        <ele>262</ele>
        <time>2020-05-16T14:30:26.012Z</time>
      </trkpt>
      <trkpt lat="45.66674" lon="5.29422">
        <ele>263</ele>
        <time>2020-05-16T14:30:27.012Z</time>
      </trkpt>
      <trkpt lat="45.66672" lon="5.29417">
        <ele>263</ele>
        <time>2020-05-16T14:30:28.012Z</time>
      </trkpt>
      <trkpt lat="45.66671" lon="5.29413">
        <ele>263</ele>
        <time>2020-05-16T14:30:29.012Z</time>
      </trkpt>
      <trkpt lat="45.66669" lon="5.29408">
        <ele>263</ele>
        <time>2020-05-16T14:30:30.012Z</time>
      </trkpt>
      <trkpt lat="45.66668" lon="5.29404">
        <ele>263</ele>
        <time>2020-05-16T14:30:31.012Z</time>
      </trkpt>
      <trkpt lat="45.66666" lon="5.29399">
        <ele>263</ele>
        <time>2020-05-16T14:30:32.012Z</time>
      </trkpt>
      <trkpt lat="45.66665" lon="5.29394">
        <ele>263</ele>
        <time>2020-05-16T14:30:33.012Z</time>
      </trkpt>
      <trkpt lat="45.66663" lon="5.29389">
        <ele>263</ele>
        <time>2020-05-16T14:30:34.012Z</time>
      </trkpt>
      <trkpt lat="45.66661" lon="5.29384">
        <ele>263</ele>
        <time>2020-05-16T14:30:35.012Z</time>
      </trkpt>
      <trkpt lat="45.66659" lon="5.29379">
        <ele>263</ele>
        <time>2020-05-16T14:30:36.012Z</time>
      </trkpt>
      <trkpt lat="45.66658" lon="5.29374">
        <ele>263</ele>
        <time>2020-05-16T14:30:37.012Z</time>
      </trkpt>
      <trkpt lat="45.66656" lon="5.29368">
        <ele>263</ele>
        <time>2020-05-16T14:30:38.012Z</time>
      </trkpt>
      <trkpt lat="45.66654" lon="5.29363">
        <ele>263</ele>
        <time>2020-05-16T14:30:39.012Z</time>
      </trkpt>
      <trkpt lat="45.66652" lon="5.29357">
        <ele>263</ele>
        <time>2020-05-16T14:30:40.012Z</time>
      </trkpt>
      <trkpt lat="45.6665" lon="5.29351">
        <ele>263</ele>
        <time>2020-05-16T14:30:41.012Z</time>
      </trkpt>
      <trkpt lat="45.66648" lon="5.29345">
        <ele>263</ele>
        <time>2020-05-16T14:30:42.012Z</time>
      </trkpt>
      <trkpt lat="45.66646" lon="5.29339">
        <ele>263</ele>
        <time>2020-05-16T14:30:43.012Z</time>
      </trkpt>
      <trkpt lat="45.66644" lon="5.29333">
        <ele>264</ele>
        <time>2020-05-16T14:30:44.012Z</time>
      </trkpt>
      <trkpt lat="45.66642" lon="5.29327">
        <ele>264</ele>
        <time>2020-05-16T14:30:45.012Z</time>
      </trkpt>
      <trkpt lat="45.6664" lon="5.2932">
        <ele>263</ele>
        <time>2020-05-16T14:30:46.012Z</time>
      </trkpt>
      <trkpt lat="45.66638" lon="5.29314">
        <ele>264</ele>
        <time>2020-05-16T14:30:47.012Z</time>
      </trkpt>
      <trkpt lat="45.66636" lon="5.29308">
        <ele>264</ele>
        <time>2020-05-16T14:30:48.012Z</time>
      </trkpt>
      <trkpt lat="45.66635" lon="5.29302">
        <ele>264</ele>
        <time>2020-05-16T14:30:49.012Z</time>
      </trkpt>
      <trkpt lat="45.66633" lon="5.29296">
        <ele>264</ele>
        <time>2020-05-16T14:30:50.012Z</time>
      </trkpt>
      <trkpt lat="45.66631" lon="5.2929">
        <ele>264</ele>
        <time>2020-05-16T14:30:51.012Z</time>
      </trkpt>
      <trkpt lat="45.6663" lon="5.29284">
        <ele>264</ele>
        <time>2020-05-16T14:30:52.012Z</time>
      </trkpt>
      <trkpt lat="45.66628" lon="5.29277">
        <ele>264</ele>
        <time>2020-05-16T14:30:53.012Z</time>
      </trkpt>
      <trkpt lat="45.66626" lon="5.29271">
        <ele>264</ele>
        <time>2020-05-16T14:30:54.012Z</time>
      </trkpt>
      <trkpt lat="45.66624" lon="5.29265">
        <ele>264</ele>
        <time>2020-05-16T14:30:55.012Z</time>
      </trkpt>
      <trkpt lat="45.66622" lon="5.29258">
        <ele>264</ele>
        <time>2020-05-16T14:30:56.012Z</time>
      </trkpt>
      <trkpt lat="45.6662" lon="5.29252">
        <ele>264</ele>
        <time>2020-05-16T14:30:57.012Z</time>
      </trkpt>
      <trkpt lat="45.66618" lon="5.29245">
        <ele>264</ele>
        <time>2020-05-16T14:30:58.012Z</time>
      </trkpt>
      <trkpt lat="45.66616" lon="5.29239">
        <ele>264</ele>
        <time>2020-05-16T14:30:59.012Z</time>
      </trkpt>
      <trkpt lat="45.66614" lon="5.29233">
        <ele>264</ele>
        <time>2020-05-16T14:31:00.012Z</time>
      </trkpt>
      <trkpt lat="45.66612" lon="5.29226">
        <ele>264</ele>
        <time>2020-05-16T14:31:01.012Z</time>
      </trkpt>
      <trkpt lat="45.6661" lon="5.29219">
        <ele>265</ele>
        <time>2020-05-16T14:31:02.012Z</time>
      </trkpt>
      <trkpt lat="45.66608" lon="5.29213">
        <ele>265</ele>
        <time>2020-05-16T14:31:03.012Z</time>
      </trkpt>
      <trkpt lat="45.66606" lon="5.29206">
        <ele>265</ele>
        <time>2020-05-16T14:31:04.012Z</time>
      </trkpt>
      <trkpt lat="45.66604" lon="5.292">
        <ele>265</ele>
        <time>2020-05-16T14:31:05.012Z</time>
      </trkpt>
      <trkpt lat="45.66602" lon="5.29193">
        <ele>265</ele>
        <time>2020-05-16T14:31:06.012Z</time>
      </trkpt>
      <trkpt lat="45.66599" lon="5.29187">
        <ele>265</ele>
        <time>2020-05-16T14:31:07.012Z</time>
      </trkpt>
      <trkpt lat="45.66597" lon="5.2918">
        <ele>265</ele>
        <time>2020-05-16T14:31:08.012Z</time>
      </trkpt>
      <trkpt lat="45.66595" lon="5.29174">
        <ele>265</ele>
        <time>2020-05-16T14:31:09.012Z</time>
      </trkpt>
      <trkpt lat="45.66592" lon="5.29168">
        <ele>265</ele>
        <time>2020-05-16T14:31:10.012Z</time>
      </trkpt>
      <trkpt lat="45.66589" lon="5.29162">
        <ele>266</ele>
        <time>2020-05-16T14:31:11.012Z</time>
      </trkpt>
      <trkpt lat="45.66586" lon="5.29157">
        <ele>266</ele>
        <time>2020-05-16T14:31:12.012Z</time>
      </trkpt>
      <trkpt lat="45.66583" lon="5.29152">
        <ele>266</ele>
        <time>2020-05-16T14:31:13.012Z</time>
      </trkpt>
      <trkpt lat="45.66581" lon="5.29146">
        <ele>266</ele>
        <time>2020-05-16T14:31:14.012Z</time>
      </trkpt>
      <trkpt lat="45.66578" lon="5.29141">
        <ele>266</ele>
        <time>2020-05-16T14:31:15.012Z</time>
      </trkpt>
      <trkpt lat="45.66575" lon="5.29135">
        <ele>267</ele>
        <time>2020-05-16T14:31:16.012Z</time>
      </trkpt>
      <trkpt lat="45.66574" lon="5.29129">
        <ele>267</ele>
        <time>2020-05-16T14:31:17.012Z</time>
      </trkpt>
      <trkpt lat="45.66573" lon="5.29122">
        <ele>268</ele>
        <time>2020-05-16T14:31:18.012Z</time>
      </trkpt>
      <trkpt lat="45.66573" lon="5.29115">
        <ele>268</ele>
        <time>2020-05-16T14:31:19.012Z</time>
      </trkpt>
      <trkpt lat="45.66574" lon="5.29109">
        <ele>269</ele>
        <time>2020-05-16T14:31:20.012Z</time>
      </trkpt>
      <trkpt lat="45.66575" lon="5.29103">
        <ele>269</ele>
        <time>2020-05-16T14:31:21.012Z</time>
      </trkpt>
      <trkpt lat="45.66576" lon="5.29097">
        <ele>270</ele>
        <time>2020-05-16T14:31:22.012Z</time>
      </trkpt>
      <trkpt lat="45.66578" lon="5.29091">
        <ele>271</ele>
        <time>2020-05-16T14:31:23.012Z</time>
      </trkpt>
      <trkpt lat="45.6658" lon="5.29086">
        <ele>271</ele>
        <time>2020-05-16T14:31:24.012Z</time>
      </trkpt>
      <trkpt lat="45.66583" lon="5.29082">
        <ele>271</ele>
        <time>2020-05-16T14:31:25.012Z</time>
      </trkpt>
      <trkpt lat="45.66585" lon="5.29077">
        <ele>271</ele>
        <time>2020-05-16T14:31:26.012Z</time>
      </trkpt>
      <trkpt lat="45.66588" lon="5.29073">
        <ele>272</ele>
        <time>2020-05-16T14:31:27.012Z</time>
      </trkpt>
      <trkpt lat="45.6659" lon="5.29069">
        <ele>272</ele>
        <time>2020-05-16T14:31:28.012Z</time>
      </trkpt>
      <trkpt lat="45.66593" lon="5.29065">
        <ele>273</ele>
        <time>2020-05-16T14:31:29.012Z</time>
      </trkpt>
      <trkpt lat="45.66595" lon="5.29062">
        <ele>273</ele>
        <time>2020-05-16T14:31:30.012Z</time>
      </trkpt>
      <trkpt lat="45.66598" lon="5.29058">
        <ele>274</ele>
        <time>2020-05-16T14:31:31.012Z</time>
      </trkpt>
      <trkpt lat="45.66601" lon="5.29055">
        <ele>274</ele>
        <time>2020-05-16T14:31:32.012Z</time>
      </trkpt>
      <trkpt lat="45.66603" lon="5.29052">
        <ele>275</ele>
        <time>2020-05-16T14:31:33.012Z</time>
      </trkpt>
      <trkpt lat="45.66606" lon="5.29048">
        <ele>275</ele>
        <time>2020-05-16T14:31:34.012Z</time>
      </trkpt>
      <trkpt lat="45.66609" lon="5.29045">
        <ele>275</ele>
        <time>2020-05-16T14:31:35.012Z</time>
      </trkpt>
      <trkpt lat="45.66612" lon="5.29043">
        <ele>275</ele>
        <time>2020-05-16T14:31:36.012Z</time>
      </trkpt>
      <trkpt lat="45.66614" lon="5.2904">
        <ele>275</ele>
        <time>2020-05-16T14:31:37.012Z</time>
      </trkpt>
      <trkpt lat="45.66617" lon="5.29039">
        <ele>276</ele>
        <time>2020-05-16T14:31:38.012Z</time>
      </trkpt>
      <trkpt lat="45.6662" lon="5.29038">
        <ele>276</ele>
        <time>2020-05-16T14:31:39.012Z</time>
      </trkpt>
      <trkpt lat="45.66622" lon="5.29037">
        <ele>277</ele>
        <time>2020-05-16T14:31:40.012Z</time>
      </trkpt>
      <trkpt lat="45.66623" lon="5.29036">
        <ele>277</ele>
        <time>2020-05-16T14:31:41.012Z</time>
      </trkpt>
      <trkpt lat="45.66625" lon="5.29035">
        <ele>276</ele>
        <time>2020-05-16T14:31:42.012Z</time>
      </trkpt>
      <trkpt lat="45.66626" lon="5.29034">
        <ele>277</ele>
        <time>2020-05-16T14:31:43.012Z</time>
      </trkpt>
      <trkpt lat="45.66626" lon="5.29032">
        <ele>276</ele>
        <time>2020-05-16T14:31:44.012Z</time>
      </trkpt>
      <trkpt lat="45.66626" lon="5.2903">
        <ele>276</ele>
        <time>2020-05-16T14:31:45.012Z</time>
      </trkpt>
      <trkpt lat="45.66625" lon="5.29027">
        <ele>276</ele>
        <time>2020-05-16T14:31:46.012Z</time>
      </trkpt>
      <trkpt lat="45.66624" lon="5.29025">
        <ele>276</ele>
        <time>2020-05-16T14:31:47.012Z</time>
      </trkpt>
      <trkpt lat="45.66624" lon="5.29024">
        <ele>276</ele>
        <time>2020-05-16T14:31:48.012Z</time>
      </trkpt>
      <trkpt lat="45.66623" lon="5.29022">
        <ele>275</ele>
        <time>2020-05-16T14:31:49.012Z</time>
      </trkpt>
      <trkpt lat="45.66622" lon="5.29019">
        <ele>275</ele>
        <time>2020-05-16T14:31:50.012Z</time>
      </trkpt>
      <trkpt lat="45.66621" lon="5.29016">
        <ele>275</ele>
        <time>2020-05-16T14:31:51.012Z</time>
      </trkpt>
      <trkpt lat="45.66619" lon="5.29013">
        <ele>275</ele>
        <time>2020-05-16T14:31:52.012Z</time>
      </trkpt>
      <trkpt lat="45.66617" lon="5.29009">
        <ele>275</ele>
        <time>2020-05-16T14:31:53.012Z</time>
      </trkpt>
      <trkpt lat="45.66615" lon="5.29005">
        <ele>275</ele>
        <time>2020-05-16T14:31:54.012Z</time>
      </trkpt>
      <trkpt lat="45.66613" lon="5.29001">
        <ele>276</ele>
        <time>2020-05-16T14:31:55.012Z</time>
      </trkpt>
      <trkpt lat="45.6661" lon="5.28996">
        <ele>276</ele>
        <time>2020-05-16T14:31:56.012Z</time>
      </trkpt>
      <trkpt lat="45.66606" lon="5.28991">
        <ele>275</ele>
        <time>2020-05-16T14:31:57.012Z</time>
      </trkpt>
      <trkpt lat="45.66603" lon="5.28986">
        <ele>275</ele>
        <time>2020-05-16T14:31:58.012Z</time>
      </trkpt>
      <trkpt lat="45.66599" lon="5.28981">
        <ele>275</ele>
        <time>2020-05-16T14:31:59.012Z</time>
      </trkpt>
      <trkpt lat="45.66595" lon="5.28976">
        <ele>275</ele>
        <time>2020-05-16T14:32:00.012Z</time>
      </trkpt>
      <trkpt lat="45.66591" lon="5.28971">
        <ele>274</ele>
        <time>2020-05-16T14:32:01.012Z</time>
      </trkpt>
      <trkpt lat="45.66586" lon="5.28966">
        <ele>274</ele>
        <time>2020-05-16T14:32:02.012Z</time>
      </trkpt>
      <trkpt lat="45.66581" lon="5.28961">
        <ele>273</ele>
        <time>2020-05-16T14:32:03.012Z</time>
      </trkpt>
      <trkpt lat="45.66575" lon="5.28955">
        <ele>272</ele>
        <time>2020-05-16T14:32:04.012Z</time>
      </trkpt>
      <trkpt lat="45.66569" lon="5.2895">
        <ele>270</ele>
        <time>2020-05-16T14:32:05.012Z</time>
      </trkpt>
      <trkpt lat="45.66561" lon="5.28944">
        <ele>268</ele>
        <time>2020-05-16T14:32:06.012Z</time>
      </trkpt>
      <trkpt lat="45.66553" lon="5.28938">
        <ele>266</ele>
        <time>2020-05-16T14:32:07.012Z</time>
      </trkpt>
      <trkpt lat="45.66544" lon="5.28932">
        <ele>264</ele>
        <time>2020-05-16T14:32:08.012Z</time>
      </trkpt>
      <trkpt lat="45.66534" lon="5.28927">
        <ele>262</ele>
        <time>2020-05-16T14:32:09.012Z</time>
      </trkpt>
      <trkpt lat="45.66525" lon="5.28923">
        <ele>261</ele>
        <time>2020-05-16T14:32:10.012Z</time>
      </trkpt>
      <trkpt lat="45.66514" lon="5.28918">
        <ele>261</ele>
        <time>2020-05-16T14:32:11.012Z</time>
      </trkpt>
      <trkpt lat="45.66504" lon="5.28914">
        <ele>260</ele>
        <time>2020-05-16T14:32:12.012Z</time>
      </trkpt>
      <trkpt lat="45.66495" lon="5.28909">
        <ele>258</ele>
        <time>2020-05-16T14:32:13.012Z</time>
      </trkpt>
      <trkpt lat="45.66485" lon="5.28903">
        <ele>258</ele>
        <time>2020-05-16T14:32:14.012Z</time>
      </trkpt>
      <trkpt lat="45.66476" lon="5.28896">
        <ele>258</ele>
        <time>2020-05-16T14:32:15.012Z</time>
      </trkpt>
      <trkpt lat="45.66467" lon="5.28889">
        <ele>257</ele>
        <time>2020-05-16T14:32:16.012Z</time>
      </trkpt>
      <trkpt lat="45.66458" lon="5.2888">
        <ele>256</ele>
        <time>2020-05-16T14:32:17.012Z</time>
      </trkpt>
      <trkpt lat="45.66448" lon="5.2887">
        <ele>255</ele>
        <time>2020-05-16T14:32:18.012Z</time>
      </trkpt>
      <trkpt lat="45.66438" lon="5.28859">
        <ele>253</ele>
        <time>2020-05-16T14:32:19.012Z</time>
      </trkpt>
      <trkpt lat="45.66428" lon="5.28847">
        <ele>251</ele>
        <time>2020-05-16T14:32:20.012Z</time>
      </trkpt>
      <trkpt lat="45.66418" lon="5.28835">
        <ele>250</ele>
        <time>2020-05-16T14:32:21.012Z</time>
      </trkpt>
      <trkpt lat="45.66407" lon="5.28823">
        <ele>247</ele>
        <time>2020-05-16T14:32:22.012Z</time>
      </trkpt>
      <trkpt lat="45.66394" lon="5.28811">
        <ele>246</ele>
        <time>2020-05-16T14:32:23.012Z</time>
      </trkpt>
      <trkpt lat="45.66382" lon="5.28798">
        <ele>243</ele>
        <time>2020-05-16T14:32:24.012Z</time>
      </trkpt>
      <trkpt lat="45.66369" lon="5.28785">
        <ele>241</ele>
        <time>2020-05-16T14:32:25.012Z</time>
      </trkpt>
      <trkpt lat="45.66357" lon="5.28771">
        <ele>238</ele>
        <time>2020-05-16T14:32:26.012Z</time>
      </trkpt>
      <trkpt lat="45.66345" lon="5.28757">
        <ele>235</ele>
        <time>2020-05-16T14:32:27.012Z</time>
      </trkpt>
      <trkpt lat="45.66332" lon="5.28741">
        <ele>234</ele>
        <time>2020-05-16T14:32:28.012Z</time>
      </trkpt>
      <trkpt lat="45.6632" lon="5.28726">
        <ele>232</ele>
        <time>2020-05-16T14:32:29.012Z</time>
      </trkpt>
      <trkpt lat="45.66307" lon="5.28712">
        <ele>230</ele>
        <time>2020-05-16T14:32:30.012Z</time>
      </trkpt>
      <trkpt lat="45.66295" lon="5.28698">
        <ele>229</ele>
        <time>2020-05-16T14:32:31.012Z</time>
      </trkpt>
      <trkpt lat="45.66282" lon="5.28684">
        <ele>227</ele>
        <time>2020-05-16T14:32:32.012Z</time>
      </trkpt>
      <trkpt lat="45.66269" lon="5.28671">
        <ele>226</ele>
        <time>2020-05-16T14:32:33.012Z</time>
      </trkpt>
      <trkpt lat="45.66256" lon="5.28658">
        <ele>224</ele>
        <time>2020-05-16T14:32:34.012Z</time>
      </trkpt>
      <trkpt lat="45.66244" lon="5.28646">
        <ele>223</ele>
        <time>2020-05-16T14:32:35.012Z</time>
      </trkpt>
      <trkpt lat="45.66233" lon="5.28634">
        <ele>222</ele>
        <time>2020-05-16T14:32:36.012Z</time>
      </trkpt>
      <trkpt lat="45.66221" lon="5.28623">
        <ele>221</ele>
        <time>2020-05-16T14:32:37.012Z</time>
      </trkpt>
      <trkpt lat="45.66211" lon="5.28611">
        <ele>220</ele>
        <time>2020-05-16T14:32:38.012Z</time>
      </trkpt>
      <trkpt lat="45.662" lon="5.286">
        <ele>219</ele>
        <time>2020-05-16T14:32:39.012Z</time>
      </trkpt>
      <trkpt lat="45.6619" lon="5.28588">
        <ele>217</ele>
        <time>2020-05-16T14:32:40.012Z</time>
      </trkpt>
      <trkpt lat="45.66181" lon="5.28576">
        <ele>220</ele>
        <time>2020-05-16T14:32:41.012Z</time>
      </trkpt>
      <trkpt lat="45.66172" lon="5.28564">
        <ele>222</ele>
        <time>2020-05-16T14:32:42.012Z</time>
      </trkpt>
      <trkpt lat="45.66165" lon="5.28552">
        <ele>221</ele>
        <time>2020-05-16T14:32:43.012Z</time>
      </trkpt>
      <trkpt lat="45.66157" lon="5.28539">
        <ele>221</ele>
        <time>2020-05-16T14:32:44.012Z</time>
      </trkpt>
      <trkpt lat="45.6615" lon="5.28526">
        <ele>221</ele>
        <time>2020-05-16T14:32:45.012Z</time>
      </trkpt>
      <trkpt lat="45.66143" lon="5.28513">
        <ele>221</ele>
        <time>2020-05-16T14:32:46.012Z</time>
      </trkpt>
      <trkpt lat="45.66136" lon="5.285">
        <ele>220</ele>
        <time>2020-05-16T14:32:47.012Z</time>
      </trkpt>
      <trkpt lat="45.6613" lon="5.28487">
        <ele>220</ele>
        <time>2020-05-16T14:32:48.012Z</time>
      </trkpt>
      <trkpt lat="45.66125" lon="5.28475">
        <ele>220</ele>
        <time>2020-05-16T14:32:49.012Z</time>
      </trkpt>
      <trkpt lat="45.6612" lon="5.28462">
        <ele>220</ele>
        <time>2020-05-16T14:32:50.012Z</time>
      </trkpt>
      <trkpt lat="45.66116" lon="5.28449">
        <ele>220</ele>
        <time>2020-05-16T14:32:51.012Z</time>
      </trkpt>
      <trkpt lat="45.66112" lon="5.28436">
        <ele>219</ele>
        <time>2020-05-16T14:32:52.012Z</time>
      </trkpt>
      <trkpt lat="45.66109" lon="5.28423">
        <ele>219</ele>
        <time>2020-05-16T14:32:53.012Z</time>
      </trkpt>
      <trkpt lat="45.66107" lon="5.28409">
        <ele>221</ele>
        <time>2020-05-16T14:32:54.012Z</time>
      </trkpt>
      <trkpt lat="45.66105" lon="5.28397">
        <ele>221</ele>
        <time>2020-05-16T14:32:55.012Z</time>
      </trkpt>
      <trkpt lat="45.66103" lon="5.28384">
        <ele>221</ele>
        <time>2020-05-16T14:32:56.012Z</time>
      </trkpt>
      <trkpt lat="45.66102" lon="5.28371">
        <ele>221</ele>
        <time>2020-05-16T14:32:57.012Z</time>
      </trkpt>
      <trkpt lat="45.66101" lon="5.28359">
        <ele>221</ele>
        <time>2020-05-16T14:32:58.012Z</time>
      </trkpt>
      <trkpt lat="45.661" lon="5.28347">
        <ele>222</ele>
        <time>2020-05-16T14:32:59.012Z</time>
      </trkpt>
      <trkpt lat="45.66099" lon="5.28335">
        <ele>222</ele>
        <time>2020-05-16T14:33:00.012Z</time>
      </trkpt>
      <trkpt lat="45.66099" lon="5.28325">
        <ele>222</ele>
        <time>2020-05-16T14:33:01.012Z</time>
      </trkpt>
      <trkpt lat="45.66098" lon="5.28314">
        <ele>222</ele>
        <time>2020-05-16T14:33:02.012Z</time>
      </trkpt>
      <trkpt lat="45.66098" lon="5.28304">
        <ele>222</ele>
        <time>2020-05-16T14:33:03.012Z</time>
      </trkpt>
      <trkpt lat="45.66098" lon="5.28295">
        <ele>222</ele>
        <time>2020-05-16T14:33:04.012Z</time>
      </trkpt>
      <trkpt lat="45.66098" lon="5.28285">
        <ele>222</ele>
        <time>2020-05-16T14:33:05.012Z</time>
      </trkpt>
      <trkpt lat="45.66098" lon="5.28276">
        <ele>222</ele>
        <time>2020-05-16T14:33:06.012Z</time>
      </trkpt>
      <trkpt lat="45.66099" lon="5.28266">
        <ele>223</ele>
        <time>2020-05-16T14:33:07.012Z</time>
      </trkpt>
      <trkpt lat="45.66099" lon="5.28257">
        <ele>222</ele>
        <time>2020-05-16T14:33:08.012Z</time>
      </trkpt>
      <trkpt lat="45.661" lon="5.28248">
        <ele>222</ele>
        <time>2020-05-16T14:33:09.012Z</time>
      </trkpt>
      <trkpt lat="45.661" lon="5.28239">
        <ele>223</ele>
        <time>2020-05-16T14:33:10.012Z</time>
      </trkpt>
      <trkpt lat="45.661" lon="5.2823">
        <ele>223</ele>
        <time>2020-05-16T14:33:11.012Z</time>
      </trkpt>
      <trkpt lat="45.66101" lon="5.28222">
        <ele>223</ele>
        <time>2020-05-16T14:33:12.012Z</time>
      </trkpt>
      <trkpt lat="45.66101" lon="5.28214">
        <ele>223</ele>
        <time>2020-05-16T14:33:13.012Z</time>
      </trkpt>
      <trkpt lat="45.66101" lon="5.28206">
        <ele>223</ele>
        <time>2020-05-16T14:33:14.012Z</time>
      </trkpt>
      <trkpt lat="45.66101" lon="5.28199">
        <ele>224</ele>
        <time>2020-05-16T14:33:15.012Z</time>
      </trkpt>
      <trkpt lat="45.66101" lon="5.28192">
        <ele>224</ele>
        <time>2020-05-16T14:33:16.012Z</time>
      </trkpt>
      <trkpt lat="45.66102" lon="5.28185">
        <ele>224</ele>
        <time>2020-05-16T14:33:17.012Z</time>
      </trkpt>
      <trkpt lat="45.66102" lon="5.28178">
        <ele>224</ele>
        <time>2020-05-16T14:33:18.012Z</time>
      </trkpt>
      <trkpt lat="45.66102" lon="5.28171">
        <ele>225</ele>
        <time>2020-05-16T14:33:19.012Z</time>
      </trkpt>
      <trkpt lat="45.66102" lon="5.28164">
        <ele>225</ele>
        <time>2020-05-16T14:33:20.012Z</time>
      </trkpt>
      <trkpt lat="45.66102" lon="5.28157">
        <ele>225</ele>
        <time>2020-05-16T14:33:21.012Z</time>
      </trkpt>
      <trkpt lat="45.66102" lon="5.28151">
        <ele>225</ele>
        <time>2020-05-16T14:33:22.012Z</time>
      </trkpt>
      <trkpt lat="45.66102" lon="5.28144">
        <ele>226</ele>
        <time>2020-05-16T14:33:23.012Z</time>
      </trkpt>
      <trkpt lat="45.66102" lon="5.28139">
        <ele>226</ele>
        <time>2020-05-16T14:33:24.012Z</time>
      </trkpt>
      <trkpt lat="45.66103" lon="5.28134">
        <ele>226</ele>
        <time>2020-05-16T14:33:25.012Z</time>
      </trkpt>
      <trkpt lat="45.66104" lon="5.28129">
        <ele>225</ele>
        <time>2020-05-16T14:33:26.012Z</time>
      </trkpt>
      <trkpt lat="45.66104" lon="5.28125">
        <ele>225</ele>
        <time>2020-05-16T14:33:27.012Z</time>
      </trkpt>
      <trkpt lat="45.66104" lon="5.28123">
        <ele>225</ele>
        <time>2020-05-16T14:33:28.012Z</time>
      </trkpt>
      <trkpt lat="45.66104" lon="5.28121">
        <ele>225</ele>
        <time>2020-05-16T14:33:29.012Z</time>
      </trkpt>
      <trkpt lat="45.66104" lon="5.28119">
        <ele>225</ele>
        <time>2020-05-16T14:33:30.012Z</time>
      </trkpt>
      <trkpt lat="45.66103" lon="5.28116">
        <ele>226</ele>
        <time>2020-05-16T14:33:31.012Z</time>
      </trkpt>
      <trkpt lat="45.66102" lon="5.28113">
        <ele>226</ele>
        <time>2020-05-16T14:33:32.012Z</time>
      </trkpt>
      <trkpt lat="45.66101" lon="5.28109">
        <ele>226</ele>
        <time>2020-05-16T14:33:33.012Z</time>
      </trkpt>
      <trkpt lat="45.66099" lon="5.28105">
        <ele>226</ele>
        <time>2020-05-16T14:33:34.012Z</time>
      </trkpt>
      <trkpt lat="45.66097" lon="5.28101">
        <ele>227</ele>
        <time>2020-05-16T14:33:35.012Z</time>
      </trkpt>
      <trkpt lat="45.66095" lon="5.28097">
        <ele>227</ele>
        <time>2020-05-16T14:33:36.012Z</time>
      </trkpt>
      <trkpt lat="45.66093" lon="5.28093">
        <ele>227</ele>
        <time>2020-05-16T14:33:37.012Z</time>
      </trkpt>
      <trkpt lat="45.6609" lon="5.28088">
        <ele>228</ele>
        <time>2020-05-16T14:33:38.012Z</time>
      </trkpt>
      <trkpt lat="45.66088" lon="5.28083">
        <ele>228</ele>
        <time>2020-05-16T14:33:39.012Z</time>
      </trkpt>
      <trkpt lat="45.66085" lon="5.28078">
        <ele>227</ele>
        <time>2020-05-16T14:33:40.012Z</time>
      </trkpt>
      <trkpt lat="45.66082" lon="5.28073">
        <ele>228</ele>
        <time>2020-05-16T14:33:41.012Z</time>
      </trkpt>
      <trkpt lat="45.66079" lon="5.28067">
        <ele>227</ele>
        <time>2020-05-16T14:33:42.012Z</time>
      </trkpt>
      <trkpt lat="45.66075" lon="5.2806">
        <ele>227</ele>
        <time>2020-05-16T14:33:43.012Z</time>
      </trkpt>
      <trkpt lat="45.66071" lon="5.28053">
        <ele>228</ele>
        <time>2020-05-16T14:33:44.012Z</time>
      </trkpt>
      <trkpt lat="45.66068" lon="5.28046">
        <ele>227</ele>
        <time>2020-05-16T14:33:45.012Z</time>
      </trkpt>
      <trkpt lat="45.66065" lon="5.2804">
        <ele>227</ele>
        <time>2020-05-16T14:33:46.012Z</time>
      </trkpt>
      <trkpt lat="45.66062" lon="5.28034">
        <ele>227</ele>
        <time>2020-05-16T14:33:47.012Z</time>
      </trkpt>
      <trkpt lat="45.66059" lon="5.28029">
        <ele>226</ele>
        <time>2020-05-16T14:33:48.012Z</time>
      </trkpt>
      <trkpt lat="45.66056" lon="5.28025">
        <ele>226</ele>
        <time>2020-05-16T14:33:49.012Z</time>
      </trkpt>
      <trkpt lat="45.66054" lon="5.28021">
        <ele>226</ele>
        <time>2020-05-16T14:33:50.012Z</time>
      </trkpt>
      <trkpt lat="45.66051" lon="5.28016">
        <ele>226</ele>
        <time>2020-05-16T14:33:51.012Z</time>
      </trkpt>
      <trkpt lat="45.66048" lon="5.2801">
        <ele>226</ele>
        <time>2020-05-16T14:33:52.012Z</time>
      </trkpt>
      <trkpt lat="45.66044" lon="5.28004">
        <ele>226</ele>
        <time>2020-05-16T14:33:53.012Z</time>
      </trkpt>
      <trkpt lat="45.66041" lon="5.27997">
        <ele>225</ele>
        <time>2020-05-16T14:33:54.012Z</time>
      </trkpt>
      <trkpt lat="45.66037" lon="5.27989">
        <ele>224</ele>
        <time>2020-05-16T14:33:55.012Z</time>
      </trkpt>
      <trkpt lat="45.66034" lon="5.27982">
        <ele>225</ele>
        <time>2020-05-16T14:33:56.012Z</time>
      </trkpt>
      <trkpt lat="45.6603" lon="5.27974">
        <ele>226</ele>
        <time>2020-05-16T14:33:57.012Z</time>
      </trkpt>
      <trkpt lat="45.66026" lon="5.27965">
        <ele>226</ele>
        <time>2020-05-16T14:33:58.012Z</time>
      </trkpt>
      <trkpt lat="45.66022" lon="5.27957">
        <ele>225</ele>
        <time>2020-05-16T14:33:59.012Z</time>
      </trkpt>
      <trkpt lat="45.66018" lon="5.27948">
        <ele>225</ele>
        <time>2020-05-16T14:34:00.012Z</time>
      </trkpt>
      <trkpt lat="45.66015" lon="5.27939">
        <ele>225</ele>
        <time>2020-05-16T14:34:01.012Z</time>
      </trkpt>
      <trkpt lat="45.66011" lon="5.27931">
        <ele>225</ele>
        <time>2020-05-16T14:34:02.012Z</time>
      </trkpt>
      <trkpt lat="45.66008" lon="5.27923">
        <ele>225</ele>
        <time>2020-05-16T14:34:03.012Z</time>
      </trkpt>
      <trkpt lat="45.66004" lon="5.27915">
        <ele>225</ele>
        <time>2020-05-16T14:34:04.012Z</time>
      </trkpt>
      <trkpt lat="45.66001" lon="5.27907">
        <ele>225</ele>
        <time>2020-05-16T14:34:05.012Z</time>
      </trkpt>
      <trkpt lat="45.65997" lon="5.27899">
        <ele>225</ele>
        <time>2020-05-16T14:34:06.012Z</time>
      </trkpt>
      <trkpt lat="45.65993" lon="5.27892">
        <ele>225</ele>
        <time>2020-05-16T14:34:07.012Z</time>
      </trkpt>
      <trkpt lat="45.65989" lon="5.27884">
        <ele>225</ele>
        <time>2020-05-16T14:34:08.012Z</time>
      </trkpt>
      <trkpt lat="45.65985" lon="5.27877">
        <ele>226</ele>
        <time>2020-05-16T14:34:09.012Z</time>
      </trkpt>
      <trkpt lat="45.65981" lon="5.2787">
        <ele>226</ele>
        <time>2020-05-16T14:34:10.012Z</time>
      </trkpt>
      <trkpt lat="45.65977" lon="5.27864">
        <ele>227</ele>
        <time>2020-05-16T14:34:11.012Z</time>
      </trkpt>
      <trkpt lat="45.65972" lon="5.27858">
        <ele>228</ele>
        <time>2020-05-16T14:34:12.012Z</time>
      </trkpt>
      <trkpt lat="45.65968" lon="5.27853">
        <ele>228</ele>
        <time>2020-05-16T14:34:13.012Z</time>
      </trkpt>
      <trkpt lat="45.65963" lon="5.27848">
        <ele>229</ele>
        <time>2020-05-16T14:34:14.012Z</time>
      </trkpt>
      <trkpt lat="45.65959" lon="5.27843">
        <ele>229</ele>
        <time>2020-05-16T14:34:15.012Z</time>
      </trkpt>
      <trkpt lat="45.65954" lon="5.27838">
        <ele>229</ele>
        <time>2020-05-16T14:34:16.012Z</time>
      </trkpt>
      <trkpt lat="45.65949" lon="5.27832">
        <ele>228</ele>
        <time>2020-05-16T14:34:17.012Z</time>
      </trkpt>
      <trkpt lat="45.65945" lon="5.27827">
        <ele>228</ele>
        <time>2020-05-16T14:34:18.012Z</time>
      </trkpt>
      <trkpt lat="45.6594" lon="5.27821">
        <ele>228</ele>
        <time>2020-05-16T14:34:19.012Z</time>
      </trkpt>
      <trkpt lat="45.65936" lon="5.27815">
        <ele>227</ele>
        <time>2020-05-16T14:34:20.012Z</time>
      </trkpt>
      <trkpt lat="45.65932" lon="5.27809">
        <ele>227</ele>
        <time>2020-05-16T14:34:21.012Z</time>
      </trkpt>
      <trkpt lat="45.65928" lon="5.27803">
        <ele>227</ele>
        <time>2020-05-16T14:34:22.012Z</time>
      </trkpt>
      <trkpt lat="45.65925" lon="5.27797">
        <ele>227</ele>
        <time>2020-05-16T14:34:23.012Z</time>
      </trkpt>
      <trkpt lat="45.65921" lon="5.27791">
        <ele>227</ele>
        <time>2020-05-16T14:34:24.012Z</time>
      </trkpt>
      <trkpt lat="45.65918" lon="5.27785">
        <ele>227</ele>
        <time>2020-05-16T14:34:25.012Z</time>
      </trkpt>
      <trkpt lat="45.65914" lon="5.27779">
        <ele>227</ele>
        <time>2020-05-16T14:34:26.012Z</time>
      </trkpt>
      <trkpt lat="45.6591" lon="5.27773">
        <ele>227</ele>
        <time>2020-05-16T14:34:27.012Z</time>
      </trkpt>
      <trkpt lat="45.65906" lon="5.27767">
        <ele>227</ele>
        <time>2020-05-16T14:34:28.012Z</time>
      </trkpt>
      <trkpt lat="45.65902" lon="5.27761">
        <ele>227</ele>
        <time>2020-05-16T14:34:29.012Z</time>
      </trkpt>
      <trkpt lat="45.65898" lon="5.27754">
        <ele>226</ele>
        <time>2020-05-16T14:34:30.012Z</time>
      </trkpt>
      <trkpt lat="45.65895" lon="5.27747">
        <ele>226</ele>
        <time>2020-05-16T14:34:31.012Z</time>
      </trkpt>
      <trkpt lat="45.65892" lon="5.2774">
        <ele>227</ele>
        <time>2020-05-16T14:34:32.012Z</time>
      </trkpt>
      <trkpt lat="45.6589" lon="5.27733">
        <ele>228</ele>
        <time>2020-05-16T14:34:33.012Z</time>
      </trkpt>
      <trkpt lat="45.65887" lon="5.27726">
        <ele>228</ele>
        <time>2020-05-16T14:34:34.012Z</time>
      </trkpt>
      <trkpt lat="45.65884" lon="5.2772">
        <ele>229</ele>
        <time>2020-05-16T14:34:35.012Z</time>
      </trkpt>
      <trkpt lat="45.65879" lon="5.27715">
        <ele>229</ele>
        <time>2020-05-16T14:34:36.012Z</time>
      </trkpt>
      <trkpt lat="45.65873" lon="5.2771">
        <ele>226</ele>
        <time>2020-05-16T14:34:37.012Z</time>
      </trkpt>
      <trkpt lat="45.65867" lon="5.27706">
        <ele>226</ele>
        <time>2020-05-16T14:34:38.012Z</time>
      </trkpt>
      <trkpt lat="45.65861" lon="5.27703">
        <ele>225</ele>
        <time>2020-05-16T14:34:39.012Z</time>
      </trkpt>
      <trkpt lat="45.65855" lon="5.27699">
        <ele>225</ele>
        <time>2020-05-16T14:34:40.012Z</time>
      </trkpt>
      <trkpt lat="45.65849" lon="5.27694">
        <ele>224</ele>
        <time>2020-05-16T14:34:41.012Z</time>
      </trkpt>
      <trkpt lat="45.65843" lon="5.27689">
        <ele>224</ele>
        <time>2020-05-16T14:34:42.012Z</time>
      </trkpt>
      <trkpt lat="45.65836" lon="5.27684">
        <ele>224</ele>
        <time>2020-05-16T14:34:43.012Z</time>
      </trkpt>
      <trkpt lat="45.6583" lon="5.27678">
        <ele>223</ele>
        <time>2020-05-16T14:34:44.012Z</time>
      </trkpt>
      <trkpt lat="45.65824" lon="5.27672">
        <ele>222</ele>
        <time>2020-05-16T14:34:45.012Z</time>
      </trkpt>
      <trkpt lat="45.65817" lon="5.27666">
        <ele>222</ele>
        <time>2020-05-16T14:34:46.012Z</time>
      </trkpt>
      <trkpt lat="45.6581" lon="5.2766">
        <ele>222</ele>
        <time>2020-05-16T14:34:47.012Z</time>
      </trkpt>
      <trkpt lat="45.65803" lon="5.27655">
        <ele>222</ele>
        <time>2020-05-16T14:34:48.012Z</time>
      </trkpt>
      <trkpt lat="45.65796" lon="5.27649">
        <ele>221</ele>
        <time>2020-05-16T14:34:49.012Z</time>
      </trkpt>
      <trkpt lat="45.65788" lon="5.27644">
        <ele>221</ele>
        <time>2020-05-16T14:34:50.012Z</time>
      </trkpt>
      <trkpt lat="45.65781" lon="5.27638">
        <ele>221</ele>
        <time>2020-05-16T14:34:51.012Z</time>
      </trkpt>
      <trkpt lat="45.65773" lon="5.27632">
        <ele>220</ele>
        <time>2020-05-16T14:34:52.012Z</time>
      </trkpt>
      <trkpt lat="45.65766" lon="5.27626">
        <ele>220</ele>
        <time>2020-05-16T14:34:53.012Z</time>
      </trkpt>
      <trkpt lat="45.65759" lon="5.2762">
        <ele>220</ele>
        <time>2020-05-16T14:34:54.012Z</time>
      </trkpt>
      <trkpt lat="45.65752" lon="5.27613">
        <ele>219</ele>
        <time>2020-05-16T14:34:55.012Z</time>
      </trkpt>
      <trkpt lat="45.65746" lon="5.27606">
        <ele>219</ele>
        <time>2020-05-16T14:34:56.012Z</time>
      </trkpt>
      <trkpt lat="45.6574" lon="5.27598">
        <ele>219</ele>
        <time>2020-05-16T14:34:57.012Z</time>
      </trkpt>
      <trkpt lat="45.65734" lon="5.2759">
        <ele>219</ele>
        <time>2020-05-16T14:34:58.012Z</time>
      </trkpt>
      <trkpt lat="45.65728" lon="5.27581">
        <ele>219</ele>
        <time>2020-05-16T14:34:59.012Z</time>
      </trkpt>
      <trkpt lat="45.65723" lon="5.27573">
        <ele>219</ele>
        <time>2020-05-16T14:35:00.012Z</time>
      </trkpt>
      <trkpt lat="45.65718" lon="5.27564">
        <ele>219</ele>
        <time>2020-05-16T14:35:01.012Z</time>
      </trkpt>
      <trkpt lat="45.65713" lon="5.27556">
        <ele>219</ele>
        <time>2020-05-16T14:35:02.012Z</time>
      </trkpt>
      <trkpt lat="45.65709" lon="5.27548">
        <ele>219</ele>
        <time>2020-05-16T14:35:03.012Z</time>
      </trkpt>
      <trkpt lat="45.65704" lon="5.2754">
        <ele>219</ele>
        <time>2020-05-16T14:35:04.012Z</time>
      </trkpt>
      <trkpt lat="45.65699" lon="5.27531">
        <ele>219</ele>
        <time>2020-05-16T14:35:05.012Z</time>
      </trkpt>
      <trkpt lat="45.65694" lon="5.27523">
        <ele>219</ele>
        <time>2020-05-16T14:35:06.012Z</time>
      </trkpt>
      <trkpt lat="45.65689" lon="5.27515">
        <ele>219</ele>
        <time>2020-05-16T14:35:07.012Z</time>
      </trkpt>
      <trkpt lat="45.65684" lon="5.27507">
        <ele>219</ele>
        <time>2020-05-16T14:35:08.012Z</time>
      </trkpt>
      <trkpt lat="45.65679" lon="5.27499">
        <ele>219</ele>
        <time>2020-05-16T14:35:09.012Z</time>
      </trkpt>
      <trkpt lat="45.65674" lon="5.27491">
        <ele>219</ele>
        <time>2020-05-16T14:35:10.012Z</time>
      </trkpt>
      <trkpt lat="45.65669" lon="5.27483">
        <ele>219</ele>
        <time>2020-05-16T14:35:11.012Z</time>
      </trkpt>
      <trkpt lat="45.65664" lon="5.27474">
        <ele>219</ele>
        <time>2020-05-16T14:35:12.012Z</time>
      </trkpt>
      <trkpt lat="45.6566" lon="5.27465">
        <ele>219</ele>
        <time>2020-05-16T14:35:13.012Z</time>
      </trkpt>
      <trkpt lat="45.65656" lon="5.27456">
        <ele>219</ele>
        <time>2020-05-16T14:35:14.012Z</time>
      </trkpt>
      <trkpt lat="45.65652" lon="5.27447">
        <ele>219</ele>
        <time>2020-05-16T14:35:15.012Z</time>
      </trkpt>
      <trkpt lat="45.65648" lon="5.27438">
        <ele>219</ele>
        <time>2020-05-16T14:35:16.012Z</time>
      </trkpt>
      <trkpt lat="45.65645" lon="5.27429">
        <ele>219</ele>
        <time>2020-05-16T14:35:17.012Z</time>
      </trkpt>
      <trkpt lat="45.65642" lon="5.27419">
        <ele>220</ele>
        <time>2020-05-16T14:35:18.012Z</time>
      </trkpt>
      <trkpt lat="45.65639" lon="5.2741">
        <ele>220</ele>
        <time>2020-05-16T14:35:19.012Z</time>
      </trkpt>
      <trkpt lat="45.65637" lon="5.27401">
        <ele>220</ele>
        <time>2020-05-16T14:35:20.012Z</time>
      </trkpt>
      <trkpt lat="45.65635" lon="5.27392">
        <ele>220</ele>
        <time>2020-05-16T14:35:21.012Z</time>
      </trkpt>
      <trkpt lat="45.65633" lon="5.27383">
        <ele>221</ele>
        <time>2020-05-16T14:35:22.012Z</time>
      </trkpt>
      <trkpt lat="45.6563" lon="5.27374">
        <ele>221</ele>
        <time>2020-05-16T14:35:23.012Z</time>
      </trkpt>
      <trkpt lat="45.65628" lon="5.27365">
        <ele>221</ele>
        <time>2020-05-16T14:35:24.012Z</time>
      </trkpt>
      <trkpt lat="45.65626" lon="5.27356">
        <ele>222</ele>
        <time>2020-05-16T14:35:25.012Z</time>
      </trkpt>
      <trkpt lat="45.65624" lon="5.27348">
        <ele>221</ele>
        <time>2020-05-16T14:35:26.012Z</time>
      </trkpt>
      <trkpt lat="45.65621" lon="5.27339">
        <ele>221</ele>
        <time>2020-05-16T14:35:27.012Z</time>
      </trkpt>
      <trkpt lat="45.65618" lon="5.27331">
        <ele>221</ele>
        <time>2020-05-16T14:35:28.012Z</time>
      </trkpt>
      <trkpt lat="45.65614" lon="5.27323">
        <ele>221</ele>
        <time>2020-05-16T14:35:29.012Z</time>
      </trkpt>
      <trkpt lat="45.65611" lon="5.27315">
        <ele>221</ele>
        <time>2020-05-16T14:35:30.012Z</time>
      </trkpt>
      <trkpt lat="45.65607" lon="5.27307">
        <ele>221</ele>
        <time>2020-05-16T14:35:31.012Z</time>
      </trkpt>
      <trkpt lat="45.65604" lon="5.27298">
        <ele>221</ele>
        <time>2020-05-16T14:35:32.012Z</time>
      </trkpt>
      <trkpt lat="45.656" lon="5.2729">
        <ele>221</ele>
        <time>2020-05-16T14:35:33.012Z</time>
      </trkpt>
      <trkpt lat="45.65596" lon="5.27282">
        <ele>221</ele>
        <time>2020-05-16T14:35:34.012Z</time>
      </trkpt>
      <trkpt lat="45.65592" lon="5.27274">
        <ele>221</ele>
        <time>2020-05-16T14:35:35.012Z</time>
      </trkpt>
      <trkpt lat="45.65588" lon="5.27266">
        <ele>221</ele>
        <time>2020-05-16T14:35:36.012Z</time>
      </trkpt>
      <trkpt lat="45.65584" lon="5.27258">
        <ele>221</ele>
        <time>2020-05-16T14:35:37.012Z</time>
      </trkpt>
      <trkpt lat="45.6558" lon="5.2725">
        <ele>221</ele>
        <time>2020-05-16T14:35:38.012Z</time>
      </trkpt>
      <trkpt lat="45.65576" lon="5.27242">
        <ele>221</ele>
        <time>2020-05-16T14:35:39.012Z</time>
      </trkpt>
      <trkpt lat="45.65572" lon="5.27234">
        <ele>221</ele>
        <time>2020-05-16T14:35:40.012Z</time>
      </trkpt>
      <trkpt lat="45.65569" lon="5.27226">
        <ele>221</ele>
        <time>2020-05-16T14:35:41.012Z</time>
      </trkpt>
      <trkpt lat="45.65565" lon="5.27219">
        <ele>221</ele>
        <time>2020-05-16T14:35:42.012Z</time>
      </trkpt>
      <trkpt lat="45.65561" lon="5.2721">
        <ele>221</ele>
        <time>2020-05-16T14:35:43.012Z</time>
      </trkpt>
      <trkpt lat="45.65559" lon="5.27202">
        <ele>220</ele>
        <time>2020-05-16T14:35:44.012Z</time>
      </trkpt>
      <trkpt lat="45.65556" lon="5.27192">
        <ele>220</ele>
        <time>2020-05-16T14:35:45.012Z</time>
      </trkpt>
      <trkpt lat="45.65554" lon="5.27183">
        <ele>220</ele>
        <time>2020-05-16T14:35:46.012Z</time>
      </trkpt>
      <trkpt lat="45.65551" lon="5.27174">
        <ele>220</ele>
        <time>2020-05-16T14:35:47.012Z</time>
      </trkpt>
      <trkpt lat="45.65549" lon="5.27164">
        <ele>220</ele>
        <time>2020-05-16T14:35:48.012Z</time>
      </trkpt>
      <trkpt lat="45.65546" lon="5.27155">
        <ele>220</ele>
        <time>2020-05-16T14:35:49.012Z</time>
      </trkpt>
      <trkpt lat="45.65543" lon="5.27145">
        <ele>220</ele>
        <time>2020-05-16T14:35:50.012Z</time>
      </trkpt>
      <trkpt lat="45.6554" lon="5.27136">
        <ele>220</ele>
        <time>2020-05-16T14:35:51.012Z</time>
      </trkpt>
      <trkpt lat="45.65537" lon="5.27126">
        <ele>220</ele>
        <time>2020-05-16T14:35:52.012Z</time>
      </trkpt>
      <trkpt lat="45.65534" lon="5.27116">
        <ele>220</ele>
        <time>2020-05-16T14:35:53.012Z</time>
      </trkpt>
      <trkpt lat="45.65531" lon="5.27107">
        <ele>220</ele>
        <time>2020-05-16T14:35:54.012Z</time>
      </trkpt>
      <trkpt lat="45.65527" lon="5.27098">
        <ele>220</ele>
        <time>2020-05-16T14:35:55.012Z</time>
      </trkpt>
      <trkpt lat="45.65523" lon="5.2709">
        <ele>220</ele>
        <time>2020-05-16T14:35:56.012Z</time>
      </trkpt>
      <trkpt lat="45.65519" lon="5.27081">
        <ele>220</ele>
        <time>2020-05-16T14:35:57.012Z</time>
      </trkpt>
      <trkpt lat="45.65514" lon="5.27073">
        <ele>220</ele>
        <time>2020-05-16T14:35:58.012Z</time>
      </trkpt>
      <trkpt lat="45.6551" lon="5.27064">
        <ele>220</ele>
        <time>2020-05-16T14:35:59.012Z</time>
      </trkpt>
      <trkpt lat="45.65505" lon="5.27056">
        <ele>220</ele>
        <time>2020-05-16T14:36:00.012Z</time>
      </trkpt>
      <trkpt lat="45.655" lon="5.27047">
        <ele>220</ele>
        <time>2020-05-16T14:36:01.012Z</time>
      </trkpt>
      <trkpt lat="45.65496" lon="5.27039">
        <ele>220</ele>
        <time>2020-05-16T14:36:02.012Z</time>
      </trkpt>
      <trkpt lat="45.65491" lon="5.2703">
        <ele>219</ele>
        <time>2020-05-16T14:36:03.012Z</time>
      </trkpt>
      <trkpt lat="45.65487" lon="5.27021">
        <ele>219</ele>
        <time>2020-05-16T14:36:04.012Z</time>
      </trkpt>
      <trkpt lat="45.65482" lon="5.27012">
        <ele>219</ele>
        <time>2020-05-16T14:36:05.012Z</time>
      </trkpt>
      <trkpt lat="45.65478" lon="5.27003">
        <ele>219</ele>
        <time>2020-05-16T14:36:06.012Z</time>
      </trkpt>
      <trkpt lat="45.65474" lon="5.26994">
        <ele>219</ele>
        <time>2020-05-16T14:36:07.012Z</time>
      </trkpt>
      <trkpt lat="45.65469" lon="5.26985">
        <ele>219</ele>
        <time>2020-05-16T14:36:08.012Z</time>
      </trkpt>
      <trkpt lat="45.65465" lon="5.26977">
        <ele>219</ele>
        <time>2020-05-16T14:36:09.012Z</time>
      </trkpt>
      <trkpt lat="45.6546" lon="5.26968">
        <ele>219</ele>
        <time>2020-05-16T14:36:10.012Z</time>
      </trkpt>
      <trkpt lat="45.65455" lon="5.2696">
        <ele>219</ele>
        <time>2020-05-16T14:36:11.012Z</time>
      </trkpt>
      <trkpt lat="45.6545" lon="5.26952">
        <ele>219</ele>
        <time>2020-05-16T14:36:12.012Z</time>
      </trkpt>
      <trkpt lat="45.65445" lon="5.26944">
        <ele>220</ele>
        <time>2020-05-16T14:36:13.012Z</time>
      </trkpt>
      <trkpt lat="45.65441" lon="5.26936">
        <ele>220</ele>
        <time>2020-05-16T14:36:14.012Z</time>
      </trkpt>
      <trkpt lat="45.65436" lon="5.26928">
        <ele>220</ele>
        <time>2020-05-16T14:36:15.012Z</time>
      </trkpt>
      <trkpt lat="45.65431" lon="5.26921">
        <ele>220</ele>
        <time>2020-05-16T14:36:16.012Z</time>
      </trkpt>
      <trkpt lat="45.65427" lon="5.26913">
        <ele>220</ele>
        <time>2020-05-16T14:36:17.012Z</time>
      </trkpt>
      <trkpt lat="45.65422" lon="5.26906">
        <ele>220</ele>
        <time>2020-05-16T14:36:18.012Z</time>
      </trkpt>
      <trkpt lat="45.65417" lon="5.26899">
        <ele>220</ele>
        <time>2020-05-16T14:36:19.012Z</time>
      </trkpt>
      <trkpt lat="45.65412" lon="5.26891">
        <ele>220</ele>
        <time>2020-05-16T14:36:20.012Z</time>
      </trkpt>
      <trkpt lat="45.65407" lon="5.26884">
        <ele>220</ele>
        <time>2020-05-16T14:36:21.012Z</time>
      </trkpt>
      <trkpt lat="45.65402" lon="5.26878">
        <ele>220</ele>
        <time>2020-05-16T14:36:22.012Z</time>
      </trkpt>
      <trkpt lat="45.65397" lon="5.26871">
        <ele>220</ele>
        <time>2020-05-16T14:36:23.012Z</time>
      </trkpt>
      <trkpt lat="45.65392" lon="5.26864">
        <ele>220</ele>
        <time>2020-05-16T14:36:24.012Z</time>
      </trkpt>
      <trkpt lat="45.65387" lon="5.26858">
        <ele>220</ele>
        <time>2020-05-16T14:36:25.012Z</time>
      </trkpt>
      <trkpt lat="45.65382" lon="5.26851">
        <ele>220</ele>
        <time>2020-05-16T14:36:26.012Z</time>
      </trkpt>
      <trkpt lat="45.65377" lon="5.26844">
        <ele>220</ele>
        <time>2020-05-16T14:36:27.012Z</time>
      </trkpt>
      <trkpt lat="45.65371" lon="5.26837">
        <ele>220</ele>
        <time>2020-05-16T14:36:28.012Z</time>
      </trkpt>
      <trkpt lat="45.65366" lon="5.2683">
        <ele>219</ele>
        <time>2020-05-16T14:36:29.012Z</time>
      </trkpt>
      <trkpt lat="45.6536" lon="5.26823">
        <ele>219</ele>
        <time>2020-05-16T14:36:30.012Z</time>
      </trkpt>
      <trkpt lat="45.65355" lon="5.26815">
        <ele>219</ele>
        <time>2020-05-16T14:36:31.012Z</time>
      </trkpt>
      <trkpt lat="45.65349" lon="5.26807">
        <ele>218</ele>
        <time>2020-05-16T14:36:32.012Z</time>
      </trkpt>
      <trkpt lat="45.65344" lon="5.26799">
        <ele>218</ele>
        <time>2020-05-16T14:36:33.012Z</time>
      </trkpt>
      <trkpt lat="45.65339" lon="5.26791">
        <ele>218</ele>
        <time>2020-05-16T14:36:34.012Z</time>
      </trkpt>
      <trkpt lat="45.65333" lon="5.26782">
        <ele>218</ele>
        <time>2020-05-16T14:36:35.012Z</time>
      </trkpt>
      <trkpt lat="45.65328" lon="5.26773">
        <ele>218</ele>
        <time>2020-05-16T14:36:36.012Z</time>
      </trkpt>
      <trkpt lat="45.65322" lon="5.26763">
        <ele>218</ele>
        <time>2020-05-16T14:36:37.012Z</time>
      </trkpt>
      <trkpt lat="45.65317" lon="5.26754">
        <ele>218</ele>
        <time>2020-05-16T14:36:38.012Z</time>
      </trkpt>
      <trkpt lat="45.65312" lon="5.26744">
        <ele>218</ele>
        <time>2020-05-16T14:36:39.012Z</time>
      </trkpt>
      <trkpt lat="45.65308" lon="5.26734">
        <ele>218</ele>
        <time>2020-05-16T14:36:40.012Z</time>
      </trkpt>
      <trkpt lat="45.65303" lon="5.26724">
        <ele>218</ele>
        <time>2020-05-16T14:36:41.012Z</time>
      </trkpt>
      <trkpt lat="45.65298" lon="5.26715">
        <ele>218</ele>
        <time>2020-05-16T14:36:42.012Z</time>
      </trkpt>
      <trkpt lat="45.65294" lon="5.26705">
        <ele>218</ele>
        <time>2020-05-16T14:36:43.012Z</time>
      </trkpt>
      <trkpt lat="45.65289" lon="5.26696">
        <ele>219</ele>
        <time>2020-05-16T14:36:44.012Z</time>
      </trkpt>
      <trkpt lat="45.65285" lon="5.26686">
        <ele>219</ele>
        <time>2020-05-16T14:36:45.012Z</time>
      </trkpt>
      <trkpt lat="45.6528" lon="5.26676">
        <ele>218</ele>
        <time>2020-05-16T14:36:46.012Z</time>
      </trkpt>
      <trkpt lat="45.65276" lon="5.26667">
        <ele>218</ele>
        <time>2020-05-16T14:36:47.012Z</time>
      </trkpt>
      <trkpt lat="45.65271" lon="5.26657">
        <ele>218</ele>
        <time>2020-05-16T14:36:48.012Z</time>
      </trkpt>
      <trkpt lat="45.65267" lon="5.26648">
        <ele>219</ele>
        <time>2020-05-16T14:36:49.012Z</time>
      </trkpt>
      <trkpt lat="45.65262" lon="5.26639">
        <ele>218</ele>
        <time>2020-05-16T14:36:50.012Z</time>
      </trkpt>
      <trkpt lat="45.65258" lon="5.26629">
        <ele>218</ele>
        <time>2020-05-16T14:36:51.012Z</time>
      </trkpt>
      <trkpt lat="45.65253" lon="5.2662">
        <ele>219</ele>
        <time>2020-05-16T14:36:52.012Z</time>
      </trkpt>
      <trkpt lat="45.65249" lon="5.26611">
        <ele>218</ele>
        <time>2020-05-16T14:36:53.012Z</time>
      </trkpt>
      <trkpt lat="45.65244" lon="5.26601">
        <ele>218</ele>
        <time>2020-05-16T14:36:54.012Z</time>
      </trkpt>
      <trkpt lat="45.6524" lon="5.26592">
        <ele>218</ele>
        <time>2020-05-16T14:36:55.012Z</time>
      </trkpt>
      <trkpt lat="45.65236" lon="5.26583">
        <ele>218</ele>
        <time>2020-05-16T14:36:56.012Z</time>
      </trkpt>
      <trkpt lat="45.65231" lon="5.26573">
        <ele>218</ele>
        <time>2020-05-16T14:36:57.012Z</time>
      </trkpt>
      <trkpt lat="45.65227" lon="5.26564">
        <ele>218</ele>
        <time>2020-05-16T14:36:58.012Z</time>
      </trkpt>
      <trkpt lat="45.65222" lon="5.26555">
        <ele>219</ele>
        <time>2020-05-16T14:36:59.012Z</time>
      </trkpt>
      <trkpt lat="45.65218" lon="5.26546">
        <ele>219</ele>
        <time>2020-05-16T14:37:00.012Z</time>
      </trkpt>
      <trkpt lat="45.65214" lon="5.26536">
        <ele>219</ele>
        <time>2020-05-16T14:37:01.012Z</time>
      </trkpt>
      <trkpt lat="45.6521" lon="5.26527">
        <ele>219</ele>
        <time>2020-05-16T14:37:02.012Z</time>
      </trkpt>
      <trkpt lat="45.65206" lon="5.26517">
        <ele>219</ele>
        <time>2020-05-16T14:37:03.012Z</time>
      </trkpt>
      <trkpt lat="45.65203" lon="5.26507">
        <ele>219</ele>
        <time>2020-05-16T14:37:04.012Z</time>
      </trkpt>
      <trkpt lat="45.65199" lon="5.26497">
        <ele>219</ele>
        <time>2020-05-16T14:37:05.012Z</time>
      </trkpt>
      <trkpt lat="45.65196" lon="5.26488">
        <ele>219</ele>
        <time>2020-05-16T14:37:06.012Z</time>
      </trkpt>
      <trkpt lat="45.65193" lon="5.26478">
        <ele>219</ele>
        <time>2020-05-16T14:37:07.012Z</time>
      </trkpt>
      <trkpt lat="45.6519" lon="5.26468">
        <ele>219</ele>
        <time>2020-05-16T14:37:08.012Z</time>
      </trkpt>
      <trkpt lat="45.65188" lon="5.26458">
        <ele>219</ele>
        <time>2020-05-16T14:37:09.012Z</time>
      </trkpt>
      <trkpt lat="45.65186" lon="5.26447">
        <ele>219</ele>
        <time>2020-05-16T14:37:10.012Z</time>
      </trkpt>
      <trkpt lat="45.65184" lon="5.26437">
        <ele>219</ele>
        <time>2020-05-16T14:37:11.012Z</time>
      </trkpt>
      <trkpt lat="45.65183" lon="5.26427">
        <ele>219</ele>
        <time>2020-05-16T14:37:12.012Z</time>
      </trkpt>
      <trkpt lat="45.65181" lon="5.26416">
        <ele>219</ele>
        <time>2020-05-16T14:37:13.012Z</time>
      </trkpt>
      <trkpt lat="45.65181" lon="5.26405">
        <ele>219</ele>
        <time>2020-05-16T14:37:14.012Z</time>
      </trkpt>
      <trkpt lat="45.6518" lon="5.26395">
        <ele>220</ele>
        <time>2020-05-16T14:37:15.012Z</time>
      </trkpt>
      <trkpt lat="45.6518" lon="5.26384">
        <ele>220</ele>
        <time>2020-05-16T14:37:16.012Z</time>
      </trkpt>
      <trkpt lat="45.6518" lon="5.26374">
        <ele>220</ele>
        <time>2020-05-16T14:37:17.012Z</time>
      </trkpt>
      <trkpt lat="45.65179" lon="5.26364">
        <ele>220</ele>
        <time>2020-05-16T14:37:18.012Z</time>
      </trkpt>
      <trkpt lat="45.65179" lon="5.26354">
        <ele>221</ele>
        <time>2020-05-16T14:37:19.012Z</time>
      </trkpt>
      <trkpt lat="45.65178" lon="5.26344">
        <ele>221</ele>
        <time>2020-05-16T14:37:20.012Z</time>
      </trkpt>
      <trkpt lat="45.65178" lon="5.26334">
        <ele>221</ele>
        <time>2020-05-16T14:37:21.012Z</time>
      </trkpt>
      <trkpt lat="45.65178" lon="5.26324">
        <ele>221</ele>
        <time>2020-05-16T14:37:22.012Z</time>
      </trkpt>
      <trkpt lat="45.65177" lon="5.26315">
        <ele>222</ele>
        <time>2020-05-16T14:37:23.012Z</time>
      </trkpt>
      <trkpt lat="45.65177" lon="5.26306">
        <ele>222</ele>
        <time>2020-05-16T14:37:24.012Z</time>
      </trkpt>
      <trkpt lat="45.65177" lon="5.26296">
        <ele>222</ele>
        <time>2020-05-16T14:37:25.012Z</time>
      </trkpt>
      <trkpt lat="45.65176" lon="5.26287">
        <ele>222</ele>
        <time>2020-05-16T14:37:26.012Z</time>
      </trkpt>
      <trkpt lat="45.65176" lon="5.26278">
        <ele>222</ele>
        <time>2020-05-16T14:37:27.012Z</time>
      </trkpt>
      <trkpt lat="45.65176" lon="5.26269">
        <ele>222</ele>
        <time>2020-05-16T14:37:28.012Z</time>
      </trkpt>
      <trkpt lat="45.65175" lon="5.26259">
        <ele>222</ele>
        <time>2020-05-16T14:37:29.012Z</time>
      </trkpt>
      <trkpt lat="45.65175" lon="5.2625">
        <ele>223</ele>
        <time>2020-05-16T14:37:30.012Z</time>
      </trkpt>
      <trkpt lat="45.65175" lon="5.26241">
        <ele>223</ele>
        <time>2020-05-16T14:37:31.012Z</time>
      </trkpt>
      <trkpt lat="45.65174" lon="5.26232">
        <ele>223</ele>
        <time>2020-05-16T14:37:32.012Z</time>
      </trkpt>
      <trkpt lat="45.65174" lon="5.26222">
        <ele>223</ele>
        <time>2020-05-16T14:37:33.012Z</time>
      </trkpt>
      <trkpt lat="45.65173" lon="5.26213">
        <ele>223</ele>
        <time>2020-05-16T14:37:34.012Z</time>
      </trkpt>
      <trkpt lat="45.65173" lon="5.26204">
        <ele>223</ele>
        <time>2020-05-16T14:37:35.012Z</time>
      </trkpt>
      <trkpt lat="45.65172" lon="5.26194">
        <ele>222</ele>
        <time>2020-05-16T14:37:36.012Z</time>
      </trkpt>
      <trkpt lat="45.65171" lon="5.26185">
        <ele>222</ele>
        <time>2020-05-16T14:37:37.012Z</time>
      </trkpt>
      <trkpt lat="45.6517" lon="5.26176">
        <ele>222</ele>
        <time>2020-05-16T14:37:38.012Z</time>
      </trkpt>
      <trkpt lat="45.65169" lon="5.26167">
        <ele>222</ele>
        <time>2020-05-16T14:37:39.012Z</time>
      </trkpt>
      <trkpt lat="45.65168" lon="5.26158">
        <ele>222</ele>
        <time>2020-05-16T14:37:40.012Z</time>
      </trkpt>
      <trkpt lat="45.65167" lon="5.26148">
        <ele>221</ele>
        <time>2020-05-16T14:37:41.012Z</time>
      </trkpt>
      <trkpt lat="45.65165" lon="5.26137">
        <ele>221</ele>
        <time>2020-05-16T14:37:42.012Z</time>
      </trkpt>
      <trkpt lat="45.65163" lon="5.26126">
        <ele>221</ele>
        <time>2020-05-16T14:37:43.012Z</time>
      </trkpt>
      <trkpt lat="45.65162" lon="5.26115">
        <ele>221</ele>
        <time>2020-05-16T14:37:44.012Z</time>
      </trkpt>
      <trkpt lat="45.6516" lon="5.26104">
        <ele>221</ele>
        <time>2020-05-16T14:37:45.012Z</time>
      </trkpt>
      <trkpt lat="45.65157" lon="5.26092">
        <ele>221</ele>
        <time>2020-05-16T14:37:46.012Z</time>
      </trkpt>
      <trkpt lat="45.65155" lon="5.26081">
        <ele>221</ele>
        <time>2020-05-16T14:37:47.012Z</time>
      </trkpt>
      <trkpt lat="45.65152" lon="5.2607">
        <ele>220</ele>
        <time>2020-05-16T14:37:48.012Z</time>
      </trkpt>
      <trkpt lat="45.65149" lon="5.26058">
        <ele>220</ele>
        <time>2020-05-16T14:37:49.012Z</time>
      </trkpt>
      <trkpt lat="45.65146" lon="5.26047">
        <ele>220</ele>
        <time>2020-05-16T14:37:50.012Z</time>
      </trkpt>
      <trkpt lat="45.65143" lon="5.26036">
        <ele>220</ele>
        <time>2020-05-16T14:37:51.012Z</time>
      </trkpt>
      <trkpt lat="45.6514" lon="5.26025">
        <ele>220</ele>
        <time>2020-05-16T14:37:52.012Z</time>
      </trkpt>
      <trkpt lat="45.65136" lon="5.26015">
        <ele>219</ele>
        <time>2020-05-16T14:37:53.012Z</time>
      </trkpt>
      <trkpt lat="45.65132" lon="5.26004">
        <ele>220</ele>
        <time>2020-05-16T14:37:54.012Z</time>
      </trkpt>
      <trkpt lat="45.65129" lon="5.25994">
        <ele>219</ele>
        <time>2020-05-16T14:37:55.012Z</time>
      </trkpt>
      <trkpt lat="45.65125" lon="5.25983">
        <ele>219</ele>
        <time>2020-05-16T14:37:56.012Z</time>
      </trkpt>
      <trkpt lat="45.65121" lon="5.25973">
        <ele>219</ele>
        <time>2020-05-16T14:37:57.012Z</time>
      </trkpt>
      <trkpt lat="45.65117" lon="5.25963">
        <ele>219</ele>
        <time>2020-05-16T14:37:58.012Z</time>
      </trkpt>
      <trkpt lat="45.65113" lon="5.25953">
        <ele>219</ele>
        <time>2020-05-16T14:37:59.012Z</time>
      </trkpt>
      <trkpt lat="45.65109" lon="5.25944">
        <ele>219</ele>
        <time>2020-05-16T14:38:00.012Z</time>
      </trkpt>
      <trkpt lat="45.65105" lon="5.25934">
        <ele>219</ele>
        <time>2020-05-16T14:38:01.012Z</time>
      </trkpt>
      <trkpt lat="45.65101" lon="5.25924">
        <ele>218</ele>
        <time>2020-05-16T14:38:02.012Z</time>
      </trkpt>
      <trkpt lat="45.65097" lon="5.25915">
        <ele>218</ele>
        <time>2020-05-16T14:38:03.012Z</time>
      </trkpt>
      <trkpt lat="45.65094" lon="5.25905">
        <ele>218</ele>
        <time>2020-05-16T14:38:04.012Z</time>
      </trkpt>
      <trkpt lat="45.6509" lon="5.25896">
        <ele>218</ele>
        <time>2020-05-16T14:38:05.012Z</time>
      </trkpt>
      <trkpt lat="45.65086" lon="5.25886">
        <ele>218</ele>
        <time>2020-05-16T14:38:06.012Z</time>
      </trkpt>
      <trkpt lat="45.65083" lon="5.25877">
        <ele>218</ele>
        <time>2020-05-16T14:38:07.012Z</time>
      </trkpt>
      <trkpt lat="45.65079" lon="5.25867">
        <ele>218</ele>
        <time>2020-05-16T14:38:08.012Z</time>
      </trkpt>
      <trkpt lat="45.65075" lon="5.25858">
        <ele>218</ele>
        <time>2020-05-16T14:38:09.012Z</time>
      </trkpt>
      <trkpt lat="45.65071" lon="5.25848">
        <ele>218</ele>
        <time>2020-05-16T14:38:10.012Z</time>
      </trkpt>
      <trkpt lat="45.65068" lon="5.25838">
        <ele>218</ele>
        <time>2020-05-16T14:38:11.012Z</time>
      </trkpt>
      <trkpt lat="45.65064" lon="5.25828">
        <ele>217</ele>
        <time>2020-05-16T14:38:12.012Z</time>
      </trkpt>
      <trkpt lat="45.6506" lon="5.25818">
        <ele>217</ele>
        <time>2020-05-16T14:38:13.012Z</time>
      </trkpt>
      <trkpt lat="45.65056" lon="5.25808">
        <ele>217</ele>
        <time>2020-05-16T14:38:14.012Z</time>
      </trkpt>
      <trkpt lat="45.65051" lon="5.25798">
        <ele>217</ele>
        <time>2020-05-16T14:38:15.012Z</time>
      </trkpt>
      <trkpt lat="45.65047" lon="5.25789">
        <ele>218</ele>
        <time>2020-05-16T14:38:16.012Z</time>
      </trkpt>
      <trkpt lat="45.65043" lon="5.25779">
        <ele>217</ele>
        <time>2020-05-16T14:38:17.012Z</time>
      </trkpt>
      <trkpt lat="45.65039" lon="5.2577">
        <ele>217</ele>
        <time>2020-05-16T14:38:18.012Z</time>
      </trkpt>
      <trkpt lat="45.65035" lon="5.2576">
        <ele>217</ele>
        <time>2020-05-16T14:38:19.012Z</time>
      </trkpt>
      <trkpt lat="45.65031" lon="5.25751">
        <ele>217</ele>
        <time>2020-05-16T14:38:20.012Z</time>
      </trkpt>
      <trkpt lat="45.65027" lon="5.25741">
        <ele>217</ele>
        <time>2020-05-16T14:38:21.012Z</time>
      </trkpt>
      <trkpt lat="45.65024" lon="5.25732">
        <ele>216</ele>
        <time>2020-05-16T14:38:22.012Z</time>
      </trkpt>
      <trkpt lat="45.6502" lon="5.25722">
        <ele>216</ele>
        <time>2020-05-16T14:38:23.012Z</time>
      </trkpt>
      <trkpt lat="45.65017" lon="5.25712">
        <ele>216</ele>
        <time>2020-05-16T14:38:24.012Z</time>
      </trkpt>
      <trkpt lat="45.65014" lon="5.25702">
        <ele>216</ele>
        <time>2020-05-16T14:38:25.012Z</time>
      </trkpt>
      <trkpt lat="45.65011" lon="5.25691">
        <ele>216</ele>
        <time>2020-05-16T14:38:26.012Z</time>
      </trkpt>
      <trkpt lat="45.65008" lon="5.25681">
        <ele>215</ele>
        <time>2020-05-16T14:38:27.012Z</time>
      </trkpt>
      <trkpt lat="45.65005" lon="5.2567">
        <ele>215</ele>
        <time>2020-05-16T14:38:28.012Z</time>
      </trkpt>
      <trkpt lat="45.65003" lon="5.25659">
        <ele>216</ele>
        <time>2020-05-16T14:38:29.012Z</time>
      </trkpt>
      <trkpt lat="45.65" lon="5.25648">
        <ele>216</ele>
        <time>2020-05-16T14:38:30.012Z</time>
      </trkpt>
      <trkpt lat="45.64997" lon="5.25638">
        <ele>216</ele>
        <time>2020-05-16T14:38:31.012Z</time>
      </trkpt>
      <trkpt lat="45.64995" lon="5.25627">
        <ele>216</ele>
        <time>2020-05-16T14:38:32.012Z</time>
      </trkpt>
      <trkpt lat="45.64993" lon="5.25617">
        <ele>217</ele>
        <time>2020-05-16T14:38:33.012Z</time>
      </trkpt>
      <trkpt lat="45.64991" lon="5.25607">
        <ele>218</ele>
        <time>2020-05-16T14:38:34.012Z</time>
      </trkpt>
      <trkpt lat="45.64989" lon="5.25597">
        <ele>218</ele>
        <time>2020-05-16T14:38:35.012Z</time>
      </trkpt>
      <trkpt lat="45.64987" lon="5.25587">
        <ele>218</ele>
        <time>2020-05-16T14:38:36.012Z</time>
      </trkpt>
      <trkpt lat="45.64986" lon="5.25577">
        <ele>218</ele>
        <time>2020-05-16T14:38:37.012Z</time>
      </trkpt>
      <trkpt lat="45.64984" lon="5.25567">
        <ele>218</ele>
        <time>2020-05-16T14:38:38.012Z</time>
      </trkpt>
      <trkpt lat="45.64983" lon="5.25556">
        <ele>218</ele>
        <time>2020-05-16T14:38:39.012Z</time>
      </trkpt>
      <trkpt lat="45.64983" lon="5.25546">
        <ele>218</ele>
        <time>2020-05-16T14:38:40.012Z</time>
      </trkpt>
      <trkpt lat="45.64982" lon="5.25535">
        <ele>218</ele>
        <time>2020-05-16T14:38:41.012Z</time>
      </trkpt>
      <trkpt lat="45.64982" lon="5.25524">
        <ele>218</ele>
        <time>2020-05-16T14:38:42.012Z</time>
      </trkpt>
      <trkpt lat="45.64981" lon="5.25513">
        <ele>219</ele>
        <time>2020-05-16T14:38:43.012Z</time>
      </trkpt>
      <trkpt lat="45.64981" lon="5.25502">
        <ele>219</ele>
        <time>2020-05-16T14:38:44.012Z</time>
      </trkpt>
      <trkpt lat="45.64981" lon="5.25492">
        <ele>219</ele>
        <time>2020-05-16T14:38:45.012Z</time>
      </trkpt>
      <trkpt lat="45.64982" lon="5.25482">
        <ele>220</ele>
        <time>2020-05-16T14:38:46.012Z</time>
      </trkpt>
      <trkpt lat="45.64983" lon="5.25472">
        <ele>219</ele>
        <time>2020-05-16T14:38:47.012Z</time>
      </trkpt>
      <trkpt lat="45.64983" lon="5.25462">
        <ele>219</ele>
        <time>2020-05-16T14:38:48.012Z</time>
      </trkpt>
      <trkpt lat="45.64984" lon="5.25452">
        <ele>219</ele>
        <time>2020-05-16T14:38:49.012Z</time>
      </trkpt>
      <trkpt lat="45.64985" lon="5.25442">
        <ele>219</ele>
        <time>2020-05-16T14:38:50.012Z</time>
      </trkpt>
      <trkpt lat="45.64987" lon="5.25432">
        <ele>219</ele>
        <time>2020-05-16T14:38:51.012Z</time>
      </trkpt>
      <trkpt lat="45.64988" lon="5.25422">
        <ele>219</ele>
        <time>2020-05-16T14:38:52.012Z</time>
      </trkpt>
      <trkpt lat="45.6499" lon="5.25411">
        <ele>219</ele>
        <time>2020-05-16T14:38:53.012Z</time>
      </trkpt>
      <trkpt lat="45.64992" lon="5.254">
        <ele>219</ele>
        <time>2020-05-16T14:38:54.012Z</time>
      </trkpt>
      <trkpt lat="45.64993" lon="5.2539">
        <ele>219</ele>
        <time>2020-05-16T14:38:55.012Z</time>
      </trkpt>
      <trkpt lat="45.64995" lon="5.25379">
        <ele>219</ele>
        <time>2020-05-16T14:38:56.012Z</time>
      </trkpt>
      <trkpt lat="45.64998" lon="5.25369">
        <ele>219</ele>
        <time>2020-05-16T14:38:57.012Z</time>
      </trkpt>
      <trkpt lat="45.65" lon="5.25359">
        <ele>219</ele>
        <time>2020-05-16T14:38:58.012Z</time>
      </trkpt>
      <trkpt lat="45.65002" lon="5.2535">
        <ele>219</ele>
        <time>2020-05-16T14:38:59.012Z</time>
      </trkpt>
      <trkpt lat="45.65004" lon="5.25341">
        <ele>219</ele>
        <time>2020-05-16T14:39:00.012Z</time>
      </trkpt>
      <trkpt lat="45.65007" lon="5.25332">
        <ele>218</ele>
        <time>2020-05-16T14:39:01.012Z</time>
      </trkpt>
      <trkpt lat="45.65009" lon="5.25323">
        <ele>218</ele>
        <time>2020-05-16T14:39:02.012Z</time>
      </trkpt>
      <trkpt lat="45.65011" lon="5.25313">
        <ele>219</ele>
        <time>2020-05-16T14:39:03.012Z</time>
      </trkpt>
      <trkpt lat="45.65014" lon="5.25304">
        <ele>218</ele>
        <time>2020-05-16T14:39:04.012Z</time>
      </trkpt>
      <trkpt lat="45.65016" lon="5.25295">
        <ele>219</ele>
        <time>2020-05-16T14:39:05.012Z</time>
      </trkpt>
      <trkpt lat="45.65018" lon="5.25286">
        <ele>219</ele>
        <time>2020-05-16T14:39:06.012Z</time>
      </trkpt>
      <trkpt lat="45.65021" lon="5.25277">
        <ele>219</ele>
        <time>2020-05-16T14:39:07.012Z</time>
      </trkpt>
      <trkpt lat="45.65023" lon="5.25268">
        <ele>219</ele>
        <time>2020-05-16T14:39:08.012Z</time>
      </trkpt>
      <trkpt lat="45.65025" lon="5.25258">
        <ele>219</ele>
        <time>2020-05-16T14:39:09.012Z</time>
      </trkpt>
      <trkpt lat="45.65026" lon="5.25249">
        <ele>219</ele>
        <time>2020-05-16T14:39:10.012Z</time>
      </trkpt>
      <trkpt lat="45.65028" lon="5.25239">
        <ele>219</ele>
        <time>2020-05-16T14:39:11.012Z</time>
      </trkpt>
      <trkpt lat="45.65028" lon="5.25229">
        <ele>219</ele>
        <time>2020-05-16T14:39:12.012Z</time>
      </trkpt>
      <trkpt lat="45.65028" lon="5.25219">
        <ele>219</ele>
        <time>2020-05-16T14:39:13.012Z</time>
      </trkpt>
      <trkpt lat="45.65027" lon="5.25209">
        <ele>219</ele>
        <time>2020-05-16T14:39:14.012Z</time>
      </trkpt>
      <trkpt lat="45.65026" lon="5.25199">
        <ele>219</ele>
        <time>2020-05-16T14:39:15.012Z</time>
      </trkpt>
      <trkpt lat="45.65025" lon="5.2519">
        <ele>219</ele>
        <time>2020-05-16T14:39:16.012Z</time>
      </trkpt>
      <trkpt lat="45.65024" lon="5.2518">
        <ele>219</ele>
        <time>2020-05-16T14:39:17.012Z</time>
      </trkpt>
      <trkpt lat="45.65022" lon="5.25171">
        <ele>219</ele>
        <time>2020-05-16T14:39:18.012Z</time>
      </trkpt>
      <trkpt lat="45.6502" lon="5.25161">
        <ele>219</ele>
        <time>2020-05-16T14:39:19.012Z</time>
      </trkpt>
      <trkpt lat="45.65019" lon="5.25152">
        <ele>219</ele>
        <time>2020-05-16T14:39:20.012Z</time>
      </trkpt>
      <trkpt lat="45.65017" lon="5.25143">
        <ele>219</ele>
        <time>2020-05-16T14:39:21.012Z</time>
      </trkpt>
      <trkpt lat="45.65016" lon="5.25134">
        <ele>219</ele>
        <time>2020-05-16T14:39:22.012Z</time>
      </trkpt>
      <trkpt lat="45.65014" lon="5.25125">
        <ele>219</ele>
        <time>2020-05-16T14:39:23.012Z</time>
      </trkpt>
      <trkpt lat="45.65013" lon="5.25116">
        <ele>220</ele>
        <time>2020-05-16T14:39:24.012Z</time>
      </trkpt>
      <trkpt lat="45.6501" lon="5.25108">
        <ele>220</ele>
        <time>2020-05-16T14:39:25.012Z</time>
      </trkpt>
      <trkpt lat="45.65008" lon="5.251">
        <ele>220</ele>
        <time>2020-05-16T14:39:26.012Z</time>
      </trkpt>
      <trkpt lat="45.65004" lon="5.25093">
        <ele>220</ele>
        <time>2020-05-16T14:39:27.012Z</time>
      </trkpt>
      <trkpt lat="45.65001" lon="5.25086">
        <ele>220</ele>
        <time>2020-05-16T14:39:28.012Z</time>
      </trkpt>
      <trkpt lat="45.64998" lon="5.25079">
        <ele>221</ele>
        <time>2020-05-16T14:39:29.012Z</time>
      </trkpt>
      <trkpt lat="45.64995" lon="5.25072">
        <ele>221</ele>
        <time>2020-05-16T14:39:30.012Z</time>
      </trkpt>
      <trkpt lat="45.64992" lon="5.25064">
        <ele>220</ele>
        <time>2020-05-16T14:39:31.012Z</time>
      </trkpt>
      <trkpt lat="45.6499" lon="5.25056">
        <ele>221</ele>
        <time>2020-05-16T14:39:32.012Z</time>
      </trkpt>
      <trkpt lat="45.64989" lon="5.25048">
        <ele>220</ele>
        <time>2020-05-16T14:39:33.012Z</time>
      </trkpt>
      <trkpt lat="45.64987" lon="5.2504">
        <ele>221</ele>
        <time>2020-05-16T14:39:34.012Z</time>
      </trkpt>
      <trkpt lat="45.64986" lon="5.25032">
        <ele>221</ele>
        <time>2020-05-16T14:39:35.012Z</time>
      </trkpt>
      <trkpt lat="45.64984" lon="5.25025">
        <ele>221</ele>
        <time>2020-05-16T14:39:36.012Z</time>
      </trkpt>
      <trkpt lat="45.64982" lon="5.25018">
        <ele>221</ele>
        <time>2020-05-16T14:39:37.012Z</time>
      </trkpt>
      <trkpt lat="45.64981" lon="5.25011">
        <ele>222</ele>
        <time>2020-05-16T14:39:38.012Z</time>
      </trkpt>
      <trkpt lat="45.64979" lon="5.25005">
        <ele>222</ele>
        <time>2020-05-16T14:39:39.012Z</time>
      </trkpt>
      <trkpt lat="45.64977" lon="5.24999">
        <ele>223</ele>
        <time>2020-05-16T14:39:40.012Z</time>
      </trkpt>
      <trkpt lat="45.64976" lon="5.24993">
        <ele>223</ele>
        <time>2020-05-16T14:39:41.012Z</time>
      </trkpt>
      <trkpt lat="45.64974" lon="5.24988">
        <ele>223</ele>
        <time>2020-05-16T14:39:42.012Z</time>
      </trkpt>
      <trkpt lat="45.64972" lon="5.24983">
        <ele>223</ele>
        <time>2020-05-16T14:39:43.012Z</time>
      </trkpt>
      <trkpt lat="45.64969" lon="5.24978">
        <ele>223</ele>
        <time>2020-05-16T14:39:44.012Z</time>
      </trkpt>
      <trkpt lat="45.64966" lon="5.24974">
        <ele>223</ele>
        <time>2020-05-16T14:39:45.012Z</time>
      </trkpt>
      <trkpt lat="45.64963" lon="5.24969">
        <ele>224</ele>
        <time>2020-05-16T14:39:46.012Z</time>
      </trkpt>
      <trkpt lat="45.64959" lon="5.24965">
        <ele>224</ele>
        <time>2020-05-16T14:39:47.012Z</time>
      </trkpt>
      <trkpt lat="45.64955" lon="5.24962">
        <ele>224</ele>
        <time>2020-05-16T14:39:48.012Z</time>
      </trkpt>
      <trkpt lat="45.64951" lon="5.24958">
        <ele>224</ele>
        <time>2020-05-16T14:39:49.012Z</time>
      </trkpt>
      <trkpt lat="45.64946" lon="5.24955">
        <ele>225</ele>
        <time>2020-05-16T14:39:50.012Z</time>
      </trkpt>
      <trkpt lat="45.64942" lon="5.24952">
        <ele>225</ele>
        <time>2020-05-16T14:39:51.012Z</time>
      </trkpt>
      <trkpt lat="45.64937" lon="5.24949">
        <ele>224</ele>
        <time>2020-05-16T14:39:52.012Z</time>
      </trkpt>
      <trkpt lat="45.64933" lon="5.24946">
        <ele>225</ele>
        <time>2020-05-16T14:39:53.012Z</time>
      </trkpt>
      <trkpt lat="45.64928" lon="5.24943">
        <ele>225</ele>
        <time>2020-05-16T14:39:54.012Z</time>
      </trkpt>
      <trkpt lat="45.64923" lon="5.2494">
        <ele>225</ele>
        <time>2020-05-16T14:39:55.012Z</time>
      </trkpt>
      <trkpt lat="45.64919" lon="5.24937">
        <ele>225</ele>
        <time>2020-05-16T14:39:56.012Z</time>
      </trkpt>
      <trkpt lat="45.64914" lon="5.24935">
        <ele>225</ele>
        <time>2020-05-16T14:39:57.012Z</time>
      </trkpt>
      <trkpt lat="45.6491" lon="5.24932">
        <ele>226</ele>
        <time>2020-05-16T14:39:58.012Z</time>
      </trkpt>
      <trkpt lat="45.64905" lon="5.2493">
        <ele>226</ele>
        <time>2020-05-16T14:39:59.012Z</time>
      </trkpt>
      <trkpt lat="45.64901" lon="5.24927">
        <ele>226</ele>
        <time>2020-05-16T14:40:00.012Z</time>
      </trkpt>
      <trkpt lat="45.64896" lon="5.24924">
        <ele>226</ele>
        <time>2020-05-16T14:40:01.012Z</time>
      </trkpt>
      <trkpt lat="45.64892" lon="5.24922">
        <ele>227</ele>
        <time>2020-05-16T14:40:02.012Z</time>
      </trkpt>
      <trkpt lat="45.64887" lon="5.24919">
        <ele>227</ele>
        <time>2020-05-16T14:40:03.012Z</time>
      </trkpt>
      <trkpt lat="45.64883" lon="5.24916">
        <ele>227</ele>
        <time>2020-05-16T14:40:04.012Z</time>
      </trkpt>
      <trkpt lat="45.64878" lon="5.24914">
        <ele>228</ele>
        <time>2020-05-16T14:40:05.012Z</time>
      </trkpt>
      <trkpt lat="45.64874" lon="5.24911">
        <ele>228</ele>
        <time>2020-05-16T14:40:06.012Z</time>
      </trkpt>
      <trkpt lat="45.64869" lon="5.24909">
        <ele>228</ele>
        <time>2020-05-16T14:40:07.012Z</time>
      </trkpt>
      <trkpt lat="45.64865" lon="5.24906">
        <ele>228</ele>
        <time>2020-05-16T14:40:08.012Z</time>
      </trkpt>
      <trkpt lat="45.6486" lon="5.24903">
        <ele>229</ele>
        <time>2020-05-16T14:40:09.012Z</time>
      </trkpt>
      <trkpt lat="45.64856" lon="5.24901">
        <ele>229</ele>
        <time>2020-05-16T14:40:10.012Z</time>
      </trkpt>
      <trkpt lat="45.64851" lon="5.24898">
        <ele>229</ele>
        <time>2020-05-16T14:40:11.012Z</time>
      </trkpt>
      <trkpt lat="45.64847" lon="5.24894">
        <ele>230</ele>
        <time>2020-05-16T14:40:12.012Z</time>
      </trkpt>
      <trkpt lat="45.64843" lon="5.24891">
        <ele>230</ele>
        <time>2020-05-16T14:40:13.012Z</time>
      </trkpt>
      <trkpt lat="45.64839" lon="5.24886">
        <ele>230</ele>
        <time>2020-05-16T14:40:14.012Z</time>
      </trkpt>
      <trkpt lat="45.64835" lon="5.24882">
        <ele>230</ele>
        <time>2020-05-16T14:40:15.012Z</time>
      </trkpt>
      <trkpt lat="45.64832" lon="5.24877">
        <ele>231</ele>
        <time>2020-05-16T14:40:16.012Z</time>
      </trkpt>
      <trkpt lat="45.64828" lon="5.24871">
        <ele>231</ele>
        <time>2020-05-16T14:40:17.012Z</time>
      </trkpt>
      <trkpt lat="45.64826" lon="5.24865">
        <ele>231</ele>
        <time>2020-05-16T14:40:18.012Z</time>
      </trkpt>
      <trkpt lat="45.64823" lon="5.24859">
        <ele>231</ele>
        <time>2020-05-16T14:40:19.012Z</time>
      </trkpt>
      <trkpt lat="45.6482" lon="5.24853">
        <ele>231</ele>
        <time>2020-05-16T14:40:20.012Z</time>
      </trkpt>
      <trkpt lat="45.64817" lon="5.24846">
        <ele>231</ele>
        <time>2020-05-16T14:40:21.012Z</time>
      </trkpt>
      <trkpt lat="45.64815" lon="5.2484">
        <ele>231</ele>
        <time>2020-05-16T14:40:22.012Z</time>
      </trkpt>
      <trkpt lat="45.64812" lon="5.24834">
        <ele>232</ele>
        <time>2020-05-16T14:40:23.012Z</time>
      </trkpt>
      <trkpt lat="45.6481" lon="5.24828">
        <ele>232</ele>
        <time>2020-05-16T14:40:24.012Z</time>
      </trkpt>
      <trkpt lat="45.64807" lon="5.24822">
        <ele>233</ele>
        <time>2020-05-16T14:40:25.012Z</time>
      </trkpt>
      <trkpt lat="45.64804" lon="5.24816">
        <ele>232</ele>
        <time>2020-05-16T14:40:26.012Z</time>
      </trkpt>
      <trkpt lat="45.64801" lon="5.2481">
        <ele>233</ele>
        <time>2020-05-16T14:40:27.012Z</time>
      </trkpt>
      <trkpt lat="45.64798" lon="5.24805">
        <ele>233</ele>
        <time>2020-05-16T14:40:28.012Z</time>
      </trkpt>
      <trkpt lat="45.64793" lon="5.248">
        <ele>233</ele>
        <time>2020-05-16T14:40:29.012Z</time>
      </trkpt>
      <trkpt lat="45.64788" lon="5.24795">
        <ele>232</ele>
        <time>2020-05-16T14:40:30.012Z</time>
      </trkpt>
      <trkpt lat="45.64783" lon="5.24791">
        <ele>231</ele>
        <time>2020-05-16T14:40:31.012Z</time>
      </trkpt>
      <trkpt lat="45.64777" lon="5.24788">
        <ele>231</ele>
        <time>2020-05-16T14:40:32.012Z</time>
      </trkpt>
      <trkpt lat="45.6477" lon="5.24785">
        <ele>229</ele>
        <time>2020-05-16T14:40:33.012Z</time>
      </trkpt>
      <trkpt lat="45.64763" lon="5.24782">
        <ele>228</ele>
        <time>2020-05-16T14:40:34.012Z</time>
      </trkpt>
      <trkpt lat="45.64756" lon="5.24779">
        <ele>227</ele>
        <time>2020-05-16T14:40:35.012Z</time>
      </trkpt>
      <trkpt lat="45.64748" lon="5.24777">
        <ele>226</ele>
        <time>2020-05-16T14:40:36.012Z</time>
      </trkpt>
      <trkpt lat="45.64739" lon="5.24775">
        <ele>225</ele>
        <time>2020-05-16T14:40:37.012Z</time>
      </trkpt>
      <trkpt lat="45.64731" lon="5.24774">
        <ele>224</ele>
        <time>2020-05-16T14:40:38.012Z</time>
      </trkpt>
      <trkpt lat="45.64721" lon="5.24771">
        <ele>222</ele>
        <time>2020-05-16T14:40:39.012Z</time>
      </trkpt>
      <trkpt lat="45.64711" lon="5.24767">
        <ele>220</ele>
        <time>2020-05-16T14:40:40.012Z</time>
      </trkpt>
      <trkpt lat="45.64701" lon="5.24761">
        <ele>215</ele>
        <time>2020-05-16T14:40:41.012Z</time>
      </trkpt>
      <trkpt lat="45.64691" lon="5.24752">
        <ele>213</ele>
        <time>2020-05-16T14:40:42.012Z</time>
      </trkpt>
      <trkpt lat="45.64682" lon="5.24742">
        <ele>213</ele>
        <time>2020-05-16T14:40:43.012Z</time>
      </trkpt>
      <trkpt lat="45.64674" lon="5.24729">
        <ele>213</ele>
        <time>2020-05-16T14:40:44.012Z</time>
      </trkpt>
      <trkpt lat="45.64667" lon="5.24715">
        <ele>214</ele>
        <time>2020-05-16T14:40:45.012Z</time>
      </trkpt>
      <trkpt lat="45.64662" lon="5.247">
        <ele>215</ele>
        <time>2020-05-16T14:40:46.012Z</time>
      </trkpt>
      <trkpt lat="45.64657" lon="5.24683">
        <ele>215</ele>
        <time>2020-05-16T14:40:47.012Z</time>
      </trkpt>
      <trkpt lat="45.64654" lon="5.24667">
        <ele>215</ele>
        <time>2020-05-16T14:40:48.012Z</time>
      </trkpt>
      <trkpt lat="45.6465" lon="5.24651">
        <ele>215</ele>
        <time>2020-05-16T14:40:49.012Z</time>
      </trkpt>
      <trkpt lat="45.64647" lon="5.24635">
        <ele>216</ele>
        <time>2020-05-16T14:40:50.012Z</time>
      </trkpt>
      <trkpt lat="45.64643" lon="5.2462">
        <ele>216</ele>
        <time>2020-05-16T14:40:51.012Z</time>
      </trkpt>
      <trkpt lat="45.6464" lon="5.24606">
        <ele>217</ele>
        <time>2020-05-16T14:40:52.012Z</time>
      </trkpt>
      <trkpt lat="45.64637" lon="5.24592">
        <ele>217</ele>
        <time>2020-05-16T14:40:53.012Z</time>
      </trkpt>
      <trkpt lat="45.64634" lon="5.24578">
        <ele>217</ele>
        <time>2020-05-16T14:40:54.012Z</time>
      </trkpt>
      <trkpt lat="45.6463" lon="5.24565">
        <ele>218</ele>
        <time>2020-05-16T14:40:55.012Z</time>
      </trkpt>
      <trkpt lat="45.64627" lon="5.24553">
        <ele>218</ele>
        <time>2020-05-16T14:40:56.012Z</time>
      </trkpt>
      <trkpt lat="45.64624" lon="5.2454">
        <ele>218</ele>
        <time>2020-05-16T14:40:57.012Z</time>
      </trkpt>
      <trkpt lat="45.64621" lon="5.24529">
        <ele>219</ele>
        <time>2020-05-16T14:40:58.012Z</time>
      </trkpt>
      <trkpt lat="45.64618" lon="5.24518">
        <ele>220</ele>
        <time>2020-05-16T14:40:59.012Z</time>
      </trkpt>
      <trkpt lat="45.64615" lon="5.24507">
        <ele>220</ele>
        <time>2020-05-16T14:41:00.012Z</time>
      </trkpt>
      <trkpt lat="45.64611" lon="5.24498">
        <ele>220</ele>
        <time>2020-05-16T14:41:01.012Z</time>
      </trkpt>
      <trkpt lat="45.64608" lon="5.24488">
        <ele>220</ele>
        <time>2020-05-16T14:41:02.012Z</time>
      </trkpt>
      <trkpt lat="45.64604" lon="5.2448">
        <ele>220</ele>
        <time>2020-05-16T14:41:03.012Z</time>
      </trkpt>
      <trkpt lat="45.64599" lon="5.24472">
        <ele>220</ele>
        <time>2020-05-16T14:41:04.012Z</time>
      </trkpt>
      <trkpt lat="45.64595" lon="5.24464">
        <ele>221</ele>
        <time>2020-05-16T14:41:05.012Z</time>
      </trkpt>
      <trkpt lat="45.6459" lon="5.24457">
        <ele>222</ele>
        <time>2020-05-16T14:41:06.012Z</time>
      </trkpt>
      <trkpt lat="45.64585" lon="5.2445">
        <ele>221</ele>
        <time>2020-05-16T14:41:07.012Z</time>
      </trkpt>
      <trkpt lat="45.6458" lon="5.24443">
        <ele>222</ele>
        <time>2020-05-16T14:41:08.012Z</time>
      </trkpt>
      <trkpt lat="45.64575" lon="5.24436">
        <ele>222</ele>
        <time>2020-05-16T14:41:09.012Z</time>
      </trkpt>
      <trkpt lat="45.6457" lon="5.24429">
        <ele>221</ele>
        <time>2020-05-16T14:41:10.012Z</time>
      </trkpt>
      <trkpt lat="45.64566" lon="5.24421">
        <ele>221</ele>
        <time>2020-05-16T14:41:11.012Z</time>
      </trkpt>
      <trkpt lat="45.64561" lon="5.24412">
        <ele>221</ele>
        <time>2020-05-16T14:41:12.012Z</time>
      </trkpt>
      <trkpt lat="45.64557" lon="5.24403">
        <ele>221</ele>
        <time>2020-05-16T14:41:13.012Z</time>
      </trkpt>
      <trkpt lat="45.64553" lon="5.24393">
        <ele>220</ele>
        <time>2020-05-16T14:41:14.012Z</time>
      </trkpt>
      <trkpt lat="45.64549" lon="5.24383">
        <ele>220</ele>
        <time>2020-05-16T14:41:15.012Z</time>
      </trkpt>
      <trkpt lat="45.64545" lon="5.24373">
        <ele>220</ele>
        <time>2020-05-16T14:41:16.012Z</time>
      </trkpt>
      <trkpt lat="45.64541" lon="5.24363">
        <ele>220</ele>
        <time>2020-05-16T14:41:17.012Z</time>
      </trkpt>
      <trkpt lat="45.64537" lon="5.24353">
        <ele>219</ele>
        <time>2020-05-16T14:41:18.012Z</time>
      </trkpt>
      <trkpt lat="45.64533" lon="5.24343">
        <ele>219</ele>
        <time>2020-05-16T14:41:19.012Z</time>
      </trkpt>
      <trkpt lat="45.64529" lon="5.24332">
        <ele>219</ele>
        <time>2020-05-16T14:41:20.012Z</time>
      </trkpt>
      <trkpt lat="45.64526" lon="5.24322">
        <ele>219</ele>
        <time>2020-05-16T14:41:21.012Z</time>
      </trkpt>
      <trkpt lat="45.64522" lon="5.24311">
        <ele>219</ele>
        <time>2020-05-16T14:41:22.012Z</time>
      </trkpt>
      <trkpt lat="45.64519" lon="5.243">
        <ele>219</ele>
        <time>2020-05-16T14:41:23.012Z</time>
      </trkpt>
      <trkpt lat="45.64517" lon="5.24289">
        <ele>219</ele>
        <time>2020-05-16T14:41:24.012Z</time>
      </trkpt>
      <trkpt lat="45.64515" lon="5.24278">
        <ele>220</ele>
        <time>2020-05-16T14:41:25.012Z</time>
      </trkpt>
      <trkpt lat="45.64514" lon="5.24267">
        <ele>221</ele>
        <time>2020-05-16T14:41:26.012Z</time>
      </trkpt>
      <trkpt lat="45.64514" lon="5.24255">
        <ele>222</ele>
        <time>2020-05-16T14:41:27.012Z</time>
      </trkpt>
      <trkpt lat="45.64515" lon="5.24244">
        <ele>222</ele>
        <time>2020-05-16T14:41:28.012Z</time>
      </trkpt>
      <trkpt lat="45.64516" lon="5.24233">
        <ele>223</ele>
        <time>2020-05-16T14:41:29.012Z</time>
      </trkpt>
      <trkpt lat="45.64519" lon="5.24223">
        <ele>223</ele>
        <time>2020-05-16T14:41:30.012Z</time>
      </trkpt>
      <trkpt lat="45.64521" lon="5.24213">
        <ele>223</ele>
        <time>2020-05-16T14:41:31.012Z</time>
      </trkpt>
      <trkpt lat="45.64523" lon="5.24204">
        <ele>224</ele>
        <time>2020-05-16T14:41:32.012Z</time>
      </trkpt>
      <trkpt lat="45.64526" lon="5.24194">
        <ele>224</ele>
        <time>2020-05-16T14:41:33.012Z</time>
      </trkpt>
      <trkpt lat="45.64528" lon="5.24185">
        <ele>224</ele>
        <time>2020-05-16T14:41:34.012Z</time>
      </trkpt>
      <trkpt lat="45.6453" lon="5.24176">
        <ele>224</ele>
        <time>2020-05-16T14:41:35.012Z</time>
      </trkpt>
      <trkpt lat="45.64533" lon="5.24167">
        <ele>224</ele>
        <time>2020-05-16T14:41:36.012Z</time>
      </trkpt>
      <trkpt lat="45.64535" lon="5.24159">
        <ele>224</ele>
        <time>2020-05-16T14:41:37.012Z</time>
      </trkpt>
      <trkpt lat="45.64537" lon="5.24151">
        <ele>224</ele>
        <time>2020-05-16T14:41:38.012Z</time>
      </trkpt>
      <trkpt lat="45.6454" lon="5.24143">
        <ele>224</ele>
        <time>2020-05-16T14:41:39.012Z</time>
      </trkpt>
      <trkpt lat="45.64542" lon="5.24134">
        <ele>224</ele>
        <time>2020-05-16T14:41:40.012Z</time>
      </trkpt>
      <trkpt lat="45.64544" lon="5.24126">
        <ele>224</ele>
        <time>2020-05-16T14:41:41.012Z</time>
      </trkpt>
      <trkpt lat="45.64545" lon="5.24116">
        <ele>225</ele>
        <time>2020-05-16T14:41:42.012Z</time>
      </trkpt>
      <trkpt lat="45.64545" lon="5.24107">
        <ele>225</ele>
        <time>2020-05-16T14:41:43.012Z</time>
      </trkpt>
      <trkpt lat="45.64545" lon="5.24099">
        <ele>224</ele>
        <time>2020-05-16T14:41:44.012Z</time>
      </trkpt>
      <trkpt lat="45.64545" lon="5.24091">
        <ele>224</ele>
        <time>2020-05-16T14:41:45.012Z</time>
      </trkpt>
      <trkpt lat="45.64546" lon="5.24083">
        <ele>224</ele>
        <time>2020-05-16T14:41:46.012Z</time>
      </trkpt>
      <trkpt lat="45.64546" lon="5.24076">
        <ele>225</ele>
        <time>2020-05-16T14:41:47.012Z</time>
      </trkpt>
      <trkpt lat="45.64545" lon="5.24071">
        <ele>222</ele>
        <time>2020-05-16T14:41:48.012Z</time>
      </trkpt>
      <trkpt lat="45.64543" lon="5.24067">
        <ele>219</ele>
        <time>2020-05-16T14:41:49.012Z</time>
      </trkpt>
      <trkpt lat="45.6454" lon="5.24065">
        <ele>217</ele>
        <time>2020-05-16T14:41:50.012Z</time>
      </trkpt>
      <trkpt lat="45.64537" lon="5.24065">
        <ele>215</ele>
        <time>2020-05-16T14:41:51.012Z</time>
      </trkpt>
      <trkpt lat="45.64533" lon="5.24067">
        <ele>213</ele>
        <time>2020-05-16T14:41:52.012Z</time>
      </trkpt>
      <trkpt lat="45.64528" lon="5.2407">
        <ele>212</ele>
        <time>2020-05-16T14:41:53.012Z</time>
      </trkpt>
      <trkpt lat="45.64523" lon="5.24073">
        <ele>211</ele>
        <time>2020-05-16T14:41:54.012Z</time>
      </trkpt>
      <trkpt lat="45.64518" lon="5.24075">
        <ele>209</ele>
        <time>2020-05-16T14:41:55.012Z</time>
      </trkpt>
      <trkpt lat="45.64513" lon="5.24078">
        <ele>208</ele>
        <time>2020-05-16T14:41:56.012Z</time>
      </trkpt>
      <trkpt lat="45.64507" lon="5.24081">
        <ele>207</ele>
        <time>2020-05-16T14:41:57.012Z</time>
      </trkpt>
      <trkpt lat="45.64501" lon="5.24085">
        <ele>206</ele>
        <time>2020-05-16T14:41:58.012Z</time>
      </trkpt>
      <trkpt lat="45.64495" lon="5.24089">
        <ele>206</ele>
        <time>2020-05-16T14:41:59.012Z</time>
      </trkpt>
      <trkpt lat="45.64488" lon="5.24094">
        <ele>207</ele>
        <time>2020-05-16T14:42:00.012Z</time>
      </trkpt>
      <trkpt lat="45.64481" lon="5.24099">
        <ele>207</ele>
        <time>2020-05-16T14:42:01.012Z</time>
      </trkpt>
      <trkpt lat="45.64473" lon="5.24105">
        <ele>207</ele>
        <time>2020-05-16T14:42:02.012Z</time>
      </trkpt>
      <trkpt lat="45.64466" lon="5.2411">
        <ele>207</ele>
        <time>2020-05-16T14:42:03.012Z</time>
      </trkpt>
      <trkpt lat="45.64458" lon="5.24116">
        <ele>207</ele>
        <time>2020-05-16T14:42:04.012Z</time>
      </trkpt>
      <trkpt lat="45.6445" lon="5.24121">
        <ele>207</ele>
        <time>2020-05-16T14:42:05.012Z</time>
      </trkpt>
      <trkpt lat="45.64441" lon="5.24127">
        <ele>206</ele>
        <time>2020-05-16T14:42:06.012Z</time>
      </trkpt>
      <trkpt lat="45.64433" lon="5.24133">
        <ele>206</ele>
        <time>2020-05-16T14:42:07.012Z</time>
      </trkpt>
      <trkpt lat="45.64425" lon="5.24138">
        <ele>206</ele>
        <time>2020-05-16T14:42:08.012Z</time>
      </trkpt>
      <trkpt lat="45.64417" lon="5.24144">
        <ele>206</ele>
        <time>2020-05-16T14:42:09.012Z</time>
      </trkpt>
      <trkpt lat="45.64409" lon="5.24149">
        <ele>206</ele>
        <time>2020-05-16T14:42:10.012Z</time>
      </trkpt>
      <trkpt lat="45.64402" lon="5.24155">
        <ele>207</ele>
        <time>2020-05-16T14:42:11.012Z</time>
      </trkpt>
      <trkpt lat="45.64395" lon="5.2416">
        <ele>207</ele>
        <time>2020-05-16T14:42:12.012Z</time>
      </trkpt>
      <trkpt lat="45.64387" lon="5.24164">
        <ele>207</ele>
        <time>2020-05-16T14:42:13.012Z</time>
      </trkpt>
      <trkpt lat="45.64379" lon="5.24165">
        <ele>209</ele>
        <time>2020-05-16T14:42:14.012Z</time>
      </trkpt>
      <trkpt lat="45.64372" lon="5.24162">
        <ele>206</ele>
        <time>2020-05-16T14:42:15.012Z</time>
      </trkpt>
      <trkpt lat="45.64366" lon="5.24156">
        <ele>207</ele>
        <time>2020-05-16T14:42:16.012Z</time>
      </trkpt>
      <trkpt lat="45.64361" lon="5.24148">
        <ele>207</ele>
        <time>2020-05-16T14:42:17.012Z</time>
      </trkpt>
      <trkpt lat="45.64358" lon="5.24139">
        <ele>208</ele>
        <time>2020-05-16T14:42:18.012Z</time>
      </trkpt>
      <trkpt lat="45.64355" lon="5.24129">
        <ele>209</ele>
        <time>2020-05-16T14:42:19.012Z</time>
      </trkpt>
      <trkpt lat="45.64353" lon="5.24118">
        <ele>209</ele>
        <time>2020-05-16T14:42:20.012Z</time>
      </trkpt>
      <trkpt lat="45.64351" lon="5.24108">
        <ele>209</ele>
        <time>2020-05-16T14:42:21.012Z</time>
      </trkpt>
      <trkpt lat="45.64349" lon="5.24097">
        <ele>210</ele>
        <time>2020-05-16T14:42:22.012Z</time>
      </trkpt>
      <trkpt lat="45.64347" lon="5.24087">
        <ele>210</ele>
        <time>2020-05-16T14:42:23.012Z</time>
      </trkpt>
      <trkpt lat="45.64344" lon="5.24077">
        <ele>210</ele>
        <time>2020-05-16T14:42:24.012Z</time>
      </trkpt>
      <trkpt lat="45.64341" lon="5.24068">
        <ele>210</ele>
        <time>2020-05-16T14:42:25.012Z</time>
      </trkpt>
      <trkpt lat="45.64337" lon="5.24059">
        <ele>210</ele>
        <time>2020-05-16T14:42:26.012Z</time>
      </trkpt>
      <trkpt lat="45.64333" lon="5.2405">
        <ele>210</ele>
        <time>2020-05-16T14:42:27.012Z</time>
      </trkpt>
      <trkpt lat="45.64329" lon="5.24041">
        <ele>211</ele>
        <time>2020-05-16T14:42:28.012Z</time>
      </trkpt>
      <trkpt lat="45.64325" lon="5.24033">
        <ele>210</ele>
        <time>2020-05-16T14:42:29.012Z</time>
      </trkpt>
      <trkpt lat="45.6432" lon="5.24025">
        <ele>210</ele>
        <time>2020-05-16T14:42:30.012Z</time>
      </trkpt>
      <trkpt lat="45.64315" lon="5.24017">
        <ele>210</ele>
        <time>2020-05-16T14:42:31.012Z</time>
      </trkpt>
      <trkpt lat="45.6431" lon="5.2401">
        <ele>210</ele>
        <time>2020-05-16T14:42:32.012Z</time>
      </trkpt>
      <trkpt lat="45.64305" lon="5.24002">
        <ele>210</ele>
        <time>2020-05-16T14:42:33.012Z</time>
      </trkpt>
      <trkpt lat="45.643" lon="5.23995">
        <ele>210</ele>
        <time>2020-05-16T14:42:34.012Z</time>
      </trkpt>
      <trkpt lat="45.64295" lon="5.23988">
        <ele>210</ele>
        <time>2020-05-16T14:42:35.012Z</time>
      </trkpt>
      <trkpt lat="45.6429" lon="5.23982">
        <ele>210</ele>
        <time>2020-05-16T14:42:36.012Z</time>
      </trkpt>
      <trkpt lat="45.64286" lon="5.23975">
        <ele>210</ele>
        <time>2020-05-16T14:42:37.012Z</time>
      </trkpt>
      <trkpt lat="45.64282" lon="5.23968">
        <ele>210</ele>
        <time>2020-05-16T14:42:38.012Z</time>
      </trkpt>
      <trkpt lat="45.64278" lon="5.23961">
        <ele>211</ele>
        <time>2020-05-16T14:42:39.012Z</time>
      </trkpt>
      <trkpt lat="45.64274" lon="5.23954">
        <ele>211</ele>
        <time>2020-05-16T14:42:40.012Z</time>
      </trkpt>
      <trkpt lat="45.6427" lon="5.23946">
        <ele>211</ele>
        <time>2020-05-16T14:42:41.012Z</time>
      </trkpt>
      <trkpt lat="45.64265" lon="5.23939">
        <ele>211</ele>
        <time>2020-05-16T14:42:42.012Z</time>
      </trkpt>
      <trkpt lat="45.64261" lon="5.23933">
        <ele>211</ele>
        <time>2020-05-16T14:42:43.012Z</time>
      </trkpt>
      <trkpt lat="45.64256" lon="5.23926">
        <ele>211</ele>
        <time>2020-05-16T14:42:44.012Z</time>
      </trkpt>
      <trkpt lat="45.64252" lon="5.2392">
        <ele>212</ele>
        <time>2020-05-16T14:42:45.012Z</time>
      </trkpt>
      <trkpt lat="45.64247" lon="5.23913">
        <ele>212</ele>
        <time>2020-05-16T14:42:46.012Z</time>
      </trkpt>
      <trkpt lat="45.64243" lon="5.23906">
        <ele>212</ele>
        <time>2020-05-16T14:42:47.012Z</time>
      </trkpt>
      <trkpt lat="45.64238" lon="5.239">
        <ele>211</ele>
        <time>2020-05-16T14:42:48.012Z</time>
      </trkpt>
      <trkpt lat="45.64233" lon="5.23893">
        <ele>211</ele>
        <time>2020-05-16T14:42:49.012Z</time>
      </trkpt>
      <trkpt lat="45.64227" lon="5.23887">
        <ele>211</ele>
        <time>2020-05-16T14:42:50.012Z</time>
      </trkpt>
      <trkpt lat="45.64222" lon="5.2388">
        <ele>211</ele>
        <time>2020-05-16T14:42:51.012Z</time>
      </trkpt>
      <trkpt lat="45.64218" lon="5.23873">
        <ele>211</ele>
        <time>2020-05-16T14:42:52.012Z</time>
      </trkpt>
      <trkpt lat="45.64213" lon="5.23866">
        <ele>211</ele>
        <time>2020-05-16T14:42:53.012Z</time>
      </trkpt>
      <trkpt lat="45.64209" lon="5.23859">
        <ele>210</ele>
        <time>2020-05-16T14:42:54.012Z</time>
      </trkpt>
      <trkpt lat="45.64204" lon="5.23851">
        <ele>210</ele>
        <time>2020-05-16T14:42:55.012Z</time>
      </trkpt>
      <trkpt lat="45.642" lon="5.23843">
        <ele>209</ele>
        <time>2020-05-16T14:42:56.012Z</time>
      </trkpt>
      <trkpt lat="45.64196" lon="5.23835">
        <ele>209</ele>
        <time>2020-05-16T14:42:57.012Z</time>
      </trkpt>
      <trkpt lat="45.64191" lon="5.23827">
        <ele>208</ele>
        <time>2020-05-16T14:42:58.012Z</time>
      </trkpt>
      <trkpt lat="45.64187" lon="5.23818">
        <ele>208</ele>
        <time>2020-05-16T14:42:59.012Z</time>
      </trkpt>
      <trkpt lat="45.64182" lon="5.2381">
        <ele>208</ele>
        <time>2020-05-16T14:43:00.012Z</time>
      </trkpt>
      <trkpt lat="45.64178" lon="5.23803">
        <ele>208</ele>
        <time>2020-05-16T14:43:01.012Z</time>
      </trkpt>
      <trkpt lat="45.64173" lon="5.23796">
        <ele>208</ele>
        <time>2020-05-16T14:43:02.012Z</time>
      </trkpt>
      <trkpt lat="45.64169" lon="5.23789">
        <ele>208</ele>
        <time>2020-05-16T14:43:03.012Z</time>
      </trkpt>
      <trkpt lat="45.64165" lon="5.23782">
        <ele>208</ele>
        <time>2020-05-16T14:43:04.012Z</time>
      </trkpt>
      <trkpt lat="45.6416" lon="5.23777">
        <ele>209</ele>
        <time>2020-05-16T14:43:05.012Z</time>
      </trkpt>
      <trkpt lat="45.64157" lon="5.23772">
        <ele>206</ele>
        <time>2020-05-16T14:43:06.012Z</time>
      </trkpt>
      <trkpt lat="45.64153" lon="5.23768">
        <ele>207</ele>
        <time>2020-05-16T14:43:07.012Z</time>
      </trkpt>
      <trkpt lat="45.6415" lon="5.23764">
        <ele>208</ele>
        <time>2020-05-16T14:43:08.012Z</time>
      </trkpt>
      <trkpt lat="45.64148" lon="5.2376">
        <ele>209</ele>
        <time>2020-05-16T14:43:09.012Z</time>
      </trkpt>
      <trkpt lat="45.64147" lon="5.23757">
        <ele>210</ele>
        <time>2020-05-16T14:43:10.012Z</time>
      </trkpt>
      <trkpt lat="45.64145" lon="5.23755">
        <ele>211</ele>
        <time>2020-05-16T14:43:11.012Z</time>
      </trkpt>
      <trkpt lat="45.64143" lon="5.23754">
        <ele>210</ele>
        <time>2020-05-16T14:43:12.012Z</time>
      </trkpt>
      <trkpt lat="45.6414" lon="5.23754">
        <ele>210</ele>
        <time>2020-05-16T14:43:13.012Z</time>
      </trkpt>
      <trkpt lat="45.64137" lon="5.23757">
        <ele>213</ele>
        <time>2020-05-16T14:43:14.012Z</time>
      </trkpt>
      <trkpt lat="45.64134" lon="5.23762">
        <ele>213</ele>
        <time>2020-05-16T14:43:15.012Z</time>
      </trkpt>
      <trkpt lat="45.64131" lon="5.2377">
        <ele>211</ele>
        <time>2020-05-16T14:43:16.012Z</time>
      </trkpt>
      <trkpt lat="45.64129" lon="5.23779">
        <ele>212</ele>
        <time>2020-05-16T14:43:17.012Z</time>
      </trkpt>
      <trkpt lat="45.64126" lon="5.23788">
        <ele>213</ele>
        <time>2020-05-16T14:43:18.012Z</time>
      </trkpt>
      <trkpt lat="45.64123" lon="5.23797">
        <ele>213</ele>
        <time>2020-05-16T14:43:19.012Z</time>
      </trkpt>
      <trkpt lat="45.6412" lon="5.23806">
        <ele>212</ele>
        <time>2020-05-16T14:43:20.012Z</time>
      </trkpt>
      <trkpt lat="45.64117" lon="5.23815">
        <ele>211</ele>
        <time>2020-05-16T14:43:21.012Z</time>
      </trkpt>
      <trkpt lat="45.64112" lon="5.23824">
        <ele>211</ele>
        <time>2020-05-16T14:43:22.012Z</time>
      </trkpt>
      <trkpt lat="45.64108" lon="5.23833">
        <ele>212</ele>
        <time>2020-05-16T14:43:23.012Z</time>
      </trkpt>
      <trkpt lat="45.64102" lon="5.23842">
        <ele>213</ele>
        <time>2020-05-16T14:43:24.012Z</time>
      </trkpt>
      <trkpt lat="45.64097" lon="5.2385">
        <ele>213</ele>
        <time>2020-05-16T14:43:25.012Z</time>
      </trkpt>
      <trkpt lat="45.64091" lon="5.23858">
        <ele>213</ele>
        <time>2020-05-16T14:43:26.012Z</time>
      </trkpt>
      <trkpt lat="45.64085" lon="5.23865">
        <ele>213</ele>
        <time>2020-05-16T14:43:27.012Z</time>
      </trkpt>
      <trkpt lat="45.64077" lon="5.23871">
        <ele>212</ele>
        <time>2020-05-16T14:43:28.012Z</time>
      </trkpt>
      <trkpt lat="45.64069" lon="5.23876">
        <ele>210</ele>
        <time>2020-05-16T14:43:29.012Z</time>
      </trkpt>
      <trkpt lat="45.64061" lon="5.23881">
        <ele>210</ele>
        <time>2020-05-16T14:43:30.012Z</time>
      </trkpt>
      <trkpt lat="45.64053" lon="5.23885">
        <ele>211</ele>
        <time>2020-05-16T14:43:31.012Z</time>
      </trkpt>
      <trkpt lat="45.64045" lon="5.23889">
        <ele>211</ele>
        <time>2020-05-16T14:43:32.012Z</time>
      </trkpt>
      <trkpt lat="45.64038" lon="5.23892">
        <ele>211</ele>
        <time>2020-05-16T14:43:33.012Z</time>
      </trkpt>
      <trkpt lat="45.6403" lon="5.23896">
        <ele>210</ele>
        <time>2020-05-16T14:43:34.012Z</time>
      </trkpt>
      <trkpt lat="45.64023" lon="5.23899">
        <ele>210</ele>
        <time>2020-05-16T14:43:35.012Z</time>
      </trkpt>
      <trkpt lat="45.64016" lon="5.23903">
        <ele>211</ele>
        <time>2020-05-16T14:43:36.012Z</time>
      </trkpt>
      <trkpt lat="45.64008" lon="5.23906">
        <ele>211</ele>
        <time>2020-05-16T14:43:37.012Z</time>
      </trkpt>
      <trkpt lat="45.64001" lon="5.23909">
        <ele>210</ele>
        <time>2020-05-16T14:43:38.012Z</time>
      </trkpt>
      <trkpt lat="45.63994" lon="5.23912">
        <ele>210</ele>
        <time>2020-05-16T14:43:39.012Z</time>
      </trkpt>
      <trkpt lat="45.63986" lon="5.23916">
        <ele>210</ele>
        <time>2020-05-16T14:43:40.012Z</time>
      </trkpt>
      <trkpt lat="45.63978" lon="5.23919">
        <ele>210</ele>
        <time>2020-05-16T14:43:41.012Z</time>
      </trkpt>
      <trkpt lat="45.63971" lon="5.23924">
        <ele>211</ele>
        <time>2020-05-16T14:43:42.012Z</time>
      </trkpt>
      <trkpt lat="45.63962" lon="5.23928">
        <ele>211</ele>
        <time>2020-05-16T14:43:43.012Z</time>
      </trkpt>
      <trkpt lat="45.63954" lon="5.23932">
        <ele>210</ele>
        <time>2020-05-16T14:43:44.012Z</time>
      </trkpt>
      <trkpt lat="45.63947" lon="5.23936">
        <ele>210</ele>
        <time>2020-05-16T14:43:45.012Z</time>
      </trkpt>
      <trkpt lat="45.63939" lon="5.23939">
        <ele>210</ele>
        <time>2020-05-16T14:43:46.012Z</time>
      </trkpt>
      <trkpt lat="45.63931" lon="5.23943">
        <ele>211</ele>
        <time>2020-05-16T14:43:47.012Z</time>
      </trkpt>
      <trkpt lat="45.63924" lon="5.23947">
        <ele>210</ele>
        <time>2020-05-16T14:43:48.012Z</time>
      </trkpt>
      <trkpt lat="45.63916" lon="5.2395">
        <ele>210</ele>
        <time>2020-05-16T14:43:49.012Z</time>
      </trkpt>
      <trkpt lat="45.63908" lon="5.23953">
        <ele>211</ele>
        <time>2020-05-16T14:43:50.012Z</time>
      </trkpt>
      <trkpt lat="45.639" lon="5.23956">
        <ele>211</ele>
        <time>2020-05-16T14:43:51.012Z</time>
      </trkpt>
      <trkpt lat="45.63892" lon="5.23958">
        <ele>211</ele>
        <time>2020-05-16T14:43:52.012Z</time>
      </trkpt>
      <trkpt lat="45.63884" lon="5.2396">
        <ele>211</ele>
        <time>2020-05-16T14:43:53.012Z</time>
      </trkpt>
      <trkpt lat="45.63876" lon="5.23962">
        <ele>212</ele>
        <time>2020-05-16T14:43:54.012Z</time>
      </trkpt>
      <trkpt lat="45.63869" lon="5.23964">
        <ele>211</ele>
        <time>2020-05-16T14:43:55.012Z</time>
      </trkpt>
      <trkpt lat="45.63861" lon="5.23966">
        <ele>211</ele>
        <time>2020-05-16T14:43:56.012Z</time>
      </trkpt>
      <trkpt lat="45.63853" lon="5.23968">
        <ele>211</ele>
        <time>2020-05-16T14:43:57.012Z</time>
      </trkpt>
      <trkpt lat="45.63845" lon="5.2397">
        <ele>211</ele>
        <time>2020-05-16T14:43:58.012Z</time>
      </trkpt>
      <trkpt lat="45.63836" lon="5.23972">
        <ele>211</ele>
        <time>2020-05-16T14:43:59.012Z</time>
      </trkpt>
      <trkpt lat="45.63828" lon="5.23974">
        <ele>211</ele>
        <time>2020-05-16T14:44:00.012Z</time>
      </trkpt>
      <trkpt lat="45.6382" lon="5.23976">
        <ele>211</ele>
        <time>2020-05-16T14:44:01.012Z</time>
      </trkpt>
      <trkpt lat="45.63812" lon="5.23978">
        <ele>211</ele>
        <time>2020-05-16T14:44:02.012Z</time>
      </trkpt>
      <trkpt lat="45.63803" lon="5.2398">
        <ele>211</ele>
        <time>2020-05-16T14:44:03.012Z</time>
      </trkpt>
      <trkpt lat="45.63795" lon="5.23982">
        <ele>211</ele>
        <time>2020-05-16T14:44:04.012Z</time>
      </trkpt>
      <trkpt lat="45.63787" lon="5.23984">
        <ele>211</ele>
        <time>2020-05-16T14:44:05.012Z</time>
      </trkpt>
      <trkpt lat="45.63779" lon="5.23986">
        <ele>210</ele>
        <time>2020-05-16T14:44:06.012Z</time>
      </trkpt>
      <trkpt lat="45.63771" lon="5.23988">
        <ele>210</ele>
        <time>2020-05-16T14:44:07.012Z</time>
      </trkpt>
      <trkpt lat="45.63763" lon="5.2399">
        <ele>210</ele>
        <time>2020-05-16T14:44:08.012Z</time>
      </trkpt>
      <trkpt lat="45.63755" lon="5.23992">
        <ele>210</ele>
        <time>2020-05-16T14:44:09.012Z</time>
      </trkpt>
      <trkpt lat="45.63747" lon="5.23993">
        <ele>210</ele>
        <time>2020-05-16T14:44:10.012Z</time>
      </trkpt>
      <trkpt lat="45.63738" lon="5.23995">
        <ele>210</ele>
        <time>2020-05-16T14:44:11.012Z</time>
      </trkpt>
      <trkpt lat="45.6373" lon="5.23996">
        <ele>210</ele>
        <time>2020-05-16T14:44:12.012Z</time>
      </trkpt>
      <trkpt lat="45.63722" lon="5.23996">
        <ele>210</ele>
        <time>2020-05-16T14:44:13.012Z</time>
      </trkpt>
      <trkpt lat="45.63713" lon="5.23997">
        <ele>211</ele>
        <time>2020-05-16T14:44:14.012Z</time>
      </trkpt>
      <trkpt lat="45.63705" lon="5.23996">
        <ele>210</ele>
        <time>2020-05-16T14:44:15.012Z</time>
      </trkpt>
      <trkpt lat="45.63696" lon="5.23994">
        <ele>211</ele>
        <time>2020-05-16T14:44:16.012Z</time>
      </trkpt>
      <trkpt lat="45.63688" lon="5.23991">
        <ele>211</ele>
        <time>2020-05-16T14:44:17.012Z</time>
      </trkpt>
      <trkpt lat="45.63679" lon="5.23986">
        <ele>211</ele>
        <time>2020-05-16T14:44:18.012Z</time>
      </trkpt>
      <trkpt lat="45.63671" lon="5.23982">
        <ele>210</ele>
        <time>2020-05-16T14:44:19.012Z</time>
      </trkpt>
      <trkpt lat="45.63663" lon="5.23976">
        <ele>210</ele>
        <time>2020-05-16T14:44:20.012Z</time>
      </trkpt>
      <trkpt lat="45.63655" lon="5.2397">
        <ele>210</ele>
        <time>2020-05-16T14:44:21.012Z</time>
      </trkpt>
      <trkpt lat="45.63648" lon="5.23965">
        <ele>210</ele>
        <time>2020-05-16T14:44:22.012Z</time>
      </trkpt>
      <trkpt lat="45.6364" lon="5.23959">
        <ele>210</ele>
        <time>2020-05-16T14:44:23.012Z</time>
      </trkpt>
      <trkpt lat="45.63633" lon="5.23954">
        <ele>209</ele>
        <time>2020-05-16T14:44:24.012Z</time>
      </trkpt>
      <trkpt lat="45.63626" lon="5.2395">
        <ele>209</ele>
        <time>2020-05-16T14:44:25.012Z</time>
      </trkpt>
      <trkpt lat="45.63619" lon="5.23946">
        <ele>211</ele>
        <time>2020-05-16T14:44:26.012Z</time>
      </trkpt>
      <trkpt lat="45.63614" lon="5.2394">
        <ele>214</ele>
        <time>2020-05-16T14:44:27.012Z</time>
      </trkpt>
      <trkpt lat="45.63608" lon="5.23933">
        <ele>208</ele>
        <time>2020-05-16T14:44:28.012Z</time>
      </trkpt>
      <trkpt lat="45.63603" lon="5.23924">
        <ele>209</ele>
        <time>2020-05-16T14:44:29.012Z</time>
      </trkpt>
      <trkpt lat="45.63598" lon="5.23916">
        <ele>210</ele>
        <time>2020-05-16T14:44:30.012Z</time>
      </trkpt>
      <trkpt lat="45.63592" lon="5.23911">
        <ele>209</ele>
        <time>2020-05-16T14:44:31.012Z</time>
      </trkpt>
      <trkpt lat="45.63585" lon="5.23909">
        <ele>208</ele>
        <time>2020-05-16T14:44:32.012Z</time>
      </trkpt>
      <trkpt lat="45.63578" lon="5.2391">
        <ele>213</ele>
        <time>2020-05-16T14:44:33.012Z</time>
      </trkpt>
      <trkpt lat="45.63571" lon="5.23917">
        <ele>218</ele>
        <time>2020-05-16T14:44:34.012Z</time>
      </trkpt>
      <trkpt lat="45.63567" lon="5.23927">
        <ele>219</ele>
        <time>2020-05-16T14:44:35.012Z</time>
      </trkpt>
      <trkpt lat="45.63565" lon="5.23939">
        <ele>219</ele>
        <time>2020-05-16T14:44:36.012Z</time>
      </trkpt>
      <trkpt lat="45.63565" lon="5.23949">
        <ele>218</ele>
        <time>2020-05-16T14:44:37.012Z</time>
      </trkpt>
      <trkpt lat="45.63568" lon="5.2396">
        <ele>217</ele>
        <time>2020-05-16T14:44:38.012Z</time>
      </trkpt>
      <trkpt lat="45.63571" lon="5.23971">
        <ele>216</ele>
        <time>2020-05-16T14:44:39.012Z</time>
      </trkpt>
      <trkpt lat="45.63575" lon="5.23982">
        <ele>214</ele>
        <time>2020-05-16T14:44:40.012Z</time>
      </trkpt>
      <trkpt lat="45.63577" lon="5.23994">
        <ele>213</ele>
        <time>2020-05-16T14:44:41.012Z</time>
      </trkpt>
      <trkpt lat="45.63579" lon="5.24007">
        <ele>212</ele>
        <time>2020-05-16T14:44:42.012Z</time>
      </trkpt>
      <trkpt lat="45.6358" lon="5.2402">
        <ele>212</ele>
        <time>2020-05-16T14:44:43.012Z</time>
      </trkpt>
      <trkpt lat="45.63582" lon="5.24033">
        <ele>212</ele>
        <time>2020-05-16T14:44:44.012Z</time>
      </trkpt>
      <trkpt lat="45.63584" lon="5.24046">
        <ele>212</ele>
        <time>2020-05-16T14:44:45.012Z</time>
      </trkpt>
      <trkpt lat="45.63585" lon="5.2406">
        <ele>212</ele>
        <time>2020-05-16T14:44:46.012Z</time>
      </trkpt>
      <trkpt lat="45.63586" lon="5.24074">
        <ele>213</ele>
        <time>2020-05-16T14:44:47.012Z</time>
      </trkpt>
      <trkpt lat="45.63586" lon="5.24088">
        <ele>213</ele>
        <time>2020-05-16T14:44:48.012Z</time>
      </trkpt>
      <trkpt lat="45.63586" lon="5.24101">
        <ele>214</ele>
        <time>2020-05-16T14:44:49.012Z</time>
      </trkpt>
      <trkpt lat="45.63585" lon="5.24115">
        <ele>214</ele>
        <time>2020-05-16T14:44:50.012Z</time>
      </trkpt>
      <trkpt lat="45.63583" lon="5.24129">
        <ele>214</ele>
        <time>2020-05-16T14:44:51.012Z</time>
      </trkpt>
      <trkpt lat="45.6358" lon="5.24142">
        <ele>214</ele>
        <time>2020-05-16T14:44:52.012Z</time>
      </trkpt>
      <trkpt lat="45.63577" lon="5.24155">
        <ele>213</ele>
        <time>2020-05-16T14:44:53.012Z</time>
      </trkpt>
      <trkpt lat="45.63573" lon="5.24167">
        <ele>213</ele>
        <time>2020-05-16T14:44:54.012Z</time>
      </trkpt>
      <trkpt lat="45.63569" lon="5.24179">
        <ele>212</ele>
        <time>2020-05-16T14:44:55.012Z</time>
      </trkpt>
      <trkpt lat="45.63565" lon="5.24191">
        <ele>212</ele>
        <time>2020-05-16T14:44:56.012Z</time>
      </trkpt>
      <trkpt lat="45.6356" lon="5.24203">
        <ele>212</ele>
        <time>2020-05-16T14:44:57.012Z</time>
      </trkpt>
      <trkpt lat="45.63556" lon="5.24215">
        <ele>211</ele>
        <time>2020-05-16T14:44:58.012Z</time>
      </trkpt>
      <trkpt lat="45.63551" lon="5.24227">
        <ele>211</ele>
        <time>2020-05-16T14:44:59.012Z</time>
      </trkpt>
      <trkpt lat="45.63547" lon="5.24239">
        <ele>211</ele>
        <time>2020-05-16T14:45:00.012Z</time>
      </trkpt>
      <trkpt lat="45.63542" lon="5.24252">
        <ele>210</ele>
        <time>2020-05-16T14:45:01.012Z</time>
      </trkpt>
      <trkpt lat="45.63538" lon="5.24264">
        <ele>210</ele>
        <time>2020-05-16T14:45:02.012Z</time>
      </trkpt>
      <trkpt lat="45.63534" lon="5.24276">
        <ele>210</ele>
        <time>2020-05-16T14:45:03.012Z</time>
      </trkpt>
      <trkpt lat="45.6353" lon="5.24289">
        <ele>210</ele>
        <time>2020-05-16T14:45:04.012Z</time>
      </trkpt>
      <trkpt lat="45.63526" lon="5.24302">
        <ele>209</ele>
        <time>2020-05-16T14:45:05.012Z</time>
      </trkpt>
      <trkpt lat="45.63523" lon="5.24315">
        <ele>209</ele>
        <time>2020-05-16T14:45:06.012Z</time>
      </trkpt>
      <trkpt lat="45.6352" lon="5.24328">
        <ele>209</ele>
        <time>2020-05-16T14:45:07.012Z</time>
      </trkpt>
      <trkpt lat="45.63518" lon="5.24342">
        <ele>209</ele>
        <time>2020-05-16T14:45:08.012Z</time>
      </trkpt>
      <trkpt lat="45.63516" lon="5.24356">
        <ele>209</ele>
        <time>2020-05-16T14:45:09.012Z</time>
      </trkpt>
      <trkpt lat="45.63515" lon="5.2437">
        <ele>209</ele>
        <time>2020-05-16T14:45:10.012Z</time>
      </trkpt>
      <trkpt lat="45.63514" lon="5.24384">
        <ele>209</ele>
        <time>2020-05-16T14:45:11.012Z</time>
      </trkpt>
      <trkpt lat="45.63512" lon="5.24398">
        <ele>209</ele>
        <time>2020-05-16T14:45:12.012Z</time>
      </trkpt>
      <trkpt lat="45.63511" lon="5.24412">
        <ele>209</ele>
        <time>2020-05-16T14:45:13.012Z</time>
      </trkpt>
      <trkpt lat="45.6351" lon="5.24427">
        <ele>209</ele>
        <time>2020-05-16T14:45:14.012Z</time>
      </trkpt>
      <trkpt lat="45.63509" lon="5.24441">
        <ele>210</ele>
        <time>2020-05-16T14:45:15.012Z</time>
      </trkpt>
      <trkpt lat="45.63508" lon="5.24455">
        <ele>210</ele>
        <time>2020-05-16T14:45:16.012Z</time>
      </trkpt>
      <trkpt lat="45.63507" lon="5.24469">
        <ele>210</ele>
        <time>2020-05-16T14:45:17.012Z</time>
      </trkpt>
      <trkpt lat="45.63507" lon="5.24483">
        <ele>210</ele>
        <time>2020-05-16T14:45:18.012Z</time>
      </trkpt>
      <trkpt lat="45.63506" lon="5.24497">
        <ele>210</ele>
        <time>2020-05-16T14:45:19.012Z</time>
      </trkpt>
      <trkpt lat="45.63504" lon="5.2451">
        <ele>210</ele>
        <time>2020-05-16T14:45:20.012Z</time>
      </trkpt>
      <trkpt lat="45.63503" lon="5.24524">
        <ele>210</ele>
        <time>2020-05-16T14:45:21.012Z</time>
      </trkpt>
      <trkpt lat="45.63502" lon="5.24538">
        <ele>210</ele>
        <time>2020-05-16T14:45:22.012Z</time>
      </trkpt>
      <trkpt lat="45.63499" lon="5.24551">
        <ele>210</ele>
        <time>2020-05-16T14:45:23.012Z</time>
      </trkpt>
      <trkpt lat="45.63496" lon="5.24564">
        <ele>210</ele>
        <time>2020-05-16T14:45:24.012Z</time>
      </trkpt>
      <trkpt lat="45.63492" lon="5.24576">
        <ele>209</ele>
        <time>2020-05-16T14:45:25.012Z</time>
      </trkpt>
      <trkpt lat="45.63488" lon="5.24588">
        <ele>210</ele>
        <time>2020-05-16T14:45:26.012Z</time>
      </trkpt>
      <trkpt lat="45.63482" lon="5.24599">
        <ele>210</ele>
        <time>2020-05-16T14:45:27.012Z</time>
      </trkpt>
      <trkpt lat="45.63476" lon="5.2461">
        <ele>210</ele>
        <time>2020-05-16T14:45:28.012Z</time>
      </trkpt>
      <trkpt lat="45.63469" lon="5.2462">
        <ele>210</ele>
        <time>2020-05-16T14:45:29.012Z</time>
      </trkpt>
      <trkpt lat="45.63463" lon="5.2463">
        <ele>210</ele>
        <time>2020-05-16T14:45:30.012Z</time>
      </trkpt>
      <trkpt lat="45.63456" lon="5.24641">
        <ele>210</ele>
        <time>2020-05-16T14:45:31.012Z</time>
      </trkpt>
      <trkpt lat="45.63449" lon="5.24651">
        <ele>210</ele>
        <time>2020-05-16T14:45:32.012Z</time>
      </trkpt>
      <trkpt lat="45.63441" lon="5.24661">
        <ele>210</ele>
        <time>2020-05-16T14:45:33.012Z</time>
      </trkpt>
      <trkpt lat="45.63434" lon="5.24671">
        <ele>210</ele>
        <time>2020-05-16T14:45:34.012Z</time>
      </trkpt>
      <trkpt lat="45.63427" lon="5.2468">
        <ele>210</ele>
        <time>2020-05-16T14:45:35.012Z</time>
      </trkpt>
      <trkpt lat="45.63419" lon="5.2469">
        <ele>210</ele>
        <time>2020-05-16T14:45:36.012Z</time>
      </trkpt>
      <trkpt lat="45.63412" lon="5.247">
        <ele>209</ele>
        <time>2020-05-16T14:45:37.012Z</time>
      </trkpt>
      <trkpt lat="45.63405" lon="5.2471">
        <ele>209</ele>
        <time>2020-05-16T14:45:38.012Z</time>
      </trkpt>
      <trkpt lat="45.63398" lon="5.2472">
        <ele>209</ele>
        <time>2020-05-16T14:45:39.012Z</time>
      </trkpt>
      <trkpt lat="45.6339" lon="5.24731">
        <ele>209</ele>
        <time>2020-05-16T14:45:40.012Z</time>
      </trkpt>
      <trkpt lat="45.63383" lon="5.24742">
        <ele>209</ele>
        <time>2020-05-16T14:45:41.012Z</time>
      </trkpt>
      <trkpt lat="45.63375" lon="5.24752">
        <ele>208</ele>
        <time>2020-05-16T14:45:42.012Z</time>
      </trkpt>
      <trkpt lat="45.63367" lon="5.24763">
        <ele>208</ele>
        <time>2020-05-16T14:45:43.012Z</time>
      </trkpt>
      <trkpt lat="45.63359" lon="5.24774">
        <ele>208</ele>
        <time>2020-05-16T14:45:44.012Z</time>
      </trkpt>
      <trkpt lat="45.63351" lon="5.24785">
        <ele>208</ele>
        <time>2020-05-16T14:45:45.012Z</time>
      </trkpt>
      <trkpt lat="45.63343" lon="5.24796">
        <ele>208</ele>
        <time>2020-05-16T14:45:46.012Z</time>
      </trkpt>
      <trkpt lat="45.63335" lon="5.24808">
        <ele>208</ele>
        <time>2020-05-16T14:45:47.012Z</time>
      </trkpt>
      <trkpt lat="45.63327" lon="5.24819">
        <ele>208</ele>
        <time>2020-05-16T14:45:48.012Z</time>
      </trkpt>
      <trkpt lat="45.63319" lon="5.2483">
        <ele>208</ele>
        <time>2020-05-16T14:45:49.012Z</time>
      </trkpt>
      <trkpt lat="45.63311" lon="5.24841">
        <ele>208</ele>
        <time>2020-05-16T14:45:50.012Z</time>
      </trkpt>
      <trkpt lat="45.63304" lon="5.24851">
        <ele>208</ele>
        <time>2020-05-16T14:45:51.012Z</time>
      </trkpt>
      <trkpt lat="45.63296" lon="5.24862">
        <ele>208</ele>
        <time>2020-05-16T14:45:52.012Z</time>
      </trkpt>
      <trkpt lat="45.63288" lon="5.24873">
        <ele>209</ele>
        <time>2020-05-16T14:45:53.012Z</time>
      </trkpt>
      <trkpt lat="45.6328" lon="5.24884">
        <ele>209</ele>
        <time>2020-05-16T14:45:54.012Z</time>
      </trkpt>
      <trkpt lat="45.63273" lon="5.24894">
        <ele>209</ele>
        <time>2020-05-16T14:45:55.012Z</time>
      </trkpt>
      <trkpt lat="45.63265" lon="5.24905">
        <ele>210</ele>
        <time>2020-05-16T14:45:56.012Z</time>
      </trkpt>
      <trkpt lat="45.63257" lon="5.24915">
        <ele>210</ele>
        <time>2020-05-16T14:45:57.012Z</time>
      </trkpt>
      <trkpt lat="45.6325" lon="5.24926">
        <ele>210</ele>
        <time>2020-05-16T14:45:58.012Z</time>
      </trkpt>
      <trkpt lat="45.63242" lon="5.24936">
        <ele>210</ele>
        <time>2020-05-16T14:45:59.012Z</time>
      </trkpt>
      <trkpt lat="45.63234" lon="5.24947">
        <ele>210</ele>
        <time>2020-05-16T14:46:00.012Z</time>
      </trkpt>
      <trkpt lat="45.63226" lon="5.24958">
        <ele>210</ele>
        <time>2020-05-16T14:46:01.012Z</time>
      </trkpt>
      <trkpt lat="45.63218" lon="5.24968">
        <ele>211</ele>
        <time>2020-05-16T14:46:02.012Z</time>
      </trkpt>
      <trkpt lat="45.63211" lon="5.24979">
        <ele>211</ele>
        <time>2020-05-16T14:46:03.012Z</time>
      </trkpt>
      <trkpt lat="45.63203" lon="5.2499">
        <ele>211</ele>
        <time>2020-05-16T14:46:04.012Z</time>
      </trkpt>
      <trkpt lat="45.63196" lon="5.25002">
        <ele>211</ele>
        <time>2020-05-16T14:46:05.012Z</time>
      </trkpt>
      <trkpt lat="45.63189" lon="5.25013">
        <ele>211</ele>
        <time>2020-05-16T14:46:06.012Z</time>
      </trkpt>
      <trkpt lat="45.63181" lon="5.25025">
        <ele>211</ele>
        <time>2020-05-16T14:46:07.012Z</time>
      </trkpt>
      <trkpt lat="45.63174" lon="5.25036">
        <ele>211</ele>
        <time>2020-05-16T14:46:08.012Z</time>
      </trkpt>
      <trkpt lat="45.63167" lon="5.25048">
        <ele>211</ele>
        <time>2020-05-16T14:46:09.012Z</time>
      </trkpt>
      <trkpt lat="45.63161" lon="5.2506">
        <ele>211</ele>
        <time>2020-05-16T14:46:10.012Z</time>
      </trkpt>
      <trkpt lat="45.63154" lon="5.25072">
        <ele>211</ele>
        <time>2020-05-16T14:46:11.012Z</time>
      </trkpt>
      <trkpt lat="45.63147" lon="5.25084">
        <ele>211</ele>
        <time>2020-05-16T14:46:12.012Z</time>
      </trkpt>
      <trkpt lat="45.63141" lon="5.25096">
        <ele>211</ele>
        <time>2020-05-16T14:46:13.012Z</time>
      </trkpt>
      <trkpt lat="45.63134" lon="5.25108">
        <ele>211</ele>
        <time>2020-05-16T14:46:14.012Z</time>
      </trkpt>
      <trkpt lat="45.63127" lon="5.2512">
        <ele>211</ele>
        <time>2020-05-16T14:46:15.012Z</time>
      </trkpt>
      <trkpt lat="45.63121" lon="5.25132">
        <ele>212</ele>
        <time>2020-05-16T14:46:16.012Z</time>
      </trkpt>
      <trkpt lat="45.63114" lon="5.25144">
        <ele>212</ele>
        <time>2020-05-16T14:46:17.012Z</time>
      </trkpt>
      <trkpt lat="45.63107" lon="5.25155">
        <ele>212</ele>
        <time>2020-05-16T14:46:18.012Z</time>
      </trkpt>
      <trkpt lat="45.631" lon="5.25167">
        <ele>212</ele>
        <time>2020-05-16T14:46:19.012Z</time>
      </trkpt>
      <trkpt lat="45.63093" lon="5.25179">
        <ele>212</ele>
        <time>2020-05-16T14:46:20.012Z</time>
      </trkpt>
      <trkpt lat="45.63087" lon="5.2519">
        <ele>212</ele>
        <time>2020-05-16T14:46:21.012Z</time>
      </trkpt>
      <trkpt lat="45.6308" lon="5.25202">
        <ele>212</ele>
        <time>2020-05-16T14:46:22.012Z</time>
      </trkpt>
      <trkpt lat="45.63073" lon="5.25214">
        <ele>212</ele>
        <time>2020-05-16T14:46:23.012Z</time>
      </trkpt>
      <trkpt lat="45.63067" lon="5.25226">
        <ele>212</ele>
        <time>2020-05-16T14:46:24.012Z</time>
      </trkpt>
      <trkpt lat="45.6306" lon="5.25237">
        <ele>212</ele>
        <time>2020-05-16T14:46:25.012Z</time>
      </trkpt>
      <trkpt lat="45.63054" lon="5.25249">
        <ele>212</ele>
        <time>2020-05-16T14:46:26.012Z</time>
      </trkpt>
      <trkpt lat="45.63047" lon="5.25261">
        <ele>212</ele>
        <time>2020-05-16T14:46:27.012Z</time>
      </trkpt>
      <trkpt lat="45.63041" lon="5.25272">
        <ele>213</ele>
        <time>2020-05-16T14:46:28.012Z</time>
      </trkpt>
      <trkpt lat="45.63034" lon="5.25284">
        <ele>213</ele>
        <time>2020-05-16T14:46:29.012Z</time>
      </trkpt>
      <trkpt lat="45.63028" lon="5.25295">
        <ele>213</ele>
        <time>2020-05-16T14:46:30.012Z</time>
      </trkpt>
      <trkpt lat="45.63021" lon="5.25306">
        <ele>213</ele>
        <time>2020-05-16T14:46:31.012Z</time>
      </trkpt>
      <trkpt lat="45.63015" lon="5.25318">
        <ele>213</ele>
        <time>2020-05-16T14:46:32.012Z</time>
      </trkpt>
      <trkpt lat="45.63008" lon="5.25329">
        <ele>213</ele>
        <time>2020-05-16T14:46:33.012Z</time>
      </trkpt>
      <trkpt lat="45.63002" lon="5.2534">
        <ele>213</ele>
        <time>2020-05-16T14:46:34.012Z</time>
      </trkpt>
      <trkpt lat="45.62995" lon="5.25351">
        <ele>213</ele>
        <time>2020-05-16T14:46:35.012Z</time>
      </trkpt>
      <trkpt lat="45.62989" lon="5.25362">
        <ele>213</ele>
        <time>2020-05-16T14:46:36.012Z</time>
      </trkpt>
      <trkpt lat="45.62983" lon="5.25374">
        <ele>213</ele>
        <time>2020-05-16T14:46:37.012Z</time>
      </trkpt>
      <trkpt lat="45.62976" lon="5.25385">
        <ele>213</ele>
        <time>2020-05-16T14:46:38.012Z</time>
      </trkpt>
      <trkpt lat="45.6297" lon="5.25396">
        <ele>213</ele>
        <time>2020-05-16T14:46:39.012Z</time>
      </trkpt>
      <trkpt lat="45.62964" lon="5.25407">
        <ele>213</ele>
        <time>2020-05-16T14:46:40.012Z</time>
      </trkpt>
      <trkpt lat="45.62957" lon="5.25418">
        <ele>213</ele>
        <time>2020-05-16T14:46:41.012Z</time>
      </trkpt>
      <trkpt lat="45.62951" lon="5.25429">
        <ele>213</ele>
        <time>2020-05-16T14:46:42.012Z</time>
      </trkpt>
      <trkpt lat="45.62945" lon="5.2544">
        <ele>213</ele>
        <time>2020-05-16T14:46:43.012Z</time>
      </trkpt>
      <trkpt lat="45.62939" lon="5.25451">
        <ele>213</ele>
        <time>2020-05-16T14:46:44.012Z</time>
      </trkpt>
      <trkpt lat="45.62933" lon="5.25462">
        <ele>213</ele>
        <time>2020-05-16T14:46:45.012Z</time>
      </trkpt>
      <trkpt lat="45.62926" lon="5.25473">
        <ele>213</ele>
        <time>2020-05-16T14:46:46.012Z</time>
      </trkpt>
      <trkpt lat="45.6292" lon="5.25484">
        <ele>213</ele>
        <time>2020-05-16T14:46:47.012Z</time>
      </trkpt>
      <trkpt lat="45.62914" lon="5.25495">
        <ele>213</ele>
        <time>2020-05-16T14:46:48.012Z</time>
      </trkpt>
      <trkpt lat="45.62908" lon="5.25506">
        <ele>213</ele>
        <time>2020-05-16T14:46:49.012Z</time>
      </trkpt>
      <trkpt lat="45.62902" lon="5.25517">
        <ele>213</ele>
        <time>2020-05-16T14:46:50.012Z</time>
      </trkpt>
      <trkpt lat="45.62896" lon="5.25527">
        <ele>213</ele>
        <time>2020-05-16T14:46:51.012Z</time>
      </trkpt>
      <trkpt lat="45.6289" lon="5.25537">
        <ele>213</ele>
        <time>2020-05-16T14:46:52.012Z</time>
      </trkpt>
      <trkpt lat="45.62885" lon="5.25547">
        <ele>213</ele>
        <time>2020-05-16T14:46:53.012Z</time>
      </trkpt>
      <trkpt lat="45.62878" lon="5.25557">
        <ele>213</ele>
        <time>2020-05-16T14:46:54.012Z</time>
      </trkpt>
      <trkpt lat="45.62871" lon="5.25566">
        <ele>212</ele>
        <time>2020-05-16T14:46:55.012Z</time>
      </trkpt>
      <trkpt lat="45.62863" lon="5.25575">
        <ele>212</ele>
        <time>2020-05-16T14:46:56.012Z</time>
      </trkpt>
      <trkpt lat="45.62856" lon="5.25584">
        <ele>212</ele>
        <time>2020-05-16T14:46:57.012Z</time>
      </trkpt>
      <trkpt lat="45.62848" lon="5.25593">
        <ele>212</ele>
        <time>2020-05-16T14:46:58.012Z</time>
      </trkpt>
      <trkpt lat="45.6284" lon="5.25602">
        <ele>211</ele>
        <time>2020-05-16T14:46:59.012Z</time>
      </trkpt>
      <trkpt lat="45.62832" lon="5.25611">
        <ele>211</ele>
        <time>2020-05-16T14:47:00.012Z</time>
      </trkpt>
      <trkpt lat="45.62824" lon="5.25621">
        <ele>210</ele>
        <time>2020-05-16T14:47:01.012Z</time>
      </trkpt>
      <trkpt lat="45.62816" lon="5.2563">
        <ele>210</ele>
        <time>2020-05-16T14:47:02.012Z</time>
      </trkpt>
      <trkpt lat="45.62808" lon="5.25639">
        <ele>210</ele>
        <time>2020-05-16T14:47:03.012Z</time>
      </trkpt>
      <trkpt lat="45.628" lon="5.25648">
        <ele>210</ele>
        <time>2020-05-16T14:47:04.012Z</time>
      </trkpt>
      <trkpt lat="45.62792" lon="5.25657">
        <ele>210</ele>
        <time>2020-05-16T14:47:05.012Z</time>
      </trkpt>
      <trkpt lat="45.62784" lon="5.25666">
        <ele>210</ele>
        <time>2020-05-16T14:47:06.012Z</time>
      </trkpt>
      <trkpt lat="45.62776" lon="5.25675">
        <ele>211</ele>
        <time>2020-05-16T14:47:07.012Z</time>
      </trkpt>
      <trkpt lat="45.62768" lon="5.25684">
        <ele>211</ele>
        <time>2020-05-16T14:47:08.012Z</time>
      </trkpt>
      <trkpt lat="45.6276" lon="5.25693">
        <ele>212</ele>
        <time>2020-05-16T14:47:09.012Z</time>
      </trkpt>
      <trkpt lat="45.62752" lon="5.25702">
        <ele>212</ele>
        <time>2020-05-16T14:47:10.012Z</time>
      </trkpt>
      <trkpt lat="45.62743" lon="5.25712">
        <ele>212</ele>
        <time>2020-05-16T14:47:11.012Z</time>
      </trkpt>
      <trkpt lat="45.62735" lon="5.25721">
        <ele>212</ele>
        <time>2020-05-16T14:47:12.012Z</time>
      </trkpt>
      <trkpt lat="45.62727" lon="5.2573">
        <ele>212</ele>
        <time>2020-05-16T14:47:13.012Z</time>
      </trkpt>
      <trkpt lat="45.62719" lon="5.25739">
        <ele>212</ele>
        <time>2020-05-16T14:47:14.012Z</time>
      </trkpt>
      <trkpt lat="45.62711" lon="5.25748">
        <ele>212</ele>
        <time>2020-05-16T14:47:15.012Z</time>
      </trkpt>
      <trkpt lat="45.62703" lon="5.25757">
        <ele>213</ele>
        <time>2020-05-16T14:47:16.012Z</time>
      </trkpt>
      <trkpt lat="45.62695" lon="5.25766">
        <ele>213</ele>
        <time>2020-05-16T14:47:17.012Z</time>
      </trkpt>
      <trkpt lat="45.62686" lon="5.25775">
        <ele>213</ele>
        <time>2020-05-16T14:47:18.012Z</time>
      </trkpt>
      <trkpt lat="45.62678" lon="5.25784">
        <ele>213</ele>
        <time>2020-05-16T14:47:19.012Z</time>
      </trkpt>
      <trkpt lat="45.6267" lon="5.25794">
        <ele>213</ele>
        <time>2020-05-16T14:47:20.012Z</time>
      </trkpt>
      <trkpt lat="45.62662" lon="5.25803">
        <ele>213</ele>
        <time>2020-05-16T14:47:21.012Z</time>
      </trkpt>
      <trkpt lat="45.62654" lon="5.25812">
        <ele>213</ele>
        <time>2020-05-16T14:47:22.012Z</time>
      </trkpt>
      <trkpt lat="45.62646" lon="5.2582">
        <ele>213</ele>
        <time>2020-05-16T14:47:23.012Z</time>
      </trkpt>
      <trkpt lat="45.62638" lon="5.25829">
        <ele>213</ele>
        <time>2020-05-16T14:47:24.012Z</time>
      </trkpt>
      <trkpt lat="45.6263" lon="5.25838">
        <ele>213</ele>
        <time>2020-05-16T14:47:25.012Z</time>
      </trkpt>
      <trkpt lat="45.62622" lon="5.25847">
        <ele>213</ele>
        <time>2020-05-16T14:47:26.012Z</time>
      </trkpt>
      <trkpt lat="45.62614" lon="5.25856">
        <ele>213</ele>
        <time>2020-05-16T14:47:27.012Z</time>
      </trkpt>
      <trkpt lat="45.62606" lon="5.25865">
        <ele>213</ele>
        <time>2020-05-16T14:47:28.012Z</time>
      </trkpt>
      <trkpt lat="45.62598" lon="5.25874">
        <ele>213</ele>
        <time>2020-05-16T14:47:29.012Z</time>
      </trkpt>
      <trkpt lat="45.6259" lon="5.25883">
        <ele>213</ele>
        <time>2020-05-16T14:47:30.012Z</time>
      </trkpt>
      <trkpt lat="45.62582" lon="5.25892">
        <ele>213</ele>
        <time>2020-05-16T14:47:31.012Z</time>
      </trkpt>
      <trkpt lat="45.62574" lon="5.25901">
        <ele>214</ele>
        <time>2020-05-16T14:47:32.012Z</time>
      </trkpt>
      <trkpt lat="45.62566" lon="5.2591">
        <ele>214</ele>
        <time>2020-05-16T14:47:33.012Z</time>
      </trkpt>
      <trkpt lat="45.62557" lon="5.25919">
        <ele>214</ele>
        <time>2020-05-16T14:47:34.012Z</time>
      </trkpt>
      <trkpt lat="45.62549" lon="5.25928">
        <ele>214</ele>
        <time>2020-05-16T14:47:35.012Z</time>
      </trkpt>
      <trkpt lat="45.62541" lon="5.25937">
        <ele>214</ele>
        <time>2020-05-16T14:47:36.012Z</time>
      </trkpt>
      <trkpt lat="45.62533" lon="5.25946">
        <ele>214</ele>
        <time>2020-05-16T14:47:37.012Z</time>
      </trkpt>
      <trkpt lat="45.62525" lon="5.25955">
        <ele>214</ele>
        <time>2020-05-16T14:47:38.012Z</time>
      </trkpt>
      <trkpt lat="45.62517" lon="5.25964">
        <ele>214</ele>
        <time>2020-05-16T14:47:39.012Z</time>
      </trkpt>
      <trkpt lat="45.62509" lon="5.25973">
        <ele>214</ele>
        <time>2020-05-16T14:47:40.012Z</time>
      </trkpt>
      <trkpt lat="45.625" lon="5.25982">
        <ele>214</ele>
        <time>2020-05-16T14:47:41.012Z</time>
      </trkpt>
      <trkpt lat="45.62492" lon="5.25992">
        <ele>214</ele>
        <time>2020-05-16T14:47:42.012Z</time>
      </trkpt>
      <trkpt lat="45.62484" lon="5.26001">
        <ele>214</ele>
        <time>2020-05-16T14:47:43.012Z</time>
      </trkpt>
      <trkpt lat="45.62476" lon="5.2601">
        <ele>214</ele>
        <time>2020-05-16T14:47:44.012Z</time>
      </trkpt>
      <trkpt lat="45.62467" lon="5.26019">
        <ele>214</ele>
        <time>2020-05-16T14:47:45.012Z</time>
      </trkpt>
      <trkpt lat="45.62459" lon="5.26029">
        <ele>214</ele>
        <time>2020-05-16T14:47:46.012Z</time>
      </trkpt>
      <trkpt lat="45.62451" lon="5.26038">
        <ele>214</ele>
        <time>2020-05-16T14:47:47.012Z</time>
      </trkpt>
      <trkpt lat="45.62442" lon="5.26048">
        <ele>214</ele>
        <time>2020-05-16T14:47:48.012Z</time>
      </trkpt>
      <trkpt lat="45.62434" lon="5.26057">
        <ele>214</ele>
        <time>2020-05-16T14:47:49.012Z</time>
      </trkpt>
      <trkpt lat="45.62425" lon="5.26067">
        <ele>214</ele>
        <time>2020-05-16T14:47:50.012Z</time>
      </trkpt>
      <trkpt lat="45.62417" lon="5.26076">
        <ele>214</ele>
        <time>2020-05-16T14:47:51.012Z</time>
      </trkpt>
      <trkpt lat="45.62408" lon="5.26086">
        <ele>214</ele>
        <time>2020-05-16T14:47:52.012Z</time>
      </trkpt>
      <trkpt lat="45.624" lon="5.26095">
        <ele>214</ele>
        <time>2020-05-16T14:47:53.012Z</time>
      </trkpt>
      <trkpt lat="45.62391" lon="5.26105">
        <ele>214</ele>
        <time>2020-05-16T14:47:54.012Z</time>
      </trkpt>
      <trkpt lat="45.62383" lon="5.26114">
        <ele>215</ele>
        <time>2020-05-16T14:47:55.012Z</time>
      </trkpt>
      <trkpt lat="45.62375" lon="5.26124">
        <ele>215</ele>
        <time>2020-05-16T14:47:56.012Z</time>
      </trkpt>
      <trkpt lat="45.62366" lon="5.26133">
        <ele>215</ele>
        <time>2020-05-16T14:47:57.012Z</time>
      </trkpt>
      <trkpt lat="45.62358" lon="5.26143">
        <ele>215</ele>
        <time>2020-05-16T14:47:58.012Z</time>
      </trkpt>
      <trkpt lat="45.6235" lon="5.26152">
        <ele>215</ele>
        <time>2020-05-16T14:47:59.012Z</time>
      </trkpt>
      <trkpt lat="45.62341" lon="5.26161">
        <ele>215</ele>
        <time>2020-05-16T14:48:00.012Z</time>
      </trkpt>
      <trkpt lat="45.62333" lon="5.26171">
        <ele>215</ele>
        <time>2020-05-16T14:48:01.012Z</time>
      </trkpt>
      <trkpt lat="45.62324" lon="5.2618">
        <ele>215</ele>
        <time>2020-05-16T14:48:02.012Z</time>
      </trkpt>
      <trkpt lat="45.62316" lon="5.2619">
        <ele>215</ele>
        <time>2020-05-16T14:48:03.012Z</time>
      </trkpt>
      <trkpt lat="45.62307" lon="5.26199">
        <ele>215</ele>
        <time>2020-05-16T14:48:04.012Z</time>
      </trkpt>
      <trkpt lat="45.62299" lon="5.26209">
        <ele>215</ele>
        <time>2020-05-16T14:48:05.012Z</time>
      </trkpt>
      <trkpt lat="45.6229" lon="5.26218">
        <ele>215</ele>
        <time>2020-05-16T14:48:06.012Z</time>
      </trkpt>
      <trkpt lat="45.62282" lon="5.26228">
        <ele>215</ele>
        <time>2020-05-16T14:48:07.012Z</time>
      </trkpt>
      <trkpt lat="45.62273" lon="5.26237">
        <ele>215</ele>
        <time>2020-05-16T14:48:08.012Z</time>
      </trkpt>
      <trkpt lat="45.62264" lon="5.26247">
        <ele>215</ele>
        <time>2020-05-16T14:48:09.012Z</time>
      </trkpt>
      <trkpt lat="45.62256" lon="5.26256">
        <ele>215</ele>
        <time>2020-05-16T14:48:10.012Z</time>
      </trkpt>
      <trkpt lat="45.62247" lon="5.26266">
        <ele>215</ele>
        <time>2020-05-16T14:48:11.012Z</time>
      </trkpt>
      <trkpt lat="45.62238" lon="5.26275">
        <ele>215</ele>
        <time>2020-05-16T14:48:12.012Z</time>
      </trkpt>
      <trkpt lat="45.6223" lon="5.26285">
        <ele>215</ele>
        <time>2020-05-16T14:48:13.012Z</time>
      </trkpt>
      <trkpt lat="45.62221" lon="5.26295">
        <ele>215</ele>
        <time>2020-05-16T14:48:14.012Z</time>
      </trkpt>
      <trkpt lat="45.62213" lon="5.26304">
        <ele>215</ele>
        <time>2020-05-16T14:48:15.012Z</time>
      </trkpt>
      <trkpt lat="45.62204" lon="5.26314">
        <ele>215</ele>
        <time>2020-05-16T14:48:16.012Z</time>
      </trkpt>
      <trkpt lat="45.62196" lon="5.26324">
        <ele>215</ele>
        <time>2020-05-16T14:48:17.012Z</time>
      </trkpt>
      <trkpt lat="45.62187" lon="5.26333">
        <ele>215</ele>
        <time>2020-05-16T14:48:18.012Z</time>
      </trkpt>
      <trkpt lat="45.62179" lon="5.26343">
        <ele>216</ele>
        <time>2020-05-16T14:48:19.012Z</time>
      </trkpt>
      <trkpt lat="45.6217" lon="5.26352">
        <ele>216</ele>
        <time>2020-05-16T14:48:20.012Z</time>
      </trkpt>
      <trkpt lat="45.62162" lon="5.26361">
        <ele>216</ele>
        <time>2020-05-16T14:48:21.012Z</time>
      </trkpt>
      <trkpt lat="45.62153" lon="5.26371">
        <ele>216</ele>
        <time>2020-05-16T14:48:22.012Z</time>
      </trkpt>
      <trkpt lat="45.62145" lon="5.2638">
        <ele>216</ele>
        <time>2020-05-16T14:48:23.012Z</time>
      </trkpt>
      <trkpt lat="45.62136" lon="5.2639">
        <ele>216</ele>
        <time>2020-05-16T14:48:24.012Z</time>
      </trkpt>
      <trkpt lat="45.62128" lon="5.264">
        <ele>215</ele>
        <time>2020-05-16T14:48:25.012Z</time>
      </trkpt>
      <trkpt lat="45.62119" lon="5.26409">
        <ele>216</ele>
        <time>2020-05-16T14:48:26.012Z</time>
      </trkpt>
      <trkpt lat="45.62111" lon="5.26419">
        <ele>216</ele>
        <time>2020-05-16T14:48:27.012Z</time>
      </trkpt>
      <trkpt lat="45.62102" lon="5.26428">
        <ele>216</ele>
        <time>2020-05-16T14:48:28.012Z</time>
      </trkpt>
      <trkpt lat="45.62094" lon="5.26437">
        <ele>216</ele>
        <time>2020-05-16T14:48:29.012Z</time>
      </trkpt>
      <trkpt lat="45.62085" lon="5.26447">
        <ele>216</ele>
        <time>2020-05-16T14:48:30.012Z</time>
      </trkpt>
      <trkpt lat="45.62077" lon="5.26456">
        <ele>216</ele>
        <time>2020-05-16T14:48:31.012Z</time>
      </trkpt>
      <trkpt lat="45.62068" lon="5.26465">
        <ele>216</ele>
        <time>2020-05-16T14:48:32.012Z</time>
      </trkpt>
      <trkpt lat="45.6206" lon="5.26475">
        <ele>216</ele>
        <time>2020-05-16T14:48:33.012Z</time>
      </trkpt>
      <trkpt lat="45.62052" lon="5.26485">
        <ele>216</ele>
        <time>2020-05-16T14:48:34.012Z</time>
      </trkpt>
      <trkpt lat="45.62043" lon="5.26494">
        <ele>216</ele>
        <time>2020-05-16T14:48:35.012Z</time>
      </trkpt>
      <trkpt lat="45.62035" lon="5.26504">
        <ele>216</ele>
        <time>2020-05-16T14:48:36.012Z</time>
      </trkpt>
      <trkpt lat="45.62026" lon="5.26513">
        <ele>217</ele>
        <time>2020-05-16T14:48:37.012Z</time>
      </trkpt>
      <trkpt lat="45.62018" lon="5.26523">
        <ele>217</ele>
        <time>2020-05-16T14:48:38.012Z</time>
      </trkpt>
      <trkpt lat="45.6201" lon="5.26532">
        <ele>217</ele>
        <time>2020-05-16T14:48:39.012Z</time>
      </trkpt>
      <trkpt lat="45.62001" lon="5.26541">
        <ele>217</ele>
        <time>2020-05-16T14:48:40.012Z</time>
      </trkpt>
      <trkpt lat="45.61993" lon="5.26551">
        <ele>216</ele>
        <time>2020-05-16T14:48:41.012Z</time>
      </trkpt>
      <trkpt lat="45.61985" lon="5.2656">
        <ele>217</ele>
        <time>2020-05-16T14:48:42.012Z</time>
      </trkpt>
      <trkpt lat="45.61976" lon="5.2657">
        <ele>217</ele>
        <time>2020-05-16T14:48:43.012Z</time>
      </trkpt>
      <trkpt lat="45.61968" lon="5.26579">
        <ele>217</ele>
        <time>2020-05-16T14:48:44.012Z</time>
      </trkpt>
      <trkpt lat="45.6196" lon="5.26588">
        <ele>217</ele>
        <time>2020-05-16T14:48:45.012Z</time>
      </trkpt>
      <trkpt lat="45.61951" lon="5.26598">
        <ele>217</ele>
        <time>2020-05-16T14:48:46.012Z</time>
      </trkpt>
      <trkpt lat="45.61943" lon="5.26607">
        <ele>217</ele>
        <time>2020-05-16T14:48:47.012Z</time>
      </trkpt>
      <trkpt lat="45.61935" lon="5.26616">
        <ele>217</ele>
        <time>2020-05-16T14:48:48.012Z</time>
      </trkpt>
      <trkpt lat="45.61927" lon="5.26625">
        <ele>217</ele>
        <time>2020-05-16T14:48:49.012Z</time>
      </trkpt>
      <trkpt lat="45.61918" lon="5.26634">
        <ele>217</ele>
        <time>2020-05-16T14:48:50.012Z</time>
      </trkpt>
      <trkpt lat="45.6191" lon="5.26643">
        <ele>217</ele>
        <time>2020-05-16T14:48:51.012Z</time>
      </trkpt>
      <trkpt lat="45.61902" lon="5.26652">
        <ele>217</ele>
        <time>2020-05-16T14:48:52.012Z</time>
      </trkpt>
      <trkpt lat="45.61894" lon="5.26661">
        <ele>217</ele>
        <time>2020-05-16T14:48:53.012Z</time>
      </trkpt>
      <trkpt lat="45.61886" lon="5.2667">
        <ele>218</ele>
        <time>2020-05-16T14:48:54.012Z</time>
      </trkpt>
      <trkpt lat="45.61879" lon="5.26678">
        <ele>218</ele>
        <time>2020-05-16T14:48:55.012Z</time>
      </trkpt>
      <trkpt lat="45.61871" lon="5.26687">
        <ele>218</ele>
        <time>2020-05-16T14:48:56.012Z</time>
      </trkpt>
      <trkpt lat="45.61863" lon="5.26695">
        <ele>218</ele>
        <time>2020-05-16T14:48:57.012Z</time>
      </trkpt>
      <trkpt lat="45.61855" lon="5.26704">
        <ele>218</ele>
        <time>2020-05-16T14:48:58.012Z</time>
      </trkpt>
      <trkpt lat="45.61848" lon="5.26712">
        <ele>218</ele>
        <time>2020-05-16T14:48:59.012Z</time>
      </trkpt>
      <trkpt lat="45.6184" lon="5.2672">
        <ele>218</ele>
        <time>2020-05-16T14:49:00.012Z</time>
      </trkpt>
      <trkpt lat="45.61832" lon="5.26728">
        <ele>217</ele>
        <time>2020-05-16T14:49:01.012Z</time>
      </trkpt>
      <trkpt lat="45.61824" lon="5.26735">
        <ele>218</ele>
        <time>2020-05-16T14:49:02.012Z</time>
      </trkpt>
      <trkpt lat="45.61816" lon="5.26742">
        <ele>218</ele>
        <time>2020-05-16T14:49:03.012Z</time>
      </trkpt>
      <trkpt lat="45.61808" lon="5.26749">
        <ele>218</ele>
        <time>2020-05-16T14:49:04.012Z</time>
      </trkpt>
      <trkpt lat="45.618" lon="5.26756">
        <ele>218</ele>
        <time>2020-05-16T14:49:05.012Z</time>
      </trkpt>
      <trkpt lat="45.61792" lon="5.26762">
        <ele>217</ele>
        <time>2020-05-16T14:49:06.012Z</time>
      </trkpt>
      <trkpt lat="45.61784" lon="5.2677">
        <ele>217</ele>
        <time>2020-05-16T14:49:07.012Z</time>
      </trkpt>
      <trkpt lat="45.61776" lon="5.26777">
        <ele>217</ele>
        <time>2020-05-16T14:49:08.012Z</time>
      </trkpt>
      <trkpt lat="45.61769" lon="5.26785">
        <ele>219</ele>
        <time>2020-05-16T14:49:09.012Z</time>
      </trkpt>
      <trkpt lat="45.61761" lon="5.26794">
        <ele>219</ele>
        <time>2020-05-16T14:49:10.012Z</time>
      </trkpt>
      <trkpt lat="45.61754" lon="5.26803">
        <ele>219</ele>
        <time>2020-05-16T14:49:11.012Z</time>
      </trkpt>
      <trkpt lat="45.61747" lon="5.26812">
        <ele>219</ele>
        <time>2020-05-16T14:49:12.012Z</time>
      </trkpt>
      <trkpt lat="45.6174" lon="5.26821">
        <ele>219</ele>
        <time>2020-05-16T14:49:13.012Z</time>
      </trkpt>
      <trkpt lat="45.61734" lon="5.2683">
        <ele>218</ele>
        <time>2020-05-16T14:49:14.012Z</time>
      </trkpt>
      <trkpt lat="45.61727" lon="5.2684">
        <ele>219</ele>
        <time>2020-05-16T14:49:15.012Z</time>
      </trkpt>
      <trkpt lat="45.6172" lon="5.26848">
        <ele>219</ele>
        <time>2020-05-16T14:49:16.012Z</time>
      </trkpt>
      <trkpt lat="45.61713" lon="5.26856">
        <ele>219</ele>
        <time>2020-05-16T14:49:17.012Z</time>
      </trkpt>
      <trkpt lat="45.61706" lon="5.26863">
        <ele>219</ele>
        <time>2020-05-16T14:49:18.012Z</time>
      </trkpt>
      <trkpt lat="45.61699" lon="5.2687">
        <ele>220</ele>
        <time>2020-05-16T14:49:19.012Z</time>
      </trkpt>
      <trkpt lat="45.61693" lon="5.26875">
        <ele>220</ele>
        <time>2020-05-16T14:49:20.012Z</time>
      </trkpt>
      <trkpt lat="45.61686" lon="5.2688">
        <ele>221</ele>
        <time>2020-05-16T14:49:21.012Z</time>
      </trkpt>
      <trkpt lat="45.61679" lon="5.26883">
        <ele>222</ele>
        <time>2020-05-16T14:49:22.012Z</time>
      </trkpt>
      <trkpt lat="45.61672" lon="5.26884">
        <ele>224</ele>
        <time>2020-05-16T14:49:23.012Z</time>
      </trkpt>
      <trkpt lat="45.61665" lon="5.26884">
        <ele>224</ele>
        <time>2020-05-16T14:49:24.012Z</time>
      </trkpt>
      <trkpt lat="45.61658" lon="5.26884">
        <ele>224</ele>
        <time>2020-05-16T14:49:25.012Z</time>
      </trkpt>
      <trkpt lat="45.61651" lon="5.26886">
        <ele>224</ele>
        <time>2020-05-16T14:49:26.012Z</time>
      </trkpt>
      <trkpt lat="45.61644" lon="5.2689">
        <ele>225</ele>
        <time>2020-05-16T14:49:27.012Z</time>
      </trkpt>
      <trkpt lat="45.61638" lon="5.26896">
        <ele>225</ele>
        <time>2020-05-16T14:49:28.012Z</time>
      </trkpt>
      <trkpt lat="45.61633" lon="5.26904">
        <ele>223</ele>
        <time>2020-05-16T14:49:29.012Z</time>
      </trkpt>
      <trkpt lat="45.61629" lon="5.26912">
        <ele>221</ele>
        <time>2020-05-16T14:49:30.012Z</time>
      </trkpt>
      <trkpt lat="45.61626" lon="5.26921">
        <ele>224</ele>
        <time>2020-05-16T14:49:31.012Z</time>
      </trkpt>
      <trkpt lat="45.61625" lon="5.26931">
        <ele>224</ele>
        <time>2020-05-16T14:49:32.012Z</time>
      </trkpt>
      <trkpt lat="45.61624" lon="5.26941">
        <ele>223</ele>
        <time>2020-05-16T14:49:33.012Z</time>
      </trkpt>
      <trkpt lat="45.61622" lon="5.2695">
        <ele>222</ele>
        <time>2020-05-16T14:49:34.012Z</time>
      </trkpt>
      <trkpt lat="45.61618" lon="5.26959">
        <ele>222</ele>
        <time>2020-05-16T14:49:35.012Z</time>
      </trkpt>
      <trkpt lat="45.61613" lon="5.26967">
        <ele>222</ele>
        <time>2020-05-16T14:49:36.012Z</time>
      </trkpt>
      <trkpt lat="45.61608" lon="5.26975">
        <ele>222</ele>
        <time>2020-05-16T14:49:37.012Z</time>
      </trkpt>
      <trkpt lat="45.61603" lon="5.26982">
        <ele>222</ele>
        <time>2020-05-16T14:49:38.012Z</time>
      </trkpt>
      <trkpt lat="45.61597" lon="5.26989">
        <ele>222</ele>
        <time>2020-05-16T14:49:39.012Z</time>
      </trkpt>
      <trkpt lat="45.61592" lon="5.26996">
        <ele>222</ele>
        <time>2020-05-16T14:49:40.012Z</time>
      </trkpt>
      <trkpt lat="45.61586" lon="5.27002">
        <ele>222</ele>
        <time>2020-05-16T14:49:41.012Z</time>
      </trkpt>
      <trkpt lat="45.61581" lon="5.27009">
        <ele>222</ele>
        <time>2020-05-16T14:49:42.012Z</time>
      </trkpt>
      <trkpt lat="45.61576" lon="5.27015">
        <ele>222</ele>
        <time>2020-05-16T14:49:43.012Z</time>
      </trkpt>
      <trkpt lat="45.6157" lon="5.2702">
        <ele>222</ele>
        <time>2020-05-16T14:49:44.012Z</time>
      </trkpt>
      <trkpt lat="45.61565" lon="5.27026">
        <ele>222</ele>
        <time>2020-05-16T14:49:45.012Z</time>
      </trkpt>
      <trkpt lat="45.61561" lon="5.27032">
        <ele>222</ele>
        <time>2020-05-16T14:49:46.012Z</time>
      </trkpt>
      <trkpt lat="45.61556" lon="5.27037">
        <ele>222</ele>
        <time>2020-05-16T14:49:47.012Z</time>
      </trkpt>
      <trkpt lat="45.61552" lon="5.27043">
        <ele>222</ele>
        <time>2020-05-16T14:49:48.012Z</time>
      </trkpt>
      <trkpt lat="45.61547" lon="5.27048">
        <ele>222</ele>
        <time>2020-05-16T14:49:49.012Z</time>
      </trkpt>
      <trkpt lat="45.61543" lon="5.27054">
        <ele>222</ele>
        <time>2020-05-16T14:49:50.012Z</time>
      </trkpt>
      <trkpt lat="45.61538" lon="5.2706">
        <ele>222</ele>
        <time>2020-05-16T14:49:51.012Z</time>
      </trkpt>
      <trkpt lat="45.61533" lon="5.27065">
        <ele>222</ele>
        <time>2020-05-16T14:49:52.012Z</time>
      </trkpt>
      <trkpt lat="45.61529" lon="5.2707">
        <ele>222</ele>
        <time>2020-05-16T14:49:53.012Z</time>
      </trkpt>
      <trkpt lat="45.61524" lon="5.27075">
        <ele>222</ele>
        <time>2020-05-16T14:49:54.012Z</time>
      </trkpt>
      <trkpt lat="45.61519" lon="5.2708">
        <ele>223</ele>
        <time>2020-05-16T14:49:55.012Z</time>
      </trkpt>
      <trkpt lat="45.61515" lon="5.27082">
        <ele>224</ele>
        <time>2020-05-16T14:49:56.012Z</time>
      </trkpt>
      <trkpt lat="45.61511" lon="5.27084">
        <ele>225</ele>
        <time>2020-05-16T14:49:57.012Z</time>
      </trkpt>
      <trkpt lat="45.61509" lon="5.27084">
        <ele>225</ele>
        <time>2020-05-16T14:49:58.012Z</time>
      </trkpt>
      <trkpt lat="45.61508" lon="5.27084">
        <ele>225</ele>
        <time>2020-05-16T14:49:59.012Z</time>
      </trkpt>
      <trkpt lat="45.61507" lon="5.27085">
        <ele>226</ele>
        <time>2020-05-16T14:50:00.012Z</time>
      </trkpt>
      <trkpt lat="45.61507" lon="5.27085">
        <ele>225</ele>
        <time>2020-05-16T14:50:01.012Z</time>
      </trkpt>
      <trkpt lat="45.61507" lon="5.27085">
        <ele>225</ele>
        <time>2020-05-16T14:50:02.012Z</time>
      </trkpt>
      <trkpt lat="45.61507" lon="5.27085">
        <ele>224</ele>
        <time>2020-05-16T14:50:03.012Z</time>
      </trkpt>
      <trkpt lat="45.61507" lon="5.27084">
        <ele>224</ele>
        <time>2020-05-16T14:50:04.012Z</time>
      </trkpt>
      <trkpt lat="45.61507" lon="5.27084">
        <ele>225</ele>
        <time>2020-05-16T14:50:05.012Z</time>
      </trkpt>
      <trkpt lat="45.61507" lon="5.27084">
        <ele>224</ele>
        <time>2020-05-16T14:50:06.012Z</time>
      </trkpt>
      <trkpt lat="45.61508" lon="5.27084">
        <ele>224</ele>
        <time>2020-05-16T14:50:07.012Z</time>
      </trkpt>
      <trkpt lat="45.61508" lon="5.27084">
        <ele>224</ele>
        <time>2020-05-16T14:50:08.012Z</time>
      </trkpt>
      <trkpt lat="45.61508" lon="5.27083">
        <ele>221</ele>
        <time>2020-05-16T14:50:09.023Z</time>
      </trkpt>
      <trkpt lat="45.61508" lon="5.27083">
        <ele>221</ele>
        <time>2020-05-16T14:50:10.023Z</time>
      </trkpt>
      <trkpt lat="45.61508" lon="5.27083">
        <ele>221</ele>
        <time>2020-05-16T14:50:11.023Z</time>
      </trkpt>
      <trkpt lat="45.61509" lon="5.27083">
        <ele>221</ele>
        <time>2020-05-16T14:50:12.023Z</time>
      </trkpt>
      <trkpt lat="45.61509" lon="5.27083">
        <ele>221</ele>
        <time>2020-05-16T14:50:13.023Z</time>
      </trkpt>
      <trkpt lat="45.61508" lon="5.27083">
        <ele>221</ele>
        <time>2020-05-16T14:50:14.023Z</time>
      </trkpt>
      <trkpt lat="45.61508" lon="5.27083">
        <ele>218</ele>
        <time>2020-05-16T14:50:15.034Z</time>
      </trkpt>
      <trkpt lat="45.61507" lon="5.27083">
        <ele>218</ele>
        <time>2020-05-16T14:50:16.034Z</time>
      </trkpt>
      <trkpt lat="45.61507" lon="5.27083">
        <ele>218</ele>
        <time>2020-05-16T14:50:17.034Z</time>
      </trkpt>
      <trkpt lat="45.61507" lon="5.27083">
        <ele>219</ele>
        <time>2020-05-16T14:50:18.034Z</time>
      </trkpt>
      <trkpt lat="45.61507" lon="5.27083">
        <ele>218</ele>
        <time>2020-05-16T14:50:19.034Z</time>
      </trkpt>
      <trkpt lat="45.61507" lon="5.27083">
        <ele>218</ele>
        <time>2020-05-16T14:50:20.034Z</time>
      </trkpt>
      <trkpt lat="45.61507" lon="5.27083">
        <ele>217</ele>
        <time>2020-05-16T14:50:21.034Z</time>
      </trkpt>
      <trkpt lat="45.61507" lon="5.27083">
        <ele>217</ele>
        <time>2020-05-16T14:50:22.034Z</time>
      </trkpt>
      <trkpt lat="45.61507" lon="5.27083">
        <ele>218</ele>
        <time>2020-05-16T14:50:23.034Z</time>
      </trkpt>
      <trkpt lat="45.61507" lon="5.27083">
        <ele>218</ele>
        <time>2020-05-16T14:50:24.034Z</time>
      </trkpt>
      <trkpt lat="45.61506" lon="5.27085">
        <ele>218</ele>
        <time>2020-05-16T14:50:25.034Z</time>
      </trkpt>
      <trkpt lat="45.61506" lon="5.27086">
        <ele>218</ele>
        <time>2020-05-16T14:50:26.034Z</time>
      </trkpt>
      <trkpt lat="45.61505" lon="5.27089">
        <ele>218</ele>
        <time>2020-05-16T14:50:27.034Z</time>
      </trkpt>
      <trkpt lat="45.61505" lon="5.27092">
        <ele>218</ele>
        <time>2020-05-16T14:50:28.034Z</time>
      </trkpt>
      <trkpt lat="45.61505" lon="5.27095">
        <ele>217</ele>
        <time>2020-05-16T14:50:29.034Z</time>
      </trkpt>
      <trkpt lat="45.61503" lon="5.27098">
        <ele>217</ele>
        <time>2020-05-16T14:50:30.034Z</time>
      </trkpt>
      <trkpt lat="45.61501" lon="5.27101">
        <ele>217</ele>
        <time>2020-05-16T14:50:31.034Z</time>
      </trkpt>
      <trkpt lat="45.61498" lon="5.27104">
        <ele>216</ele>
        <time>2020-05-16T14:50:32.034Z</time>
      </trkpt>
      <trkpt lat="45.61495" lon="5.27107">
        <ele>216</ele>
        <time>2020-05-16T14:50:33.034Z</time>
      </trkpt>
      <trkpt lat="45.61491" lon="5.27111">
        <ele>216</ele>
        <time>2020-05-16T14:50:34.034Z</time>
      </trkpt>
      <trkpt lat="45.61488" lon="5.27115">
        <ele>216</ele>
        <time>2020-05-16T14:50:35.034Z</time>
      </trkpt>
      <trkpt lat="45.61484" lon="5.2712">
        <ele>217</ele>
        <time>2020-05-16T14:50:36.034Z</time>
      </trkpt>
      <trkpt lat="45.61479" lon="5.27125">
        <ele>216</ele>
        <time>2020-05-16T14:50:37.034Z</time>
      </trkpt>
      <trkpt lat="45.61475" lon="5.2713">
        <ele>216</ele>
        <time>2020-05-16T14:50:38.034Z</time>
      </trkpt>
      <trkpt lat="45.6147" lon="5.27135">
        <ele>216</ele>
        <time>2020-05-16T14:50:39.034Z</time>
      </trkpt>
      <trkpt lat="45.61465" lon="5.2714">
        <ele>216</ele>
        <time>2020-05-16T14:50:40.034Z</time>
      </trkpt>
      <trkpt lat="45.61461" lon="5.27146">
        <ele>216</ele>
        <time>2020-05-16T14:50:41.034Z</time>
      </trkpt>
      <trkpt lat="45.61456" lon="5.27151">
        <ele>216</ele>
        <time>2020-05-16T14:50:42.034Z</time>
      </trkpt>
      <trkpt lat="45.61452" lon="5.27156">
        <ele>216</ele>
        <time>2020-05-16T14:50:43.034Z</time>
      </trkpt>
      <trkpt lat="45.61447" lon="5.27161">
        <ele>216</ele>
        <time>2020-05-16T14:50:44.034Z</time>
      </trkpt>
      <trkpt lat="45.61443" lon="5.27166">
        <ele>216</ele>
        <time>2020-05-16T14:50:45.034Z</time>
      </trkpt>
      <trkpt lat="45.61438" lon="5.27171">
        <ele>216</ele>
        <time>2020-05-16T14:50:46.034Z</time>
      </trkpt>
      <trkpt lat="45.61434" lon="5.27176">
        <ele>216</ele>
        <time>2020-05-16T14:50:47.034Z</time>
      </trkpt>
      <trkpt lat="45.6143" lon="5.27181">
        <ele>215</ele>
        <time>2020-05-16T14:50:48.034Z</time>
      </trkpt>
      <trkpt lat="45.61425" lon="5.27186">
        <ele>215</ele>
        <time>2020-05-16T14:50:49.034Z</time>
      </trkpt>
      <trkpt lat="45.61421" lon="5.27191">
        <ele>216</ele>
        <time>2020-05-16T14:50:50.034Z</time>
      </trkpt>
      <trkpt lat="45.61417" lon="5.27196">
        <ele>216</ele>
        <time>2020-05-16T14:50:51.034Z</time>
      </trkpt>
      <trkpt lat="45.61412" lon="5.27202">
        <ele>216</ele>
        <time>2020-05-16T14:50:52.034Z</time>
      </trkpt>
      <trkpt lat="45.61409" lon="5.27207">
        <ele>216</ele>
        <time>2020-05-16T14:50:53.034Z</time>
      </trkpt>
      <trkpt lat="45.61405" lon="5.27212">
        <ele>216</ele>
        <time>2020-05-16T14:50:54.034Z</time>
      </trkpt>
      <trkpt lat="45.61401" lon="5.27216">
        <ele>217</ele>
        <time>2020-05-16T14:50:55.034Z</time>
      </trkpt>
      <trkpt lat="45.61397" lon="5.27221">
        <ele>216</ele>
        <time>2020-05-16T14:50:56.034Z</time>
      </trkpt>
      <trkpt lat="45.61393" lon="5.27225">
        <ele>216</ele>
        <time>2020-05-16T14:50:57.034Z</time>
      </trkpt>
      <trkpt lat="45.61389" lon="5.27229">
        <ele>216</ele>
        <time>2020-05-16T14:50:58.034Z</time>
      </trkpt>
      <trkpt lat="45.61385" lon="5.27234">
        <ele>216</ele>
        <time>2020-05-16T14:50:59.034Z</time>
      </trkpt>
      <trkpt lat="45.61381" lon="5.27239">
        <ele>216</ele>
        <time>2020-05-16T14:51:00.034Z</time>
      </trkpt>
      <trkpt lat="45.61376" lon="5.27243">
        <ele>215</ele>
        <time>2020-05-16T14:51:01.034Z</time>
      </trkpt>
      <trkpt lat="45.61372" lon="5.27247">
        <ele>215</ele>
        <time>2020-05-16T14:51:02.034Z</time>
      </trkpt>
      <trkpt lat="45.61368" lon="5.27252">
        <ele>214</ele>
        <time>2020-05-16T14:51:03.034Z</time>
      </trkpt>
      <trkpt lat="45.61364" lon="5.27256">
        <ele>213</ele>
        <time>2020-05-16T14:51:04.034Z</time>
      </trkpt>
      <trkpt lat="45.6136" lon="5.2726">
        <ele>214</ele>
        <time>2020-05-16T14:51:05.034Z</time>
      </trkpt>
      <trkpt lat="45.61356" lon="5.27264">
        <ele>214</ele>
        <time>2020-05-16T14:51:06.034Z</time>
      </trkpt>
      <trkpt lat="45.61351" lon="5.27269">
        <ele>213</ele>
        <time>2020-05-16T14:51:07.034Z</time>
      </trkpt>
      <trkpt lat="45.61347" lon="5.27273">
        <ele>213</ele>
        <time>2020-05-16T14:51:08.034Z</time>
      </trkpt>
      <trkpt lat="45.61343" lon="5.27278">
        <ele>213</ele>
        <time>2020-05-16T14:51:09.034Z</time>
      </trkpt>
      <trkpt lat="45.61339" lon="5.27282">
        <ele>212</ele>
        <time>2020-05-16T14:51:10.034Z</time>
      </trkpt>
      <trkpt lat="45.61335" lon="5.27287">
        <ele>213</ele>
        <time>2020-05-16T14:51:11.034Z</time>
      </trkpt>
      <trkpt lat="45.6133" lon="5.27292">
        <ele>212</ele>
        <time>2020-05-16T14:51:12.034Z</time>
      </trkpt>
      <trkpt lat="45.61326" lon="5.27297">
        <ele>212</ele>
        <time>2020-05-16T14:51:13.034Z</time>
      </trkpt>
      <trkpt lat="45.61322" lon="5.27302">
        <ele>212</ele>
        <time>2020-05-16T14:51:14.034Z</time>
      </trkpt>
      <trkpt lat="45.61317" lon="5.27307">
        <ele>212</ele>
        <time>2020-05-16T14:51:15.034Z</time>
      </trkpt>
      <trkpt lat="45.61312" lon="5.27312">
        <ele>212</ele>
        <time>2020-05-16T14:51:16.034Z</time>
      </trkpt>
      <trkpt lat="45.61308" lon="5.27317">
        <ele>213</ele>
        <time>2020-05-16T14:51:17.034Z</time>
      </trkpt>
      <trkpt lat="45.61303" lon="5.27323">
        <ele>213</ele>
        <time>2020-05-16T14:51:18.034Z</time>
      </trkpt>
      <trkpt lat="45.61299" lon="5.27328">
        <ele>213</ele>
        <time>2020-05-16T14:51:19.034Z</time>
      </trkpt>
      <trkpt lat="45.61294" lon="5.27333">
        <ele>213</ele>
        <time>2020-05-16T14:51:20.034Z</time>
      </trkpt>
      <trkpt lat="45.6129" lon="5.27338">
        <ele>213</ele>
        <time>2020-05-16T14:51:21.034Z</time>
      </trkpt>
      <trkpt lat="45.61285" lon="5.27343">
        <ele>214</ele>
        <time>2020-05-16T14:51:22.034Z</time>
      </trkpt>
      <trkpt lat="45.61281" lon="5.27348">
        <ele>214</ele>
        <time>2020-05-16T14:51:23.034Z</time>
      </trkpt>
      <trkpt lat="45.61277" lon="5.27353">
        <ele>214</ele>
        <time>2020-05-16T14:51:24.034Z</time>
      </trkpt>
      <trkpt lat="45.61273" lon="5.27357">
        <ele>215</ele>
        <time>2020-05-16T14:51:25.034Z</time>
      </trkpt>
      <trkpt lat="45.61269" lon="5.27362">
        <ele>216</ele>
        <time>2020-05-16T14:51:26.034Z</time>
      </trkpt>
      <trkpt lat="45.61265" lon="5.27367">
        <ele>217</ele>
        <time>2020-05-16T14:51:27.034Z</time>
      </trkpt>
      <trkpt lat="45.61261" lon="5.27372">
        <ele>218</ele>
        <time>2020-05-16T14:51:28.034Z</time>
      </trkpt>
      <trkpt lat="45.61257" lon="5.27377">
        <ele>220</ele>
        <time>2020-05-16T14:51:29.034Z</time>
      </trkpt>
      <trkpt lat="45.61254" lon="5.27382">
        <ele>220</ele>
        <time>2020-05-16T14:51:30.034Z</time>
      </trkpt>
      <trkpt lat="45.6125" lon="5.27386">
        <ele>220</ele>
        <time>2020-05-16T14:51:31.034Z</time>
      </trkpt>
      <trkpt lat="45.61245" lon="5.2739">
        <ele>220</ele>
        <time>2020-05-16T14:51:32.034Z</time>
      </trkpt>
      <trkpt lat="45.61241" lon="5.27394">
        <ele>220</ele>
        <time>2020-05-16T14:51:33.034Z</time>
      </trkpt>
      <trkpt lat="45.61238" lon="5.27398">
        <ele>220</ele>
        <time>2020-05-16T14:51:34.034Z</time>
      </trkpt>
      <trkpt lat="45.61235" lon="5.27402">
        <ele>220</ele>
        <time>2020-05-16T14:51:35.034Z</time>
      </trkpt>
      <trkpt lat="45.61233" lon="5.27406">
        <ele>220</ele>
        <time>2020-05-16T14:51:36.034Z</time>
      </trkpt>
      <trkpt lat="45.61233" lon="5.27411">
        <ele>220</ele>
        <time>2020-05-16T14:51:37.034Z</time>
      </trkpt>
      <trkpt lat="45.61233" lon="5.27417">
        <ele>220</ele>
        <time>2020-05-16T14:51:38.034Z</time>
      </trkpt>
      <trkpt lat="45.61234" lon="5.27423">
        <ele>221</ele>
        <time>2020-05-16T14:51:39.034Z</time>
      </trkpt>
      <trkpt lat="45.61237" lon="5.27429">
        <ele>221</ele>
        <time>2020-05-16T14:51:40.034Z</time>
      </trkpt>
      <trkpt lat="45.6124" lon="5.27434">
        <ele>221</ele>
        <time>2020-05-16T14:51:41.034Z</time>
      </trkpt>
      <trkpt lat="45.61245" lon="5.27438">
        <ele>221</ele>
        <time>2020-05-16T14:51:42.034Z</time>
      </trkpt>
      <trkpt lat="45.6125" lon="5.27441">
        <ele>220</ele>
        <time>2020-05-16T14:51:43.034Z</time>
      </trkpt>
      <trkpt lat="45.61256" lon="5.27443">
        <ele>220</ele>
        <time>2020-05-16T14:51:44.034Z</time>
      </trkpt>
      <trkpt lat="45.61261" lon="5.27445">
        <ele>220</ele>
        <time>2020-05-16T14:51:45.034Z</time>
      </trkpt>
      <trkpt lat="45.61266" lon="5.27447">
        <ele>220</ele>
        <time>2020-05-16T14:51:46.034Z</time>
      </trkpt>
      <trkpt lat="45.61271" lon="5.27449">
        <ele>220</ele>
        <time>2020-05-16T14:51:47.034Z</time>
      </trkpt>
      <trkpt lat="45.61277" lon="5.27451">
        <ele>221</ele>
        <time>2020-05-16T14:51:48.034Z</time>
      </trkpt>
      <trkpt lat="45.61282" lon="5.27452">
        <ele>221</ele>
        <time>2020-05-16T14:51:49.034Z</time>
      </trkpt>
      <trkpt lat="45.61287" lon="5.27454">
        <ele>221</ele>
        <time>2020-05-16T14:51:50.034Z</time>
      </trkpt>
      <trkpt lat="45.61292" lon="5.27456">
        <ele>221</ele>
        <time>2020-05-16T14:51:51.034Z</time>
      </trkpt>
      <trkpt lat="45.61297" lon="5.27458">
        <ele>221</ele>
        <time>2020-05-16T14:51:52.034Z</time>
      </trkpt>
      <trkpt lat="45.61302" lon="5.2746">
        <ele>221</ele>
        <time>2020-05-16T14:51:53.034Z</time>
      </trkpt>
      <trkpt lat="45.61307" lon="5.27463">
        <ele>221</ele>
        <time>2020-05-16T14:51:54.034Z</time>
      </trkpt>
      <trkpt lat="45.61312" lon="5.27465">
        <ele>221</ele>
        <time>2020-05-16T14:51:55.034Z</time>
      </trkpt>
      <trkpt lat="45.61317" lon="5.27467">
        <ele>221</ele>
        <time>2020-05-16T14:51:56.034Z</time>
      </trkpt>
      <trkpt lat="45.61322" lon="5.2747">
        <ele>221</ele>
        <time>2020-05-16T14:51:57.034Z</time>
      </trkpt>
      <trkpt lat="45.61326" lon="5.27473">
        <ele>221</ele>
        <time>2020-05-16T14:51:58.034Z</time>
      </trkpt>
      <trkpt lat="45.61331" lon="5.27475">
        <ele>222</ele>
        <time>2020-05-16T14:51:59.034Z</time>
      </trkpt>
      <trkpt lat="45.61336" lon="5.27478">
        <ele>222</ele>
        <time>2020-05-16T14:52:00.034Z</time>
      </trkpt>
      <trkpt lat="45.61341" lon="5.27481">
        <ele>222</ele>
        <time>2020-05-16T14:52:01.034Z</time>
      </trkpt>
      <trkpt lat="45.61345" lon="5.27483">
        <ele>223</ele>
        <time>2020-05-16T14:52:02.034Z</time>
      </trkpt>
      <trkpt lat="45.6135" lon="5.27486">
        <ele>223</ele>
        <time>2020-05-16T14:52:03.034Z</time>
      </trkpt>
      <trkpt lat="45.61355" lon="5.27488">
        <ele>223</ele>
        <time>2020-05-16T14:52:04.034Z</time>
      </trkpt>
      <trkpt lat="45.61359" lon="5.2749">
        <ele>223</ele>
        <time>2020-05-16T14:52:05.034Z</time>
      </trkpt>
      <trkpt lat="45.61364" lon="5.27493">
        <ele>223</ele>
        <time>2020-05-16T14:52:06.034Z</time>
      </trkpt>
      <trkpt lat="45.61368" lon="5.27495">
        <ele>223</ele>
        <time>2020-05-16T14:52:07.034Z</time>
      </trkpt>
      <trkpt lat="45.61373" lon="5.27497">
        <ele>223</ele>
        <time>2020-05-16T14:52:08.034Z</time>
      </trkpt>
      <trkpt lat="45.61378" lon="5.275">
        <ele>224</ele>
        <time>2020-05-16T14:52:09.034Z</time>
      </trkpt>
      <trkpt lat="45.61382" lon="5.27502">
        <ele>224</ele>
        <time>2020-05-16T14:52:10.034Z</time>
      </trkpt>
      <trkpt lat="45.61386" lon="5.27504">
        <ele>224</ele>
        <time>2020-05-16T14:52:11.034Z</time>
      </trkpt>
      <trkpt lat="45.61391" lon="5.27507">
        <ele>224</ele>
        <time>2020-05-16T14:52:12.034Z</time>
      </trkpt>
      <trkpt lat="45.61395" lon="5.27509">
        <ele>224</ele>
        <time>2020-05-16T14:52:13.034Z</time>
      </trkpt>
      <trkpt lat="45.61399" lon="5.27511">
        <ele>224</ele>
        <time>2020-05-16T14:52:14.034Z</time>
      </trkpt>
      <trkpt lat="45.61403" lon="5.27513">
        <ele>224</ele>
        <time>2020-05-16T14:52:15.034Z</time>
      </trkpt>
      <trkpt lat="45.61408" lon="5.27516">
        <ele>225</ele>
        <time>2020-05-16T14:52:16.034Z</time>
      </trkpt>
      <trkpt lat="45.61412" lon="5.27518">
        <ele>225</ele>
        <time>2020-05-16T14:52:17.034Z</time>
      </trkpt>
      <trkpt lat="45.61416" lon="5.27519">
        <ele>225</ele>
        <time>2020-05-16T14:52:18.034Z</time>
      </trkpt>
      <trkpt lat="45.6142" lon="5.27521">
        <ele>226</ele>
        <time>2020-05-16T14:52:19.034Z</time>
      </trkpt>
      <trkpt lat="45.61423" lon="5.27523">
        <ele>226</ele>
        <time>2020-05-16T14:52:20.034Z</time>
      </trkpt>
      <trkpt lat="45.61427" lon="5.27525">
        <ele>226</ele>
        <time>2020-05-16T14:52:21.034Z</time>
      </trkpt>
      <trkpt lat="45.6143" lon="5.27527">
        <ele>226</ele>
        <time>2020-05-16T14:52:22.034Z</time>
      </trkpt>
      <trkpt lat="45.61434" lon="5.27529">
        <ele>226</ele>
        <time>2020-05-16T14:52:23.034Z</time>
      </trkpt>
      <trkpt lat="45.61438" lon="5.27532">
        <ele>226</ele>
        <time>2020-05-16T14:52:24.034Z</time>
      </trkpt>
      <trkpt lat="45.61443" lon="5.27535">
        <ele>226</ele>
        <time>2020-05-16T14:52:25.034Z</time>
      </trkpt>
      <trkpt lat="45.61448" lon="5.27537">
        <ele>226</ele>
        <time>2020-05-16T14:52:26.034Z</time>
      </trkpt>
      <trkpt lat="45.61453" lon="5.2754">
        <ele>226</ele>
        <time>2020-05-16T14:52:27.034Z</time>
      </trkpt>
      <trkpt lat="45.61458" lon="5.27542">
        <ele>227</ele>
        <time>2020-05-16T14:52:28.034Z</time>
      </trkpt>
      <trkpt lat="45.61462" lon="5.27544">
        <ele>226</ele>
        <time>2020-05-16T14:52:29.034Z</time>
      </trkpt>
      <trkpt lat="45.61467" lon="5.27546">
        <ele>226</ele>
        <time>2020-05-16T14:52:30.034Z</time>
      </trkpt>
      <trkpt lat="45.61471" lon="5.27548">
        <ele>226</ele>
        <time>2020-05-16T14:52:31.034Z</time>
      </trkpt>
      <trkpt lat="45.61475" lon="5.2755">
        <ele>225</ele>
        <time>2020-05-16T14:52:32.034Z</time>
      </trkpt>
      <trkpt lat="45.6148" lon="5.27553">
        <ele>226</ele>
        <time>2020-05-16T14:52:33.034Z</time>
      </trkpt>
      <trkpt lat="45.61484" lon="5.27555">
        <ele>226</ele>
        <time>2020-05-16T14:52:34.034Z</time>
      </trkpt>
      <trkpt lat="45.61488" lon="5.27558">
        <ele>226</ele>
        <time>2020-05-16T14:52:35.034Z</time>
      </trkpt>
      <trkpt lat="45.61492" lon="5.2756">
        <ele>226</ele>
        <time>2020-05-16T14:52:36.034Z</time>
      </trkpt>
      <trkpt lat="45.61496" lon="5.27562">
        <ele>226</ele>
        <time>2020-05-16T14:52:37.034Z</time>
      </trkpt>
      <trkpt lat="45.61499" lon="5.27564">
        <ele>226</ele>
        <time>2020-05-16T14:52:38.034Z</time>
      </trkpt>
      <trkpt lat="45.61503" lon="5.27566">
        <ele>227</ele>
        <time>2020-05-16T14:52:39.034Z</time>
      </trkpt>
      <trkpt lat="45.61507" lon="5.27569">
        <ele>227</ele>
        <time>2020-05-16T14:52:40.034Z</time>
      </trkpt>
      <trkpt lat="45.61511" lon="5.27572">
        <ele>226</ele>
        <time>2020-05-16T14:52:41.034Z</time>
      </trkpt>
      <trkpt lat="45.61514" lon="5.27576">
        <ele>227</ele>
        <time>2020-05-16T14:52:42.034Z</time>
      </trkpt>
      <trkpt lat="45.61516" lon="5.27581">
        <ele>226</ele>
        <time>2020-05-16T14:52:43.034Z</time>
      </trkpt>
      <trkpt lat="45.61518" lon="5.27587">
        <ele>227</ele>
        <time>2020-05-16T14:52:44.034Z</time>
      </trkpt>
      <trkpt lat="45.61519" lon="5.27593">
        <ele>227</ele>
        <time>2020-05-16T14:52:45.034Z</time>
      </trkpt>
      <trkpt lat="45.6152" lon="5.27599">
        <ele>227</ele>
        <time>2020-05-16T14:52:46.034Z</time>
      </trkpt>
      <trkpt lat="45.61519" lon="5.27606">
        <ele>227</ele>
        <time>2020-05-16T14:52:47.034Z</time>
      </trkpt>
      <trkpt lat="45.61519" lon="5.27612">
        <ele>227</ele>
        <time>2020-05-16T14:52:48.034Z</time>
      </trkpt>
      <trkpt lat="45.61518" lon="5.27618">
        <ele>227</ele>
        <time>2020-05-16T14:52:49.034Z</time>
      </trkpt>
      <trkpt lat="45.61516" lon="5.27624">
        <ele>227</ele>
        <time>2020-05-16T14:52:50.034Z</time>
      </trkpt>
      <trkpt lat="45.61515" lon="5.2763">
        <ele>228</ele>
        <time>2020-05-16T14:52:51.034Z</time>
      </trkpt>
      <trkpt lat="45.61514" lon="5.27636">
        <ele>228</ele>
        <time>2020-05-16T14:52:52.034Z</time>
      </trkpt>
      <trkpt lat="45.61512" lon="5.27641">
        <ele>228</ele>
        <time>2020-05-16T14:52:53.034Z</time>
      </trkpt>
      <trkpt lat="45.61511" lon="5.27647">
        <ele>228</ele>
        <time>2020-05-16T14:52:54.034Z</time>
      </trkpt>
      <trkpt lat="45.6151" lon="5.27653">
        <ele>228</ele>
        <time>2020-05-16T14:52:55.034Z</time>
      </trkpt>
      <trkpt lat="45.61509" lon="5.27659">
        <ele>228</ele>
        <time>2020-05-16T14:52:56.034Z</time>
      </trkpt>
      <trkpt lat="45.61507" lon="5.27664">
        <ele>228</ele>
        <time>2020-05-16T14:52:57.034Z</time>
      </trkpt>
      <trkpt lat="45.61506" lon="5.2767">
        <ele>228</ele>
        <time>2020-05-16T14:52:58.034Z</time>
      </trkpt>
      <trkpt lat="45.61504" lon="5.27676">
        <ele>228</ele>
        <time>2020-05-16T14:52:59.034Z</time>
      </trkpt>
      <trkpt lat="45.61503" lon="5.27681">
        <ele>228</ele>
        <time>2020-05-16T14:53:00.034Z</time>
      </trkpt>
      <trkpt lat="45.61501" lon="5.27687">
        <ele>229</ele>
        <time>2020-05-16T14:53:01.034Z</time>
      </trkpt>
      <trkpt lat="45.615" lon="5.27692">
        <ele>229</ele>
        <time>2020-05-16T14:53:02.034Z</time>
      </trkpt>
      <trkpt lat="45.61498" lon="5.27698">
        <ele>229</ele>
        <time>2020-05-16T14:53:03.034Z</time>
      </trkpt>
      <trkpt lat="45.61497" lon="5.27704">
        <ele>229</ele>
        <time>2020-05-16T14:53:04.034Z</time>
      </trkpt>
      <trkpt lat="45.61495" lon="5.27709">
        <ele>230</ele>
        <time>2020-05-16T14:53:05.034Z</time>
      </trkpt>
      <trkpt lat="45.61494" lon="5.27715">
        <ele>230</ele>
        <time>2020-05-16T14:53:06.034Z</time>
      </trkpt>
      <trkpt lat="45.61492" lon="5.27721">
        <ele>230</ele>
        <time>2020-05-16T14:53:07.034Z</time>
      </trkpt>
      <trkpt lat="45.61491" lon="5.27726">
        <ele>230</ele>
        <time>2020-05-16T14:53:08.034Z</time>
      </trkpt>
      <trkpt lat="45.61489" lon="5.27732">
        <ele>230</ele>
        <time>2020-05-16T14:53:09.034Z</time>
      </trkpt>
      <trkpt lat="45.61488" lon="5.27737">
        <ele>230</ele>
        <time>2020-05-16T14:53:10.034Z</time>
      </trkpt>
      <trkpt lat="45.61486" lon="5.27743">
        <ele>230</ele>
        <time>2020-05-16T14:53:11.034Z</time>
      </trkpt>
      <trkpt lat="45.61483" lon="5.27748">
        <ele>230</ele>
        <time>2020-05-16T14:53:12.034Z</time>
      </trkpt>
      <trkpt lat="45.61481" lon="5.27753">
        <ele>230</ele>
        <time>2020-05-16T14:53:13.034Z</time>
      </trkpt>
      <trkpt lat="45.61479" lon="5.27758">
        <ele>229</ele>
        <time>2020-05-16T14:53:14.034Z</time>
      </trkpt>
      <trkpt lat="45.61476" lon="5.27764">
        <ele>229</ele>
        <time>2020-05-16T14:53:15.034Z</time>
      </trkpt>
      <trkpt lat="45.61474" lon="5.27769">
        <ele>229</ele>
        <time>2020-05-16T14:53:16.034Z</time>
      </trkpt>
      <trkpt lat="45.61472" lon="5.27775">
        <ele>229</ele>
        <time>2020-05-16T14:53:17.034Z</time>
      </trkpt>
      <trkpt lat="45.61471" lon="5.27781">
        <ele>229</ele>
        <time>2020-05-16T14:53:18.034Z</time>
      </trkpt>
      <trkpt lat="45.61469" lon="5.27786">
        <ele>229</ele>
        <time>2020-05-16T14:53:19.034Z</time>
      </trkpt>
      <trkpt lat="45.61468" lon="5.27792">
        <ele>229</ele>
        <time>2020-05-16T14:53:20.034Z</time>
      </trkpt>
      <trkpt lat="45.61466" lon="5.27798">
        <ele>229</ele>
        <time>2020-05-16T14:53:21.034Z</time>
      </trkpt>
      <trkpt lat="45.61465" lon="5.27803">
        <ele>230</ele>
        <time>2020-05-16T14:53:22.034Z</time>
      </trkpt>
      <trkpt lat="45.61464" lon="5.27809">
        <ele>231</ele>
        <time>2020-05-16T14:53:23.034Z</time>
      </trkpt>
      <trkpt lat="45.61463" lon="5.27814">
        <ele>231</ele>
        <time>2020-05-16T14:53:24.034Z</time>
      </trkpt>
      <trkpt lat="45.61461" lon="5.27819">
        <ele>232</ele>
        <time>2020-05-16T14:53:25.034Z</time>
      </trkpt>
      <trkpt lat="45.6146" lon="5.27824">
        <ele>232</ele>
        <time>2020-05-16T14:53:26.034Z</time>
      </trkpt>
      <trkpt lat="45.61459" lon="5.27829">
        <ele>232</ele>
        <time>2020-05-16T14:53:27.034Z</time>
      </trkpt>
      <trkpt lat="45.61457" lon="5.27835">
        <ele>232</ele>
        <time>2020-05-16T14:53:28.034Z</time>
      </trkpt>
      <trkpt lat="45.61456" lon="5.2784">
        <ele>231</ele>
        <time>2020-05-16T14:53:29.034Z</time>
      </trkpt>
      <trkpt lat="45.61454" lon="5.27845">
        <ele>231</ele>
        <time>2020-05-16T14:53:30.034Z</time>
      </trkpt>
      <trkpt lat="45.61453" lon="5.27851">
        <ele>231</ele>
        <time>2020-05-16T14:53:31.034Z</time>
      </trkpt>
      <trkpt lat="45.61452" lon="5.27856">
        <ele>231</ele>
        <time>2020-05-16T14:53:32.034Z</time>
      </trkpt>
      <trkpt lat="45.61451" lon="5.27861">
        <ele>231</ele>
        <time>2020-05-16T14:53:33.034Z</time>
      </trkpt>
      <trkpt lat="45.61449" lon="5.27866">
        <ele>232</ele>
        <time>2020-05-16T14:53:34.034Z</time>
      </trkpt>
      <trkpt lat="45.61448" lon="5.27872">
        <ele>232</ele>
        <time>2020-05-16T14:53:35.034Z</time>
      </trkpt>
      <trkpt lat="45.61447" lon="5.27877">
        <ele>233</ele>
        <time>2020-05-16T14:53:36.034Z</time>
      </trkpt>
      <trkpt lat="45.61446" lon="5.27883">
        <ele>233</ele>
        <time>2020-05-16T14:53:37.034Z</time>
      </trkpt>
      <trkpt lat="45.61445" lon="5.27888">
        <ele>234</ele>
        <time>2020-05-16T14:53:38.034Z</time>
      </trkpt>
      <trkpt lat="45.61444" lon="5.27894">
        <ele>234</ele>
        <time>2020-05-16T14:53:39.034Z</time>
      </trkpt>
      <trkpt lat="45.61443" lon="5.27899">
        <ele>234</ele>
        <time>2020-05-16T14:53:40.034Z</time>
      </trkpt>
      <trkpt lat="45.61443" lon="5.27905">
        <ele>235</ele>
        <time>2020-05-16T14:53:41.034Z</time>
      </trkpt>
      <trkpt lat="45.61444" lon="5.27911">
        <ele>236</ele>
        <time>2020-05-16T14:53:42.034Z</time>
      </trkpt>
      <trkpt lat="45.61446" lon="5.27917">
        <ele>237</ele>
        <time>2020-05-16T14:53:43.034Z</time>
      </trkpt>
      <trkpt lat="45.61449" lon="5.27922">
        <ele>236</ele>
        <time>2020-05-16T14:53:44.034Z</time>
      </trkpt>
      <trkpt lat="45.61451" lon="5.27926">
        <ele>237</ele>
        <time>2020-05-16T14:53:45.034Z</time>
      </trkpt>
      <trkpt lat="45.61454" lon="5.27929">
        <ele>237</ele>
        <time>2020-05-16T14:53:46.034Z</time>
      </trkpt>
      <trkpt lat="45.61456" lon="5.27932">
        <ele>237</ele>
        <time>2020-05-16T14:53:47.034Z</time>
      </trkpt>
      <trkpt lat="45.61459" lon="5.27934">
        <ele>237</ele>
        <time>2020-05-16T14:53:48.034Z</time>
      </trkpt>
      <trkpt lat="45.61461" lon="5.27936">
        <ele>237</ele>
        <time>2020-05-16T14:53:49.034Z</time>
      </trkpt>
      <trkpt lat="45.61464" lon="5.27937">
        <ele>237</ele>
        <time>2020-05-16T14:53:50.034Z</time>
      </trkpt>
      <trkpt lat="45.61467" lon="5.27939">
        <ele>237</ele>
        <time>2020-05-16T14:53:51.034Z</time>
      </trkpt>
      <trkpt lat="45.6147" lon="5.2794">
        <ele>238</ele>
        <time>2020-05-16T14:53:52.034Z</time>
      </trkpt>
      <trkpt lat="45.61473" lon="5.27942">
        <ele>238</ele>
        <time>2020-05-16T14:53:53.034Z</time>
      </trkpt>
      <trkpt lat="45.61477" lon="5.27943">
        <ele>238</ele>
        <time>2020-05-16T14:53:54.034Z</time>
      </trkpt>
      <trkpt lat="45.6148" lon="5.27944">
        <ele>238</ele>
        <time>2020-05-16T14:53:55.034Z</time>
      </trkpt>
      <trkpt lat="45.61483" lon="5.27945">
        <ele>239</ele>
        <time>2020-05-16T14:53:56.034Z</time>
      </trkpt>
      <trkpt lat="45.61487" lon="5.27946">
        <ele>240</ele>
        <time>2020-05-16T14:53:57.034Z</time>
      </trkpt>
      <trkpt lat="45.6149" lon="5.27947">
        <ele>241</ele>
        <time>2020-05-16T14:53:58.034Z</time>
      </trkpt>
      <trkpt lat="45.61493" lon="5.27948">
        <ele>242</ele>
        <time>2020-05-16T14:53:59.034Z</time>
      </trkpt>
      <trkpt lat="45.61496" lon="5.27949">
        <ele>242</ele>
        <time>2020-05-16T14:54:00.034Z</time>
      </trkpt>
      <trkpt lat="45.61499" lon="5.2795">
        <ele>242</ele>
        <time>2020-05-16T14:54:01.034Z</time>
      </trkpt>
      <trkpt lat="45.61502" lon="5.2795">
        <ele>244</ele>
        <time>2020-05-16T14:54:02.034Z</time>
      </trkpt>
      <trkpt lat="45.61505" lon="5.27951">
        <ele>245</ele>
        <time>2020-05-16T14:54:03.034Z</time>
      </trkpt>
      <trkpt lat="45.61508" lon="5.27953">
        <ele>245</ele>
        <time>2020-05-16T14:54:04.034Z</time>
      </trkpt>
      <trkpt lat="45.61512" lon="5.27954">
        <ele>245</ele>
        <time>2020-05-16T14:54:05.034Z</time>
      </trkpt>
      <trkpt lat="45.61515" lon="5.27956">
        <ele>245</ele>
        <time>2020-05-16T14:54:06.034Z</time>
      </trkpt>
      <trkpt lat="45.61518" lon="5.27957">
        <ele>244</ele>
        <time>2020-05-16T14:54:07.034Z</time>
      </trkpt>
      <trkpt lat="45.61521" lon="5.27958">
        <ele>245</ele>
        <time>2020-05-16T14:54:08.034Z</time>
      </trkpt>
      <trkpt lat="45.61524" lon="5.27959">
        <ele>244</ele>
        <time>2020-05-16T14:54:09.034Z</time>
      </trkpt>
      <trkpt lat="45.61527" lon="5.2796">
        <ele>244</ele>
        <time>2020-05-16T14:54:10.034Z</time>
      </trkpt>
      <trkpt lat="45.61529" lon="5.27961">
        <ele>244</ele>
        <time>2020-05-16T14:54:11.034Z</time>
      </trkpt>
      <trkpt lat="45.61532" lon="5.27963">
        <ele>245</ele>
        <time>2020-05-16T14:54:12.034Z</time>
      </trkpt>
      <trkpt lat="45.61535" lon="5.27964">
        <ele>245</ele>
        <time>2020-05-16T14:54:13.034Z</time>
      </trkpt>
      <trkpt lat="45.61538" lon="5.27966">
        <ele>245</ele>
        <time>2020-05-16T14:54:14.034Z</time>
      </trkpt>
      <trkpt lat="45.6154" lon="5.27967">
        <ele>245</ele>
        <time>2020-05-16T14:54:15.034Z</time>
      </trkpt>
      <trkpt lat="45.61543" lon="5.27969">
        <ele>245</ele>
        <time>2020-05-16T14:54:16.034Z</time>
      </trkpt>
      <trkpt lat="45.61546" lon="5.2797">
        <ele>246</ele>
        <time>2020-05-16T14:54:17.034Z</time>
      </trkpt>
      <trkpt lat="45.61549" lon="5.27972">
        <ele>245</ele>
        <time>2020-05-16T14:54:18.034Z</time>
      </trkpt>
      <trkpt lat="45.61552" lon="5.27973">
        <ele>245</ele>
        <time>2020-05-16T14:54:19.034Z</time>
      </trkpt>
      <trkpt lat="45.61555" lon="5.27975">
        <ele>245</ele>
        <time>2020-05-16T14:54:20.034Z</time>
      </trkpt>
      <trkpt lat="45.61559" lon="5.27976">
        <ele>245</ele>
        <time>2020-05-16T14:54:21.034Z</time>
      </trkpt>
      <trkpt lat="45.61562" lon="5.27978">
        <ele>245</ele>
        <time>2020-05-16T14:54:22.034Z</time>
      </trkpt>
      <trkpt lat="45.61566" lon="5.27979">
        <ele>246</ele>
        <time>2020-05-16T14:54:23.034Z</time>
      </trkpt>
      <trkpt lat="45.61569" lon="5.27981">
        <ele>245</ele>
        <time>2020-05-16T14:54:24.034Z</time>
      </trkpt>
      <trkpt lat="45.61572" lon="5.27983">
        <ele>245</ele>
        <time>2020-05-16T14:54:25.034Z</time>
      </trkpt>
      <trkpt lat="45.61575" lon="5.27984">
        <ele>245</ele>
        <time>2020-05-16T14:54:26.034Z</time>
      </trkpt>
      <trkpt lat="45.61578" lon="5.27986">
        <ele>244</ele>
        <time>2020-05-16T14:54:27.034Z</time>
      </trkpt>
      <trkpt lat="45.61581" lon="5.27987">
        <ele>244</ele>
        <time>2020-05-16T14:54:28.034Z</time>
      </trkpt>
      <trkpt lat="45.61584" lon="5.27988">
        <ele>243</ele>
        <time>2020-05-16T14:54:29.034Z</time>
      </trkpt>
      <trkpt lat="45.61587" lon="5.2799">
        <ele>243</ele>
        <time>2020-05-16T14:54:30.034Z</time>
      </trkpt>
      <trkpt lat="45.61589" lon="5.27991">
        <ele>243</ele>
        <time>2020-05-16T14:54:31.034Z</time>
      </trkpt>
      <trkpt lat="45.61592" lon="5.27992">
        <ele>243</ele>
        <time>2020-05-16T14:54:32.034Z</time>
      </trkpt>
      <trkpt lat="45.61594" lon="5.27994">
        <ele>243</ele>
        <time>2020-05-16T14:54:33.034Z</time>
      </trkpt>
      <trkpt lat="45.61597" lon="5.27996">
        <ele>244</ele>
        <time>2020-05-16T14:54:34.034Z</time>
      </trkpt>
      <trkpt lat="45.616" lon="5.27997">
        <ele>244</ele>
        <time>2020-05-16T14:54:35.034Z</time>
      </trkpt>
      <trkpt lat="45.61603" lon="5.27999">
        <ele>245</ele>
        <time>2020-05-16T14:54:36.034Z</time>
      </trkpt>
      <trkpt lat="45.61606" lon="5.28">
        <ele>245</ele>
        <time>2020-05-16T14:54:37.034Z</time>
      </trkpt>
      <trkpt lat="45.61609" lon="5.28001">
        <ele>245</ele>
        <time>2020-05-16T14:54:38.034Z</time>
      </trkpt>
      <trkpt lat="45.61612" lon="5.28003">
        <ele>246</ele>
        <time>2020-05-16T14:54:39.034Z</time>
      </trkpt>
      <trkpt lat="45.61615" lon="5.28005">
        <ele>246</ele>
        <time>2020-05-16T14:54:40.034Z</time>
      </trkpt>
      <trkpt lat="45.61617" lon="5.28007">
        <ele>246</ele>
        <time>2020-05-16T14:54:41.034Z</time>
      </trkpt>
      <trkpt lat="45.6162" lon="5.28009">
        <ele>246</ele>
        <time>2020-05-16T14:54:42.034Z</time>
      </trkpt>
      <trkpt lat="45.61622" lon="5.28012">
        <ele>245</ele>
        <time>2020-05-16T14:54:43.034Z</time>
      </trkpt>
      <trkpt lat="45.61624" lon="5.28014">
        <ele>245</ele>
        <time>2020-05-16T14:54:44.034Z</time>
      </trkpt>
      <trkpt lat="45.61627" lon="5.28016">
        <ele>246</ele>
        <time>2020-05-16T14:54:45.034Z</time>
      </trkpt>
      <trkpt lat="45.61629" lon="5.28019">
        <ele>246</ele>
        <time>2020-05-16T14:54:46.034Z</time>
      </trkpt>
      <trkpt lat="45.61631" lon="5.28021">
        <ele>246</ele>
        <time>2020-05-16T14:54:47.034Z</time>
      </trkpt>
      <trkpt lat="45.61634" lon="5.28023">
        <ele>246</ele>
        <time>2020-05-16T14:54:48.034Z</time>
      </trkpt>
      <trkpt lat="45.61636" lon="5.28026">
        <ele>246</ele>
        <time>2020-05-16T14:54:49.034Z</time>
      </trkpt>
      <trkpt lat="45.61638" lon="5.28028">
        <ele>247</ele>
        <time>2020-05-16T14:54:50.034Z</time>
      </trkpt>
      <trkpt lat="45.6164" lon="5.28031">
        <ele>247</ele>
        <time>2020-05-16T14:54:51.034Z</time>
      </trkpt>
      <trkpt lat="45.61642" lon="5.28035">
        <ele>247</ele>
        <time>2020-05-16T14:54:52.034Z</time>
      </trkpt>
      <trkpt lat="45.61643" lon="5.28038">
        <ele>247</ele>
        <time>2020-05-16T14:54:53.034Z</time>
      </trkpt>
      <trkpt lat="45.61644" lon="5.28042">
        <ele>248</ele>
        <time>2020-05-16T14:54:54.034Z</time>
      </trkpt>
      <trkpt lat="45.61645" lon="5.28045">
        <ele>248</ele>
        <time>2020-05-16T14:54:55.034Z</time>
      </trkpt>
      <trkpt lat="45.61646" lon="5.28049">
        <ele>248</ele>
        <time>2020-05-16T14:54:56.034Z</time>
      </trkpt>
      <trkpt lat="45.61647" lon="5.28052">
        <ele>249</ele>
        <time>2020-05-16T14:54:57.034Z</time>
      </trkpt>
      <trkpt lat="45.61648" lon="5.28055">
        <ele>250</ele>
        <time>2020-05-16T14:54:58.034Z</time>
      </trkpt>
      <trkpt lat="45.61649" lon="5.28059">
        <ele>250</ele>
        <time>2020-05-16T14:54:59.034Z</time>
      </trkpt>
      <trkpt lat="45.61649" lon="5.28062">
        <ele>251</ele>
        <time>2020-05-16T14:55:00.034Z</time>
      </trkpt>
      <trkpt lat="45.6165" lon="5.28066">
        <ele>251</ele>
        <time>2020-05-16T14:55:01.034Z</time>
      </trkpt>
      <trkpt lat="45.6165" lon="5.28069">
        <ele>251</ele>
        <time>2020-05-16T14:55:02.034Z</time>
      </trkpt>
      <trkpt lat="45.6165" lon="5.28073">
        <ele>251</ele>
        <time>2020-05-16T14:55:03.034Z</time>
      </trkpt>
      <trkpt lat="45.6165" lon="5.28076">
        <ele>251</ele>
        <time>2020-05-16T14:55:04.034Z</time>
      </trkpt>
      <trkpt lat="45.6165" lon="5.2808">
        <ele>252</ele>
        <time>2020-05-16T14:55:05.034Z</time>
      </trkpt>
      <trkpt lat="45.61651" lon="5.28083">
        <ele>252</ele>
        <time>2020-05-16T14:55:06.034Z</time>
      </trkpt>
      <trkpt lat="45.61651" lon="5.28086">
        <ele>252</ele>
        <time>2020-05-16T14:55:07.034Z</time>
      </trkpt>
      <trkpt lat="45.61651" lon="5.28089">
        <ele>253</ele>
        <time>2020-05-16T14:55:08.034Z</time>
      </trkpt>
      <trkpt lat="45.61651" lon="5.28093">
        <ele>253</ele>
        <time>2020-05-16T14:55:09.034Z</time>
      </trkpt>
      <trkpt lat="45.61652" lon="5.28096">
        <ele>254</ele>
        <time>2020-05-16T14:55:10.034Z</time>
      </trkpt>
      <trkpt lat="45.61652" lon="5.28099">
        <ele>254</ele>
        <time>2020-05-16T14:55:11.034Z</time>
      </trkpt>
      <trkpt lat="45.61652" lon="5.28102">
        <ele>254</ele>
        <time>2020-05-16T14:55:12.034Z</time>
      </trkpt>
      <trkpt lat="45.61652" lon="5.28105">
        <ele>254</ele>
        <time>2020-05-16T14:55:13.034Z</time>
      </trkpt>
      <trkpt lat="45.61651" lon="5.28109">
        <ele>254</ele>
        <time>2020-05-16T14:55:14.034Z</time>
      </trkpt>
      <trkpt lat="45.61651" lon="5.28113">
        <ele>254</ele>
        <time>2020-05-16T14:55:15.034Z</time>
      </trkpt>
      <trkpt lat="45.61651" lon="5.28116">
        <ele>255</ele>
        <time>2020-05-16T14:55:16.034Z</time>
      </trkpt>
      <trkpt lat="45.61651" lon="5.2812">
        <ele>255</ele>
        <time>2020-05-16T14:55:17.034Z</time>
      </trkpt>
      <trkpt lat="45.61651" lon="5.28124">
        <ele>256</ele>
        <time>2020-05-16T14:55:18.034Z</time>
      </trkpt>
      <trkpt lat="45.6165" lon="5.28128">
        <ele>256</ele>
        <time>2020-05-16T14:55:19.034Z</time>
      </trkpt>
      <trkpt lat="45.6165" lon="5.28131">
        <ele>256</ele>
        <time>2020-05-16T14:55:20.034Z</time>
      </trkpt>
      <trkpt lat="45.61649" lon="5.28135">
        <ele>256</ele>
        <time>2020-05-16T14:55:21.034Z</time>
      </trkpt>
      <trkpt lat="45.61648" lon="5.28138">
        <ele>256</ele>
        <time>2020-05-16T14:55:22.034Z</time>
      </trkpt>
      <trkpt lat="45.61647" lon="5.28142">
        <ele>256</ele>
        <time>2020-05-16T14:55:23.034Z</time>
      </trkpt>
      <trkpt lat="45.61646" lon="5.28145">
        <ele>256</ele>
        <time>2020-05-16T14:55:24.034Z</time>
      </trkpt>
      <trkpt lat="45.61645" lon="5.28148">
        <ele>257</ele>
        <time>2020-05-16T14:55:25.034Z</time>
      </trkpt>
      <trkpt lat="45.61644" lon="5.28151">
        <ele>258</ele>
        <time>2020-05-16T14:55:26.034Z</time>
      </trkpt>
      <trkpt lat="45.61643" lon="5.28155">
        <ele>258</ele>
        <time>2020-05-16T14:55:27.034Z</time>
      </trkpt>
      <trkpt lat="45.61642" lon="5.28158">
        <ele>258</ele>
        <time>2020-05-16T14:55:28.034Z</time>
      </trkpt>
      <trkpt lat="45.61641" lon="5.28162">
        <ele>259</ele>
        <time>2020-05-16T14:55:29.034Z</time>
      </trkpt>
      <trkpt lat="45.61641" lon="5.28165">
        <ele>259</ele>
        <time>2020-05-16T14:55:30.034Z</time>
      </trkpt>
      <trkpt lat="45.6164" lon="5.28169">
        <ele>258</ele>
        <time>2020-05-16T14:55:31.034Z</time>
      </trkpt>
      <trkpt lat="45.6164" lon="5.28172">
        <ele>259</ele>
        <time>2020-05-16T14:55:32.034Z</time>
      </trkpt>
      <trkpt lat="45.61639" lon="5.28176">
        <ele>258</ele>
        <time>2020-05-16T14:55:33.034Z</time>
      </trkpt>
      <trkpt lat="45.61639" lon="5.28179">
        <ele>258</ele>
        <time>2020-05-16T14:55:34.034Z</time>
      </trkpt>
      <trkpt lat="45.61639" lon="5.28182">
        <ele>258</ele>
        <time>2020-05-16T14:55:35.034Z</time>
      </trkpt>
      <trkpt lat="45.61639" lon="5.28185">
        <ele>258</ele>
        <time>2020-05-16T14:55:36.034Z</time>
      </trkpt>
      <trkpt lat="45.6164" lon="5.28188">
        <ele>257</ele>
        <time>2020-05-16T14:55:37.034Z</time>
      </trkpt>
      <trkpt lat="45.6164" lon="5.28191">
        <ele>257</ele>
        <time>2020-05-16T14:55:38.034Z</time>
      </trkpt>
      <trkpt lat="45.61641" lon="5.28194">
        <ele>257</ele>
        <time>2020-05-16T14:55:39.034Z</time>
      </trkpt>
      <trkpt lat="45.61641" lon="5.28197">
        <ele>256</ele>
        <time>2020-05-16T14:55:40.034Z</time>
      </trkpt>
      <trkpt lat="45.61642" lon="5.282">
        <ele>258</ele>
        <time>2020-05-16T14:55:41.034Z</time>
      </trkpt>
      <trkpt lat="45.61643" lon="5.28203">
        <ele>258</ele>
        <time>2020-05-16T14:55:42.034Z</time>
      </trkpt>
      <trkpt lat="45.61644" lon="5.28206">
        <ele>259</ele>
        <time>2020-05-16T14:55:43.034Z</time>
      </trkpt>
      <trkpt lat="45.61645" lon="5.28208">
        <ele>260</ele>
        <time>2020-05-16T14:55:44.034Z</time>
      </trkpt>
      <trkpt lat="45.61647" lon="5.28211">
        <ele>261</ele>
        <time>2020-05-16T14:55:45.034Z</time>
      </trkpt>
      <trkpt lat="45.61648" lon="5.28213">
        <ele>261</ele>
        <time>2020-05-16T14:55:46.034Z</time>
      </trkpt>
      <trkpt lat="45.61649" lon="5.28216">
        <ele>262</ele>
        <time>2020-05-16T14:55:47.034Z</time>
      </trkpt>
      <trkpt lat="45.61649" lon="5.28219">
        <ele>262</ele>
        <time>2020-05-16T14:55:48.034Z</time>
      </trkpt>
      <trkpt lat="45.6165" lon="5.28221">
        <ele>263</ele>
        <time>2020-05-16T14:55:49.034Z</time>
      </trkpt>
      <trkpt lat="45.61651" lon="5.28224">
        <ele>264</ele>
        <time>2020-05-16T14:55:50.034Z</time>
      </trkpt>
      <trkpt lat="45.61653" lon="5.28226">
        <ele>264</ele>
        <time>2020-05-16T14:55:51.034Z</time>
      </trkpt>
      <trkpt lat="45.61654" lon="5.28229">
        <ele>264</ele>
        <time>2020-05-16T14:55:52.034Z</time>
      </trkpt>
      <trkpt lat="45.61655" lon="5.28231">
        <ele>265</ele>
        <time>2020-05-16T14:55:53.034Z</time>
      </trkpt>
      <trkpt lat="45.61656" lon="5.28234">
        <ele>265</ele>
        <time>2020-05-16T14:55:54.034Z</time>
      </trkpt>
      <trkpt lat="45.61657" lon="5.28237">
        <ele>266</ele>
        <time>2020-05-16T14:55:55.034Z</time>
      </trkpt>
      <trkpt lat="45.61658" lon="5.2824">
        <ele>266</ele>
        <time>2020-05-16T14:55:56.034Z</time>
      </trkpt>
      <trkpt lat="45.6166" lon="5.28242">
        <ele>267</ele>
        <time>2020-05-16T14:55:57.034Z</time>
      </trkpt>
      <trkpt lat="45.61661" lon="5.28245">
        <ele>267</ele>
        <time>2020-05-16T14:55:58.034Z</time>
      </trkpt>
      <trkpt lat="45.61662" lon="5.28248">
        <ele>268</ele>
        <time>2020-05-16T14:55:59.034Z</time>
      </trkpt>
      <trkpt lat="45.61663" lon="5.28251">
        <ele>268</ele>
        <time>2020-05-16T14:56:00.034Z</time>
      </trkpt>
      <trkpt lat="45.61664" lon="5.28254">
        <ele>268</ele>
        <time>2020-05-16T14:56:01.034Z</time>
      </trkpt>
      <trkpt lat="45.61665" lon="5.28256">
        <ele>268</ele>
        <time>2020-05-16T14:56:02.034Z</time>
      </trkpt>
      <trkpt lat="45.61667" lon="5.28259">
        <ele>268</ele>
        <time>2020-05-16T14:56:03.034Z</time>
      </trkpt>
      <trkpt lat="45.61668" lon="5.28262">
        <ele>269</ele>
        <time>2020-05-16T14:56:04.034Z</time>
      </trkpt>
      <trkpt lat="45.61669" lon="5.28265">
        <ele>269</ele>
        <time>2020-05-16T14:56:05.034Z</time>
      </trkpt>
      <trkpt lat="45.6167" lon="5.28268">
        <ele>269</ele>
        <time>2020-05-16T14:56:06.034Z</time>
      </trkpt>
      <trkpt lat="45.61671" lon="5.28271">
        <ele>269</ele>
        <time>2020-05-16T14:56:07.034Z</time>
      </trkpt>
      <trkpt lat="45.61672" lon="5.28275">
        <ele>270</ele>
        <time>2020-05-16T14:56:08.034Z</time>
      </trkpt>
      <trkpt lat="45.61673" lon="5.28277">
        <ele>270</ele>
        <time>2020-05-16T14:56:09.034Z</time>
      </trkpt>
      <trkpt lat="45.61675" lon="5.2828">
        <ele>271</ele>
        <time>2020-05-16T14:56:10.034Z</time>
      </trkpt>
      <trkpt lat="45.61676" lon="5.28283">
        <ele>271</ele>
        <time>2020-05-16T14:56:11.034Z</time>
      </trkpt>
      <trkpt lat="45.61677" lon="5.28286">
        <ele>272</ele>
        <time>2020-05-16T14:56:12.034Z</time>
      </trkpt>
      <trkpt lat="45.61678" lon="5.28289">
        <ele>273</ele>
        <time>2020-05-16T14:56:13.034Z</time>
      </trkpt>
      <trkpt lat="45.61679" lon="5.28292">
        <ele>273</ele>
        <time>2020-05-16T14:56:14.034Z</time>
      </trkpt>
      <trkpt lat="45.6168" lon="5.28295">
        <ele>273</ele>
        <time>2020-05-16T14:56:15.034Z</time>
      </trkpt>
      <trkpt lat="45.61681" lon="5.28298">
        <ele>274</ele>
        <time>2020-05-16T14:56:16.034Z</time>
      </trkpt>
      <trkpt lat="45.61682" lon="5.28301">
        <ele>274</ele>
        <time>2020-05-16T14:56:17.034Z</time>
      </trkpt>
      <trkpt lat="45.61683" lon="5.28304">
        <ele>274</ele>
        <time>2020-05-16T14:56:18.034Z</time>
      </trkpt>
      <trkpt lat="45.61685" lon="5.28307">
        <ele>274</ele>
        <time>2020-05-16T14:56:19.034Z</time>
      </trkpt>
      <trkpt lat="45.61686" lon="5.28311">
        <ele>274</ele>
        <time>2020-05-16T14:56:20.034Z</time>
      </trkpt>
      <trkpt lat="45.61687" lon="5.28314">
        <ele>275</ele>
        <time>2020-05-16T14:56:21.034Z</time>
      </trkpt>
      <trkpt lat="45.61689" lon="5.28317">
        <ele>275</ele>
        <time>2020-05-16T14:56:22.034Z</time>
      </trkpt>
      <trkpt lat="45.6169" lon="5.2832">
        <ele>275</ele>
        <time>2020-05-16T14:56:23.034Z</time>
      </trkpt>
      <trkpt lat="45.61691" lon="5.28323">
        <ele>275</ele>
        <time>2020-05-16T14:56:24.034Z</time>
      </trkpt>
      <trkpt lat="45.61693" lon="5.28326">
        <ele>275</ele>
        <time>2020-05-16T14:56:25.034Z</time>
      </trkpt>
      <trkpt lat="45.61694" lon="5.28329">
        <ele>276</ele>
        <time>2020-05-16T14:56:26.034Z</time>
      </trkpt>
      <trkpt lat="45.61695" lon="5.28333">
        <ele>276</ele>
        <time>2020-05-16T14:56:27.034Z</time>
      </trkpt>
      <trkpt lat="45.61696" lon="5.28336">
        <ele>276</ele>
        <time>2020-05-16T14:56:28.034Z</time>
      </trkpt>
      <trkpt lat="45.61698" lon="5.28339">
        <ele>277</ele>
        <time>2020-05-16T14:56:29.034Z</time>
      </trkpt>
      <trkpt lat="45.61699" lon="5.28342">
        <ele>277</ele>
        <time>2020-05-16T14:56:30.034Z</time>
      </trkpt>
      <trkpt lat="45.617" lon="5.28345">
        <ele>278</ele>
        <time>2020-05-16T14:56:31.034Z</time>
      </trkpt>
      <trkpt lat="45.61701" lon="5.28349">
        <ele>278</ele>
        <time>2020-05-16T14:56:32.034Z</time>
      </trkpt>
      <trkpt lat="45.61702" lon="5.28352">
        <ele>278</ele>
        <time>2020-05-16T14:56:33.034Z</time>
      </trkpt>
      <trkpt lat="45.61704" lon="5.28355">
        <ele>278</ele>
        <time>2020-05-16T14:56:34.034Z</time>
      </trkpt>
      <trkpt lat="45.61705" lon="5.28358">
        <ele>279</ele>
        <time>2020-05-16T14:56:35.034Z</time>
      </trkpt>
      <trkpt lat="45.61706" lon="5.28362">
        <ele>279</ele>
        <time>2020-05-16T14:56:36.034Z</time>
      </trkpt>
      <trkpt lat="45.61707" lon="5.28365">
        <ele>279</ele>
        <time>2020-05-16T14:56:37.034Z</time>
      </trkpt>
      <trkpt lat="45.61708" lon="5.28369">
        <ele>279</ele>
        <time>2020-05-16T14:56:38.034Z</time>
      </trkpt>
      <trkpt lat="45.61709" lon="5.28372">
        <ele>280</ele>
        <time>2020-05-16T14:56:39.034Z</time>
      </trkpt>
      <trkpt lat="45.6171" lon="5.28376">
        <ele>280</ele>
        <time>2020-05-16T14:56:40.034Z</time>
      </trkpt>
      <trkpt lat="45.61711" lon="5.2838">
        <ele>281</ele>
        <time>2020-05-16T14:56:41.034Z</time>
      </trkpt>
      <trkpt lat="45.61712" lon="5.28384">
        <ele>281</ele>
        <time>2020-05-16T14:56:42.034Z</time>
      </trkpt>
      <trkpt lat="45.61713" lon="5.28388">
        <ele>281</ele>
        <time>2020-05-16T14:56:43.034Z</time>
      </trkpt>
      <trkpt lat="45.61714" lon="5.28392">
        <ele>282</ele>
        <time>2020-05-16T14:56:44.034Z</time>
      </trkpt>
      <trkpt lat="45.61715" lon="5.28395">
        <ele>282</ele>
        <time>2020-05-16T14:56:45.034Z</time>
      </trkpt>
      <trkpt lat="45.61716" lon="5.28399">
        <ele>282</ele>
        <time>2020-05-16T14:56:46.034Z</time>
      </trkpt>
      <trkpt lat="45.61717" lon="5.28403">
        <ele>283</ele>
        <time>2020-05-16T14:56:47.034Z</time>
      </trkpt>
      <trkpt lat="45.61718" lon="5.28407">
        <ele>283</ele>
        <time>2020-05-16T14:56:48.034Z</time>
      </trkpt>
      <trkpt lat="45.61719" lon="5.28411">
        <ele>284</ele>
        <time>2020-05-16T14:56:49.034Z</time>
      </trkpt>
      <trkpt lat="45.6172" lon="5.28415">
        <ele>284</ele>
        <time>2020-05-16T14:56:50.034Z</time>
      </trkpt>
      <trkpt lat="45.61721" lon="5.28419">
        <ele>285</ele>
        <time>2020-05-16T14:56:51.034Z</time>
      </trkpt>
      <trkpt lat="45.61722" lon="5.28423">
        <ele>285</ele>
        <time>2020-05-16T14:56:52.034Z</time>
      </trkpt>
      <trkpt lat="45.61722" lon="5.28427">
        <ele>285</ele>
        <time>2020-05-16T14:56:53.034Z</time>
      </trkpt>
      <trkpt lat="45.61723" lon="5.28431">
        <ele>285</ele>
        <time>2020-05-16T14:56:54.034Z</time>
      </trkpt>
      <trkpt lat="45.61724" lon="5.28435">
        <ele>286</ele>
        <time>2020-05-16T14:56:55.034Z</time>
      </trkpt>
      <trkpt lat="45.61725" lon="5.2844">
        <ele>286</ele>
        <time>2020-05-16T14:56:56.034Z</time>
      </trkpt>
      <trkpt lat="45.61726" lon="5.28444">
        <ele>286</ele>
        <time>2020-05-16T14:56:57.034Z</time>
      </trkpt>
      <trkpt lat="45.61727" lon="5.28448">
        <ele>286</ele>
        <time>2020-05-16T14:56:58.034Z</time>
      </trkpt>
      <trkpt lat="45.61728" lon="5.28452">
        <ele>287</ele>
        <time>2020-05-16T14:56:59.034Z</time>
      </trkpt>
      <trkpt lat="45.61729" lon="5.28457">
        <ele>287</ele>
        <time>2020-05-16T14:57:00.034Z</time>
      </trkpt>
      <trkpt lat="45.6173" lon="5.28461">
        <ele>287</ele>
        <time>2020-05-16T14:57:01.034Z</time>
      </trkpt>
      <trkpt lat="45.61731" lon="5.28466">
        <ele>287</ele>
        <time>2020-05-16T14:57:02.034Z</time>
      </trkpt>
      <trkpt lat="45.61732" lon="5.28471">
        <ele>287</ele>
        <time>2020-05-16T14:57:03.034Z</time>
      </trkpt>
      <trkpt lat="45.61734" lon="5.28476">
        <ele>287</ele>
        <time>2020-05-16T14:57:04.034Z</time>
      </trkpt>
      <trkpt lat="45.61735" lon="5.28481">
        <ele>287</ele>
        <time>2020-05-16T14:57:05.034Z</time>
      </trkpt>
      <trkpt lat="45.61736" lon="5.28486">
        <ele>287</ele>
        <time>2020-05-16T14:57:06.034Z</time>
      </trkpt>
      <trkpt lat="45.61737" lon="5.28492">
        <ele>287</ele>
        <time>2020-05-16T14:57:07.034Z</time>
      </trkpt>
      <trkpt lat="45.61738" lon="5.28497">
        <ele>287</ele>
        <time>2020-05-16T14:57:08.034Z</time>
      </trkpt>
      <trkpt lat="45.61738" lon="5.28502">
        <ele>287</ele>
        <time>2020-05-16T14:57:09.034Z</time>
      </trkpt>
      <trkpt lat="45.61739" lon="5.28508">
        <ele>287</ele>
        <time>2020-05-16T14:57:10.034Z</time>
      </trkpt>
      <trkpt lat="45.61739" lon="5.28513">
        <ele>287</ele>
        <time>2020-05-16T14:57:11.034Z</time>
      </trkpt>
      <trkpt lat="45.61739" lon="5.28519">
        <ele>288</ele>
        <time>2020-05-16T14:57:12.034Z</time>
      </trkpt>
      <trkpt lat="45.6174" lon="5.28524">
        <ele>288</ele>
        <time>2020-05-16T14:57:13.034Z</time>
      </trkpt>
      <trkpt lat="45.6174" lon="5.28529">
        <ele>288</ele>
        <time>2020-05-16T14:57:14.034Z</time>
      </trkpt>
      <trkpt lat="45.6174" lon="5.28535">
        <ele>288</ele>
        <time>2020-05-16T14:57:15.034Z</time>
      </trkpt>
      <trkpt lat="45.6174" lon="5.2854">
        <ele>289</ele>
        <time>2020-05-16T14:57:16.034Z</time>
      </trkpt>
      <trkpt lat="45.6174" lon="5.28546">
        <ele>289</ele>
        <time>2020-05-16T14:57:17.034Z</time>
      </trkpt>
      <trkpt lat="45.61741" lon="5.28551">
        <ele>289</ele>
        <time>2020-05-16T14:57:18.034Z</time>
      </trkpt>
      <trkpt lat="45.61741" lon="5.28557">
        <ele>290</ele>
        <time>2020-05-16T14:57:19.034Z</time>
      </trkpt>
      <trkpt lat="45.6174" lon="5.28562">
        <ele>290</ele>
        <time>2020-05-16T14:57:20.034Z</time>
      </trkpt>
      <trkpt lat="45.6174" lon="5.28568">
        <ele>290</ele>
        <time>2020-05-16T14:57:21.034Z</time>
      </trkpt>
      <trkpt lat="45.6174" lon="5.28573">
        <ele>291</ele>
        <time>2020-05-16T14:57:22.034Z</time>
      </trkpt>
      <trkpt lat="45.6174" lon="5.28579">
        <ele>291</ele>
        <time>2020-05-16T14:57:23.034Z</time>
      </trkpt>
      <trkpt lat="45.6174" lon="5.28584">
        <ele>291</ele>
        <time>2020-05-16T14:57:24.034Z</time>
      </trkpt>
      <trkpt lat="45.6174" lon="5.2859">
        <ele>292</ele>
        <time>2020-05-16T14:57:25.034Z</time>
      </trkpt>
      <trkpt lat="45.6174" lon="5.28595">
        <ele>292</ele>
        <time>2020-05-16T14:57:26.034Z</time>
      </trkpt>
      <trkpt lat="45.6174" lon="5.286">
        <ele>292</ele>
        <time>2020-05-16T14:57:27.034Z</time>
      </trkpt>
      <trkpt lat="45.6174" lon="5.28606">
        <ele>293</ele>
        <time>2020-05-16T14:57:28.034Z</time>
      </trkpt>
      <trkpt lat="45.61739" lon="5.28611">
        <ele>293</ele>
        <time>2020-05-16T14:57:29.034Z</time>
      </trkpt>
      <trkpt lat="45.61739" lon="5.28616">
        <ele>293</ele>
        <time>2020-05-16T14:57:30.034Z</time>
      </trkpt>
      <trkpt lat="45.61739" lon="5.28622">
        <ele>293</ele>
        <time>2020-05-16T14:57:31.034Z</time>
      </trkpt>
      <trkpt lat="45.61739" lon="5.28627">
        <ele>294</ele>
        <time>2020-05-16T14:57:32.034Z</time>
      </trkpt>
      <trkpt lat="45.61739" lon="5.28632">
        <ele>294</ele>
        <time>2020-05-16T14:57:33.034Z</time>
      </trkpt>
      <trkpt lat="45.61739" lon="5.28637">
        <ele>294</ele>
        <time>2020-05-16T14:57:34.034Z</time>
      </trkpt>
      <trkpt lat="45.61738" lon="5.28643">
        <ele>294</ele>
        <time>2020-05-16T14:57:35.034Z</time>
      </trkpt>
      <trkpt lat="45.61738" lon="5.28648">
        <ele>295</ele>
        <time>2020-05-16T14:57:36.034Z</time>
      </trkpt>
      <trkpt lat="45.61738" lon="5.28653">
        <ele>295</ele>
        <time>2020-05-16T14:57:37.034Z</time>
      </trkpt>
      <trkpt lat="45.61738" lon="5.28658">
        <ele>295</ele>
        <time>2020-05-16T14:57:38.034Z</time>
      </trkpt>
      <trkpt lat="45.61737" lon="5.28663">
        <ele>295</ele>
        <time>2020-05-16T14:57:39.034Z</time>
      </trkpt>
      <trkpt lat="45.61737" lon="5.28668">
        <ele>295</ele>
        <time>2020-05-16T14:57:40.034Z</time>
      </trkpt>
      <trkpt lat="45.61737" lon="5.28673">
        <ele>295</ele>
        <time>2020-05-16T14:57:41.034Z</time>
      </trkpt>
      <trkpt lat="45.61737" lon="5.28678">
        <ele>295</ele>
        <time>2020-05-16T14:57:42.034Z</time>
      </trkpt>
      <trkpt lat="45.61736" lon="5.28682">
        <ele>295</ele>
        <time>2020-05-16T14:57:43.034Z</time>
      </trkpt>
      <trkpt lat="45.61736" lon="5.28687">
        <ele>295</ele>
        <time>2020-05-16T14:57:44.034Z</time>
      </trkpt>
      <trkpt lat="45.61736" lon="5.28691">
        <ele>295</ele>
        <time>2020-05-16T14:57:45.034Z</time>
      </trkpt>
      <trkpt lat="45.61735" lon="5.28695">
        <ele>295</ele>
        <time>2020-05-16T14:57:46.034Z</time>
      </trkpt>
      <trkpt lat="45.61735" lon="5.28699">
        <ele>295</ele>
        <time>2020-05-16T14:57:47.034Z</time>
      </trkpt>
      <trkpt lat="45.61735" lon="5.28704">
        <ele>295</ele>
        <time>2020-05-16T14:57:48.034Z</time>
      </trkpt>
      <trkpt lat="45.61735" lon="5.28708">
        <ele>295</ele>
        <time>2020-05-16T14:57:49.034Z</time>
      </trkpt>
      <trkpt lat="45.61735" lon="5.28712">
        <ele>295</ele>
        <time>2020-05-16T14:57:50.034Z</time>
      </trkpt>
      <trkpt lat="45.61735" lon="5.28716">
        <ele>295</ele>
        <time>2020-05-16T14:57:51.034Z</time>
      </trkpt>
      <trkpt lat="45.61735" lon="5.2872">
        <ele>296</ele>
        <time>2020-05-16T14:57:52.034Z</time>
      </trkpt>
      <trkpt lat="45.61734" lon="5.28724">
        <ele>296</ele>
        <time>2020-05-16T14:57:53.034Z</time>
      </trkpt>
      <trkpt lat="45.61734" lon="5.28728">
        <ele>296</ele>
        <time>2020-05-16T14:57:54.034Z</time>
      </trkpt>
      <trkpt lat="45.61734" lon="5.28732">
        <ele>297</ele>
        <time>2020-05-16T14:57:55.034Z</time>
      </trkpt>
      <trkpt lat="45.61733" lon="5.28736">
        <ele>298</ele>
        <time>2020-05-16T14:57:56.034Z</time>
      </trkpt>
      <trkpt lat="45.61733" lon="5.2874">
        <ele>298</ele>
        <time>2020-05-16T14:57:57.034Z</time>
      </trkpt>
      <trkpt lat="45.61733" lon="5.28745">
        <ele>298</ele>
        <time>2020-05-16T14:57:58.034Z</time>
      </trkpt>
      <trkpt lat="45.61733" lon="5.28749">
        <ele>299</ele>
        <time>2020-05-16T14:57:59.034Z</time>
      </trkpt>
      <trkpt lat="45.61733" lon="5.28754">
        <ele>299</ele>
        <time>2020-05-16T14:58:00.034Z</time>
      </trkpt>
      <trkpt lat="45.61734" lon="5.28758">
        <ele>299</ele>
        <time>2020-05-16T14:58:01.034Z</time>
      </trkpt>
      <trkpt lat="45.61734" lon="5.28763">
        <ele>299</ele>
        <time>2020-05-16T14:58:02.034Z</time>
      </trkpt>
      <trkpt lat="45.61734" lon="5.28767">
        <ele>299</ele>
        <time>2020-05-16T14:58:03.034Z</time>
      </trkpt>
      <trkpt lat="45.61735" lon="5.28772">
        <ele>300</ele>
        <time>2020-05-16T14:58:04.034Z</time>
      </trkpt>
      <trkpt lat="45.61735" lon="5.28776">
        <ele>300</ele>
        <time>2020-05-16T14:58:05.034Z</time>
      </trkpt>
      <trkpt lat="45.61736" lon="5.2878">
        <ele>300</ele>
        <time>2020-05-16T14:58:06.034Z</time>
      </trkpt>
      <trkpt lat="45.61737" lon="5.28785">
        <ele>300</ele>
        <time>2020-05-16T14:58:07.034Z</time>
      </trkpt>
      <trkpt lat="45.61738" lon="5.28789">
        <ele>300</ele>
        <time>2020-05-16T14:58:08.034Z</time>
      </trkpt>
      <trkpt lat="45.61739" lon="5.28793">
        <ele>301</ele>
        <time>2020-05-16T14:58:09.034Z</time>
      </trkpt>
      <trkpt lat="45.6174" lon="5.28797">
        <ele>301</ele>
        <time>2020-05-16T14:58:10.034Z</time>
      </trkpt>
      <trkpt lat="45.61741" lon="5.28801">
        <ele>301</ele>
        <time>2020-05-16T14:58:11.034Z</time>
      </trkpt>
      <trkpt lat="45.61742" lon="5.28805">
        <ele>301</ele>
        <time>2020-05-16T14:58:12.034Z</time>
      </trkpt>
      <trkpt lat="45.61743" lon="5.28809">
        <ele>301</ele>
        <time>2020-05-16T14:58:13.034Z</time>
      </trkpt>
      <trkpt lat="45.61744" lon="5.28812">
        <ele>302</ele>
        <time>2020-05-16T14:58:14.034Z</time>
      </trkpt>
      <trkpt lat="45.61745" lon="5.28816">
        <ele>302</ele>
        <time>2020-05-16T14:58:15.034Z</time>
      </trkpt>
      <trkpt lat="45.61746" lon="5.2882">
        <ele>302</ele>
        <time>2020-05-16T14:58:16.034Z</time>
      </trkpt>
      <trkpt lat="45.61747" lon="5.28824">
        <ele>302</ele>
        <time>2020-05-16T14:58:17.034Z</time>
      </trkpt>
      <trkpt lat="45.61748" lon="5.28828">
        <ele>302</ele>
        <time>2020-05-16T14:58:18.034Z</time>
      </trkpt>
      <trkpt lat="45.61749" lon="5.28833">
        <ele>302</ele>
        <time>2020-05-16T14:58:19.034Z</time>
      </trkpt>
      <trkpt lat="45.6175" lon="5.28837">
        <ele>303</ele>
        <time>2020-05-16T14:58:20.034Z</time>
      </trkpt>
      <trkpt lat="45.61752" lon="5.28841">
        <ele>303</ele>
        <time>2020-05-16T14:58:21.034Z</time>
      </trkpt>
      <trkpt lat="45.61753" lon="5.28845">
        <ele>303</ele>
        <time>2020-05-16T14:58:22.034Z</time>
      </trkpt>
      <trkpt lat="45.61754" lon="5.28849">
        <ele>303</ele>
        <time>2020-05-16T14:58:23.034Z</time>
      </trkpt>
      <trkpt lat="45.61756" lon="5.28853">
        <ele>304</ele>
        <time>2020-05-16T14:58:24.034Z</time>
      </trkpt>
      <trkpt lat="45.61757" lon="5.28857">
        <ele>304</ele>
        <time>2020-05-16T14:58:25.034Z</time>
      </trkpt>
      <trkpt lat="45.61758" lon="5.28861">
        <ele>304</ele>
        <time>2020-05-16T14:58:26.034Z</time>
      </trkpt>
      <trkpt lat="45.61759" lon="5.28865">
        <ele>304</ele>
        <time>2020-05-16T14:58:27.034Z</time>
      </trkpt>
      <trkpt lat="45.6176" lon="5.28869">
        <ele>304</ele>
        <time>2020-05-16T14:58:28.034Z</time>
      </trkpt>
      <trkpt lat="45.61762" lon="5.28873">
        <ele>304</ele>
        <time>2020-05-16T14:58:29.034Z</time>
      </trkpt>
      <trkpt lat="45.61763" lon="5.28876">
        <ele>304</ele>
        <time>2020-05-16T14:58:30.034Z</time>
      </trkpt>
      <trkpt lat="45.61764" lon="5.2888">
        <ele>305</ele>
        <time>2020-05-16T14:58:31.034Z</time>
      </trkpt>
      <trkpt lat="45.61765" lon="5.28884">
        <ele>305</ele>
        <time>2020-05-16T14:58:32.034Z</time>
      </trkpt>
      <trkpt lat="45.61766" lon="5.28887">
        <ele>305</ele>
        <time>2020-05-16T14:58:33.034Z</time>
      </trkpt>
      <trkpt lat="45.61767" lon="5.28891">
        <ele>306</ele>
        <time>2020-05-16T14:58:34.034Z</time>
      </trkpt>
      <trkpt lat="45.61768" lon="5.28894">
        <ele>306</ele>
        <time>2020-05-16T14:58:35.034Z</time>
      </trkpt>
      <trkpt lat="45.61769" lon="5.28897">
        <ele>306</ele>
        <time>2020-05-16T14:58:36.034Z</time>
      </trkpt>
      <trkpt lat="45.6177" lon="5.289">
        <ele>306</ele>
        <time>2020-05-16T14:58:37.034Z</time>
      </trkpt>
      <trkpt lat="45.61771" lon="5.28903">
        <ele>307</ele>
        <time>2020-05-16T14:58:38.034Z</time>
      </trkpt>
      <trkpt lat="45.61771" lon="5.28907">
        <ele>307</ele>
        <time>2020-05-16T14:58:39.034Z</time>
      </trkpt>
      <trkpt lat="45.61772" lon="5.2891">
        <ele>307</ele>
        <time>2020-05-16T14:58:40.034Z</time>
      </trkpt>
      <trkpt lat="45.61773" lon="5.28913">
        <ele>308</ele>
        <time>2020-05-16T14:58:41.034Z</time>
      </trkpt>
      <trkpt lat="45.61774" lon="5.28916">
        <ele>308</ele>
        <time>2020-05-16T14:58:42.034Z</time>
      </trkpt>
      <trkpt lat="45.61775" lon="5.28919">
        <ele>308</ele>
        <time>2020-05-16T14:58:43.034Z</time>
      </trkpt>
      <trkpt lat="45.61776" lon="5.28923">
        <ele>309</ele>
        <time>2020-05-16T14:58:44.034Z</time>
      </trkpt>
      <trkpt lat="45.61776" lon="5.28927">
        <ele>309</ele>
        <time>2020-05-16T14:58:45.034Z</time>
      </trkpt>
      <trkpt lat="45.61776" lon="5.2893">
        <ele>310</ele>
        <time>2020-05-16T14:58:46.034Z</time>
      </trkpt>
      <trkpt lat="45.61776" lon="5.28934">
        <ele>310</ele>
        <time>2020-05-16T14:58:47.034Z</time>
      </trkpt>
      <trkpt lat="45.61776" lon="5.28937">
        <ele>311</ele>
        <time>2020-05-16T14:58:48.034Z</time>
      </trkpt>
      <trkpt lat="45.61776" lon="5.28941">
        <ele>311</ele>
        <time>2020-05-16T14:58:49.034Z</time>
      </trkpt>
      <trkpt lat="45.61776" lon="5.28944">
        <ele>312</ele>
        <time>2020-05-16T14:58:50.034Z</time>
      </trkpt>
      <trkpt lat="45.61776" lon="5.28947">
        <ele>312</ele>
        <time>2020-05-16T14:58:51.034Z</time>
      </trkpt>
      <trkpt lat="45.61775" lon="5.28951">
        <ele>313</ele>
        <time>2020-05-16T14:58:52.034Z</time>
      </trkpt>
      <trkpt lat="45.61775" lon="5.28955">
        <ele>313</ele>
        <time>2020-05-16T14:58:53.034Z</time>
      </trkpt>
      <trkpt lat="45.61774" lon="5.28959">
        <ele>313</ele>
        <time>2020-05-16T14:58:54.034Z</time>
      </trkpt>
      <trkpt lat="45.61774" lon="5.28962">
        <ele>313</ele>
        <time>2020-05-16T14:58:55.034Z</time>
      </trkpt>
      <trkpt lat="45.61774" lon="5.28966">
        <ele>314</ele>
        <time>2020-05-16T14:58:56.034Z</time>
      </trkpt>
      <trkpt lat="45.61773" lon="5.28969">
        <ele>314</ele>
        <time>2020-05-16T14:58:57.034Z</time>
      </trkpt>
      <trkpt lat="45.61773" lon="5.28973">
        <ele>315</ele>
        <time>2020-05-16T14:58:58.034Z</time>
      </trkpt>
      <trkpt lat="45.61772" lon="5.28976">
        <ele>315</ele>
        <time>2020-05-16T14:58:59.034Z</time>
      </trkpt>
      <trkpt lat="45.61772" lon="5.2898">
        <ele>315</ele>
        <time>2020-05-16T14:59:00.034Z</time>
      </trkpt>
      <trkpt lat="45.61771" lon="5.28984">
        <ele>315</ele>
        <time>2020-05-16T14:59:01.034Z</time>
      </trkpt>
      <trkpt lat="45.61771" lon="5.28987">
        <ele>316</ele>
        <time>2020-05-16T14:59:02.034Z</time>
      </trkpt>
      <trkpt lat="45.6177" lon="5.28991">
        <ele>316</ele>
        <time>2020-05-16T14:59:03.034Z</time>
      </trkpt>
      <trkpt lat="45.6177" lon="5.28994">
        <ele>316</ele>
        <time>2020-05-16T14:59:04.034Z</time>
      </trkpt>
      <trkpt lat="45.6177" lon="5.28998">
        <ele>316</ele>
        <time>2020-05-16T14:59:05.034Z</time>
      </trkpt>
      <trkpt lat="45.61769" lon="5.29001">
        <ele>317</ele>
        <time>2020-05-16T14:59:06.034Z</time>
      </trkpt>
      <trkpt lat="45.61769" lon="5.29005">
        <ele>317</ele>
        <time>2020-05-16T14:59:07.034Z</time>
      </trkpt>
      <trkpt lat="45.61769" lon="5.29008">
        <ele>318</ele>
        <time>2020-05-16T14:59:08.034Z</time>
      </trkpt>
      <trkpt lat="45.61768" lon="5.29012">
        <ele>318</ele>
        <time>2020-05-16T14:59:09.034Z</time>
      </trkpt>
      <trkpt lat="45.61767" lon="5.29015">
        <ele>318</ele>
        <time>2020-05-16T14:59:10.034Z</time>
      </trkpt>
      <trkpt lat="45.61767" lon="5.29019">
        <ele>319</ele>
        <time>2020-05-16T14:59:11.034Z</time>
      </trkpt>
      <trkpt lat="45.61767" lon="5.29023">
        <ele>319</ele>
        <time>2020-05-16T14:59:12.034Z</time>
      </trkpt>
      <trkpt lat="45.61766" lon="5.29026">
        <ele>319</ele>
        <time>2020-05-16T14:59:13.034Z</time>
      </trkpt>
      <trkpt lat="45.61766" lon="5.2903">
        <ele>319</ele>
        <time>2020-05-16T14:59:14.034Z</time>
      </trkpt>
      <trkpt lat="45.61766" lon="5.29033">
        <ele>320</ele>
        <time>2020-05-16T14:59:15.034Z</time>
      </trkpt>
      <trkpt lat="45.61766" lon="5.29037">
        <ele>320</ele>
        <time>2020-05-16T14:59:16.034Z</time>
      </trkpt>
      <trkpt lat="45.61765" lon="5.2904">
        <ele>320</ele>
        <time>2020-05-16T14:59:17.034Z</time>
      </trkpt>
      <trkpt lat="45.61765" lon="5.29044">
        <ele>320</ele>
        <time>2020-05-16T14:59:18.034Z</time>
      </trkpt>
      <trkpt lat="45.61765" lon="5.29047">
        <ele>320</ele>
        <time>2020-05-16T14:59:19.034Z</time>
      </trkpt>
      <trkpt lat="45.61765" lon="5.2905">
        <ele>320</ele>
        <time>2020-05-16T14:59:20.034Z</time>
      </trkpt>
      <trkpt lat="45.61765" lon="5.29054">
        <ele>320</ele>
        <time>2020-05-16T14:59:21.034Z</time>
      </trkpt>
      <trkpt lat="45.61764" lon="5.29057">
        <ele>321</ele>
        <time>2020-05-16T14:59:22.034Z</time>
      </trkpt>
      <trkpt lat="45.61764" lon="5.2906">
        <ele>321</ele>
        <time>2020-05-16T14:59:23.034Z</time>
      </trkpt>
      <trkpt lat="45.61764" lon="5.29064">
        <ele>320</ele>
        <time>2020-05-16T14:59:24.034Z</time>
      </trkpt>
      <trkpt lat="45.61764" lon="5.29068">
        <ele>320</ele>
        <time>2020-05-16T14:59:25.034Z</time>
      </trkpt>
      <trkpt lat="45.61764" lon="5.29071">
        <ele>320</ele>
        <time>2020-05-16T14:59:26.034Z</time>
      </trkpt>
      <trkpt lat="45.61764" lon="5.29074">
        <ele>320</ele>
        <time>2020-05-16T14:59:27.034Z</time>
      </trkpt>
      <trkpt lat="45.61764" lon="5.29078">
        <ele>320</ele>
        <time>2020-05-16T14:59:28.034Z</time>
      </trkpt>
      <trkpt lat="45.61764" lon="5.29081">
        <ele>319</ele>
        <time>2020-05-16T14:59:29.034Z</time>
      </trkpt>
      <trkpt lat="45.61764" lon="5.29085">
        <ele>319</ele>
        <time>2020-05-16T14:59:30.034Z</time>
      </trkpt>
      <trkpt lat="45.61764" lon="5.29088">
        <ele>321</ele>
        <time>2020-05-16T14:59:31.034Z</time>
      </trkpt>
      <trkpt lat="45.61763" lon="5.29092">
        <ele>322</ele>
        <time>2020-05-16T14:59:32.034Z</time>
      </trkpt>
      <trkpt lat="45.61763" lon="5.29096">
        <ele>322</ele>
        <time>2020-05-16T14:59:33.034Z</time>
      </trkpt>
      <trkpt lat="45.61763" lon="5.29099">
        <ele>322</ele>
        <time>2020-05-16T14:59:34.034Z</time>
      </trkpt>
      <trkpt lat="45.61763" lon="5.29103">
        <ele>322</ele>
        <time>2020-05-16T14:59:35.034Z</time>
      </trkpt>
      <trkpt lat="45.61762" lon="5.29107">
        <ele>322</ele>
        <time>2020-05-16T14:59:36.034Z</time>
      </trkpt>
      <trkpt lat="45.61762" lon="5.29111">
        <ele>322</ele>
        <time>2020-05-16T14:59:37.034Z</time>
      </trkpt>
      <trkpt lat="45.61761" lon="5.29115">
        <ele>322</ele>
        <time>2020-05-16T14:59:38.034Z</time>
      </trkpt>
      <trkpt lat="45.61761" lon="5.29119">
        <ele>323</ele>
        <time>2020-05-16T14:59:39.034Z</time>
      </trkpt>
      <trkpt lat="45.6176" lon="5.29123">
        <ele>324</ele>
        <time>2020-05-16T14:59:40.034Z</time>
      </trkpt>
      <trkpt lat="45.6176" lon="5.29127">
        <ele>324</ele>
        <time>2020-05-16T14:59:41.034Z</time>
      </trkpt>
      <trkpt lat="45.61759" lon="5.29131">
        <ele>324</ele>
        <time>2020-05-16T14:59:42.034Z</time>
      </trkpt>
      <trkpt lat="45.61758" lon="5.29135">
        <ele>325</ele>
        <time>2020-05-16T14:59:43.034Z</time>
      </trkpt>
      <trkpt lat="45.61757" lon="5.29139">
        <ele>325</ele>
        <time>2020-05-16T14:59:44.034Z</time>
      </trkpt>
      <trkpt lat="45.61756" lon="5.29143">
        <ele>325</ele>
        <time>2020-05-16T14:59:45.034Z</time>
      </trkpt>
      <trkpt lat="45.61755" lon="5.29147">
        <ele>324</ele>
        <time>2020-05-16T14:59:46.034Z</time>
      </trkpt>
      <trkpt lat="45.61754" lon="5.29151">
        <ele>324</ele>
        <time>2020-05-16T14:59:47.034Z</time>
      </trkpt>
      <trkpt lat="45.61753" lon="5.29155">
        <ele>324</ele>
        <time>2020-05-16T14:59:48.034Z</time>
      </trkpt>
      <trkpt lat="45.61752" lon="5.29159">
        <ele>324</ele>
        <time>2020-05-16T14:59:49.034Z</time>
      </trkpt>
      <trkpt lat="45.61751" lon="5.29164">
        <ele>324</ele>
        <time>2020-05-16T14:59:50.034Z</time>
      </trkpt>
      <trkpt lat="45.6175" lon="5.29168">
        <ele>323</ele>
        <time>2020-05-16T14:59:51.034Z</time>
      </trkpt>
      <trkpt lat="45.61749" lon="5.29172">
        <ele>323</ele>
        <time>2020-05-16T14:59:52.034Z</time>
      </trkpt>
      <trkpt lat="45.61748" lon="5.29176">
        <ele>323</ele>
        <time>2020-05-16T14:59:53.034Z</time>
      </trkpt>
      <trkpt lat="45.61747" lon="5.2918">
        <ele>322</ele>
        <time>2020-05-16T14:59:54.034Z</time>
      </trkpt>
      <trkpt lat="45.61745" lon="5.29184">
        <ele>322</ele>
        <time>2020-05-16T14:59:55.034Z</time>
      </trkpt>
      <trkpt lat="45.61744" lon="5.29188">
        <ele>322</ele>
        <time>2020-05-16T14:59:56.034Z</time>
      </trkpt>
      <trkpt lat="45.61743" lon="5.29193">
        <ele>323</ele>
        <time>2020-05-16T14:59:57.034Z</time>
      </trkpt>
      <trkpt lat="45.61741" lon="5.29197">
        <ele>324</ele>
        <time>2020-05-16T14:59:58.034Z</time>
      </trkpt>
      <trkpt lat="45.6174" lon="5.29201">
        <ele>324</ele>
        <time>2020-05-16T14:59:59.034Z</time>
      </trkpt>
      <trkpt lat="45.61739" lon="5.29205">
        <ele>324</ele>
        <time>2020-05-16T15:00:00.034Z</time>
      </trkpt>
      <trkpt lat="45.61737" lon="5.29209">
        <ele>324</ele>
        <time>2020-05-16T15:00:01.034Z</time>
      </trkpt>
      <trkpt lat="45.61735" lon="5.29213">
        <ele>324</ele>
        <time>2020-05-16T15:00:02.034Z</time>
      </trkpt>
      <trkpt lat="45.61734" lon="5.29217">
        <ele>324</ele>
        <time>2020-05-16T15:00:03.034Z</time>
      </trkpt>
      <trkpt lat="45.61733" lon="5.29221">
        <ele>325</ele>
        <time>2020-05-16T15:00:04.034Z</time>
      </trkpt>
      <trkpt lat="45.61731" lon="5.29225">
        <ele>325</ele>
        <time>2020-05-16T15:00:05.034Z</time>
      </trkpt>
      <trkpt lat="45.6173" lon="5.29229">
        <ele>325</ele>
        <time>2020-05-16T15:00:06.034Z</time>
      </trkpt>
      <trkpt lat="45.61728" lon="5.29233">
        <ele>325</ele>
        <time>2020-05-16T15:00:07.034Z</time>
      </trkpt>
      <trkpt lat="45.61727" lon="5.29237">
        <ele>326</ele>
        <time>2020-05-16T15:00:08.034Z</time>
      </trkpt>
      <trkpt lat="45.61725" lon="5.29241">
        <ele>326</ele>
        <time>2020-05-16T15:00:09.034Z</time>
      </trkpt>
      <trkpt lat="45.61724" lon="5.29245">
        <ele>327</ele>
        <time>2020-05-16T15:00:10.034Z</time>
      </trkpt>
      <trkpt lat="45.61722" lon="5.29248">
        <ele>327</ele>
        <time>2020-05-16T15:00:11.034Z</time>
      </trkpt>
      <trkpt lat="45.61721" lon="5.29252">
        <ele>327</ele>
        <time>2020-05-16T15:00:12.034Z</time>
      </trkpt>
      <trkpt lat="45.6172" lon="5.29256">
        <ele>327</ele>
        <time>2020-05-16T15:00:13.034Z</time>
      </trkpt>
      <trkpt lat="45.61719" lon="5.2926">
        <ele>327</ele>
        <time>2020-05-16T15:00:14.034Z</time>
      </trkpt>
      <trkpt lat="45.61718" lon="5.29265">
        <ele>328</ele>
        <time>2020-05-16T15:00:15.034Z</time>
      </trkpt>
      <trkpt lat="45.61716" lon="5.29269">
        <ele>329</ele>
        <time>2020-05-16T15:00:16.034Z</time>
      </trkpt>
      <trkpt lat="45.61715" lon="5.29273">
        <ele>329</ele>
        <time>2020-05-16T15:00:17.034Z</time>
      </trkpt>
      <trkpt lat="45.61714" lon="5.29277">
        <ele>330</ele>
        <time>2020-05-16T15:00:18.034Z</time>
      </trkpt>
      <trkpt lat="45.61713" lon="5.29281">
        <ele>330</ele>
        <time>2020-05-16T15:00:19.034Z</time>
      </trkpt>
      <trkpt lat="45.61712" lon="5.29286">
        <ele>331</ele>
        <time>2020-05-16T15:00:20.034Z</time>
      </trkpt>
      <trkpt lat="45.61711" lon="5.2929">
        <ele>331</ele>
        <time>2020-05-16T15:00:21.034Z</time>
      </trkpt>
      <trkpt lat="45.6171" lon="5.29294">
        <ele>331</ele>
        <time>2020-05-16T15:00:22.034Z</time>
      </trkpt>
      <trkpt lat="45.6171" lon="5.29299">
        <ele>332</ele>
        <time>2020-05-16T15:00:23.034Z</time>
      </trkpt>
      <trkpt lat="45.61709" lon="5.29303">
        <ele>332</ele>
        <time>2020-05-16T15:00:24.034Z</time>
      </trkpt>
      <trkpt lat="45.61708" lon="5.29307">
        <ele>333</ele>
        <time>2020-05-16T15:00:25.034Z</time>
      </trkpt>
      <trkpt lat="45.61707" lon="5.29312">
        <ele>333</ele>
        <time>2020-05-16T15:00:26.034Z</time>
      </trkpt>
      <trkpt lat="45.61706" lon="5.29316">
        <ele>333</ele>
        <time>2020-05-16T15:00:27.034Z</time>
      </trkpt>
      <trkpt lat="45.61705" lon="5.2932">
        <ele>334</ele>
        <time>2020-05-16T15:00:28.034Z</time>
      </trkpt>
      <trkpt lat="45.61705" lon="5.29324">
        <ele>334</ele>
        <time>2020-05-16T15:00:29.034Z</time>
      </trkpt>
      <trkpt lat="45.61704" lon="5.29329">
        <ele>335</ele>
        <time>2020-05-16T15:00:30.034Z</time>
      </trkpt>
      <trkpt lat="45.61703" lon="5.29333">
        <ele>335</ele>
        <time>2020-05-16T15:00:31.034Z</time>
      </trkpt>
      <trkpt lat="45.61702" lon="5.29337">
        <ele>336</ele>
        <time>2020-05-16T15:00:32.034Z</time>
      </trkpt>
      <trkpt lat="45.61701" lon="5.29341">
        <ele>336</ele>
        <time>2020-05-16T15:00:33.034Z</time>
      </trkpt>
      <trkpt lat="45.617" lon="5.29345">
        <ele>336</ele>
        <time>2020-05-16T15:00:34.034Z</time>
      </trkpt>
      <trkpt lat="45.617" lon="5.29349">
        <ele>337</ele>
        <time>2020-05-16T15:00:35.034Z</time>
      </trkpt>
      <trkpt lat="45.61699" lon="5.29353">
        <ele>337</ele>
        <time>2020-05-16T15:00:36.034Z</time>
      </trkpt>
      <trkpt lat="45.61698" lon="5.29358">
        <ele>337</ele>
        <time>2020-05-16T15:00:37.034Z</time>
      </trkpt>
      <trkpt lat="45.61698" lon="5.29362">
        <ele>338</ele>
        <time>2020-05-16T15:00:38.034Z</time>
      </trkpt>
      <trkpt lat="45.61697" lon="5.29366">
        <ele>338</ele>
        <time>2020-05-16T15:00:39.034Z</time>
      </trkpt>
      <trkpt lat="45.61696" lon="5.2937">
        <ele>338</ele>
        <time>2020-05-16T15:00:40.034Z</time>
      </trkpt>
      <trkpt lat="45.61696" lon="5.29374">
        <ele>339</ele>
        <time>2020-05-16T15:00:41.034Z</time>
      </trkpt>
      <trkpt lat="45.61695" lon="5.29378">
        <ele>339</ele>
        <time>2020-05-16T15:00:42.034Z</time>
      </trkpt>
      <trkpt lat="45.61695" lon="5.29382">
        <ele>339</ele>
        <time>2020-05-16T15:00:43.034Z</time>
      </trkpt>
      <trkpt lat="45.61694" lon="5.29387">
        <ele>339</ele>
        <time>2020-05-16T15:00:44.034Z</time>
      </trkpt>
      <trkpt lat="45.61694" lon="5.29391">
        <ele>340</ele>
        <time>2020-05-16T15:00:45.034Z</time>
      </trkpt>
      <trkpt lat="45.61693" lon="5.29395">
        <ele>340</ele>
        <time>2020-05-16T15:00:46.034Z</time>
      </trkpt>
      <trkpt lat="45.61693" lon="5.29399">
        <ele>340</ele>
        <time>2020-05-16T15:00:47.034Z</time>
      </trkpt>
      <trkpt lat="45.61692" lon="5.29403">
        <ele>340</ele>
        <time>2020-05-16T15:00:48.034Z</time>
      </trkpt>
      <trkpt lat="45.61692" lon="5.29407">
        <ele>340</ele>
        <time>2020-05-16T15:00:49.034Z</time>
      </trkpt>
      <trkpt lat="45.61692" lon="5.29411">
        <ele>340</ele>
        <time>2020-05-16T15:00:50.034Z</time>
      </trkpt>
      <trkpt lat="45.61692" lon="5.29415">
        <ele>341</ele>
        <time>2020-05-16T15:00:51.034Z</time>
      </trkpt>
      <trkpt lat="45.61692" lon="5.29419">
        <ele>341</ele>
        <time>2020-05-16T15:00:52.034Z</time>
      </trkpt>
      <trkpt lat="45.61691" lon="5.29423">
        <ele>341</ele>
        <time>2020-05-16T15:00:53.034Z</time>
      </trkpt>
      <trkpt lat="45.61691" lon="5.29428">
        <ele>341</ele>
        <time>2020-05-16T15:00:54.034Z</time>
      </trkpt>
      <trkpt lat="45.61691" lon="5.29432">
        <ele>341</ele>
        <time>2020-05-16T15:00:55.034Z</time>
      </trkpt>
      <trkpt lat="45.61691" lon="5.29436">
        <ele>342</ele>
        <time>2020-05-16T15:00:56.034Z</time>
      </trkpt>
      <trkpt lat="45.61691" lon="5.2944">
        <ele>342</ele>
        <time>2020-05-16T15:00:57.034Z</time>
      </trkpt>
      <trkpt lat="45.61691" lon="5.29444">
        <ele>342</ele>
        <time>2020-05-16T15:00:58.034Z</time>
      </trkpt>
      <trkpt lat="45.6169" lon="5.29448">
        <ele>343</ele>
        <time>2020-05-16T15:00:59.034Z</time>
      </trkpt>
      <trkpt lat="45.6169" lon="5.29452">
        <ele>343</ele>
        <time>2020-05-16T15:01:00.034Z</time>
      </trkpt>
      <trkpt lat="45.6169" lon="5.29456">
        <ele>343</ele>
        <time>2020-05-16T15:01:01.034Z</time>
      </trkpt>
      <trkpt lat="45.6169" lon="5.2946">
        <ele>344</ele>
        <time>2020-05-16T15:01:02.034Z</time>
      </trkpt>
      <trkpt lat="45.6169" lon="5.29464">
        <ele>344</ele>
        <time>2020-05-16T15:01:03.034Z</time>
      </trkpt>
      <trkpt lat="45.6169" lon="5.29468">
        <ele>344</ele>
        <time>2020-05-16T15:01:04.034Z</time>
      </trkpt>
      <trkpt lat="45.6169" lon="5.29472">
        <ele>345</ele>
        <time>2020-05-16T15:01:05.034Z</time>
      </trkpt>
      <trkpt lat="45.6169" lon="5.29476">
        <ele>345</ele>
        <time>2020-05-16T15:01:06.034Z</time>
      </trkpt>
      <trkpt lat="45.6169" lon="5.2948">
        <ele>345</ele>
        <time>2020-05-16T15:01:07.034Z</time>
      </trkpt>
      <trkpt lat="45.61689" lon="5.29484">
        <ele>345</ele>
        <time>2020-05-16T15:01:08.034Z</time>
      </trkpt>
      <trkpt lat="45.61689" lon="5.29488">
        <ele>346</ele>
        <time>2020-05-16T15:01:09.034Z</time>
      </trkpt>
      <trkpt lat="45.61688" lon="5.29492">
        <ele>346</ele>
        <time>2020-05-16T15:01:10.034Z</time>
      </trkpt>
      <trkpt lat="45.61688" lon="5.29496">
        <ele>346</ele>
        <time>2020-05-16T15:01:11.034Z</time>
      </trkpt>
      <trkpt lat="45.61687" lon="5.295">
        <ele>346</ele>
        <time>2020-05-16T15:01:12.034Z</time>
      </trkpt>
      <trkpt lat="45.61686" lon="5.29504">
        <ele>346</ele>
        <time>2020-05-16T15:01:13.034Z</time>
      </trkpt>
      <trkpt lat="45.61686" lon="5.29509">
        <ele>347</ele>
        <time>2020-05-16T15:01:14.034Z</time>
      </trkpt>
      <trkpt lat="45.61685" lon="5.29513">
        <ele>347</ele>
        <time>2020-05-16T15:01:15.034Z</time>
      </trkpt>
      <trkpt lat="45.61684" lon="5.29517">
        <ele>347</ele>
        <time>2020-05-16T15:01:16.034Z</time>
      </trkpt>
      <trkpt lat="45.61684" lon="5.29521">
        <ele>347</ele>
        <time>2020-05-16T15:01:17.034Z</time>
      </trkpt>
      <trkpt lat="45.61683" lon="5.29526">
        <ele>347</ele>
        <time>2020-05-16T15:01:18.034Z</time>
      </trkpt>
      <trkpt lat="45.61682" lon="5.2953">
        <ele>347</ele>
        <time>2020-05-16T15:01:19.034Z</time>
      </trkpt>
      <trkpt lat="45.61681" lon="5.29534">
        <ele>347</ele>
        <time>2020-05-16T15:01:20.034Z</time>
      </trkpt>
      <trkpt lat="45.6168" lon="5.29538">
        <ele>347</ele>
        <time>2020-05-16T15:01:21.034Z</time>
      </trkpt>
      <trkpt lat="45.61679" lon="5.29542">
        <ele>347</ele>
        <time>2020-05-16T15:01:22.034Z</time>
      </trkpt>
      <trkpt lat="45.61678" lon="5.29546">
        <ele>348</ele>
        <time>2020-05-16T15:01:23.034Z</time>
      </trkpt>
      <trkpt lat="45.61677" lon="5.2955">
        <ele>348</ele>
        <time>2020-05-16T15:01:24.034Z</time>
      </trkpt>
      <trkpt lat="45.61676" lon="5.29554">
        <ele>348</ele>
        <time>2020-05-16T15:01:25.034Z</time>
      </trkpt>
      <trkpt lat="45.61676" lon="5.29558">
        <ele>349</ele>
        <time>2020-05-16T15:01:26.034Z</time>
      </trkpt>
      <trkpt lat="45.61675" lon="5.29562">
        <ele>349</ele>
        <time>2020-05-16T15:01:27.034Z</time>
      </trkpt>
      <trkpt lat="45.61674" lon="5.29566">
        <ele>349</ele>
        <time>2020-05-16T15:01:28.034Z</time>
      </trkpt>
      <trkpt lat="45.61673" lon="5.2957">
        <ele>349</ele>
        <time>2020-05-16T15:01:29.034Z</time>
      </trkpt>
      <trkpt lat="45.61672" lon="5.29575">
        <ele>349</ele>
        <time>2020-05-16T15:01:30.034Z</time>
      </trkpt>
      <trkpt lat="45.61672" lon="5.29579">
        <ele>350</ele>
        <time>2020-05-16T15:01:31.034Z</time>
      </trkpt>
      <trkpt lat="45.61671" lon="5.29583">
        <ele>350</ele>
        <time>2020-05-16T15:01:32.034Z</time>
      </trkpt>
      <trkpt lat="45.6167" lon="5.29587">
        <ele>350</ele>
        <time>2020-05-16T15:01:33.034Z</time>
      </trkpt>
      <trkpt lat="45.61669" lon="5.29592">
        <ele>350</ele>
        <time>2020-05-16T15:01:34.034Z</time>
      </trkpt>
      <trkpt lat="45.61669" lon="5.29596">
        <ele>351</ele>
        <time>2020-05-16T15:01:35.034Z</time>
      </trkpt>
      <trkpt lat="45.61668" lon="5.29601">
        <ele>351</ele>
        <time>2020-05-16T15:01:36.034Z</time>
      </trkpt>
      <trkpt lat="45.61667" lon="5.29605">
        <ele>351</ele>
        <time>2020-05-16T15:01:37.034Z</time>
      </trkpt>
      <trkpt lat="45.61666" lon="5.2961">
        <ele>351</ele>
        <time>2020-05-16T15:01:38.034Z</time>
      </trkpt>
      <trkpt lat="45.61666" lon="5.29614">
        <ele>351</ele>
        <time>2020-05-16T15:01:39.034Z</time>
      </trkpt>
      <trkpt lat="45.61665" lon="5.29619">
        <ele>351</ele>
        <time>2020-05-16T15:01:40.034Z</time>
      </trkpt>
      <trkpt lat="45.61664" lon="5.29623">
        <ele>351</ele>
        <time>2020-05-16T15:01:41.034Z</time>
      </trkpt>
      <trkpt lat="45.61663" lon="5.29628">
        <ele>351</ele>
        <time>2020-05-16T15:01:42.034Z</time>
      </trkpt>
      <trkpt lat="45.61663" lon="5.29632">
        <ele>351</ele>
        <time>2020-05-16T15:01:43.034Z</time>
      </trkpt>
      <trkpt lat="45.61662" lon="5.29637">
        <ele>352</ele>
        <time>2020-05-16T15:01:44.034Z</time>
      </trkpt>
      <trkpt lat="45.61661" lon="5.29642">
        <ele>352</ele>
        <time>2020-05-16T15:01:45.034Z</time>
      </trkpt>
      <trkpt lat="45.6166" lon="5.29646">
        <ele>352</ele>
        <time>2020-05-16T15:01:46.034Z</time>
      </trkpt>
      <trkpt lat="45.61659" lon="5.29651">
        <ele>352</ele>
        <time>2020-05-16T15:01:47.034Z</time>
      </trkpt>
      <trkpt lat="45.61658" lon="5.29656">
        <ele>352</ele>
        <time>2020-05-16T15:01:48.034Z</time>
      </trkpt>
      <trkpt lat="45.61658" lon="5.29661">
        <ele>352</ele>
        <time>2020-05-16T15:01:49.034Z</time>
      </trkpt>
      <trkpt lat="45.61657" lon="5.29665">
        <ele>352</ele>
        <time>2020-05-16T15:01:50.034Z</time>
      </trkpt>
      <trkpt lat="45.61656" lon="5.2967">
        <ele>352</ele>
        <time>2020-05-16T15:01:51.034Z</time>
      </trkpt>
      <trkpt lat="45.61656" lon="5.29674">
        <ele>352</ele>
        <time>2020-05-16T15:01:52.034Z</time>
      </trkpt>
      <trkpt lat="45.61655" lon="5.29679">
        <ele>353</ele>
        <time>2020-05-16T15:01:53.034Z</time>
      </trkpt>
      <trkpt lat="45.61655" lon="5.29684">
        <ele>353</ele>
        <time>2020-05-16T15:01:54.034Z</time>
      </trkpt>
      <trkpt lat="45.61654" lon="5.29689">
        <ele>353</ele>
        <time>2020-05-16T15:01:55.034Z</time>
      </trkpt>
      <trkpt lat="45.61654" lon="5.29693">
        <ele>353</ele>
        <time>2020-05-16T15:01:56.034Z</time>
      </trkpt>
      <trkpt lat="45.61654" lon="5.29698">
        <ele>353</ele>
        <time>2020-05-16T15:01:57.034Z</time>
      </trkpt>
      <trkpt lat="45.61653" lon="5.29703">
        <ele>353</ele>
        <time>2020-05-16T15:01:58.034Z</time>
      </trkpt>
      <trkpt lat="45.61653" lon="5.29707">
        <ele>353</ele>
        <time>2020-05-16T15:01:59.034Z</time>
      </trkpt>
      <trkpt lat="45.61653" lon="5.29712">
        <ele>353</ele>
        <time>2020-05-16T15:02:00.034Z</time>
      </trkpt>
      <trkpt lat="45.61652" lon="5.29716">
        <ele>353</ele>
        <time>2020-05-16T15:02:01.034Z</time>
      </trkpt>
      <trkpt lat="45.61652" lon="5.29721">
        <ele>354</ele>
        <time>2020-05-16T15:02:02.034Z</time>
      </trkpt>
      <trkpt lat="45.61652" lon="5.29726">
        <ele>354</ele>
        <time>2020-05-16T15:02:03.034Z</time>
      </trkpt>
      <trkpt lat="45.61652" lon="5.2973">
        <ele>354</ele>
        <time>2020-05-16T15:02:04.034Z</time>
      </trkpt>
      <trkpt lat="45.61651" lon="5.29735">
        <ele>354</ele>
        <time>2020-05-16T15:02:05.034Z</time>
      </trkpt>
      <trkpt lat="45.61651" lon="5.29739">
        <ele>354</ele>
        <time>2020-05-16T15:02:06.034Z</time>
      </trkpt>
      <trkpt lat="45.61651" lon="5.29744">
        <ele>354</ele>
        <time>2020-05-16T15:02:07.034Z</time>
      </trkpt>
      <trkpt lat="45.61651" lon="5.29749">
        <ele>355</ele>
        <time>2020-05-16T15:02:08.034Z</time>
      </trkpt>
      <trkpt lat="45.6165" lon="5.29753">
        <ele>355</ele>
        <time>2020-05-16T15:02:09.034Z</time>
      </trkpt>
      <trkpt lat="45.6165" lon="5.29758">
        <ele>355</ele>
        <time>2020-05-16T15:02:10.034Z</time>
      </trkpt>
      <trkpt lat="45.61649" lon="5.29763">
        <ele>355</ele>
        <time>2020-05-16T15:02:11.034Z</time>
      </trkpt>
      <trkpt lat="45.61649" lon="5.29767">
        <ele>356</ele>
        <time>2020-05-16T15:02:12.034Z</time>
      </trkpt>
      <trkpt lat="45.61648" lon="5.29772">
        <ele>356</ele>
        <time>2020-05-16T15:02:13.034Z</time>
      </trkpt>
      <trkpt lat="45.61647" lon="5.29776">
        <ele>356</ele>
        <time>2020-05-16T15:02:14.034Z</time>
      </trkpt>
      <trkpt lat="45.61647" lon="5.29781">
        <ele>357</ele>
        <time>2020-05-16T15:02:15.034Z</time>
      </trkpt>
      <trkpt lat="45.61646" lon="5.29786">
        <ele>357</ele>
        <time>2020-05-16T15:02:16.034Z</time>
      </trkpt>
      <trkpt lat="45.61645" lon="5.29791">
        <ele>357</ele>
        <time>2020-05-16T15:02:17.034Z</time>
      </trkpt>
      <trkpt lat="45.61645" lon="5.29795">
        <ele>357</ele>
        <time>2020-05-16T15:02:18.034Z</time>
      </trkpt>
      <trkpt lat="45.61644" lon="5.298">
        <ele>358</ele>
        <time>2020-05-16T15:02:19.034Z</time>
      </trkpt>
      <trkpt lat="45.61643" lon="5.29804">
        <ele>358</ele>
        <time>2020-05-16T15:02:20.034Z</time>
      </trkpt>
      <trkpt lat="45.61643" lon="5.29809">
        <ele>359</ele>
        <time>2020-05-16T15:02:21.034Z</time>
      </trkpt>
      <trkpt lat="45.61642" lon="5.29814">
        <ele>359</ele>
        <time>2020-05-16T15:02:22.034Z</time>
      </trkpt>
      <trkpt lat="45.61641" lon="5.29818">
        <ele>359</ele>
        <time>2020-05-16T15:02:23.034Z</time>
      </trkpt>
      <trkpt lat="45.61641" lon="5.29823">
        <ele>359</ele>
        <time>2020-05-16T15:02:24.034Z</time>
      </trkpt>
      <trkpt lat="45.61641" lon="5.29828">
        <ele>360</ele>
        <time>2020-05-16T15:02:25.034Z</time>
      </trkpt>
      <trkpt lat="45.6164" lon="5.29833">
        <ele>360</ele>
        <time>2020-05-16T15:02:26.034Z</time>
      </trkpt>
      <trkpt lat="45.6164" lon="5.29838">
        <ele>360</ele>
        <time>2020-05-16T15:02:27.034Z</time>
      </trkpt>
      <trkpt lat="45.6164" lon="5.29842">
        <ele>360</ele>
        <time>2020-05-16T15:02:28.034Z</time>
      </trkpt>
      <trkpt lat="45.61639" lon="5.29847">
        <ele>361</ele>
        <time>2020-05-16T15:02:29.034Z</time>
      </trkpt>
      <trkpt lat="45.61639" lon="5.29852">
        <ele>361</ele>
        <time>2020-05-16T15:02:30.034Z</time>
      </trkpt>
      <trkpt lat="45.61638" lon="5.29857">
        <ele>361</ele>
        <time>2020-05-16T15:02:31.034Z</time>
      </trkpt>
      <trkpt lat="45.61638" lon="5.29862">
        <ele>361</ele>
        <time>2020-05-16T15:02:32.034Z</time>
      </trkpt>
      <trkpt lat="45.61638" lon="5.29867">
        <ele>361</ele>
        <time>2020-05-16T15:02:33.034Z</time>
      </trkpt>
      <trkpt lat="45.61638" lon="5.29872">
        <ele>362</ele>
        <time>2020-05-16T15:02:34.034Z</time>
      </trkpt>
      <trkpt lat="45.61638" lon="5.29876">
        <ele>362</ele>
        <time>2020-05-16T15:02:35.034Z</time>
      </trkpt>
      <trkpt lat="45.61638" lon="5.29881">
        <ele>362</ele>
        <time>2020-05-16T15:02:36.034Z</time>
      </trkpt>
      <trkpt lat="45.61638" lon="5.29885">
        <ele>362</ele>
        <time>2020-05-16T15:02:37.034Z</time>
      </trkpt>
      <trkpt lat="45.61639" lon="5.29889">
        <ele>362</ele>
        <time>2020-05-16T15:02:38.034Z</time>
      </trkpt>
      <trkpt lat="45.6164" lon="5.29893">
        <ele>363</ele>
        <time>2020-05-16T15:02:39.034Z</time>
      </trkpt>
      <trkpt lat="45.61641" lon="5.29897">
        <ele>363</ele>
        <time>2020-05-16T15:02:40.034Z</time>
      </trkpt>
      <trkpt lat="45.61642" lon="5.29901">
        <ele>364</ele>
        <time>2020-05-16T15:02:41.034Z</time>
      </trkpt>
      <trkpt lat="45.61643" lon="5.29904">
        <ele>364</ele>
        <time>2020-05-16T15:02:42.034Z</time>
      </trkpt>
      <trkpt lat="45.61644" lon="5.29908">
        <ele>364</ele>
        <time>2020-05-16T15:02:43.034Z</time>
      </trkpt>
      <trkpt lat="45.61646" lon="5.29912">
        <ele>364</ele>
        <time>2020-05-16T15:02:44.034Z</time>
      </trkpt>
      <trkpt lat="45.61647" lon="5.29915">
        <ele>364</ele>
        <time>2020-05-16T15:02:45.034Z</time>
      </trkpt>
      <trkpt lat="45.61648" lon="5.29919">
        <ele>365</ele>
        <time>2020-05-16T15:02:46.034Z</time>
      </trkpt>
      <trkpt lat="45.6165" lon="5.29922">
        <ele>365</ele>
        <time>2020-05-16T15:02:47.034Z</time>
      </trkpt>
      <trkpt lat="45.61652" lon="5.29924">
        <ele>365</ele>
        <time>2020-05-16T15:02:48.034Z</time>
      </trkpt>
      <trkpt lat="45.61653" lon="5.29927">
        <ele>365</ele>
        <time>2020-05-16T15:02:49.034Z</time>
      </trkpt>
      <trkpt lat="45.61655" lon="5.29929">
        <ele>365</ele>
        <time>2020-05-16T15:02:50.034Z</time>
      </trkpt>
      <trkpt lat="45.61657" lon="5.29932">
        <ele>366</ele>
        <time>2020-05-16T15:02:51.034Z</time>
      </trkpt>
      <trkpt lat="45.61659" lon="5.29934">
        <ele>366</ele>
        <time>2020-05-16T15:02:52.034Z</time>
      </trkpt>
      <trkpt lat="45.61661" lon="5.29937">
        <ele>367</ele>
        <time>2020-05-16T15:02:53.034Z</time>
      </trkpt>
      <trkpt lat="45.61663" lon="5.2994">
        <ele>367</ele>
        <time>2020-05-16T15:02:54.034Z</time>
      </trkpt>
      <trkpt lat="45.61665" lon="5.29942">
        <ele>368</ele>
        <time>2020-05-16T15:02:55.034Z</time>
      </trkpt>
      <trkpt lat="45.61667" lon="5.29945">
        <ele>368</ele>
        <time>2020-05-16T15:02:56.034Z</time>
      </trkpt>
      <trkpt lat="45.61669" lon="5.29948">
        <ele>368</ele>
        <time>2020-05-16T15:02:57.034Z</time>
      </trkpt>
      <trkpt lat="45.61671" lon="5.2995">
        <ele>369</ele>
        <time>2020-05-16T15:02:58.034Z</time>
      </trkpt>
      <trkpt lat="45.61673" lon="5.29953">
        <ele>369</ele>
        <time>2020-05-16T15:02:59.034Z</time>
      </trkpt>
      <trkpt lat="45.61675" lon="5.29956">
        <ele>370</ele>
        <time>2020-05-16T15:03:00.034Z</time>
      </trkpt>
      <trkpt lat="45.61676" lon="5.29958">
        <ele>370</ele>
        <time>2020-05-16T15:03:01.034Z</time>
      </trkpt>
      <trkpt lat="45.61678" lon="5.29962">
        <ele>371</ele>
        <time>2020-05-16T15:03:02.034Z</time>
      </trkpt>
      <trkpt lat="45.61679" lon="5.29965">
        <ele>371</ele>
        <time>2020-05-16T15:03:03.034Z</time>
      </trkpt>
      <trkpt lat="45.61681" lon="5.29968">
        <ele>371</ele>
        <time>2020-05-16T15:03:04.034Z</time>
      </trkpt>
      <trkpt lat="45.61681" lon="5.29972">
        <ele>371</ele>
        <time>2020-05-16T15:03:05.034Z</time>
      </trkpt>
      <trkpt lat="45.61682" lon="5.29976">
        <ele>372</ele>
        <time>2020-05-16T15:03:06.034Z</time>
      </trkpt>
      <trkpt lat="45.61682" lon="5.2998">
        <ele>372</ele>
        <time>2020-05-16T15:03:07.034Z</time>
      </trkpt>
      <trkpt lat="45.61683" lon="5.29983">
        <ele>372</ele>
        <time>2020-05-16T15:03:08.034Z</time>
      </trkpt>
      <trkpt lat="45.61683" lon="5.29987">
        <ele>372</ele>
        <time>2020-05-16T15:03:09.034Z</time>
      </trkpt>
      <trkpt lat="45.61683" lon="5.29991">
        <ele>372</ele>
        <time>2020-05-16T15:03:10.034Z</time>
      </trkpt>
      <trkpt lat="45.61683" lon="5.29995">
        <ele>372</ele>
        <time>2020-05-16T15:03:11.034Z</time>
      </trkpt>
      <trkpt lat="45.61683" lon="5.29999">
        <ele>372</ele>
        <time>2020-05-16T15:03:12.034Z</time>
      </trkpt>
      <trkpt lat="45.61683" lon="5.30003">
        <ele>372</ele>
        <time>2020-05-16T15:03:13.034Z</time>
      </trkpt>
      <trkpt lat="45.61684" lon="5.30007">
        <ele>372</ele>
        <time>2020-05-16T15:03:14.034Z</time>
      </trkpt>
      <trkpt lat="45.61684" lon="5.30011">
        <ele>373</ele>
        <time>2020-05-16T15:03:15.034Z</time>
      </trkpt>
      <trkpt lat="45.61684" lon="5.30015">
        <ele>373</ele>
        <time>2020-05-16T15:03:16.034Z</time>
      </trkpt>
      <trkpt lat="45.61684" lon="5.30019">
        <ele>373</ele>
        <time>2020-05-16T15:03:17.034Z</time>
      </trkpt>
      <trkpt lat="45.61684" lon="5.30022">
        <ele>373</ele>
        <time>2020-05-16T15:03:18.034Z</time>
      </trkpt>
      <trkpt lat="45.61684" lon="5.30026">
        <ele>373</ele>
        <time>2020-05-16T15:03:19.034Z</time>
      </trkpt>
      <trkpt lat="45.61684" lon="5.3003">
        <ele>373</ele>
        <time>2020-05-16T15:03:20.034Z</time>
      </trkpt>
      <trkpt lat="45.61685" lon="5.30034">
        <ele>373</ele>
        <time>2020-05-16T15:03:21.034Z</time>
      </trkpt>
      <trkpt lat="45.61685" lon="5.30038">
        <ele>373</ele>
        <time>2020-05-16T15:03:22.034Z</time>
      </trkpt>
      <trkpt lat="45.61685" lon="5.30042">
        <ele>373</ele>
        <time>2020-05-16T15:03:23.034Z</time>
      </trkpt>
      <trkpt lat="45.61685" lon="5.30046">
        <ele>373</ele>
        <time>2020-05-16T15:03:24.034Z</time>
      </trkpt>
      <trkpt lat="45.61685" lon="5.3005">
        <ele>373</ele>
        <time>2020-05-16T15:03:25.034Z</time>
      </trkpt>
      <trkpt lat="45.61685" lon="5.30054">
        <ele>373</ele>
        <time>2020-05-16T15:03:26.034Z</time>
      </trkpt>
      <trkpt lat="45.61685" lon="5.30057">
        <ele>373</ele>
        <time>2020-05-16T15:03:27.034Z</time>
      </trkpt>
      <trkpt lat="45.61685" lon="5.3006">
        <ele>373</ele>
        <time>2020-05-16T15:03:28.034Z</time>
      </trkpt>
      <trkpt lat="45.61685" lon="5.30061">
        <ele>373</ele>
        <time>2020-05-16T15:03:29.034Z</time>
      </trkpt>
      <trkpt lat="45.61685" lon="5.30062">
        <ele>374</ele>
        <time>2020-05-16T15:03:30.034Z</time>
      </trkpt>
      <trkpt lat="45.61685" lon="5.30062">
        <ele>374</ele>
        <time>2020-05-16T15:03:31.034Z</time>
      </trkpt>
      <trkpt lat="45.61685" lon="5.30062">
        <ele>374</ele>
        <time>2020-05-16T15:03:32.034Z</time>
      </trkpt>
      <trkpt lat="45.61685" lon="5.30062">
        <ele>374</ele>
        <time>2020-05-16T15:03:33.034Z</time>
      </trkpt>
      <trkpt lat="45.61685" lon="5.30062">
        <ele>374</ele>
        <time>2020-05-16T15:03:34.034Z</time>
      </trkpt>
      <trkpt lat="45.61685" lon="5.30062">
        <ele>374</ele>
        <time>2020-05-16T15:03:35.034Z</time>
      </trkpt>
      <trkpt lat="45.61685" lon="5.30062">
        <ele>374</ele>
        <time>2020-05-16T15:03:36.034Z</time>
      </trkpt>
      <trkpt lat="45.61685" lon="5.30062">
        <ele>374</ele>
        <time>2020-05-16T15:03:37.034Z</time>
      </trkpt>
      <trkpt lat="45.61685" lon="5.30062">
        <ele>374</ele>
        <time>2020-05-16T15:03:38.034Z</time>
      </trkpt>
      <trkpt lat="45.61685" lon="5.30062">
        <ele>372</ele>
        <time>2020-05-16T15:03:39.049Z</time>
      </trkpt>
      <trkpt lat="45.61685" lon="5.30062">
        <ele>372</ele>
        <time>2020-05-16T15:03:40.049Z</time>
      </trkpt>
      <trkpt lat="45.61685" lon="5.30062">
        <ele>372</ele>
        <time>2020-05-16T15:03:41.049Z</time>
      </trkpt>
      <trkpt lat="45.61685" lon="5.30062">
        <ele>373</ele>
        <time>2020-05-16T15:03:42.049Z</time>
      </trkpt>
      <trkpt lat="45.61685" lon="5.30062">
        <ele>373</ele>
        <time>2020-05-16T15:03:43.049Z</time>
      </trkpt>
      <trkpt lat="45.61685" lon="5.30062">
        <ele>373</ele>
        <time>2020-05-16T15:03:44.049Z</time>
      </trkpt>
      <trkpt lat="45.61685" lon="5.30062">
        <ele>373</ele>
        <time>2020-05-16T15:03:45.049Z</time>
      </trkpt>
      <trkpt lat="45.61687" lon="5.30071">
        <ele>374</ele>
        <time>2020-05-16T15:03:46.053Z</time>
      </trkpt>
      <trkpt lat="45.61687" lon="5.30074">
        <ele>374</ele>
        <time>2020-05-16T15:03:47.053Z</time>
      </trkpt>
      <trkpt lat="45.61687" lon="5.30078">
        <ele>374</ele>
        <time>2020-05-16T15:03:48.053Z</time>
      </trkpt>
      <trkpt lat="45.61687" lon="5.30082">
        <ele>374</ele>
        <time>2020-05-16T15:03:49.053Z</time>
      </trkpt>
      <trkpt lat="45.61687" lon="5.30086">
        <ele>374</ele>
        <time>2020-05-16T15:03:50.053Z</time>
      </trkpt>
      <trkpt lat="45.61687" lon="5.30091">
        <ele>374</ele>
        <time>2020-05-16T15:03:51.053Z</time>
      </trkpt>
      <trkpt lat="45.61687" lon="5.30096">
        <ele>374</ele>
        <time>2020-05-16T15:03:52.053Z</time>
      </trkpt>
      <trkpt lat="45.61687" lon="5.301">
        <ele>374</ele>
        <time>2020-05-16T15:03:53.053Z</time>
      </trkpt>
      <trkpt lat="45.61687" lon="5.30105">
        <ele>374</ele>
        <time>2020-05-16T15:03:54.053Z</time>
      </trkpt>
      <trkpt lat="45.61687" lon="5.3011">
        <ele>373</ele>
        <time>2020-05-16T15:03:55.053Z</time>
      </trkpt>
      <trkpt lat="45.61687" lon="5.30116">
        <ele>373</ele>
        <time>2020-05-16T15:03:56.053Z</time>
      </trkpt>
      <trkpt lat="45.61687" lon="5.30121">
        <ele>373</ele>
        <time>2020-05-16T15:03:57.053Z</time>
      </trkpt>
      <trkpt lat="45.61687" lon="5.30127">
        <ele>373</ele>
        <time>2020-05-16T15:03:58.053Z</time>
      </trkpt>
      <trkpt lat="45.61687" lon="5.30132">
        <ele>373</ele>
        <time>2020-05-16T15:03:59.053Z</time>
      </trkpt>
      <trkpt lat="45.61687" lon="5.30138">
        <ele>373</ele>
        <time>2020-05-16T15:04:00.053Z</time>
      </trkpt>
      <trkpt lat="45.61687" lon="5.30144">
        <ele>373</ele>
        <time>2020-05-16T15:04:01.053Z</time>
      </trkpt>
      <trkpt lat="45.61688" lon="5.3015">
        <ele>373</ele>
        <time>2020-05-16T15:04:02.053Z</time>
      </trkpt>
      <trkpt lat="45.61688" lon="5.30155">
        <ele>373</ele>
        <time>2020-05-16T15:04:03.053Z</time>
      </trkpt>
      <trkpt lat="45.61689" lon="5.30161">
        <ele>373</ele>
        <time>2020-05-16T15:04:04.053Z</time>
      </trkpt>
      <trkpt lat="45.61689" lon="5.30167">
        <ele>373</ele>
        <time>2020-05-16T15:04:05.053Z</time>
      </trkpt>
      <trkpt lat="45.6169" lon="5.30173">
        <ele>373</ele>
        <time>2020-05-16T15:04:06.053Z</time>
      </trkpt>
      <trkpt lat="45.61691" lon="5.3018">
        <ele>372</ele>
        <time>2020-05-16T15:04:07.053Z</time>
      </trkpt>
      <trkpt lat="45.61691" lon="5.30186">
        <ele>372</ele>
        <time>2020-05-16T15:04:08.053Z</time>
      </trkpt>
      <trkpt lat="45.61692" lon="5.30192">
        <ele>372</ele>
        <time>2020-05-16T15:04:09.053Z</time>
      </trkpt>
      <trkpt lat="45.61693" lon="5.30199">
        <ele>372</ele>
        <time>2020-05-16T15:04:10.053Z</time>
      </trkpt>
      <trkpt lat="45.61694" lon="5.30206">
        <ele>372</ele>
        <time>2020-05-16T15:04:11.053Z</time>
      </trkpt>
      <trkpt lat="45.61695" lon="5.30213">
        <ele>372</ele>
        <time>2020-05-16T15:04:12.053Z</time>
      </trkpt>
      <trkpt lat="45.61697" lon="5.3022">
        <ele>371</ele>
        <time>2020-05-16T15:04:13.053Z</time>
      </trkpt>
      <trkpt lat="45.61698" lon="5.30227">
        <ele>371</ele>
        <time>2020-05-16T15:04:14.053Z</time>
      </trkpt>
      <trkpt lat="45.617" lon="5.30235">
        <ele>371</ele>
        <time>2020-05-16T15:04:15.053Z</time>
      </trkpt>
      <trkpt lat="45.61701" lon="5.30243">
        <ele>371</ele>
        <time>2020-05-16T15:04:16.053Z</time>
      </trkpt>
      <trkpt lat="45.61703" lon="5.30251">
        <ele>370</ele>
        <time>2020-05-16T15:04:17.053Z</time>
      </trkpt>
      <trkpt lat="45.61704" lon="5.30259">
        <ele>370</ele>
        <time>2020-05-16T15:04:18.053Z</time>
      </trkpt>
      <trkpt lat="45.61706" lon="5.30268">
        <ele>370</ele>
        <time>2020-05-16T15:04:19.053Z</time>
      </trkpt>
      <trkpt lat="45.61707" lon="5.30276">
        <ele>370</ele>
        <time>2020-05-16T15:04:20.053Z</time>
      </trkpt>
      <trkpt lat="45.61709" lon="5.30285">
        <ele>370</ele>
        <time>2020-05-16T15:04:21.053Z</time>
      </trkpt>
      <trkpt lat="45.6171" lon="5.30294">
        <ele>370</ele>
        <time>2020-05-16T15:04:22.053Z</time>
      </trkpt>
      <trkpt lat="45.6171" lon="5.30302">
        <ele>370</ele>
        <time>2020-05-16T15:04:23.053Z</time>
      </trkpt>
      <trkpt lat="45.61711" lon="5.30311">
        <ele>370</ele>
        <time>2020-05-16T15:04:24.053Z</time>
      </trkpt>
      <trkpt lat="45.61711" lon="5.3032">
        <ele>370</ele>
        <time>2020-05-16T15:04:25.053Z</time>
      </trkpt>
      <trkpt lat="45.61711" lon="5.30328">
        <ele>370</ele>
        <time>2020-05-16T15:04:26.053Z</time>
      </trkpt>
      <trkpt lat="45.61711" lon="5.30336">
        <ele>370</ele>
        <time>2020-05-16T15:04:27.053Z</time>
      </trkpt>
      <trkpt lat="45.61711" lon="5.30345">
        <ele>370</ele>
        <time>2020-05-16T15:04:28.053Z</time>
      </trkpt>
      <trkpt lat="45.6171" lon="5.30353">
        <ele>369</ele>
        <time>2020-05-16T15:04:29.053Z</time>
      </trkpt>
      <trkpt lat="45.6171" lon="5.30361">
        <ele>369</ele>
        <time>2020-05-16T15:04:30.053Z</time>
      </trkpt>
      <trkpt lat="45.6171" lon="5.3037">
        <ele>369</ele>
        <time>2020-05-16T15:04:31.053Z</time>
      </trkpt>
      <trkpt lat="45.61709" lon="5.30378">
        <ele>369</ele>
        <time>2020-05-16T15:04:32.053Z</time>
      </trkpt>
      <trkpt lat="45.61709" lon="5.30387">
        <ele>369</ele>
        <time>2020-05-16T15:04:33.053Z</time>
      </trkpt>
      <trkpt lat="45.61708" lon="5.30395">
        <ele>369</ele>
        <time>2020-05-16T15:04:34.053Z</time>
      </trkpt>
      <trkpt lat="45.61707" lon="5.30404">
        <ele>368</ele>
        <time>2020-05-16T15:04:35.053Z</time>
      </trkpt>
      <trkpt lat="45.61706" lon="5.30412">
        <ele>368</ele>
        <time>2020-05-16T15:04:36.053Z</time>
      </trkpt>
      <trkpt lat="45.61706" lon="5.30421">
        <ele>368</ele>
        <time>2020-05-16T15:04:37.053Z</time>
      </trkpt>
      <trkpt lat="45.61705" lon="5.3043">
        <ele>367</ele>
        <time>2020-05-16T15:04:38.053Z</time>
      </trkpt>
      <trkpt lat="45.61704" lon="5.3044">
        <ele>367</ele>
        <time>2020-05-16T15:04:39.053Z</time>
      </trkpt>
      <trkpt lat="45.61703" lon="5.3045">
        <ele>367</ele>
        <time>2020-05-16T15:04:40.053Z</time>
      </trkpt>
      <trkpt lat="45.61702" lon="5.3046">
        <ele>367</ele>
        <time>2020-05-16T15:04:41.053Z</time>
      </trkpt>
      <trkpt lat="45.61701" lon="5.3047">
        <ele>366</ele>
        <time>2020-05-16T15:04:42.053Z</time>
      </trkpt>
      <trkpt lat="45.617" lon="5.30481">
        <ele>366</ele>
        <time>2020-05-16T15:04:43.053Z</time>
      </trkpt>
      <trkpt lat="45.61699" lon="5.30493">
        <ele>365</ele>
        <time>2020-05-16T15:04:44.053Z</time>
      </trkpt>
      <trkpt lat="45.61698" lon="5.30504">
        <ele>365</ele>
        <time>2020-05-16T15:04:45.053Z</time>
      </trkpt>
      <trkpt lat="45.61696" lon="5.30516">
        <ele>365</ele>
        <time>2020-05-16T15:04:46.053Z</time>
      </trkpt>
      <trkpt lat="45.61694" lon="5.30528">
        <ele>364</ele>
        <time>2020-05-16T15:04:47.053Z</time>
      </trkpt>
      <trkpt lat="45.61692" lon="5.3054">
        <ele>364</ele>
        <time>2020-05-16T15:04:48.053Z</time>
      </trkpt>
      <trkpt lat="45.61691" lon="5.30552">
        <ele>364</ele>
        <time>2020-05-16T15:04:49.053Z</time>
      </trkpt>
      <trkpt lat="45.61689" lon="5.30565">
        <ele>363</ele>
        <time>2020-05-16T15:04:50.053Z</time>
      </trkpt>
      <trkpt lat="45.61687" lon="5.30577">
        <ele>363</ele>
        <time>2020-05-16T15:04:51.053Z</time>
      </trkpt>
      <trkpt lat="45.61684" lon="5.3059">
        <ele>362</ele>
        <time>2020-05-16T15:04:52.053Z</time>
      </trkpt>
      <trkpt lat="45.61682" lon="5.30603">
        <ele>362</ele>
        <time>2020-05-16T15:04:53.053Z</time>
      </trkpt>
      <trkpt lat="45.6168" lon="5.30615">
        <ele>362</ele>
        <time>2020-05-16T15:04:54.053Z</time>
      </trkpt>
      <trkpt lat="45.61677" lon="5.30628">
        <ele>361</ele>
        <time>2020-05-16T15:04:55.053Z</time>
      </trkpt>
      <trkpt lat="45.61675" lon="5.30641">
        <ele>360</ele>
        <time>2020-05-16T15:04:56.053Z</time>
      </trkpt>
      <trkpt lat="45.61672" lon="5.30654">
        <ele>359</ele>
        <time>2020-05-16T15:04:57.053Z</time>
      </trkpt>
      <trkpt lat="45.61669" lon="5.30667">
        <ele>359</ele>
        <time>2020-05-16T15:04:58.053Z</time>
      </trkpt>
      <trkpt lat="45.61667" lon="5.3068">
        <ele>358</ele>
        <time>2020-05-16T15:04:59.053Z</time>
      </trkpt>
      <trkpt lat="45.61664" lon="5.30693">
        <ele>358</ele>
        <time>2020-05-16T15:05:00.053Z</time>
      </trkpt>
      <trkpt lat="45.61661" lon="5.30706">
        <ele>357</ele>
        <time>2020-05-16T15:05:01.053Z</time>
      </trkpt>
      <trkpt lat="45.61658" lon="5.30718">
        <ele>357</ele>
        <time>2020-05-16T15:05:02.053Z</time>
      </trkpt>
      <trkpt lat="45.61656" lon="5.3073">
        <ele>357</ele>
        <time>2020-05-16T15:05:03.053Z</time>
      </trkpt>
      <trkpt lat="45.61654" lon="5.30742">
        <ele>356</ele>
        <time>2020-05-16T15:05:04.053Z</time>
      </trkpt>
      <trkpt lat="45.61652" lon="5.30754">
        <ele>356</ele>
        <time>2020-05-16T15:05:05.053Z</time>
      </trkpt>
      <trkpt lat="45.6165" lon="5.30765">
        <ele>355</ele>
        <time>2020-05-16T15:05:06.053Z</time>
      </trkpt>
      <trkpt lat="45.61648" lon="5.30778">
        <ele>355</ele>
        <time>2020-05-16T15:05:07.053Z</time>
      </trkpt>
      <trkpt lat="45.61647" lon="5.3079">
        <ele>355</ele>
        <time>2020-05-16T15:05:08.053Z</time>
      </trkpt>
      <trkpt lat="45.61645" lon="5.30802">
        <ele>355</ele>
        <time>2020-05-16T15:05:09.053Z</time>
      </trkpt>
      <trkpt lat="45.61644" lon="5.30814">
        <ele>354</ele>
        <time>2020-05-16T15:05:10.053Z</time>
      </trkpt>
      <trkpt lat="45.61642" lon="5.30826">
        <ele>354</ele>
        <time>2020-05-16T15:05:11.053Z</time>
      </trkpt>
      <trkpt lat="45.61641" lon="5.30839">
        <ele>354</ele>
        <time>2020-05-16T15:05:12.053Z</time>
      </trkpt>
      <trkpt lat="45.61639" lon="5.30851">
        <ele>354</ele>
        <time>2020-05-16T15:05:13.053Z</time>
      </trkpt>
      <trkpt lat="45.61638" lon="5.30863">
        <ele>354</ele>
        <time>2020-05-16T15:05:14.053Z</time>
      </trkpt>
      <trkpt lat="45.61636" lon="5.30875">
        <ele>353</ele>
        <time>2020-05-16T15:05:15.053Z</time>
      </trkpt>
      <trkpt lat="45.61634" lon="5.30886">
        <ele>353</ele>
        <time>2020-05-16T15:05:16.053Z</time>
      </trkpt>
      <trkpt lat="45.61633" lon="5.30898">
        <ele>354</ele>
        <time>2020-05-16T15:05:17.053Z</time>
      </trkpt>
      <trkpt lat="45.61631" lon="5.3091">
        <ele>354</ele>
        <time>2020-05-16T15:05:18.053Z</time>
      </trkpt>
      <trkpt lat="45.6163" lon="5.30921">
        <ele>353</ele>
        <time>2020-05-16T15:05:19.053Z</time>
      </trkpt>
      <trkpt lat="45.61628" lon="5.30933">
        <ele>354</ele>
        <time>2020-05-16T15:05:20.053Z</time>
      </trkpt>
      <trkpt lat="45.61627" lon="5.30944">
        <ele>354</ele>
        <time>2020-05-16T15:05:21.053Z</time>
      </trkpt>
      <trkpt lat="45.61625" lon="5.30956">
        <ele>354</ele>
        <time>2020-05-16T15:05:22.053Z</time>
      </trkpt>
      <trkpt lat="45.61623" lon="5.30967">
        <ele>354</ele>
        <time>2020-05-16T15:05:23.053Z</time>
      </trkpt>
      <trkpt lat="45.61622" lon="5.30978">
        <ele>354</ele>
        <time>2020-05-16T15:05:24.053Z</time>
      </trkpt>
      <trkpt lat="45.6162" lon="5.30988">
        <ele>354</ele>
        <time>2020-05-16T15:05:25.053Z</time>
      </trkpt>
      <trkpt lat="45.61618" lon="5.30999">
        <ele>354</ele>
        <time>2020-05-16T15:05:26.053Z</time>
      </trkpt>
      <trkpt lat="45.61617" lon="5.31009">
        <ele>354</ele>
        <time>2020-05-16T15:05:27.053Z</time>
      </trkpt>
      <trkpt lat="45.61615" lon="5.31019">
        <ele>354</ele>
        <time>2020-05-16T15:05:28.053Z</time>
      </trkpt>
      <trkpt lat="45.61614" lon="5.31029">
        <ele>354</ele>
        <time>2020-05-16T15:05:29.053Z</time>
      </trkpt>
      <trkpt lat="45.61612" lon="5.31038">
        <ele>354</ele>
        <time>2020-05-16T15:05:30.053Z</time>
      </trkpt>
      <trkpt lat="45.61611" lon="5.31048">
        <ele>354</ele>
        <time>2020-05-16T15:05:31.053Z</time>
      </trkpt>
      <trkpt lat="45.61609" lon="5.31057">
        <ele>354</ele>
        <time>2020-05-16T15:05:32.053Z</time>
      </trkpt>
      <trkpt lat="45.61608" lon="5.31066">
        <ele>354</ele>
        <time>2020-05-16T15:05:33.053Z</time>
      </trkpt>
      <trkpt lat="45.61607" lon="5.31075">
        <ele>355</ele>
        <time>2020-05-16T15:05:34.053Z</time>
      </trkpt>
      <trkpt lat="45.61605" lon="5.31084">
        <ele>355</ele>
        <time>2020-05-16T15:05:35.053Z</time>
      </trkpt>
      <trkpt lat="45.61604" lon="5.31092">
        <ele>355</ele>
        <time>2020-05-16T15:05:36.053Z</time>
      </trkpt>
      <trkpt lat="45.61603" lon="5.31101">
        <ele>355</ele>
        <time>2020-05-16T15:05:37.053Z</time>
      </trkpt>
      <trkpt lat="45.61602" lon="5.31109">
        <ele>355</ele>
        <time>2020-05-16T15:05:38.053Z</time>
      </trkpt>
      <trkpt lat="45.61601" lon="5.31117">
        <ele>355</ele>
        <time>2020-05-16T15:05:39.053Z</time>
      </trkpt>
      <trkpt lat="45.616" lon="5.31124">
        <ele>355</ele>
        <time>2020-05-16T15:05:40.053Z</time>
      </trkpt>
      <trkpt lat="45.61599" lon="5.31131">
        <ele>355</ele>
        <time>2020-05-16T15:05:41.053Z</time>
      </trkpt>
      <trkpt lat="45.61599" lon="5.31138">
        <ele>355</ele>
        <time>2020-05-16T15:05:42.053Z</time>
      </trkpt>
      <trkpt lat="45.61598" lon="5.31145">
        <ele>355</ele>
        <time>2020-05-16T15:05:43.053Z</time>
      </trkpt>
      <trkpt lat="45.61597" lon="5.31152">
        <ele>355</ele>
        <time>2020-05-16T15:05:44.053Z</time>
      </trkpt>
      <trkpt lat="45.61596" lon="5.31159">
        <ele>355</ele>
        <time>2020-05-16T15:05:45.053Z</time>
      </trkpt>
      <trkpt lat="45.61595" lon="5.31165">
        <ele>355</ele>
        <time>2020-05-16T15:05:46.053Z</time>
      </trkpt>
      <trkpt lat="45.61594" lon="5.31172">
        <ele>355</ele>
        <time>2020-05-16T15:05:47.053Z</time>
      </trkpt>
      <trkpt lat="45.61593" lon="5.31178">
        <ele>355</ele>
        <time>2020-05-16T15:05:48.053Z</time>
      </trkpt>
      <trkpt lat="45.61592" lon="5.31185">
        <ele>355</ele>
        <time>2020-05-16T15:05:49.053Z</time>
      </trkpt>
      <trkpt lat="45.61591" lon="5.31192">
        <ele>355</ele>
        <time>2020-05-16T15:05:50.053Z</time>
      </trkpt>
      <trkpt lat="45.6159" lon="5.31199">
        <ele>355</ele>
        <time>2020-05-16T15:05:51.053Z</time>
      </trkpt>
      <trkpt lat="45.61589" lon="5.31206">
        <ele>355</ele>
        <time>2020-05-16T15:05:52.053Z</time>
      </trkpt>
      <trkpt lat="45.61588" lon="5.31214">
        <ele>355</ele>
        <time>2020-05-16T15:05:53.053Z</time>
      </trkpt>
      <trkpt lat="45.61587" lon="5.31221">
        <ele>355</ele>
        <time>2020-05-16T15:05:54.053Z</time>
      </trkpt>
      <trkpt lat="45.61586" lon="5.31228">
        <ele>356</ele>
        <time>2020-05-16T15:05:55.053Z</time>
      </trkpt>
      <trkpt lat="45.61585" lon="5.31235">
        <ele>356</ele>
        <time>2020-05-16T15:05:56.053Z</time>
      </trkpt>
      <trkpt lat="45.61584" lon="5.31242">
        <ele>356</ele>
        <time>2020-05-16T15:05:57.053Z</time>
      </trkpt>
      <trkpt lat="45.61583" lon="5.3125">
        <ele>356</ele>
        <time>2020-05-16T15:05:58.053Z</time>
      </trkpt>
      <trkpt lat="45.61582" lon="5.31257">
        <ele>356</ele>
        <time>2020-05-16T15:05:59.053Z</time>
      </trkpt>
      <trkpt lat="45.61581" lon="5.31264">
        <ele>356</ele>
        <time>2020-05-16T15:06:00.053Z</time>
      </trkpt>
      <trkpt lat="45.6158" lon="5.31272">
        <ele>356</ele>
        <time>2020-05-16T15:06:01.053Z</time>
      </trkpt>
      <trkpt lat="45.61579" lon="5.31279">
        <ele>356</ele>
        <time>2020-05-16T15:06:02.053Z</time>
      </trkpt>
      <trkpt lat="45.61578" lon="5.31287">
        <ele>357</ele>
        <time>2020-05-16T15:06:03.053Z</time>
      </trkpt>
      <trkpt lat="45.61578" lon="5.31294">
        <ele>357</ele>
        <time>2020-05-16T15:06:04.053Z</time>
      </trkpt>
      <trkpt lat="45.61577" lon="5.31301">
        <ele>357</ele>
        <time>2020-05-16T15:06:05.053Z</time>
      </trkpt>
      <trkpt lat="45.61576" lon="5.31307">
        <ele>357</ele>
        <time>2020-05-16T15:06:06.053Z</time>
      </trkpt>
      <trkpt lat="45.61575" lon="5.31314">
        <ele>357</ele>
        <time>2020-05-16T15:06:07.053Z</time>
      </trkpt>
      <trkpt lat="45.61574" lon="5.3132">
        <ele>358</ele>
        <time>2020-05-16T15:06:08.053Z</time>
      </trkpt>
      <trkpt lat="45.61574" lon="5.31327">
        <ele>358</ele>
        <time>2020-05-16T15:06:09.053Z</time>
      </trkpt>
      <trkpt lat="45.61573" lon="5.31333">
        <ele>358</ele>
        <time>2020-05-16T15:06:10.053Z</time>
      </trkpt>
      <trkpt lat="45.61573" lon="5.31339">
        <ele>358</ele>
        <time>2020-05-16T15:06:11.053Z</time>
      </trkpt>
      <trkpt lat="45.61572" lon="5.31346">
        <ele>358</ele>
        <time>2020-05-16T15:06:12.053Z</time>
      </trkpt>
      <trkpt lat="45.61571" lon="5.31352">
        <ele>358</ele>
        <time>2020-05-16T15:06:13.053Z</time>
      </trkpt>
      <trkpt lat="45.6157" lon="5.31359">
        <ele>359</ele>
        <time>2020-05-16T15:06:14.053Z</time>
      </trkpt>
      <trkpt lat="45.6157" lon="5.31365">
        <ele>359</ele>
        <time>2020-05-16T15:06:15.053Z</time>
      </trkpt>
      <trkpt lat="45.61569" lon="5.31371">
        <ele>359</ele>
        <time>2020-05-16T15:06:16.053Z</time>
      </trkpt>
      <trkpt lat="45.61568" lon="5.31377">
        <ele>359</ele>
        <time>2020-05-16T15:06:17.053Z</time>
      </trkpt>
      <trkpt lat="45.61567" lon="5.31383">
        <ele>360</ele>
        <time>2020-05-16T15:06:18.053Z</time>
      </trkpt>
      <trkpt lat="45.61567" lon="5.31389">
        <ele>360</ele>
        <time>2020-05-16T15:06:19.053Z</time>
      </trkpt>
      <trkpt lat="45.61566" lon="5.31395">
        <ele>360</ele>
        <time>2020-05-16T15:06:20.053Z</time>
      </trkpt>
      <trkpt lat="45.61565" lon="5.31401">
        <ele>360</ele>
        <time>2020-05-16T15:06:21.053Z</time>
      </trkpt>
      <trkpt lat="45.61565" lon="5.31407">
        <ele>360</ele>
        <time>2020-05-16T15:06:22.053Z</time>
      </trkpt>
      <trkpt lat="45.61564" lon="5.31413">
        <ele>361</ele>
        <time>2020-05-16T15:06:23.053Z</time>
      </trkpt>
      <trkpt lat="45.61563" lon="5.31419">
        <ele>361</ele>
        <time>2020-05-16T15:06:24.053Z</time>
      </trkpt>
      <trkpt lat="45.61562" lon="5.31425">
        <ele>361</ele>
        <time>2020-05-16T15:06:25.053Z</time>
      </trkpt>
      <trkpt lat="45.61562" lon="5.31431">
        <ele>361</ele>
        <time>2020-05-16T15:06:26.053Z</time>
      </trkpt>
      <trkpt lat="45.61561" lon="5.31437">
        <ele>361</ele>
        <time>2020-05-16T15:06:27.053Z</time>
      </trkpt>
      <trkpt lat="45.6156" lon="5.31443">
        <ele>361</ele>
        <time>2020-05-16T15:06:28.053Z</time>
      </trkpt>
      <trkpt lat="45.61559" lon="5.31449">
        <ele>361</ele>
        <time>2020-05-16T15:06:29.053Z</time>
      </trkpt>
      <trkpt lat="45.61558" lon="5.31455">
        <ele>361</ele>
        <time>2020-05-16T15:06:30.053Z</time>
      </trkpt>
      <trkpt lat="45.61557" lon="5.31461">
        <ele>362</ele>
        <time>2020-05-16T15:06:31.053Z</time>
      </trkpt>
      <trkpt lat="45.61557" lon="5.31468">
        <ele>362</ele>
        <time>2020-05-16T15:06:32.053Z</time>
      </trkpt>
      <trkpt lat="45.61556" lon="5.31474">
        <ele>362</ele>
        <time>2020-05-16T15:06:33.053Z</time>
      </trkpt>
      <trkpt lat="45.61555" lon="5.3148">
        <ele>362</ele>
        <time>2020-05-16T15:06:34.053Z</time>
      </trkpt>
      <trkpt lat="45.61554" lon="5.31486">
        <ele>362</ele>
        <time>2020-05-16T15:06:35.053Z</time>
      </trkpt>
      <trkpt lat="45.61553" lon="5.31492">
        <ele>362</ele>
        <time>2020-05-16T15:06:36.053Z</time>
      </trkpt>
      <trkpt lat="45.61553" lon="5.31499">
        <ele>362</ele>
        <time>2020-05-16T15:06:37.053Z</time>
      </trkpt>
      <trkpt lat="45.61552" lon="5.31505">
        <ele>362</ele>
        <time>2020-05-16T15:06:38.053Z</time>
      </trkpt>
      <trkpt lat="45.61552" lon="5.31511">
        <ele>362</ele>
        <time>2020-05-16T15:06:39.053Z</time>
      </trkpt>
      <trkpt lat="45.61551" lon="5.31518">
        <ele>362</ele>
        <time>2020-05-16T15:06:40.053Z</time>
      </trkpt>
      <trkpt lat="45.61551" lon="5.31524">
        <ele>362</ele>
        <time>2020-05-16T15:06:41.053Z</time>
      </trkpt>
      <trkpt lat="45.61551" lon="5.31531">
        <ele>362</ele>
        <time>2020-05-16T15:06:42.053Z</time>
      </trkpt>
      <trkpt lat="45.61551" lon="5.31538">
        <ele>361</ele>
        <time>2020-05-16T15:06:43.053Z</time>
      </trkpt>
      <trkpt lat="45.61551" lon="5.31545">
        <ele>361</ele>
        <time>2020-05-16T15:06:44.053Z</time>
      </trkpt>
      <trkpt lat="45.61551" lon="5.31552">
        <ele>361</ele>
        <time>2020-05-16T15:06:45.053Z</time>
      </trkpt>
      <trkpt lat="45.61551" lon="5.31559">
        <ele>361</ele>
        <time>2020-05-16T15:06:46.053Z</time>
      </trkpt>
      <trkpt lat="45.61551" lon="5.31566">
        <ele>361</ele>
        <time>2020-05-16T15:06:47.053Z</time>
      </trkpt>
      <trkpt lat="45.61551" lon="5.31573">
        <ele>361</ele>
        <time>2020-05-16T15:06:48.053Z</time>
      </trkpt>
      <trkpt lat="45.61551" lon="5.3158">
        <ele>361</ele>
        <time>2020-05-16T15:06:49.053Z</time>
      </trkpt>
      <trkpt lat="45.61551" lon="5.31587">
        <ele>361</ele>
        <time>2020-05-16T15:06:50.053Z</time>
      </trkpt>
      <trkpt lat="45.61551" lon="5.31594">
        <ele>361</ele>
        <time>2020-05-16T15:06:51.053Z</time>
      </trkpt>
      <trkpt lat="45.61551" lon="5.31601">
        <ele>361</ele>
        <time>2020-05-16T15:06:52.053Z</time>
      </trkpt>
      <trkpt lat="45.61551" lon="5.31608">
        <ele>361</ele>
        <time>2020-05-16T15:06:53.053Z</time>
      </trkpt>
      <trkpt lat="45.61551" lon="5.31616">
        <ele>361</ele>
        <time>2020-05-16T15:06:54.053Z</time>
      </trkpt>
      <trkpt lat="45.61552" lon="5.31623">
        <ele>361</ele>
        <time>2020-05-16T15:06:55.053Z</time>
      </trkpt>
      <trkpt lat="45.61552" lon="5.3163">
        <ele>361</ele>
        <time>2020-05-16T15:06:56.053Z</time>
      </trkpt>
      <trkpt lat="45.61552" lon="5.31638">
        <ele>361</ele>
        <time>2020-05-16T15:06:57.053Z</time>
      </trkpt>
      <trkpt lat="45.61552" lon="5.31646">
        <ele>362</ele>
        <time>2020-05-16T15:06:58.053Z</time>
      </trkpt>
      <trkpt lat="45.61552" lon="5.31653">
        <ele>361</ele>
        <time>2020-05-16T15:06:59.053Z</time>
      </trkpt>
      <trkpt lat="45.61552" lon="5.31661">
        <ele>361</ele>
        <time>2020-05-16T15:07:00.053Z</time>
      </trkpt>
      <trkpt lat="45.61552" lon="5.31668">
        <ele>361</ele>
        <time>2020-05-16T15:07:01.053Z</time>
      </trkpt>
      <trkpt lat="45.61552" lon="5.31676">
        <ele>360</ele>
        <time>2020-05-16T15:07:02.053Z</time>
      </trkpt>
      <trkpt lat="45.61552" lon="5.31683">
        <ele>361</ele>
        <time>2020-05-16T15:07:03.053Z</time>
      </trkpt>
      <trkpt lat="45.61552" lon="5.3169">
        <ele>361</ele>
        <time>2020-05-16T15:07:04.053Z</time>
      </trkpt>
      <trkpt lat="45.61552" lon="5.31697">
        <ele>361</ele>
        <time>2020-05-16T15:07:05.053Z</time>
      </trkpt>
      <trkpt lat="45.61552" lon="5.31704">
        <ele>361</ele>
        <time>2020-05-16T15:07:06.053Z</time>
      </trkpt>
      <trkpt lat="45.61552" lon="5.31711">
        <ele>361</ele>
        <time>2020-05-16T15:07:07.053Z</time>
      </trkpt>
      <trkpt lat="45.61552" lon="5.31718">
        <ele>361</ele>
        <time>2020-05-16T15:07:08.053Z</time>
      </trkpt>
      <trkpt lat="45.61552" lon="5.31725">
        <ele>361</ele>
        <time>2020-05-16T15:07:09.053Z</time>
      </trkpt>
      <trkpt lat="45.61552" lon="5.31732">
        <ele>361</ele>
        <time>2020-05-16T15:07:10.053Z</time>
      </trkpt>
      <trkpt lat="45.61553" lon="5.31738">
        <ele>361</ele>
        <time>2020-05-16T15:07:11.053Z</time>
      </trkpt>
      <trkpt lat="45.61553" lon="5.31745">
        <ele>361</ele>
        <time>2020-05-16T15:07:12.053Z</time>
      </trkpt>
      <trkpt lat="45.61553" lon="5.31752">
        <ele>361</ele>
        <time>2020-05-16T15:07:13.053Z</time>
      </trkpt>
      <trkpt lat="45.61553" lon="5.31759">
        <ele>361</ele>
        <time>2020-05-16T15:07:14.053Z</time>
      </trkpt>
      <trkpt lat="45.61553" lon="5.31765">
        <ele>361</ele>
        <time>2020-05-16T15:07:15.053Z</time>
      </trkpt>
      <trkpt lat="45.61553" lon="5.31772">
        <ele>361</ele>
        <time>2020-05-16T15:07:16.053Z</time>
      </trkpt>
      <trkpt lat="45.61553" lon="5.31779">
        <ele>361</ele>
        <time>2020-05-16T15:07:17.053Z</time>
      </trkpt>
      <trkpt lat="45.61554" lon="5.31785">
        <ele>361</ele>
        <time>2020-05-16T15:07:18.053Z</time>
      </trkpt>
      <trkpt lat="45.61554" lon="5.31792">
        <ele>362</ele>
        <time>2020-05-16T15:07:19.053Z</time>
      </trkpt>
      <trkpt lat="45.61554" lon="5.31798">
        <ele>362</ele>
        <time>2020-05-16T15:07:20.053Z</time>
      </trkpt>
      <trkpt lat="45.61554" lon="5.31805">
        <ele>362</ele>
        <time>2020-05-16T15:07:21.053Z</time>
      </trkpt>
      <trkpt lat="45.61554" lon="5.31811">
        <ele>363</ele>
        <time>2020-05-16T15:07:22.053Z</time>
      </trkpt>
      <trkpt lat="45.61554" lon="5.31817">
        <ele>363</ele>
        <time>2020-05-16T15:07:23.053Z</time>
      </trkpt>
      <trkpt lat="45.61554" lon="5.31823">
        <ele>363</ele>
        <time>2020-05-16T15:07:24.053Z</time>
      </trkpt>
      <trkpt lat="45.61554" lon="5.3183">
        <ele>363</ele>
        <time>2020-05-16T15:07:25.053Z</time>
      </trkpt>
      <trkpt lat="45.61554" lon="5.31836">
        <ele>363</ele>
        <time>2020-05-16T15:07:26.053Z</time>
      </trkpt>
      <trkpt lat="45.61554" lon="5.31843">
        <ele>363</ele>
        <time>2020-05-16T15:07:27.053Z</time>
      </trkpt>
      <trkpt lat="45.61553" lon="5.31849">
        <ele>363</ele>
        <time>2020-05-16T15:07:28.053Z</time>
      </trkpt>
      <trkpt lat="45.61553" lon="5.31854">
        <ele>363</ele>
        <time>2020-05-16T15:07:29.053Z</time>
      </trkpt>
      <trkpt lat="45.61553" lon="5.3186">
        <ele>363</ele>
        <time>2020-05-16T15:07:30.053Z</time>
      </trkpt>
      <trkpt lat="45.61553" lon="5.31865">
        <ele>364</ele>
        <time>2020-05-16T15:07:31.053Z</time>
      </trkpt>
      <trkpt lat="45.61553" lon="5.3187">
        <ele>364</ele>
        <time>2020-05-16T15:07:32.053Z</time>
      </trkpt>
      <trkpt lat="45.61552" lon="5.31873">
        <ele>364</ele>
        <time>2020-05-16T15:07:33.053Z</time>
      </trkpt>
      <trkpt lat="45.61551" lon="5.31876">
        <ele>363</ele>
        <time>2020-05-16T15:07:34.053Z</time>
      </trkpt>
      <trkpt lat="45.6155" lon="5.31879">
        <ele>363</ele>
        <time>2020-05-16T15:07:35.053Z</time>
      </trkpt>
      <trkpt lat="45.6155" lon="5.31881">
        <ele>363</ele>
        <time>2020-05-16T15:07:36.053Z</time>
      </trkpt>
      <trkpt lat="45.61549" lon="5.31883">
        <ele>363</ele>
        <time>2020-05-16T15:07:37.053Z</time>
      </trkpt>
      <trkpt lat="45.61548" lon="5.31883">
        <ele>364</ele>
        <time>2020-05-16T15:07:38.053Z</time>
      </trkpt>
      <trkpt lat="45.61548" lon="5.31884">
        <ele>363</ele>
        <time>2020-05-16T15:07:39.053Z</time>
      </trkpt>
      <trkpt lat="45.61548" lon="5.31884">
        <ele>363</ele>
        <time>2020-05-16T15:07:40.053Z</time>
      </trkpt>
      <trkpt lat="45.61548" lon="5.31884">
        <ele>364</ele>
        <time>2020-05-16T15:07:41.053Z</time>
      </trkpt>
      <trkpt lat="45.61548" lon="5.31884">
        <ele>364</ele>
        <time>2020-05-16T15:07:42.053Z</time>
      </trkpt>
      <trkpt lat="45.61548" lon="5.31884">
        <ele>364</ele>
        <time>2020-05-16T15:07:43.053Z</time>
      </trkpt>
      <trkpt lat="45.61548" lon="5.31884">
        <ele>364</ele>
        <time>2020-05-16T15:07:44.053Z</time>
      </trkpt>
      <trkpt lat="45.61548" lon="5.31884">
        <ele>365</ele>
        <time>2020-05-16T15:07:45.053Z</time>
      </trkpt>
      <trkpt lat="45.61548" lon="5.31884">
        <ele>365</ele>
        <time>2020-05-16T15:07:46.053Z</time>
      </trkpt>
      <trkpt lat="45.61549" lon="5.31884">
        <ele>365</ele>
        <time>2020-05-16T15:07:47.053Z</time>
      </trkpt>
      <trkpt lat="45.61549" lon="5.31884">
        <ele>365</ele>
        <time>2020-05-16T15:07:48.053Z</time>
      </trkpt>
      <trkpt lat="45.61549" lon="5.31884">
        <ele>365</ele>
        <time>2020-05-16T15:07:49.053Z</time>
      </trkpt>
      <trkpt lat="45.61549" lon="5.31884">
        <ele>365</ele>
        <time>2020-05-16T15:07:50.053Z</time>
      </trkpt>
      <trkpt lat="45.61542" lon="5.31883">
        <ele>363</ele>
        <time>2020-05-16T15:07:52.057Z</time>
      </trkpt>
      <trkpt lat="45.61541" lon="5.31881">
        <ele>363</ele>
        <time>2020-05-16T15:07:53.057Z</time>
      </trkpt>
      <trkpt lat="45.61538" lon="5.31879">
        <ele>363</ele>
        <time>2020-05-16T15:07:54.057Z</time>
      </trkpt>
      <trkpt lat="45.61535" lon="5.31877">
        <ele>363</ele>
        <time>2020-05-16T15:07:55.057Z</time>
      </trkpt>
      <trkpt lat="45.61531" lon="5.31874">
        <ele>362</ele>
        <time>2020-05-16T15:07:56.057Z</time>
      </trkpt>
      <trkpt lat="45.61527" lon="5.3187">
        <ele>362</ele>
        <time>2020-05-16T15:07:57.057Z</time>
      </trkpt>
      <trkpt lat="45.61524" lon="5.31866">
        <ele>361</ele>
        <time>2020-05-16T15:07:58.057Z</time>
      </trkpt>
      <trkpt lat="45.6152" lon="5.3186">
        <ele>361</ele>
        <time>2020-05-16T15:07:59.057Z</time>
      </trkpt>
      <trkpt lat="45.61515" lon="5.31855">
        <ele>361</ele>
        <time>2020-05-16T15:08:00.057Z</time>
      </trkpt>
      <trkpt lat="45.61511" lon="5.31849">
        <ele>360</ele>
        <time>2020-05-16T15:08:01.057Z</time>
      </trkpt>
      <trkpt lat="45.61506" lon="5.31843">
        <ele>360</ele>
        <time>2020-05-16T15:08:02.057Z</time>
      </trkpt>
      <trkpt lat="45.61501" lon="5.31837">
        <ele>360</ele>
        <time>2020-05-16T15:08:03.057Z</time>
      </trkpt>
      <trkpt lat="45.61497" lon="5.31831">
        <ele>360</ele>
        <time>2020-05-16T15:08:04.057Z</time>
      </trkpt>
      <trkpt lat="45.61492" lon="5.31824">
        <ele>359</ele>
        <time>2020-05-16T15:08:05.057Z</time>
      </trkpt>
      <trkpt lat="45.61487" lon="5.31818">
        <ele>359</ele>
        <time>2020-05-16T15:08:06.057Z</time>
      </trkpt>
      <trkpt lat="45.61482" lon="5.31811">
        <ele>358</ele>
        <time>2020-05-16T15:08:07.057Z</time>
      </trkpt>
      <trkpt lat="45.61477" lon="5.31804">
        <ele>358</ele>
        <time>2020-05-16T15:08:08.057Z</time>
      </trkpt>
      <trkpt lat="45.61472" lon="5.31797">
        <ele>357</ele>
        <time>2020-05-16T15:08:09.057Z</time>
      </trkpt>
      <trkpt lat="45.61467" lon="5.31789">
        <ele>356</ele>
        <time>2020-05-16T15:08:10.057Z</time>
      </trkpt>
      <trkpt lat="45.61461" lon="5.31782">
        <ele>356</ele>
        <time>2020-05-16T15:08:11.057Z</time>
      </trkpt>
      <trkpt lat="45.61455" lon="5.31774">
        <ele>355</ele>
        <time>2020-05-16T15:08:12.057Z</time>
      </trkpt>
      <trkpt lat="45.61449" lon="5.31765">
        <ele>354</ele>
        <time>2020-05-16T15:08:13.057Z</time>
      </trkpt>
      <trkpt lat="45.61443" lon="5.31757">
        <ele>354</ele>
        <time>2020-05-16T15:08:14.057Z</time>
      </trkpt>
      <trkpt lat="45.61436" lon="5.31748">
        <ele>353</ele>
        <time>2020-05-16T15:08:15.057Z</time>
      </trkpt>
      <trkpt lat="45.61429" lon="5.31739">
        <ele>352</ele>
        <time>2020-05-16T15:08:16.057Z</time>
      </trkpt>
      <trkpt lat="45.61422" lon="5.31729">
        <ele>351</ele>
        <time>2020-05-16T15:08:17.057Z</time>
      </trkpt>
      <trkpt lat="45.61415" lon="5.3172">
        <ele>350</ele>
        <time>2020-05-16T15:08:18.057Z</time>
      </trkpt>
      <trkpt lat="45.61407" lon="5.3171">
        <ele>349</ele>
        <time>2020-05-16T15:08:19.057Z</time>
      </trkpt>
      <trkpt lat="45.61399" lon="5.317">
        <ele>348</ele>
        <time>2020-05-16T15:08:20.057Z</time>
      </trkpt>
      <trkpt lat="45.61391" lon="5.3169">
        <ele>348</ele>
        <time>2020-05-16T15:08:21.057Z</time>
      </trkpt>
      <trkpt lat="45.61383" lon="5.3168">
        <ele>347</ele>
        <time>2020-05-16T15:08:22.057Z</time>
      </trkpt>
      <trkpt lat="45.61375" lon="5.31669">
        <ele>346</ele>
        <time>2020-05-16T15:08:23.057Z</time>
      </trkpt>
      <trkpt lat="45.61366" lon="5.31659">
        <ele>345</ele>
        <time>2020-05-16T15:08:24.057Z</time>
      </trkpt>
      <trkpt lat="45.61358" lon="5.31649">
        <ele>345</ele>
        <time>2020-05-16T15:08:25.057Z</time>
      </trkpt>
      <trkpt lat="45.61349" lon="5.31638">
        <ele>344</ele>
        <time>2020-05-16T15:08:26.057Z</time>
      </trkpt>
      <trkpt lat="45.61341" lon="5.31628">
        <ele>343</ele>
        <time>2020-05-16T15:08:27.057Z</time>
      </trkpt>
      <trkpt lat="45.61333" lon="5.31617">
        <ele>342</ele>
        <time>2020-05-16T15:08:28.057Z</time>
      </trkpt>
      <trkpt lat="45.61325" lon="5.31607">
        <ele>341</ele>
        <time>2020-05-16T15:08:29.057Z</time>
      </trkpt>
      <trkpt lat="45.61317" lon="5.31596">
        <ele>340</ele>
        <time>2020-05-16T15:08:30.057Z</time>
      </trkpt>
      <trkpt lat="45.61309" lon="5.31586">
        <ele>339</ele>
        <time>2020-05-16T15:08:31.057Z</time>
      </trkpt>
      <trkpt lat="45.61301" lon="5.31574">
        <ele>339</ele>
        <time>2020-05-16T15:08:32.057Z</time>
      </trkpt>
      <trkpt lat="45.61292" lon="5.31563">
        <ele>338</ele>
        <time>2020-05-16T15:08:33.057Z</time>
      </trkpt>
      <trkpt lat="45.61284" lon="5.3155">
        <ele>337</ele>
        <time>2020-05-16T15:08:34.057Z</time>
      </trkpt>
      <trkpt lat="45.61275" lon="5.31538">
        <ele>336</ele>
        <time>2020-05-16T15:08:35.057Z</time>
      </trkpt>
      <trkpt lat="45.61267" lon="5.31524">
        <ele>335</ele>
        <time>2020-05-16T15:08:36.057Z</time>
      </trkpt>
      <trkpt lat="45.61259" lon="5.3151">
        <ele>334</ele>
        <time>2020-05-16T15:08:37.057Z</time>
      </trkpt>
      <trkpt lat="45.61251" lon="5.31495">
        <ele>332</ele>
        <time>2020-05-16T15:08:38.057Z</time>
      </trkpt>
      <trkpt lat="45.61243" lon="5.3148">
        <ele>332</ele>
        <time>2020-05-16T15:08:39.057Z</time>
      </trkpt>
      <trkpt lat="45.61237" lon="5.31463">
        <ele>331</ele>
        <time>2020-05-16T15:08:40.057Z</time>
      </trkpt>
      <trkpt lat="45.61231" lon="5.31446">
        <ele>330</ele>
        <time>2020-05-16T15:08:41.057Z</time>
      </trkpt>
      <trkpt lat="45.61226" lon="5.31428">
        <ele>329</ele>
        <time>2020-05-16T15:08:42.057Z</time>
      </trkpt>
      <trkpt lat="45.61222" lon="5.31411">
        <ele>328</ele>
        <time>2020-05-16T15:08:43.057Z</time>
      </trkpt>
      <trkpt lat="45.61217" lon="5.31393">
        <ele>327</ele>
        <time>2020-05-16T15:08:44.057Z</time>
      </trkpt>
      <trkpt lat="45.61212" lon="5.31376">
        <ele>326</ele>
        <time>2020-05-16T15:08:45.057Z</time>
      </trkpt>
      <trkpt lat="45.61208" lon="5.31359">
        <ele>325</ele>
        <time>2020-05-16T15:08:46.057Z</time>
      </trkpt>
      <trkpt lat="45.61203" lon="5.31342">
        <ele>325</ele>
        <time>2020-05-16T15:08:47.057Z</time>
      </trkpt>
      <trkpt lat="45.61198" lon="5.31326">
        <ele>324</ele>
        <time>2020-05-16T15:08:48.057Z</time>
      </trkpt>
      <trkpt lat="45.61193" lon="5.3131">
        <ele>323</ele>
        <time>2020-05-16T15:08:49.057Z</time>
      </trkpt>
      <trkpt lat="45.61187" lon="5.31295">
        <ele>323</ele>
        <time>2020-05-16T15:08:50.057Z</time>
      </trkpt>
      <trkpt lat="45.61181" lon="5.31281">
        <ele>323</ele>
        <time>2020-05-16T15:08:51.057Z</time>
      </trkpt>
      <trkpt lat="45.61175" lon="5.31268">
        <ele>324</ele>
        <time>2020-05-16T15:08:52.057Z</time>
      </trkpt>
      <trkpt lat="45.61169" lon="5.31256">
        <ele>325</ele>
        <time>2020-05-16T15:08:53.057Z</time>
      </trkpt>
      <trkpt lat="45.61162" lon="5.31244">
        <ele>325</ele>
        <time>2020-05-16T15:08:54.057Z</time>
      </trkpt>
      <trkpt lat="45.61157" lon="5.31232">
        <ele>326</ele>
        <time>2020-05-16T15:08:55.057Z</time>
      </trkpt>
      <trkpt lat="45.61151" lon="5.31221">
        <ele>328</ele>
        <time>2020-05-16T15:08:56.057Z</time>
      </trkpt>
      <trkpt lat="45.61147" lon="5.31211">
        <ele>328</ele>
        <time>2020-05-16T15:08:57.057Z</time>
      </trkpt>
      <trkpt lat="45.61142" lon="5.31201">
        <ele>329</ele>
        <time>2020-05-16T15:08:58.057Z</time>
      </trkpt>
      <trkpt lat="45.61137" lon="5.31191">
        <ele>330</ele>
        <time>2020-05-16T15:08:59.057Z</time>
      </trkpt>
      <trkpt lat="45.61132" lon="5.31182">
        <ele>330</ele>
        <time>2020-05-16T15:09:00.057Z</time>
      </trkpt>
      <trkpt lat="45.61128" lon="5.31172">
        <ele>331</ele>
        <time>2020-05-16T15:09:01.057Z</time>
      </trkpt>
      <trkpt lat="45.61123" lon="5.31163">
        <ele>331</ele>
        <time>2020-05-16T15:09:02.057Z</time>
      </trkpt>
      <trkpt lat="45.61119" lon="5.31154">
        <ele>332</ele>
        <time>2020-05-16T15:09:03.057Z</time>
      </trkpt>
      <trkpt lat="45.61116" lon="5.31145">
        <ele>333</ele>
        <time>2020-05-16T15:09:04.057Z</time>
      </trkpt>
      <trkpt lat="45.61112" lon="5.31136">
        <ele>333</ele>
        <time>2020-05-16T15:09:05.057Z</time>
      </trkpt>
      <trkpt lat="45.61108" lon="5.31127">
        <ele>334</ele>
        <time>2020-05-16T15:09:06.057Z</time>
      </trkpt>
      <trkpt lat="45.61105" lon="5.31117">
        <ele>335</ele>
        <time>2020-05-16T15:09:07.057Z</time>
      </trkpt>
      <trkpt lat="45.61101" lon="5.31108">
        <ele>335</ele>
        <time>2020-05-16T15:09:08.057Z</time>
      </trkpt>
      <trkpt lat="45.61097" lon="5.31099">
        <ele>336</ele>
        <time>2020-05-16T15:09:09.057Z</time>
      </trkpt>
      <trkpt lat="45.61094" lon="5.31089">
        <ele>336</ele>
        <time>2020-05-16T15:09:10.057Z</time>
      </trkpt>
      <trkpt lat="45.6109" lon="5.3108">
        <ele>337</ele>
        <time>2020-05-16T15:09:11.057Z</time>
      </trkpt>
      <trkpt lat="45.61086" lon="5.31071">
        <ele>338</ele>
        <time>2020-05-16T15:09:12.057Z</time>
      </trkpt>
      <trkpt lat="45.61082" lon="5.31061">
        <ele>339</ele>
        <time>2020-05-16T15:09:13.057Z</time>
      </trkpt>
      <trkpt lat="45.61078" lon="5.31052">
        <ele>340</ele>
        <time>2020-05-16T15:09:14.057Z</time>
      </trkpt>
      <trkpt lat="45.61074" lon="5.31043">
        <ele>340</ele>
        <time>2020-05-16T15:09:15.057Z</time>
      </trkpt>
      <trkpt lat="45.61071" lon="5.31033">
        <ele>341</ele>
        <time>2020-05-16T15:09:16.057Z</time>
      </trkpt>
      <trkpt lat="45.61067" lon="5.31024">
        <ele>341</ele>
        <time>2020-05-16T15:09:17.057Z</time>
      </trkpt>
      <trkpt lat="45.61062" lon="5.31015">
        <ele>342</ele>
        <time>2020-05-16T15:09:18.057Z</time>
      </trkpt>
      <trkpt lat="45.61058" lon="5.31007">
        <ele>343</ele>
        <time>2020-05-16T15:09:19.057Z</time>
      </trkpt>
      <trkpt lat="45.61054" lon="5.30999">
        <ele>343</ele>
        <time>2020-05-16T15:09:20.057Z</time>
      </trkpt>
      <trkpt lat="45.61051" lon="5.30991">
        <ele>344</ele>
        <time>2020-05-16T15:09:21.057Z</time>
      </trkpt>
      <trkpt lat="45.61047" lon="5.30983">
        <ele>344</ele>
        <time>2020-05-16T15:09:22.057Z</time>
      </trkpt>
      <trkpt lat="45.61044" lon="5.30976">
        <ele>345</ele>
        <time>2020-05-16T15:09:23.057Z</time>
      </trkpt>
      <trkpt lat="45.6104" lon="5.3097">
        <ele>345</ele>
        <time>2020-05-16T15:09:24.057Z</time>
      </trkpt>
      <trkpt lat="45.61038" lon="5.30963">
        <ele>345</ele>
        <time>2020-05-16T15:09:25.057Z</time>
      </trkpt>
      <trkpt lat="45.61035" lon="5.30957">
        <ele>346</ele>
        <time>2020-05-16T15:09:26.057Z</time>
      </trkpt>
      <trkpt lat="45.61032" lon="5.30951">
        <ele>346</ele>
        <time>2020-05-16T15:09:27.057Z</time>
      </trkpt>
      <trkpt lat="45.61029" lon="5.30945">
        <ele>347</ele>
        <time>2020-05-16T15:09:28.057Z</time>
      </trkpt>
      <trkpt lat="45.61026" lon="5.30939">
        <ele>347</ele>
        <time>2020-05-16T15:09:29.057Z</time>
      </trkpt>
      <trkpt lat="45.61023" lon="5.30933">
        <ele>347</ele>
        <time>2020-05-16T15:09:30.057Z</time>
      </trkpt>
      <trkpt lat="45.6102" lon="5.30928">
        <ele>348</ele>
        <time>2020-05-16T15:09:31.057Z</time>
      </trkpt>
      <trkpt lat="45.61018" lon="5.30923">
        <ele>348</ele>
        <time>2020-05-16T15:09:32.057Z</time>
      </trkpt>
      <trkpt lat="45.61016" lon="5.30918">
        <ele>348</ele>
        <time>2020-05-16T15:09:33.057Z</time>
      </trkpt>
      <trkpt lat="45.61014" lon="5.30914">
        <ele>348</ele>
        <time>2020-05-16T15:09:34.057Z</time>
      </trkpt>
      <trkpt lat="45.61012" lon="5.3091">
        <ele>348</ele>
        <time>2020-05-16T15:09:35.057Z</time>
      </trkpt>
      <trkpt lat="45.6101" lon="5.30906">
        <ele>348</ele>
        <time>2020-05-16T15:09:36.057Z</time>
      </trkpt>
      <trkpt lat="45.61008" lon="5.30902">
        <ele>348</ele>
        <time>2020-05-16T15:09:37.057Z</time>
      </trkpt>
      <trkpt lat="45.61006" lon="5.30898">
        <ele>348</ele>
        <time>2020-05-16T15:09:38.057Z</time>
      </trkpt>
      <trkpt lat="45.61004" lon="5.30894">
        <ele>349</ele>
        <time>2020-05-16T15:09:39.057Z</time>
      </trkpt>
      <trkpt lat="45.61003" lon="5.3089">
        <ele>349</ele>
        <time>2020-05-16T15:09:40.057Z</time>
      </trkpt>
      <trkpt lat="45.61001" lon="5.30886">
        <ele>349</ele>
        <time>2020-05-16T15:09:41.057Z</time>
      </trkpt>
      <trkpt lat="45.60999" lon="5.30881">
        <ele>349</ele>
        <time>2020-05-16T15:09:42.057Z</time>
      </trkpt>
      <trkpt lat="45.60997" lon="5.30877">
        <ele>350</ele>
        <time>2020-05-16T15:09:43.057Z</time>
      </trkpt>
      <trkpt lat="45.60995" lon="5.30873">
        <ele>350</ele>
        <time>2020-05-16T15:09:44.057Z</time>
      </trkpt>
      <trkpt lat="45.60993" lon="5.30868">
        <ele>350</ele>
        <time>2020-05-16T15:09:45.057Z</time>
      </trkpt>
      <trkpt lat="45.60991" lon="5.30864">
        <ele>350</ele>
        <time>2020-05-16T15:09:46.057Z</time>
      </trkpt>
      <trkpt lat="45.60989" lon="5.3086">
        <ele>350</ele>
        <time>2020-05-16T15:09:47.057Z</time>
      </trkpt>
      <trkpt lat="45.60987" lon="5.30855">
        <ele>350</ele>
        <time>2020-05-16T15:09:48.057Z</time>
      </trkpt>
      <trkpt lat="45.60985" lon="5.30851">
        <ele>350</ele>
        <time>2020-05-16T15:09:49.057Z</time>
      </trkpt>
      <trkpt lat="45.60982" lon="5.30847">
        <ele>350</ele>
        <time>2020-05-16T15:09:50.057Z</time>
      </trkpt>
      <trkpt lat="45.60981" lon="5.30842">
        <ele>350</ele>
        <time>2020-05-16T15:09:51.057Z</time>
      </trkpt>
      <trkpt lat="45.60979" lon="5.30838">
        <ele>350</ele>
        <time>2020-05-16T15:09:52.057Z</time>
      </trkpt>
      <trkpt lat="45.60977" lon="5.30834">
        <ele>350</ele>
        <time>2020-05-16T15:09:53.057Z</time>
      </trkpt>
      <trkpt lat="45.60975" lon="5.30829">
        <ele>350</ele>
        <time>2020-05-16T15:09:54.057Z</time>
      </trkpt>
      <trkpt lat="45.60973" lon="5.30825">
        <ele>351</ele>
        <time>2020-05-16T15:09:55.057Z</time>
      </trkpt>
      <trkpt lat="45.60971" lon="5.30821">
        <ele>351</ele>
        <time>2020-05-16T15:09:56.057Z</time>
      </trkpt>
      <trkpt lat="45.60969" lon="5.30817">
        <ele>351</ele>
        <time>2020-05-16T15:09:57.057Z</time>
      </trkpt>
      <trkpt lat="45.60967" lon="5.30813">
        <ele>351</ele>
        <time>2020-05-16T15:09:58.057Z</time>
      </trkpt>
      <trkpt lat="45.60965" lon="5.30809">
        <ele>352</ele>
        <time>2020-05-16T15:09:59.057Z</time>
      </trkpt>
      <trkpt lat="45.60964" lon="5.30806">
        <ele>352</ele>
        <time>2020-05-16T15:10:00.057Z</time>
      </trkpt>
      <trkpt lat="45.60962" lon="5.30802">
        <ele>352</ele>
        <time>2020-05-16T15:10:01.057Z</time>
      </trkpt>
      <trkpt lat="45.6096" lon="5.30798">
        <ele>352</ele>
        <time>2020-05-16T15:10:02.057Z</time>
      </trkpt>
      <trkpt lat="45.60959" lon="5.30794">
        <ele>352</ele>
        <time>2020-05-16T15:10:03.057Z</time>
      </trkpt>
      <trkpt lat="45.60957" lon="5.3079">
        <ele>353</ele>
        <time>2020-05-16T15:10:04.057Z</time>
      </trkpt>
      <trkpt lat="45.60955" lon="5.30786">
        <ele>353</ele>
        <time>2020-05-16T15:10:05.057Z</time>
      </trkpt>
      <trkpt lat="45.60954" lon="5.30782">
        <ele>353</ele>
        <time>2020-05-16T15:10:06.057Z</time>
      </trkpt>
      <trkpt lat="45.60952" lon="5.30779">
        <ele>353</ele>
        <time>2020-05-16T15:10:07.057Z</time>
      </trkpt>
      <trkpt lat="45.6095" lon="5.30775">
        <ele>353</ele>
        <time>2020-05-16T15:10:08.057Z</time>
      </trkpt>
      <trkpt lat="45.60948" lon="5.30771">
        <ele>353</ele>
        <time>2020-05-16T15:10:09.057Z</time>
      </trkpt>
      <trkpt lat="45.60947" lon="5.30768">
        <ele>354</ele>
        <time>2020-05-16T15:10:10.057Z</time>
      </trkpt>
      <trkpt lat="45.60945" lon="5.30764">
        <ele>354</ele>
        <time>2020-05-16T15:10:11.057Z</time>
      </trkpt>
      <trkpt lat="45.60943" lon="5.3076">
        <ele>354</ele>
        <time>2020-05-16T15:10:12.057Z</time>
      </trkpt>
      <trkpt lat="45.60942" lon="5.30756">
        <ele>354</ele>
        <time>2020-05-16T15:10:13.057Z</time>
      </trkpt>
      <trkpt lat="45.6094" lon="5.30752">
        <ele>355</ele>
        <time>2020-05-16T15:10:14.057Z</time>
      </trkpt>
      <trkpt lat="45.60938" lon="5.30748">
        <ele>355</ele>
        <time>2020-05-16T15:10:15.057Z</time>
      </trkpt>
      <trkpt lat="45.60936" lon="5.30745">
        <ele>355</ele>
        <time>2020-05-16T15:10:16.057Z</time>
      </trkpt>
      <trkpt lat="45.60935" lon="5.30741">
        <ele>355</ele>
        <time>2020-05-16T15:10:17.057Z</time>
      </trkpt>
      <trkpt lat="45.60933" lon="5.30737">
        <ele>355</ele>
        <time>2020-05-16T15:10:18.057Z</time>
      </trkpt>
      <trkpt lat="45.60931" lon="5.30734">
        <ele>355</ele>
        <time>2020-05-16T15:10:19.057Z</time>
      </trkpt>
      <trkpt lat="45.6093" lon="5.30731">
        <ele>355</ele>
        <time>2020-05-16T15:10:20.057Z</time>
      </trkpt>
      <trkpt lat="45.60928" lon="5.30728">
        <ele>355</ele>
        <time>2020-05-16T15:10:21.057Z</time>
      </trkpt>
      <trkpt lat="45.60926" lon="5.30724">
        <ele>355</ele>
        <time>2020-05-16T15:10:22.057Z</time>
      </trkpt>
      <trkpt lat="45.60924" lon="5.30721">
        <ele>355</ele>
        <time>2020-05-16T15:10:23.057Z</time>
      </trkpt>
      <trkpt lat="45.60922" lon="5.30718">
        <ele>355</ele>
        <time>2020-05-16T15:10:24.057Z</time>
      </trkpt>
      <trkpt lat="45.6092" lon="5.30714">
        <ele>355</ele>
        <time>2020-05-16T15:10:25.057Z</time>
      </trkpt>
      <trkpt lat="45.60918" lon="5.3071">
        <ele>354</ele>
        <time>2020-05-16T15:10:26.057Z</time>
      </trkpt>
      <trkpt lat="45.60915" lon="5.30706">
        <ele>354</ele>
        <time>2020-05-16T15:10:27.057Z</time>
      </trkpt>
      <trkpt lat="45.60913" lon="5.30702">
        <ele>354</ele>
        <time>2020-05-16T15:10:28.057Z</time>
      </trkpt>
      <trkpt lat="45.6091" lon="5.30698">
        <ele>354</ele>
        <time>2020-05-16T15:10:29.057Z</time>
      </trkpt>
      <trkpt lat="45.60907" lon="5.30694">
        <ele>354</ele>
        <time>2020-05-16T15:10:30.057Z</time>
      </trkpt>
      <trkpt lat="45.60904" lon="5.3069">
        <ele>353</ele>
        <time>2020-05-16T15:10:31.057Z</time>
      </trkpt>
      <trkpt lat="45.60901" lon="5.30685">
        <ele>353</ele>
        <time>2020-05-16T15:10:32.057Z</time>
      </trkpt>
      <trkpt lat="45.60897" lon="5.30681">
        <ele>353</ele>
        <time>2020-05-16T15:10:33.057Z</time>
      </trkpt>
      <trkpt lat="45.60893" lon="5.30676">
        <ele>353</ele>
        <time>2020-05-16T15:10:34.057Z</time>
      </trkpt>
      <trkpt lat="45.6089" lon="5.30671">
        <ele>352</ele>
        <time>2020-05-16T15:10:35.057Z</time>
      </trkpt>
      <trkpt lat="45.60886" lon="5.30665">
        <ele>352</ele>
        <time>2020-05-16T15:10:36.057Z</time>
      </trkpt>
      <trkpt lat="45.60882" lon="5.3066">
        <ele>352</ele>
        <time>2020-05-16T15:10:37.057Z</time>
      </trkpt>
      <trkpt lat="45.60877" lon="5.30654">
        <ele>352</ele>
        <time>2020-05-16T15:10:38.057Z</time>
      </trkpt>
      <trkpt lat="45.60873" lon="5.30648">
        <ele>351</ele>
        <time>2020-05-16T15:10:39.057Z</time>
      </trkpt>
      <trkpt lat="45.60868" lon="5.30642">
        <ele>351</ele>
        <time>2020-05-16T15:10:40.057Z</time>
      </trkpt>
      <trkpt lat="45.60864" lon="5.30636">
        <ele>351</ele>
        <time>2020-05-16T15:10:41.057Z</time>
      </trkpt>
      <trkpt lat="45.60859" lon="5.3063">
        <ele>351</ele>
        <time>2020-05-16T15:10:42.057Z</time>
      </trkpt>
      <trkpt lat="45.60854" lon="5.30623">
        <ele>350</ele>
        <time>2020-05-16T15:10:43.057Z</time>
      </trkpt>
      <trkpt lat="45.6085" lon="5.30617">
        <ele>350</ele>
        <time>2020-05-16T15:10:44.057Z</time>
      </trkpt>
      <trkpt lat="45.60845" lon="5.3061">
        <ele>350</ele>
        <time>2020-05-16T15:10:45.057Z</time>
      </trkpt>
      <trkpt lat="45.6084" lon="5.30602">
        <ele>350</ele>
        <time>2020-05-16T15:10:46.057Z</time>
      </trkpt>
      <trkpt lat="45.60836" lon="5.30595">
        <ele>350</ele>
        <time>2020-05-16T15:10:47.057Z</time>
      </trkpt>
      <trkpt lat="45.60832" lon="5.30588">
        <ele>350</ele>
        <time>2020-05-16T15:10:48.057Z</time>
      </trkpt>
      <trkpt lat="45.60828" lon="5.30581">
        <ele>349</ele>
        <time>2020-05-16T15:10:49.057Z</time>
      </trkpt>
      <trkpt lat="45.60824" lon="5.30574">
        <ele>349</ele>
        <time>2020-05-16T15:10:50.057Z</time>
      </trkpt>
      <trkpt lat="45.6082" lon="5.30567">
        <ele>349</ele>
        <time>2020-05-16T15:10:51.057Z</time>
      </trkpt>
      <trkpt lat="45.60817" lon="5.30559">
        <ele>349</ele>
        <time>2020-05-16T15:10:52.057Z</time>
      </trkpt>
      <trkpt lat="45.60814" lon="5.30552">
        <ele>349</ele>
        <time>2020-05-16T15:10:53.057Z</time>
      </trkpt>
      <trkpt lat="45.6081" lon="5.30544">
        <ele>349</ele>
        <time>2020-05-16T15:10:54.057Z</time>
      </trkpt>
      <trkpt lat="45.60807" lon="5.30536">
        <ele>349</ele>
        <time>2020-05-16T15:10:55.057Z</time>
      </trkpt>
      <trkpt lat="45.60804" lon="5.30527">
        <ele>349</ele>
        <time>2020-05-16T15:10:56.057Z</time>
      </trkpt>
      <trkpt lat="45.60801" lon="5.30519">
        <ele>349</ele>
        <time>2020-05-16T15:10:57.057Z</time>
      </trkpt>
      <trkpt lat="45.60798" lon="5.3051">
        <ele>350</ele>
        <time>2020-05-16T15:10:58.057Z</time>
      </trkpt>
      <trkpt lat="45.60795" lon="5.30502">
        <ele>349</ele>
        <time>2020-05-16T15:10:59.057Z</time>
      </trkpt>
      <trkpt lat="45.60792" lon="5.30493">
        <ele>349</ele>
        <time>2020-05-16T15:11:00.057Z</time>
      </trkpt>
      <trkpt lat="45.60789" lon="5.30484">
        <ele>349</ele>
        <time>2020-05-16T15:11:01.057Z</time>
      </trkpt>
      <trkpt lat="45.60786" lon="5.30475">
        <ele>349</ele>
        <time>2020-05-16T15:11:02.057Z</time>
      </trkpt>
      <trkpt lat="45.60783" lon="5.30466">
        <ele>349</ele>
        <time>2020-05-16T15:11:03.057Z</time>
      </trkpt>
      <trkpt lat="45.6078" lon="5.30457">
        <ele>349</ele>
        <time>2020-05-16T15:11:04.057Z</time>
      </trkpt>
      <trkpt lat="45.60777" lon="5.30447">
        <ele>349</ele>
        <time>2020-05-16T15:11:05.057Z</time>
      </trkpt>
      <trkpt lat="45.60774" lon="5.30437">
        <ele>349</ele>
        <time>2020-05-16T15:11:06.057Z</time>
      </trkpt>
      <trkpt lat="45.60771" lon="5.30427">
        <ele>349</ele>
        <time>2020-05-16T15:11:07.057Z</time>
      </trkpt>
      <trkpt lat="45.60768" lon="5.30418">
        <ele>349</ele>
        <time>2020-05-16T15:11:08.057Z</time>
      </trkpt>
      <trkpt lat="45.60765" lon="5.30407">
        <ele>349</ele>
        <time>2020-05-16T15:11:09.057Z</time>
      </trkpt>
      <trkpt lat="45.60763" lon="5.30397">
        <ele>349</ele>
        <time>2020-05-16T15:11:10.057Z</time>
      </trkpt>
      <trkpt lat="45.6076" lon="5.30387">
        <ele>349</ele>
        <time>2020-05-16T15:11:11.057Z</time>
      </trkpt>
      <trkpt lat="45.60758" lon="5.30376">
        <ele>348</ele>
        <time>2020-05-16T15:11:12.057Z</time>
      </trkpt>
      <trkpt lat="45.60755" lon="5.30366">
        <ele>348</ele>
        <time>2020-05-16T15:11:13.057Z</time>
      </trkpt>
      <trkpt lat="45.60753" lon="5.30355">
        <ele>348</ele>
        <time>2020-05-16T15:11:14.057Z</time>
      </trkpt>
      <trkpt lat="45.60751" lon="5.30345">
        <ele>348</ele>
        <time>2020-05-16T15:11:15.057Z</time>
      </trkpt>
      <trkpt lat="45.60749" lon="5.30334">
        <ele>348</ele>
        <time>2020-05-16T15:11:16.057Z</time>
      </trkpt>
      <trkpt lat="45.60747" lon="5.30324">
        <ele>348</ele>
        <time>2020-05-16T15:11:17.057Z</time>
      </trkpt>
      <trkpt lat="45.60744" lon="5.30314">
        <ele>348</ele>
        <time>2020-05-16T15:11:18.057Z</time>
      </trkpt>
      <trkpt lat="45.60742" lon="5.30303">
        <ele>348</ele>
        <time>2020-05-16T15:11:19.057Z</time>
      </trkpt>
      <trkpt lat="45.6074" lon="5.30293">
        <ele>348</ele>
        <time>2020-05-16T15:11:20.057Z</time>
      </trkpt>
      <trkpt lat="45.60738" lon="5.30283">
        <ele>348</ele>
        <time>2020-05-16T15:11:21.057Z</time>
      </trkpt>
      <trkpt lat="45.60736" lon="5.30274">
        <ele>349</ele>
        <time>2020-05-16T15:11:22.057Z</time>
      </trkpt>
      <trkpt lat="45.60734" lon="5.30264">
        <ele>349</ele>
        <time>2020-05-16T15:11:23.057Z</time>
      </trkpt>
      <trkpt lat="45.60731" lon="5.30255">
        <ele>349</ele>
        <time>2020-05-16T15:11:24.057Z</time>
      </trkpt>
      <trkpt lat="45.60728" lon="5.30247">
        <ele>349</ele>
        <time>2020-05-16T15:11:25.057Z</time>
      </trkpt>
      <trkpt lat="45.60725" lon="5.30238">
        <ele>349</ele>
        <time>2020-05-16T15:11:26.057Z</time>
      </trkpt>
      <trkpt lat="45.60722" lon="5.3023">
        <ele>349</ele>
        <time>2020-05-16T15:11:27.057Z</time>
      </trkpt>
      <trkpt lat="45.60718" lon="5.30222">
        <ele>349</ele>
        <time>2020-05-16T15:11:28.057Z</time>
      </trkpt>
      <trkpt lat="45.60714" lon="5.30214">
        <ele>349</ele>
        <time>2020-05-16T15:11:29.057Z</time>
      </trkpt>
      <trkpt lat="45.6071" lon="5.30207">
        <ele>349</ele>
        <time>2020-05-16T15:11:30.057Z</time>
      </trkpt>
      <trkpt lat="45.60705" lon="5.302">
        <ele>349</ele>
        <time>2020-05-16T15:11:31.057Z</time>
      </trkpt>
      <trkpt lat="45.60701" lon="5.30193">
        <ele>349</ele>
        <time>2020-05-16T15:11:32.057Z</time>
      </trkpt>
      <trkpt lat="45.60696" lon="5.30187">
        <ele>349</ele>
        <time>2020-05-16T15:11:33.057Z</time>
      </trkpt>
      <trkpt lat="45.60692" lon="5.3018">
        <ele>349</ele>
        <time>2020-05-16T15:11:34.057Z</time>
      </trkpt>
      <trkpt lat="45.60687" lon="5.30174">
        <ele>350</ele>
        <time>2020-05-16T15:11:35.057Z</time>
      </trkpt>
      <trkpt lat="45.60682" lon="5.30169">
        <ele>350</ele>
        <time>2020-05-16T15:11:36.057Z</time>
      </trkpt>
      <trkpt lat="45.60678" lon="5.30163">
        <ele>351</ele>
        <time>2020-05-16T15:11:37.057Z</time>
      </trkpt>
      <trkpt lat="45.60673" lon="5.30158">
        <ele>351</ele>
        <time>2020-05-16T15:11:38.057Z</time>
      </trkpt>
      <trkpt lat="45.60668" lon="5.30153">
        <ele>351</ele>
        <time>2020-05-16T15:11:39.057Z</time>
      </trkpt>
      <trkpt lat="45.60663" lon="5.30148">
        <ele>351</ele>
        <time>2020-05-16T15:11:40.057Z</time>
      </trkpt>
      <trkpt lat="45.60659" lon="5.30143">
        <ele>352</ele>
        <time>2020-05-16T15:11:41.057Z</time>
      </trkpt>
      <trkpt lat="45.60654" lon="5.30138">
        <ele>352</ele>
        <time>2020-05-16T15:11:42.057Z</time>
      </trkpt>
      <trkpt lat="45.6065" lon="5.30132">
        <ele>352</ele>
        <time>2020-05-16T15:11:43.057Z</time>
      </trkpt>
      <trkpt lat="45.60645" lon="5.30127">
        <ele>353</ele>
        <time>2020-05-16T15:11:44.057Z</time>
      </trkpt>
      <trkpt lat="45.60641" lon="5.30121">
        <ele>353</ele>
        <time>2020-05-16T15:11:45.057Z</time>
      </trkpt>
      <trkpt lat="45.60636" lon="5.30116">
        <ele>353</ele>
        <time>2020-05-16T15:11:46.057Z</time>
      </trkpt>
      <trkpt lat="45.60632" lon="5.3011">
        <ele>353</ele>
        <time>2020-05-16T15:11:47.057Z</time>
      </trkpt>
      <trkpt lat="45.60628" lon="5.30105">
        <ele>353</ele>
        <time>2020-05-16T15:11:48.057Z</time>
      </trkpt>
      <trkpt lat="45.60624" lon="5.301">
        <ele>354</ele>
        <time>2020-05-16T15:11:49.057Z</time>
      </trkpt>
      <trkpt lat="45.6062" lon="5.30095">
        <ele>354</ele>
        <time>2020-05-16T15:11:50.057Z</time>
      </trkpt>
      <trkpt lat="45.60616" lon="5.3009">
        <ele>354</ele>
        <time>2020-05-16T15:11:51.057Z</time>
      </trkpt>
      <trkpt lat="45.60612" lon="5.30085">
        <ele>354</ele>
        <time>2020-05-16T15:11:52.057Z</time>
      </trkpt>
      <trkpt lat="45.60608" lon="5.3008">
        <ele>355</ele>
        <time>2020-05-16T15:11:53.057Z</time>
      </trkpt>
      <trkpt lat="45.60604" lon="5.30076">
        <ele>355</ele>
        <time>2020-05-16T15:11:54.057Z</time>
      </trkpt>
      <trkpt lat="45.606" lon="5.30071">
        <ele>355</ele>
        <time>2020-05-16T15:11:55.057Z</time>
      </trkpt>
      <trkpt lat="45.60596" lon="5.30066">
        <ele>355</ele>
        <time>2020-05-16T15:11:56.057Z</time>
      </trkpt>
      <trkpt lat="45.60592" lon="5.30062">
        <ele>355</ele>
        <time>2020-05-16T15:11:57.057Z</time>
      </trkpt>
      <trkpt lat="45.60588" lon="5.30057">
        <ele>356</ele>
        <time>2020-05-16T15:11:58.057Z</time>
      </trkpt>
      <trkpt lat="45.60584" lon="5.30052">
        <ele>356</ele>
        <time>2020-05-16T15:11:59.057Z</time>
      </trkpt>
      <trkpt lat="45.6058" lon="5.30047">
        <ele>355</ele>
        <time>2020-05-16T15:12:00.057Z</time>
      </trkpt>
      <trkpt lat="45.60577" lon="5.30041">
        <ele>355</ele>
        <time>2020-05-16T15:12:01.057Z</time>
      </trkpt>
      <trkpt lat="45.60573" lon="5.30036">
        <ele>355</ele>
        <time>2020-05-16T15:12:02.057Z</time>
      </trkpt>
      <trkpt lat="45.60569" lon="5.3003">
        <ele>355</ele>
        <time>2020-05-16T15:12:03.057Z</time>
      </trkpt>
      <trkpt lat="45.60565" lon="5.30024">
        <ele>355</ele>
        <time>2020-05-16T15:12:04.057Z</time>
      </trkpt>
      <trkpt lat="45.60561" lon="5.30017">
        <ele>355</ele>
        <time>2020-05-16T15:12:05.057Z</time>
      </trkpt>
      <trkpt lat="45.60557" lon="5.30011">
        <ele>355</ele>
        <time>2020-05-16T15:12:06.057Z</time>
      </trkpt>
      <trkpt lat="45.60553" lon="5.30004">
        <ele>354</ele>
        <time>2020-05-16T15:12:07.057Z</time>
      </trkpt>
      <trkpt lat="45.60549" lon="5.29998">
        <ele>354</ele>
        <time>2020-05-16T15:12:08.057Z</time>
      </trkpt>
      <trkpt lat="45.60544" lon="5.29991">
        <ele>353</ele>
        <time>2020-05-16T15:12:09.057Z</time>
      </trkpt>
      <trkpt lat="45.60539" lon="5.29983">
        <ele>353</ele>
        <time>2020-05-16T15:12:10.057Z</time>
      </trkpt>
      <trkpt lat="45.60535" lon="5.29976">
        <ele>353</ele>
        <time>2020-05-16T15:12:11.057Z</time>
      </trkpt>
      <trkpt lat="45.6053" lon="5.29967">
        <ele>352</ele>
        <time>2020-05-16T15:12:12.057Z</time>
      </trkpt>
      <trkpt lat="45.60525" lon="5.29959">
        <ele>352</ele>
        <time>2020-05-16T15:12:13.057Z</time>
      </trkpt>
      <trkpt lat="45.6052" lon="5.29951">
        <ele>351</ele>
        <time>2020-05-16T15:12:14.057Z</time>
      </trkpt>
      <trkpt lat="45.60516" lon="5.29943">
        <ele>351</ele>
        <time>2020-05-16T15:12:15.057Z</time>
      </trkpt>
      <trkpt lat="45.60511" lon="5.29935">
        <ele>351</ele>
        <time>2020-05-16T15:12:16.057Z</time>
      </trkpt>
      <trkpt lat="45.60506" lon="5.29927">
        <ele>351</ele>
        <time>2020-05-16T15:12:17.057Z</time>
      </trkpt>
      <trkpt lat="45.60501" lon="5.29918">
        <ele>351</ele>
        <time>2020-05-16T15:12:18.057Z</time>
      </trkpt>
      <trkpt lat="45.60496" lon="5.2991">
        <ele>351</ele>
        <time>2020-05-16T15:12:19.057Z</time>
      </trkpt>
      <trkpt lat="45.60492" lon="5.29901">
        <ele>351</ele>
        <time>2020-05-16T15:12:20.057Z</time>
      </trkpt>
      <trkpt lat="45.60488" lon="5.29892">
        <ele>351</ele>
        <time>2020-05-16T15:12:21.057Z</time>
      </trkpt>
      <trkpt lat="45.60483" lon="5.29883">
        <ele>351</ele>
        <time>2020-05-16T15:12:22.057Z</time>
      </trkpt>
      <trkpt lat="45.60479" lon="5.29874">
        <ele>351</ele>
        <time>2020-05-16T15:12:23.057Z</time>
      </trkpt>
      <trkpt lat="45.60476" lon="5.29864">
        <ele>351</ele>
        <time>2020-05-16T15:12:24.057Z</time>
      </trkpt>
      <trkpt lat="45.60472" lon="5.29854">
        <ele>350</ele>
        <time>2020-05-16T15:12:25.057Z</time>
      </trkpt>
      <trkpt lat="45.60469" lon="5.29843">
        <ele>350</ele>
        <time>2020-05-16T15:12:26.057Z</time>
      </trkpt>
      <trkpt lat="45.60466" lon="5.29833">
        <ele>349</ele>
        <time>2020-05-16T15:12:27.057Z</time>
      </trkpt>
      <trkpt lat="45.60463" lon="5.29822">
        <ele>349</ele>
        <time>2020-05-16T15:12:28.057Z</time>
      </trkpt>
      <trkpt lat="45.60461" lon="5.29811">
        <ele>349</ele>
        <time>2020-05-16T15:12:29.057Z</time>
      </trkpt>
      <trkpt lat="45.60458" lon="5.298">
        <ele>348</ele>
        <time>2020-05-16T15:12:30.057Z</time>
      </trkpt>
      <trkpt lat="45.60456" lon="5.29789">
        <ele>348</ele>
        <time>2020-05-16T15:12:31.057Z</time>
      </trkpt>
      <trkpt lat="45.60454" lon="5.29778">
        <ele>347</ele>
        <time>2020-05-16T15:12:32.057Z</time>
      </trkpt>
      <trkpt lat="45.60452" lon="5.29767">
        <ele>347</ele>
        <time>2020-05-16T15:12:33.057Z</time>
      </trkpt>
      <trkpt lat="45.6045" lon="5.29755">
        <ele>346</ele>
        <time>2020-05-16T15:12:34.057Z</time>
      </trkpt>
      <trkpt lat="45.60448" lon="5.29743">
        <ele>345</ele>
        <time>2020-05-16T15:12:35.057Z</time>
      </trkpt>
      <trkpt lat="45.60445" lon="5.29732">
        <ele>345</ele>
        <time>2020-05-16T15:12:36.057Z</time>
      </trkpt>
      <trkpt lat="45.60441" lon="5.2972">
        <ele>344</ele>
        <time>2020-05-16T15:12:37.057Z</time>
      </trkpt>
      <trkpt lat="45.60437" lon="5.29708">
        <ele>343</ele>
        <time>2020-05-16T15:12:38.057Z</time>
      </trkpt>
      <trkpt lat="45.60432" lon="5.29696">
        <ele>342</ele>
        <time>2020-05-16T15:12:39.057Z</time>
      </trkpt>
      <trkpt lat="45.60427" lon="5.29684">
        <ele>341</ele>
        <time>2020-05-16T15:12:40.057Z</time>
      </trkpt>
      <trkpt lat="45.60421" lon="5.29673">
        <ele>340</ele>
        <time>2020-05-16T15:12:41.057Z</time>
      </trkpt>
      <trkpt lat="45.60415" lon="5.29662">
        <ele>339</ele>
        <time>2020-05-16T15:12:42.057Z</time>
      </trkpt>
      <trkpt lat="45.60408" lon="5.29651">
        <ele>338</ele>
        <time>2020-05-16T15:12:43.057Z</time>
      </trkpt>
      <trkpt lat="45.604" lon="5.29641">
        <ele>337</ele>
        <time>2020-05-16T15:12:44.057Z</time>
      </trkpt>
      <trkpt lat="45.60392" lon="5.29632">
        <ele>336</ele>
        <time>2020-05-16T15:12:45.057Z</time>
      </trkpt>
      <trkpt lat="45.60385" lon="5.29622">
        <ele>335</ele>
        <time>2020-05-16T15:12:46.057Z</time>
      </trkpt>
      <trkpt lat="45.60377" lon="5.29613">
        <ele>334</ele>
        <time>2020-05-16T15:12:47.057Z</time>
      </trkpt>
      <trkpt lat="45.6037" lon="5.29603">
        <ele>333</ele>
        <time>2020-05-16T15:12:48.057Z</time>
      </trkpt>
      <trkpt lat="45.60363" lon="5.29592">
        <ele>333</ele>
        <time>2020-05-16T15:12:49.057Z</time>
      </trkpt>
      <trkpt lat="45.60357" lon="5.29581">
        <ele>332</ele>
        <time>2020-05-16T15:12:50.057Z</time>
      </trkpt>
      <trkpt lat="45.6035" lon="5.29571">
        <ele>331</ele>
        <time>2020-05-16T15:12:51.057Z</time>
      </trkpt>
      <trkpt lat="45.60345" lon="5.29561">
        <ele>331</ele>
        <time>2020-05-16T15:12:52.057Z</time>
      </trkpt>
      <trkpt lat="45.60339" lon="5.29552">
        <ele>331</ele>
        <time>2020-05-16T15:12:53.057Z</time>
      </trkpt>
      <trkpt lat="45.60333" lon="5.29542">
        <ele>331</ele>
        <time>2020-05-16T15:12:54.057Z</time>
      </trkpt>
      <trkpt lat="45.60327" lon="5.29532">
        <ele>330</ele>
        <time>2020-05-16T15:12:55.057Z</time>
      </trkpt>
      <trkpt lat="45.60322" lon="5.29523">
        <ele>330</ele>
        <time>2020-05-16T15:12:56.057Z</time>
      </trkpt>
      <trkpt lat="45.60317" lon="5.29515">
        <ele>330</ele>
        <time>2020-05-16T15:12:57.057Z</time>
      </trkpt>
      <trkpt lat="45.60313" lon="5.29507">
        <ele>331</ele>
        <time>2020-05-16T15:12:58.057Z</time>
      </trkpt>
      <trkpt lat="45.60309" lon="5.29501">
        <ele>331</ele>
        <time>2020-05-16T15:12:59.057Z</time>
      </trkpt>
      <trkpt lat="45.60306" lon="5.29495">
        <ele>330</ele>
        <time>2020-05-16T15:13:00.057Z</time>
      </trkpt>
      <trkpt lat="45.60303" lon="5.29491">
        <ele>330</ele>
        <time>2020-05-16T15:13:01.057Z</time>
      </trkpt>
      <trkpt lat="45.603" lon="5.29489">
        <ele>328</ele>
        <time>2020-05-16T15:13:02.057Z</time>
      </trkpt>
      <trkpt lat="45.60297" lon="5.2949">
        <ele>325</ele>
        <time>2020-05-16T15:13:03.057Z</time>
      </trkpt>
      <trkpt lat="45.60295" lon="5.29496">
        <ele>323</ele>
        <time>2020-05-16T15:13:04.057Z</time>
      </trkpt>
      <trkpt lat="45.60294" lon="5.29504">
        <ele>322</ele>
        <time>2020-05-16T15:13:05.057Z</time>
      </trkpt>
      <trkpt lat="45.60294" lon="5.29513">
        <ele>322</ele>
        <time>2020-05-16T15:13:06.057Z</time>
      </trkpt>
      <trkpt lat="45.60296" lon="5.29521">
        <ele>323</ele>
        <time>2020-05-16T15:13:07.057Z</time>
      </trkpt>
      <trkpt lat="45.60298" lon="5.2953">
        <ele>324</ele>
        <time>2020-05-16T15:13:08.057Z</time>
      </trkpt>
      <trkpt lat="45.603" lon="5.29538">
        <ele>325</ele>
        <time>2020-05-16T15:13:09.057Z</time>
      </trkpt>
      <trkpt lat="45.60301" lon="5.29547">
        <ele>325</ele>
        <time>2020-05-16T15:13:10.057Z</time>
      </trkpt>
      <trkpt lat="45.60302" lon="5.29555">
        <ele>325</ele>
        <time>2020-05-16T15:13:11.057Z</time>
      </trkpt>
      <trkpt lat="45.60303" lon="5.29564">
        <ele>325</ele>
        <time>2020-05-16T15:13:12.057Z</time>
      </trkpt>
      <trkpt lat="45.60304" lon="5.29572">
        <ele>325</ele>
        <time>2020-05-16T15:13:13.057Z</time>
      </trkpt>
      <trkpt lat="45.60305" lon="5.2958">
        <ele>326</ele>
        <time>2020-05-16T15:13:14.057Z</time>
      </trkpt>
      <trkpt lat="45.60306" lon="5.29587">
        <ele>326</ele>
        <time>2020-05-16T15:13:15.057Z</time>
      </trkpt>
      <trkpt lat="45.60306" lon="5.29595">
        <ele>326</ele>
        <time>2020-05-16T15:13:16.057Z</time>
      </trkpt>
      <trkpt lat="45.60307" lon="5.29603">
        <ele>326</ele>
        <time>2020-05-16T15:13:17.057Z</time>
      </trkpt>
      <trkpt lat="45.60308" lon="5.29611">
        <ele>326</ele>
        <time>2020-05-16T15:13:18.057Z</time>
      </trkpt>
      <trkpt lat="45.60309" lon="5.29619">
        <ele>325</ele>
        <time>2020-05-16T15:13:19.057Z</time>
      </trkpt>
      <trkpt lat="45.6031" lon="5.29628">
        <ele>325</ele>
        <time>2020-05-16T15:13:20.057Z</time>
      </trkpt>
      <trkpt lat="45.60311" lon="5.29637">
        <ele>325</ele>
        <time>2020-05-16T15:13:21.057Z</time>
      </trkpt>
      <trkpt lat="45.60312" lon="5.29646">
        <ele>325</ele>
        <time>2020-05-16T15:13:22.057Z</time>
      </trkpt>
      <trkpt lat="45.60313" lon="5.29655">
        <ele>325</ele>
        <time>2020-05-16T15:13:23.057Z</time>
      </trkpt>
      <trkpt lat="45.60314" lon="5.29664">
        <ele>324</ele>
        <time>2020-05-16T15:13:24.057Z</time>
      </trkpt>
      <trkpt lat="45.60315" lon="5.29673">
        <ele>324</ele>
        <time>2020-05-16T15:13:25.057Z</time>
      </trkpt>
      <trkpt lat="45.60315" lon="5.29683">
        <ele>324</ele>
        <time>2020-05-16T15:13:26.057Z</time>
      </trkpt>
      <trkpt lat="45.60316" lon="5.29694">
        <ele>323</ele>
        <time>2020-05-16T15:13:27.057Z</time>
      </trkpt>
      <trkpt lat="45.60316" lon="5.29704">
        <ele>323</ele>
        <time>2020-05-16T15:13:28.057Z</time>
      </trkpt>
      <trkpt lat="45.60317" lon="5.29715">
        <ele>323</ele>
        <time>2020-05-16T15:13:29.057Z</time>
      </trkpt>
      <trkpt lat="45.60318" lon="5.29726">
        <ele>323</ele>
        <time>2020-05-16T15:13:30.057Z</time>
      </trkpt>
      <trkpt lat="45.60319" lon="5.29737">
        <ele>322</ele>
        <time>2020-05-16T15:13:31.057Z</time>
      </trkpt>
      <trkpt lat="45.6032" lon="5.29749">
        <ele>322</ele>
        <time>2020-05-16T15:13:32.057Z</time>
      </trkpt>
      <trkpt lat="45.60321" lon="5.2976">
        <ele>322</ele>
        <time>2020-05-16T15:13:33.057Z</time>
      </trkpt>
      <trkpt lat="45.60322" lon="5.29772">
        <ele>322</ele>
        <time>2020-05-16T15:13:34.057Z</time>
      </trkpt>
      <trkpt lat="45.60324" lon="5.29783">
        <ele>322</ele>
        <time>2020-05-16T15:13:35.057Z</time>
      </trkpt>
      <trkpt lat="45.60325" lon="5.29794">
        <ele>322</ele>
        <time>2020-05-16T15:13:36.057Z</time>
      </trkpt>
      <trkpt lat="45.60325" lon="5.29805">
        <ele>321</ele>
        <time>2020-05-16T15:13:37.057Z</time>
      </trkpt>
      <trkpt lat="45.60326" lon="5.29816">
        <ele>321</ele>
        <time>2020-05-16T15:13:38.057Z</time>
      </trkpt>
      <trkpt lat="45.60327" lon="5.29826">
        <ele>321</ele>
        <time>2020-05-16T15:13:39.057Z</time>
      </trkpt>
      <trkpt lat="45.60327" lon="5.29836">
        <ele>321</ele>
        <time>2020-05-16T15:13:40.057Z</time>
      </trkpt>
      <trkpt lat="45.60328" lon="5.29846">
        <ele>321</ele>
        <time>2020-05-16T15:13:41.057Z</time>
      </trkpt>
      <trkpt lat="45.60329" lon="5.29856">
        <ele>320</ele>
        <time>2020-05-16T15:13:42.057Z</time>
      </trkpt>
      <trkpt lat="45.6033" lon="5.29867">
        <ele>320</ele>
        <time>2020-05-16T15:13:43.057Z</time>
      </trkpt>
      <trkpt lat="45.6033" lon="5.29877">
        <ele>320</ele>
        <time>2020-05-16T15:13:44.057Z</time>
      </trkpt>
      <trkpt lat="45.60331" lon="5.29888">
        <ele>319</ele>
        <time>2020-05-16T15:13:45.057Z</time>
      </trkpt>
      <trkpt lat="45.60331" lon="5.29899">
        <ele>319</ele>
        <time>2020-05-16T15:13:46.057Z</time>
      </trkpt>
      <trkpt lat="45.60331" lon="5.2991">
        <ele>319</ele>
        <time>2020-05-16T15:13:47.057Z</time>
      </trkpt>
      <trkpt lat="45.60331" lon="5.29922">
        <ele>318</ele>
        <time>2020-05-16T15:13:48.057Z</time>
      </trkpt>
      <trkpt lat="45.60331" lon="5.29933">
        <ele>318</ele>
        <time>2020-05-16T15:13:49.057Z</time>
      </trkpt>
      <trkpt lat="45.6033" lon="5.29944">
        <ele>317</ele>
        <time>2020-05-16T15:13:50.057Z</time>
      </trkpt>
      <trkpt lat="45.60328" lon="5.29956">
        <ele>316</ele>
        <time>2020-05-16T15:13:51.057Z</time>
      </trkpt>
      <trkpt lat="45.60326" lon="5.29967">
        <ele>317</ele>
        <time>2020-05-16T15:13:52.057Z</time>
      </trkpt>
      <trkpt lat="45.60324" lon="5.29978">
        <ele>317</ele>
        <time>2020-05-16T15:13:53.057Z</time>
      </trkpt>
      <trkpt lat="45.60323" lon="5.29988">
        <ele>317</ele>
        <time>2020-05-16T15:13:54.057Z</time>
      </trkpt>
      <trkpt lat="45.60321" lon="5.29999">
        <ele>317</ele>
        <time>2020-05-16T15:13:55.057Z</time>
      </trkpt>
      <trkpt lat="45.60319" lon="5.30009">
        <ele>317</ele>
        <time>2020-05-16T15:13:56.057Z</time>
      </trkpt>
      <trkpt lat="45.60318" lon="5.30019">
        <ele>317</ele>
        <time>2020-05-16T15:13:57.057Z</time>
      </trkpt>
      <trkpt lat="45.60316" lon="5.30029">
        <ele>317</ele>
        <time>2020-05-16T15:13:58.057Z</time>
      </trkpt>
      <trkpt lat="45.60315" lon="5.30039">
        <ele>317</ele>
        <time>2020-05-16T15:13:59.057Z</time>
      </trkpt>
      <trkpt lat="45.60314" lon="5.30049">
        <ele>317</ele>
        <time>2020-05-16T15:14:00.057Z</time>
      </trkpt>
      <trkpt lat="45.60312" lon="5.30059">
        <ele>317</ele>
        <time>2020-05-16T15:14:01.057Z</time>
      </trkpt>
      <trkpt lat="45.60311" lon="5.30068">
        <ele>317</ele>
        <time>2020-05-16T15:14:02.057Z</time>
      </trkpt>
      <trkpt lat="45.6031" lon="5.30077">
        <ele>317</ele>
        <time>2020-05-16T15:14:03.057Z</time>
      </trkpt>
      <trkpt lat="45.60309" lon="5.30086">
        <ele>317</ele>
        <time>2020-05-16T15:14:04.057Z</time>
      </trkpt>
      <trkpt lat="45.60307" lon="5.30096">
        <ele>317</ele>
        <time>2020-05-16T15:14:05.057Z</time>
      </trkpt>
      <trkpt lat="45.60306" lon="5.30105">
        <ele>317</ele>
        <time>2020-05-16T15:14:06.057Z</time>
      </trkpt>
      <trkpt lat="45.60304" lon="5.30113">
        <ele>317</ele>
        <time>2020-05-16T15:14:07.057Z</time>
      </trkpt>
      <trkpt lat="45.60302" lon="5.30121">
        <ele>318</ele>
        <time>2020-05-16T15:14:08.057Z</time>
      </trkpt>
      <trkpt lat="45.60299" lon="5.30128">
        <ele>317</ele>
        <time>2020-05-16T15:14:09.057Z</time>
      </trkpt>
      <trkpt lat="45.60296" lon="5.30134">
        <ele>317</ele>
        <time>2020-05-16T15:14:10.057Z</time>
      </trkpt>
      <trkpt lat="45.60292" lon="5.3014">
        <ele>317</ele>
        <time>2020-05-16T15:14:11.057Z</time>
      </trkpt>
      <trkpt lat="45.60289" lon="5.30145">
        <ele>316</ele>
        <time>2020-05-16T15:14:12.057Z</time>
      </trkpt>
      <trkpt lat="45.60286" lon="5.30149">
        <ele>315</ele>
        <time>2020-05-16T15:14:13.057Z</time>
      </trkpt>
      <trkpt lat="45.60283" lon="5.3015">
        <ele>308</ele>
        <time>2020-05-16T15:14:14.057Z</time>
      </trkpt>
      <trkpt lat="45.6028" lon="5.30148">
        <ele>307</ele>
        <time>2020-05-16T15:14:15.057Z</time>
      </trkpt>
      <trkpt lat="45.60275" lon="5.30142">
        <ele>308</ele>
        <time>2020-05-16T15:14:16.057Z</time>
      </trkpt>
      <trkpt lat="45.6027" lon="5.30136">
        <ele>308</ele>
        <time>2020-05-16T15:14:17.057Z</time>
      </trkpt>
      <trkpt lat="45.60265" lon="5.30129">
        <ele>307</ele>
        <time>2020-05-16T15:14:18.057Z</time>
      </trkpt>
      <trkpt lat="45.60258" lon="5.30123">
        <ele>305</ele>
        <time>2020-05-16T15:14:19.057Z</time>
      </trkpt>
      <trkpt lat="45.60252" lon="5.30117">
        <ele>305</ele>
        <time>2020-05-16T15:14:20.057Z</time>
      </trkpt>
      <trkpt lat="45.60245" lon="5.30112">
        <ele>304</ele>
        <time>2020-05-16T15:14:21.057Z</time>
      </trkpt>
      <trkpt lat="45.60238" lon="5.30108">
        <ele>303</ele>
        <time>2020-05-16T15:14:22.057Z</time>
      </trkpt>
      <trkpt lat="45.60231" lon="5.30107">
        <ele>303</ele>
        <time>2020-05-16T15:14:23.057Z</time>
      </trkpt>
      <trkpt lat="45.60224" lon="5.30107">
        <ele>301</ele>
        <time>2020-05-16T15:14:24.057Z</time>
      </trkpt>
      <trkpt lat="45.60217" lon="5.30108">
        <ele>300</ele>
        <time>2020-05-16T15:14:25.057Z</time>
      </trkpt>
      <trkpt lat="45.60209" lon="5.30112">
        <ele>300</ele>
        <time>2020-05-16T15:14:26.057Z</time>
      </trkpt>
      <trkpt lat="45.60202" lon="5.30117">
        <ele>299</ele>
        <time>2020-05-16T15:14:27.057Z</time>
      </trkpt>
      <trkpt lat="45.60194" lon="5.30124">
        <ele>299</ele>
        <time>2020-05-16T15:14:28.057Z</time>
      </trkpt>
      <trkpt lat="45.60187" lon="5.3013">
        <ele>298</ele>
        <time>2020-05-16T15:14:29.057Z</time>
      </trkpt>
      <trkpt lat="45.6018" lon="5.30137">
        <ele>297</ele>
        <time>2020-05-16T15:14:30.057Z</time>
      </trkpt>
      <trkpt lat="45.60173" lon="5.30145">
        <ele>297</ele>
        <time>2020-05-16T15:14:31.057Z</time>
      </trkpt>
      <trkpt lat="45.60166" lon="5.30152">
        <ele>297</ele>
        <time>2020-05-16T15:14:32.057Z</time>
      </trkpt>
      <trkpt lat="45.60159" lon="5.30159">
        <ele>297</ele>
        <time>2020-05-16T15:14:33.057Z</time>
      </trkpt>
      <trkpt lat="45.60152" lon="5.30166">
        <ele>297</ele>
        <time>2020-05-16T15:14:34.057Z</time>
      </trkpt>
      <trkpt lat="45.60144" lon="5.30173">
        <ele>297</ele>
        <time>2020-05-16T15:14:35.057Z</time>
      </trkpt>
      <trkpt lat="45.60137" lon="5.30179">
        <ele>297</ele>
        <time>2020-05-16T15:14:36.057Z</time>
      </trkpt>
      <trkpt lat="45.6013" lon="5.30184">
        <ele>296</ele>
        <time>2020-05-16T15:14:37.057Z</time>
      </trkpt>
      <trkpt lat="45.60122" lon="5.30189">
        <ele>296</ele>
        <time>2020-05-16T15:14:38.057Z</time>
      </trkpt>
      <trkpt lat="45.60114" lon="5.30194">
        <ele>295</ele>
        <time>2020-05-16T15:14:39.057Z</time>
      </trkpt>
      <trkpt lat="45.60106" lon="5.30198">
        <ele>294</ele>
        <time>2020-05-16T15:14:40.057Z</time>
      </trkpt>
      <trkpt lat="45.60098" lon="5.30202">
        <ele>294</ele>
        <time>2020-05-16T15:14:41.057Z</time>
      </trkpt>
      <trkpt lat="45.6009" lon="5.30206">
        <ele>293</ele>
        <time>2020-05-16T15:14:42.057Z</time>
      </trkpt>
      <trkpt lat="45.60083" lon="5.30209">
        <ele>292</ele>
        <time>2020-05-16T15:14:43.057Z</time>
      </trkpt>
      <trkpt lat="45.60078" lon="5.30212">
        <ele>291</ele>
        <time>2020-05-16T15:14:44.057Z</time>
      </trkpt>
      <trkpt lat="45.60073" lon="5.30213">
        <ele>289</ele>
        <time>2020-05-16T15:14:45.057Z</time>
      </trkpt>
      <trkpt lat="45.60068" lon="5.30211">
        <ele>287</ele>
        <time>2020-05-16T15:14:46.057Z</time>
      </trkpt>
      <trkpt lat="45.60064" lon="5.30206">
        <ele>280</ele>
        <time>2020-05-16T15:14:47.057Z</time>
      </trkpt>
      <trkpt lat="45.60062" lon="5.302">
        <ele>279</ele>
        <time>2020-05-16T15:14:48.057Z</time>
      </trkpt>
      <trkpt lat="45.60061" lon="5.30192">
        <ele>279</ele>
        <time>2020-05-16T15:14:49.057Z</time>
      </trkpt>
      <trkpt lat="45.60061" lon="5.30186">
        <ele>279</ele>
        <time>2020-05-16T15:14:50.057Z</time>
      </trkpt>
      <trkpt lat="45.60061" lon="5.3018">
        <ele>275</ele>
        <time>2020-05-16T15:14:51.057Z</time>
      </trkpt>
      <trkpt lat="45.60058" lon="5.30175">
        <ele>269</ele>
        <time>2020-05-16T15:14:52.057Z</time>
      </trkpt>
      <trkpt lat="45.60055" lon="5.30171">
        <ele>266</ele>
        <time>2020-05-16T15:14:53.057Z</time>
      </trkpt>
      <trkpt lat="45.6005" lon="5.30168">
        <ele>264</ele>
        <time>2020-05-16T15:14:54.057Z</time>
      </trkpt>
      <trkpt lat="45.60045" lon="5.30167">
        <ele>264</ele>
        <time>2020-05-16T15:14:55.057Z</time>
      </trkpt>
      <trkpt lat="45.60039" lon="5.30167">
        <ele>263</ele>
        <time>2020-05-16T15:14:56.057Z</time>
      </trkpt>
      <trkpt lat="45.60034" lon="5.30166">
        <ele>263</ele>
        <time>2020-05-16T15:14:57.057Z</time>
      </trkpt>
      <trkpt lat="45.60027" lon="5.30165">
        <ele>265</ele>
        <time>2020-05-16T15:14:58.057Z</time>
      </trkpt>
      <trkpt lat="45.60021" lon="5.30164">
        <ele>265</ele>
        <time>2020-05-16T15:14:59.057Z</time>
      </trkpt>
      <trkpt lat="45.60015" lon="5.30163">
        <ele>265</ele>
        <time>2020-05-16T15:15:00.057Z</time>
      </trkpt>
      <trkpt lat="45.60008" lon="5.30162">
        <ele>266</ele>
        <time>2020-05-16T15:15:01.057Z</time>
      </trkpt>
      <trkpt lat="45.60001" lon="5.30161">
        <ele>266</ele>
        <time>2020-05-16T15:15:02.057Z</time>
      </trkpt>
      <trkpt lat="45.59995" lon="5.3016">
        <ele>265</ele>
        <time>2020-05-16T15:15:03.057Z</time>
      </trkpt>
      <trkpt lat="45.59988" lon="5.30159">
        <ele>264</ele>
        <time>2020-05-16T15:15:04.057Z</time>
      </trkpt>
      <trkpt lat="45.5998" lon="5.30158">
        <ele>263</ele>
        <time>2020-05-16T15:15:05.057Z</time>
      </trkpt>
      <trkpt lat="45.59973" lon="5.30158">
        <ele>263</ele>
        <time>2020-05-16T15:15:06.057Z</time>
      </trkpt>
      <trkpt lat="45.59965" lon="5.30158">
        <ele>264</ele>
        <time>2020-05-16T15:15:07.057Z</time>
      </trkpt>
      <trkpt lat="45.59957" lon="5.30158">
        <ele>264</ele>
        <time>2020-05-16T15:15:08.057Z</time>
      </trkpt>
      <trkpt lat="45.59949" lon="5.30157">
        <ele>264</ele>
        <time>2020-05-16T15:15:09.057Z</time>
      </trkpt>
      <trkpt lat="45.59941" lon="5.30156">
        <ele>264</ele>
        <time>2020-05-16T15:15:10.057Z</time>
      </trkpt>
      <trkpt lat="45.59933" lon="5.30154">
        <ele>264</ele>
        <time>2020-05-16T15:15:11.057Z</time>
      </trkpt>
      <trkpt lat="45.59925" lon="5.30153">
        <ele>263</ele>
        <time>2020-05-16T15:15:12.057Z</time>
      </trkpt>
      <trkpt lat="45.59916" lon="5.30152">
        <ele>263</ele>
        <time>2020-05-16T15:15:13.057Z</time>
      </trkpt>
      <trkpt lat="45.59908" lon="5.30151">
        <ele>264</ele>
        <time>2020-05-16T15:15:14.057Z</time>
      </trkpt>
      <trkpt lat="45.599" lon="5.30149">
        <ele>266</ele>
        <time>2020-05-16T15:15:15.057Z</time>
      </trkpt>
      <trkpt lat="45.59893" lon="5.30147">
        <ele>266</ele>
        <time>2020-05-16T15:15:16.057Z</time>
      </trkpt>
      <trkpt lat="45.59886" lon="5.30145">
        <ele>265</ele>
        <time>2020-05-16T15:15:17.057Z</time>
      </trkpt>
      <trkpt lat="45.59879" lon="5.30143">
        <ele>266</ele>
        <time>2020-05-16T15:15:18.057Z</time>
      </trkpt>
      <trkpt lat="45.59872" lon="5.30141">
        <ele>265</ele>
        <time>2020-05-16T15:15:19.057Z</time>
      </trkpt>
      <trkpt lat="45.59865" lon="5.30139">
        <ele>265</ele>
        <time>2020-05-16T15:15:20.057Z</time>
      </trkpt>
      <trkpt lat="45.59858" lon="5.30137">
        <ele>265</ele>
        <time>2020-05-16T15:15:21.057Z</time>
      </trkpt>
      <trkpt lat="45.59852" lon="5.30135">
        <ele>265</ele>
        <time>2020-05-16T15:15:22.057Z</time>
      </trkpt>
      <trkpt lat="45.59846" lon="5.30134">
        <ele>265</ele>
        <time>2020-05-16T15:15:23.057Z</time>
      </trkpt>
      <trkpt lat="45.5984" lon="5.30133">
        <ele>266</ele>
        <time>2020-05-16T15:15:24.057Z</time>
      </trkpt>
      <trkpt lat="45.59834" lon="5.30132">
        <ele>266</ele>
        <time>2020-05-16T15:15:25.057Z</time>
      </trkpt>
      <trkpt lat="45.59829" lon="5.3013">
        <ele>267</ele>
        <time>2020-05-16T15:15:26.057Z</time>
      </trkpt>
      <trkpt lat="45.59823" lon="5.30129">
        <ele>267</ele>
        <time>2020-05-16T15:15:27.057Z</time>
      </trkpt>
      <trkpt lat="45.59818" lon="5.30127">
        <ele>270</ele>
        <time>2020-05-16T15:15:28.057Z</time>
      </trkpt>
      <trkpt lat="45.59813" lon="5.30126">
        <ele>271</ele>
        <time>2020-05-16T15:15:29.057Z</time>
      </trkpt>
      <trkpt lat="45.59809" lon="5.30124">
        <ele>272</ele>
        <time>2020-05-16T15:15:30.057Z</time>
      </trkpt>
      <trkpt lat="45.59805" lon="5.30123">
        <ele>273</ele>
        <time>2020-05-16T15:15:31.057Z</time>
      </trkpt>
      <trkpt lat="45.59801" lon="5.3012">
        <ele>272</ele>
        <time>2020-05-16T15:15:32.057Z</time>
      </trkpt>
      <trkpt lat="45.59797" lon="5.30117">
        <ele>272</ele>
        <time>2020-05-16T15:15:33.057Z</time>
      </trkpt>
      <trkpt lat="45.59793" lon="5.30113">
        <ele>272</ele>
        <time>2020-05-16T15:15:34.057Z</time>
      </trkpt>
      <trkpt lat="45.59789" lon="5.3011">
        <ele>272</ele>
        <time>2020-05-16T15:15:35.057Z</time>
      </trkpt>
      <trkpt lat="45.59786" lon="5.30107">
        <ele>271</ele>
        <time>2020-05-16T15:15:36.057Z</time>
      </trkpt>
      <trkpt lat="45.59782" lon="5.30105">
        <ele>271</ele>
        <time>2020-05-16T15:15:37.057Z</time>
      </trkpt>
      <trkpt lat="45.59779" lon="5.30103">
        <ele>272</ele>
        <time>2020-05-16T15:15:38.057Z</time>
      </trkpt>
      <trkpt lat="45.59776" lon="5.301">
        <ele>272</ele>
        <time>2020-05-16T15:15:39.057Z</time>
      </trkpt>
      <trkpt lat="45.59773" lon="5.30098">
        <ele>272</ele>
        <time>2020-05-16T15:15:40.057Z</time>
      </trkpt>
      <trkpt lat="45.5977" lon="5.30095">
        <ele>271</ele>
        <time>2020-05-16T15:15:41.057Z</time>
      </trkpt>
      <trkpt lat="45.59766" lon="5.30092">
        <ele>271</ele>
        <time>2020-05-16T15:15:42.057Z</time>
      </trkpt>
      <trkpt lat="45.59763" lon="5.30089">
        <ele>271</ele>
        <time>2020-05-16T15:15:43.057Z</time>
      </trkpt>
      <trkpt lat="45.5976" lon="5.30085">
        <ele>271</ele>
        <time>2020-05-16T15:15:44.057Z</time>
      </trkpt>
      <trkpt lat="45.59756" lon="5.30082">
        <ele>271</ele>
        <time>2020-05-16T15:15:45.057Z</time>
      </trkpt>
      <trkpt lat="45.59753" lon="5.30079">
        <ele>272</ele>
        <time>2020-05-16T15:15:46.057Z</time>
      </trkpt>
      <trkpt lat="45.59749" lon="5.30075">
        <ele>272</ele>
        <time>2020-05-16T15:15:47.057Z</time>
      </trkpt>
      <trkpt lat="45.59746" lon="5.30071">
        <ele>272</ele>
        <time>2020-05-16T15:15:48.057Z</time>
      </trkpt>
      <trkpt lat="45.59743" lon="5.30067">
        <ele>272</ele>
        <time>2020-05-16T15:15:49.057Z</time>
      </trkpt>
      <trkpt lat="45.5974" lon="5.30062">
        <ele>272</ele>
        <time>2020-05-16T15:15:50.057Z</time>
      </trkpt>
      <trkpt lat="45.59737" lon="5.30058">
        <ele>272</ele>
        <time>2020-05-16T15:15:51.057Z</time>
      </trkpt>
      <trkpt lat="45.59734" lon="5.30054">
        <ele>272</ele>
        <time>2020-05-16T15:15:52.057Z</time>
      </trkpt>
      <trkpt lat="45.59731" lon="5.3005">
        <ele>272</ele>
        <time>2020-05-16T15:15:53.057Z</time>
      </trkpt>
      <trkpt lat="45.59727" lon="5.30046">
        <ele>273</ele>
        <time>2020-05-16T15:15:54.057Z</time>
      </trkpt>
      <trkpt lat="45.59724" lon="5.30042">
        <ele>273</ele>
        <time>2020-05-16T15:15:55.057Z</time>
      </trkpt>
      <trkpt lat="45.59721" lon="5.30038">
        <ele>273</ele>
        <time>2020-05-16T15:15:56.057Z</time>
      </trkpt>
      <trkpt lat="45.59718" lon="5.30033">
        <ele>273</ele>
        <time>2020-05-16T15:15:57.057Z</time>
      </trkpt>
      <trkpt lat="45.59715" lon="5.30028">
        <ele>273</ele>
        <time>2020-05-16T15:15:58.057Z</time>
      </trkpt>
      <trkpt lat="45.59711" lon="5.30023">
        <ele>272</ele>
        <time>2020-05-16T15:15:59.057Z</time>
      </trkpt>
      <trkpt lat="45.59708" lon="5.30019">
        <ele>272</ele>
        <time>2020-05-16T15:16:00.057Z</time>
      </trkpt>
      <trkpt lat="45.59705" lon="5.30014">
        <ele>272</ele>
        <time>2020-05-16T15:16:01.057Z</time>
      </trkpt>
      <trkpt lat="45.59702" lon="5.3001">
        <ele>272</ele>
        <time>2020-05-16T15:16:02.057Z</time>
      </trkpt>
      <trkpt lat="45.59699" lon="5.30006">
        <ele>272</ele>
        <time>2020-05-16T15:16:03.057Z</time>
      </trkpt>
      <trkpt lat="45.59696" lon="5.30002">
        <ele>272</ele>
        <time>2020-05-16T15:16:04.057Z</time>
      </trkpt>
      <trkpt lat="45.59693" lon="5.29998">
        <ele>271</ele>
        <time>2020-05-16T15:16:05.057Z</time>
      </trkpt>
      <trkpt lat="45.5969" lon="5.29994">
        <ele>271</ele>
        <time>2020-05-16T15:16:06.057Z</time>
      </trkpt>
      <trkpt lat="45.59687" lon="5.29991">
        <ele>271</ele>
        <time>2020-05-16T15:16:07.057Z</time>
      </trkpt>
      <trkpt lat="45.59684" lon="5.29988">
        <ele>271</ele>
        <time>2020-05-16T15:16:08.057Z</time>
      </trkpt>
      <trkpt lat="45.59681" lon="5.29985">
        <ele>271</ele>
        <time>2020-05-16T15:16:09.057Z</time>
      </trkpt>
      <trkpt lat="45.59678" lon="5.29983">
        <ele>270</ele>
        <time>2020-05-16T15:16:10.057Z</time>
      </trkpt>
      <trkpt lat="45.59674" lon="5.2998">
        <ele>270</ele>
        <time>2020-05-16T15:16:11.057Z</time>
      </trkpt>
      <trkpt lat="45.59671" lon="5.29979">
        <ele>270</ele>
        <time>2020-05-16T15:16:12.057Z</time>
      </trkpt>
      <trkpt lat="45.59667" lon="5.29976">
        <ele>270</ele>
        <time>2020-05-16T15:16:13.057Z</time>
      </trkpt>
      <trkpt lat="45.59664" lon="5.29974">
        <ele>270</ele>
        <time>2020-05-16T15:16:14.057Z</time>
      </trkpt>
      <trkpt lat="45.59661" lon="5.29971">
        <ele>269</ele>
        <time>2020-05-16T15:16:15.057Z</time>
      </trkpt>
      <trkpt lat="45.59658" lon="5.29968">
        <ele>269</ele>
        <time>2020-05-16T15:16:16.057Z</time>
      </trkpt>
      <trkpt lat="45.59655" lon="5.29965">
        <ele>269</ele>
        <time>2020-05-16T15:16:17.057Z</time>
      </trkpt>
      <trkpt lat="45.59652" lon="5.29961">
        <ele>269</ele>
        <time>2020-05-16T15:16:18.057Z</time>
      </trkpt>
      <trkpt lat="45.59649" lon="5.29958">
        <ele>268</ele>
        <time>2020-05-16T15:16:19.057Z</time>
      </trkpt>
      <trkpt lat="45.59647" lon="5.29955">
        <ele>268</ele>
        <time>2020-05-16T15:16:20.057Z</time>
      </trkpt>
      <trkpt lat="45.59645" lon="5.29951">
        <ele>268</ele>
        <time>2020-05-16T15:16:21.057Z</time>
      </trkpt>
      <trkpt lat="45.59643" lon="5.29949">
        <ele>267</ele>
        <time>2020-05-16T15:16:22.057Z</time>
      </trkpt>
      <trkpt lat="45.59641" lon="5.29945">
        <ele>266</ele>
        <time>2020-05-16T15:16:23.057Z</time>
      </trkpt>
      <trkpt lat="45.59639" lon="5.29942">
        <ele>266</ele>
        <time>2020-05-16T15:16:24.057Z</time>
      </trkpt>
      <trkpt lat="45.59638" lon="5.29939">
        <ele>265</ele>
        <time>2020-05-16T15:16:25.057Z</time>
      </trkpt>
      <trkpt lat="45.59636" lon="5.29936">
        <ele>265</ele>
        <time>2020-05-16T15:16:26.057Z</time>
      </trkpt>
      <trkpt lat="45.59634" lon="5.29932">
        <ele>264</ele>
        <time>2020-05-16T15:16:27.057Z</time>
      </trkpt>
      <trkpt lat="45.59632" lon="5.29929">
        <ele>264</ele>
        <time>2020-05-16T15:16:28.057Z</time>
      </trkpt>
      <trkpt lat="45.59631" lon="5.29924">
        <ele>264</ele>
        <time>2020-05-16T15:16:29.057Z</time>
      </trkpt>
      <trkpt lat="45.59629" lon="5.2992">
        <ele>263</ele>
        <time>2020-05-16T15:16:30.057Z</time>
      </trkpt>
      <trkpt lat="45.59627" lon="5.29915">
        <ele>263</ele>
        <time>2020-05-16T15:16:31.057Z</time>
      </trkpt>
      <trkpt lat="45.59624" lon="5.2991">
        <ele>263</ele>
        <time>2020-05-16T15:16:32.057Z</time>
      </trkpt>
      <trkpt lat="45.59622" lon="5.29905">
        <ele>263</ele>
        <time>2020-05-16T15:16:33.057Z</time>
      </trkpt>
      <trkpt lat="45.5962" lon="5.299">
        <ele>263</ele>
        <time>2020-05-16T15:16:34.057Z</time>
      </trkpt>
      <trkpt lat="45.59618" lon="5.29894">
        <ele>263</ele>
        <time>2020-05-16T15:16:35.057Z</time>
      </trkpt>
      <trkpt lat="45.59616" lon="5.29888">
        <ele>263</ele>
        <time>2020-05-16T15:16:36.057Z</time>
      </trkpt>
      <trkpt lat="45.59614" lon="5.29882">
        <ele>262</ele>
        <time>2020-05-16T15:16:37.057Z</time>
      </trkpt>
      <trkpt lat="45.59612" lon="5.29876">
        <ele>263</ele>
        <time>2020-05-16T15:16:38.057Z</time>
      </trkpt>
      <trkpt lat="45.59611" lon="5.2987">
        <ele>263</ele>
        <time>2020-05-16T15:16:39.057Z</time>
      </trkpt>
      <trkpt lat="45.59609" lon="5.29864">
        <ele>263</ele>
        <time>2020-05-16T15:16:40.057Z</time>
      </trkpt>
      <trkpt lat="45.59607" lon="5.29858">
        <ele>263</ele>
        <time>2020-05-16T15:16:41.057Z</time>
      </trkpt>
      <trkpt lat="45.59605" lon="5.29853">
        <ele>263</ele>
        <time>2020-05-16T15:16:42.057Z</time>
      </trkpt>
      <trkpt lat="45.59603" lon="5.29847">
        <ele>262</ele>
        <time>2020-05-16T15:16:43.057Z</time>
      </trkpt>
      <trkpt lat="45.59601" lon="5.29841">
        <ele>261</ele>
        <time>2020-05-16T15:16:44.057Z</time>
      </trkpt>
      <trkpt lat="45.596" lon="5.29835">
        <ele>261</ele>
        <time>2020-05-16T15:16:45.057Z</time>
      </trkpt>
      <trkpt lat="45.59598" lon="5.29829">
        <ele>261</ele>
        <time>2020-05-16T15:16:46.057Z</time>
      </trkpt>
      <trkpt lat="45.59597" lon="5.29824">
        <ele>261</ele>
        <time>2020-05-16T15:16:47.057Z</time>
      </trkpt>
      <trkpt lat="45.59595" lon="5.29818">
        <ele>261</ele>
        <time>2020-05-16T15:16:48.057Z</time>
      </trkpt>
      <trkpt lat="45.59594" lon="5.29812">
        <ele>261</ele>
        <time>2020-05-16T15:16:49.057Z</time>
      </trkpt>
      <trkpt lat="45.59593" lon="5.29806">
        <ele>262</ele>
        <time>2020-05-16T15:16:50.057Z</time>
      </trkpt>
      <trkpt lat="45.59593" lon="5.29801">
        <ele>263</ele>
        <time>2020-05-16T15:16:51.057Z</time>
      </trkpt>
      <trkpt lat="45.59592" lon="5.29795">
        <ele>264</ele>
        <time>2020-05-16T15:16:52.057Z</time>
      </trkpt>
      <trkpt lat="45.59592" lon="5.29789">
        <ele>265</ele>
        <time>2020-05-16T15:16:53.057Z</time>
      </trkpt>
      <trkpt lat="45.59592" lon="5.29783">
        <ele>265</ele>
        <time>2020-05-16T15:16:54.057Z</time>
      </trkpt>
      <trkpt lat="45.59592" lon="5.29778">
        <ele>264</ele>
        <time>2020-05-16T15:16:55.057Z</time>
      </trkpt>
      <trkpt lat="45.59592" lon="5.29772">
        <ele>264</ele>
        <time>2020-05-16T15:16:56.057Z</time>
      </trkpt>
      <trkpt lat="45.59592" lon="5.29766">
        <ele>264</ele>
        <time>2020-05-16T15:16:57.057Z</time>
      </trkpt>
      <trkpt lat="45.59592" lon="5.29761">
        <ele>263</ele>
        <time>2020-05-16T15:16:58.057Z</time>
      </trkpt>
      <trkpt lat="45.59591" lon="5.29755">
        <ele>264</ele>
        <time>2020-05-16T15:16:59.057Z</time>
      </trkpt>
      <trkpt lat="45.59591" lon="5.29749">
        <ele>263</ele>
        <time>2020-05-16T15:17:00.057Z</time>
      </trkpt>
      <trkpt lat="45.5959" lon="5.29743">
        <ele>263</ele>
        <time>2020-05-16T15:17:01.057Z</time>
      </trkpt>
      <trkpt lat="45.5959" lon="5.29737">
        <ele>263</ele>
        <time>2020-05-16T15:17:02.057Z</time>
      </trkpt>
      <trkpt lat="45.59589" lon="5.29732">
        <ele>263</ele>
        <time>2020-05-16T15:17:03.057Z</time>
      </trkpt>
      <trkpt lat="45.59589" lon="5.29726">
        <ele>263</ele>
        <time>2020-05-16T15:17:04.057Z</time>
      </trkpt>
      <trkpt lat="45.59588" lon="5.2972">
        <ele>263</ele>
        <time>2020-05-16T15:17:05.057Z</time>
      </trkpt>
      <trkpt lat="45.59588" lon="5.29714">
        <ele>263</ele>
        <time>2020-05-16T15:17:06.057Z</time>
      </trkpt>
      <trkpt lat="45.59587" lon="5.29708">
        <ele>263</ele>
        <time>2020-05-16T15:17:07.057Z</time>
      </trkpt>
      <trkpt lat="45.59587" lon="5.29701">
        <ele>263</ele>
        <time>2020-05-16T15:17:08.057Z</time>
      </trkpt>
      <trkpt lat="45.59586" lon="5.29696">
        <ele>263</ele>
        <time>2020-05-16T15:17:09.057Z</time>
      </trkpt>
      <trkpt lat="45.59585" lon="5.2969">
        <ele>263</ele>
        <time>2020-05-16T15:17:10.057Z</time>
      </trkpt>
      <trkpt lat="45.59584" lon="5.29684">
        <ele>263</ele>
        <time>2020-05-16T15:17:11.057Z</time>
      </trkpt>
      <trkpt lat="45.59583" lon="5.29678">
        <ele>263</ele>
        <time>2020-05-16T15:17:12.057Z</time>
      </trkpt>
      <trkpt lat="45.59582" lon="5.29672">
        <ele>263</ele>
        <time>2020-05-16T15:17:13.057Z</time>
      </trkpt>
      <trkpt lat="45.59581" lon="5.29666">
        <ele>263</ele>
        <time>2020-05-16T15:17:14.057Z</time>
      </trkpt>
      <trkpt lat="45.59579" lon="5.2966">
        <ele>263</ele>
        <time>2020-05-16T15:17:15.057Z</time>
      </trkpt>
      <trkpt lat="45.59576" lon="5.29654">
        <ele>262</ele>
        <time>2020-05-16T15:17:16.057Z</time>
      </trkpt>
      <trkpt lat="45.59573" lon="5.29647">
        <ele>262</ele>
        <time>2020-05-16T15:17:17.057Z</time>
      </trkpt>
      <trkpt lat="45.5957" lon="5.2964">
        <ele>262</ele>
        <time>2020-05-16T15:17:18.057Z</time>
      </trkpt>
      <trkpt lat="45.59565" lon="5.29634">
        <ele>262</ele>
        <time>2020-05-16T15:17:19.057Z</time>
      </trkpt>
      <trkpt lat="45.59561" lon="5.29627">
        <ele>262</ele>
        <time>2020-05-16T15:17:20.057Z</time>
      </trkpt>
      <trkpt lat="45.59556" lon="5.29621">
        <ele>261</ele>
        <time>2020-05-16T15:17:21.057Z</time>
      </trkpt>
      <trkpt lat="45.59552" lon="5.29615">
        <ele>261</ele>
        <time>2020-05-16T15:17:22.057Z</time>
      </trkpt>
      <trkpt lat="45.59547" lon="5.29608">
        <ele>261</ele>
        <time>2020-05-16T15:17:23.057Z</time>
      </trkpt>
      <trkpt lat="45.59543" lon="5.29601">
        <ele>261</ele>
        <time>2020-05-16T15:17:24.057Z</time>
      </trkpt>
      <trkpt lat="45.59539" lon="5.29594">
        <ele>261</ele>
        <time>2020-05-16T15:17:25.057Z</time>
      </trkpt>
      <trkpt lat="45.59536" lon="5.29588">
        <ele>261</ele>
        <time>2020-05-16T15:17:26.057Z</time>
      </trkpt>
      <trkpt lat="45.59533" lon="5.29583">
        <ele>260</ele>
        <time>2020-05-16T15:17:27.057Z</time>
      </trkpt>
      <trkpt lat="45.5953" lon="5.29579">
        <ele>260</ele>
        <time>2020-05-16T15:17:28.057Z</time>
      </trkpt>
      <trkpt lat="45.59528" lon="5.29574">
        <ele>260</ele>
        <time>2020-05-16T15:17:29.057Z</time>
      </trkpt>
      <trkpt lat="45.59526" lon="5.2957">
        <ele>259</ele>
        <time>2020-05-16T15:17:30.057Z</time>
      </trkpt>
      <trkpt lat="45.59524" lon="5.29564">
        <ele>259</ele>
        <time>2020-05-16T15:17:31.057Z</time>
      </trkpt>
      <trkpt lat="45.59521" lon="5.29558">
        <ele>259</ele>
        <time>2020-05-16T15:17:32.057Z</time>
      </trkpt>
      <trkpt lat="45.59518" lon="5.29552">
        <ele>259</ele>
        <time>2020-05-16T15:17:33.057Z</time>
      </trkpt>
      <trkpt lat="45.59515" lon="5.29545">
        <ele>258</ele>
        <time>2020-05-16T15:17:34.057Z</time>
      </trkpt>
      <trkpt lat="45.59511" lon="5.29538">
        <ele>258</ele>
        <time>2020-05-16T15:17:35.057Z</time>
      </trkpt>
      <trkpt lat="45.59508" lon="5.29532">
        <ele>258</ele>
        <time>2020-05-16T15:17:36.057Z</time>
      </trkpt>
      <trkpt lat="45.59505" lon="5.29526">
        <ele>258</ele>
        <time>2020-05-16T15:17:37.057Z</time>
      </trkpt>
      <trkpt lat="45.59502" lon="5.29519">
        <ele>257</ele>
        <time>2020-05-16T15:17:38.057Z</time>
      </trkpt>
      <trkpt lat="45.59499" lon="5.29513">
        <ele>257</ele>
        <time>2020-05-16T15:17:39.057Z</time>
      </trkpt>
      <trkpt lat="45.59495" lon="5.29507">
        <ele>257</ele>
        <time>2020-05-16T15:17:40.057Z</time>
      </trkpt>
      <trkpt lat="45.59492" lon="5.29501">
        <ele>257</ele>
        <time>2020-05-16T15:17:41.057Z</time>
      </trkpt>
      <trkpt lat="45.59489" lon="5.29495">
        <ele>257</ele>
        <time>2020-05-16T15:17:42.057Z</time>
      </trkpt>
      <trkpt lat="45.59486" lon="5.29489">
        <ele>257</ele>
        <time>2020-05-16T15:17:43.057Z</time>
      </trkpt>
      <trkpt lat="45.59483" lon="5.29483">
        <ele>257</ele>
        <time>2020-05-16T15:17:44.057Z</time>
      </trkpt>
      <trkpt lat="45.5948" lon="5.29478">
        <ele>256</ele>
        <time>2020-05-16T15:17:45.057Z</time>
      </trkpt>
      <trkpt lat="45.59477" lon="5.29473">
        <ele>256</ele>
        <time>2020-05-16T15:17:46.057Z</time>
      </trkpt>
      <trkpt lat="45.59473" lon="5.29468">
        <ele>256</ele>
        <time>2020-05-16T15:17:47.057Z</time>
      </trkpt>
      <trkpt lat="45.5947" lon="5.29463">
        <ele>255</ele>
        <time>2020-05-16T15:17:48.057Z</time>
      </trkpt>
      <trkpt lat="45.59466" lon="5.2946">
        <ele>255</ele>
        <time>2020-05-16T15:17:49.057Z</time>
      </trkpt>
      <trkpt lat="45.59461" lon="5.29458">
        <ele>255</ele>
        <time>2020-05-16T15:17:50.057Z</time>
      </trkpt>
      <trkpt lat="45.59456" lon="5.29458">
        <ele>254</ele>
        <time>2020-05-16T15:17:51.057Z</time>
      </trkpt>
      <trkpt lat="45.59451" lon="5.2946">
        <ele>254</ele>
        <time>2020-05-16T15:17:52.057Z</time>
      </trkpt>
      <trkpt lat="45.59445" lon="5.29462">
        <ele>253</ele>
        <time>2020-05-16T15:17:53.057Z</time>
      </trkpt>
      <trkpt lat="45.5944" lon="5.29465">
        <ele>253</ele>
        <time>2020-05-16T15:17:54.057Z</time>
      </trkpt>
      <trkpt lat="45.59435" lon="5.29467">
        <ele>253</ele>
        <time>2020-05-16T15:17:55.057Z</time>
      </trkpt>
      <trkpt lat="45.59429" lon="5.29469">
        <ele>253</ele>
        <time>2020-05-16T15:17:56.057Z</time>
      </trkpt>
      <trkpt lat="45.59424" lon="5.29471">
        <ele>253</ele>
        <time>2020-05-16T15:17:57.057Z</time>
      </trkpt>
      <trkpt lat="45.59418" lon="5.29473">
        <ele>253</ele>
        <time>2020-05-16T15:17:58.057Z</time>
      </trkpt>
      <trkpt lat="45.59413" lon="5.29476">
        <ele>253</ele>
        <time>2020-05-16T15:17:59.057Z</time>
      </trkpt>
      <trkpt lat="45.59407" lon="5.29478">
        <ele>253</ele>
        <time>2020-05-16T15:18:00.057Z</time>
      </trkpt>
      <trkpt lat="45.59402" lon="5.2948">
        <ele>253</ele>
        <time>2020-05-16T15:18:01.057Z</time>
      </trkpt>
      <trkpt lat="45.59396" lon="5.29482">
        <ele>253</ele>
        <time>2020-05-16T15:18:02.057Z</time>
      </trkpt>
      <trkpt lat="45.59391" lon="5.29484">
        <ele>253</ele>
        <time>2020-05-16T15:18:03.057Z</time>
      </trkpt>
      <trkpt lat="45.59386" lon="5.29486">
        <ele>253</ele>
        <time>2020-05-16T15:18:04.057Z</time>
      </trkpt>
      <trkpt lat="45.5938" lon="5.29488">
        <ele>252</ele>
        <time>2020-05-16T15:18:05.057Z</time>
      </trkpt>
      <trkpt lat="45.59376" lon="5.2949">
        <ele>252</ele>
        <time>2020-05-16T15:18:06.057Z</time>
      </trkpt>
      <trkpt lat="45.59372" lon="5.29492">
        <ele>252</ele>
        <time>2020-05-16T15:18:07.057Z</time>
      </trkpt>
      <trkpt lat="45.59368" lon="5.29494">
        <ele>252</ele>
        <time>2020-05-16T15:18:08.057Z</time>
      </trkpt>
      <trkpt lat="45.59365" lon="5.29495">
        <ele>253</ele>
        <time>2020-05-16T15:18:09.057Z</time>
      </trkpt>
      <trkpt lat="45.59362" lon="5.29496">
        <ele>252</ele>
        <time>2020-05-16T15:18:10.057Z</time>
      </trkpt>
      <trkpt lat="45.59359" lon="5.29496">
        <ele>252</ele>
        <time>2020-05-16T15:18:11.057Z</time>
      </trkpt>
      <trkpt lat="45.59356" lon="5.29497">
        <ele>253</ele>
        <time>2020-05-16T15:18:12.057Z</time>
      </trkpt>
      <trkpt lat="45.59352" lon="5.29496">
        <ele>254</ele>
        <time>2020-05-16T15:18:13.057Z</time>
      </trkpt>
      <trkpt lat="45.59349" lon="5.29494">
        <ele>252</ele>
        <time>2020-05-16T15:18:14.057Z</time>
      </trkpt>
      <trkpt lat="45.59346" lon="5.29491">
        <ele>253</ele>
        <time>2020-05-16T15:18:15.057Z</time>
      </trkpt>
      <trkpt lat="45.59343" lon="5.29488">
        <ele>254</ele>
        <time>2020-05-16T15:18:16.057Z</time>
      </trkpt>
      <trkpt lat="45.5934" lon="5.29485">
        <ele>254</ele>
        <time>2020-05-16T15:18:17.057Z</time>
      </trkpt>
      <trkpt lat="45.59337" lon="5.29482">
        <ele>254</ele>
        <time>2020-05-16T15:18:18.057Z</time>
      </trkpt>
      <trkpt lat="45.59334" lon="5.29479">
        <ele>254</ele>
        <time>2020-05-16T15:18:19.057Z</time>
      </trkpt>
      <trkpt lat="45.5933" lon="5.29476">
        <ele>254</ele>
        <time>2020-05-16T15:18:20.057Z</time>
      </trkpt>
      <trkpt lat="45.59327" lon="5.29473">
        <ele>254</ele>
        <time>2020-05-16T15:18:21.057Z</time>
      </trkpt>
      <trkpt lat="45.59323" lon="5.2947">
        <ele>254</ele>
        <time>2020-05-16T15:18:22.057Z</time>
      </trkpt>
      <trkpt lat="45.5932" lon="5.29467">
        <ele>254</ele>
        <time>2020-05-16T15:18:23.057Z</time>
      </trkpt>
      <trkpt lat="45.59316" lon="5.29464">
        <ele>254</ele>
        <time>2020-05-16T15:18:24.057Z</time>
      </trkpt>
      <trkpt lat="45.59313" lon="5.29461">
        <ele>254</ele>
        <time>2020-05-16T15:18:25.057Z</time>
      </trkpt>
      <trkpt lat="45.5931" lon="5.29459">
        <ele>255</ele>
        <time>2020-05-16T15:18:26.057Z</time>
      </trkpt>
      <trkpt lat="45.59307" lon="5.29456">
        <ele>255</ele>
        <time>2020-05-16T15:18:27.057Z</time>
      </trkpt>
      <trkpt lat="45.59304" lon="5.29454">
        <ele>256</ele>
        <time>2020-05-16T15:18:28.057Z</time>
      </trkpt>
      <trkpt lat="45.59301" lon="5.29451">
        <ele>256</ele>
        <time>2020-05-16T15:18:29.057Z</time>
      </trkpt>
      <trkpt lat="45.59298" lon="5.29449">
        <ele>256</ele>
        <time>2020-05-16T15:18:30.057Z</time>
      </trkpt>
      <trkpt lat="45.59295" lon="5.29446">
        <ele>256</ele>
        <time>2020-05-16T15:18:31.057Z</time>
      </trkpt>
      <trkpt lat="45.59292" lon="5.29444">
        <ele>257</ele>
        <time>2020-05-16T15:18:32.057Z</time>
      </trkpt>
      <trkpt lat="45.59289" lon="5.29441">
        <ele>257</ele>
        <time>2020-05-16T15:18:33.057Z</time>
      </trkpt>
      <trkpt lat="45.59286" lon="5.29438">
        <ele>257</ele>
        <time>2020-05-16T15:18:34.057Z</time>
      </trkpt>
      <trkpt lat="45.59283" lon="5.29436">
        <ele>257</ele>
        <time>2020-05-16T15:18:35.057Z</time>
      </trkpt>
      <trkpt lat="45.59279" lon="5.29433">
        <ele>257</ele>
        <time>2020-05-16T15:18:36.057Z</time>
      </trkpt>
      <trkpt lat="45.59276" lon="5.2943">
        <ele>257</ele>
        <time>2020-05-16T15:18:37.057Z</time>
      </trkpt>
      <trkpt lat="45.59272" lon="5.29428">
        <ele>257</ele>
        <time>2020-05-16T15:18:38.057Z</time>
      </trkpt>
      <trkpt lat="45.59269" lon="5.29425">
        <ele>257</ele>
        <time>2020-05-16T15:18:39.057Z</time>
      </trkpt>
      <trkpt lat="45.59266" lon="5.29423">
        <ele>257</ele>
        <time>2020-05-16T15:18:40.057Z</time>
      </trkpt>
      <trkpt lat="45.59263" lon="5.2942">
        <ele>257</ele>
        <time>2020-05-16T15:18:41.057Z</time>
      </trkpt>
      <trkpt lat="45.5926" lon="5.29417">
        <ele>257</ele>
        <time>2020-05-16T15:18:42.057Z</time>
      </trkpt>
      <trkpt lat="45.59256" lon="5.29414">
        <ele>257</ele>
        <time>2020-05-16T15:18:43.057Z</time>
      </trkpt>
      <trkpt lat="45.59253" lon="5.29411">
        <ele>257</ele>
        <time>2020-05-16T15:18:44.057Z</time>
      </trkpt>
      <trkpt lat="45.59249" lon="5.29408">
        <ele>257</ele>
        <time>2020-05-16T15:18:45.057Z</time>
      </trkpt>
      <trkpt lat="45.59245" lon="5.29404">
        <ele>257</ele>
        <time>2020-05-16T15:18:46.057Z</time>
      </trkpt>
      <trkpt lat="45.59241" lon="5.29401">
        <ele>257</ele>
        <time>2020-05-16T15:18:47.057Z</time>
      </trkpt>
      <trkpt lat="45.59238" lon="5.29397">
        <ele>257</ele>
        <time>2020-05-16T15:18:48.057Z</time>
      </trkpt>
      <trkpt lat="45.59234" lon="5.29394">
        <ele>257</ele>
        <time>2020-05-16T15:18:49.057Z</time>
      </trkpt>
      <trkpt lat="45.5923" lon="5.29391">
        <ele>257</ele>
        <time>2020-05-16T15:18:50.057Z</time>
      </trkpt>
      <trkpt lat="45.59226" lon="5.29387">
        <ele>256</ele>
        <time>2020-05-16T15:18:51.057Z</time>
      </trkpt>
      <trkpt lat="45.59221" lon="5.29383">
        <ele>256</ele>
        <time>2020-05-16T15:18:52.057Z</time>
      </trkpt>
      <trkpt lat="45.59218" lon="5.29378">
        <ele>254</ele>
        <time>2020-05-16T15:18:53.057Z</time>
      </trkpt>
      <trkpt lat="45.59214" lon="5.29371">
        <ele>253</ele>
        <time>2020-05-16T15:18:54.057Z</time>
      </trkpt>
      <trkpt lat="45.59212" lon="5.29364">
        <ele>253</ele>
        <time>2020-05-16T15:18:55.057Z</time>
      </trkpt>
      <trkpt lat="45.5921" lon="5.29356">
        <ele>253</ele>
        <time>2020-05-16T15:18:56.057Z</time>
      </trkpt>
      <trkpt lat="45.59208" lon="5.29349">
        <ele>253</ele>
        <time>2020-05-16T15:18:57.057Z</time>
      </trkpt>
      <trkpt lat="45.59207" lon="5.29341">
        <ele>252</ele>
        <time>2020-05-16T15:18:58.057Z</time>
      </trkpt>
      <trkpt lat="45.59207" lon="5.29333">
        <ele>252</ele>
        <time>2020-05-16T15:18:59.057Z</time>
      </trkpt>
      <trkpt lat="45.59207" lon="5.29324">
        <ele>252</ele>
        <time>2020-05-16T15:19:00.057Z</time>
      </trkpt>
      <trkpt lat="45.59209" lon="5.29316">
        <ele>251</ele>
        <time>2020-05-16T15:19:01.057Z</time>
      </trkpt>
      <trkpt lat="45.59211" lon="5.29307">
        <ele>251</ele>
        <time>2020-05-16T15:19:02.057Z</time>
      </trkpt>
      <trkpt lat="45.59213" lon="5.29298">
        <ele>251</ele>
        <time>2020-05-16T15:19:03.057Z</time>
      </trkpt>
      <trkpt lat="45.59216" lon="5.29289">
        <ele>250</ele>
        <time>2020-05-16T15:19:04.057Z</time>
      </trkpt>
      <trkpt lat="45.59219" lon="5.29279">
        <ele>250</ele>
        <time>2020-05-16T15:19:05.057Z</time>
      </trkpt>
      <trkpt lat="45.59221" lon="5.2927">
        <ele>250</ele>
        <time>2020-05-16T15:19:06.057Z</time>
      </trkpt>
      <trkpt lat="45.59224" lon="5.2926">
        <ele>249</ele>
        <time>2020-05-16T15:19:07.057Z</time>
      </trkpt>
      <trkpt lat="45.59227" lon="5.2925">
        <ele>249</ele>
        <time>2020-05-16T15:19:08.057Z</time>
      </trkpt>
      <trkpt lat="45.5923" lon="5.2924">
        <ele>249</ele>
        <time>2020-05-16T15:19:09.057Z</time>
      </trkpt>
      <trkpt lat="45.59234" lon="5.2923">
        <ele>248</ele>
        <time>2020-05-16T15:19:10.057Z</time>
      </trkpt>
      <trkpt lat="45.59237" lon="5.2922">
        <ele>248</ele>
        <time>2020-05-16T15:19:11.057Z</time>
      </trkpt>
      <trkpt lat="45.5924" lon="5.2921">
        <ele>248</ele>
        <time>2020-05-16T15:19:12.057Z</time>
      </trkpt>
      <trkpt lat="45.59243" lon="5.292">
        <ele>247</ele>
        <time>2020-05-16T15:19:13.057Z</time>
      </trkpt>
      <trkpt lat="45.59247" lon="5.2919">
        <ele>247</ele>
        <time>2020-05-16T15:19:14.057Z</time>
      </trkpt>
      <trkpt lat="45.5925" lon="5.2918">
        <ele>247</ele>
        <time>2020-05-16T15:19:15.057Z</time>
      </trkpt>
      <trkpt lat="45.59253" lon="5.29171">
        <ele>246</ele>
        <time>2020-05-16T15:19:16.057Z</time>
      </trkpt>
      <trkpt lat="45.59256" lon="5.29161">
        <ele>246</ele>
        <time>2020-05-16T15:19:17.057Z</time>
      </trkpt>
      <trkpt lat="45.5926" lon="5.2915">
        <ele>246</ele>
        <time>2020-05-16T15:19:18.057Z</time>
      </trkpt>
      <trkpt lat="45.59263" lon="5.2914">
        <ele>246</ele>
        <time>2020-05-16T15:19:19.057Z</time>
      </trkpt>
      <trkpt lat="45.59266" lon="5.29129">
        <ele>246</ele>
        <time>2020-05-16T15:19:20.057Z</time>
      </trkpt>
      <trkpt lat="45.5927" lon="5.29119">
        <ele>245</ele>
        <time>2020-05-16T15:19:21.057Z</time>
      </trkpt>
      <trkpt lat="45.59273" lon="5.29108">
        <ele>245</ele>
        <time>2020-05-16T15:19:22.057Z</time>
      </trkpt>
      <trkpt lat="45.59277" lon="5.29097">
        <ele>245</ele>
        <time>2020-05-16T15:19:23.057Z</time>
      </trkpt>
      <trkpt lat="45.5928" lon="5.29087">
        <ele>245</ele>
        <time>2020-05-16T15:19:24.057Z</time>
      </trkpt>
      <trkpt lat="45.59284" lon="5.29076">
        <ele>244</ele>
        <time>2020-05-16T15:19:25.057Z</time>
      </trkpt>
      <trkpt lat="45.59287" lon="5.29065">
        <ele>244</ele>
        <time>2020-05-16T15:19:26.057Z</time>
      </trkpt>
      <trkpt lat="45.59291" lon="5.29055">
        <ele>243</ele>
        <time>2020-05-16T15:19:27.057Z</time>
      </trkpt>
      <trkpt lat="45.59295" lon="5.29044">
        <ele>243</ele>
        <time>2020-05-16T15:19:28.057Z</time>
      </trkpt>
      <trkpt lat="45.59299" lon="5.29032">
        <ele>243</ele>
        <time>2020-05-16T15:19:29.057Z</time>
      </trkpt>
      <trkpt lat="45.59302" lon="5.29021">
        <ele>242</ele>
        <time>2020-05-16T15:19:30.057Z</time>
      </trkpt>
      <trkpt lat="45.59306" lon="5.2901">
        <ele>242</ele>
        <time>2020-05-16T15:19:31.057Z</time>
      </trkpt>
      <trkpt lat="45.5931" lon="5.28999">
        <ele>242</ele>
        <time>2020-05-16T15:19:32.057Z</time>
      </trkpt>
      <trkpt lat="45.59314" lon="5.28988">
        <ele>242</ele>
        <time>2020-05-16T15:19:33.057Z</time>
      </trkpt>
      <trkpt lat="45.59318" lon="5.28977">
        <ele>242</ele>
        <time>2020-05-16T15:19:34.057Z</time>
      </trkpt>
      <trkpt lat="45.59321" lon="5.28966">
        <ele>242</ele>
        <time>2020-05-16T15:19:35.057Z</time>
      </trkpt>
      <trkpt lat="45.59325" lon="5.28955">
        <ele>241</ele>
        <time>2020-05-16T15:19:36.057Z</time>
      </trkpt>
      <trkpt lat="45.59328" lon="5.28944">
        <ele>241</ele>
        <time>2020-05-16T15:19:37.057Z</time>
      </trkpt>
      <trkpt lat="45.59332" lon="5.28933">
        <ele>241</ele>
        <time>2020-05-16T15:19:38.057Z</time>
      </trkpt>
      <trkpt lat="45.59334" lon="5.28922">
        <ele>241</ele>
        <time>2020-05-16T15:19:39.057Z</time>
      </trkpt>
      <trkpt lat="45.59337" lon="5.28911">
        <ele>241</ele>
        <time>2020-05-16T15:19:40.057Z</time>
      </trkpt>
      <trkpt lat="45.59339" lon="5.289">
        <ele>241</ele>
        <time>2020-05-16T15:19:41.057Z</time>
      </trkpt>
      <trkpt lat="45.5934" lon="5.28889">
        <ele>241</ele>
        <time>2020-05-16T15:19:42.057Z</time>
      </trkpt>
      <trkpt lat="45.59342" lon="5.28878">
        <ele>241</ele>
        <time>2020-05-16T15:19:43.057Z</time>
      </trkpt>
      <trkpt lat="45.59343" lon="5.28867">
        <ele>241</ele>
        <time>2020-05-16T15:19:44.057Z</time>
      </trkpt>
      <trkpt lat="45.59344" lon="5.28857">
        <ele>241</ele>
        <time>2020-05-16T15:19:45.057Z</time>
      </trkpt>
      <trkpt lat="45.59344" lon="5.28846">
        <ele>241</ele>
        <time>2020-05-16T15:19:46.057Z</time>
      </trkpt>
      <trkpt lat="45.59345" lon="5.28836">
        <ele>241</ele>
        <time>2020-05-16T15:19:47.057Z</time>
      </trkpt>
      <trkpt lat="45.59346" lon="5.28825">
        <ele>241</ele>
        <time>2020-05-16T15:19:48.057Z</time>
      </trkpt>
      <trkpt lat="45.59346" lon="5.28814">
        <ele>241</ele>
        <time>2020-05-16T15:19:49.057Z</time>
      </trkpt>
      <trkpt lat="45.59347" lon="5.28804">
        <ele>241</ele>
        <time>2020-05-16T15:19:50.057Z</time>
      </trkpt>
      <trkpt lat="45.59347" lon="5.28793">
        <ele>241</ele>
        <time>2020-05-16T15:19:51.057Z</time>
      </trkpt>
      <trkpt lat="45.59348" lon="5.28783">
        <ele>241</ele>
        <time>2020-05-16T15:19:52.057Z</time>
      </trkpt>
      <trkpt lat="45.59348" lon="5.28772">
        <ele>241</ele>
        <time>2020-05-16T15:19:53.057Z</time>
      </trkpt>
      <trkpt lat="45.59349" lon="5.28762">
        <ele>240</ele>
        <time>2020-05-16T15:19:54.057Z</time>
      </trkpt>
      <trkpt lat="45.5935" lon="5.28753">
        <ele>240</ele>
        <time>2020-05-16T15:19:55.057Z</time>
      </trkpt>
      <trkpt lat="45.5935" lon="5.28746">
        <ele>241</ele>
        <time>2020-05-16T15:19:56.057Z</time>
      </trkpt>
      <trkpt lat="45.59351" lon="5.2874">
        <ele>241</ele>
        <time>2020-05-16T15:19:57.057Z</time>
      </trkpt>
      <trkpt lat="45.59351" lon="5.28735">
        <ele>241</ele>
        <time>2020-05-16T15:19:58.057Z</time>
      </trkpt>
      <trkpt lat="45.59352" lon="5.2873">
        <ele>241</ele>
        <time>2020-05-16T15:19:59.057Z</time>
      </trkpt>
      <trkpt lat="45.59352" lon="5.28726">
        <ele>241</ele>
        <time>2020-05-16T15:20:00.057Z</time>
      </trkpt>
      <trkpt lat="45.59353" lon="5.28721">
        <ele>241</ele>
        <time>2020-05-16T15:20:01.057Z</time>
      </trkpt>
      <trkpt lat="45.59353" lon="5.28716">
        <ele>240</ele>
        <time>2020-05-16T15:20:02.057Z</time>
      </trkpt>
      <trkpt lat="45.59354" lon="5.28712">
        <ele>240</ele>
        <time>2020-05-16T15:20:03.057Z</time>
      </trkpt>
      <trkpt lat="45.59355" lon="5.28708">
        <ele>240</ele>
        <time>2020-05-16T15:20:04.057Z</time>
      </trkpt>
      <trkpt lat="45.59356" lon="5.28703">
        <ele>240</ele>
        <time>2020-05-16T15:20:05.057Z</time>
      </trkpt>
      <trkpt lat="45.59356" lon="5.28699">
        <ele>240</ele>
        <time>2020-05-16T15:20:06.057Z</time>
      </trkpt>
      <trkpt lat="45.59358" lon="5.28694">
        <ele>240</ele>
        <time>2020-05-16T15:20:07.057Z</time>
      </trkpt>
      <trkpt lat="45.59359" lon="5.28689">
        <ele>240</ele>
        <time>2020-05-16T15:20:08.057Z</time>
      </trkpt>
      <trkpt lat="45.5936" lon="5.28683">
        <ele>239</ele>
        <time>2020-05-16T15:20:09.057Z</time>
      </trkpt>
      <trkpt lat="45.59362" lon="5.28676">
        <ele>239</ele>
        <time>2020-05-16T15:20:10.057Z</time>
      </trkpt>
      <trkpt lat="45.59364" lon="5.2867">
        <ele>239</ele>
        <time>2020-05-16T15:20:11.057Z</time>
      </trkpt>
      <trkpt lat="45.59365" lon="5.28663">
        <ele>239</ele>
        <time>2020-05-16T15:20:12.057Z</time>
      </trkpt>
      <trkpt lat="45.59367" lon="5.28657">
        <ele>239</ele>
        <time>2020-05-16T15:20:13.057Z</time>
      </trkpt>
      <trkpt lat="45.59369" lon="5.2865">
        <ele>239</ele>
        <time>2020-05-16T15:20:14.057Z</time>
      </trkpt>
      <trkpt lat="45.59371" lon="5.28644">
        <ele>239</ele>
        <time>2020-05-16T15:20:15.057Z</time>
      </trkpt>
      <trkpt lat="45.59372" lon="5.28637">
        <ele>239</ele>
        <time>2020-05-16T15:20:16.057Z</time>
      </trkpt>
      <trkpt lat="45.59374" lon="5.28631">
        <ele>239</ele>
        <time>2020-05-16T15:20:17.057Z</time>
      </trkpt>
      <trkpt lat="45.59376" lon="5.28624">
        <ele>240</ele>
        <time>2020-05-16T15:20:18.057Z</time>
      </trkpt>
      <trkpt lat="45.59378" lon="5.28619">
        <ele>240</ele>
        <time>2020-05-16T15:20:19.057Z</time>
      </trkpt>
      <trkpt lat="45.5938" lon="5.28614">
        <ele>240</ele>
        <time>2020-05-16T15:20:20.057Z</time>
      </trkpt>
      <trkpt lat="45.59381" lon="5.2861">
        <ele>240</ele>
        <time>2020-05-16T15:20:21.057Z</time>
      </trkpt>
      <trkpt lat="45.59382" lon="5.28606">
        <ele>240</ele>
        <time>2020-05-16T15:20:22.057Z</time>
      </trkpt>
      <trkpt lat="45.59384" lon="5.28602">
        <ele>240</ele>
        <time>2020-05-16T15:20:23.057Z</time>
      </trkpt>
      <trkpt lat="45.59385" lon="5.28597">
        <ele>240</ele>
        <time>2020-05-16T15:20:24.057Z</time>
      </trkpt>
      <trkpt lat="45.59386" lon="5.28591">
        <ele>240</ele>
        <time>2020-05-16T15:20:25.057Z</time>
      </trkpt>
      <trkpt lat="45.59388" lon="5.28585">
        <ele>240</ele>
        <time>2020-05-16T15:20:26.057Z</time>
      </trkpt>
      <trkpt lat="45.59389" lon="5.28577">
        <ele>239</ele>
        <time>2020-05-16T15:20:27.057Z</time>
      </trkpt>
      <trkpt lat="45.59392" lon="5.2857">
        <ele>239</ele>
        <time>2020-05-16T15:20:28.057Z</time>
      </trkpt>
      <trkpt lat="45.59394" lon="5.28561">
        <ele>239</ele>
        <time>2020-05-16T15:20:29.057Z</time>
      </trkpt>
      <trkpt lat="45.59396" lon="5.28553">
        <ele>239</ele>
        <time>2020-05-16T15:20:30.057Z</time>
      </trkpt>
      <trkpt lat="45.59399" lon="5.28545">
        <ele>239</ele>
        <time>2020-05-16T15:20:31.057Z</time>
      </trkpt>
      <trkpt lat="45.59401" lon="5.28536">
        <ele>239</ele>
        <time>2020-05-16T15:20:32.057Z</time>
      </trkpt>
      <trkpt lat="45.59404" lon="5.28528">
        <ele>239</ele>
        <time>2020-05-16T15:20:33.057Z</time>
      </trkpt>
      <trkpt lat="45.59406" lon="5.2852">
        <ele>239</ele>
        <time>2020-05-16T15:20:34.057Z</time>
      </trkpt>
      <trkpt lat="45.59409" lon="5.28511">
        <ele>238</ele>
        <time>2020-05-16T15:20:35.057Z</time>
      </trkpt>
      <trkpt lat="45.59411" lon="5.28502">
        <ele>238</ele>
        <time>2020-05-16T15:20:36.057Z</time>
      </trkpt>
      <trkpt lat="45.59413" lon="5.28494">
        <ele>238</ele>
        <time>2020-05-16T15:20:37.057Z</time>
      </trkpt>
      <trkpt lat="45.59415" lon="5.28485">
        <ele>238</ele>
        <time>2020-05-16T15:20:38.057Z</time>
      </trkpt>
      <trkpt lat="45.59417" lon="5.28476">
        <ele>238</ele>
        <time>2020-05-16T15:20:39.057Z</time>
      </trkpt>
      <trkpt lat="45.59419" lon="5.28468">
        <ele>238</ele>
        <time>2020-05-16T15:20:40.057Z</time>
      </trkpt>
      <trkpt lat="45.59421" lon="5.28459">
        <ele>238</ele>
        <time>2020-05-16T15:20:41.057Z</time>
      </trkpt>
      <trkpt lat="45.59423" lon="5.2845">
        <ele>238</ele>
        <time>2020-05-16T15:20:42.057Z</time>
      </trkpt>
      <trkpt lat="45.59424" lon="5.28441">
        <ele>238</ele>
        <time>2020-05-16T15:20:43.057Z</time>
      </trkpt>
      <trkpt lat="45.59425" lon="5.28432">
        <ele>238</ele>
        <time>2020-05-16T15:20:44.057Z</time>
      </trkpt>
      <trkpt lat="45.59426" lon="5.28422">
        <ele>238</ele>
        <time>2020-05-16T15:20:45.057Z</time>
      </trkpt>
      <trkpt lat="45.59426" lon="5.28413">
        <ele>238</ele>
        <time>2020-05-16T15:20:46.057Z</time>
      </trkpt>
      <trkpt lat="45.59426" lon="5.28404">
        <ele>238</ele>
        <time>2020-05-16T15:20:47.057Z</time>
      </trkpt>
      <trkpt lat="45.59426" lon="5.28394">
        <ele>238</ele>
        <time>2020-05-16T15:20:48.057Z</time>
      </trkpt>
      <trkpt lat="45.59425" lon="5.28385">
        <ele>238</ele>
        <time>2020-05-16T15:20:49.057Z</time>
      </trkpt>
      <trkpt lat="45.59425" lon="5.28376">
        <ele>238</ele>
        <time>2020-05-16T15:20:50.057Z</time>
      </trkpt>
      <trkpt lat="45.59424" lon="5.28368">
        <ele>238</ele>
        <time>2020-05-16T15:20:51.057Z</time>
      </trkpt>
      <trkpt lat="45.59423" lon="5.28359">
        <ele>238</ele>
        <time>2020-05-16T15:20:52.057Z</time>
      </trkpt>
      <trkpt lat="45.59422" lon="5.28349">
        <ele>238</ele>
        <time>2020-05-16T15:20:53.057Z</time>
      </trkpt>
      <trkpt lat="45.59421" lon="5.2834">
        <ele>238</ele>
        <time>2020-05-16T15:20:54.057Z</time>
      </trkpt>
      <trkpt lat="45.5942" lon="5.28331">
        <ele>238</ele>
        <time>2020-05-16T15:20:55.057Z</time>
      </trkpt>
      <trkpt lat="45.59419" lon="5.28322">
        <ele>238</ele>
        <time>2020-05-16T15:20:56.057Z</time>
      </trkpt>
      <trkpt lat="45.59418" lon="5.28313">
        <ele>238</ele>
        <time>2020-05-16T15:20:57.057Z</time>
      </trkpt>
      <trkpt lat="45.59416" lon="5.28304">
        <ele>238</ele>
        <time>2020-05-16T15:20:58.057Z</time>
      </trkpt>
      <trkpt lat="45.59414" lon="5.28295">
        <ele>238</ele>
        <time>2020-05-16T15:20:59.057Z</time>
      </trkpt>
      <trkpt lat="45.59411" lon="5.28287">
        <ele>238</ele>
        <time>2020-05-16T15:21:00.057Z</time>
      </trkpt>
      <trkpt lat="45.59408" lon="5.28279">
        <ele>238</ele>
        <time>2020-05-16T15:21:01.057Z</time>
      </trkpt>
      <trkpt lat="45.59405" lon="5.28271">
        <ele>238</ele>
        <time>2020-05-16T15:21:02.057Z</time>
      </trkpt>
      <trkpt lat="45.59403" lon="5.28262">
        <ele>238</ele>
        <time>2020-05-16T15:21:03.057Z</time>
      </trkpt>
      <trkpt lat="45.594" lon="5.28254">
        <ele>238</ele>
        <time>2020-05-16T15:21:04.057Z</time>
      </trkpt>
      <trkpt lat="45.59399" lon="5.28245">
        <ele>238</ele>
        <time>2020-05-16T15:21:05.057Z</time>
      </trkpt>
      <trkpt lat="45.59397" lon="5.28236">
        <ele>238</ele>
        <time>2020-05-16T15:21:06.057Z</time>
      </trkpt>
      <trkpt lat="45.59397" lon="5.28227">
        <ele>238</ele>
        <time>2020-05-16T15:21:07.057Z</time>
      </trkpt>
      <trkpt lat="45.59396" lon="5.28217">
        <ele>238</ele>
        <time>2020-05-16T15:21:08.057Z</time>
      </trkpt>
      <trkpt lat="45.59396" lon="5.28208">
        <ele>238</ele>
        <time>2020-05-16T15:21:09.057Z</time>
      </trkpt>
      <trkpt lat="45.59396" lon="5.28198">
        <ele>238</ele>
        <time>2020-05-16T15:21:10.057Z</time>
      </trkpt>
      <trkpt lat="45.59396" lon="5.28189">
        <ele>238</ele>
        <time>2020-05-16T15:21:11.057Z</time>
      </trkpt>
      <trkpt lat="45.59396" lon="5.28179">
        <ele>238</ele>
        <time>2020-05-16T15:21:12.057Z</time>
      </trkpt>
      <trkpt lat="45.59395" lon="5.2817">
        <ele>238</ele>
        <time>2020-05-16T15:21:13.057Z</time>
      </trkpt>
      <trkpt lat="45.59395" lon="5.28161">
        <ele>238</ele>
        <time>2020-05-16T15:21:14.057Z</time>
      </trkpt>
      <trkpt lat="45.59395" lon="5.28151">
        <ele>238</ele>
        <time>2020-05-16T15:21:15.057Z</time>
      </trkpt>
      <trkpt lat="45.59395" lon="5.28142">
        <ele>238</ele>
        <time>2020-05-16T15:21:16.057Z</time>
      </trkpt>
      <trkpt lat="45.59395" lon="5.28133">
        <ele>238</ele>
        <time>2020-05-16T15:21:17.057Z</time>
      </trkpt>
      <trkpt lat="45.59394" lon="5.28124">
        <ele>238</ele>
        <time>2020-05-16T15:21:18.057Z</time>
      </trkpt>
      <trkpt lat="45.59393" lon="5.28115">
        <ele>238</ele>
        <time>2020-05-16T15:21:19.057Z</time>
      </trkpt>
      <trkpt lat="45.59393" lon="5.28107">
        <ele>238</ele>
        <time>2020-05-16T15:21:20.057Z</time>
      </trkpt>
      <trkpt lat="45.59392" lon="5.28098">
        <ele>238</ele>
        <time>2020-05-16T15:21:21.057Z</time>
      </trkpt>
      <trkpt lat="45.59391" lon="5.28089">
        <ele>238</ele>
        <time>2020-05-16T15:21:22.057Z</time>
      </trkpt>
      <trkpt lat="45.59391" lon="5.28081">
        <ele>238</ele>
        <time>2020-05-16T15:21:23.057Z</time>
      </trkpt>
      <trkpt lat="45.5939" lon="5.28073">
        <ele>238</ele>
        <time>2020-05-16T15:21:24.057Z</time>
      </trkpt>
      <trkpt lat="45.5939" lon="5.28065">
        <ele>238</ele>
        <time>2020-05-16T15:21:25.057Z</time>
      </trkpt>
      <trkpt lat="45.59389" lon="5.28059">
        <ele>238</ele>
        <time>2020-05-16T15:21:26.057Z</time>
      </trkpt>
      <trkpt lat="45.59389" lon="5.28054">
        <ele>238</ele>
        <time>2020-05-16T15:21:27.057Z</time>
      </trkpt>
      <trkpt lat="45.59389" lon="5.2805">
        <ele>239</ele>
        <time>2020-05-16T15:21:28.057Z</time>
      </trkpt>
      <trkpt lat="45.5939" lon="5.28047">
        <ele>239</ele>
        <time>2020-05-16T15:21:29.057Z</time>
      </trkpt>
      <trkpt lat="45.5939" lon="5.28044">
        <ele>239</ele>
        <time>2020-05-16T15:21:30.057Z</time>
      </trkpt>
      <trkpt lat="45.59391" lon="5.28042">
        <ele>239</ele>
        <time>2020-05-16T15:21:31.057Z</time>
      </trkpt>
      <trkpt lat="45.59392" lon="5.2804">
        <ele>239</ele>
        <time>2020-05-16T15:21:32.057Z</time>
      </trkpt>
      <trkpt lat="45.59392" lon="5.28039">
        <ele>239</ele>
        <time>2020-05-16T15:21:33.057Z</time>
      </trkpt>
      <trkpt lat="45.59392" lon="5.28038">
        <ele>239</ele>
        <time>2020-05-16T15:21:34.057Z</time>
      </trkpt>
      <trkpt lat="45.59392" lon="5.28036">
        <ele>239</ele>
        <time>2020-05-16T15:21:35.057Z</time>
      </trkpt>
      <trkpt lat="45.59393" lon="5.28033">
        <ele>239</ele>
        <time>2020-05-16T15:21:36.057Z</time>
      </trkpt>
      <trkpt lat="45.59392" lon="5.2803">
        <ele>239</ele>
        <time>2020-05-16T15:21:37.057Z</time>
      </trkpt>
      <trkpt lat="45.59392" lon="5.28026">
        <ele>239</ele>
        <time>2020-05-16T15:21:38.057Z</time>
      </trkpt>
      <trkpt lat="45.59391" lon="5.28021">
        <ele>239</ele>
        <time>2020-05-16T15:21:39.057Z</time>
      </trkpt>
      <trkpt lat="45.5939" lon="5.28015">
        <ele>239</ele>
        <time>2020-05-16T15:21:40.057Z</time>
      </trkpt>
      <trkpt lat="45.59389" lon="5.28008">
        <ele>238</ele>
        <time>2020-05-16T15:21:41.057Z</time>
      </trkpt>
      <trkpt lat="45.59388" lon="5.28">
        <ele>238</ele>
        <time>2020-05-16T15:21:42.057Z</time>
      </trkpt>
      <trkpt lat="45.59388" lon="5.27992">
        <ele>238</ele>
        <time>2020-05-16T15:21:43.057Z</time>
      </trkpt>
      <trkpt lat="45.59388" lon="5.27984">
        <ele>238</ele>
        <time>2020-05-16T15:21:44.057Z</time>
      </trkpt>
      <trkpt lat="45.59389" lon="5.27976">
        <ele>237</ele>
        <time>2020-05-16T15:21:45.057Z</time>
      </trkpt>
      <trkpt lat="45.5939" lon="5.27968">
        <ele>237</ele>
        <time>2020-05-16T15:21:46.057Z</time>
      </trkpt>
      <trkpt lat="45.59391" lon="5.27959">
        <ele>237</ele>
        <time>2020-05-16T15:21:47.057Z</time>
      </trkpt>
      <trkpt lat="45.59393" lon="5.27951">
        <ele>237</ele>
        <time>2020-05-16T15:21:48.057Z</time>
      </trkpt>
      <trkpt lat="45.59395" lon="5.27943">
        <ele>237</ele>
        <time>2020-05-16T15:21:49.057Z</time>
      </trkpt>
      <trkpt lat="45.59397" lon="5.27935">
        <ele>238</ele>
        <time>2020-05-16T15:21:50.057Z</time>
      </trkpt>
      <trkpt lat="45.594" lon="5.27927">
        <ele>237</ele>
        <time>2020-05-16T15:21:51.057Z</time>
      </trkpt>
      <trkpt lat="45.59403" lon="5.2792">
        <ele>237</ele>
        <time>2020-05-16T15:21:52.057Z</time>
      </trkpt>
      <trkpt lat="45.59406" lon="5.27912">
        <ele>238</ele>
        <time>2020-05-16T15:21:53.057Z</time>
      </trkpt>
      <trkpt lat="45.59409" lon="5.27906">
        <ele>238</ele>
        <time>2020-05-16T15:21:54.057Z</time>
      </trkpt>
      <trkpt lat="45.59412" lon="5.27899">
        <ele>238</ele>
        <time>2020-05-16T15:21:55.057Z</time>
      </trkpt>
      <trkpt lat="45.59415" lon="5.27893">
        <ele>238</ele>
        <time>2020-05-16T15:21:56.057Z</time>
      </trkpt>
      <trkpt lat="45.59417" lon="5.27887">
        <ele>238</ele>
        <time>2020-05-16T15:21:57.057Z</time>
      </trkpt>
      <trkpt lat="45.5942" lon="5.27882">
        <ele>238</ele>
        <time>2020-05-16T15:21:58.057Z</time>
      </trkpt>
      <trkpt lat="45.59423" lon="5.27877">
        <ele>238</ele>
        <time>2020-05-16T15:21:59.057Z</time>
      </trkpt>
      <trkpt lat="45.59426" lon="5.27871">
        <ele>238</ele>
        <time>2020-05-16T15:22:00.057Z</time>
      </trkpt>
      <trkpt lat="45.59429" lon="5.27866">
        <ele>238</ele>
        <time>2020-05-16T15:22:01.057Z</time>
      </trkpt>
      <trkpt lat="45.59432" lon="5.2786">
        <ele>238</ele>
        <time>2020-05-16T15:22:02.057Z</time>
      </trkpt>
      <trkpt lat="45.59436" lon="5.27855">
        <ele>237</ele>
        <time>2020-05-16T15:22:03.057Z</time>
      </trkpt>
      <trkpt lat="45.59439" lon="5.27851">
        <ele>237</ele>
        <time>2020-05-16T15:22:04.057Z</time>
      </trkpt>
      <trkpt lat="45.59443" lon="5.27846">
        <ele>237</ele>
        <time>2020-05-16T15:22:05.057Z</time>
      </trkpt>
      <trkpt lat="45.59447" lon="5.27842">
        <ele>237</ele>
        <time>2020-05-16T15:22:06.057Z</time>
      </trkpt>
      <trkpt lat="45.59451" lon="5.27838">
        <ele>237</ele>
        <time>2020-05-16T15:22:07.057Z</time>
      </trkpt>
      <trkpt lat="45.59455" lon="5.27834">
        <ele>237</ele>
        <time>2020-05-16T15:22:08.057Z</time>
      </trkpt>
      <trkpt lat="45.59459" lon="5.2783">
        <ele>237</ele>
        <time>2020-05-16T15:22:09.057Z</time>
      </trkpt>
      <trkpt lat="45.59463" lon="5.27826">
        <ele>237</ele>
        <time>2020-05-16T15:22:10.057Z</time>
      </trkpt>
      <trkpt lat="45.59467" lon="5.27822">
        <ele>237</ele>
        <time>2020-05-16T15:22:11.057Z</time>
      </trkpt>
      <trkpt lat="45.59471" lon="5.27819">
        <ele>237</ele>
        <time>2020-05-16T15:22:12.057Z</time>
      </trkpt>
      <trkpt lat="45.59475" lon="5.27815">
        <ele>237</ele>
        <time>2020-05-16T15:22:13.057Z</time>
      </trkpt>
      <trkpt lat="45.5948" lon="5.27813">
        <ele>236</ele>
        <time>2020-05-16T15:22:14.057Z</time>
      </trkpt>
      <trkpt lat="45.59485" lon="5.27811">
        <ele>236</ele>
        <time>2020-05-16T15:22:15.057Z</time>
      </trkpt>
      <trkpt lat="45.5949" lon="5.27809">
        <ele>236</ele>
        <time>2020-05-16T15:22:16.057Z</time>
      </trkpt>
      <trkpt lat="45.59495" lon="5.27808">
        <ele>237</ele>
        <time>2020-05-16T15:22:17.057Z</time>
      </trkpt>
      <trkpt lat="45.595" lon="5.27807">
        <ele>237</ele>
        <time>2020-05-16T15:22:18.057Z</time>
      </trkpt>
      <trkpt lat="45.59505" lon="5.27806">
        <ele>237</ele>
        <time>2020-05-16T15:22:19.057Z</time>
      </trkpt>
      <trkpt lat="45.59509" lon="5.27806">
        <ele>237</ele>
        <time>2020-05-16T15:22:20.057Z</time>
      </trkpt>
      <trkpt lat="45.59512" lon="5.27807">
        <ele>236</ele>
        <time>2020-05-16T15:22:21.057Z</time>
      </trkpt>
      <trkpt lat="45.59515" lon="5.27808">
        <ele>236</ele>
        <time>2020-05-16T15:22:22.057Z</time>
      </trkpt>
      <trkpt lat="45.59517" lon="5.27809">
        <ele>235</ele>
        <time>2020-05-16T15:22:23.057Z</time>
      </trkpt>
      <trkpt lat="45.5952" lon="5.2781">
        <ele>235</ele>
        <time>2020-05-16T15:22:24.057Z</time>
      </trkpt>
      <trkpt lat="45.59522" lon="5.27811">
        <ele>235</ele>
        <time>2020-05-16T15:22:25.057Z</time>
      </trkpt>
      <trkpt lat="45.59524" lon="5.27813">
        <ele>235</ele>
        <time>2020-05-16T15:22:26.057Z</time>
      </trkpt>
      <trkpt lat="45.59527" lon="5.27815">
        <ele>235</ele>
        <time>2020-05-16T15:22:27.057Z</time>
      </trkpt>
      <trkpt lat="45.59529" lon="5.27817">
        <ele>235</ele>
        <time>2020-05-16T15:22:28.057Z</time>
      </trkpt>
      <trkpt lat="45.59532" lon="5.27819">
        <ele>234</ele>
        <time>2020-05-16T15:22:29.057Z</time>
      </trkpt>
      <trkpt lat="45.59535" lon="5.27822">
        <ele>234</ele>
        <time>2020-05-16T15:22:30.057Z</time>
      </trkpt>
      <trkpt lat="45.59538" lon="5.27825">
        <ele>235</ele>
        <time>2020-05-16T15:22:31.057Z</time>
      </trkpt>
      <trkpt lat="45.59541" lon="5.27828">
        <ele>235</ele>
        <time>2020-05-16T15:22:32.057Z</time>
      </trkpt>
      <trkpt lat="45.59544" lon="5.27832">
        <ele>234</ele>
        <time>2020-05-16T15:22:33.057Z</time>
      </trkpt>
      <trkpt lat="45.59548" lon="5.27835">
        <ele>234</ele>
        <time>2020-05-16T15:22:34.057Z</time>
      </trkpt>
      <trkpt lat="45.59552" lon="5.27838">
        <ele>233</ele>
        <time>2020-05-16T15:22:35.057Z</time>
      </trkpt>
      <trkpt lat="45.59557" lon="5.27842">
        <ele>234</ele>
        <time>2020-05-16T15:22:36.057Z</time>
      </trkpt>
      <trkpt lat="45.59561" lon="5.27845">
        <ele>234</ele>
        <time>2020-05-16T15:22:37.057Z</time>
      </trkpt>
      <trkpt lat="45.59565" lon="5.27848">
        <ele>234</ele>
        <time>2020-05-16T15:22:38.057Z</time>
      </trkpt>
      <trkpt lat="45.59569" lon="5.27851">
        <ele>234</ele>
        <time>2020-05-16T15:22:39.057Z</time>
      </trkpt>
      <trkpt lat="45.59572" lon="5.27854">
        <ele>234</ele>
        <time>2020-05-16T15:22:40.057Z</time>
      </trkpt>
      <trkpt lat="45.59576" lon="5.27857">
        <ele>234</ele>
        <time>2020-05-16T15:22:41.057Z</time>
      </trkpt>
      <trkpt lat="45.5958" lon="5.2786">
        <ele>234</ele>
        <time>2020-05-16T15:22:42.057Z</time>
      </trkpt>
      <trkpt lat="45.59584" lon="5.27863">
        <ele>234</ele>
        <time>2020-05-16T15:22:43.057Z</time>
      </trkpt>
      <trkpt lat="45.59587" lon="5.27866">
        <ele>234</ele>
        <time>2020-05-16T15:22:44.057Z</time>
      </trkpt>
      <trkpt lat="45.59591" lon="5.27868">
        <ele>234</ele>
        <time>2020-05-16T15:22:45.057Z</time>
      </trkpt>
      <trkpt lat="45.59595" lon="5.27871">
        <ele>234</ele>
        <time>2020-05-16T15:22:46.057Z</time>
      </trkpt>
      <trkpt lat="45.59598" lon="5.27874">
        <ele>234</ele>
        <time>2020-05-16T15:22:47.057Z</time>
      </trkpt>
      <trkpt lat="45.59602" lon="5.27877">
        <ele>234</ele>
        <time>2020-05-16T15:22:48.057Z</time>
      </trkpt>
      <trkpt lat="45.59606" lon="5.2788">
        <ele>234</ele>
        <time>2020-05-16T15:22:49.057Z</time>
      </trkpt>
      <trkpt lat="45.59609" lon="5.27883">
        <ele>233</ele>
        <time>2020-05-16T15:22:50.057Z</time>
      </trkpt>
      <trkpt lat="45.59613" lon="5.27886">
        <ele>233</ele>
        <time>2020-05-16T15:22:51.057Z</time>
      </trkpt>
      <trkpt lat="45.59615" lon="5.27887">
        <ele>235</ele>
        <time>2020-05-16T15:22:52.057Z</time>
      </trkpt>
      <trkpt lat="45.59618" lon="5.27886">
        <ele>234</ele>
        <time>2020-05-16T15:22:53.057Z</time>
      </trkpt>
      <trkpt lat="45.5962" lon="5.27885">
        <ele>234</ele>
        <time>2020-05-16T15:22:54.057Z</time>
      </trkpt>
      <trkpt lat="45.59622" lon="5.27883">
        <ele>233</ele>
        <time>2020-05-16T15:22:55.057Z</time>
      </trkpt>
      <trkpt lat="45.59623" lon="5.27879">
        <ele>234</ele>
        <time>2020-05-16T15:22:56.057Z</time>
      </trkpt>
      <trkpt lat="45.59625" lon="5.27874">
        <ele>234</ele>
        <time>2020-05-16T15:22:57.057Z</time>
      </trkpt>
      <trkpt lat="45.59628" lon="5.27869">
        <ele>234</ele>
        <time>2020-05-16T15:22:58.057Z</time>
      </trkpt>
      <trkpt lat="45.5963" lon="5.27863">
        <ele>235</ele>
        <time>2020-05-16T15:22:59.057Z</time>
      </trkpt>
      <trkpt lat="45.59634" lon="5.27857">
        <ele>235</ele>
        <time>2020-05-16T15:23:00.057Z</time>
      </trkpt>
      <trkpt lat="45.59637" lon="5.2785">
        <ele>234</ele>
        <time>2020-05-16T15:23:01.057Z</time>
      </trkpt>
      <trkpt lat="45.5964" lon="5.27844">
        <ele>234</ele>
        <time>2020-05-16T15:23:02.057Z</time>
      </trkpt>
      <trkpt lat="45.59643" lon="5.27838">
        <ele>235</ele>
        <time>2020-05-16T15:23:03.057Z</time>
      </trkpt>
      <trkpt lat="45.59646" lon="5.27831">
        <ele>235</ele>
        <time>2020-05-16T15:23:04.057Z</time>
      </trkpt>
      <trkpt lat="45.5965" lon="5.27825">
        <ele>235</ele>
        <time>2020-05-16T15:23:05.057Z</time>
      </trkpt>
      <trkpt lat="45.59653" lon="5.27818">
        <ele>235</ele>
        <time>2020-05-16T15:23:06.057Z</time>
      </trkpt>
      <trkpt lat="45.59656" lon="5.27811">
        <ele>235</ele>
        <time>2020-05-16T15:23:07.057Z</time>
      </trkpt>
      <trkpt lat="45.5966" lon="5.27805">
        <ele>235</ele>
        <time>2020-05-16T15:23:08.057Z</time>
      </trkpt>
      <trkpt lat="45.59663" lon="5.27798">
        <ele>235</ele>
        <time>2020-05-16T15:23:09.057Z</time>
      </trkpt>
      <trkpt lat="45.59667" lon="5.27791">
        <ele>235</ele>
        <time>2020-05-16T15:23:10.057Z</time>
      </trkpt>
      <trkpt lat="45.5967" lon="5.27785">
        <ele>235</ele>
        <time>2020-05-16T15:23:11.057Z</time>
      </trkpt>
      <trkpt lat="45.59673" lon="5.27778">
        <ele>234</ele>
        <time>2020-05-16T15:23:12.057Z</time>
      </trkpt>
      <trkpt lat="45.59676" lon="5.27772">
        <ele>234</ele>
        <time>2020-05-16T15:23:13.057Z</time>
      </trkpt>
      <trkpt lat="45.59679" lon="5.27765">
        <ele>234</ele>
        <time>2020-05-16T15:23:14.057Z</time>
      </trkpt>
      <trkpt lat="45.59683" lon="5.27758">
        <ele>234</ele>
        <time>2020-05-16T15:23:15.057Z</time>
      </trkpt>
      <trkpt lat="45.59686" lon="5.27752">
        <ele>234</ele>
        <time>2020-05-16T15:23:16.057Z</time>
      </trkpt>
      <trkpt lat="45.59689" lon="5.27745">
        <ele>234</ele>
        <time>2020-05-16T15:23:17.057Z</time>
      </trkpt>
      <trkpt lat="45.59693" lon="5.27739">
        <ele>234</ele>
        <time>2020-05-16T15:23:18.057Z</time>
      </trkpt>
      <trkpt lat="45.59697" lon="5.27732">
        <ele>234</ele>
        <time>2020-05-16T15:23:19.057Z</time>
      </trkpt>
      <trkpt lat="45.597" lon="5.27726">
        <ele>234</ele>
        <time>2020-05-16T15:23:20.057Z</time>
      </trkpt>
      <trkpt lat="45.59704" lon="5.2772">
        <ele>234</ele>
        <time>2020-05-16T15:23:21.057Z</time>
      </trkpt>
      <trkpt lat="45.59708" lon="5.27714">
        <ele>234</ele>
        <time>2020-05-16T15:23:22.057Z</time>
      </trkpt>
      <trkpt lat="45.59711" lon="5.27708">
        <ele>234</ele>
        <time>2020-05-16T15:23:23.057Z</time>
      </trkpt>
      <trkpt lat="45.59715" lon="5.27702">
        <ele>234</ele>
        <time>2020-05-16T15:23:24.057Z</time>
      </trkpt>
      <trkpt lat="45.59719" lon="5.27697">
        <ele>234</ele>
        <time>2020-05-16T15:23:25.057Z</time>
      </trkpt>
      <trkpt lat="45.59723" lon="5.27692">
        <ele>234</ele>
        <time>2020-05-16T15:23:26.057Z</time>
      </trkpt>
      <trkpt lat="45.59728" lon="5.27688">
        <ele>235</ele>
        <time>2020-05-16T15:23:27.057Z</time>
      </trkpt>
      <trkpt lat="45.59732" lon="5.27684">
        <ele>235</ele>
        <time>2020-05-16T15:23:28.057Z</time>
      </trkpt>
      <trkpt lat="45.59735" lon="5.2768">
        <ele>235</ele>
        <time>2020-05-16T15:23:29.057Z</time>
      </trkpt>
      <trkpt lat="45.59738" lon="5.27677">
        <ele>235</ele>
        <time>2020-05-16T15:23:30.057Z</time>
      </trkpt>
      <trkpt lat="45.5974" lon="5.27674">
        <ele>235</ele>
        <time>2020-05-16T15:23:31.057Z</time>
      </trkpt>
      <trkpt lat="45.59741" lon="5.2767">
        <ele>235</ele>
        <time>2020-05-16T15:23:32.057Z</time>
      </trkpt>
      <trkpt lat="45.59741" lon="5.27667">
        <ele>235</ele>
        <time>2020-05-16T15:23:33.057Z</time>
      </trkpt>
      <trkpt lat="45.5974" lon="5.27663">
        <ele>236</ele>
        <time>2020-05-16T15:23:34.057Z</time>
      </trkpt>
      <trkpt lat="45.59738" lon="5.2766">
        <ele>236</ele>
        <time>2020-05-16T15:23:35.057Z</time>
      </trkpt>
      <trkpt lat="45.59737" lon="5.27656">
        <ele>236</ele>
        <time>2020-05-16T15:23:36.057Z</time>
      </trkpt>
      <trkpt lat="45.59736" lon="5.27652">
        <ele>236</ele>
        <time>2020-05-16T15:23:37.057Z</time>
      </trkpt>
      <trkpt lat="45.59735" lon="5.27649">
        <ele>237</ele>
        <time>2020-05-16T15:23:38.057Z</time>
      </trkpt>
      <trkpt lat="45.59734" lon="5.27646">
        <ele>237</ele>
        <time>2020-05-16T15:23:39.057Z</time>
      </trkpt>
      <trkpt lat="45.59733" lon="5.27643">
        <ele>237</ele>
        <time>2020-05-16T15:23:40.057Z</time>
      </trkpt>
      <trkpt lat="45.59732" lon="5.2764">
        <ele>237</ele>
        <time>2020-05-16T15:23:41.057Z</time>
      </trkpt>
      <trkpt lat="45.59733" lon="5.27637">
        <ele>236</ele>
        <time>2020-05-16T15:23:42.057Z</time>
      </trkpt>
      <trkpt lat="45.59735" lon="5.27633">
        <ele>235</ele>
        <time>2020-05-16T15:23:43.057Z</time>
      </trkpt>
      <trkpt lat="45.59737" lon="5.27629">
        <ele>236</ele>
        <time>2020-05-16T15:23:44.057Z</time>
      </trkpt>
      <trkpt lat="45.5974" lon="5.27624">
        <ele>236</ele>
        <time>2020-05-16T15:23:45.057Z</time>
      </trkpt>
      <trkpt lat="45.59744" lon="5.27619">
        <ele>236</ele>
        <time>2020-05-16T15:23:46.057Z</time>
      </trkpt>
      <trkpt lat="45.59747" lon="5.27612">
        <ele>236</ele>
        <time>2020-05-16T15:23:47.057Z</time>
      </trkpt>
      <trkpt lat="45.59749" lon="5.27604">
        <ele>236</ele>
        <time>2020-05-16T15:23:48.057Z</time>
      </trkpt>
      <trkpt lat="45.59752" lon="5.27596">
        <ele>236</ele>
        <time>2020-05-16T15:23:49.057Z</time>
      </trkpt>
      <trkpt lat="45.59755" lon="5.27588">
        <ele>235</ele>
        <time>2020-05-16T15:23:50.057Z</time>
      </trkpt>
      <trkpt lat="45.59758" lon="5.2758">
        <ele>235</ele>
        <time>2020-05-16T15:23:51.057Z</time>
      </trkpt>
      <trkpt lat="45.59761" lon="5.27572">
        <ele>235</ele>
        <time>2020-05-16T15:23:52.057Z</time>
      </trkpt>
      <trkpt lat="45.59764" lon="5.27563">
        <ele>235</ele>
        <time>2020-05-16T15:23:53.057Z</time>
      </trkpt>
      <trkpt lat="45.59767" lon="5.27555">
        <ele>235</ele>
        <time>2020-05-16T15:23:54.057Z</time>
      </trkpt>
      <trkpt lat="45.5977" lon="5.27546">
        <ele>235</ele>
        <time>2020-05-16T15:23:55.057Z</time>
      </trkpt>
      <trkpt lat="45.59773" lon="5.27537">
        <ele>235</ele>
        <time>2020-05-16T15:23:56.057Z</time>
      </trkpt>
      <trkpt lat="45.59776" lon="5.27529">
        <ele>235</ele>
        <time>2020-05-16T15:23:57.057Z</time>
      </trkpt>
      <trkpt lat="45.59779" lon="5.27522">
        <ele>235</ele>
        <time>2020-05-16T15:23:58.057Z</time>
      </trkpt>
      <trkpt lat="45.59781" lon="5.27514">
        <ele>235</ele>
        <time>2020-05-16T15:23:59.057Z</time>
      </trkpt>
      <trkpt lat="45.59784" lon="5.27507">
        <ele>235</ele>
        <time>2020-05-16T15:24:00.057Z</time>
      </trkpt>
      <trkpt lat="45.59786" lon="5.275">
        <ele>235</ele>
        <time>2020-05-16T15:24:01.057Z</time>
      </trkpt>
      <trkpt lat="45.59789" lon="5.27493">
        <ele>235</ele>
        <time>2020-05-16T15:24:02.057Z</time>
      </trkpt>
      <trkpt lat="45.59792" lon="5.27487">
        <ele>235</ele>
        <time>2020-05-16T15:24:03.057Z</time>
      </trkpt>
      <trkpt lat="45.59794" lon="5.2748">
        <ele>235</ele>
        <time>2020-05-16T15:24:04.057Z</time>
      </trkpt>
      <trkpt lat="45.59797" lon="5.27474">
        <ele>235</ele>
        <time>2020-05-16T15:24:05.057Z</time>
      </trkpt>
      <trkpt lat="45.598" lon="5.27468">
        <ele>235</ele>
        <time>2020-05-16T15:24:06.057Z</time>
      </trkpt>
      <trkpt lat="45.59803" lon="5.27461">
        <ele>234</ele>
        <time>2020-05-16T15:24:07.057Z</time>
      </trkpt>
      <trkpt lat="45.59806" lon="5.27455">
        <ele>234</ele>
        <time>2020-05-16T15:24:08.057Z</time>
      </trkpt>
      <trkpt lat="45.5981" lon="5.27448">
        <ele>235</ele>
        <time>2020-05-16T15:24:09.057Z</time>
      </trkpt>
      <trkpt lat="45.59813" lon="5.27442">
        <ele>235</ele>
        <time>2020-05-16T15:24:10.057Z</time>
      </trkpt>
      <trkpt lat="45.59816" lon="5.27435">
        <ele>235</ele>
        <time>2020-05-16T15:24:11.057Z</time>
      </trkpt>
      <trkpt lat="45.59819" lon="5.27429">
        <ele>235</ele>
        <time>2020-05-16T15:24:12.057Z</time>
      </trkpt>
      <trkpt lat="45.59822" lon="5.27423">
        <ele>235</ele>
        <time>2020-05-16T15:24:13.057Z</time>
      </trkpt>
      <trkpt lat="45.59824" lon="5.27417">
        <ele>235</ele>
        <time>2020-05-16T15:24:14.057Z</time>
      </trkpt>
      <trkpt lat="45.59827" lon="5.27411">
        <ele>235</ele>
        <time>2020-05-16T15:24:15.057Z</time>
      </trkpt>
      <trkpt lat="45.59829" lon="5.27405">
        <ele>235</ele>
        <time>2020-05-16T15:24:16.057Z</time>
      </trkpt>
      <trkpt lat="45.59831" lon="5.27398">
        <ele>236</ele>
        <time>2020-05-16T15:24:17.057Z</time>
      </trkpt>
      <trkpt lat="45.59834" lon="5.27392">
        <ele>236</ele>
        <time>2020-05-16T15:24:18.057Z</time>
      </trkpt>
      <trkpt lat="45.59839" lon="5.27388">
        <ele>236</ele>
        <time>2020-05-16T15:24:19.057Z</time>
      </trkpt>
      <trkpt lat="45.59844" lon="5.27386">
        <ele>234</ele>
        <time>2020-05-16T15:24:20.057Z</time>
      </trkpt>
      <trkpt lat="45.5985" lon="5.27387">
        <ele>234</ele>
        <time>2020-05-16T15:24:21.057Z</time>
      </trkpt>
      <trkpt lat="45.59856" lon="5.27389">
        <ele>235</ele>
        <time>2020-05-16T15:24:22.057Z</time>
      </trkpt>
      <trkpt lat="45.5986" lon="5.27392">
        <ele>235</ele>
        <time>2020-05-16T15:24:23.057Z</time>
      </trkpt>
      <trkpt lat="45.59865" lon="5.27394">
        <ele>235</ele>
        <time>2020-05-16T15:24:24.057Z</time>
      </trkpt>
      <trkpt lat="45.59869" lon="5.27397">
        <ele>235</ele>
        <time>2020-05-16T15:24:25.057Z</time>
      </trkpt>
      <trkpt lat="45.59873" lon="5.27399">
        <ele>235</ele>
        <time>2020-05-16T15:24:26.057Z</time>
      </trkpt>
      <trkpt lat="45.59878" lon="5.27402">
        <ele>235</ele>
        <time>2020-05-16T15:24:27.057Z</time>
      </trkpt>
      <trkpt lat="45.59882" lon="5.27405">
        <ele>236</ele>
        <time>2020-05-16T15:24:28.057Z</time>
      </trkpt>
      <trkpt lat="45.59886" lon="5.27407">
        <ele>236</ele>
        <time>2020-05-16T15:24:29.057Z</time>
      </trkpt>
      <trkpt lat="45.5989" lon="5.2741">
        <ele>236</ele>
        <time>2020-05-16T15:24:30.057Z</time>
      </trkpt>
      <trkpt lat="45.59894" lon="5.27412">
        <ele>237</ele>
        <time>2020-05-16T15:24:31.057Z</time>
      </trkpt>
      <trkpt lat="45.59897" lon="5.27413">
        <ele>237</ele>
        <time>2020-05-16T15:24:32.057Z</time>
      </trkpt>
      <trkpt lat="45.599" lon="5.27416">
        <ele>238</ele>
        <time>2020-05-16T15:24:33.057Z</time>
      </trkpt>
      <trkpt lat="45.59904" lon="5.2742">
        <ele>236</ele>
        <time>2020-05-16T15:24:34.057Z</time>
      </trkpt>
      <trkpt lat="45.59909" lon="5.27424">
        <ele>236</ele>
        <time>2020-05-16T15:24:35.057Z</time>
      </trkpt>
      <trkpt lat="45.59915" lon="5.27424">
        <ele>235</ele>
        <time>2020-05-16T15:24:36.057Z</time>
      </trkpt>
      <trkpt lat="45.5992" lon="5.27422">
        <ele>234</ele>
        <time>2020-05-16T15:24:37.057Z</time>
      </trkpt>
      <trkpt lat="45.59922" lon="5.27416">
        <ele>233</ele>
        <time>2020-05-16T15:24:38.057Z</time>
      </trkpt>
      <trkpt lat="45.59923" lon="5.2741">
        <ele>233</ele>
        <time>2020-05-16T15:24:39.057Z</time>
      </trkpt>
      <trkpt lat="45.59923" lon="5.27402">
        <ele>233</ele>
        <time>2020-05-16T15:24:40.057Z</time>
      </trkpt>
      <trkpt lat="45.59923" lon="5.27394">
        <ele>233</ele>
        <time>2020-05-16T15:24:41.057Z</time>
      </trkpt>
      <trkpt lat="45.59924" lon="5.27386">
        <ele>232</ele>
        <time>2020-05-16T15:24:42.057Z</time>
      </trkpt>
      <trkpt lat="45.59926" lon="5.27379">
        <ele>231</ele>
        <time>2020-05-16T15:24:43.057Z</time>
      </trkpt>
      <trkpt lat="45.59931" lon="5.27373">
        <ele>231</ele>
        <time>2020-05-16T15:24:44.057Z</time>
      </trkpt>
      <trkpt lat="45.59936" lon="5.27367">
        <ele>233</ele>
        <time>2020-05-16T15:24:45.057Z</time>
      </trkpt>
      <trkpt lat="45.59941" lon="5.27361">
        <ele>233</ele>
        <time>2020-05-16T15:24:46.057Z</time>
      </trkpt>
      <trkpt lat="45.59946" lon="5.27355">
        <ele>234</ele>
        <time>2020-05-16T15:24:47.057Z</time>
      </trkpt>
      <trkpt lat="45.59952" lon="5.2735">
        <ele>234</ele>
        <time>2020-05-16T15:24:48.057Z</time>
      </trkpt>
      <trkpt lat="45.59957" lon="5.27344">
        <ele>234</ele>
        <time>2020-05-16T15:24:49.057Z</time>
      </trkpt>
      <trkpt lat="45.59963" lon="5.27339">
        <ele>233</ele>
        <time>2020-05-16T15:24:50.057Z</time>
      </trkpt>
      <trkpt lat="45.59969" lon="5.27334">
        <ele>233</ele>
        <time>2020-05-16T15:24:51.057Z</time>
      </trkpt>
      <trkpt lat="45.59974" lon="5.2733">
        <ele>233</ele>
        <time>2020-05-16T15:24:52.057Z</time>
      </trkpt>
      <trkpt lat="45.5998" lon="5.27326">
        <ele>233</ele>
        <time>2020-05-16T15:24:53.057Z</time>
      </trkpt>
      <trkpt lat="45.59986" lon="5.27322">
        <ele>233</ele>
        <time>2020-05-16T15:24:54.057Z</time>
      </trkpt>
      <trkpt lat="45.59992" lon="5.27319">
        <ele>233</ele>
        <time>2020-05-16T15:24:55.057Z</time>
      </trkpt>
      <trkpt lat="45.59998" lon="5.27316">
        <ele>233</ele>
        <time>2020-05-16T15:24:56.057Z</time>
      </trkpt>
      <trkpt lat="45.60003" lon="5.27313">
        <ele>233</ele>
        <time>2020-05-16T15:24:57.057Z</time>
      </trkpt>
      <trkpt lat="45.60009" lon="5.2731">
        <ele>233</ele>
        <time>2020-05-16T15:24:58.057Z</time>
      </trkpt>
      <trkpt lat="45.60014" lon="5.27307">
        <ele>233</ele>
        <time>2020-05-16T15:24:59.057Z</time>
      </trkpt>
      <trkpt lat="45.60019" lon="5.27305">
        <ele>233</ele>
        <time>2020-05-16T15:25:00.057Z</time>
      </trkpt>
      <trkpt lat="45.60024" lon="5.27305">
        <ele>232</ele>
        <time>2020-05-16T15:25:01.057Z</time>
      </trkpt>
      <trkpt lat="45.6003" lon="5.27307">
        <ele>232</ele>
        <time>2020-05-16T15:25:02.057Z</time>
      </trkpt>
      <trkpt lat="45.60036" lon="5.27309">
        <ele>232</ele>
        <time>2020-05-16T15:25:03.057Z</time>
      </trkpt>
      <trkpt lat="45.60041" lon="5.27311">
        <ele>233</ele>
        <time>2020-05-16T15:25:04.057Z</time>
      </trkpt>
      <trkpt lat="45.60046" lon="5.27311">
        <ele>233</ele>
        <time>2020-05-16T15:25:05.057Z</time>
      </trkpt>
      <trkpt lat="45.60052" lon="5.27311">
        <ele>233</ele>
        <time>2020-05-16T15:25:06.057Z</time>
      </trkpt>
      <trkpt lat="45.60057" lon="5.2731">
        <ele>234</ele>
        <time>2020-05-16T15:25:07.057Z</time>
      </trkpt>
      <trkpt lat="45.60063" lon="5.2731">
        <ele>234</ele>
        <time>2020-05-16T15:25:08.057Z</time>
      </trkpt>
      <trkpt lat="45.60068" lon="5.27309">
        <ele>234</ele>
        <time>2020-05-16T15:25:09.057Z</time>
      </trkpt>
      <trkpt lat="45.60074" lon="5.27309">
        <ele>235</ele>
        <time>2020-05-16T15:25:10.057Z</time>
      </trkpt>
      <trkpt lat="45.6008" lon="5.27308">
        <ele>235</ele>
        <time>2020-05-16T15:25:11.057Z</time>
      </trkpt>
      <trkpt lat="45.60086" lon="5.27308">
        <ele>235</ele>
        <time>2020-05-16T15:25:12.057Z</time>
      </trkpt>
      <trkpt lat="45.60092" lon="5.27307">
        <ele>234</ele>
        <time>2020-05-16T15:25:13.057Z</time>
      </trkpt>
      <trkpt lat="45.60098" lon="5.27306">
        <ele>234</ele>
        <time>2020-05-16T15:25:14.057Z</time>
      </trkpt>
      <trkpt lat="45.60104" lon="5.27305">
        <ele>234</ele>
        <time>2020-05-16T15:25:15.057Z</time>
      </trkpt>
      <trkpt lat="45.6011" lon="5.27305">
        <ele>234</ele>
        <time>2020-05-16T15:25:16.057Z</time>
      </trkpt>
      <trkpt lat="45.60116" lon="5.27304">
        <ele>234</ele>
        <time>2020-05-16T15:25:17.057Z</time>
      </trkpt>
      <trkpt lat="45.60122" lon="5.27303">
        <ele>234</ele>
        <time>2020-05-16T15:25:18.057Z</time>
      </trkpt>
      <trkpt lat="45.60129" lon="5.27303">
        <ele>234</ele>
        <time>2020-05-16T15:25:19.057Z</time>
      </trkpt>
      <trkpt lat="45.60135" lon="5.27302">
        <ele>234</ele>
        <time>2020-05-16T15:25:20.057Z</time>
      </trkpt>
      <trkpt lat="45.60141" lon="5.27301">
        <ele>234</ele>
        <time>2020-05-16T15:25:21.057Z</time>
      </trkpt>
      <trkpt lat="45.60148" lon="5.273">
        <ele>234</ele>
        <time>2020-05-16T15:25:22.057Z</time>
      </trkpt>
      <trkpt lat="45.60154" lon="5.27299">
        <ele>235</ele>
        <time>2020-05-16T15:25:23.057Z</time>
      </trkpt>
      <trkpt lat="45.60161" lon="5.27298">
        <ele>235</ele>
        <time>2020-05-16T15:25:24.057Z</time>
      </trkpt>
      <trkpt lat="45.60167" lon="5.27297">
        <ele>234</ele>
        <time>2020-05-16T15:25:25.057Z</time>
      </trkpt>
      <trkpt lat="45.60173" lon="5.27296">
        <ele>234</ele>
        <time>2020-05-16T15:25:26.057Z</time>
      </trkpt>
      <trkpt lat="45.60179" lon="5.27296">
        <ele>234</ele>
        <time>2020-05-16T15:25:27.057Z</time>
      </trkpt>
      <trkpt lat="45.60184" lon="5.27295">
        <ele>234</ele>
        <time>2020-05-16T15:25:28.057Z</time>
      </trkpt>
      <trkpt lat="45.6019" lon="5.27295">
        <ele>235</ele>
        <time>2020-05-16T15:25:29.057Z</time>
      </trkpt>
      <trkpt lat="45.60195" lon="5.27295">
        <ele>235</ele>
        <time>2020-05-16T15:25:30.057Z</time>
      </trkpt>
      <trkpt lat="45.60199" lon="5.27295">
        <ele>234</ele>
        <time>2020-05-16T15:25:31.057Z</time>
      </trkpt>
      <trkpt lat="45.60204" lon="5.27294">
        <ele>234</ele>
        <time>2020-05-16T15:25:32.057Z</time>
      </trkpt>
      <trkpt lat="45.60209" lon="5.27293">
        <ele>233</ele>
        <time>2020-05-16T15:25:33.057Z</time>
      </trkpt>
      <trkpt lat="45.60214" lon="5.27292">
        <ele>233</ele>
        <time>2020-05-16T15:25:34.057Z</time>
      </trkpt>
      <trkpt lat="45.60219" lon="5.27292">
        <ele>233</ele>
        <time>2020-05-16T15:25:35.057Z</time>
      </trkpt>
      <trkpt lat="45.60224" lon="5.27291">
        <ele>233</ele>
        <time>2020-05-16T15:25:36.057Z</time>
      </trkpt>
      <trkpt lat="45.6023" lon="5.27291">
        <ele>234</ele>
        <time>2020-05-16T15:25:37.057Z</time>
      </trkpt>
      <trkpt lat="45.60236" lon="5.27289">
        <ele>235</ele>
        <time>2020-05-16T15:25:38.057Z</time>
      </trkpt>
      <trkpt lat="45.60241" lon="5.27287">
        <ele>236</ele>
        <time>2020-05-16T15:25:39.057Z</time>
      </trkpt>
      <trkpt lat="45.60247" lon="5.27284">
        <ele>236</ele>
        <time>2020-05-16T15:25:40.057Z</time>
      </trkpt>
      <trkpt lat="45.60253" lon="5.27281">
        <ele>235</ele>
        <time>2020-05-16T15:25:41.057Z</time>
      </trkpt>
      <trkpt lat="45.60259" lon="5.27279">
        <ele>235</ele>
        <time>2020-05-16T15:25:42.057Z</time>
      </trkpt>
      <trkpt lat="45.60264" lon="5.27276">
        <ele>235</ele>
        <time>2020-05-16T15:25:43.057Z</time>
      </trkpt>
      <trkpt lat="45.60269" lon="5.27274">
        <ele>234</ele>
        <time>2020-05-16T15:25:44.057Z</time>
      </trkpt>
      <trkpt lat="45.60274" lon="5.27271">
        <ele>234</ele>
        <time>2020-05-16T15:25:45.057Z</time>
      </trkpt>
      <trkpt lat="45.60279" lon="5.27269">
        <ele>234</ele>
        <time>2020-05-16T15:25:46.057Z</time>
      </trkpt>
      <trkpt lat="45.60284" lon="5.27267">
        <ele>234</ele>
        <time>2020-05-16T15:25:47.057Z</time>
      </trkpt>
      <trkpt lat="45.60289" lon="5.27265">
        <ele>234</ele>
        <time>2020-05-16T15:25:48.057Z</time>
      </trkpt>
      <trkpt lat="45.60294" lon="5.27263">
        <ele>234</ele>
        <time>2020-05-16T15:25:49.057Z</time>
      </trkpt>
      <trkpt lat="45.60299" lon="5.27261">
        <ele>234</ele>
        <time>2020-05-16T15:25:50.057Z</time>
      </trkpt>
      <trkpt lat="45.60304" lon="5.27259">
        <ele>235</ele>
        <time>2020-05-16T15:25:51.057Z</time>
      </trkpt>
      <trkpt lat="45.60309" lon="5.27258">
        <ele>234</ele>
        <time>2020-05-16T15:25:52.057Z</time>
      </trkpt>
      <trkpt lat="45.60314" lon="5.27256">
        <ele>234</ele>
        <time>2020-05-16T15:25:53.057Z</time>
      </trkpt>
      <trkpt lat="45.60319" lon="5.27254">
        <ele>234</ele>
        <time>2020-05-16T15:25:54.057Z</time>
      </trkpt>
      <trkpt lat="45.60325" lon="5.27252">
        <ele>234</ele>
        <time>2020-05-16T15:25:55.057Z</time>
      </trkpt>
      <trkpt lat="45.6033" lon="5.2725">
        <ele>234</ele>
        <time>2020-05-16T15:25:56.057Z</time>
      </trkpt>
      <trkpt lat="45.60335" lon="5.27248">
        <ele>234</ele>
        <time>2020-05-16T15:25:57.057Z</time>
      </trkpt>
      <trkpt lat="45.60341" lon="5.27246">
        <ele>234</ele>
        <time>2020-05-16T15:25:58.057Z</time>
      </trkpt>
      <trkpt lat="45.60346" lon="5.27244">
        <ele>234</ele>
        <time>2020-05-16T15:25:59.057Z</time>
      </trkpt>
      <trkpt lat="45.60351" lon="5.27242">
        <ele>234</ele>
        <time>2020-05-16T15:26:00.057Z</time>
      </trkpt>
      <trkpt lat="45.60356" lon="5.2724">
        <ele>234</ele>
        <time>2020-05-16T15:26:01.057Z</time>
      </trkpt>
      <trkpt lat="45.60361" lon="5.27238">
        <ele>234</ele>
        <time>2020-05-16T15:26:02.057Z</time>
      </trkpt>
      <trkpt lat="45.60366" lon="5.27236">
        <ele>233</ele>
        <time>2020-05-16T15:26:03.057Z</time>
      </trkpt>
      <trkpt lat="45.60371" lon="5.27235">
        <ele>233</ele>
        <time>2020-05-16T15:26:04.057Z</time>
      </trkpt>
      <trkpt lat="45.60376" lon="5.27233">
        <ele>233</ele>
        <time>2020-05-16T15:26:05.057Z</time>
      </trkpt>
      <trkpt lat="45.60381" lon="5.27232">
        <ele>232</ele>
        <time>2020-05-16T15:26:06.057Z</time>
      </trkpt>
      <trkpt lat="45.60386" lon="5.2723">
        <ele>232</ele>
        <time>2020-05-16T15:26:07.057Z</time>
      </trkpt>
      <trkpt lat="45.60391" lon="5.27229">
        <ele>232</ele>
        <time>2020-05-16T15:26:08.057Z</time>
      </trkpt>
      <trkpt lat="45.60396" lon="5.27228">
        <ele>231</ele>
        <time>2020-05-16T15:26:09.057Z</time>
      </trkpt>
      <trkpt lat="45.60401" lon="5.27227">
        <ele>232</ele>
        <time>2020-05-16T15:26:10.057Z</time>
      </trkpt>
      <trkpt lat="45.60405" lon="5.27227">
        <ele>232</ele>
        <time>2020-05-16T15:26:11.057Z</time>
      </trkpt>
      <trkpt lat="45.6041" lon="5.27226">
        <ele>232</ele>
        <time>2020-05-16T15:26:12.057Z</time>
      </trkpt>
      <trkpt lat="45.60415" lon="5.27225">
        <ele>232</ele>
        <time>2020-05-16T15:26:13.057Z</time>
      </trkpt>
      <trkpt lat="45.60419" lon="5.27224">
        <ele>232</ele>
        <time>2020-05-16T15:26:14.057Z</time>
      </trkpt>
      <trkpt lat="45.60423" lon="5.27223">
        <ele>231</ele>
        <time>2020-05-16T15:26:15.057Z</time>
      </trkpt>
      <trkpt lat="45.60427" lon="5.27223">
        <ele>232</ele>
        <time>2020-05-16T15:26:16.057Z</time>
      </trkpt>
      <trkpt lat="45.60431" lon="5.27223">
        <ele>232</ele>
        <time>2020-05-16T15:26:17.057Z</time>
      </trkpt>
      <trkpt lat="45.60434" lon="5.27223">
        <ele>231</ele>
        <time>2020-05-16T15:26:18.057Z</time>
      </trkpt>
      <trkpt lat="45.60438" lon="5.27223">
        <ele>232</ele>
        <time>2020-05-16T15:26:19.057Z</time>
      </trkpt>
      <trkpt lat="45.60442" lon="5.27224">
        <ele>232</ele>
        <time>2020-05-16T15:26:20.057Z</time>
      </trkpt>
      <trkpt lat="45.60447" lon="5.27224">
        <ele>232</ele>
        <time>2020-05-16T15:26:21.057Z</time>
      </trkpt>
      <trkpt lat="45.60452" lon="5.27224">
        <ele>232</ele>
        <time>2020-05-16T15:26:22.057Z</time>
      </trkpt>
      <trkpt lat="45.60458" lon="5.27225">
        <ele>232</ele>
        <time>2020-05-16T15:26:23.057Z</time>
      </trkpt>
      <trkpt lat="45.60463" lon="5.27225">
        <ele>232</ele>
        <time>2020-05-16T15:26:24.057Z</time>
      </trkpt>
      <trkpt lat="45.60468" lon="5.27225">
        <ele>231</ele>
        <time>2020-05-16T15:26:25.057Z</time>
      </trkpt>
      <trkpt lat="45.60474" lon="5.27225">
        <ele>231</ele>
        <time>2020-05-16T15:26:26.057Z</time>
      </trkpt>
      <trkpt lat="45.60478" lon="5.27225">
        <ele>231</ele>
        <time>2020-05-16T15:26:27.057Z</time>
      </trkpt>
      <trkpt lat="45.60483" lon="5.27225">
        <ele>232</ele>
        <time>2020-05-16T15:26:28.057Z</time>
      </trkpt>
      <trkpt lat="45.60488" lon="5.27225">
        <ele>232</ele>
        <time>2020-05-16T15:26:29.057Z</time>
      </trkpt>
      <trkpt lat="45.60492" lon="5.27225">
        <ele>232</ele>
        <time>2020-05-16T15:26:30.057Z</time>
      </trkpt>
      <trkpt lat="45.60496" lon="5.27225">
        <ele>232</ele>
        <time>2020-05-16T15:26:31.057Z</time>
      </trkpt>
      <trkpt lat="45.605" lon="5.27225">
        <ele>232</ele>
        <time>2020-05-16T15:26:32.057Z</time>
      </trkpt>
      <trkpt lat="45.60504" lon="5.27225">
        <ele>233</ele>
        <time>2020-05-16T15:26:33.057Z</time>
      </trkpt>
      <trkpt lat="45.60509" lon="5.27225">
        <ele>234</ele>
        <time>2020-05-16T15:26:34.057Z</time>
      </trkpt>
      <trkpt lat="45.60513" lon="5.27224">
        <ele>234</ele>
        <time>2020-05-16T15:26:35.057Z</time>
      </trkpt>
      <trkpt lat="45.60518" lon="5.27225">
        <ele>234</ele>
        <time>2020-05-16T15:26:36.057Z</time>
      </trkpt>
      <trkpt lat="45.60523" lon="5.27225">
        <ele>234</ele>
        <time>2020-05-16T15:26:37.057Z</time>
      </trkpt>
      <trkpt lat="45.60527" lon="5.27225">
        <ele>234</ele>
        <time>2020-05-16T15:26:38.057Z</time>
      </trkpt>
      <trkpt lat="45.60532" lon="5.27225">
        <ele>235</ele>
        <time>2020-05-16T15:26:39.057Z</time>
      </trkpt>
      <trkpt lat="45.60536" lon="5.27225">
        <ele>235</ele>
        <time>2020-05-16T15:26:40.057Z</time>
      </trkpt>
      <trkpt lat="45.6054" lon="5.27224">
        <ele>234</ele>
        <time>2020-05-16T15:26:41.057Z</time>
      </trkpt>
      <trkpt lat="45.60544" lon="5.27224">
        <ele>234</ele>
        <time>2020-05-16T15:26:42.057Z</time>
      </trkpt>
      <trkpt lat="45.60549" lon="5.27224">
        <ele>234</ele>
        <time>2020-05-16T15:26:43.057Z</time>
      </trkpt>
      <trkpt lat="45.60553" lon="5.27224">
        <ele>234</ele>
        <time>2020-05-16T15:26:44.057Z</time>
      </trkpt>
      <trkpt lat="45.60557" lon="5.27224">
        <ele>234</ele>
        <time>2020-05-16T15:26:45.057Z</time>
      </trkpt>
      <trkpt lat="45.60561" lon="5.27223">
        <ele>234</ele>
        <time>2020-05-16T15:26:46.057Z</time>
      </trkpt>
      <trkpt lat="45.60564" lon="5.27223">
        <ele>234</ele>
        <time>2020-05-16T15:26:47.057Z</time>
      </trkpt>
      <trkpt lat="45.60568" lon="5.27223">
        <ele>234</ele>
        <time>2020-05-16T15:26:48.057Z</time>
      </trkpt>
      <trkpt lat="45.60571" lon="5.27223">
        <ele>235</ele>
        <time>2020-05-16T15:26:49.057Z</time>
      </trkpt>
      <trkpt lat="45.60574" lon="5.27223">
        <ele>235</ele>
        <time>2020-05-16T15:26:50.057Z</time>
      </trkpt>
      <trkpt lat="45.60577" lon="5.27223">
        <ele>235</ele>
        <time>2020-05-16T15:26:51.057Z</time>
      </trkpt>
      <trkpt lat="45.6058" lon="5.27223">
        <ele>235</ele>
        <time>2020-05-16T15:26:52.057Z</time>
      </trkpt>
      <trkpt lat="45.60584" lon="5.27223">
        <ele>235</ele>
        <time>2020-05-16T15:26:53.057Z</time>
      </trkpt>
      <trkpt lat="45.60587" lon="5.27223">
        <ele>236</ele>
        <time>2020-05-16T15:26:54.057Z</time>
      </trkpt>
      <trkpt lat="45.6059" lon="5.27223">
        <ele>236</ele>
        <time>2020-05-16T15:26:55.057Z</time>
      </trkpt>
      <trkpt lat="45.60594" lon="5.27223">
        <ele>236</ele>
        <time>2020-05-16T15:26:56.057Z</time>
      </trkpt>
      <trkpt lat="45.60597" lon="5.27223">
        <ele>236</ele>
        <time>2020-05-16T15:26:57.057Z</time>
      </trkpt>
      <trkpt lat="45.60601" lon="5.27222">
        <ele>236</ele>
        <time>2020-05-16T15:26:58.057Z</time>
      </trkpt>
      <trkpt lat="45.60604" lon="5.27222">
        <ele>236</ele>
        <time>2020-05-16T15:26:59.057Z</time>
      </trkpt>
      <trkpt lat="45.60608" lon="5.27221">
        <ele>236</ele>
        <time>2020-05-16T15:27:00.057Z</time>
      </trkpt>
      <trkpt lat="45.60611" lon="5.27221">
        <ele>236</ele>
        <time>2020-05-16T15:27:01.057Z</time>
      </trkpt>
      <trkpt lat="45.60615" lon="5.27221">
        <ele>236</ele>
        <time>2020-05-16T15:27:02.057Z</time>
      </trkpt>
      <trkpt lat="45.60619" lon="5.2722">
        <ele>236</ele>
        <time>2020-05-16T15:27:03.057Z</time>
      </trkpt>
      <trkpt lat="45.60622" lon="5.2722">
        <ele>236</ele>
        <time>2020-05-16T15:27:04.057Z</time>
      </trkpt>
      <trkpt lat="45.60626" lon="5.2722">
        <ele>237</ele>
        <time>2020-05-16T15:27:05.057Z</time>
      </trkpt>
      <trkpt lat="45.6063" lon="5.2722">
        <ele>237</ele>
        <time>2020-05-16T15:27:06.057Z</time>
      </trkpt>
      <trkpt lat="45.60634" lon="5.2722">
        <ele>237</ele>
        <time>2020-05-16T15:27:07.057Z</time>
      </trkpt>
      <trkpt lat="45.60638" lon="5.2722">
        <ele>237</ele>
        <time>2020-05-16T15:27:08.057Z</time>
      </trkpt>
      <trkpt lat="45.60641" lon="5.2722">
        <ele>237</ele>
        <time>2020-05-16T15:27:09.057Z</time>
      </trkpt>
      <trkpt lat="45.60645" lon="5.27219">
        <ele>237</ele>
        <time>2020-05-16T15:27:10.057Z</time>
      </trkpt>
      <trkpt lat="45.60649" lon="5.27219">
        <ele>238</ele>
        <time>2020-05-16T15:27:11.057Z</time>
      </trkpt>
      <trkpt lat="45.60653" lon="5.2722">
        <ele>238</ele>
        <time>2020-05-16T15:27:12.057Z</time>
      </trkpt>
      <trkpt lat="45.60656" lon="5.27221">
        <ele>238</ele>
        <time>2020-05-16T15:27:13.057Z</time>
      </trkpt>
      <trkpt lat="45.6066" lon="5.27222">
        <ele>238</ele>
        <time>2020-05-16T15:27:14.057Z</time>
      </trkpt>
      <trkpt lat="45.60664" lon="5.27223">
        <ele>238</ele>
        <time>2020-05-16T15:27:15.057Z</time>
      </trkpt>
      <trkpt lat="45.60667" lon="5.27224">
        <ele>238</ele>
        <time>2020-05-16T15:27:16.057Z</time>
      </trkpt>
      <trkpt lat="45.60671" lon="5.27224">
        <ele>239</ele>
        <time>2020-05-16T15:27:17.057Z</time>
      </trkpt>
      <trkpt lat="45.60674" lon="5.27225">
        <ele>239</ele>
        <time>2020-05-16T15:27:18.057Z</time>
      </trkpt>
      <trkpt lat="45.60678" lon="5.27225">
        <ele>239</ele>
        <time>2020-05-16T15:27:19.057Z</time>
      </trkpt>
      <trkpt lat="45.60682" lon="5.27225">
        <ele>239</ele>
        <time>2020-05-16T15:27:20.057Z</time>
      </trkpt>
      <trkpt lat="45.60685" lon="5.27225">
        <ele>239</ele>
        <time>2020-05-16T15:27:21.057Z</time>
      </trkpt>
      <trkpt lat="45.60689" lon="5.27226">
        <ele>239</ele>
        <time>2020-05-16T15:27:22.057Z</time>
      </trkpt>
      <trkpt lat="45.60692" lon="5.27226">
        <ele>239</ele>
        <time>2020-05-16T15:27:23.057Z</time>
      </trkpt>
      <trkpt lat="45.60696" lon="5.27226">
        <ele>239</ele>
        <time>2020-05-16T15:27:24.057Z</time>
      </trkpt>
      <trkpt lat="45.607" lon="5.27226">
        <ele>239</ele>
        <time>2020-05-16T15:27:25.057Z</time>
      </trkpt>
      <trkpt lat="45.60704" lon="5.27226">
        <ele>239</ele>
        <time>2020-05-16T15:27:26.057Z</time>
      </trkpt>
      <trkpt lat="45.60708" lon="5.27226">
        <ele>239</ele>
        <time>2020-05-16T15:27:27.057Z</time>
      </trkpt>
      <trkpt lat="45.60713" lon="5.27226">
        <ele>239</ele>
        <time>2020-05-16T15:27:28.057Z</time>
      </trkpt>
      <trkpt lat="45.60718" lon="5.27226">
        <ele>239</ele>
        <time>2020-05-16T15:27:29.057Z</time>
      </trkpt>
      <trkpt lat="45.60723" lon="5.27226">
        <ele>239</ele>
        <time>2020-05-16T15:27:30.057Z</time>
      </trkpt>
      <trkpt lat="45.60727" lon="5.27226">
        <ele>239</ele>
        <time>2020-05-16T15:27:31.057Z</time>
      </trkpt>
      <trkpt lat="45.60732" lon="5.27226">
        <ele>239</ele>
        <time>2020-05-16T15:27:32.057Z</time>
      </trkpt>
      <trkpt lat="45.60737" lon="5.27226">
        <ele>239</ele>
        <time>2020-05-16T15:27:33.057Z</time>
      </trkpt>
      <trkpt lat="45.60741" lon="5.27226">
        <ele>239</ele>
        <time>2020-05-16T15:27:34.057Z</time>
      </trkpt>
      <trkpt lat="45.60746" lon="5.27225">
        <ele>239</ele>
        <time>2020-05-16T15:27:35.057Z</time>
      </trkpt>
      <trkpt lat="45.6075" lon="5.27225">
        <ele>239</ele>
        <time>2020-05-16T15:27:36.057Z</time>
      </trkpt>
      <trkpt lat="45.60755" lon="5.27225">
        <ele>238</ele>
        <time>2020-05-16T15:27:37.057Z</time>
      </trkpt>
      <trkpt lat="45.60759" lon="5.27225">
        <ele>238</ele>
        <time>2020-05-16T15:27:38.057Z</time>
      </trkpt>
      <trkpt lat="45.60764" lon="5.27225">
        <ele>238</ele>
        <time>2020-05-16T15:27:39.057Z</time>
      </trkpt>
      <trkpt lat="45.60769" lon="5.27225">
        <ele>238</ele>
        <time>2020-05-16T15:27:40.057Z</time>
      </trkpt>
      <trkpt lat="45.60773" lon="5.27225">
        <ele>238</ele>
        <time>2020-05-16T15:27:41.057Z</time>
      </trkpt>
      <trkpt lat="45.60778" lon="5.27225">
        <ele>238</ele>
        <time>2020-05-16T15:27:42.057Z</time>
      </trkpt>
      <trkpt lat="45.60784" lon="5.27225">
        <ele>238</ele>
        <time>2020-05-16T15:27:43.057Z</time>
      </trkpt>
      <trkpt lat="45.60789" lon="5.27226">
        <ele>238</ele>
        <time>2020-05-16T15:27:44.057Z</time>
      </trkpt>
      <trkpt lat="45.60794" lon="5.27226">
        <ele>238</ele>
        <time>2020-05-16T15:27:45.057Z</time>
      </trkpt>
      <trkpt lat="45.60799" lon="5.27226">
        <ele>238</ele>
        <time>2020-05-16T15:27:46.057Z</time>
      </trkpt>
      <trkpt lat="45.60804" lon="5.27227">
        <ele>238</ele>
        <time>2020-05-16T15:27:47.057Z</time>
      </trkpt>
      <trkpt lat="45.60809" lon="5.27228">
        <ele>238</ele>
        <time>2020-05-16T15:27:48.057Z</time>
      </trkpt>
      <trkpt lat="45.60815" lon="5.2723">
        <ele>237</ele>
        <time>2020-05-16T15:27:49.057Z</time>
      </trkpt>
      <trkpt lat="45.60821" lon="5.27232">
        <ele>237</ele>
        <time>2020-05-16T15:27:50.057Z</time>
      </trkpt>
      <trkpt lat="45.60827" lon="5.27235">
        <ele>236</ele>
        <time>2020-05-16T15:27:51.057Z</time>
      </trkpt>
      <trkpt lat="45.60832" lon="5.27237">
        <ele>236</ele>
        <time>2020-05-16T15:27:52.057Z</time>
      </trkpt>
      <trkpt lat="45.60838" lon="5.2724">
        <ele>236</ele>
        <time>2020-05-16T15:27:53.057Z</time>
      </trkpt>
      <trkpt lat="45.60844" lon="5.27243">
        <ele>236</ele>
        <time>2020-05-16T15:27:54.057Z</time>
      </trkpt>
      <trkpt lat="45.6085" lon="5.27245">
        <ele>236</ele>
        <time>2020-05-16T15:27:55.057Z</time>
      </trkpt>
      <trkpt lat="45.60857" lon="5.27249">
        <ele>235</ele>
        <time>2020-05-16T15:27:56.057Z</time>
      </trkpt>
      <trkpt lat="45.60863" lon="5.27252">
        <ele>235</ele>
        <time>2020-05-16T15:27:57.057Z</time>
      </trkpt>
      <trkpt lat="45.6087" lon="5.27255">
        <ele>234</ele>
        <time>2020-05-16T15:27:58.057Z</time>
      </trkpt>
      <trkpt lat="45.60877" lon="5.27259">
        <ele>234</ele>
        <time>2020-05-16T15:27:59.057Z</time>
      </trkpt>
      <trkpt lat="45.60884" lon="5.27262">
        <ele>234</ele>
        <time>2020-05-16T15:28:00.057Z</time>
      </trkpt>
      <trkpt lat="45.60891" lon="5.27265">
        <ele>234</ele>
        <time>2020-05-16T15:28:01.057Z</time>
      </trkpt>
      <trkpt lat="45.60898" lon="5.27269">
        <ele>234</ele>
        <time>2020-05-16T15:28:02.057Z</time>
      </trkpt>
      <trkpt lat="45.60905" lon="5.27272">
        <ele>233</ele>
        <time>2020-05-16T15:28:03.057Z</time>
      </trkpt>
      <trkpt lat="45.60912" lon="5.27276">
        <ele>233</ele>
        <time>2020-05-16T15:28:04.057Z</time>
      </trkpt>
      <trkpt lat="45.6092" lon="5.27279">
        <ele>233</ele>
        <time>2020-05-16T15:28:05.057Z</time>
      </trkpt>
      <trkpt lat="45.60927" lon="5.27282">
        <ele>233</ele>
        <time>2020-05-16T15:28:06.057Z</time>
      </trkpt>
      <trkpt lat="45.60935" lon="5.27286">
        <ele>232</ele>
        <time>2020-05-16T15:28:07.057Z</time>
      </trkpt>
      <trkpt lat="45.60942" lon="5.2729">
        <ele>232</ele>
        <time>2020-05-16T15:28:08.057Z</time>
      </trkpt>
      <trkpt lat="45.6095" lon="5.27294">
        <ele>231</ele>
        <time>2020-05-16T15:28:09.057Z</time>
      </trkpt>
      <trkpt lat="45.60957" lon="5.27298">
        <ele>230</ele>
        <time>2020-05-16T15:28:10.057Z</time>
      </trkpt>
      <trkpt lat="45.60965" lon="5.27301">
        <ele>230</ele>
        <time>2020-05-16T15:28:11.057Z</time>
      </trkpt>
      <trkpt lat="45.60973" lon="5.27305">
        <ele>229</ele>
        <time>2020-05-16T15:28:12.057Z</time>
      </trkpt>
      <trkpt lat="45.6098" lon="5.27309">
        <ele>229</ele>
        <time>2020-05-16T15:28:13.057Z</time>
      </trkpt>
      <trkpt lat="45.60987" lon="5.27312">
        <ele>229</ele>
        <time>2020-05-16T15:28:14.057Z</time>
      </trkpt>
      <trkpt lat="45.60994" lon="5.27316">
        <ele>228</ele>
        <time>2020-05-16T15:28:15.057Z</time>
      </trkpt>
      <trkpt lat="45.61001" lon="5.27319">
        <ele>228</ele>
        <time>2020-05-16T15:28:16.057Z</time>
      </trkpt>
      <trkpt lat="45.61008" lon="5.27322">
        <ele>228</ele>
        <time>2020-05-16T15:28:17.057Z</time>
      </trkpt>
      <trkpt lat="45.61015" lon="5.27326">
        <ele>228</ele>
        <time>2020-05-16T15:28:18.057Z</time>
      </trkpt>
      <trkpt lat="45.61022" lon="5.27329">
        <ele>228</ele>
        <time>2020-05-16T15:28:19.057Z</time>
      </trkpt>
      <trkpt lat="45.61028" lon="5.27333">
        <ele>228</ele>
        <time>2020-05-16T15:28:20.057Z</time>
      </trkpt>
      <trkpt lat="45.61035" lon="5.27336">
        <ele>228</ele>
        <time>2020-05-16T15:28:21.057Z</time>
      </trkpt>
      <trkpt lat="45.61041" lon="5.2734">
        <ele>228</ele>
        <time>2020-05-16T15:28:22.057Z</time>
      </trkpt>
      <trkpt lat="45.61048" lon="5.27343">
        <ele>228</ele>
        <time>2020-05-16T15:28:23.057Z</time>
      </trkpt>
      <trkpt lat="45.61055" lon="5.27347">
        <ele>228</ele>
        <time>2020-05-16T15:28:24.057Z</time>
      </trkpt>
      <trkpt lat="45.61062" lon="5.2735">
        <ele>228</ele>
        <time>2020-05-16T15:28:25.057Z</time>
      </trkpt>
      <trkpt lat="45.61068" lon="5.27354">
        <ele>228</ele>
        <time>2020-05-16T15:28:26.057Z</time>
      </trkpt>
      <trkpt lat="45.61075" lon="5.27357">
        <ele>228</ele>
        <time>2020-05-16T15:28:27.057Z</time>
      </trkpt>
      <trkpt lat="45.61082" lon="5.2736">
        <ele>228</ele>
        <time>2020-05-16T15:28:28.057Z</time>
      </trkpt>
      <trkpt lat="45.61088" lon="5.27364">
        <ele>228</ele>
        <time>2020-05-16T15:28:29.057Z</time>
      </trkpt>
      <trkpt lat="45.61095" lon="5.27367">
        <ele>228</ele>
        <time>2020-05-16T15:28:30.057Z</time>
      </trkpt>
      <trkpt lat="45.61101" lon="5.2737">
        <ele>228</ele>
        <time>2020-05-16T15:28:31.057Z</time>
      </trkpt>
      <trkpt lat="45.61108" lon="5.27373">
        <ele>228</ele>
        <time>2020-05-16T15:28:32.057Z</time>
      </trkpt>
      <trkpt lat="45.61115" lon="5.27377">
        <ele>228</ele>
        <time>2020-05-16T15:28:33.057Z</time>
      </trkpt>
      <trkpt lat="45.61121" lon="5.2738">
        <ele>228</ele>
        <time>2020-05-16T15:28:34.057Z</time>
      </trkpt>
      <trkpt lat="45.61128" lon="5.27383">
        <ele>228</ele>
        <time>2020-05-16T15:28:35.057Z</time>
      </trkpt>
      <trkpt lat="45.61134" lon="5.27386">
        <ele>227</ele>
        <time>2020-05-16T15:28:36.057Z</time>
      </trkpt>
      <trkpt lat="45.61141" lon="5.27389">
        <ele>227</ele>
        <time>2020-05-16T15:28:37.057Z</time>
      </trkpt>
      <trkpt lat="45.61148" lon="5.27393">
        <ele>227</ele>
        <time>2020-05-16T15:28:38.057Z</time>
      </trkpt>
      <trkpt lat="45.61154" lon="5.27396">
        <ele>227</ele>
        <time>2020-05-16T15:28:39.057Z</time>
      </trkpt>
      <trkpt lat="45.61161" lon="5.27399">
        <ele>227</ele>
        <time>2020-05-16T15:28:40.057Z</time>
      </trkpt>
      <trkpt lat="45.61168" lon="5.27402">
        <ele>227</ele>
        <time>2020-05-16T15:28:41.057Z</time>
      </trkpt>
      <trkpt lat="45.61174" lon="5.27405">
        <ele>227</ele>
        <time>2020-05-16T15:28:42.057Z</time>
      </trkpt>
      <trkpt lat="45.61181" lon="5.27409">
        <ele>226</ele>
        <time>2020-05-16T15:28:43.057Z</time>
      </trkpt>
      <trkpt lat="45.61187" lon="5.27412">
        <ele>227</ele>
        <time>2020-05-16T15:28:44.057Z</time>
      </trkpt>
      <trkpt lat="45.61193" lon="5.27415">
        <ele>226</ele>
        <time>2020-05-16T15:28:45.057Z</time>
      </trkpt>
      <trkpt lat="45.612" lon="5.27417">
        <ele>227</ele>
        <time>2020-05-16T15:28:46.057Z</time>
      </trkpt>
      <trkpt lat="45.61206" lon="5.27419">
        <ele>226</ele>
        <time>2020-05-16T15:28:47.057Z</time>
      </trkpt>
      <trkpt lat="45.61212" lon="5.2742">
        <ele>226</ele>
        <time>2020-05-16T15:28:48.057Z</time>
      </trkpt>
      <trkpt lat="45.61218" lon="5.2742">
        <ele>226</ele>
        <time>2020-05-16T15:28:49.057Z</time>
      </trkpt>
      <trkpt lat="45.61223" lon="5.2742">
        <ele>226</ele>
        <time>2020-05-16T15:28:50.057Z</time>
      </trkpt>
      <trkpt lat="45.61229" lon="5.27423">
        <ele>226</ele>
        <time>2020-05-16T15:28:51.057Z</time>
      </trkpt>
      <trkpt lat="45.61234" lon="5.27427">
        <ele>226</ele>
        <time>2020-05-16T15:28:52.057Z</time>
      </trkpt>
      <trkpt lat="45.61239" lon="5.27432">
        <ele>226</ele>
        <time>2020-05-16T15:28:53.057Z</time>
      </trkpt>
      <trkpt lat="45.61244" lon="5.27436">
        <ele>226</ele>
        <time>2020-05-16T15:28:54.057Z</time>
      </trkpt>
      <trkpt lat="45.61249" lon="5.27441">
        <ele>226</ele>
        <time>2020-05-16T15:28:55.057Z</time>
      </trkpt>
      <trkpt lat="45.61255" lon="5.27444">
        <ele>226</ele>
        <time>2020-05-16T15:28:56.057Z</time>
      </trkpt>
      <trkpt lat="45.61261" lon="5.27447">
        <ele>226</ele>
        <time>2020-05-16T15:28:57.057Z</time>
      </trkpt>
      <trkpt lat="45.61266" lon="5.2745">
        <ele>226</ele>
        <time>2020-05-16T15:28:58.057Z</time>
      </trkpt>
      <trkpt lat="45.61272" lon="5.27452">
        <ele>226</ele>
        <time>2020-05-16T15:28:59.057Z</time>
      </trkpt>
      <trkpt lat="45.61277" lon="5.27455">
        <ele>226</ele>
        <time>2020-05-16T15:29:00.057Z</time>
      </trkpt>
      <trkpt lat="45.61283" lon="5.27457">
        <ele>226</ele>
        <time>2020-05-16T15:29:01.057Z</time>
      </trkpt>
      <trkpt lat="45.61289" lon="5.27458">
        <ele>226</ele>
        <time>2020-05-16T15:29:02.057Z</time>
      </trkpt>
      <trkpt lat="45.61295" lon="5.2746">
        <ele>226</ele>
        <time>2020-05-16T15:29:03.057Z</time>
      </trkpt>
      <trkpt lat="45.61301" lon="5.27463">
        <ele>226</ele>
        <time>2020-05-16T15:29:04.057Z</time>
      </trkpt>
      <trkpt lat="45.61307" lon="5.27466">
        <ele>226</ele>
        <time>2020-05-16T15:29:05.057Z</time>
      </trkpt>
      <trkpt lat="45.61313" lon="5.27469">
        <ele>226</ele>
        <time>2020-05-16T15:29:06.057Z</time>
      </trkpt>
      <trkpt lat="45.61319" lon="5.27472">
        <ele>226</ele>
        <time>2020-05-16T15:29:07.057Z</time>
      </trkpt>
      <trkpt lat="45.61325" lon="5.27475">
        <ele>226</ele>
        <time>2020-05-16T15:29:08.057Z</time>
      </trkpt>
      <trkpt lat="45.61331" lon="5.27478">
        <ele>226</ele>
        <time>2020-05-16T15:29:09.057Z</time>
      </trkpt>
      <trkpt lat="45.61337" lon="5.27481">
        <ele>227</ele>
        <time>2020-05-16T15:29:10.057Z</time>
      </trkpt>
      <trkpt lat="45.61342" lon="5.27484">
        <ele>227</ele>
        <time>2020-05-16T15:29:11.057Z</time>
      </trkpt>
      <trkpt lat="45.61348" lon="5.27487">
        <ele>227</ele>
        <time>2020-05-16T15:29:12.057Z</time>
      </trkpt>
      <trkpt lat="45.61354" lon="5.2749">
        <ele>227</ele>
        <time>2020-05-16T15:29:13.057Z</time>
      </trkpt>
      <trkpt lat="45.6136" lon="5.27493">
        <ele>227</ele>
        <time>2020-05-16T15:29:14.057Z</time>
      </trkpt>
      <trkpt lat="45.61365" lon="5.27496">
        <ele>227</ele>
        <time>2020-05-16T15:29:15.057Z</time>
      </trkpt>
      <trkpt lat="45.6137" lon="5.27499">
        <ele>227</ele>
        <time>2020-05-16T15:29:16.057Z</time>
      </trkpt>
      <trkpt lat="45.61375" lon="5.27501">
        <ele>227</ele>
        <time>2020-05-16T15:29:17.057Z</time>
      </trkpt>
      <trkpt lat="45.6138" lon="5.27504">
        <ele>227</ele>
        <time>2020-05-16T15:29:18.057Z</time>
      </trkpt>
      <trkpt lat="45.61385" lon="5.27506">
        <ele>227</ele>
        <time>2020-05-16T15:29:19.057Z</time>
      </trkpt>
      <trkpt lat="45.61389" lon="5.27508">
        <ele>227</ele>
        <time>2020-05-16T15:29:20.057Z</time>
      </trkpt>
      <trkpt lat="45.61393" lon="5.27509">
        <ele>228</ele>
        <time>2020-05-16T15:29:21.057Z</time>
      </trkpt>
      <trkpt lat="45.61397" lon="5.2751">
        <ele>227</ele>
        <time>2020-05-16T15:29:22.057Z</time>
      </trkpt>
      <trkpt lat="45.614" lon="5.27508">
        <ele>225</ele>
        <time>2020-05-16T15:29:23.057Z</time>
      </trkpt>
      <trkpt lat="45.61403" lon="5.27505">
        <ele>224</ele>
        <time>2020-05-16T15:29:24.057Z</time>
      </trkpt>
      <trkpt lat="45.61404" lon="5.275">
        <ele>225</ele>
        <time>2020-05-16T15:29:25.057Z</time>
      </trkpt>
      <trkpt lat="45.61405" lon="5.27494">
        <ele>225</ele>
        <time>2020-05-16T15:29:26.057Z</time>
      </trkpt>
      <trkpt lat="45.61407" lon="5.27488">
        <ele>225</ele>
        <time>2020-05-16T15:29:27.057Z</time>
      </trkpt>
      <trkpt lat="45.61408" lon="5.27482">
        <ele>224</ele>
        <time>2020-05-16T15:29:28.057Z</time>
      </trkpt>
      <trkpt lat="45.61409" lon="5.27475">
        <ele>224</ele>
        <time>2020-05-16T15:29:29.057Z</time>
      </trkpt>
      <trkpt lat="45.61411" lon="5.27469">
        <ele>224</ele>
        <time>2020-05-16T15:29:30.057Z</time>
      </trkpt>
      <trkpt lat="45.61412" lon="5.27463">
        <ele>224</ele>
        <time>2020-05-16T15:29:31.057Z</time>
      </trkpt>
      <trkpt lat="45.61414" lon="5.27458">
        <ele>224</ele>
        <time>2020-05-16T15:29:32.057Z</time>
      </trkpt>
      <trkpt lat="45.61414" lon="5.27454">
        <ele>223</ele>
        <time>2020-05-16T15:29:33.057Z</time>
      </trkpt>
      <trkpt lat="45.61414" lon="5.2745">
        <ele>223</ele>
        <time>2020-05-16T15:29:34.057Z</time>
      </trkpt>
      <trkpt lat="45.61415" lon="5.27446">
        <ele>223</ele>
        <time>2020-05-16T15:29:35.057Z</time>
      </trkpt>
      <trkpt lat="45.61417" lon="5.27443">
        <ele>223</ele>
        <time>2020-05-16T15:29:36.057Z</time>
      </trkpt>
      <trkpt lat="45.61419" lon="5.27441">
        <ele>224</ele>
        <time>2020-05-16T15:29:37.057Z</time>
      </trkpt>
      <trkpt lat="45.61422" lon="5.2744">
        <ele>224</ele>
        <time>2020-05-16T15:29:38.057Z</time>
      </trkpt>
      <trkpt lat="45.61426" lon="5.2744">
        <ele>223</ele>
        <time>2020-05-16T15:29:39.057Z</time>
      </trkpt>
      <trkpt lat="45.61429" lon="5.27441">
        <ele>222</ele>
        <time>2020-05-16T15:29:40.057Z</time>
      </trkpt>
      <trkpt lat="45.61433" lon="5.27443">
        <ele>222</ele>
        <time>2020-05-16T15:29:41.057Z</time>
      </trkpt>
      <trkpt lat="45.61437" lon="5.27445">
        <ele>223</ele>
        <time>2020-05-16T15:29:42.057Z</time>
      </trkpt>
      <trkpt lat="45.61441" lon="5.27447">
        <ele>223</ele>
        <time>2020-05-16T15:29:43.057Z</time>
      </trkpt>
      <trkpt lat="45.61445" lon="5.27449">
        <ele>223</ele>
        <time>2020-05-16T15:29:44.057Z</time>
      </trkpt>
      <trkpt lat="45.61449" lon="5.2745">
        <ele>224</ele>
        <time>2020-05-16T15:29:45.057Z</time>
      </trkpt>
      <trkpt lat="45.61453" lon="5.27452">
        <ele>224</ele>
        <time>2020-05-16T15:29:46.057Z</time>
      </trkpt>
      <trkpt lat="45.61457" lon="5.27453">
        <ele>224</ele>
        <time>2020-05-16T15:29:47.057Z</time>
      </trkpt>
      <trkpt lat="45.6146" lon="5.27455">
        <ele>225</ele>
        <time>2020-05-16T15:29:48.057Z</time>
      </trkpt>
      <trkpt lat="45.61464" lon="5.27456">
        <ele>225</ele>
        <time>2020-05-16T15:29:49.057Z</time>
      </trkpt>
      <trkpt lat="45.61467" lon="5.27457">
        <ele>225</ele>
        <time>2020-05-16T15:29:50.057Z</time>
      </trkpt>
      <trkpt lat="45.6147" lon="5.27458">
        <ele>225</ele>
        <time>2020-05-16T15:29:51.057Z</time>
      </trkpt>
      <trkpt lat="45.61474" lon="5.27459">
        <ele>226</ele>
        <time>2020-05-16T15:29:52.057Z</time>
      </trkpt>
      <trkpt lat="45.61477" lon="5.2746">
        <ele>226</ele>
        <time>2020-05-16T15:29:53.057Z</time>
      </trkpt>
      <trkpt lat="45.6148" lon="5.27461">
        <ele>226</ele>
        <time>2020-05-16T15:29:54.057Z</time>
      </trkpt>
      <trkpt lat="45.61483" lon="5.27462">
        <ele>226</ele>
        <time>2020-05-16T15:29:55.057Z</time>
      </trkpt>
      <trkpt lat="45.61486" lon="5.27463">
        <ele>226</ele>
        <time>2020-05-16T15:29:56.057Z</time>
      </trkpt>
      <trkpt lat="45.61488" lon="5.27464">
        <ele>226</ele>
        <time>2020-05-16T15:29:57.057Z</time>
      </trkpt>
      <trkpt lat="45.61491" lon="5.27465">
        <ele>227</ele>
        <time>2020-05-16T15:29:58.057Z</time>
      </trkpt>
      <trkpt lat="45.61493" lon="5.27466">
        <ele>227</ele>
        <time>2020-05-16T15:29:59.057Z</time>
      </trkpt>
      <trkpt lat="45.61494" lon="5.27467">
        <ele>226</ele>
        <time>2020-05-16T15:30:00.057Z</time>
      </trkpt>
      <trkpt lat="45.61495" lon="5.27467">
        <ele>226</ele>
        <time>2020-05-16T15:30:01.057Z</time>
      </trkpt>
      <trkpt lat="45.61496" lon="5.27467">
        <ele>226</ele>
        <time>2020-05-16T15:30:02.057Z</time>
      </trkpt>
      <trkpt lat="45.61496" lon="5.27468">
        <ele>226</ele>
        <time>2020-05-16T15:30:03.057Z</time>
      </trkpt>
      <trkpt lat="45.61496" lon="5.27468">
        <ele>226</ele>
        <time>2020-05-16T15:30:04.057Z</time>
      </trkpt>
      <trkpt lat="45.61496" lon="5.27468">
        <ele>226</ele>
        <time>2020-05-16T15:30:05.057Z</time>
      </trkpt>
      <trkpt lat="45.61496" lon="5.27468">
        <ele>226</ele>
        <time>2020-05-16T15:30:06.057Z</time>
      </trkpt>
      <trkpt lat="45.61496" lon="5.27468">
        <ele>225</ele>
        <time>2020-05-16T15:30:07.057Z</time>
      </trkpt>
    </trkseg>
  </trk>
</gpx>